<?xml version='1.0' encoding='UTF-8'?><gpx version="1.1" creator="JPX - https://github.com/jenetics/jpx" xmlns="http://www.topografix.com/GPX/1/1"><trk><trkseg><trkpt lat="44.327228859035536" lon="9.345274772073614"><ele>20.571428571428573</ele><time>2026-04-19T06:45:43.001Z</time></trkpt><trkpt lat="44.327163643561995" lon="9.345314276510631"><ele>20.142857142857142</ele><time>2026-04-19T06:45:45.001Z</time></trkpt><trkpt lat="44.3271270127854" lon="9.34539556288875"><ele>19.714285714285715</ele><time>2026-04-19T06:45:47.001Z</time></trkpt><trkpt lat="44.327121233853845" lon="9.345503730307582"><ele>19.285714285714285</ele><time>2026-04-19T06:45:49.001Z</time></trkpt><trkpt lat="44.3271065251385" lon="9.345597503168781"><ele>18.857142857142858</ele><time>2026-04-19T06:45:51.001Z</time></trkpt><trkpt lat="44.32708942754742" lon="9.345707057670133"><ele>18.42857142857143</ele><time>2026-04-19T06:45:54.001Z</time></trkpt><trkpt lat="44.327092962617186" lon="9.34580083524047"><ele>18.0</ele><time>2026-04-19T06:46:04.001Z</time></trkpt><trkpt lat="44.32720678135" lon="9.345852457897326"><ele>16.833333333333332</ele><time>2026-04-19T06:46:06.001Z</time></trkpt><trkpt lat="44.32727194696743" lon="9.345858290493238"><ele>15.666666666666666</ele><time>2026-04-19T06:46:07.001Z</time></trkpt><trkpt lat="44.3273480531598" lon="9.345870510108492"><ele>14.5</ele><time>2026-04-19T06:46:08.001Z</time></trkpt><trkpt lat="44.32742609986968" lon="9.34586638511812"><ele>13.333333333333332</ele><time>2026-04-19T06:46:09.001Z</time></trkpt><trkpt lat="44.32750043212621" lon="9.345878261201793"><ele>12.166666666666666</ele><time>2026-04-19T06:46:10Z</time></trkpt><trkpt lat="44.327579298387214" lon="9.345878350957923"><ele>11.0</ele><time>2026-04-19T06:46:11Z</time></trkpt><trkpt lat="44.327667535881744" lon="9.345873921178649"><ele>11.0</ele><time>2026-04-19T06:46:12Z</time></trkpt><trkpt lat="44.32775789105031" lon="9.345871944535043"><ele>11.0</ele><time>2026-04-19T06:46:13Z</time></trkpt><trkpt lat="44.327845303160856" lon="9.345869806054765"><ele>11.0</ele><time>2026-04-19T06:46:14Z</time></trkpt><trkpt lat="44.3279382314431" lon="9.345891673702559"><ele>11.0</ele><time>2026-04-19T06:46:15Z</time></trkpt><trkpt lat="44.32803001061804" lon="9.3458733543102"><ele>11.0</ele><time>2026-04-19T06:46:16Z</time></trkpt><trkpt lat="44.32812401562307" lon="9.345885541634457"><ele>11.200000000000001</ele><time>2026-04-19T06:46:17Z</time></trkpt><trkpt lat="44.3282211190214" lon="9.345896060270924"><ele>11.4</ele><time>2026-04-19T06:46:18Z</time></trkpt><trkpt lat="44.328326139292464" lon="9.345908594194299"><ele>11.6</ele><time>2026-04-19T06:46:19Z</time></trkpt><trkpt lat="44.32844281842192" lon="9.345916683036178"><ele>11.8</ele><time>2026-04-19T06:46:20Z</time></trkpt><trkpt lat="44.32854786376991" lon="9.345915871853292"><ele>12.0</ele><time>2026-04-19T06:46:21Z</time></trkpt><trkpt lat="44.32864871734695" lon="9.34590989277991"><ele>12.0</ele><time>2026-04-19T06:46:22Z</time></trkpt><trkpt lat="44.328747131797854" lon="9.345880197134838"><ele>12.0</ele><time>2026-04-19T06:46:23Z</time></trkpt><trkpt lat="44.328847402639404" lon="9.345820371735346"><ele>12.0</ele><time>2026-04-19T06:46:24Z</time></trkpt><trkpt lat="44.32895229751172" lon="9.345746950303395"><ele>12.0</ele><time>2026-04-19T06:46:25Z</time></trkpt><trkpt lat="44.32905920006796" lon="9.345684064661842"><ele>12.0</ele><time>2026-04-19T06:46:26Z</time></trkpt><trkpt lat="44.32916613053635" lon="9.345617793279816"><ele>11.25</ele><time>2026-04-19T06:46:27Z</time></trkpt><trkpt lat="44.32927811687893" lon="9.345555399498192"><ele>10.5</ele><time>2026-04-19T06:46:28Z</time></trkpt><trkpt lat="44.32939024716314" lon="9.345504716371112"><ele>9.75</ele><time>2026-04-19T06:46:29Z</time></trkpt><trkpt lat="44.32951225198137" lon="9.345494526703794"><ele>9.0</ele><time>2026-04-19T06:46:30Z</time></trkpt><trkpt lat="44.32962651035413" lon="9.345444163503487"><ele>12.5</ele><time>2026-04-19T06:46:31Z</time></trkpt><trkpt lat="44.32974782224278" lon="9.345439953246336"><ele>16.0</ele><time>2026-04-19T06:46:32Z</time></trkpt><trkpt lat="44.32986965004271" lon="9.345447350551082"><ele>19.5</ele><time>2026-04-19T06:46:33Z</time></trkpt><trkpt lat="44.32998976042344" lon="9.34546432649786"><ele>23.0</ele><time>2026-04-19T06:46:34Z</time></trkpt><trkpt lat="44.330110218283174" lon="9.345493263962297"><ele>23.0</ele><time>2026-04-19T06:46:35Z</time></trkpt><trkpt lat="44.330230552349136" lon="9.345517047900804"><ele>23.0</ele><time>2026-04-19T06:46:36Z</time></trkpt><trkpt lat="44.330353311974534" lon="9.345532517620642"><ele>23.0</ele><time>2026-04-19T06:46:37Z</time></trkpt><trkpt lat="44.33047912439695" lon="9.345523954606831"><ele>23.0</ele><time>2026-04-19T06:46:38Z</time></trkpt><trkpt lat="44.33060178317772" lon="9.34548728722958"><ele>24.25</ele><time>2026-04-19T06:46:39Z</time></trkpt><trkpt lat="44.33072648354294" lon="9.345454981188398"><ele>25.5</ele><time>2026-04-19T06:46:40Z</time></trkpt><trkpt lat="44.33085185165104" lon="9.345435793667797"><ele>26.75</ele><time>2026-04-19T06:46:41Z</time></trkpt><trkpt lat="44.33098187902264" lon="9.345438310066358"><ele>28.0</ele><time>2026-04-19T06:46:42Z</time></trkpt><trkpt lat="44.33110462074313" lon="9.345475659640035"><ele>28.0</ele><time>2026-04-19T06:46:43Z</time></trkpt><trkpt lat="44.331226512545754" lon="9.345506122513827"><ele>28.0</ele><time>2026-04-19T06:46:44Z</time></trkpt><trkpt lat="44.33135471808836" lon="9.34551518847145"><ele>28.0</ele><time>2026-04-19T06:46:45Z</time></trkpt><trkpt lat="44.33148036246355" lon="9.345510869182558"><ele>28.0</ele><time>2026-04-19T06:46:46Z</time></trkpt><trkpt lat="44.33161024346742" lon="9.345497588266182"><ele>27.75</ele><time>2026-04-19T06:46:47Z</time></trkpt><trkpt lat="44.33173600349075" lon="9.345493728758607"><ele>27.5</ele><time>2026-04-19T06:46:48Z</time></trkpt><trkpt lat="44.33186798388567" lon="9.34550243927633"><ele>27.25</ele><time>2026-04-19T06:46:49Z</time></trkpt><trkpt lat="44.332009043543444" lon="9.345534494618063"><ele>27.0</ele><time>2026-04-19T06:46:50Z</time></trkpt><trkpt lat="44.332141679492665" lon="9.345583979769723"><ele>23.25</ele><time>2026-04-19T06:46:51Z</time></trkpt><trkpt lat="44.33227748037427" lon="9.345619879777349"><ele>19.5</ele><time>2026-04-19T06:46:52Z</time></trkpt><trkpt lat="44.33243105648596" lon="9.34563108641565"><ele>15.75</ele><time>2026-04-19T06:46:53Z</time></trkpt><trkpt lat="44.332580417794574" lon="9.3456370365722"><ele>12.0</ele><time>2026-04-19T06:46:54Z</time></trkpt><trkpt lat="44.332737993681675" lon="9.345631054945608"><ele>12.0</ele><time>2026-04-19T06:46:55Z</time></trkpt><trkpt lat="44.332880561383725" lon="9.345594228215566"><ele>12.0</ele><time>2026-04-19T06:46:56Z</time></trkpt><trkpt lat="44.33302109347958" lon="9.345568477063091"><ele>12.0</ele><time>2026-04-19T06:46:56.999Z</time></trkpt><trkpt lat="44.333148628424865" lon="9.345556753195364"><ele>12.0</ele><time>2026-04-19T06:46:57.999Z</time></trkpt><trkpt lat="44.33326625717856" lon="9.345542633499893"><ele>12.399999999999999</ele><time>2026-04-19T06:46:58.999Z</time></trkpt><trkpt lat="44.33337360859683" lon="9.345541272714406"><ele>12.799999999999999</ele><time>2026-04-19T06:46:59.999Z</time></trkpt><trkpt lat="44.333470264160034" lon="9.345583790682342"><ele>13.2</ele><time>2026-04-19T06:47:00.999Z</time></trkpt><trkpt lat="44.3335556838497" lon="9.345671242434587"><ele>13.6</ele><time>2026-04-19T06:47:01.999Z</time></trkpt><trkpt lat="44.33364370891733" lon="9.345752599993661"><ele>14.0</ele><time>2026-04-19T06:47:02.999Z</time></trkpt><trkpt lat="44.333757028190796" lon="9.345780636435777"><ele>14.0</ele><time>2026-04-19T06:47:03.999Z</time></trkpt><trkpt lat="44.333873693726176" lon="9.345787390719885"><ele>14.0</ele><time>2026-04-19T06:47:04.999Z</time></trkpt><trkpt lat="44.33399857148052" lon="9.345838432776148"><ele>14.0</ele><time>2026-04-19T06:47:05.999Z</time></trkpt><trkpt lat="44.334132645172105" lon="9.345930752082694"><ele>14.0</ele><time>2026-04-19T06:47:06.999Z</time></trkpt><trkpt lat="44.334262153945396" lon="9.346011636535925"><ele>13.75</ele><time>2026-04-19T06:47:07.999Z</time></trkpt><trkpt lat="44.33440268696375" lon="9.34608921825131"><ele>13.5</ele><time>2026-04-19T06:47:08.999Z</time></trkpt><trkpt lat="44.33454026495018" lon="9.346160012695675"><ele>13.25</ele><time>2026-04-19T06:47:09.999Z</time></trkpt><trkpt lat="44.33467389295777" lon="9.346236262031992"><ele>13.0</ele><time>2026-04-19T06:47:10.999Z</time></trkpt><trkpt lat="44.33480143048073" lon="9.346319465444552"><ele>12.5</ele><time>2026-04-19T06:47:11.999Z</time></trkpt><trkpt lat="44.3349259380182" lon="9.346401771078245"><ele>12.0</ele><time>2026-04-19T06:47:12.999Z</time></trkpt><trkpt lat="44.33504608748793" lon="9.346483458672553"><ele>11.5</ele><time>2026-04-19T06:47:13.999Z</time></trkpt><trkpt lat="44.33515384132595" lon="9.346585854365843"><ele>11.0</ele><time>2026-04-19T06:47:14.999Z</time></trkpt><trkpt lat="44.33522254366522" lon="9.346738657843161"><ele>11.0</ele><time>2026-04-19T06:47:15.999Z</time></trkpt><trkpt lat="44.33530031530333" lon="9.346883869473146"><ele>11.0</ele><time>2026-04-19T06:47:16.999Z</time></trkpt><trkpt lat="44.33539399462405" lon="9.347017851315238"><ele>11.0</ele><time>2026-04-19T06:47:17.999Z</time></trkpt><trkpt lat="44.33546980972864" lon="9.34716914543106"><ele>11.0</ele><time>2026-04-19T06:47:18.999Z</time></trkpt><trkpt lat="44.33555931854189" lon="9.347309894329461"><ele>11.25</ele><time>2026-04-19T06:47:19.999Z</time></trkpt><trkpt lat="44.33565816183326" lon="9.347449444884335"><ele>11.5</ele><time>2026-04-19T06:47:20.999Z</time></trkpt><trkpt lat="44.33576333119699" lon="9.347562706258923"><ele>11.75</ele><time>2026-04-19T06:47:21.999Z</time></trkpt><trkpt lat="44.335883116737996" lon="9.347643540316474"><ele>12.0</ele><time>2026-04-19T06:47:22.999Z</time></trkpt><trkpt lat="44.335992973518614" lon="9.347706919316884"><ele>12.0</ele><time>2026-04-19T06:47:23.999Z</time></trkpt><trkpt lat="44.33609843837072" lon="9.347765675154674"><ele>12.0</ele><time>2026-04-19T06:47:24.999Z</time></trkpt><trkpt lat="44.336198946724856" lon="9.347824341363694"><ele>12.0</ele><time>2026-04-19T06:47:25.999Z</time></trkpt><trkpt lat="44.336308341862505" lon="9.347877351773475"><ele>12.0</ele><time>2026-04-19T06:47:26.999Z</time></trkpt><trkpt lat="44.3364156393581" lon="9.347941670860317"><ele>12.0</ele><time>2026-04-19T06:47:27.999Z</time></trkpt><trkpt lat="44.3365299777997" lon="9.348002849324287"><ele>12.0</ele><time>2026-04-19T06:47:28.999Z</time></trkpt><trkpt lat="44.336648089514014" lon="9.348071600807312"><ele>12.0</ele><time>2026-04-19T06:47:29.999Z</time></trkpt><trkpt lat="44.336764152280786" lon="9.348144757653762"><ele>12.0</ele><time>2026-04-19T06:47:30.999Z</time></trkpt><trkpt lat="44.336877652181826" lon="9.348220073936865"><ele>12.0</ele><time>2026-04-19T06:47:31.999Z</time></trkpt><trkpt lat="44.33698028366353" lon="9.348290556641155"><ele>12.0</ele><time>2026-04-19T06:47:32.999Z</time></trkpt><trkpt lat="44.33707522652608" lon="9.348357467372837"><ele>12.0</ele><time>2026-04-19T06:47:33.999Z</time></trkpt><trkpt lat="44.33717683242119" lon="9.348426592499042"><ele>12.0</ele><time>2026-04-19T06:47:34.999Z</time></trkpt><trkpt lat="44.33728381373044" lon="9.348498552608985"><ele>13.75</ele><time>2026-04-19T06:47:35.999Z</time></trkpt><trkpt lat="44.33739927276861" lon="9.348568153400377"><ele>15.5</ele><time>2026-04-19T06:47:36.999Z</time></trkpt><trkpt lat="44.33752471005738" lon="9.348615289855113"><ele>17.25</ele><time>2026-04-19T06:47:37.999Z</time></trkpt><trkpt lat="44.33765188595755" lon="9.348645695905388"><ele>19.0</ele><time>2026-04-19T06:47:38.999Z</time></trkpt><trkpt lat="44.33778608300355" lon="9.34866133942767"><ele>19.0</ele><time>2026-04-19T06:47:39.999Z</time></trkpt><trkpt lat="44.33793200950495" lon="9.348655916488328"><ele>19.0</ele><time>2026-04-19T06:47:40.999Z</time></trkpt><trkpt lat="44.33807289400541" lon="9.348674032309617"><ele>19.0</ele><time>2026-04-19T06:47:41.999Z</time></trkpt><trkpt lat="44.33821995839224" lon="9.348639979225545"><ele>19.0</ele><time>2026-04-19T06:47:42.999Z</time></trkpt><trkpt lat="44.33835902845874" lon="9.34866864375491"><ele>20.25</ele><time>2026-04-19T06:47:43.999Z</time></trkpt><trkpt lat="44.338510306892296" lon="9.348729087280056"><ele>21.5</ele><time>2026-04-19T06:47:44.999Z</time></trkpt><trkpt lat="44.33864678240424" lon="9.34878008221319"><ele>22.75</ele><time>2026-04-19T06:47:45.999Z</time></trkpt><trkpt lat="44.338790134269196" lon="9.34881534063934"><ele>24.0</ele><time>2026-04-19T06:47:46.999Z</time></trkpt><trkpt lat="44.33893136517051" lon="9.348873783967974"><ele>21.0</ele><time>2026-04-19T06:47:48.001Z</time></trkpt><trkpt lat="44.33908242691661" lon="9.348916051938415"><ele>18.0</ele><time>2026-04-19T06:47:49.001Z</time></trkpt><trkpt lat="44.33924121118313" lon="9.348934238961316"><ele>15.0</ele><time>2026-04-19T06:47:50.001Z</time></trkpt><trkpt lat="44.33939626918851" lon="9.348981424446979"><ele>15.0</ele><time>2026-04-19T06:47:51.001Z</time></trkpt><trkpt lat="44.33954623234252" lon="9.349023990286549"><ele>15.0</ele><time>2026-04-19T06:47:52.001Z</time></trkpt><trkpt lat="44.339689882158034" lon="9.349063304227313"><ele>15.0</ele><time>2026-04-19T06:47:53.001Z</time></trkpt><trkpt lat="44.339836265681846" lon="9.349118973456287"><ele>16.0</ele><time>2026-04-19T06:47:54.001Z</time></trkpt><trkpt lat="44.33996129580508" lon="9.349201460966455"><ele>17.0</ele><time>2026-04-19T06:47:55.001Z</time></trkpt><trkpt lat="44.34008322527158" lon="9.349329893590449"><ele>18.0</ele><time>2026-04-19T06:47:56.001Z</time></trkpt><trkpt lat="44.34019263530253" lon="9.349459794766291"><ele>19.0</ele><time>2026-04-19T06:47:57.001Z</time></trkpt><trkpt lat="44.34030970423717" lon="9.349611611706935"><ele>19.333333333333332</ele><time>2026-04-19T06:47:58.001Z</time></trkpt><trkpt lat="44.34042687687665" lon="9.349759824494827"><ele>19.666666666666668</ele><time>2026-04-19T06:47:59.001Z</time></trkpt><trkpt lat="44.340549210586886" lon="9.349911910192654"><ele>20.0</ele><time>2026-04-19T06:48:00.001Z</time></trkpt><trkpt lat="44.34068295319716" lon="9.350033984885432"><ele>20.0</ele><time>2026-04-19T06:48:01.001Z</time></trkpt><trkpt lat="44.34082277866987" lon="9.350125878658147"><ele>20.0</ele><time>2026-04-19T06:48:02Z</time></trkpt><trkpt lat="44.34097058846511" lon="9.350194945664569"><ele>20.0</ele><time>2026-04-19T06:48:03Z</time></trkpt><trkpt lat="44.34109599167995" lon="9.35024719166474"><ele>20.0</ele><time>2026-04-19T06:48:04Z</time></trkpt><trkpt lat="44.34121279899259" lon="9.350279519796898"><ele>20.0</ele><time>2026-04-19T06:48:05Z</time></trkpt><trkpt lat="44.34132343388325" lon="9.350239032831292"><ele>20.0</ele><time>2026-04-19T06:48:06Z</time></trkpt><trkpt lat="44.34141474349346" lon="9.350131851138999"><ele>20.0</ele><time>2026-04-19T06:48:07Z</time></trkpt><trkpt lat="44.341463229084795" lon="9.349959668544173"><ele>20.0</ele><time>2026-04-19T06:48:08Z</time></trkpt><trkpt lat="44.34146800123401" lon="9.349782766037682"><ele>21.25</ele><time>2026-04-19T06:48:09Z</time></trkpt><trkpt lat="44.34142806220953" lon="9.349592758086951"><ele>22.5</ele><time>2026-04-19T06:48:10Z</time></trkpt><trkpt lat="44.341383387740905" lon="9.349424246425393"><ele>23.75</ele><time>2026-04-19T06:48:11Z</time></trkpt><trkpt lat="44.34133600459888" lon="9.349251061618565"><ele>25.0</ele><time>2026-04-19T06:48:12Z</time></trkpt><trkpt lat="44.341301829773364" lon="9.349079934984928"><ele>26.8</ele><time>2026-04-19T06:48:13Z</time></trkpt><trkpt lat="44.34128155281234" lon="9.348933603282061"><ele>28.6</ele><time>2026-04-19T06:48:14Z</time></trkpt><trkpt lat="44.34129357678165" lon="9.348798692872752"><ele>30.4</ele><time>2026-04-19T06:48:15Z</time></trkpt><trkpt lat="44.34136760170125" lon="9.348693547094816"><ele>32.2</ele><time>2026-04-19T06:48:16Z</time></trkpt><trkpt lat="44.341476254621256" lon="9.348659709969318"><ele>34.0</ele><time>2026-04-19T06:48:17Z</time></trkpt><trkpt lat="44.34159122381764" lon="9.348699188843302"><ele>34.75</ele><time>2026-04-19T06:48:18Z</time></trkpt><trkpt lat="44.341688893011415" lon="9.348826402928747"><ele>35.5</ele><time>2026-04-19T06:48:19Z</time></trkpt><trkpt lat="44.34171952497788" lon="9.349021498810947"><ele>36.25</ele><time>2026-04-19T06:48:20Z</time></trkpt><trkpt lat="44.34178142692962" lon="9.349199443574653"><ele>37.0</ele><time>2026-04-19T06:48:21Z</time></trkpt><trkpt lat="44.34185228454591" lon="9.349346368299804"><ele>35.75</ele><time>2026-04-19T06:48:22Z</time></trkpt><trkpt lat="44.34196354496966" lon="9.349450149584653"><ele>34.5</ele><time>2026-04-19T06:48:23Z</time></trkpt><trkpt lat="44.342082909672676" lon="9.349561491806577"><ele>33.25</ele><time>2026-04-19T06:48:24Z</time></trkpt><trkpt lat="44.34218006460518" lon="9.349669515059341"><ele>32.0</ele><time>2026-04-19T06:48:25Z</time></trkpt><trkpt lat="44.34228044163499" lon="9.349781315950006"><ele>32.0</ele><time>2026-04-19T06:48:26Z</time></trkpt><trkpt lat="44.34237143242587" lon="9.349911656789152"><ele>32.0</ele><time>2026-04-19T06:48:27Z</time></trkpt><trkpt lat="44.3424517331177" lon="9.350024374133843"><ele>32.0</ele><time>2026-04-19T06:48:28Z</time></trkpt><trkpt lat="44.342541537890725" lon="9.350095401855436"><ele>32.0</ele><time>2026-04-19T06:48:29Z</time></trkpt><trkpt lat="44.342630415367324" lon="9.350156822021377"><ele>32.0</ele><time>2026-04-19T06:48:30Z</time></trkpt><trkpt lat="44.34273052748009" lon="9.350188725500326"><ele>32.0</ele><time>2026-04-19T06:48:31Z</time></trkpt><trkpt lat="44.342835902057175" lon="9.350192500407708"><ele>32.0</ele><time>2026-04-19T06:48:32Z</time></trkpt><trkpt lat="44.342956360051254" lon="9.350151345182885"><ele>32.0</ele><time>2026-04-19T06:48:33Z</time></trkpt><trkpt lat="44.34308576133805" lon="9.350085247599862"><ele>32.0</ele><time>2026-04-19T06:48:34Z</time></trkpt><trkpt lat="44.34323605438801" lon="9.350016957811981"><ele>34.666666666666664</ele><time>2026-04-19T06:48:35Z</time></trkpt><trkpt lat="44.34340613354571" lon="9.349944596517583"><ele>37.333333333333336</ele><time>2026-04-19T06:48:36Z</time></trkpt><trkpt lat="44.34356702998386" lon="9.349900777924905"><ele>40.0</ele><time>2026-04-19T06:48:37Z</time></trkpt><trkpt lat="44.34371764977619" lon="9.3498442213604"><ele>38.0</ele><time>2026-04-19T06:48:38Z</time></trkpt><trkpt lat="44.343887022708856" lon="9.349765768992626"><ele>36.0</ele><time>2026-04-19T06:48:39Z</time></trkpt><trkpt lat="44.344057888246205" lon="9.34969751165883"><ele>34.0</ele><time>2026-04-19T06:48:40Z</time></trkpt><trkpt lat="44.34421449337354" lon="9.349646986303439"><ele>34.0</ele><time>2026-04-19T06:48:41Z</time></trkpt><trkpt lat="44.344364329329444" lon="9.349597223623187"><ele>34.0</ele><time>2026-04-19T06:48:42Z</time></trkpt><trkpt lat="44.34452058264442" lon="9.349540072237264"><ele>34.0</ele><time>2026-04-19T06:48:43Z</time></trkpt><trkpt lat="44.344670019397995" lon="9.3494685638016"><ele>32.75</ele><time>2026-04-19T06:48:44Z</time></trkpt><trkpt lat="44.3448125279007" lon="9.349363653925112"><ele>31.5</ele><time>2026-04-19T06:48:45Z</time></trkpt><trkpt lat="44.34490839009084" lon="9.349265379163334"><ele>30.25</ele><time>2026-04-19T06:48:46Z</time></trkpt><trkpt lat="44.344962367971235" lon="9.349201050713795"><ele>29.0</ele><time>2026-04-19T06:48:47Z</time></trkpt><trkpt lat="44.345031346532224" lon="9.349099315215351"><ele>29.0</ele><time>2026-04-19T06:48:48.999Z</time></trkpt><trkpt lat="44.345096356077654" lon="9.349022970998448"><ele>29.0</ele><time>2026-04-19T06:48:50.999Z</time></trkpt><trkpt lat="44.34517669580013" lon="9.348932157664711"><ele>29.0</ele><time>2026-04-19T06:48:52.999Z</time></trkpt><trkpt lat="44.34520819136353" lon="9.34885548369894"><ele>29.0</ele><time>2026-04-19T06:48:54.999Z</time></trkpt><trkpt lat="44.345288768037065" lon="9.34881955997667"><ele>29.0</ele><time>2026-04-19T06:49:22.999Z</time></trkpt><trkpt lat="44.34538470889583" lon="9.348702098471586"><ele>30.333333333333332</ele><time>2026-04-19T06:49:24.999Z</time></trkpt><trkpt lat="44.3454540269891" lon="9.348684740129915"><ele>31.666666666666664</ele><time>2026-04-19T06:49:25.999Z</time></trkpt><trkpt lat="44.34552095493759" lon="9.348614501613682"><ele>33.0</ele><time>2026-04-19T06:49:27.999Z</time></trkpt><trkpt lat="44.34556332425658" lon="9.348507411119613"><ele>34.333333333333336</ele><time>2026-04-19T06:49:59Z</time></trkpt><trkpt lat="44.34565408060105" lon="9.348495233884616"><ele>35.66666666666667</ele><time>2026-04-19T06:50:00Z</time></trkpt><trkpt lat="44.34573700674865" lon="9.348460143423159"><ele>37.0</ele><time>2026-04-19T06:50:01Z</time></trkpt><trkpt lat="44.345838714909526" lon="9.348425242543504"><ele>32.75</ele><time>2026-04-19T06:50:02Z</time></trkpt><trkpt lat="44.345946041132215" lon="9.348398855070545"><ele>28.5</ele><time>2026-04-19T06:50:03Z</time></trkpt><trkpt lat="44.34606030442739" lon="9.348371203101715"><ele>24.25</ele><time>2026-04-19T06:50:04Z</time></trkpt><trkpt lat="44.346181523300984" lon="9.348341169384058"><ele>20.0</ele><time>2026-04-19T06:50:05Z</time></trkpt><trkpt lat="44.34631220642701" lon="9.348308796898838"><ele>20.0</ele><time>2026-04-19T06:50:06Z</time></trkpt><trkpt lat="44.34644674510051" lon="9.348275469442036"><ele>20.0</ele><time>2026-04-19T06:50:07Z</time></trkpt><trkpt lat="44.346592761285436" lon="9.348239270776041"><ele>20.0</ele><time>2026-04-19T06:50:08Z</time></trkpt><trkpt lat="44.34674079890621" lon="9.34820260787217"><ele>20.0</ele><time>2026-04-19T06:50:09Z</time></trkpt><trkpt lat="44.346891244851726" lon="9.348167608926195"><ele>20.0</ele><time>2026-04-19T06:50:10Z</time></trkpt><trkpt lat="44.34703289819348" lon="9.34812919915006"><ele>20.0</ele><time>2026-04-19T06:50:11Z</time></trkpt><trkpt lat="44.34717988465136" lon="9.34812536125865"><ele>20.0</ele><time>2026-04-19T06:50:12Z</time></trkpt><trkpt lat="44.347336326225005" lon="9.348090990252755"><ele>20.666666666666668</ele><time>2026-04-19T06:50:13Z</time></trkpt><trkpt lat="44.34749099092155" lon="9.348050316953714"><ele>21.333333333333332</ele><time>2026-04-19T06:50:14Z</time></trkpt><trkpt lat="44.34765313289886" lon="9.348009614220235"><ele>22.0</ele><time>2026-04-19T06:50:15Z</time></trkpt><trkpt lat="44.34781642953888" lon="9.347963641162716"><ele>22.0</ele><time>2026-04-19T06:50:16Z</time></trkpt><trkpt lat="44.34797042026496" lon="9.347918940947277"><ele>22.0</ele><time>2026-04-19T06:50:17Z</time></trkpt><trkpt lat="44.34813159609335" lon="9.347876593887722"><ele>22.0</ele><time>2026-04-19T06:50:18Z</time></trkpt><trkpt lat="44.34828254066109" lon="9.34783651401722"><ele>22.333333333333332</ele><time>2026-04-19T06:50:19Z</time></trkpt><trkpt lat="44.34844223735387" lon="9.347789752508199"><ele>22.666666666666668</ele><time>2026-04-19T06:50:20Z</time></trkpt><trkpt lat="44.34859234720071" lon="9.347737537049237"><ele>23.0</ele><time>2026-04-19T06:50:21Z</time></trkpt><trkpt lat="44.34874240877365" lon="9.347692400070923"><ele>22.666666666666668</ele><time>2026-04-19T06:50:22Z</time></trkpt><trkpt lat="44.34889771889305" lon="9.347650594281934"><ele>22.333333333333332</ele><time>2026-04-19T06:50:23Z</time></trkpt><trkpt lat="44.349052688945804" lon="9.347621213932111"><ele>22.0</ele><time>2026-04-19T06:50:24Z</time></trkpt><trkpt lat="44.34921072198432" lon="9.347590240055268"><ele>22.0</ele><time>2026-04-19T06:50:25Z</time></trkpt><trkpt lat="44.34936154785304" lon="9.347555859062101"><ele>22.0</ele><time>2026-04-19T06:50:26Z</time></trkpt><trkpt lat="44.349504561198714" lon="9.347526761380141"><ele>22.0</ele><time>2026-04-19T06:50:27Z</time></trkpt><trkpt lat="44.349634528334356" lon="9.347473782212635"><ele>22.0</ele><time>2026-04-19T06:50:28Z</time></trkpt><trkpt lat="44.34974676141309" lon="9.34736490053376"><ele>23.25</ele><time>2026-04-19T06:50:29Z</time></trkpt><trkpt lat="44.34983048086954" lon="9.347204311790309"><ele>24.5</ele><time>2026-04-19T06:50:30Z</time></trkpt><trkpt lat="44.34987894315025" lon="9.347004912417779"><ele>25.75</ele><time>2026-04-19T06:50:31Z</time></trkpt><trkpt lat="44.34989224260476" lon="9.346790348036324"><ele>27.0</ele><time>2026-04-19T06:50:32Z</time></trkpt><trkpt lat="44.34989771393365" lon="9.346573007295905"><ele>27.0</ele><time>2026-04-19T06:50:33Z</time></trkpt><trkpt lat="44.34990828697508" lon="9.346353368297773"><ele>27.0</ele><time>2026-04-19T06:50:34Z</time></trkpt><trkpt lat="44.34992341761827" lon="9.346136700635396"><ele>27.0</ele><time>2026-04-19T06:50:35Z</time></trkpt><trkpt lat="44.34994400436416" lon="9.345923019084994"><ele>27.0</ele><time>2026-04-19T06:50:36Z</time></trkpt><trkpt lat="44.349965078511865" lon="9.345711708658996"><ele>27.0</ele><time>2026-04-19T06:50:37Z</time></trkpt><trkpt lat="44.34998343898051" lon="9.345495281840906"><ele>27.0</ele><time>2026-04-19T06:50:38Z</time></trkpt><trkpt lat="44.34999870684527" lon="9.345269714136137"><ele>27.0</ele><time>2026-04-19T06:50:39Z</time></trkpt><trkpt lat="44.35001567497995" lon="9.345049285505528"><ele>27.0</ele><time>2026-04-19T06:50:40Z</time></trkpt><trkpt lat="44.35003947742636" lon="9.344832245850265"><ele>27.0</ele><time>2026-04-19T06:50:41Z</time></trkpt><trkpt lat="44.35005921402348" lon="9.344629564747905"><ele>27.0</ele><time>2026-04-19T06:50:42Z</time></trkpt><trkpt lat="44.3500760071324" lon="9.344419249148281"><ele>27.0</ele><time>2026-04-19T06:50:43Z</time></trkpt><trkpt lat="44.350092046529674" lon="9.34422410385116"><ele>27.0</ele><time>2026-04-19T06:50:44Z</time></trkpt><trkpt lat="44.350107423235" lon="9.34404494149059"><ele>27.0</ele><time>2026-04-19T06:50:45Z</time></trkpt><trkpt lat="44.350128246800956" lon="9.343877480903252"><ele>27.0</ele><time>2026-04-19T06:50:46Z</time></trkpt><trkpt lat="44.35016785378903" lon="9.343708211359472"><ele>27.0</ele><time>2026-04-19T06:50:46.999Z</time></trkpt><trkpt lat="44.350223575930215" lon="9.343540283544703"><ele>27.0</ele><time>2026-04-19T06:50:47.999Z</time></trkpt><trkpt lat="44.35028618451071" lon="9.343375490879477"><ele>27.0</ele><time>2026-04-19T06:50:48.999Z</time></trkpt><trkpt lat="44.35029377099198" lon="9.343195267193897"><ele>27.0</ele><time>2026-04-19T06:50:49.999Z</time></trkpt><trkpt lat="44.350356591627104" lon="9.343048972366761"><ele>27.0</ele><time>2026-04-19T06:50:50.999Z</time></trkpt><trkpt lat="44.350478362883344" lon="9.342944993600925"><ele>27.0</ele><time>2026-04-19T06:50:51.999Z</time></trkpt><trkpt lat="44.35062250777049" lon="9.342876080038085"><ele>27.0</ele><time>2026-04-19T06:50:52.999Z</time></trkpt><trkpt lat="44.350770798820136" lon="9.342841467666222"><ele>26.666666666666664</ele><time>2026-04-19T06:50:53.999Z</time></trkpt><trkpt lat="44.3509200467403" lon="9.342847602277981"><ele>26.333333333333332</ele><time>2026-04-19T06:50:54.999Z</time></trkpt><trkpt lat="44.35107172747879" lon="9.342893386722787"><ele>26.0</ele><time>2026-04-19T06:50:55.999Z</time></trkpt><trkpt lat="44.35121124293296" lon="9.342964344035014"><ele>26.25</ele><time>2026-04-19T06:50:56.999Z</time></trkpt><trkpt lat="44.3513390265419" lon="9.34306027092013"><ele>26.5</ele><time>2026-04-19T06:50:57.999Z</time></trkpt><trkpt lat="44.35145129141496" lon="9.343131527356787"><ele>26.75</ele><time>2026-04-19T06:50:58.999Z</time></trkpt><trkpt lat="44.35154600833129" lon="9.34318714742545"><ele>27.0</ele><time>2026-04-19T06:50:59.999Z</time></trkpt><trkpt lat="44.351646126682" lon="9.343264108551443"><ele>27.0</ele><time>2026-04-19T06:51:00.999Z</time></trkpt><trkpt lat="44.35174550636313" lon="9.343347626313529"><ele>27.0</ele><time>2026-04-19T06:51:01.999Z</time></trkpt><trkpt lat="44.35184886215426" lon="9.343438910457376"><ele>27.0</ele><time>2026-04-19T06:51:02.999Z</time></trkpt><trkpt lat="44.35194704593593" lon="9.343544736694582"><ele>27.0</ele><time>2026-04-19T06:51:03.999Z</time></trkpt><trkpt lat="44.35203006992416" lon="9.3436852484185"><ele>27.0</ele><time>2026-04-19T06:51:04.999Z</time></trkpt><trkpt lat="44.3521114814548" lon="9.343839719156987"><ele>27.0</ele><time>2026-04-19T06:51:05.999Z</time></trkpt><trkpt lat="44.35218574739852" lon="9.344000585563817"><ele>27.0</ele><time>2026-04-19T06:51:06.999Z</time></trkpt><trkpt lat="44.35224168155004" lon="9.344194106948137"><ele>27.0</ele><time>2026-04-19T06:51:07.999Z</time></trkpt><trkpt lat="44.35227613813521" lon="9.344392847397064"><ele>26.666666666666664</ele><time>2026-04-19T06:51:08.999Z</time></trkpt><trkpt lat="44.352292120674385" lon="9.344600268395245"><ele>26.333333333333332</ele><time>2026-04-19T06:51:09.999Z</time></trkpt><trkpt lat="44.352319182679445" lon="9.344812054915584"><ele>26.0</ele><time>2026-04-19T06:51:10.999Z</time></trkpt><trkpt lat="44.35237011613472" lon="9.345019908412548"><ele>28.333333333333332</ele><time>2026-04-19T06:51:11.999Z</time></trkpt><trkpt lat="44.35244313397033" lon="9.345215952902056"><ele>30.666666666666664</ele><time>2026-04-19T06:51:12.999Z</time></trkpt><trkpt lat="44.35253779136372" lon="9.345404431466438"><ele>33.0</ele><time>2026-04-19T06:51:13.999Z</time></trkpt><trkpt lat="44.352647233430105" lon="9.345575038002814"><ele>40.0</ele><time>2026-04-19T06:51:14.999Z</time></trkpt><trkpt lat="44.3527464651742" lon="9.345747835443749"><ele>47.0</ele><time>2026-04-19T06:51:15.999Z</time></trkpt><trkpt lat="44.352822649515645" lon="9.345955689411577"><ele>54.0</ele><time>2026-04-19T06:51:16.999Z</time></trkpt><trkpt lat="44.35288213415331" lon="9.346163989403593"><ele>49.333333333333336</ele><time>2026-04-19T06:51:17.999Z</time></trkpt><trkpt lat="44.35295220949154" lon="9.346391284230101"><ele>44.66666666666667</ele><time>2026-04-19T06:51:18.999Z</time></trkpt><trkpt lat="44.35303291224776" lon="9.346607805869022"><ele>40.0</ele><time>2026-04-19T06:51:19.999Z</time></trkpt><trkpt lat="44.353124526111266" lon="9.346819598090317"><ele>40.0</ele><time>2026-04-19T06:51:20.999Z</time></trkpt><trkpt lat="44.353227239145646" lon="9.347016805787058"><ele>40.0</ele><time>2026-04-19T06:51:21.999Z</time></trkpt><trkpt lat="44.353347177379206" lon="9.34720902319458"><ele>40.0</ele><time>2026-04-19T06:51:22.999Z</time></trkpt><trkpt lat="44.35347424109302" lon="9.347406059672922"><ele>48.66666666666667</ele><time>2026-04-19T06:51:23.999Z</time></trkpt><trkpt lat="44.353598678183005" lon="9.347601490995483"><ele>57.333333333333336</ele><time>2026-04-19T06:51:24.999Z</time></trkpt><trkpt lat="44.35372761511818" lon="9.34780422943843"><ele>66.0</ele><time>2026-04-19T06:51:25.999Z</time></trkpt><trkpt lat="44.353852348176254" lon="9.348005697950823"><ele>59.333333333333336</ele><time>2026-04-19T06:51:26.999Z</time></trkpt><trkpt lat="44.35397505576044" lon="9.34820730424422"><ele>52.66666666666667</ele><time>2026-04-19T06:51:27.999Z</time></trkpt><trkpt lat="44.354089903269326" lon="9.348411234606965"><ele>46.0</ele><time>2026-04-19T06:51:28.999Z</time></trkpt><trkpt lat="44.354208899284124" lon="9.348613816910609"><ele>46.0</ele><time>2026-04-19T06:51:29.999Z</time></trkpt><trkpt lat="44.354330418268" lon="9.348808147656312"><ele>46.0</ele><time>2026-04-19T06:51:30.999Z</time></trkpt><trkpt lat="44.354466840856794" lon="9.348978224370482"><ele>46.0</ele><time>2026-04-19T06:51:31.999Z</time></trkpt><trkpt lat="44.354628142173745" lon="9.349118000033474"><ele>45.333333333333336</ele><time>2026-04-19T06:51:32.999Z</time></trkpt><trkpt lat="44.3547937531537" lon="9.34924252343502"><ele>44.666666666666664</ele><time>2026-04-19T06:51:33.999Z</time></trkpt><trkpt lat="44.35495652226077" lon="9.34937121423314"><ele>44.0</ele><time>2026-04-19T06:51:34.999Z</time></trkpt><trkpt lat="44.35511669424827" lon="9.349506306697622"><ele>44.0</ele><time>2026-04-19T06:51:35.999Z</time></trkpt><trkpt lat="44.35528010658645" lon="9.349631221707826"><ele>44.0</ele><time>2026-04-19T06:51:36.999Z</time></trkpt><trkpt lat="44.355445426620264" lon="9.349742597324486"><ele>44.0</ele><time>2026-04-19T06:51:37.999Z</time></trkpt><trkpt lat="44.35561275996652" lon="9.349850430494262"><ele>46.0</ele><time>2026-04-19T06:51:38.999Z</time></trkpt><trkpt lat="44.35578628313614" lon="9.349957780789396"><ele>48.0</ele><time>2026-04-19T06:51:39.999Z</time></trkpt><trkpt lat="44.3559558438486" lon="9.350055378097299"><ele>50.0</ele><time>2026-04-19T06:51:40.999Z</time></trkpt><trkpt lat="44.356121456754394" lon="9.350152941444959"><ele>50.0</ele><time>2026-04-19T06:51:41.999Z</time></trkpt><trkpt lat="44.356288685825824" lon="9.350259379553943"><ele>50.0</ele><time>2026-04-19T06:51:42.998Z</time></trkpt><trkpt lat="44.356453571038216" lon="9.350350802145394"><ele>50.0</ele><time>2026-04-19T06:51:43.998Z</time></trkpt><trkpt lat="44.35662440588504" lon="9.350445765864647"><ele>52.0</ele><time>2026-04-19T06:51:44.998Z</time></trkpt><trkpt lat="44.356795068962334" lon="9.350526841202953"><ele>54.0</ele><time>2026-04-19T06:51:45.998Z</time></trkpt><trkpt lat="44.35697230923046" lon="9.350570218638603"><ele>56.0</ele><time>2026-04-19T06:51:46.998Z</time></trkpt><trkpt lat="44.357157897760004" lon="9.350559725187036"><ele>48.333333333333336</ele><time>2026-04-19T06:51:47.998Z</time></trkpt><trkpt lat="44.357334645183116" lon="9.350505555286022"><ele>40.66666666666667</ele><time>2026-04-19T06:51:48.998Z</time></trkpt><trkpt lat="44.35751164119319" lon="9.350440680821656"><ele>33.0</ele><time>2026-04-19T06:51:49.998Z</time></trkpt><trkpt lat="44.35769322582297" lon="9.350381447997227"><ele>33.0</ele><time>2026-04-19T06:51:50.998Z</time></trkpt><trkpt lat="44.35787151871999" lon="9.350330206408785"><ele>33.0</ele><time>2026-04-19T06:51:51.998Z</time></trkpt><trkpt lat="44.35805605161857" lon="9.350299477916963"><ele>33.0</ele><time>2026-04-19T06:51:52.998Z</time></trkpt><trkpt lat="44.35823397919043" lon="9.350322964598822"><ele>34.0</ele><time>2026-04-19T06:51:53.998Z</time></trkpt><trkpt lat="44.35841483693807" lon="9.350390911781288"><ele>35.0</ele><time>2026-04-19T06:51:54.998Z</time></trkpt><trkpt lat="44.35855854657198" lon="9.350524632706884"><ele>36.0</ele><time>2026-04-19T06:51:55.998Z</time></trkpt><trkpt lat="44.3587084182751" lon="9.350670292241157"><ele>36.0</ele><time>2026-04-19T06:51:56.998Z</time></trkpt><trkpt lat="44.358819246944805" lon="9.350875092254682"><ele>36.0</ele><time>2026-04-19T06:51:57.998Z</time></trkpt><trkpt lat="44.35890989563511" lon="9.351089383314607"><ele>36.0</ele><time>2026-04-19T06:51:59Z</time></trkpt><trkpt lat="44.35899323076211" lon="9.351317207672269"><ele>37.333333333333336</ele><time>2026-04-19T06:52:00Z</time></trkpt><trkpt lat="44.35908635674314" lon="9.35153648771519"><ele>38.66666666666667</ele><time>2026-04-19T06:52:01Z</time></trkpt><trkpt lat="44.35918798637088" lon="9.35175603073729"><ele>40.0</ele><time>2026-04-19T06:52:02Z</time></trkpt><trkpt lat="44.359298524300414" lon="9.351956010533373"><ele>40.0</ele><time>2026-04-19T06:52:03Z</time></trkpt><trkpt lat="44.35942854310022" lon="9.35215001375073"><ele>40.0</ele><time>2026-04-19T06:52:04Z</time></trkpt><trkpt lat="44.35956798847717" lon="9.35233327680075"><ele>40.0</ele><time>2026-04-19T06:52:05Z</time></trkpt><trkpt lat="44.35971368690164" lon="9.352503285169028"><ele>40.0</ele><time>2026-04-19T06:52:06Z</time></trkpt><trkpt lat="44.359862707650485" lon="9.352676183183783"><ele>40.0</ele><time>2026-04-19T06:52:07Z</time></trkpt><trkpt lat="44.36000349416434" lon="9.352842593510266"><ele>40.0</ele><time>2026-04-19T06:52:08Z</time></trkpt><trkpt lat="44.36014792984195" lon="9.353019400844175"><ele>48.333333333333336</ele><time>2026-04-19T06:52:09Z</time></trkpt><trkpt lat="44.36028636015153" lon="9.353191674088047"><ele>56.66666666666667</ele><time>2026-04-19T06:52:10Z</time></trkpt><trkpt lat="44.360421007999555" lon="9.353378858893137"><ele>65.0</ele><time>2026-04-19T06:52:11Z</time></trkpt><trkpt lat="44.36051858514216" lon="9.353603531480617"><ele>60.0</ele><time>2026-04-19T06:52:12Z</time></trkpt><trkpt lat="44.36060580556582" lon="9.353830899286587"><ele>55.0</ele><time>2026-04-19T06:52:13Z</time></trkpt><trkpt lat="44.36068654726465" lon="9.354059077438825"><ele>50.0</ele><time>2026-04-19T06:52:14Z</time></trkpt><trkpt lat="44.360763598717845" lon="9.354296886222281"><ele>50.0</ele><time>2026-04-19T06:52:15Z</time></trkpt><trkpt lat="44.36084154267671" lon="9.354528663773964"><ele>50.0</ele><time>2026-04-19T06:52:16Z</time></trkpt><trkpt lat="44.360919802162016" lon="9.354749316968226"><ele>50.0</ele><time>2026-04-19T06:52:17Z</time></trkpt><trkpt lat="44.3610117083252" lon="9.354987853694013"><ele>57.333333333333336</ele><time>2026-04-19T06:52:18Z</time></trkpt><trkpt lat="44.36111505986321" lon="9.355202856623784"><ele>64.66666666666667</ele><time>2026-04-19T06:52:19Z</time></trkpt><trkpt lat="44.3612382439539" lon="9.355412333171014"><ele>72.0</ele><time>2026-04-19T06:52:20Z</time></trkpt><trkpt lat="44.361350758114405" lon="9.355613665632644"><ele>63.666666666666664</ele><time>2026-04-19T06:52:21Z</time></trkpt><trkpt lat="44.361415527310484" lon="9.355854231232623"><ele>55.33333333333333</ele><time>2026-04-19T06:52:22Z</time></trkpt><trkpt lat="44.36147743278862" lon="9.356109026853687"><ele>47.0</ele><time>2026-04-19T06:52:23Z</time></trkpt><trkpt lat="44.361542779287134" lon="9.356355606507663"><ele>50.666666666666664</ele><time>2026-04-19T06:52:24Z</time></trkpt><trkpt lat="44.36159852207204" lon="9.356608387756882"><ele>54.33333333333333</ele><time>2026-04-19T06:52:25Z</time></trkpt><trkpt lat="44.3616686317151" lon="9.356837462952697"><ele>58.0</ele><time>2026-04-19T06:52:26Z</time></trkpt><trkpt lat="44.36176302922437" lon="9.357040537666764"><ele>58.0</ele><time>2026-04-19T06:52:27Z</time></trkpt><trkpt lat="44.36190267881054" lon="9.357197646228396"><ele>58.0</ele><time>2026-04-19T06:52:28Z</time></trkpt><trkpt lat="44.36207734383296" lon="9.357307194155574"><ele>58.0</ele><time>2026-04-19T06:52:29Z</time></trkpt><trkpt lat="44.3622707907395" lon="9.35735151168929"><ele>59.666666666666664</ele><time>2026-04-19T06:52:30Z</time></trkpt><trkpt lat="44.362470145994955" lon="9.357370132815285"><ele>61.33333333333333</ele><time>2026-04-19T06:52:31Z</time></trkpt><trkpt lat="44.36268074385816" lon="9.35738323634511"><ele>63.0</ele><time>2026-04-19T06:52:32Z</time></trkpt><trkpt lat="44.362881247378745" lon="9.357398368316312"><ele>58.0</ele><time>2026-04-19T06:52:33Z</time></trkpt><trkpt lat="44.36307902200744" lon="9.357408780385862"><ele>53.0</ele><time>2026-04-19T06:52:34Z</time></trkpt><trkpt lat="44.36328377531088" lon="9.357430210177997"><ele>48.0</ele><time>2026-04-19T06:52:35Z</time></trkpt><trkpt lat="44.36347726502283" lon="9.357451837201406"><ele>48.0</ele><time>2026-04-19T06:52:36Z</time></trkpt><trkpt lat="44.36368874666702" lon="9.357472513193349"><ele>48.0</ele><time>2026-04-19T06:52:37Z</time></trkpt><trkpt lat="44.36388640767532" lon="9.357497335195859"><ele>48.0</ele><time>2026-04-19T06:52:38Z</time></trkpt><trkpt lat="44.36408981218209" lon="9.357508757142764"><ele>47.333333333333336</ele><time>2026-04-19T06:52:39Z</time></trkpt><trkpt lat="44.36428218941293" lon="9.357530095347487"><ele>46.66666666666667</ele><time>2026-04-19T06:52:40Z</time></trkpt><trkpt lat="44.364480911944824" lon="9.357552295250871"><ele>46.0</ele><time>2026-04-19T06:52:41Z</time></trkpt><trkpt lat="44.36466822593111" lon="9.357569932288607"><ele>48.0</ele><time>2026-04-19T06:52:42Z</time></trkpt><trkpt lat="44.36486106752243" lon="9.357590081347485"><ele>50.0</ele><time>2026-04-19T06:52:43Z</time></trkpt><trkpt lat="44.36504847224615" lon="9.3576081655694"><ele>52.0</ele><time>2026-04-19T06:52:44Z</time></trkpt><trkpt lat="44.36523974179929" lon="9.357637122941245"><ele>52.0</ele><time>2026-04-19T06:52:45Z</time></trkpt><trkpt lat="44.3654249799803" lon="9.357663067547215"><ele>52.0</ele><time>2026-04-19T06:52:46Z</time></trkpt><trkpt lat="44.36561412814802" lon="9.357690788361142"><ele>52.0</ele><time>2026-04-19T06:52:47Z</time></trkpt><trkpt lat="44.365802356895024" lon="9.357703464842718"><ele>53.33333333333333</ele><time>2026-04-19T06:52:48Z</time></trkpt><trkpt lat="44.36598016589867" lon="9.357661156807028"><ele>54.66666666666667</ele><time>2026-04-19T06:52:49Z</time></trkpt><trkpt lat="44.366157328717506" lon="9.357566467433188"><ele>56.0</ele><time>2026-04-19T06:52:50Z</time></trkpt><trkpt lat="44.36630940292353" lon="9.357421001193941"><ele>56.333333333333336</ele><time>2026-04-19T06:52:50.999Z</time></trkpt><trkpt lat="44.366453121104385" lon="9.357261841427407"><ele>56.66666666666667</ele><time>2026-04-19T06:52:51.999Z</time></trkpt><trkpt lat="44.366600896806915" lon="9.357137809583747"><ele>57.0</ele><time>2026-04-19T06:52:52.999Z</time></trkpt><trkpt lat="44.36677224335936" lon="9.357034435222856"><ele>57.0</ele><time>2026-04-19T06:52:53.999Z</time></trkpt><trkpt lat="44.36693895553186" lon="9.356948761314186"><ele>57.0</ele><time>2026-04-19T06:52:54.999Z</time></trkpt><trkpt lat="44.36711323309288" lon="9.356871740828344"><ele>57.0</ele><time>2026-04-19T06:52:55.999Z</time></trkpt><trkpt lat="44.36728795633989" lon="9.356813527721222"><ele>61.0</ele><time>2026-04-19T06:52:56.999Z</time></trkpt><trkpt lat="44.36747392176447" lon="9.356777700628719"><ele>65.0</ele><time>2026-04-19T06:52:57.999Z</time></trkpt><trkpt lat="44.367649147107706" lon="9.356761324868659"><ele>69.0</ele><time>2026-04-19T06:52:58.999Z</time></trkpt><trkpt lat="44.36783718609008" lon="9.356751462172173"><ele>69.0</ele><time>2026-04-19T06:52:59.999Z</time></trkpt><trkpt lat="44.368020512706025" lon="9.356722006535838"><ele>69.0</ele><time>2026-04-19T06:53:00.999Z</time></trkpt><trkpt lat="44.36818669960219" lon="9.356641606145912"><ele>69.0</ele><time>2026-04-19T06:53:01.999Z</time></trkpt><trkpt lat="44.3683508770339" lon="9.356531633682025"><ele>69.33333333333333</ele><time>2026-04-19T06:53:02.999Z</time></trkpt><trkpt lat="44.36849140812728" lon="9.356393565555582"><ele>69.66666666666666</ele><time>2026-04-19T06:53:03.999Z</time></trkpt><trkpt lat="44.368593450254494" lon="9.356221355984047"><ele>70.0</ele><time>2026-04-19T06:53:04.999Z</time></trkpt><trkpt lat="44.368696283181855" lon="9.356118348008957"><ele>70.0</ele><time>2026-04-19T06:53:05.999Z</time></trkpt><trkpt lat="44.36880620030364" lon="9.356070350893392"><ele>70.0</ele><time>2026-04-19T06:53:06.999Z</time></trkpt><trkpt lat="44.36893179447254" lon="9.356116760778278"><ele>70.0</ele><time>2026-04-19T06:53:07.999Z</time></trkpt><trkpt lat="44.369071328271914" lon="9.3561902394875"><ele>70.0</ele><time>2026-04-19T06:53:08.999Z</time></trkpt><trkpt lat="44.36921270346895" lon="9.356273207288853"><ele>68.0</ele><time>2026-04-19T06:53:09.999Z</time></trkpt><trkpt lat="44.369362878421896" lon="9.356355422343176"><ele>66.0</ele><time>2026-04-19T06:53:10.999Z</time></trkpt><trkpt lat="44.36951157193299" lon="9.356459716797248"><ele>64.0</ele><time>2026-04-19T06:53:11.999Z</time></trkpt><trkpt lat="44.36966582567065" lon="9.35653266830313"><ele>72.66666666666666</ele><time>2026-04-19T06:53:12.999Z</time></trkpt><trkpt lat="44.36982778881154" lon="9.356575991706906"><ele>81.33333333333333</ele><time>2026-04-19T06:53:13.999Z</time></trkpt><trkpt lat="44.36998482021884" lon="9.356599996954458"><ele>90.0</ele><time>2026-04-19T06:53:14.999Z</time></trkpt><trkpt lat="44.370148653425346" lon="9.356658783284745"><ele>90.0</ele><time>2026-04-19T06:53:15.999Z</time></trkpt><trkpt lat="44.370304095867525" lon="9.356694691196227"><ele>90.0</ele><time>2026-04-19T06:53:16.999Z</time></trkpt><trkpt lat="44.370454738965854" lon="9.35674160221329"><ele>90.0</ele><time>2026-04-19T06:53:17.999Z</time></trkpt><trkpt lat="44.370578466916754" lon="9.35681342748848"><ele>90.0</ele><time>2026-04-19T06:53:18.999Z</time></trkpt><trkpt lat="44.37067353225872" lon="9.356924521694943"><ele>91.0</ele><time>2026-04-19T06:53:19.999Z</time></trkpt><trkpt lat="44.37075470950441" lon="9.357091513701668"><ele>92.0</ele><time>2026-04-19T06:53:20.999Z</time></trkpt><trkpt lat="44.370845008423515" lon="9.357274114255285"><ele>93.0</ele><time>2026-04-19T06:53:21.999Z</time></trkpt><trkpt lat="44.37091181764265" lon="9.35746905817088"><ele>93.0</ele><time>2026-04-19T06:53:22.999Z</time></trkpt><trkpt lat="44.37096836040529" lon="9.357658937812689"><ele>93.0</ele><time>2026-04-19T06:53:23.999Z</time></trkpt><trkpt lat="44.370971555432924" lon="9.357883411495564"><ele>93.0</ele><time>2026-04-19T06:53:24.999Z</time></trkpt><trkpt lat="44.3709461781924" lon="9.358103455321011"><ele>95.66666666666666</ele><time>2026-04-19T06:53:25.999Z</time></trkpt><trkpt lat="44.370915281460064" lon="9.35833027563884"><ele>98.33333333333333</ele><time>2026-04-19T06:53:26.999Z</time></trkpt><trkpt lat="44.37087871336457" lon="9.35856134532426"><ele>101.0</ele><time>2026-04-19T06:53:27.999Z</time></trkpt><trkpt lat="44.37083633323435" lon="9.358759822172232"><ele>103.33333333333333</ele><time>2026-04-19T06:53:28.999Z</time></trkpt><trkpt lat="44.37082112733891" lon="9.358961214323651"><ele>105.66666666666666</ele><time>2026-04-19T06:53:29.999Z</time></trkpt><trkpt lat="44.37086812805296" lon="9.35916609678223"><ele>108.0</ele><time>2026-04-19T06:53:30.999Z</time></trkpt><trkpt lat="44.37094990307093" lon="9.359373648657444"><ele>108.0</ele><time>2026-04-19T06:53:31.999Z</time></trkpt><trkpt lat="44.37100669257617" lon="9.359599039737622"><ele>108.0</ele><time>2026-04-19T06:53:32.999Z</time></trkpt><trkpt lat="44.37107673326644" lon="9.359803984453343"><ele>108.0</ele><time>2026-04-19T06:53:33.999Z</time></trkpt><trkpt lat="44.37109062418899" lon="9.360035852298084"><ele>110.0</ele><time>2026-04-19T06:53:34.999Z</time></trkpt><trkpt lat="44.37110212207309" lon="9.360253707797831"><ele>112.0</ele><time>2026-04-19T06:53:35.999Z</time></trkpt><trkpt lat="44.37116416803886" lon="9.360443052134912"><ele>114.0</ele><time>2026-04-19T06:53:36.999Z</time></trkpt><trkpt lat="44.37127044602239" lon="9.36060388091739"><ele>107.66666666666667</ele><time>2026-04-19T06:53:37.999Z</time></trkpt><trkpt lat="44.37141739240068" lon="9.360709926969381"><ele>101.33333333333334</ele><time>2026-04-19T06:53:38.999Z</time></trkpt><trkpt lat="44.37157888279547" lon="9.36074871170067"><ele>95.0</ele><time>2026-04-19T06:53:39.999Z</time></trkpt><trkpt lat="44.37175032662131" lon="9.360776193857259"><ele>95.0</ele><time>2026-04-19T06:53:40.999Z</time></trkpt><trkpt lat="44.37191808823551" lon="9.360799370353305"><ele>95.0</ele><time>2026-04-19T06:53:41.999Z</time></trkpt><trkpt lat="44.372089095092555" lon="9.360814723593197"><ele>95.0</ele><time>2026-04-19T06:53:42.999Z</time></trkpt><trkpt lat="44.37226792038274" lon="9.360825639491527"><ele>91.0</ele><time>2026-04-19T06:53:43.999Z</time></trkpt><trkpt lat="44.372450074247524" lon="9.36082792180339"><ele>87.0</ele><time>2026-04-19T06:53:44.999Z</time></trkpt><trkpt lat="44.37263145927823" lon="9.360823657773835"><ele>83.0</ele><time>2026-04-19T06:53:45.999Z</time></trkpt><trkpt lat="44.37281579862959" lon="9.3608136168623"><ele>83.0</ele><time>2026-04-19T06:53:46.999Z</time></trkpt><trkpt lat="44.37300013294057" lon="9.360807707368291"><ele>83.0</ele><time>2026-04-19T06:53:47.999Z</time></trkpt><trkpt lat="44.373173144886934" lon="9.360801090738127"><ele>83.0</ele><time>2026-04-19T06:53:48.998Z</time></trkpt><trkpt lat="44.37333202588776" lon="9.360787818011378"><ele>81.0</ele><time>2026-04-19T06:53:49.998Z</time></trkpt><trkpt lat="44.373472197295015" lon="9.36077917722159"><ele>79.0</ele><time>2026-04-19T06:53:50.998Z</time></trkpt><trkpt lat="44.37359802524121" lon="9.360804810779387"><ele>77.0</ele><time>2026-04-19T06:53:51.998Z</time></trkpt><trkpt lat="44.37369194245882" lon="9.360900949852239"><ele>75.0</ele><time>2026-04-19T06:53:52.998Z</time></trkpt><trkpt lat="44.37372804662263" lon="9.361067023705127"><ele>75.0</ele><time>2026-04-19T06:53:53.998Z</time></trkpt><trkpt lat="44.373689449557446" lon="9.36124456584765"><ele>75.0</ele><time>2026-04-19T06:53:54.998Z</time></trkpt><trkpt lat="44.37361868500506" lon="9.361416213565507"><ele>75.0</ele><time>2026-04-19T06:53:55.998Z</time></trkpt><trkpt lat="44.37355716770836" lon="9.361601383815238"><ele>75.0</ele><time>2026-04-19T06:53:56.998Z</time></trkpt><trkpt lat="44.37356217701847" lon="9.36177277883326"><ele>79.75</ele><time>2026-04-19T06:53:57.998Z</time></trkpt><trkpt lat="44.37349513033124" lon="9.361999555185538"><ele>84.5</ele><time>2026-04-19T06:53:58.998Z</time></trkpt><trkpt lat="44.37345243055382" lon="9.362192224755798"><ele>89.25</ele><time>2026-04-19T06:53:59.998Z</time></trkpt><trkpt lat="44.37341385756069" lon="9.362365358276827"><ele>94.0</ele><time>2026-04-19T06:54:00.998Z</time></trkpt><trkpt lat="44.37340373796309" lon="9.36255394525318"><ele>95.0</ele><time>2026-04-19T06:54:01.998Z</time></trkpt><trkpt lat="44.373461577536176" lon="9.362716395636545"><ele>96.0</ele><time>2026-04-19T06:54:02.998Z</time></trkpt><trkpt lat="44.37358987871652" lon="9.362814377150896"><ele>97.0</ele><time>2026-04-19T06:54:03.998Z</time></trkpt><trkpt lat="44.37371602983384" lon="9.362859034777436"><ele>98.0</ele><time>2026-04-19T06:54:05Z</time></trkpt><trkpt lat="44.37384185174054" lon="9.362880146321857"><ele>95.33333333333333</ele><time>2026-04-19T06:54:06Z</time></trkpt><trkpt lat="44.37394981352347" lon="9.362973492339606"><ele>92.66666666666666</ele><time>2026-04-19T06:54:07Z</time></trkpt><trkpt lat="44.37407620005147" lon="9.363096269504041"><ele>90.0</ele><time>2026-04-19T06:54:08Z</time></trkpt><trkpt lat="44.374215008307836" lon="9.363240088105247"><ele>90.0</ele><time>2026-04-19T06:54:09Z</time></trkpt><trkpt lat="44.37434200799691" lon="9.363369507846341"><ele>90.0</ele><time>2026-04-19T06:54:10Z</time></trkpt><trkpt lat="44.37446183736382" lon="9.363490338576032"><ele>90.0</ele><time>2026-04-19T06:54:11Z</time></trkpt><trkpt lat="44.37454141034305" lon="9.363594863298417"><ele>90.0</ele><time>2026-04-19T06:54:12Z</time></trkpt><trkpt lat="44.37460278015682" lon="9.363730728299553"><ele>88.0</ele><time>2026-04-19T06:54:13Z</time></trkpt><trkpt lat="44.374577229097795" lon="9.363870753674309"><ele>86.0</ele><time>2026-04-19T06:54:14Z</time></trkpt><trkpt lat="44.37458271485414" lon="9.363992846072977"><ele>84.0</ele><time>2026-04-19T06:54:15Z</time></trkpt><trkpt lat="44.37464280100819" lon="9.36418767819759"><ele>82.0</ele><time>2026-04-19T06:54:17Z</time></trkpt><trkpt lat="44.37471287310441" lon="9.36428412739668"><ele>80.0</ele><time>2026-04-19T06:54:18Z</time></trkpt><trkpt lat="44.374796291846565" lon="9.364382649153898"><ele>80.0</ele><time>2026-04-19T06:54:19Z</time></trkpt><trkpt lat="44.37493698017625" lon="9.36446319599999"><ele>80.0</ele><time>2026-04-19T06:54:20Z</time></trkpt><trkpt lat="44.37509279229825" lon="9.364602971531705"><ele>80.0</ele><time>2026-04-19T06:54:21Z</time></trkpt><trkpt lat="44.375232574291445" lon="9.364753402392884"><ele>77.66666666666667</ele><time>2026-04-19T06:54:22Z</time></trkpt><trkpt lat="44.37534073108219" lon="9.364878906756221"><ele>75.33333333333333</ele><time>2026-04-19T06:54:23Z</time></trkpt><trkpt lat="44.37546051265785" lon="9.365002352846554"><ele>73.0</ele><time>2026-04-19T06:54:24Z</time></trkpt><trkpt lat="44.375536025317686" lon="9.365205815663591"><ele>73.0</ele><time>2026-04-19T06:54:25Z</time></trkpt><trkpt lat="44.37563074116886" lon="9.36539511485757"><ele>73.0</ele><time>2026-04-19T06:54:26Z</time></trkpt><trkpt lat="44.37564561508185" lon="9.365613059339891"><ele>73.0</ele><time>2026-04-19T06:54:27Z</time></trkpt><trkpt lat="44.3756977562073" lon="9.365795531249942"><ele>77.66666666666666</ele><time>2026-04-19T06:54:28Z</time></trkpt><trkpt lat="44.37579972958486" lon="9.365939717171672"><ele>82.33333333333333</ele><time>2026-04-19T06:54:29Z</time></trkpt><trkpt lat="44.37594862300121" lon="9.366039405184264"><ele>87.0</ele><time>2026-04-19T06:54:30Z</time></trkpt><trkpt lat="44.376119365951226" lon="9.366117948965043"><ele>87.0</ele><time>2026-04-19T06:54:31Z</time></trkpt><trkpt lat="44.37627462087607" lon="9.366234101377653"><ele>87.0</ele><time>2026-04-19T06:54:32Z</time></trkpt><trkpt lat="44.37641836209348" lon="9.366395804214603"><ele>87.0</ele><time>2026-04-19T06:54:33Z</time></trkpt><trkpt lat="44.37654086549915" lon="9.366581011793244"><ele>84.33333333333333</ele><time>2026-04-19T06:54:34Z</time></trkpt><trkpt lat="44.376667158275026" lon="9.366753163701938"><ele>81.66666666666666</ele><time>2026-04-19T06:54:35Z</time></trkpt><trkpt lat="44.37680647724425" lon="9.366916029771462"><ele>79.0</ele><time>2026-04-19T06:54:36Z</time></trkpt><trkpt lat="44.37695607445385" lon="9.367062672385778"><ele>77.0</ele><time>2026-04-19T06:54:37Z</time></trkpt><trkpt lat="44.37710707692663" lon="9.367199028520535"><ele>75.0</ele><time>2026-04-19T06:54:38Z</time></trkpt><trkpt lat="44.37724770798341" lon="9.367338875039465"><ele>73.0</ele><time>2026-04-19T06:54:39Z</time></trkpt><trkpt lat="44.37738773978847" lon="9.3674936110125"><ele>73.0</ele><time>2026-04-19T06:54:40Z</time></trkpt><trkpt lat="44.37752103178974" lon="9.367659047356884"><ele>73.0</ele><time>2026-04-19T06:54:41Z</time></trkpt><trkpt lat="44.377647487591034" lon="9.367848111634107"><ele>73.0</ele><time>2026-04-19T06:54:42Z</time></trkpt><trkpt lat="44.37774596771287" lon="9.368079258897353"><ele>70.66666666666666</ele><time>2026-04-19T06:54:43Z</time></trkpt><trkpt lat="44.37785758990876" lon="9.368296708281628"><ele>68.33333333333333</ele><time>2026-04-19T06:54:44Z</time></trkpt><trkpt lat="44.378006096435264" lon="9.368470094965572"><ele>66.0</ele><time>2026-04-19T06:54:45Z</time></trkpt><trkpt lat="44.37813398268141" lon="9.36868226156716"><ele>74.0</ele><time>2026-04-19T06:54:46Z</time></trkpt><trkpt lat="44.37828367801784" lon="9.36891134954145"><ele>82.0</ele><time>2026-04-19T06:54:47Z</time></trkpt><trkpt lat="44.37843629136433" lon="9.369155363765485"><ele>82.0</ele><time>2026-04-19T06:54:48Z</time></trkpt><trkpt lat="44.378592581081875" lon="9.369370307497796"><ele>82.0</ele><time>2026-04-19T06:54:49Z</time></trkpt><trkpt lat="44.378725994506155" lon="9.369581754607328"><ele>82.0</ele><time>2026-04-19T06:54:50Z</time></trkpt><trkpt lat="44.37886245308206" lon="9.369773590783554"><ele>80.33333333333333</ele><time>2026-04-19T06:54:51Z</time></trkpt><trkpt lat="44.37899341568804" lon="9.369956212039673"><ele>78.66666666666667</ele><time>2026-04-19T06:54:52Z</time></trkpt><trkpt lat="44.37911108261605" lon="9.37016068816958"><ele>77.0</ele><time>2026-04-19T06:54:53Z</time></trkpt><trkpt lat="44.37923873179956" lon="9.37035114001355"><ele>84.33333333333334</ele><time>2026-04-19T06:54:54Z</time></trkpt><trkpt lat="44.3793584438673" lon="9.370536257585531"><ele>91.66666666666667</ele><time>2026-04-19T06:54:55Z</time></trkpt><trkpt lat="44.37947180599125" lon="9.370711555768962"><ele>99.0</ele><time>2026-04-19T06:54:56Z</time></trkpt><trkpt lat="44.37959178562431" lon="9.370882055694656"><ele>96.0</ele><time>2026-04-19T06:54:57Z</time></trkpt><trkpt lat="44.379727193198704" lon="9.37105917849481"><ele>93.0</ele><time>2026-04-19T06:54:58Z</time></trkpt><trkpt lat="44.379881816405835" lon="9.371255365441963"><ele>90.0</ele><time>2026-04-19T06:54:59Z</time></trkpt><trkpt lat="44.38003854214664" lon="9.371458178234642"><ele>90.0</ele><time>2026-04-19T06:55:00Z</time></trkpt><trkpt lat="44.38019029949124" lon="9.371657563566881"><ele>90.0</ele><time>2026-04-19T06:55:01Z</time></trkpt><trkpt lat="44.38033394828768" lon="9.371856633117307"><ele>90.0</ele><time>2026-04-19T06:55:02Z</time></trkpt><trkpt lat="44.38047646927909" lon="9.372055397960368"><ele>85.33333333333333</ele><time>2026-04-19T06:55:03Z</time></trkpt><trkpt lat="44.380618728849605" lon="9.3722555621936"><ele>80.66666666666666</ele><time>2026-04-19T06:55:04Z</time></trkpt><trkpt lat="44.38075696369009" lon="9.372449468152713"><ele>76.0</ele><time>2026-04-19T06:55:04.999Z</time></trkpt><trkpt lat="44.38089606556159" lon="9.372638084128708"><ele>76.0</ele><time>2026-04-19T06:55:05.999Z</time></trkpt><trkpt lat="44.3810272669658" lon="9.372822443635991"><ele>76.0</ele><time>2026-04-19T06:55:06.999Z</time></trkpt><trkpt lat="44.38114784340151" lon="9.3730035246191"><ele>76.0</ele><time>2026-04-19T06:55:07.999Z</time></trkpt><trkpt lat="44.3812457663914" lon="9.373217602503304"><ele>77.0</ele><time>2026-04-19T06:55:08.999Z</time></trkpt><trkpt lat="44.38131847057757" lon="9.373460350306367"><ele>78.0</ele><time>2026-04-19T06:55:09.999Z</time></trkpt><trkpt lat="44.381390165293396" lon="9.373704134592254"><ele>79.0</ele><time>2026-04-19T06:55:10.999Z</time></trkpt><trkpt lat="44.381472813813744" lon="9.3739528057251"><ele>79.0</ele><time>2026-04-19T06:55:11.999Z</time></trkpt><trkpt lat="44.38157463143169" lon="9.374182431403803"><ele>79.0</ele><time>2026-04-19T06:55:12.999Z</time></trkpt><trkpt lat="44.38166280635904" lon="9.374379998066885"><ele>79.0</ele><time>2026-04-19T06:55:13.999Z</time></trkpt><trkpt lat="44.381741353359864" lon="9.374561318346075"><ele>82.75</ele><time>2026-04-19T06:55:14.999Z</time></trkpt><trkpt lat="44.38180779475799" lon="9.374730001833253"><ele>86.5</ele><time>2026-04-19T06:55:15.999Z</time></trkpt><trkpt lat="44.38185256041034" lon="9.37489695591991"><ele>90.25</ele><time>2026-04-19T06:55:16.999Z</time></trkpt><trkpt lat="44.38188479465531" lon="9.375061899271179"><ele>94.0</ele><time>2026-04-19T06:55:17.999Z</time></trkpt><trkpt lat="44.38191474796673" lon="9.375213823990208"><ele>94.0</ele><time>2026-04-19T06:55:18.999Z</time></trkpt><trkpt lat="44.3819478984687" lon="9.37535548641421"><ele>94.0</ele><time>2026-04-19T06:55:19.999Z</time></trkpt><trkpt lat="44.381995063187894" lon="9.3755036433737"><ele>94.0</ele><time>2026-04-19T06:55:20.999Z</time></trkpt><trkpt lat="44.382077664004356" lon="9.375656850606038"><ele>94.0</ele><time>2026-04-19T06:55:21.999Z</time></trkpt><trkpt lat="44.38218942256744" lon="9.37579355705411"><ele>87.33333333333333</ele><time>2026-04-19T06:55:22.999Z</time></trkpt><trkpt lat="44.38230220059114" lon="9.375921298852465"><ele>80.66666666666667</ele><time>2026-04-19T06:55:23.999Z</time></trkpt><trkpt lat="44.382439823394634" lon="9.376078165211439"><ele>74.0</ele><time>2026-04-19T06:55:24.999Z</time></trkpt><trkpt lat="44.38257718511476" lon="9.376234027142209"><ele>76.0</ele><time>2026-04-19T06:55:25.999Z</time></trkpt><trkpt lat="44.38272641476449" lon="9.376376071796338"><ele>78.0</ele><time>2026-04-19T06:55:26.999Z</time></trkpt><trkpt lat="44.38286275428868" lon="9.376539368416246"><ele>80.0</ele><time>2026-04-19T06:55:27.999Z</time></trkpt><trkpt lat="44.382986752974304" lon="9.376689107426865"><ele>80.0</ele><time>2026-04-19T06:55:28.999Z</time></trkpt><trkpt lat="44.383103011492054" lon="9.37682316245621"><ele>80.0</ele><time>2026-04-19T06:55:29.999Z</time></trkpt><trkpt lat="44.38320220696747" lon="9.376957969840062"><ele>80.0</ele><time>2026-04-19T06:55:30.999Z</time></trkpt><trkpt lat="44.383303272004156" lon="9.377073792942905"><ele>80.0</ele><time>2026-04-19T06:55:31.999Z</time></trkpt><trkpt lat="44.38340437409577" lon="9.377166602444104"><ele>82.5</ele><time>2026-04-19T06:55:32.999Z</time></trkpt><trkpt lat="44.383490049089446" lon="9.377269445031542"><ele>85.0</ele><time>2026-04-19T06:55:33.999Z</time></trkpt><trkpt lat="44.38358343410092" lon="9.377367727598655"><ele>87.5</ele><time>2026-04-19T06:55:34.999Z</time></trkpt><trkpt lat="44.38366989776354" lon="9.377468029610517"><ele>90.0</ele><time>2026-04-19T06:55:35.999Z</time></trkpt><trkpt lat="44.38374514438206" lon="9.377583471498985"><ele>90.0</ele><time>2026-04-19T06:55:36.999Z</time></trkpt><trkpt lat="44.38384484390433" lon="9.377678822488038"><ele>90.0</ele><time>2026-04-19T06:55:37.999Z</time></trkpt><trkpt lat="44.38394227271828" lon="9.377810253622734"><ele>90.0</ele><time>2026-04-19T06:55:38.999Z</time></trkpt><trkpt lat="44.384055341761" lon="9.377929842016316"><ele>90.0</ele><time>2026-04-19T06:55:39.999Z</time></trkpt><trkpt lat="44.3841625300413" lon="9.378059353722016"><ele>89.75</ele><time>2026-04-19T06:55:40.999Z</time></trkpt><trkpt lat="44.384275367297356" lon="9.378164674214569"><ele>89.5</ele><time>2026-04-19T06:55:41.999Z</time></trkpt><trkpt lat="44.38439160992779" lon="9.378244121784835"><ele>89.25</ele><time>2026-04-19T06:55:42.999Z</time></trkpt><trkpt lat="44.384519207271445" lon="9.378305977433017"><ele>89.0</ele><time>2026-04-19T06:55:43.999Z</time></trkpt><trkpt lat="44.384647262481536" lon="9.378343753277525"><ele>87.25</ele><time>2026-04-19T06:55:44.999Z</time></trkpt><trkpt lat="44.384762594946785" lon="9.37840693368376"><ele>85.5</ele><time>2026-04-19T06:55:45.999Z</time></trkpt><trkpt lat="44.384881895274994" lon="9.378432073261157"><ele>83.75</ele><time>2026-04-19T06:55:46.999Z</time></trkpt><trkpt lat="44.38499225637491" lon="9.378476414607311"><ele>82.0</ele><time>2026-04-19T06:55:47.999Z</time></trkpt><trkpt lat="44.38510806082583" lon="9.378517526551242"><ele>82.0</ele><time>2026-04-19T06:55:48.999Z</time></trkpt><trkpt lat="44.385224876844525" lon="9.378560998521401"><ele>82.0</ele><time>2026-04-19T06:55:49.999Z</time></trkpt><trkpt lat="44.385350535653124" lon="9.378603016177912"><ele>82.0</ele><time>2026-04-19T06:55:50.999Z</time></trkpt><trkpt lat="44.385484686050006" lon="9.37867330683976"><ele>82.0</ele><time>2026-04-19T06:55:51.999Z</time></trkpt><trkpt lat="44.385625454387316" lon="9.37872998075541"><ele>81.25</ele><time>2026-04-19T06:55:52.999Z</time></trkpt><trkpt lat="44.385761557865884" lon="9.378799955077318"><ele>80.5</ele><time>2026-04-19T06:55:53.999Z</time></trkpt><trkpt lat="44.38588124065139" lon="9.378883166712027"><ele>79.75</ele><time>2026-04-19T06:55:54.999Z</time></trkpt><trkpt lat="44.38599567474121" lon="9.37896488986032"><ele>79.0</ele><time>2026-04-19T06:55:55.999Z</time></trkpt><trkpt lat="44.386097138416645" lon="9.379037350211252"><ele>80.0</ele><time>2026-04-19T06:55:56.999Z</time></trkpt><trkpt lat="44.38620275487268" lon="9.379112775776848"><ele>81.0</ele><time>2026-04-19T06:55:57.999Z</time></trkpt><trkpt lat="44.386310040880375" lon="9.379193120206452"><ele>82.0</ele><time>2026-04-19T06:55:58.999Z</time></trkpt><trkpt lat="44.38642408792385" lon="9.37927621352333"><ele>83.0</ele><time>2026-04-19T06:55:59.999Z</time></trkpt><trkpt lat="44.386543126865405" lon="9.37935491817675"><ele>83.0</ele><time>2026-04-19T06:56:00.999Z</time></trkpt><trkpt lat="44.38664713732691" lon="9.379461163740418"><ele>83.0</ele><time>2026-04-19T06:56:01.999Z</time></trkpt><trkpt lat="44.386742067978304" lon="9.379601311975293"><ele>83.0</ele><time>2026-04-19T06:56:02.999Z</time></trkpt><trkpt lat="44.38680012417065" lon="9.379771681329387"><ele>83.0</ele><time>2026-04-19T06:56:03.998Z</time></trkpt><trkpt lat="44.38687163668674" lon="9.379927385133051"><ele>81.75</ele><time>2026-04-19T06:56:04.998Z</time></trkpt><trkpt lat="44.38695139687665" lon="9.380068863210306"><ele>80.5</ele><time>2026-04-19T06:56:05.998Z</time></trkpt><trkpt lat="44.387023142412666" lon="9.38021473309049"><ele>79.25</ele><time>2026-04-19T06:56:06.998Z</time></trkpt><trkpt lat="44.3871154091921" lon="9.380341080577178"><ele>78.0</ele><time>2026-04-19T06:56:07.998Z</time></trkpt><trkpt lat="44.387226882126335" lon="9.380438395174568"><ele>78.0</ele><time>2026-04-19T06:56:08.998Z</time></trkpt><trkpt lat="44.38735900404727" lon="9.380506403209859"><ele>78.0</ele><time>2026-04-19T06:56:09.998Z</time></trkpt><trkpt lat="44.38748805428677" lon="9.38056866646619"><ele>78.0</ele><time>2026-04-19T06:56:11Z</time></trkpt><trkpt lat="44.387604074479555" lon="9.380634494428376"><ele>78.0</ele><time>2026-04-19T06:56:12Z</time></trkpt><trkpt lat="44.38772793085061" lon="9.380683316896482"><ele>82.0</ele><time>2026-04-19T06:56:13Z</time></trkpt><trkpt lat="44.38785771536771" lon="9.380698689245328"><ele>86.0</ele><time>2026-04-19T06:56:14Z</time></trkpt><trkpt lat="44.38799232295382" lon="9.380697288093721"><ele>90.0</ele><time>2026-04-19T06:56:15Z</time></trkpt><trkpt lat="44.38812808779363" lon="9.380694406075131"><ele>94.0</ele><time>2026-04-19T06:56:16Z</time></trkpt><trkpt lat="44.388267006722735" lon="9.380673239079947"><ele>94.0</ele><time>2026-04-19T06:56:17Z</time></trkpt><trkpt lat="44.3884182764653" lon="9.380620394502845"><ele>94.0</ele><time>2026-04-19T06:56:18Z</time></trkpt><trkpt lat="44.388578359797286" lon="9.380517070098554"><ele>94.0</ele><time>2026-04-19T06:56:19Z</time></trkpt><trkpt lat="44.38875406146137" lon="9.38037952652124"><ele>94.0</ele><time>2026-04-19T06:56:20Z</time></trkpt><trkpt lat="44.38893302529521" lon="9.380238553513305"><ele>94.0</ele><time>2026-04-19T06:56:21Z</time></trkpt><trkpt lat="44.38910860195824" lon="9.380093003285676"><ele>94.0</ele><time>2026-04-19T06:56:22Z</time></trkpt><trkpt lat="44.389296232388034" lon="9.379933342256814"><ele>94.0</ele><time>2026-04-19T06:56:23Z</time></trkpt><trkpt lat="44.38948301184028" lon="9.379751810670635"><ele>94.0</ele><time>2026-04-19T06:56:24Z</time></trkpt><trkpt lat="44.389669615400884" lon="9.379549925713011"><ele>95.0</ele><time>2026-04-19T06:56:25Z</time></trkpt><trkpt lat="44.389860575884946" lon="9.3793397226693"><ele>96.0</ele><time>2026-04-19T06:56:26Z</time></trkpt><trkpt lat="44.3900425063071" lon="9.379170291981707"><ele>96.0</ele><time>2026-04-19T06:56:27Z</time></trkpt><trkpt lat="44.390199395989455" lon="9.379016475478808"><ele>96.0</ele><time>2026-04-19T06:56:28Z</time></trkpt><trkpt lat="44.39035357233753" lon="9.37884926328219"><ele>96.0</ele><time>2026-04-19T06:56:29Z</time></trkpt><trkpt lat="44.39049604809188" lon="9.378681883508527"><ele>97.0</ele><time>2026-04-19T06:56:30Z</time></trkpt><trkpt lat="44.39064170424117" lon="9.378521370793068"><ele>98.0</ele><time>2026-04-19T06:56:31Z</time></trkpt><trkpt lat="44.390770042857916" lon="9.378364220418975"><ele>99.0</ele><time>2026-04-19T06:56:32Z</time></trkpt><trkpt lat="44.39087954614537" lon="9.37823352224569"><ele>99.0</ele><time>2026-04-19T06:56:33Z</time></trkpt><trkpt lat="44.39099985446697" lon="9.378129929461059"><ele>99.0</ele><time>2026-04-19T06:56:34Z</time></trkpt><trkpt lat="44.39110970033847" lon="9.378041040053807"><ele>99.0</ele><time>2026-04-19T06:56:35Z</time></trkpt><trkpt lat="44.39122560835265" lon="9.378028289387418"><ele>99.0</ele><time>2026-04-19T06:56:36Z</time></trkpt><trkpt lat="44.39135436754584" lon="9.378067823087067"><ele>99.0</ele><time>2026-04-19T06:56:37Z</time></trkpt><trkpt lat="44.39147033887176" lon="9.378179729262358"><ele>99.0</ele><time>2026-04-19T06:56:38Z</time></trkpt><trkpt lat="44.39158122165807" lon="9.378285119888362"><ele>99.0</ele><time>2026-04-19T06:56:39Z</time></trkpt><trkpt lat="44.39167568261814" lon="9.378372915060872"><ele>99.0</ele><time>2026-04-19T06:56:40Z</time></trkpt><trkpt lat="44.39175673733714" lon="9.378461302411225"><ele>99.0</ele><time>2026-04-19T06:56:41Z</time></trkpt><trkpt lat="44.39181188526306" lon="9.378544592196256"><ele>99.0</ele><time>2026-04-19T06:56:42Z</time></trkpt><trkpt lat="44.39183948331291" lon="9.378639700828842"><ele>99.0</ele><time>2026-04-19T06:56:43Z</time></trkpt><trkpt lat="44.39188697015215" lon="9.37878848448074"><ele>99.0</ele><time>2026-04-19T06:56:45Z</time></trkpt><trkpt lat="44.391866166698016" lon="9.378928628518404"><ele>99.0</ele><time>2026-04-19T06:56:47Z</time></trkpt><trkpt lat="44.39186249117081" lon="9.37910099740354"><ele>101.83333333333333</ele><time>2026-04-19T06:56:49Z</time></trkpt><trkpt lat="44.39187515950335" lon="9.379198486852921"><ele>104.66666666666666</ele><time>2026-04-19T06:56:50Z</time></trkpt><trkpt lat="44.391897470612214" lon="9.379309387045618"><ele>107.5</ele><time>2026-04-19T06:56:51Z</time></trkpt><trkpt lat="44.39191041021307" lon="9.379425641989332"><ele>110.33333333333333</ele><time>2026-04-19T06:56:52Z</time></trkpt><trkpt lat="44.391960822490205" lon="9.379531650471268"><ele>113.16666666666666</ele><time>2026-04-19T06:56:53Z</time></trkpt><trkpt lat="44.39200098676679" lon="9.37964888340105"><ele>116.0</ele><time>2026-04-19T06:56:54Z</time></trkpt><trkpt lat="44.39205085219914" lon="9.379768222798505"><ele>114.19999999999999</ele><time>2026-04-19T06:56:55Z</time></trkpt><trkpt lat="44.39210306502211" lon="9.379887890665204"><ele>112.39999999999999</ele><time>2026-04-19T06:56:56Z</time></trkpt><trkpt lat="44.39213476502825" lon="9.380024119346565"><ele>110.6</ele><time>2026-04-19T06:56:57Z</time></trkpt><trkpt lat="44.39219217405384" lon="9.380144522157421"><ele>108.8</ele><time>2026-04-19T06:56:58Z</time></trkpt><trkpt lat="44.39225060451348" lon="9.380259930937896"><ele>107.0</ele><time>2026-04-19T06:56:59Z</time></trkpt><trkpt lat="44.39230514366676" lon="9.380354917062785"><ele>106.99999999999999</ele><time>2026-04-19T06:57:00Z</time></trkpt><trkpt lat="44.39236150628355" lon="9.380426963894827"><ele>107.0</ele><time>2026-04-19T06:57:01Z</time></trkpt><trkpt lat="44.39243901497617" lon="9.38045268322396"><ele>107.0</ele><time>2026-04-19T06:57:02Z</time></trkpt><trkpt lat="44.39251415185119" lon="9.380374384561566"><ele>107.0</ele><time>2026-04-19T06:57:03Z</time></trkpt><trkpt lat="44.39257004442232" lon="9.380328760994328"><ele>106.99999999999999</ele><time>2026-04-19T06:57:04Z</time></trkpt><trkpt lat="44.392663604680806" lon="9.380254976818348"><ele>107.0</ele><time>2026-04-19T06:57:06Z</time></trkpt><trkpt lat="44.392727624881275" lon="9.380219357855239"><ele>107.0</ele><time>2026-04-19T06:57:07Z</time></trkpt><trkpt lat="44.39281843730015" lon="9.380178631510754"><ele>106.99999999999999</ele><time>2026-04-19T06:57:08Z</time></trkpt><trkpt lat="44.39291536877881" lon="9.380207204286895"><ele>106.99999999999999</ele><time>2026-04-19T06:57:09Z</time></trkpt><trkpt lat="44.39302102841812" lon="9.380242788961706"><ele>107.0</ele><time>2026-04-19T06:57:10Z</time></trkpt><trkpt lat="44.39309189288719" lon="9.380395641279206"><ele>107.0</ele><time>2026-04-19T06:57:11Z</time></trkpt><trkpt lat="44.39319644729076" lon="9.380547525159045"><ele>109.25</ele><time>2026-04-19T06:57:12Z</time></trkpt><trkpt lat="44.39329223365744" lon="9.380673795511932"><ele>111.5</ele><time>2026-04-19T06:57:13Z</time></trkpt><trkpt lat="44.393381055582736" lon="9.380827125732171"><ele>113.75</ele><time>2026-04-19T06:57:14Z</time></trkpt><trkpt lat="44.393484118182116" lon="9.38094198908835"><ele>116.0</ele><time>2026-04-19T06:57:15Z</time></trkpt><trkpt lat="44.393595730273745" lon="9.381100575898877"><ele>116.0</ele><time>2026-04-19T06:57:16Z</time></trkpt><trkpt lat="44.39371467246704" lon="9.381273195062782"><ele>116.0</ele><time>2026-04-19T06:57:17Z</time></trkpt><trkpt lat="44.39382897019057" lon="9.381447729581941"><ele>116.0</ele><time>2026-04-19T06:57:18Z</time></trkpt><trkpt lat="44.39392651418923" lon="9.38161081229917"><ele>123.66666666666666</ele><time>2026-04-19T06:57:19Z</time></trkpt><trkpt lat="44.39404432648609" lon="9.381768894956195"><ele>131.33333333333334</ele><time>2026-04-19T06:57:20Z</time></trkpt><trkpt lat="44.394159211711326" lon="9.381935394113897"><ele>139.0</ele><time>2026-04-19T06:57:20.999Z</time></trkpt><trkpt lat="44.394262573635416" lon="9.382123122228574"><ele>135.0</ele><time>2026-04-19T06:57:21.999Z</time></trkpt><trkpt lat="44.39436352252371" lon="9.382313027516009"><ele>131.0</ele><time>2026-04-19T06:57:22.999Z</time></trkpt><trkpt lat="44.39445673530425" lon="9.382508529763557"><ele>127.0</ele><time>2026-04-19T06:57:23.999Z</time></trkpt><trkpt lat="44.39452976009729" lon="9.38271510753534"><ele>127.0</ele><time>2026-04-19T06:57:24.999Z</time></trkpt><trkpt lat="44.39459900881762" lon="9.38293674776756"><ele>127.0</ele><time>2026-04-19T06:57:25.999Z</time></trkpt><trkpt lat="44.39467070092176" lon="9.383146051538732"><ele>127.0</ele><time>2026-04-19T06:57:26.999Z</time></trkpt><trkpt lat="44.394756468413654" lon="9.383367472269736"><ele>130.33333333333334</ele><time>2026-04-19T06:57:27.999Z</time></trkpt><trkpt lat="44.394833549172965" lon="9.383590705719628"><ele>133.66666666666666</ele><time>2026-04-19T06:57:28.999Z</time></trkpt><trkpt lat="44.39491236793707" lon="9.38381618593574"><ele>137.0</ele><time>2026-04-19T06:57:29.999Z</time></trkpt><trkpt lat="44.39499504854273" lon="9.384036177035062"><ele>137.0</ele><time>2026-04-19T06:57:30.999Z</time></trkpt><trkpt lat="44.39508658968106" lon="9.384249467333627"><ele>137.0</ele><time>2026-04-19T06:57:31.999Z</time></trkpt><trkpt lat="44.39518052131783" lon="9.384452701007696"><ele>137.0</ele><time>2026-04-19T06:57:32.999Z</time></trkpt><trkpt lat="44.39523333618384" lon="9.384687701269904"><ele>134.33333333333331</ele><time>2026-04-19T06:57:33.999Z</time></trkpt><trkpt lat="44.39529898523531" lon="9.38492174921816"><ele>131.66666666666666</ele><time>2026-04-19T06:57:34.999Z</time></trkpt><trkpt lat="44.39538250924405" lon="9.38515477608563"><ele>129.0</ele><time>2026-04-19T06:57:35.999Z</time></trkpt><trkpt lat="44.395439540097165" lon="9.385383370434797"><ele>132.0</ele><time>2026-04-19T06:57:36.999Z</time></trkpt><trkpt lat="44.39549689940575" lon="9.385612058783012"><ele>135.0</ele><time>2026-04-19T06:57:37.999Z</time></trkpt><trkpt lat="44.39552170432143" lon="9.3858570642594"><ele>138.0</ele><time>2026-04-19T06:57:38.999Z</time></trkpt><trkpt lat="44.395564956263684" lon="9.38607612810133"><ele>140.75</ele><time>2026-04-19T06:57:39.999Z</time></trkpt><trkpt lat="44.39558946188505" lon="9.386276111210384"><ele>143.5</ele><time>2026-04-19T06:57:40.999Z</time></trkpt><trkpt lat="44.395641453107324" lon="9.386440275709408"><ele>146.25</ele><time>2026-04-19T06:57:41.999Z</time></trkpt><trkpt lat="44.39574648186537" lon="9.386573385181734"><ele>149.0</ele><time>2026-04-19T06:57:42.999Z</time></trkpt><trkpt lat="44.39589193799353" lon="9.386677828273015"><ele>149.0</ele><time>2026-04-19T06:57:43.999Z</time></trkpt><trkpt lat="44.39600772149921" lon="9.386845062715983"><ele>149.0</ele><time>2026-04-19T06:57:44.999Z</time></trkpt><trkpt lat="44.39608680597105" lon="9.387042766719079"><ele>149.0</ele><time>2026-04-19T06:57:45.999Z</time></trkpt><trkpt lat="44.39617413124823" lon="9.387247570891352"><ele>148.33333333333331</ele><time>2026-04-19T06:57:46.999Z</time></trkpt><trkpt lat="44.396243373618766" lon="9.387442152779244"><ele>147.66666666666666</ele><time>2026-04-19T06:57:47.999Z</time></trkpt><trkpt lat="44.396361088807176" lon="9.387574532762635"><ele>147.0</ele><time>2026-04-19T06:57:48.999Z</time></trkpt><trkpt lat="44.39651361214042" lon="9.38764967983038"><ele>149.0</ele><time>2026-04-19T06:57:49.999Z</time></trkpt><trkpt lat="44.39666411737626" lon="9.38773827800976"><ele>151.0</ele><time>2026-04-19T06:57:50.999Z</time></trkpt><trkpt lat="44.39680021225595" lon="9.387849751951203"><ele>153.0</ele><time>2026-04-19T06:57:51.999Z</time></trkpt><trkpt lat="44.39688231757004" lon="9.388016399988931"><ele>153.0</ele><time>2026-04-19T06:57:52.999Z</time></trkpt><trkpt lat="44.396958750886434" lon="9.388222384935844"><ele>153.0</ele><time>2026-04-19T06:57:53.999Z</time></trkpt><trkpt lat="44.39703893592073" lon="9.388431725690701"><ele>153.0</ele><time>2026-04-19T06:57:54.999Z</time></trkpt><trkpt lat="44.39713659556436" lon="9.388623346705282"><ele>161.33333333333334</ele><time>2026-04-19T06:57:55.999Z</time></trkpt><trkpt lat="44.397225068676484" lon="9.388827786364633"><ele>169.66666666666669</ele><time>2026-04-19T06:57:56.999Z</time></trkpt><trkpt lat="44.397293190520806" lon="9.389044124050166"><ele>178.0</ele><time>2026-04-19T06:57:57.999Z</time></trkpt><trkpt lat="44.39736573436011" lon="9.389262657457586"><ele>178.0</ele><time>2026-04-19T06:57:58.999Z</time></trkpt><trkpt lat="44.397422788378385" lon="9.3894808242621"><ele>178.0</ele><time>2026-04-19T06:57:59.999Z</time></trkpt><trkpt lat="44.39744008073763" lon="9.389720026419049"><ele>178.0</ele><time>2026-04-19T06:58:00.999Z</time></trkpt><trkpt lat="44.397450365976" lon="9.389962948239589"><ele>177.33333333333334</ele><time>2026-04-19T06:58:01.999Z</time></trkpt><trkpt lat="44.39746808077299" lon="9.390205240014419"><ele>176.66666666666666</ele><time>2026-04-19T06:58:02.999Z</time></trkpt><trkpt lat="44.3974508198795" lon="9.390443307477218"><ele>176.0</ele><time>2026-04-19T06:58:03.999Z</time></trkpt><trkpt lat="44.39741952472752" lon="9.390678101637121"><ele>176.0</ele><time>2026-04-19T06:58:04.999Z</time></trkpt><trkpt lat="44.39742061079872" lon="9.390902447223793"><ele>176.0</ele><time>2026-04-19T06:58:05.999Z</time></trkpt><trkpt lat="44.397467502208194" lon="9.39112682180492"><ele>176.0</ele><time>2026-04-19T06:58:06.999Z</time></trkpt><trkpt lat="44.39745617331522" lon="9.391340247753847"><ele>177.33333333333331</ele><time>2026-04-19T06:58:07.999Z</time></trkpt><trkpt lat="44.397431334340986" lon="9.39157289873774"><ele>178.66666666666666</ele><time>2026-04-19T06:58:08.999Z</time></trkpt><trkpt lat="44.39740183517715" lon="9.391801144841091"><ele>180.0</ele><time>2026-04-19T06:58:09.999Z</time></trkpt><trkpt lat="44.39744075810335" lon="9.392028719678226"><ele>178.66666666666666</ele><time>2026-04-19T06:58:10.999Z</time></trkpt><trkpt lat="44.39748577058705" lon="9.392252631507564"><ele>177.33333333333331</ele><time>2026-04-19T06:58:11.999Z</time></trkpt><trkpt lat="44.39752459841769" lon="9.39246826260515"><ele>176.0</ele><time>2026-04-19T06:58:12.999Z</time></trkpt><trkpt lat="44.3976004185568" lon="9.39264728288433"><ele>176.0</ele><time>2026-04-19T06:58:13.999Z</time></trkpt><trkpt lat="44.397709113175885" lon="9.392796802948991"><ele>176.0</ele><time>2026-04-19T06:58:14.999Z</time></trkpt><trkpt lat="44.39777087566861" lon="9.392949762592883"><ele>176.0</ele><time>2026-04-19T06:58:15.999Z</time></trkpt><trkpt lat="44.39782533426254" lon="9.393070003163237"><ele>176.0</ele><time>2026-04-19T06:58:17.001Z</time></trkpt><trkpt lat="44.39785681124118" lon="9.393181161341133"><ele>176.5</ele><time>2026-04-19T06:58:18.001Z</time></trkpt><trkpt lat="44.39779790995334" lon="9.393322731406998"><ele>177.0</ele><time>2026-04-19T06:58:19.001Z</time></trkpt><trkpt lat="44.397689709824775" lon="9.39341170430426"><ele>177.5</ele><time>2026-04-19T06:58:20.001Z</time></trkpt><trkpt lat="44.39758304384995" lon="9.393522697780318"><ele>178.0</ele><time>2026-04-19T06:58:21.001Z</time></trkpt><trkpt lat="44.397538648834406" lon="9.393691617096852"><ele>181.0</ele><time>2026-04-19T06:58:22.001Z</time></trkpt><trkpt lat="44.397532825404745" lon="9.393914171785577"><ele>184.0</ele><time>2026-04-19T06:58:23.001Z</time></trkpt><trkpt lat="44.39751192108688" lon="9.394118548657964"><ele>187.0</ele><time>2026-04-19T06:58:24.001Z</time></trkpt><trkpt lat="44.39748650751951" lon="9.39432196014514"><ele>187.0</ele><time>2026-04-19T06:58:25.001Z</time></trkpt><trkpt lat="44.39749850153279" lon="9.394536698100925"><ele>187.0</ele><time>2026-04-19T06:58:26.001Z</time></trkpt><trkpt lat="44.39755510124184" lon="9.394748155054538"><ele>187.0</ele><time>2026-04-19T06:58:27.001Z</time></trkpt><trkpt lat="44.39761193277639" lon="9.394947583770861"><ele>189.33333333333334</ele><time>2026-04-19T06:58:28.001Z</time></trkpt><trkpt lat="44.39761610909007" lon="9.395148763000469"><ele>191.66666666666669</ele><time>2026-04-19T06:58:29.001Z</time></trkpt><trkpt lat="44.39755690796146" lon="9.395364090606154"><ele>194.0</ele><time>2026-04-19T06:58:30.001Z</time></trkpt><trkpt lat="44.39748164711554" lon="9.395556629275958"><ele>195.0</ele><time>2026-04-19T06:58:31.001Z</time></trkpt><trkpt lat="44.397421816710555" lon="9.395740829763563"><ele>196.0</ele><time>2026-04-19T06:58:32.001Z</time></trkpt><trkpt lat="44.397421389559604" lon="9.395935014516226"><ele>197.0</ele><time>2026-04-19T06:58:33Z</time></trkpt><trkpt lat="44.39745815594797" lon="9.396101044867764"><ele>198.0</ele><time>2026-04-19T06:58:34Z</time></trkpt><trkpt lat="44.39743507196386" lon="9.396251960315622"><ele>201.0</ele><time>2026-04-19T06:58:35Z</time></trkpt><trkpt lat="44.39731864937257" lon="9.396368607455104"><ele>204.0</ele><time>2026-04-19T06:58:36Z</time></trkpt><trkpt lat="44.39722945848243" lon="9.396522251146644"><ele>207.0</ele><time>2026-04-19T06:58:37Z</time></trkpt><trkpt lat="44.397170009658765" lon="9.396693947200331"><ele>210.0</ele><time>2026-04-19T06:58:38Z</time></trkpt><trkpt lat="44.39716912469165" lon="9.396905048513903"><ele>210.0</ele><time>2026-04-19T06:58:39Z</time></trkpt><trkpt lat="44.39720345252982" lon="9.39713551321208"><ele>210.0</ele><time>2026-04-19T06:58:40Z</time></trkpt><trkpt lat="44.397232177401136" lon="9.397361899935662"><ele>210.0</ele><time>2026-04-19T06:58:41Z</time></trkpt><trkpt lat="44.3972519050351" lon="9.39757614279825"><ele>211.0</ele><time>2026-04-19T06:58:42Z</time></trkpt><trkpt lat="44.39730727644256" lon="9.39779290033292"><ele>212.0</ele><time>2026-04-19T06:58:43Z</time></trkpt><trkpt lat="44.397397904019606" lon="9.397980906947668"><ele>213.0</ele><time>2026-04-19T06:58:44Z</time></trkpt><trkpt lat="44.39749394459819" lon="9.398194589400905"><ele>213.0</ele><time>2026-04-19T06:58:45Z</time></trkpt><trkpt lat="44.39760256532751" lon="9.398398133760761"><ele>213.0</ele><time>2026-04-19T06:58:46Z</time></trkpt><trkpt lat="44.397698062206125" lon="9.398602466766201"><ele>213.0</ele><time>2026-04-19T06:58:47Z</time></trkpt><trkpt lat="44.39778435109575" lon="9.398813263094283"><ele>211.33333333333331</ele><time>2026-04-19T06:58:48Z</time></trkpt><trkpt lat="44.397840796422116" lon="9.39904700451702"><ele>209.66666666666666</ele><time>2026-04-19T06:58:49Z</time></trkpt><trkpt lat="44.397921120647425" lon="9.399267745176047"><ele>208.0</ele><time>2026-04-19T06:58:50Z</time></trkpt><trkpt lat="44.39800192554455" lon="9.399478648073778"><ele>212.33333333333331</ele><time>2026-04-19T06:58:51Z</time></trkpt><trkpt lat="44.39812978761399" lon="9.399654644089887"><ele>216.66666666666669</ele><time>2026-04-19T06:58:52Z</time></trkpt><trkpt lat="44.398257879287655" lon="9.399819519158338"><ele>221.0</ele><time>2026-04-19T06:58:53Z</time></trkpt><trkpt lat="44.39837020115586" lon="9.400013420602278"><ele>221.0</ele><time>2026-04-19T06:58:54Z</time></trkpt><trkpt lat="44.39848029359369" lon="9.400194956075719"><ele>221.0</ele><time>2026-04-19T06:58:55Z</time></trkpt><trkpt lat="44.39857245837455" lon="9.400375199927577"><ele>221.0</ele><time>2026-04-19T06:58:56Z</time></trkpt><trkpt lat="44.398707407048555" lon="9.400513656710602"><ele>225.66666666666669</ele><time>2026-04-19T06:58:57Z</time></trkpt><trkpt lat="44.398851174645685" lon="9.40063866353602"><ele>230.33333333333331</ele><time>2026-04-19T06:58:58Z</time></trkpt><trkpt lat="44.39897528377394" lon="9.40078880906632"><ele>235.0</ele><time>2026-04-19T06:58:59Z</time></trkpt><trkpt lat="44.39912654519964" lon="9.400896518427693"><ele>235.0</ele><time>2026-04-19T06:59:00Z</time></trkpt><trkpt lat="44.399288446842085" lon="9.400962470606991"><ele>235.0</ele><time>2026-04-19T06:59:01Z</time></trkpt><trkpt lat="44.399412073015554" lon="9.401106494686834"><ele>235.0</ele><time>2026-04-19T06:59:02Z</time></trkpt><trkpt lat="44.399507493585176" lon="9.401299231989356"><ele>236.0</ele><time>2026-04-19T06:59:03Z</time></trkpt><trkpt lat="44.3996275138514" lon="9.401437622966498"><ele>237.0</ele><time>2026-04-19T06:59:04Z</time></trkpt><trkpt lat="44.39976250855482" lon="9.40158387809999"><ele>238.0</ele><time>2026-04-19T06:59:05Z</time></trkpt><trkpt lat="44.399924214339094" lon="9.401649497389815"><ele>238.0</ele><time>2026-04-19T06:59:06Z</time></trkpt><trkpt lat="44.400080925185065" lon="9.401692504242467"><ele>238.0</ele><time>2026-04-19T06:59:06.999Z</time></trkpt><trkpt lat="44.40021656905542" lon="9.401728983025299"><ele>238.0</ele><time>2026-04-19T06:59:07.999Z</time></trkpt><trkpt lat="44.40032609811577" lon="9.401850060382305"><ele>238.0</ele><time>2026-04-19T06:59:08.999Z</time></trkpt><trkpt lat="44.40040304710688" lon="9.402033355952296"><ele>240.0</ele><time>2026-04-19T06:59:09.999Z</time></trkpt><trkpt lat="44.40052058415187" lon="9.402189706588496"><ele>242.0</ele><time>2026-04-19T06:59:10.999Z</time></trkpt><trkpt lat="44.4006425013986" lon="9.40234680337955"><ele>244.0</ele><time>2026-04-19T06:59:11.999Z</time></trkpt><trkpt lat="44.400778848143446" lon="9.402488034709958"><ele>244.0</ele><time>2026-04-19T06:59:12.999Z</time></trkpt><trkpt lat="44.40092247319826" lon="9.402614120539953"><ele>244.0</ele><time>2026-04-19T06:59:13.999Z</time></trkpt><trkpt lat="44.40106792264135" lon="9.402744985773799"><ele>244.0</ele><time>2026-04-19T06:59:14.999Z</time></trkpt><trkpt lat="44.40121197586382" lon="9.402874666790325"><ele>248.33333333333331</ele><time>2026-04-19T06:59:15.999Z</time></trkpt><trkpt lat="44.40135250094942" lon="9.403016882914047"><ele>252.66666666666669</ele><time>2026-04-19T06:59:16.999Z</time></trkpt><trkpt lat="44.40149555253666" lon="9.403161886863113"><ele>257.0</ele><time>2026-04-19T06:59:17.999Z</time></trkpt><trkpt lat="44.40163408039367" lon="9.403315833563447"><ele>257.0</ele><time>2026-04-19T06:59:18.999Z</time></trkpt><trkpt lat="44.401773590099985" lon="9.40346476077009"><ele>257.0</ele><time>2026-04-19T06:59:19.999Z</time></trkpt><trkpt lat="44.401911125774454" lon="9.403609753050805"><ele>257.0</ele><time>2026-04-19T06:59:20.999Z</time></trkpt><trkpt lat="44.40206845425508" lon="9.403729963148558"><ele>258.33333333333337</ele><time>2026-04-19T06:59:21.999Z</time></trkpt><trkpt lat="44.40223456676652" lon="9.403806269771287"><ele>259.6666666666667</ele><time>2026-04-19T06:59:22.999Z</time></trkpt><trkpt lat="44.40240664630936" lon="9.403862763507954"><ele>261.0</ele><time>2026-04-19T06:59:23.999Z</time></trkpt><trkpt lat="44.40256087722291" lon="9.403974926755792"><ele>261.0</ele><time>2026-04-19T06:59:24.999Z</time></trkpt><trkpt lat="44.40269438166662" lon="9.404134036859025"><ele>261.0</ele><time>2026-04-19T06:59:25.999Z</time></trkpt><trkpt lat="44.402829637239115" lon="9.404292271835978"><ele>261.0</ele><time>2026-04-19T06:59:26.999Z</time></trkpt><trkpt lat="44.402975673563475" lon="9.40443969903673"><ele>262.0</ele><time>2026-04-19T06:59:27.999Z</time></trkpt><trkpt lat="44.40311105683012" lon="9.404597748908847"><ele>263.0</ele><time>2026-04-19T06:59:28.999Z</time></trkpt><trkpt lat="44.40324511098758" lon="9.40474682031381"><ele>264.0</ele><time>2026-04-19T06:59:29.999Z</time></trkpt><trkpt lat="44.4033959194264" lon="9.40487158145416"><ele>264.0</ele><time>2026-04-19T06:59:30.999Z</time></trkpt><trkpt lat="44.40355534295293" lon="9.404963451506172"><ele>264.0</ele><time>2026-04-19T06:59:31.999Z</time></trkpt><trkpt lat="44.403718303381474" lon="9.40504204173821"><ele>264.0</ele><time>2026-04-19T06:59:32.999Z</time></trkpt><trkpt lat="44.40386835934606" lon="9.405120793499687"><ele>269.0</ele><time>2026-04-19T06:59:33.999Z</time></trkpt><trkpt lat="44.403963645286176" lon="9.405285843102051"><ele>274.0</ele><time>2026-04-19T06:59:34.998Z</time></trkpt><trkpt lat="44.40407394966939" lon="9.4054486683818"><ele>279.0</ele><time>2026-04-19T06:59:35.998Z</time></trkpt><trkpt lat="44.4041836099245" lon="9.40561932121338"><ele>279.0</ele><time>2026-04-19T06:59:36.998Z</time></trkpt><trkpt lat="44.40425965896594" lon="9.40580785872244"><ele>279.0</ele><time>2026-04-19T06:59:37.998Z</time></trkpt><trkpt lat="44.404282942655534" lon="9.406034375977242"><ele>279.0</ele><time>2026-04-19T06:59:38.998Z</time></trkpt><trkpt lat="44.404348446950536" lon="9.406256334677048"><ele>279.3333333333333</ele><time>2026-04-19T06:59:39.998Z</time></trkpt><trkpt lat="44.404411608276924" lon="9.406477160831708"><ele>279.66666666666663</ele><time>2026-04-19T06:59:40.998Z</time></trkpt><trkpt lat="44.40447584558376" lon="9.406680772074358"><ele>280.0</ele><time>2026-04-19T06:59:41.998Z</time></trkpt><trkpt lat="44.40454481128184" lon="9.406847883131706"><ele>280.0</ele><time>2026-04-19T06:59:42.998Z</time></trkpt><trkpt lat="44.40461502745298" lon="9.40699677163843"><ele>280.0</ele><time>2026-04-19T06:59:43.998Z</time></trkpt><trkpt lat="44.40473134957414" lon="9.40710869749628"><ele>280.0</ele><time>2026-04-19T06:59:44.998Z</time></trkpt><trkpt lat="44.40481159421681" lon="9.407232950837301"><ele>280.0</ele><time>2026-04-19T06:59:45.998Z</time></trkpt><trkpt lat="44.40483548975606" lon="9.407382462984687"><ele>281.5</ele><time>2026-04-19T06:59:46.998Z</time></trkpt><trkpt lat="44.404824854711045" lon="9.407537561470022"><ele>283.0</ele><time>2026-04-19T06:59:47.998Z</time></trkpt><trkpt lat="44.404750737961436" lon="9.407652518973581"><ele>284.5</ele><time>2026-04-19T06:59:48.998Z</time></trkpt><trkpt lat="44.40464142727985" lon="9.40769713233524"><ele>286.0</ele><time>2026-04-19T06:59:49.998Z</time></trkpt><trkpt lat="44.40449285632405" lon="9.407779570459441"><ele>286.0</ele><time>2026-04-19T06:59:50.998Z</time></trkpt><trkpt lat="44.40435806184892" lon="9.4078983217205"><ele>286.0</ele><time>2026-04-19T06:59:51.998Z</time></trkpt><trkpt lat="44.40425526690729" lon="9.408050992257035"><ele>286.0</ele><time>2026-04-19T06:59:52.998Z</time></trkpt><trkpt lat="44.40419202973217" lon="9.40826019121628"><ele>289.66666666666663</ele><time>2026-04-19T06:59:53.998Z</time></trkpt><trkpt lat="44.404136294020404" lon="9.408485071312835"><ele>293.3333333333333</ele><time>2026-04-19T06:59:54.998Z</time></trkpt><trkpt lat="44.40406859964027" lon="9.408699897934902"><ele>297.0</ele><time>2026-04-19T06:59:55.998Z</time></trkpt><trkpt lat="44.40394026471707" lon="9.408840223580937"><ele>297.0</ele><time>2026-04-19T06:59:56.998Z</time></trkpt><trkpt lat="44.403804170722864" lon="9.408992662632022"><ele>297.0</ele><time>2026-04-19T06:59:57.998Z</time></trkpt><trkpt lat="44.4036720394462" lon="9.409137486784399"><ele>297.0</ele><time>2026-04-19T06:59:58.998Z</time></trkpt><trkpt lat="44.4035189602873" lon="9.409240065217007"><ele>297.0</ele><time>2026-04-19T06:59:59.998Z</time></trkpt><trkpt lat="44.40336407739812" lon="9.409345195840244"><ele>297.0</ele><time>2026-04-19T07:00:00.998Z</time></trkpt><trkpt lat="44.4032188638112" lon="9.409470662363345"><ele>297.0</ele><time>2026-04-19T07:00:01.998Z</time></trkpt><trkpt lat="44.40308952844306" lon="9.409624215592444"><ele>301.3333333333333</ele><time>2026-04-19T07:00:02.998Z</time></trkpt><trkpt lat="44.402954842264" lon="9.40978590301622"><ele>305.66666666666663</ele><time>2026-04-19T07:00:03.998Z</time></trkpt><trkpt lat="44.40281854642862" lon="9.409916561680966"><ele>310.0</ele><time>2026-04-19T07:00:04.998Z</time></trkpt><trkpt lat="44.40266114648257" lon="9.410021360000856"><ele>310.0</ele><time>2026-04-19T07:00:05.998Z</time></trkpt><trkpt lat="44.402515715586226" lon="9.410122646646968"><ele>310.0</ele><time>2026-04-19T07:00:06.998Z</time></trkpt><trkpt lat="44.402395549745584" lon="9.410281989594377"><ele>310.0</ele><time>2026-04-19T07:00:07.998Z</time></trkpt><trkpt lat="44.402308149404064" lon="9.410497966406599"><ele>313.3333333333333</ele><time>2026-04-19T07:00:08.998Z</time></trkpt><trkpt lat="44.40218787214737" lon="9.410654904617427"><ele>316.6666666666667</ele><time>2026-04-19T07:00:09.998Z</time></trkpt><trkpt lat="44.40205750779275" lon="9.410812397150037"><ele>320.0</ele><time>2026-04-19T07:00:10.998Z</time></trkpt><trkpt lat="44.4019648024018" lon="9.411014974017851"><ele>320.0</ele><time>2026-04-19T07:00:11.998Z</time></trkpt><trkpt lat="44.40186023927012" lon="9.411195883078456"><ele>320.0</ele><time>2026-04-19T07:00:12.998Z</time></trkpt><trkpt lat="44.4017373925492" lon="9.41136070236785"><ele>320.0</ele><time>2026-04-19T07:00:13.998Z</time></trkpt><trkpt lat="44.40159681518419" lon="9.411497304043024"><ele>323.0</ele><time>2026-04-19T07:00:14.998Z</time></trkpt><trkpt lat="44.40146859293782" lon="9.411618443215112"><ele>326.0</ele><time>2026-04-19T07:00:15.998Z</time></trkpt><trkpt lat="44.40134924706046" lon="9.411736762704606"><ele>329.0</ele><time>2026-04-19T07:00:16.998Z</time></trkpt><trkpt lat="44.40126724073932" lon="9.411913635105346"><ele>331.33333333333337</ele><time>2026-04-19T07:00:17.998Z</time></trkpt><trkpt lat="44.40120875300358" lon="9.412133423221112"><ele>333.6666666666667</ele><time>2026-04-19T07:00:18.998Z</time></trkpt><trkpt lat="44.40117181425989" lon="9.412341309703056"><ele>336.0</ele><time>2026-04-19T07:00:19.998Z</time></trkpt><trkpt lat="44.40112059343688" lon="9.412528482534896"><ele>336.0</ele><time>2026-04-19T07:00:20.998Z</time></trkpt><trkpt lat="44.40107300898512" lon="9.412695659327166"><ele>336.0</ele><time>2026-04-19T07:00:22Z</time></trkpt><trkpt lat="44.401062752530805" lon="9.412849657354618"><ele>336.0</ele><time>2026-04-19T07:00:23Z</time></trkpt><trkpt lat="44.4010927891623" lon="9.41298415832645"><ele>336.0</ele><time>2026-04-19T07:00:24Z</time></trkpt><trkpt lat="44.401214925626135" lon="9.413055150755056"><ele>336.25</ele><time>2026-04-19T07:00:25Z</time></trkpt><trkpt lat="44.40133335262883" lon="9.413046361296015"><ele>336.5</ele><time>2026-04-19T07:00:26Z</time></trkpt><trkpt lat="44.401431175368266" lon="9.412934150553497"><ele>336.75</ele><time>2026-04-19T07:00:27Z</time></trkpt><trkpt lat="44.4014718348149" lon="9.41276839733836"><ele>337.0</ele><time>2026-04-19T07:00:28Z</time></trkpt><trkpt lat="44.40148290705211" lon="9.412576619894068"><ele>337.25</ele><time>2026-04-19T07:00:29Z</time></trkpt><trkpt lat="44.4015313830153" lon="9.412408151288798"><ele>337.5</ele><time>2026-04-19T07:00:30Z</time></trkpt><trkpt lat="44.401635545563444" lon="9.412272561120677"><ele>337.75</ele><time>2026-04-19T07:00:31Z</time></trkpt><trkpt lat="44.40172707380165" lon="9.412112692205287"><ele>338.0</ele><time>2026-04-19T07:00:32Z</time></trkpt><trkpt lat="44.4017972949511" lon="9.411920647958846"><ele>335.0</ele><time>2026-04-19T07:00:33Z</time></trkpt><trkpt lat="44.40187282550086" lon="9.41172891426481"><ele>332.0</ele><time>2026-04-19T07:00:34Z</time></trkpt><trkpt lat="44.40197025020533" lon="9.411548528696864"><ele>329.0</ele><time>2026-04-19T07:00:35Z</time></trkpt><trkpt lat="44.40211281814663" lon="9.411460510129588"><ele>328.75</ele><time>2026-04-19T07:00:36Z</time></trkpt><trkpt lat="44.40223367307113" lon="9.411360483634924"><ele>328.5</ele><time>2026-04-19T07:00:37Z</time></trkpt><trkpt lat="44.402334588173794" lon="9.411221727433265"><ele>328.25</ele><time>2026-04-19T07:00:38Z</time></trkpt><trkpt lat="44.40240328919574" lon="9.411078127952418"><ele>328.0</ele><time>2026-04-19T07:00:39Z</time></trkpt><trkpt lat="44.402524417042414" lon="9.411044829280286"><ele>328.0</ele><time>2026-04-19T07:00:40Z</time></trkpt><trkpt lat="44.40266853911722" lon="9.411008118398403"><ele>328.0</ele><time>2026-04-19T07:00:41Z</time></trkpt><trkpt lat="44.402811653233556" lon="9.410977715627885"><ele>328.0</ele><time>2026-04-19T07:00:42Z</time></trkpt><trkpt lat="44.40293332337669" lon="9.411017303939815"><ele>328.0</ele><time>2026-04-19T07:00:43Z</time></trkpt><trkpt lat="44.40299620340466" lon="9.411167777608778"><ele>331.0</ele><time>2026-04-19T07:00:44Z</time></trkpt><trkpt lat="44.403105666380064" lon="9.41127636763065"><ele>334.0</ele><time>2026-04-19T07:00:44.999Z</time></trkpt><trkpt lat="44.40320570740154" lon="9.411359589652893"><ele>337.0</ele><time>2026-04-19T07:00:45.999Z</time></trkpt><trkpt lat="44.403342973865286" lon="9.411326324079901"><ele>340.0</ele><time>2026-04-19T07:00:46.999Z</time></trkpt><trkpt lat="44.40347967964478" lon="9.411336001385026"><ele>345.75</ele><time>2026-04-19T07:00:47.999Z</time></trkpt><trkpt lat="44.40359894275269" lon="9.411422989353404"><ele>351.5</ele><time>2026-04-19T07:00:48.999Z</time></trkpt><trkpt lat="44.40370544259378" lon="9.411487522183839"><ele>357.25</ele><time>2026-04-19T07:00:49.999Z</time></trkpt><trkpt lat="44.403808484354315" lon="9.411471668570432"><ele>363.0</ele><time>2026-04-19T07:00:50.999Z</time></trkpt><trkpt lat="44.40388964359732" lon="9.411364457058646"><ele>361.0</ele><time>2026-04-19T07:00:51.999Z</time></trkpt><trkpt lat="44.403913318412094" lon="9.411180304826246"><ele>359.0</ele><time>2026-04-19T07:00:52.999Z</time></trkpt><trkpt lat="44.4038739056492" lon="9.410993752019548"><ele>357.0</ele><time>2026-04-19T07:00:53.999Z</time></trkpt><trkpt lat="44.403895934457196" lon="9.410825349911605"><ele>355.0</ele><time>2026-04-19T07:00:54.999Z</time></trkpt><trkpt lat="44.403952167996" lon="9.410676068938521"><ele>355.0</ele><time>2026-04-19T07:00:55.999Z</time></trkpt><trkpt lat="44.40404856444989" lon="9.41056138403453"><ele>355.0</ele><time>2026-04-19T07:00:56.999Z</time></trkpt><trkpt lat="44.40413212675077" lon="9.41049878636241"><ele>355.0</ele><time>2026-04-19T07:00:57.999Z</time></trkpt><trkpt lat="44.404214007866884" lon="9.410511730772983"><ele>355.0</ele><time>2026-04-19T07:00:58.999Z</time></trkpt><trkpt lat="44.40425412027095" lon="9.41062702737252"><ele>355.0</ele><time>2026-04-19T07:00:59.999Z</time></trkpt><trkpt lat="44.40422511090058" lon="9.410757762331373"><ele>355.0</ele><time>2026-04-19T07:01:00.999Z</time></trkpt><trkpt lat="44.40412558016383" lon="9.410828493237346"><ele>355.0</ele><time>2026-04-19T07:01:01.999Z</time></trkpt><trkpt lat="44.40401921275077" lon="9.410865941711602"><ele>355.0</ele><time>2026-04-19T07:01:02.999Z</time></trkpt><trkpt lat="44.40394243579204" lon="9.410966064183095"><ele>355.0</ele><time>2026-04-19T07:01:03.999Z</time></trkpt><trkpt lat="44.40391850717055" lon="9.411151986626209"><ele>360.75</ele><time>2026-04-19T07:01:04.999Z</time></trkpt><trkpt lat="44.403935168190536" lon="9.411333547725862"><ele>366.5</ele><time>2026-04-19T07:01:05.999Z</time></trkpt><trkpt lat="44.4039706740315" lon="9.411480673639494"><ele>372.25</ele><time>2026-04-19T07:01:06.999Z</time></trkpt><trkpt lat="44.403941377266555" lon="9.411604809827987"><ele>378.0</ele><time>2026-04-19T07:01:07.999Z</time></trkpt><trkpt lat="44.40384718818408" lon="9.411700916917964"><ele>374.25</ele><time>2026-04-19T07:01:08.999Z</time></trkpt><trkpt lat="44.40375290937787" lon="9.411779692974449"><ele>370.5</ele><time>2026-04-19T07:01:09.999Z</time></trkpt><trkpt lat="44.40360734590459" lon="9.41169200489838"><ele>366.75</ele><time>2026-04-19T07:01:10.999Z</time></trkpt><trkpt lat="44.4034592264222" lon="9.411621491650841"><ele>363.0</ele><time>2026-04-19T07:01:11.999Z</time></trkpt><trkpt lat="44.40331610505484" lon="9.411622356822734"><ele>363.0</ele><time>2026-04-19T07:01:12.999Z</time></trkpt><trkpt lat="44.40320156477061" lon="9.411717176409043"><ele>363.0</ele><time>2026-04-19T07:01:13.999Z</time></trkpt><trkpt lat="44.40307876878695" lon="9.41183888019991"><ele>363.0</ele><time>2026-04-19T07:01:14.999Z</time></trkpt><trkpt lat="44.40295040383506" lon="9.411868484822337"><ele>363.0</ele><time>2026-04-19T07:01:15.999Z</time></trkpt><trkpt lat="44.402832036058946" lon="9.411818290014706"><ele>358.6666666666667</ele><time>2026-04-19T07:01:16.999Z</time></trkpt><trkpt lat="44.40270674047914" lon="9.411781599924446"><ele>354.33333333333337</ele><time>2026-04-19T07:01:17.999Z</time></trkpt><trkpt lat="44.4025591234054" lon="9.411802153028741"><ele>350.0</ele><time>2026-04-19T07:01:18.999Z</time></trkpt><trkpt lat="44.402399887094965" lon="9.41189971181917"><ele>350.0</ele><time>2026-04-19T07:01:19.999Z</time></trkpt><trkpt lat="44.40227900998824" lon="9.412025879085695"><ele>350.0</ele><time>2026-04-19T07:01:20.999Z</time></trkpt><trkpt lat="44.40219872476417" lon="9.412204006454253"><ele>350.0</ele><time>2026-04-19T07:01:21.999Z</time></trkpt><trkpt lat="44.402184029440015" lon="9.412414470869464"><ele>358.0</ele><time>2026-04-19T07:01:22.999Z</time></trkpt><trkpt lat="44.402217466171294" lon="9.412630989424107"><ele>366.0</ele><time>2026-04-19T07:01:23.999Z</time></trkpt><trkpt lat="44.40223688764521" lon="9.412846735248802"><ele>374.0</ele><time>2026-04-19T07:01:24.999Z</time></trkpt><trkpt lat="44.402237024537534" lon="9.413062809857978"><ele>374.5</ele><time>2026-04-19T07:01:25.999Z</time></trkpt><trkpt lat="44.40228084893158" lon="9.413264801582551"><ele>375.0</ele><time>2026-04-19T07:01:26.999Z</time></trkpt><trkpt lat="44.40234762746635" lon="9.413434033585862"><ele>375.5</ele><time>2026-04-19T07:01:27.999Z</time></trkpt><trkpt lat="44.40246073147946" lon="9.4135300789914"><ele>376.0</ele><time>2026-04-19T07:01:28.999Z</time></trkpt><trkpt lat="44.40257499362794" lon="9.413619346788513"><ele>376.0</ele><time>2026-04-19T07:01:29.999Z</time></trkpt><trkpt lat="44.40270200387738" lon="9.413696359563785"><ele>376.0</ele><time>2026-04-19T07:01:30.999Z</time></trkpt><trkpt lat="44.40284938613726" lon="9.413786921066098"><ele>376.0</ele><time>2026-04-19T07:01:31.999Z</time></trkpt><trkpt lat="44.40299582287759" lon="9.413886661643383"><ele>381.0</ele><time>2026-04-19T07:01:32.999Z</time></trkpt><trkpt lat="44.403145352092736" lon="9.41404118900723"><ele>386.0</ele><time>2026-04-19T07:01:33.999Z</time></trkpt><trkpt lat="44.40329118016014" lon="9.414178765136716"><ele>391.0</ele><time>2026-04-19T07:01:34.999Z</time></trkpt><trkpt lat="44.40342867742496" lon="9.414314254065074"><ele>391.0</ele><time>2026-04-19T07:01:35.999Z</time></trkpt><trkpt lat="44.403557554548115" lon="9.414456764451165"><ele>391.0</ele><time>2026-04-19T07:01:36.999Z</time></trkpt><trkpt lat="44.40366074910171" lon="9.414620234678502"><ele>391.0</ele><time>2026-04-19T07:01:37.999Z</time></trkpt><trkpt lat="44.40374875434586" lon="9.41482168856941"><ele>394.33333333333337</ele><time>2026-04-19T07:01:38.998Z</time></trkpt><trkpt lat="44.4038393699927" lon="9.415017715926565"><ele>397.66666666666663</ele><time>2026-04-19T07:01:39.998Z</time></trkpt><trkpt lat="44.40393022324955" lon="9.41518177203361"><ele>401.0</ele><time>2026-04-19T07:01:40.998Z</time></trkpt><trkpt lat="44.40401958321797" lon="9.415341319270981"><ele>401.0</ele><time>2026-04-19T07:01:41.998Z</time></trkpt><trkpt lat="44.4041615803024" lon="9.415444066894631"><ele>401.0</ele><time>2026-04-19T07:01:42.998Z</time></trkpt><trkpt lat="44.40426916505057" lon="9.415588672619602"><ele>401.0</ele><time>2026-04-19T07:01:43.998Z</time></trkpt><trkpt lat="44.40438494726622" lon="9.415731152638386"><ele>395.25</ele><time>2026-04-19T07:01:44.998Z</time></trkpt><trkpt lat="44.404492460925255" lon="9.415866311894726"><ele>389.5</ele><time>2026-04-19T07:01:45.998Z</time></trkpt><trkpt lat="44.40457072066865" lon="9.416004095279577"><ele>383.75</ele><time>2026-04-19T07:01:46.998Z</time></trkpt><trkpt lat="44.40458666295763" lon="9.41616088633131"><ele>378.0</ele><time>2026-04-19T07:01:47.998Z</time></trkpt><trkpt lat="44.404562355617365" lon="9.416336659804715"><ele>377.0</ele><time>2026-04-19T07:01:48.998Z</time></trkpt><trkpt lat="44.40457087354278" lon="9.41652999206236"><ele>376.0</ele><time>2026-04-19T07:01:49.998Z</time></trkpt><trkpt lat="44.40457383031358" lon="9.416689274260799"><ele>375.0</ele><time>2026-04-19T07:01:50.998Z</time></trkpt><trkpt lat="44.404661905936464" lon="9.416809710467021"><ele>374.0</ele><time>2026-04-19T07:01:51.998Z</time></trkpt><trkpt lat="44.40477788023308" lon="9.416909464556415"><ele>380.0</ele><time>2026-04-19T07:01:52.998Z</time></trkpt><trkpt lat="44.40492245631457" lon="9.416951052241762"><ele>386.0</ele><time>2026-04-19T07:01:53.998Z</time></trkpt><trkpt lat="44.405056751078874" lon="9.416972109240728"><ele>392.0</ele><time>2026-04-19T07:01:54.998Z</time></trkpt><trkpt lat="44.40514608689194" lon="9.417050048315625"><ele>398.0</ele><time>2026-04-19T07:01:55.998Z</time></trkpt><trkpt lat="44.40521004315766" lon="9.41716681552456"><ele>398.0</ele><time>2026-04-19T07:01:56.998Z</time></trkpt><trkpt lat="44.405220521543875" lon="9.417318753324263"><ele>398.0</ele><time>2026-04-19T07:01:57.998Z</time></trkpt><trkpt lat="44.405179485381495" lon="9.41745692554963"><ele>398.0</ele><time>2026-04-19T07:01:58.998Z</time></trkpt><trkpt lat="44.40507693852583" lon="9.417520510579878"><ele>398.0</ele><time>2026-04-19T07:01:59.998Z</time></trkpt><trkpt lat="44.40495529910303" lon="9.41751490432661"><ele>398.0</ele><time>2026-04-19T07:02:00.998Z</time></trkpt><trkpt lat="44.404853421459784" lon="9.417563377852023"><ele>398.0</ele><time>2026-04-19T07:02:01.998Z</time></trkpt><trkpt lat="44.40479043639965" lon="9.417720933642778"><ele>398.0</ele><time>2026-04-19T07:02:02.998Z</time></trkpt><trkpt lat="44.40473650275054" lon="9.417917573232131"><ele>398.0</ele><time>2026-04-19T07:02:03.998Z</time></trkpt><trkpt lat="44.4046966222579" lon="9.418109676220736"><ele>402.0</ele><time>2026-04-19T07:02:04.998Z</time></trkpt><trkpt lat="44.40466681323558" lon="9.418312649057714"><ele>406.0</ele><time>2026-04-19T07:02:05.998Z</time></trkpt><trkpt lat="44.404648732786704" lon="9.418534018755645"><ele>410.0</ele><time>2026-04-19T07:02:06.998Z</time></trkpt><trkpt lat="44.40463012658181" lon="9.41876671955576"><ele>405.0</ele><time>2026-04-19T07:02:07.998Z</time></trkpt><trkpt lat="44.40461783797779" lon="9.419002524468313"><ele>400.0</ele><time>2026-04-19T07:02:08.998Z</time></trkpt><trkpt lat="44.40461945555101" lon="9.419243118164246"><ele>395.0</ele><time>2026-04-19T07:02:09.998Z</time></trkpt><trkpt lat="44.40464751534696" lon="9.419483706091404"><ele>397.66666666666663</ele><time>2026-04-19T07:02:10.998Z</time></trkpt><trkpt lat="44.404667146171576" lon="9.419721390755214"><ele>400.33333333333337</ele><time>2026-04-19T07:02:11.998Z</time></trkpt><trkpt lat="44.40464906819532" lon="9.419970308252262"><ele>403.0</ele><time>2026-04-19T07:02:12.998Z</time></trkpt><trkpt lat="44.40462615264313" lon="9.42020381140584"><ele>403.0</ele><time>2026-04-19T07:02:13.998Z</time></trkpt><trkpt lat="44.404617343772046" lon="9.420443100068077"><ele>403.0</ele><time>2026-04-19T07:02:14.998Z</time></trkpt><trkpt lat="44.40458027730766" lon="9.420672945994589"><ele>403.0</ele><time>2026-04-19T07:02:15.998Z</time></trkpt><trkpt lat="44.40453179614655" lon="9.420895884665773"><ele>405.0</ele><time>2026-04-19T07:02:16.998Z</time></trkpt><trkpt lat="44.404500014805045" lon="9.421092768310828"><ele>407.0</ele><time>2026-04-19T07:02:17.998Z</time></trkpt><trkpt lat="44.40450688541608" lon="9.42128531924372"><ele>409.0</ele><time>2026-04-19T07:02:18.998Z</time></trkpt><trkpt lat="44.4045551276954" lon="9.421453817628736"><ele>411.0</ele><time>2026-04-19T07:02:19.998Z</time></trkpt><trkpt lat="44.40456441086899" lon="9.421605184045042"><ele>412.75</ele><time>2026-04-19T07:02:20.998Z</time></trkpt><trkpt lat="44.40452423224706" lon="9.421738620251135"><ele>414.5</ele><time>2026-04-19T07:02:21.998Z</time></trkpt><trkpt lat="44.40444058390638" lon="9.421883301683526"><ele>416.25</ele><time>2026-04-19T07:02:22.998Z</time></trkpt><trkpt lat="44.40434504218399" lon="9.421999049693754"><ele>418.0</ele><time>2026-04-19T07:02:23.998Z</time></trkpt><trkpt lat="44.40422560451706" lon="9.422098723951521"><ele>418.0</ele><time>2026-04-19T07:02:24.998Z</time></trkpt><trkpt lat="44.40410527040761" lon="9.42214224327675"><ele>418.0</ele><time>2026-04-19T07:02:25.998Z</time></trkpt><trkpt lat="44.40398414942178" lon="9.422124343329509"><ele>418.0</ele><time>2026-04-19T07:02:26.998Z</time></trkpt><trkpt lat="44.40385971851451" lon="9.422066951410917"><ele>418.0</ele><time>2026-04-19T07:02:28Z</time></trkpt><trkpt lat="44.40381798231616" lon="9.421856775633598"><ele>426.33333333333337</ele><time>2026-04-19T07:02:29Z</time></trkpt><trkpt lat="44.40374904335937" lon="9.421647609193437"><ele>434.66666666666663</ele><time>2026-04-19T07:02:30Z</time></trkpt><trkpt lat="44.40367597437915" lon="9.421441717870625"><ele>443.0</ele><time>2026-04-19T07:02:31Z</time></trkpt><trkpt lat="44.40361036606781" lon="9.421217654604005"><ele>443.0</ele><time>2026-04-19T07:02:32Z</time></trkpt><trkpt lat="44.40355881175241" lon="9.420990088061602"><ele>443.0</ele><time>2026-04-19T07:02:32.999Z</time></trkpt><trkpt lat="44.40352971983696" lon="9.42073697248701"><ele>443.0</ele><time>2026-04-19T07:02:34Z</time></trkpt><trkpt lat="44.403511574235694" lon="9.420474692104346"><ele>443.0</ele><time>2026-04-19T07:02:35Z</time></trkpt><trkpt lat="44.403504010121075" lon="9.420226154431177"><ele>443.0</ele><time>2026-04-19T07:02:36Z</time></trkpt><trkpt lat="44.403495035405705" lon="9.419957735219798"><ele>443.0</ele><time>2026-04-19T07:02:37Z</time></trkpt><trkpt lat="44.40347264530656" lon="9.41970780314578"><ele>438.0</ele><time>2026-04-19T07:02:38Z</time></trkpt><trkpt lat="44.40343692286407" lon="9.419490330372621"><ele>433.0</ele><time>2026-04-19T07:02:39Z</time></trkpt><trkpt lat="44.40338333668087" lon="9.419298677336522"><ele>428.0</ele><time>2026-04-19T07:02:40Z</time></trkpt><trkpt lat="44.40329098398726" lon="9.419155063610798"><ele>423.0</ele><time>2026-04-19T07:02:41Z</time></trkpt><trkpt lat="44.40315659533334" lon="9.41905165852718"><ele>423.0</ele><time>2026-04-19T07:02:42Z</time></trkpt><trkpt lat="44.403001229918615" lon="9.41897345560744"><ele>423.0</ele><time>2026-04-19T07:02:43Z</time></trkpt><trkpt lat="44.40284718415096" lon="9.418866767410448"><ele>423.0</ele><time>2026-04-19T07:02:44Z</time></trkpt><trkpt lat="44.402699564317395" lon="9.418788393348084"><ele>425.0</ele><time>2026-04-19T07:02:45Z</time></trkpt><trkpt lat="44.40258734642948" lon="9.41869383433468"><ele>427.0</ele><time>2026-04-19T07:02:46Z</time></trkpt><trkpt lat="44.402511572348374" lon="9.418562619641792"><ele>429.0</ele><time>2026-04-19T07:02:46.999Z</time></trkpt><trkpt lat="44.40243536412877" lon="9.418441978490025"><ele>431.0</ele><time>2026-04-19T07:02:47.999Z</time></trkpt><trkpt lat="44.40236422357244" lon="9.418354158388924"><ele>431.0</ele><time>2026-04-19T07:02:48.999Z</time></trkpt><trkpt lat="44.4022665167065" lon="9.41836081477181"><ele>431.0</ele><time>2026-04-19T07:02:49.999Z</time></trkpt><trkpt lat="44.402188977995706" lon="9.418468531213648"><ele>431.0</ele><time>2026-04-19T07:02:50.999Z</time></trkpt><trkpt lat="44.40217851239568" lon="9.418617176059087"><ele>431.0</ele><time>2026-04-19T07:02:51.999Z</time></trkpt><trkpt lat="44.402243719371086" lon="9.418741326589902"><ele>431.0</ele><time>2026-04-19T07:02:52.999Z</time></trkpt><trkpt lat="44.4023540803381" lon="9.418816640638084"><ele>437.5</ele><time>2026-04-19T07:02:53.999Z</time></trkpt><trkpt lat="44.402481720617246" lon="9.418845062874615"><ele>444.0</ele><time>2026-04-19T07:02:54.999Z</time></trkpt><trkpt lat="44.40259649008066" lon="9.418920221639473"><ele>450.5</ele><time>2026-04-19T07:02:55.999Z</time></trkpt><trkpt lat="44.40270035667936" lon="9.41900752971372"><ele>457.0</ele><time>2026-04-19T07:02:56.999Z</time></trkpt><trkpt lat="44.40283377606584" lon="9.419119677940357"><ele>457.0</ele><time>2026-04-19T07:02:57.999Z</time></trkpt><trkpt lat="44.402958603651584" lon="9.419251640050996"><ele>457.0</ele><time>2026-04-19T07:02:58.999Z</time></trkpt><trkpt lat="44.403050623323445" lon="9.419414451169228"><ele>457.0</ele><time>2026-04-19T07:02:59.999Z</time></trkpt><trkpt lat="44.4031142507203" lon="9.419608056506657"><ele>452.33333333333337</ele><time>2026-04-19T07:03:00.999Z</time></trkpt><trkpt lat="44.40317431348736" lon="9.41982267017278"><ele>447.66666666666663</ele><time>2026-04-19T07:03:01.999Z</time></trkpt><trkpt lat="44.403228219190055" lon="9.420035326648572"><ele>443.0</ele><time>2026-04-19T07:03:02.999Z</time></trkpt><trkpt lat="44.4032810289178" lon="9.42025930378463"><ele>443.0</ele><time>2026-04-19T07:03:03.999Z</time></trkpt><trkpt lat="44.403268614876524" lon="9.42048903900275"><ele>443.0</ele><time>2026-04-19T07:03:04.999Z</time></trkpt><trkpt lat="44.403246193356274" lon="9.420712281457249"><ele>443.0</ele><time>2026-04-19T07:03:05.999Z</time></trkpt><trkpt lat="44.40320220263435" lon="9.4209325341323"><ele>443.0</ele><time>2026-04-19T07:03:06.999Z</time></trkpt><trkpt lat="44.4031349799003" lon="9.421132001367214"><ele>443.0</ele><time>2026-04-19T07:03:07.999Z</time></trkpt><trkpt lat="44.40305992420645" lon="9.421329076700244"><ele>443.0</ele><time>2026-04-19T07:03:08.999Z</time></trkpt><trkpt lat="44.40298411421649" lon="9.421481171102096"><ele>443.75</ele><time>2026-04-19T07:03:09.999Z</time></trkpt><trkpt lat="44.40295834165825" lon="9.421638847487753"><ele>444.5</ele><time>2026-04-19T07:03:10.999Z</time></trkpt><trkpt lat="44.40300100032252" lon="9.421813532829818"><ele>445.25</ele><time>2026-04-19T07:03:11.999Z</time></trkpt><trkpt lat="44.40309377473586" lon="9.421975414980583"><ele>446.0</ele><time>2026-04-19T07:03:12.999Z</time></trkpt><trkpt lat="44.40321141031148" lon="9.422123782545297"><ele>450.66666666666663</ele><time>2026-04-19T07:03:13.999Z</time></trkpt><trkpt lat="44.403303063804884" lon="9.422299825057308"><ele>455.33333333333337</ele><time>2026-04-19T07:03:14.999Z</time></trkpt><trkpt lat="44.403413340023974" lon="9.422460784372195"><ele>460.0</ele><time>2026-04-19T07:03:15.999Z</time></trkpt><trkpt lat="44.40351042468534" lon="9.422609326108725"><ele>460.0</ele><time>2026-04-19T07:03:16.999Z</time></trkpt><trkpt lat="44.4035879681357" lon="9.422752353104181"><ele>460.0</ele><time>2026-04-19T07:03:17.999Z</time></trkpt><trkpt lat="44.4036054058541" lon="9.422896327524779"><ele>460.0</ele><time>2026-04-19T07:03:18.999Z</time></trkpt><trkpt lat="44.40354591986217" lon="9.423047675670341"><ele>460.0</ele><time>2026-04-19T07:03:19.999Z</time></trkpt><trkpt lat="44.40355328111538" lon="9.423203300339955"><ele>457.0</ele><time>2026-04-19T07:03:20.999Z</time></trkpt><trkpt lat="44.4035606898255" lon="9.42331515996138"><ele>454.0</ele><time>2026-04-19T07:03:21.999Z</time></trkpt><trkpt lat="44.403655024886895" lon="9.423426555995771"><ele>451.0</ele><time>2026-04-19T07:03:22.999Z</time></trkpt><trkpt lat="44.40378365176057" lon="9.42350021637403"><ele>448.0</ele><time>2026-04-19T07:03:23.999Z</time></trkpt><trkpt lat="44.40389503024773" lon="9.42354377349255"><ele>448.0</ele><time>2026-04-19T07:03:24.999Z</time></trkpt><trkpt lat="44.40395210908836" lon="9.423640984146365"><ele>448.0</ele><time>2026-04-19T07:03:25.999Z</time></trkpt><trkpt lat="44.40391299002627" lon="9.423811446502421"><ele>448.0</ele><time>2026-04-19T07:03:26.999Z</time></trkpt><trkpt lat="44.40389208439361" lon="9.42398775038915"><ele>448.0</ele><time>2026-04-19T07:03:27.999Z</time></trkpt><trkpt lat="44.40392579176459" lon="9.424169348257692"><ele>451.75</ele><time>2026-04-19T07:03:28.999Z</time></trkpt><trkpt lat="44.4040177638518" lon="9.424329685912214"><ele>455.5</ele><time>2026-04-19T07:03:29.999Z</time></trkpt><trkpt lat="44.404133497297536" lon="9.424475198386107"><ele>459.25</ele><time>2026-04-19T07:03:30.999Z</time></trkpt><trkpt lat="44.40419382077938" lon="9.424604077472113"><ele>463.0</ele><time>2026-04-19T07:03:31.999Z</time></trkpt><trkpt lat="44.4042501098876" lon="9.424784803244751"><ele>466.5</ele><time>2026-04-19T07:03:32.999Z</time></trkpt><trkpt lat="44.404291098883164" lon="9.425022180040141"><ele>470.0</ele><time>2026-04-19T07:03:33.999Z</time></trkpt><trkpt lat="44.40429137785536" lon="9.425225848405347"><ele>473.5</ele><time>2026-04-19T07:03:34.999Z</time></trkpt><trkpt lat="44.40429750435173" lon="9.425398786678018"><ele>477.0</ele><time>2026-04-19T07:03:35.999Z</time></trkpt><trkpt lat="44.40431711647766" lon="9.425558682657622"><ele>478.5</ele><time>2026-04-19T07:03:36.999Z</time></trkpt><trkpt lat="44.4043924991028" lon="9.425712422045766"><ele>480.0</ele><time>2026-04-19T07:03:37.999Z</time></trkpt><trkpt lat="44.404509878091595" lon="9.425843471123224"><ele>481.5</ele><time>2026-04-19T07:03:38.999Z</time></trkpt><trkpt lat="44.404633101369775" lon="9.425943253052388"><ele>483.0</ele><time>2026-04-19T07:03:39.999Z</time></trkpt><trkpt lat="44.40477788987338" lon="9.425985596811405"><ele>478.33333333333337</ele><time>2026-04-19T07:03:40.999Z</time></trkpt><trkpt lat="44.404945122034285" lon="9.425990940209372"><ele>473.6666666666667</ele><time>2026-04-19T07:03:41.999Z</time></trkpt><trkpt lat="44.40511052516341" lon="9.426011018704028"><ele>469.0</ele><time>2026-04-19T07:03:42.999Z</time></trkpt><trkpt lat="44.40527499277393" lon="9.426040434309693"><ele>469.0</ele><time>2026-04-19T07:03:43.999Z</time></trkpt><trkpt lat="44.405426883731266" lon="9.42607684305992"><ele>469.0</ele><time>2026-04-19T07:03:44.999Z</time></trkpt><trkpt lat="44.405548722990645" lon="9.426148317487996"><ele>469.0</ele><time>2026-04-19T07:03:45.999Z</time></trkpt><trkpt lat="44.40566208504744" lon="9.426185445239948"><ele>469.0</ele><time>2026-04-19T07:03:46.999Z</time></trkpt><trkpt lat="44.40575198759945" lon="9.426199698092969"><ele>473.75</ele><time>2026-04-19T07:03:47.998Z</time></trkpt><trkpt lat="44.40584585103799" lon="9.426155943579746"><ele>478.5</ele><time>2026-04-19T07:03:48.998Z</time></trkpt><trkpt lat="44.405902712252086" lon="9.425975541234715"><ele>483.25</ele><time>2026-04-19T07:03:49.998Z</time></trkpt><trkpt lat="44.40593799111148" lon="9.425778841260643"><ele>488.0</ele><time>2026-04-19T07:03:50.998Z</time></trkpt><trkpt lat="44.40592853715634" lon="9.425577323515734"><ele>489.66666666666663</ele><time>2026-04-19T07:03:51.998Z</time></trkpt><trkpt lat="44.4058630694771" lon="9.425375232942896"><ele>491.33333333333337</ele><time>2026-04-19T07:03:52.998Z</time></trkpt><trkpt lat="44.40574555302998" lon="9.425194279406993"><ele>493.0</ele><time>2026-04-19T07:03:53.998Z</time></trkpt><trkpt lat="44.40568805138859" lon="9.425002855602656"><ele>493.0</ele><time>2026-04-19T07:03:54.998Z</time></trkpt><trkpt lat="44.40566631399546" lon="9.424826992157193"><ele>493.0</ele><time>2026-04-19T07:03:55.998Z</time></trkpt><trkpt lat="44.405675337606304" lon="9.424598816884389"><ele>493.0</ele><time>2026-04-19T07:03:56.998Z</time></trkpt><trkpt lat="44.40570514039345" lon="9.424372132814199"><ele>493.33333333333337</ele><time>2026-04-19T07:03:57.998Z</time></trkpt><trkpt lat="44.40572123329329" lon="9.42414479448001"><ele>493.66666666666663</ele><time>2026-04-19T07:03:58.998Z</time></trkpt><trkpt lat="44.40571359777818" lon="9.423899146100617"><ele>494.0</ele><time>2026-04-19T07:03:59.998Z</time></trkpt><trkpt lat="44.405674238483954" lon="9.423657907866128"><ele>495.0</ele><time>2026-04-19T07:04:00.998Z</time></trkpt><trkpt lat="44.40563592423113" lon="9.42341447876833"><ele>496.0</ele><time>2026-04-19T07:04:01.998Z</time></trkpt><trkpt lat="44.405621102308174" lon="9.423176387680964"><ele>497.0</ele><time>2026-04-19T07:04:02.998Z</time></trkpt><trkpt lat="44.40564647763104" lon="9.422952130394643"><ele>495.25</ele><time>2026-04-19T07:04:03.998Z</time></trkpt><trkpt lat="44.405689976304245" lon="9.422763737514902"><ele>493.5</ele><time>2026-04-19T07:04:04.998Z</time></trkpt><trkpt lat="44.40568491082734" lon="9.422585004161657"><ele>491.75</ele><time>2026-04-19T07:04:05.998Z</time></trkpt><trkpt lat="44.405666491886144" lon="9.422403518689205"><ele>490.0</ele><time>2026-04-19T07:04:06.998Z</time></trkpt><trkpt lat="44.405653316737634" lon="9.42221059532051"><ele>487.2</ele><time>2026-04-19T07:04:07.998Z</time></trkpt><trkpt lat="44.40567208437313" lon="9.422045027431247"><ele>484.4</ele><time>2026-04-19T07:04:08.998Z</time></trkpt><trkpt lat="44.40572531382984" lon="9.421938720519908"><ele>481.6</ele><time>2026-04-19T07:04:09.998Z</time></trkpt><trkpt lat="44.40581585539961" lon="9.421901594230535"><ele>478.8</ele><time>2026-04-19T07:04:10.998Z</time></trkpt><trkpt lat="44.40589684004794" lon="9.421936148512376"><ele>476.0</ele><time>2026-04-19T07:04:11.998Z</time></trkpt><trkpt lat="44.40595879840188" lon="9.422032735022233"><ele>478.8</ele><time>2026-04-19T07:04:12.998Z</time></trkpt><trkpt lat="44.40603167904007" lon="9.422158595398255"><ele>481.6</ele><time>2026-04-19T07:04:13.998Z</time></trkpt><trkpt lat="44.40610784151085" lon="9.422254254307202"><ele>484.4</ele><time>2026-04-19T07:04:14.998Z</time></trkpt><trkpt lat="44.40618392412497" lon="9.422339671439499"><ele>487.2</ele><time>2026-04-19T07:04:15.998Z</time></trkpt><trkpt lat="44.40629357640439" lon="9.422367198009354"><ele>490.0</ele><time>2026-04-19T07:04:16.998Z</time></trkpt><trkpt lat="44.40640089040952" lon="9.42227663938352"><ele>493.5</ele><time>2026-04-19T07:04:17.998Z</time></trkpt><trkpt lat="44.40642589773029" lon="9.42210836540017"><ele>497.0</ele><time>2026-04-19T07:04:18.998Z</time></trkpt><trkpt lat="44.4064100953886" lon="9.421941904385918"><ele>500.5</ele><time>2026-04-19T07:04:19.998Z</time></trkpt><trkpt lat="44.40641662323714" lon="9.421787833071763"><ele>504.0</ele><time>2026-04-19T07:04:20.998Z</time></trkpt><trkpt lat="44.406475952875724" lon="9.421680624667584"><ele>504.0</ele><time>2026-04-19T07:04:21.998Z</time></trkpt><trkpt lat="44.40657559139189" lon="9.421629737223215"><ele>504.0</ele><time>2026-04-19T07:04:22.998Z</time></trkpt><trkpt lat="44.4066288986248" lon="9.421509026261058"><ele>504.0</ele><time>2026-04-19T07:04:23.998Z</time></trkpt><trkpt lat="44.4066147909311" lon="9.421346023313168"><ele>504.0</ele><time>2026-04-19T07:04:24.998Z</time></trkpt><trkpt lat="44.406557070045764" lon="9.421179854821595"><ele>504.5</ele><time>2026-04-19T07:04:25.998Z</time></trkpt><trkpt lat="44.40647850187535" lon="9.421015646201395"><ele>505.0</ele><time>2026-04-19T07:04:26.998Z</time></trkpt><trkpt lat="44.406405242204244" lon="9.420830335350736"><ele>505.5</ele><time>2026-04-19T07:04:27.998Z</time></trkpt><trkpt lat="44.40633615380306" lon="9.420651132304052"><ele>506.0</ele><time>2026-04-19T07:04:28.998Z</time></trkpt><trkpt lat="44.406250805924124" lon="9.420513069999583"><ele>496.75</ele><time>2026-04-19T07:04:29.998Z</time></trkpt><trkpt lat="44.40618684688777" lon="9.42039649864078"><ele>487.5</ele><time>2026-04-19T07:04:30.998Z</time></trkpt><trkpt lat="44.40614913115708" lon="9.420266257963252"><ele>478.25</ele><time>2026-04-19T07:04:31.998Z</time></trkpt><trkpt lat="44.40618191566326" lon="9.420104932144863"><ele>469.0</ele><time>2026-04-19T07:04:32.998Z</time></trkpt><trkpt lat="44.406217354967076" lon="9.419914457598624"><ele>469.0</ele><time>2026-04-19T07:04:34Z</time></trkpt><trkpt lat="44.406225649584975" lon="9.419711714063094"><ele>469.0</ele><time>2026-04-19T07:04:35Z</time></trkpt><trkpt lat="44.40626368992388" lon="9.419537247200088"><ele>469.0</ele><time>2026-04-19T07:04:36Z</time></trkpt><trkpt lat="44.40629970698032" lon="9.419396846041794"><ele>469.0</ele><time>2026-04-19T07:04:37Z</time></trkpt><trkpt lat="44.40639327790814" lon="9.419329136263867"><ele>475.75</ele><time>2026-04-19T07:04:38Z</time></trkpt><trkpt lat="44.40650819373063" lon="9.419301942779844"><ele>482.5</ele><time>2026-04-19T07:04:39Z</time></trkpt><trkpt lat="44.40665016817912" lon="9.419251647223934"><ele>489.25</ele><time>2026-04-19T07:04:40Z</time></trkpt><trkpt lat="44.406795619425466" lon="9.41928323477507"><ele>496.0</ele><time>2026-04-19T07:04:41Z</time></trkpt><trkpt lat="44.40693588101263" lon="9.419324200832017"><ele>496.0</ele><time>2026-04-19T07:04:42Z</time></trkpt><trkpt lat="44.40706492288075" lon="9.419348611451916"><ele>496.0</ele><time>2026-04-19T07:04:43Z</time></trkpt><trkpt lat="44.40717577636777" lon="9.419344696657198"><ele>496.0</ele><time>2026-04-19T07:04:44Z</time></trkpt><trkpt lat="44.40728596393553" lon="9.419268774073293"><ele>496.0</ele><time>2026-04-19T07:04:45Z</time></trkpt><trkpt lat="44.40734951139809" lon="9.419085477225513"><ele>497.6666666666667</ele><time>2026-04-19T07:04:46Z</time></trkpt><trkpt lat="44.4074158873959" lon="9.418943936166025"><ele>499.33333333333337</ele><time>2026-04-19T07:04:47Z</time></trkpt><trkpt lat="44.407487680274436" lon="9.418860615470818"><ele>501.0</ele><time>2026-04-19T07:04:48Z</time></trkpt><trkpt lat="44.40751840421975" lon="9.418771423998287"><ele>502.66666666666663</ele><time>2026-04-19T07:04:49Z</time></trkpt><trkpt lat="44.40749275554643" lon="9.418658243540257"><ele>504.3333333333333</ele><time>2026-04-19T07:04:50Z</time></trkpt><trkpt lat="44.407479802211306" lon="9.418558288673045"><ele>506.0</ele><time>2026-04-19T07:04:51Z</time></trkpt><trkpt lat="44.40747746998951" lon="9.418446530267003"><ele>505.99999999999994</ele><time>2026-04-19T07:04:52Z</time></trkpt><trkpt lat="44.40749965600024" lon="9.418342526326521"><ele>506.0</ele><time>2026-04-19T07:04:53Z</time></trkpt><trkpt lat="44.407562922616904" lon="9.41826493442206"><ele>506.0</ele><time>2026-04-19T07:04:54Z</time></trkpt><trkpt lat="44.407640236305475" lon="9.418212512493088"><ele>506.0</ele><time>2026-04-19T07:04:55Z</time></trkpt><trkpt lat="44.40772238271208" lon="9.41814432208102"><ele>505.99999999999994</ele><time>2026-04-19T07:04:56Z</time></trkpt><trkpt lat="44.40779602425834" lon="9.418062433941511"><ele>506.0</ele><time>2026-04-19T07:04:57Z</time></trkpt><trkpt lat="44.407876838514895" lon="9.417994368153515"><ele>503.49999999999994</ele><time>2026-04-19T07:04:58Z</time></trkpt><trkpt lat="44.407961356115486" lon="9.417939582715446"><ele>501.0</ele><time>2026-04-19T07:04:59Z</time></trkpt><trkpt lat="44.408016680276525" lon="9.417869208639535"><ele>498.5</ele><time>2026-04-19T07:05:00Z</time></trkpt><trkpt lat="44.40802567485833" lon="9.41774731648996"><ele>496.0</ele><time>2026-04-19T07:05:00.999Z</time></trkpt><trkpt lat="44.40802325627165" lon="9.417629430226237"><ele>493.49999999999994</ele><time>2026-04-19T07:05:01.999Z</time></trkpt><trkpt lat="44.40793993213018" lon="9.41753072074237"><ele>491.0</ele><time>2026-04-19T07:05:02.999Z</time></trkpt><trkpt lat="44.40787442379866" lon="9.417458318246245"><ele>491.0</ele><time>2026-04-19T07:05:03.999Z</time></trkpt><trkpt lat="44.407847742309556" lon="9.417372727195751"><ele>491.0</ele><time>2026-04-19T07:05:04.999Z</time></trkpt><trkpt lat="44.40787597262664" lon="9.417192829957667"><ele>491.0</ele><time>2026-04-19T07:05:06.999Z</time></trkpt><trkpt lat="44.40792276454972" lon="9.41709983031668"><ele>491.0</ele><time>2026-04-19T07:05:07.999Z</time></trkpt><trkpt lat="44.407974042724106" lon="9.41700211767729"><ele>491.0</ele><time>2026-04-19T07:05:08.999Z</time></trkpt><trkpt lat="44.408042332107314" lon="9.416920674242348"><ele>498.66666666666663</ele><time>2026-04-19T07:05:09.999Z</time></trkpt><trkpt lat="44.40811390390288" lon="9.416832489142122"><ele>506.3333333333333</ele><time>2026-04-19T07:05:10.999Z</time></trkpt><trkpt lat="44.408186772857874" lon="9.416740386915713"><ele>514.0</ele><time>2026-04-19T07:05:11.999Z</time></trkpt><trkpt lat="44.40825447781179" lon="9.416663934922406"><ele>521.6666666666666</ele><time>2026-04-19T07:05:12.999Z</time></trkpt><trkpt lat="44.408312855251616" lon="9.416572819229472"><ele>529.3333333333334</ele><time>2026-04-19T07:05:13.999Z</time></trkpt><trkpt lat="44.408369059540036" lon="9.41649938337692"><ele>537.0</ele><time>2026-04-19T07:05:14.999Z</time></trkpt><trkpt lat="44.408398257716705" lon="9.416400205484146"><ele>542.6666666666666</ele><time>2026-04-19T07:05:15.999Z</time></trkpt><trkpt lat="44.408418463001176" lon="9.416280431271467"><ele>548.3333333333333</ele><time>2026-04-19T07:05:16.999Z</time></trkpt><trkpt lat="44.40843470787433" lon="9.41616986381036"><ele>554.0</ele><time>2026-04-19T07:05:17.999Z</time></trkpt><trkpt lat="44.40812490108147" lon="9.41598591858615"><ele>546.6666666666666</ele><time>2026-04-19T07:05:19.999Z</time></trkpt><trkpt lat="44.407972184378444" lon="9.415958010011074"><ele>539.3333333333334</ele><time>2026-04-19T07:05:20.999Z</time></trkpt><trkpt lat="44.40780625176968" lon="9.415936276252582"><ele>532.0</ele><time>2026-04-19T07:05:21.999Z</time></trkpt><trkpt lat="44.40763873556649" lon="9.415928895149072"><ele>532.0</ele><time>2026-04-19T07:05:22.999Z</time></trkpt><trkpt lat="44.40746646695656" lon="9.415926134585417"><ele>532.0</ele><time>2026-04-19T07:05:23.999Z</time></trkpt><trkpt lat="44.4073140590753" lon="9.415912602139263"><ele>532.0</ele><time>2026-04-19T07:05:24.999Z</time></trkpt><trkpt lat="44.407191984081145" lon="9.415880835782726"><ele>532.0</ele><time>2026-04-19T07:05:25.999Z</time></trkpt><trkpt lat="44.407113941600585" lon="9.415799876726428"><ele>537.0</ele><time>2026-04-19T07:05:26.999Z</time></trkpt><trkpt lat="44.40708020163259" lon="9.415671480122525"><ele>542.0</ele><time>2026-04-19T07:05:27.999Z</time></trkpt><trkpt lat="44.407080425576126" lon="9.415503126121097"><ele>547.0</ele><time>2026-04-19T07:05:28.999Z</time></trkpt><trkpt lat="44.40714410575259" lon="9.415353352062493"><ele>552.0</ele><time>2026-04-19T07:05:29.999Z</time></trkpt><trkpt lat="44.40723136963155" lon="9.415224475927632"><ele>552.0</ele><time>2026-04-19T07:05:30.999Z</time></trkpt><trkpt lat="44.40729062682676" lon="9.415056160942886"><ele>552.0</ele><time>2026-04-19T07:05:31.999Z</time></trkpt><trkpt lat="44.40729710328475" lon="9.414856550103307"><ele>552.0</ele><time>2026-04-19T07:05:32.999Z</time></trkpt><trkpt lat="44.40727402300759" lon="9.414643583779036"><ele>552.0</ele><time>2026-04-19T07:05:33.999Z</time></trkpt><trkpt lat="44.407231103466714" lon="9.4144218931486"><ele>554.0</ele><time>2026-04-19T07:05:34.999Z</time></trkpt><trkpt lat="44.40718905791846" lon="9.414206055080358"><ele>556.0</ele><time>2026-04-19T07:05:35.999Z</time></trkpt><trkpt lat="44.40715653834734" lon="9.41397583886908"><ele>558.0</ele><time>2026-04-19T07:05:36.999Z</time></trkpt><trkpt lat="44.40714743386807" lon="9.413748072217247"><ele>555.25</ele><time>2026-04-19T07:05:37.999Z</time></trkpt><trkpt lat="44.40714798801259" lon="9.413554277908247"><ele>552.5</ele><time>2026-04-19T07:05:38.999Z</time></trkpt><trkpt lat="44.40718131105602" lon="9.413365084116373"><ele>549.75</ele><time>2026-04-19T07:05:39.999Z</time></trkpt><trkpt lat="44.40725795677141" lon="9.41318119217236"><ele>547.0</ele><time>2026-04-19T07:05:40.999Z</time></trkpt><trkpt lat="44.40734962219331" lon="9.413009168886047"><ele>542.25</ele><time>2026-04-19T07:05:41.999Z</time></trkpt><trkpt lat="44.407441508785965" lon="9.412866382860788"><ele>537.5</ele><time>2026-04-19T07:05:42.999Z</time></trkpt><trkpt lat="44.40754968137201" lon="9.41280377056701"><ele>532.75</ele><time>2026-04-19T07:05:43.999Z</time></trkpt><trkpt lat="44.407665955947465" lon="9.412815068844312"><ele>528.0</ele><time>2026-04-19T07:05:44.999Z</time></trkpt><trkpt lat="44.40777787595297" lon="9.412922880304862"><ele>532.75</ele><time>2026-04-19T07:05:45.999Z</time></trkpt><trkpt lat="44.40784921296997" lon="9.413082719414163"><ele>537.5</ele><time>2026-04-19T07:05:46.999Z</time></trkpt><trkpt lat="44.40788055561594" lon="9.41328345374082"><ele>542.25</ele><time>2026-04-19T07:05:47.999Z</time></trkpt><trkpt lat="44.40790736803888" lon="9.413456201434077"><ele>547.0</ele><time>2026-04-19T07:05:48.999Z</time></trkpt><trkpt lat="44.40801056844851" lon="9.413563501764672"><ele>548.6666666666667</ele><time>2026-04-19T07:05:49.999Z</time></trkpt><trkpt lat="44.40815552255096" lon="9.413600170877446"><ele>550.3333333333334</ele><time>2026-04-19T07:05:50.999Z</time></trkpt><trkpt lat="44.40832088189982" lon="9.413562645073094"><ele>552.0</ele><time>2026-04-19T07:05:51.999Z</time></trkpt><trkpt lat="44.40848221007386" lon="9.413577765344524"><ele>552.0</ele><time>2026-04-19T07:05:52.999Z</time></trkpt><trkpt lat="44.408645718772426" lon="9.413648921132912"><ele>552.0</ele><time>2026-04-19T07:05:53.999Z</time></trkpt><trkpt lat="44.408805227665354" lon="9.413730946983522"><ele>552.0</ele><time>2026-04-19T07:05:54.999Z</time></trkpt><trkpt lat="44.40896370363084" lon="9.413811807027837"><ele>548.3333333333334</ele><time>2026-04-19T07:05:55.999Z</time></trkpt><trkpt lat="44.409134978056734" lon="9.413878309859557"><ele>544.6666666666667</ele><time>2026-04-19T07:05:56.999Z</time></trkpt><trkpt lat="44.40931238017301" lon="9.413864218934279"><ele>541.0</ele><time>2026-04-19T07:05:57.998Z</time></trkpt><trkpt lat="44.40949456486563" lon="9.413820100993433"><ele>541.6666666666667</ele><time>2026-04-19T07:05:58.998Z</time></trkpt><trkpt lat="44.40967039407716" lon="9.413779324438668"><ele>542.3333333333334</ele><time>2026-04-19T07:05:59.998Z</time></trkpt><trkpt lat="44.409824842780615" lon="9.413760792586679"><ele>543.0</ele><time>2026-04-19T07:06:00.998Z</time></trkpt><trkpt lat="44.40995367080493" lon="9.413802623192094"><ele>549.75</ele><time>2026-04-19T07:06:01.998Z</time></trkpt><trkpt lat="44.41007167321703" lon="9.413911116753056"><ele>556.5</ele><time>2026-04-19T07:06:02.998Z</time></trkpt><trkpt lat="44.41015134288971" lon="9.414072726490422"><ele>563.25</ele><time>2026-04-19T07:06:03.998Z</time></trkpt><trkpt lat="44.41021277006149" lon="9.414230755082121"><ele>570.0</ele><time>2026-04-19T07:06:04.998Z</time></trkpt><trkpt lat="44.41032950898049" lon="9.41433695154292"><ele>570.0</ele><time>2026-04-19T07:06:05.998Z</time></trkpt><trkpt lat="44.41047971191746" lon="9.41437246789123"><ele>570.0</ele><time>2026-04-19T07:06:06.998Z</time></trkpt><trkpt lat="44.410647649667354" lon="9.414301655821198"><ele>570.0</ele><time>2026-04-19T07:06:07.998Z</time></trkpt><trkpt lat="44.410808730356266" lon="9.4142265321895"><ele>570.6666666666666</ele><time>2026-04-19T07:06:08.998Z</time></trkpt><trkpt lat="44.410972826891815" lon="9.41418258369317"><ele>571.3333333333333</ele><time>2026-04-19T07:06:09.998Z</time></trkpt><trkpt lat="44.411128585218414" lon="9.4141902029686"><ele>572.0</ele><time>2026-04-19T07:06:10.998Z</time></trkpt><trkpt lat="44.41126893879807" lon="9.414153216603925"><ele>578.0</ele><time>2026-04-19T07:06:11.998Z</time></trkpt><trkpt lat="44.41139131024965" lon="9.41402170885246"><ele>584.0</ele><time>2026-04-19T07:06:12.998Z</time></trkpt><trkpt lat="44.4115190541531" lon="9.413906811874845"><ele>590.0</ele><time>2026-04-19T07:06:13.998Z</time></trkpt><trkpt lat="44.41167070611078" lon="9.413888227128329"><ele>590.0</ele><time>2026-04-19T07:06:14.998Z</time></trkpt><trkpt lat="44.41180892565304" lon="9.41388546904733"><ele>590.0</ele><time>2026-04-19T07:06:15.998Z</time></trkpt><trkpt lat="44.41192137439781" lon="9.413777509871329"><ele>590.0</ele><time>2026-04-19T07:06:16.998Z</time></trkpt><trkpt lat="44.41200331412051" lon="9.413612272701771"><ele>590.0</ele><time>2026-04-19T07:06:17.998Z</time></trkpt><trkpt lat="44.41206314637845" lon="9.41341269737416"><ele>590.0</ele><time>2026-04-19T07:06:18.998Z</time></trkpt><trkpt lat="44.412138088386904" lon="9.413254952195294"><ele>590.0</ele><time>2026-04-19T07:06:19.998Z</time></trkpt><trkpt lat="44.41225493304015" lon="9.413163520147867"><ele>590.0</ele><time>2026-04-19T07:06:20.998Z</time></trkpt><trkpt lat="44.4123916582787" lon="9.413139881598607"><ele>590.0</ele><time>2026-04-19T07:06:21.998Z</time></trkpt><trkpt lat="44.41253187224208" lon="9.413189338301288"><ele>590.0</ele><time>2026-04-19T07:06:22.998Z</time></trkpt><trkpt lat="44.41265215798348" lon="9.413267900139743"><ele>590.0</ele><time>2026-04-19T07:06:23.998Z</time></trkpt><trkpt lat="44.4127662172557" lon="9.413239848466555"><ele>590.0</ele><time>2026-04-19T07:06:24.998Z</time></trkpt><trkpt lat="44.41285830398758" lon="9.413091087859689"><ele>590.0</ele><time>2026-04-19T07:06:25.998Z</time></trkpt><trkpt lat="44.412892607592724" lon="9.412884122585055"><ele>593.0</ele><time>2026-04-19T07:06:26.998Z</time></trkpt><trkpt lat="44.41288359566578" lon="9.412664181905917"><ele>596.0</ele><time>2026-04-19T07:06:27.998Z</time></trkpt><trkpt lat="44.41288931267974" lon="9.41247710335539"><ele>599.0</ele><time>2026-04-19T07:06:28.998Z</time></trkpt><trkpt lat="44.41294829120293" lon="9.412334606404315"><ele>602.0</ele><time>2026-04-19T07:06:29.998Z</time></trkpt><trkpt lat="44.41305297583973" lon="9.412293615818793"><ele>602.0</ele><time>2026-04-19T07:06:30.998Z</time></trkpt><trkpt lat="44.413177558988764" lon="9.412294488057775"><ele>602.0</ele><time>2026-04-19T07:06:31.998Z</time></trkpt><trkpt lat="44.41330747819395" lon="9.412322742004097"><ele>602.0</ele><time>2026-04-19T07:06:32.998Z</time></trkpt><trkpt lat="44.41342914927512" lon="9.412257925088563"><ele>602.0</ele><time>2026-04-19T07:06:33.998Z</time></trkpt><trkpt lat="44.413569147330286" lon="9.412140206945367"><ele>595.5</ele><time>2026-04-19T07:06:34.998Z</time></trkpt><trkpt lat="44.41367248315429" lon="9.411978493094367"><ele>589.0</ele><time>2026-04-19T07:06:35.998Z</time></trkpt><trkpt lat="44.413765777598414" lon="9.411860549514364"><ele>582.5</ele><time>2026-04-19T07:06:36.998Z</time></trkpt><trkpt lat="44.4137843767632" lon="9.411683345766614"><ele>576.0</ele><time>2026-04-19T07:06:37.998Z</time></trkpt><trkpt lat="44.413809756590126" lon="9.411509613513067"><ele>576.0</ele><time>2026-04-19T07:06:38.998Z</time></trkpt><trkpt lat="44.41378260668823" lon="9.411358046347063"><ele>576.0</ele><time>2026-04-19T07:06:40Z</time></trkpt><trkpt lat="44.4138296528805" lon="9.411187031500177"><ele>576.0</ele><time>2026-04-19T07:06:41Z</time></trkpt><trkpt lat="44.413886515480044" lon="9.411014982387506"><ele>576.0</ele><time>2026-04-19T07:06:42Z</time></trkpt><trkpt lat="44.41385187336984" lon="9.410844823774658"><ele>577.5</ele><time>2026-04-19T07:06:43Z</time></trkpt><trkpt lat="44.413777933621446" lon="9.410718080679858"><ele>579.0</ele><time>2026-04-19T07:06:44Z</time></trkpt><trkpt lat="44.413650843969215" lon="9.41061752811278"><ele>580.5</ele><time>2026-04-19T07:06:45Z</time></trkpt><trkpt lat="44.41352509010137" lon="9.410496362202963"><ele>582.0</ele><time>2026-04-19T07:06:46Z</time></trkpt><trkpt lat="44.41342929974393" lon="9.410313220297326"><ele>583.5</ele><time>2026-04-19T07:06:47Z</time></trkpt><trkpt lat="44.41339094535778" lon="9.410153811626953"><ele>585.0</ele><time>2026-04-19T07:06:48Z</time></trkpt><trkpt lat="44.41339811220532" lon="9.409986150089063"><ele>586.5</ele><time>2026-04-19T07:06:49Z</time></trkpt><trkpt lat="44.41351648795185" lon="9.4099690558571"><ele>588.0</ele><time>2026-04-19T07:06:50Z</time></trkpt><trkpt lat="44.413606229337766" lon="9.409868569044175"><ele>588.0</ele><time>2026-04-19T07:06:51Z</time></trkpt><trkpt lat="44.41370221248277" lon="9.409755371382877"><ele>588.0</ele><time>2026-04-19T07:06:52Z</time></trkpt><trkpt lat="44.41380639692957" lon="9.409582775030602"><ele>588.0</ele><time>2026-04-19T07:06:53Z</time></trkpt><trkpt lat="44.41389127300773" lon="9.409422301399125"><ele>588.0</ele><time>2026-04-19T07:06:54Z</time></trkpt><trkpt lat="44.41395397887782" lon="9.409243687736648"><ele>594.25</ele><time>2026-04-19T07:06:55Z</time></trkpt><trkpt lat="44.41398075273088" lon="9.409031244262449"><ele>600.5</ele><time>2026-04-19T07:06:56Z</time></trkpt><trkpt lat="44.41399383469715" lon="9.408811469272335"><ele>606.75</ele><time>2026-04-19T07:06:57Z</time></trkpt><trkpt lat="44.41401614735466" lon="9.40862129819227"><ele>613.0</ele><time>2026-04-19T07:06:58Z</time></trkpt><trkpt lat="44.414032351530096" lon="9.408444375235737"><ele>613.0</ele><time>2026-04-19T07:06:59Z</time></trkpt><trkpt lat="44.414050419819546" lon="9.408306129966487"><ele>613.0</ele><time>2026-04-19T07:07:00Z</time></trkpt><trkpt lat="44.41407083861074" lon="9.408172943554709"><ele>613.0</ele><time>2026-04-19T07:07:01Z</time></trkpt><trkpt lat="44.414112425285346" lon="9.408077347262488"><ele>613.0</ele><time>2026-04-19T07:07:02Z</time></trkpt><trkpt lat="44.414200179731395" lon="9.408121651809992"><ele>613.0</ele><time>2026-04-19T07:07:03Z</time></trkpt><trkpt lat="44.4142905777908" lon="9.408173787756493"><ele>613.0</ele><time>2026-04-19T07:07:03.999Z</time></trkpt><trkpt lat="44.414402626637255" lon="9.408229695740504"><ele>613.0</ele><time>2026-04-19T07:07:04.999Z</time></trkpt><trkpt lat="44.414544230241376" lon="9.408285007950866"><ele>613.0</ele><time>2026-04-19T07:07:05.999Z</time></trkpt><trkpt lat="44.414690803194205" lon="9.408311553161617"><ele>613.0</ele><time>2026-04-19T07:07:06.999Z</time></trkpt><trkpt lat="44.4148479015542" lon="9.408333237434736"><ele>617.6666666666667</ele><time>2026-04-19T07:07:07.999Z</time></trkpt><trkpt lat="44.41499871040677" lon="9.408305781028831"><ele>622.3333333333334</ele><time>2026-04-19T07:07:08.999Z</time></trkpt><trkpt lat="44.41513280465598" lon="9.408239500039832"><ele>627.0</ele><time>2026-04-19T07:07:09.999Z</time></trkpt><trkpt lat="44.41525307745764" lon="9.408081617808554"><ele>620.5</ele><time>2026-04-19T07:07:10.999Z</time></trkpt><trkpt lat="44.41534036920797" lon="9.407944057173378"><ele>614.0</ele><time>2026-04-19T07:07:11.999Z</time></trkpt><trkpt lat="44.41544087707912" lon="9.407826076060983"><ele>607.5</ele><time>2026-04-19T07:07:12.999Z</time></trkpt><trkpt lat="44.41552575929638" lon="9.407747086521988"><ele>601.0</ele><time>2026-04-19T07:07:13.999Z</time></trkpt><trkpt lat="44.41561856319618" lon="9.407735430066165"><ele>601.0</ele><time>2026-04-19T07:07:14.999Z</time></trkpt><trkpt lat="44.415694840511435" lon="9.407808842420629"><ele>601.0</ele><time>2026-04-19T07:07:15.999Z</time></trkpt><trkpt lat="44.41571843922047" lon="9.407960612593948"><ele>601.0</ele><time>2026-04-19T07:07:16.999Z</time></trkpt><trkpt lat="44.41568132211183" lon="9.408112527093696"><ele>601.0</ele><time>2026-04-19T07:07:17.999Z</time></trkpt><trkpt lat="44.415566758963145" lon="9.408183886544746"><ele>601.0</ele><time>2026-04-19T07:07:18.999Z</time></trkpt><trkpt lat="44.4154477347696" lon="9.408175742028291"><ele>607.5</ele><time>2026-04-19T07:07:19.999Z</time></trkpt><trkpt lat="44.415329471434895" lon="9.408206356887638"><ele>614.0</ele><time>2026-04-19T07:07:20.999Z</time></trkpt><trkpt lat="44.415231194339526" lon="9.408281639382858"><ele>620.5</ele><time>2026-04-19T07:07:21.999Z</time></trkpt><trkpt lat="44.41511380047907" lon="9.408406051644178"><ele>627.0</ele><time>2026-04-19T07:07:22.999Z</time></trkpt><trkpt lat="44.41498986474823" lon="9.40852670135517"><ele>627.0</ele><time>2026-04-19T07:07:23.999Z</time></trkpt><trkpt lat="44.414848984318446" lon="9.408622751926368"><ele>627.0</ele><time>2026-04-19T07:07:24.999Z</time></trkpt><trkpt lat="44.41466307531828" lon="9.408634793450222"><ele>627.0</ele><time>2026-04-19T07:07:25.999Z</time></trkpt><trkpt lat="44.41449725833459" lon="9.408642998311414"><ele>627.5</ele><time>2026-04-19T07:07:26.999Z</time></trkpt><trkpt lat="44.41439815948396" lon="9.408664185732507"><ele>628.0</ele><time>2026-04-19T07:07:27.999Z</time></trkpt><trkpt lat="44.414298100047866" lon="9.408752079323131"><ele>628.5</ele><time>2026-04-19T07:07:28.999Z</time></trkpt><trkpt lat="44.414244239289545" lon="9.408902109521199"><ele>629.0</ele><time>2026-04-19T07:07:29.999Z</time></trkpt><trkpt lat="44.41420191245442" lon="9.409099804377492"><ele>629.0</ele><time>2026-04-19T07:07:30.999Z</time></trkpt><trkpt lat="44.41417011421399" lon="9.409293589542665"><ele>629.0</ele><time>2026-04-19T07:07:31.999Z</time></trkpt><trkpt lat="44.41412492981874" lon="9.409497838344013"><ele>629.0</ele><time>2026-04-19T07:07:32.999Z</time></trkpt><trkpt lat="44.414071106061826" lon="9.409681508818617"><ele>629.0</ele><time>2026-04-19T07:07:33.999Z</time></trkpt><trkpt lat="44.4140332116359" lon="9.409863805103308"><ele>631.0</ele><time>2026-04-19T07:07:34.999Z</time></trkpt><trkpt lat="44.4140046218886" lon="9.410028601812199"><ele>633.0</ele><time>2026-04-19T07:07:35.999Z</time></trkpt><trkpt lat="44.414032586947265" lon="9.41018174861608"><ele>635.0</ele><time>2026-04-19T07:07:36.999Z</time></trkpt><trkpt lat="44.4141184084023" lon="9.410299932915795"><ele>637.0</ele><time>2026-04-19T07:07:37.999Z</time></trkpt><trkpt lat="44.41424213084824" lon="9.410390687406169"><ele>636.5</ele><time>2026-04-19T07:07:38.999Z</time></trkpt><trkpt lat="44.414318497086875" lon="9.410510090438967"><ele>636.0</ele><time>2026-04-19T07:07:39.999Z</time></trkpt><trkpt lat="44.41439320418469" lon="9.410693658853049"><ele>635.5</ele><time>2026-04-19T07:07:40.999Z</time></trkpt><trkpt lat="44.41441889149802" lon="9.410923316465475"><ele>635.0</ele><time>2026-04-19T07:07:41.999Z</time></trkpt><trkpt lat="44.41446130921624" lon="9.41113831165011"><ele>632.0</ele><time>2026-04-19T07:07:42.999Z</time></trkpt><trkpt lat="44.41447066460546" lon="9.41134048900801"><ele>629.0</ele><time>2026-04-19T07:07:43.999Z</time></trkpt><trkpt lat="44.41445449016596" lon="9.411549603823069"><ele>626.0</ele><time>2026-04-19T07:07:44.999Z</time></trkpt><trkpt lat="44.414472747488524" lon="9.411833192899747"><ele>626.0</ele><time>2026-04-19T07:07:45.999Z</time></trkpt><trkpt lat="44.41444817648674" lon="9.412074766788464"><ele>626.0</ele><time>2026-04-19T07:07:46.999Z</time></trkpt><trkpt lat="44.41440512766783" lon="9.4122821938478"><ele>626.0</ele><time>2026-04-19T07:07:47.999Z</time></trkpt><trkpt lat="44.41433194683679" lon="9.412478782493546"><ele>632.6666666666666</ele><time>2026-04-19T07:07:48.999Z</time></trkpt><trkpt lat="44.414239293036815" lon="9.412675495956092"><ele>639.3333333333334</ele><time>2026-04-19T07:07:49.999Z</time></trkpt><trkpt lat="44.41412560619306" lon="9.412874369492522"><ele>646.0</ele><time>2026-04-19T07:07:50.999Z</time></trkpt><trkpt lat="44.414021719747566" lon="9.413053609946536"><ele>640.3333333333334</ele><time>2026-04-19T07:07:51.999Z</time></trkpt><trkpt lat="44.41391400494511" lon="9.41326982100368"><ele>634.6666666666666</ele><time>2026-04-19T07:07:52.999Z</time></trkpt><trkpt lat="44.413798548226126" lon="9.413438460867058"><ele>629.0</ele><time>2026-04-19T07:07:53.999Z</time></trkpt><trkpt lat="44.41371700295789" lon="9.413613308983466"><ele>638.3333333333333</ele><time>2026-04-19T07:07:54.999Z</time></trkpt><trkpt lat="44.41366940330603" lon="9.413838960469995"><ele>647.6666666666666</ele><time>2026-04-19T07:07:55.999Z</time></trkpt><trkpt lat="44.41360829521053" lon="9.414064470774264"><ele>657.0</ele><time>2026-04-19T07:07:56.999Z</time></trkpt><trkpt lat="44.41352214071127" lon="9.414277558565008"><ele>657.0</ele><time>2026-04-19T07:07:57.999Z</time></trkpt><trkpt lat="44.41342710924782" lon="9.414470225785857"><ele>657.0</ele><time>2026-04-19T07:07:58.999Z</time></trkpt><trkpt lat="44.41330612876576" lon="9.41460903836195"><ele>657.0</ele><time>2026-04-19T07:07:59.999Z</time></trkpt><trkpt lat="44.41316056398773" lon="9.414703724057322"><ele>654.0</ele><time>2026-04-19T07:08:00.999Z</time></trkpt><trkpt lat="44.41303177527545" lon="9.414847108912959"><ele>651.0</ele><time>2026-04-19T07:08:01.999Z</time></trkpt><trkpt lat="44.412910649306355" lon="9.414984950184257"><ele>648.0</ele><time>2026-04-19T07:08:02.999Z</time></trkpt><trkpt lat="44.41285053649707" lon="9.415185662604529"><ele>648.0</ele><time>2026-04-19T07:08:03.999Z</time></trkpt><trkpt lat="44.41282575333901" lon="9.41541278428569"><ele>648.0</ele><time>2026-04-19T07:08:04.999Z</time></trkpt><trkpt lat="44.412795344746186" lon="9.415640543145324"><ele>648.0</ele><time>2026-04-19T07:08:05.998Z</time></trkpt><trkpt lat="44.4127355522778" lon="9.415847743679553"><ele>654.25</ele><time>2026-04-19T07:08:06.998Z</time></trkpt><trkpt lat="44.41266465699306" lon="9.416031017201378"><ele>660.5</ele><time>2026-04-19T07:08:07.998Z</time></trkpt><trkpt lat="44.4125495913595" lon="9.416152815314282"><ele>666.75</ele><time>2026-04-19T07:08:08.998Z</time></trkpt><trkpt lat="44.41240780504934" lon="9.416235502004108"><ele>673.0</ele><time>2026-04-19T07:08:09.998Z</time></trkpt><trkpt lat="44.412254061570636" lon="9.416336839731253"><ele>679.6666666666667</ele><time>2026-04-19T07:08:10.998Z</time></trkpt><trkpt lat="44.41210058713639" lon="9.41644378143105"><ele>686.3333333333334</ele><time>2026-04-19T07:08:11.998Z</time></trkpt><trkpt lat="44.41195117905747" lon="9.416566922433992"><ele>693.0</ele><time>2026-04-19T07:08:12.998Z</time></trkpt><trkpt lat="44.41179052713081" lon="9.416659770061504"><ele>693.0</ele><time>2026-04-19T07:08:13.998Z</time></trkpt><trkpt lat="44.411622405394276" lon="9.416701884201096"><ele>693.0</ele><time>2026-04-19T07:08:14.998Z</time></trkpt><trkpt lat="44.411442877106346" lon="9.41673864928587"><ele>693.0</ele><time>2026-04-19T07:08:15.998Z</time></trkpt><trkpt lat="44.41127037945784" lon="9.41677754859961"><ele>687.25</ele><time>2026-04-19T07:08:16.998Z</time></trkpt><trkpt lat="44.41112218614261" lon="9.416831088724559"><ele>681.5</ele><time>2026-04-19T07:08:17.998Z</time></trkpt><trkpt lat="44.41099339770741" lon="9.416875832116375"><ele>675.75</ele><time>2026-04-19T07:08:18.998Z</time></trkpt><trkpt lat="44.41089382328401" lon="9.416959115271183"><ele>670.0</ele><time>2026-04-19T07:08:19.998Z</time></trkpt><trkpt lat="44.410832052438515" lon="9.417088492202469"><ele>674.5</ele><time>2026-04-19T07:08:20.998Z</time></trkpt><trkpt lat="44.410821265045186" lon="9.417273172289178"><ele>679.0</ele><time>2026-04-19T07:08:21.998Z</time></trkpt><trkpt lat="44.41085402940157" lon="9.417480565222354"><ele>683.5</ele><time>2026-04-19T07:08:22.998Z</time></trkpt><trkpt lat="44.41089918252123" lon="9.417686911840129"><ele>688.0</ele><time>2026-04-19T07:08:23.998Z</time></trkpt><trkpt lat="44.410933563528715" lon="9.417902836554783"><ele>694.0</ele><time>2026-04-19T07:08:24.998Z</time></trkpt><trkpt lat="44.41093943547281" lon="9.418095509770618"><ele>700.0</ele><time>2026-04-19T07:08:25.998Z</time></trkpt><trkpt lat="44.41089165995184" lon="9.418263674921231"><ele>706.0</ele><time>2026-04-19T07:08:26.998Z</time></trkpt><trkpt lat="44.41079767389944" lon="9.418388791039714"><ele>712.0</ele><time>2026-04-19T07:08:27.998Z</time></trkpt><trkpt lat="44.41065739387287" lon="9.418446674831214"><ele>712.0</ele><time>2026-04-19T07:08:28.998Z</time></trkpt><trkpt lat="44.410528091582876" lon="9.418514669881581"><ele>712.0</ele><time>2026-04-19T07:08:29.998Z</time></trkpt><trkpt lat="44.410418601065516" lon="9.41856639764059"><ele>712.0</ele><time>2026-04-19T07:08:30.998Z</time></trkpt><trkpt lat="44.410364191630045" lon="9.418695882482295"><ele>712.0</ele><time>2026-04-19T07:08:31.998Z</time></trkpt><trkpt lat="44.41036424473459" lon="9.418900157057971"><ele>700.0</ele><time>2026-04-19T07:08:32.998Z</time></trkpt><trkpt lat="44.410394843716766" lon="9.41912106206453"><ele>688.0</ele><time>2026-04-19T07:08:33.998Z</time></trkpt><trkpt lat="44.41043948671274" lon="9.41932366253081"><ele>676.0</ele><time>2026-04-19T07:08:34.998Z</time></trkpt><trkpt lat="44.410443970739095" lon="9.4195341892746"><ele>679.3333333333334</ele><time>2026-04-19T07:08:35.998Z</time></trkpt><trkpt lat="44.41047490925925" lon="9.4197294065212"><ele>682.6666666666666</ele><time>2026-04-19T07:08:36.998Z</time></trkpt><trkpt lat="44.41044323732814" lon="9.41996389189301"><ele>686.0</ele><time>2026-04-19T07:08:37.998Z</time></trkpt><trkpt lat="44.410345233384774" lon="9.420170706274677"><ele>686.0</ele><time>2026-04-19T07:08:38.998Z</time></trkpt><trkpt lat="44.41025656020709" lon="9.420380778170697"><ele>686.0</ele><time>2026-04-19T07:08:39.998Z</time></trkpt><trkpt lat="44.41018420888755" lon="9.420565228110988"><ele>686.0</ele><time>2026-04-19T07:08:40.998Z</time></trkpt><trkpt lat="44.41015352627293" lon="9.420796992395625"><ele>690.25</ele><time>2026-04-19T07:08:41.998Z</time></trkpt><trkpt lat="44.41015590266507" lon="9.420992552733763"><ele>694.5</ele><time>2026-04-19T07:08:42.998Z</time></trkpt><trkpt lat="44.41014937277337" lon="9.421159747338175"><ele>698.75</ele><time>2026-04-19T07:08:43.998Z</time></trkpt><trkpt lat="44.410085926089295" lon="9.421303000352792"><ele>703.0</ele><time>2026-04-19T07:08:45Z</time></trkpt><trkpt lat="44.409974211532855" lon="9.421423234905811"><ele>705.0</ele><time>2026-04-19T07:08:46Z</time></trkpt><trkpt lat="44.409941703607444" lon="9.42152700063187"><ele>707.0</ele><time>2026-04-19T07:08:47Z</time></trkpt><trkpt lat="44.40995396328962" lon="9.42167141017084"><ele>709.0</ele><time>2026-04-19T07:08:48Z</time></trkpt><trkpt lat="44.41004246982985" lon="9.421809477661746"><ele>711.0</ele><time>2026-04-19T07:08:49Z</time></trkpt><trkpt lat="44.410166270157404" lon="9.421904128154418"><ele>711.0</ele><time>2026-04-19T07:08:50Z</time></trkpt><trkpt lat="44.410241757995024" lon="9.421977293724042"><ele>711.0</ele><time>2026-04-19T07:08:51Z</time></trkpt><trkpt lat="44.41021228872356" lon="9.422134489360317"><ele>711.0</ele><time>2026-04-19T07:08:52Z</time></trkpt><trkpt lat="44.41020745324209" lon="9.422291077620388"><ele>711.0</ele><time>2026-04-19T07:08:53Z</time></trkpt><trkpt lat="44.41021586928893" lon="9.422451907913414"><ele>711.0</ele><time>2026-04-19T07:08:54Z</time></trkpt><trkpt lat="44.41027647914569" lon="9.42262463196475"><ele>709.5999999999999</ele><time>2026-04-19T07:08:55Z</time></trkpt><trkpt lat="44.41034312715563" lon="9.422731341581175"><ele>708.2</ele><time>2026-04-19T07:08:56Z</time></trkpt><trkpt lat="44.41043661508943" lon="9.422789392438322"><ele>706.8</ele><time>2026-04-19T07:08:57Z</time></trkpt><trkpt lat="44.41054712073207" lon="9.422835507872334"><ele>705.4000000000001</ele><time>2026-04-19T07:08:58Z</time></trkpt><trkpt lat="44.41059686327415" lon="9.422966450718123"><ele>704.0</ele><time>2026-04-19T07:08:59Z</time></trkpt><trkpt lat="44.410575529434944" lon="9.423108363054356"><ele>712.2</ele><time>2026-04-19T07:09:00Z</time></trkpt><trkpt lat="44.41054967316711" lon="9.423247704422597"><ele>720.4000000000001</ele><time>2026-04-19T07:09:01Z</time></trkpt><trkpt lat="44.410575452261284" lon="9.423385674949253"><ele>728.6</ele><time>2026-04-19T07:09:02Z</time></trkpt><trkpt lat="44.41066311663175" lon="9.423470902666178"><ele>736.8</ele><time>2026-04-19T07:09:03Z</time></trkpt><trkpt lat="44.41077701003166" lon="9.423469721462116"><ele>745.0</ele><time>2026-04-19T07:09:04Z</time></trkpt><trkpt lat="44.41087423976871" lon="9.423392037903536"><ele>745.0</ele><time>2026-04-19T07:09:05Z</time></trkpt><trkpt lat="44.410907424891754" lon="9.423236357919151"><ele>745.0</ele><time>2026-04-19T07:09:06Z</time></trkpt><trkpt lat="44.410941767682964" lon="9.423128309564436"><ele>745.0</ele><time>2026-04-19T07:09:07Z</time></trkpt><trkpt lat="44.41090663157079" lon="9.422997202923758"><ele>745.0</ele><time>2026-04-19T07:09:08Z</time></trkpt><trkpt lat="44.41083417502398" lon="9.422870126648721"><ele>745.0</ele><time>2026-04-19T07:09:09Z</time></trkpt><trkpt lat="44.41069329488326" lon="9.422700912667995"><ele>746.6666666666667</ele><time>2026-04-19T07:09:10Z</time></trkpt><trkpt lat="44.4105430143581" lon="9.42249894872766"><ele>748.3333333333334</ele><time>2026-04-19T07:09:11Z</time></trkpt><trkpt lat="44.410428485469055" lon="9.422371321689415"><ele>750.0</ele><time>2026-04-19T07:09:12Z</time></trkpt><trkpt lat="44.41035892488551" lon="9.422249973443758"><ele>740.25</ele><time>2026-04-19T07:09:13Z</time></trkpt><trkpt lat="44.41035973661789" lon="9.422104251689206"><ele>730.5</ele><time>2026-04-19T07:09:14Z</time></trkpt><trkpt lat="44.4103749992422" lon="9.421953731077698"><ele>720.75</ele><time>2026-04-19T07:09:15Z</time></trkpt><trkpt lat="44.41040792409037" lon="9.421737608089883"><ele>711.0</ele><time>2026-04-19T07:09:15.999Z</time></trkpt><trkpt lat="44.41036454945949" lon="9.421563371545695"><ele>711.0</ele><time>2026-04-19T07:09:16.999Z</time></trkpt><trkpt lat="44.41038201342391" lon="9.421431345246843"><ele>711.0</ele><time>2026-04-19T07:09:17.999Z</time></trkpt><trkpt lat="44.41044626654875" lon="9.421297192332197"><ele>711.0</ele><time>2026-04-19T07:09:18.999Z</time></trkpt><trkpt lat="44.410520739161946" lon="9.421111682858644"><ele>711.0</ele><time>2026-04-19T07:09:19.999Z</time></trkpt><trkpt lat="44.41059384912887" lon="9.420853280530357"><ele>720.3333333333334</ele><time>2026-04-19T07:09:20.999Z</time></trkpt><trkpt lat="44.41065385053601" lon="9.420625758095094"><ele>729.6666666666667</ele><time>2026-04-19T07:09:21.999Z</time></trkpt><trkpt lat="44.41071799447925" lon="9.420406850567831"><ele>739.0</ele><time>2026-04-19T07:09:22.999Z</time></trkpt><trkpt lat="44.410816195658654" lon="9.42021136257854"><ele>739.0</ele><time>2026-04-19T07:09:23.999Z</time></trkpt><trkpt lat="44.410919800040894" lon="9.42002285755949"><ele>739.0</ele><time>2026-04-19T07:09:24.999Z</time></trkpt><trkpt lat="44.41099677259721" lon="9.419830777157925"><ele>739.0</ele><time>2026-04-19T07:09:25.999Z</time></trkpt><trkpt lat="44.4110307086211" lon="9.419616983441847"><ele>735.0</ele><time>2026-04-19T07:09:26.999Z</time></trkpt><trkpt lat="44.41105131750823" lon="9.41939353071521"><ele>731.0</ele><time>2026-04-19T07:09:27.999Z</time></trkpt><trkpt lat="44.41113452823021" lon="9.419216212000661"><ele>727.0</ele><time>2026-04-19T07:09:28.999Z</time></trkpt><trkpt lat="44.411250063230085" lon="9.419067765713718"><ele>735.6666666666667</ele><time>2026-04-19T07:09:29.999Z</time></trkpt><trkpt lat="44.41137454423345" lon="9.418923631156172"><ele>744.3333333333334</ele><time>2026-04-19T07:09:30.999Z</time></trkpt><trkpt lat="44.411513437297515" lon="9.418781583065796"><ele>753.0</ele><time>2026-04-19T07:09:31.999Z</time></trkpt><trkpt lat="44.411601601570744" lon="9.41857155120713"><ele>753.0</ele><time>2026-04-19T07:09:32.999Z</time></trkpt><trkpt lat="44.41165091986114" lon="9.418337287203151"><ele>753.0</ele><time>2026-04-19T07:09:33.999Z</time></trkpt><trkpt lat="44.41175782210663" lon="9.418158422262575"><ele>753.0</ele><time>2026-04-19T07:09:34.999Z</time></trkpt><trkpt lat="44.41185154892754" lon="9.418066004537323"><ele>753.0</ele><time>2026-04-19T07:09:35.999Z</time></trkpt><trkpt lat="44.411970011566595" lon="9.418066734395369"><ele>753.0</ele><time>2026-04-19T07:09:36.999Z</time></trkpt><trkpt lat="44.41213694895492" lon="9.418022100229763"><ele>753.0</ele><time>2026-04-19T07:09:37.999Z</time></trkpt><trkpt lat="44.41231067765348" lon="9.417973683672322"><ele>749.25</ele><time>2026-04-19T07:09:38.999Z</time></trkpt><trkpt lat="44.41247343931165" lon="9.417927114204641"><ele>745.5</ele><time>2026-04-19T07:09:39.999Z</time></trkpt><trkpt lat="44.41262072794912" lon="9.417884971897436"><ele>741.75</ele><time>2026-04-19T07:09:40.999Z</time></trkpt><trkpt lat="44.41274717005784" lon="9.41785763467291"><ele>738.0</ele><time>2026-04-19T07:09:41.999Z</time></trkpt><trkpt lat="44.41286196699322" lon="9.41786850901395"><ele>738.0</ele><time>2026-04-19T07:09:42.999Z</time></trkpt><trkpt lat="44.4129450296979" lon="9.417941196777743"><ele>738.0</ele><time>2026-04-19T07:09:43.999Z</time></trkpt><trkpt lat="44.41294924942406" lon="9.418092486154404"><ele>738.0</ele><time>2026-04-19T07:09:44.999Z</time></trkpt><trkpt lat="44.4129185202316" lon="9.418218534306108"><ele>738.0</ele><time>2026-04-19T07:09:45.999Z</time></trkpt><trkpt lat="44.412855051380774" lon="9.41830781900858"><ele>738.0</ele><time>2026-04-19T07:09:46.999Z</time></trkpt><trkpt lat="44.41266593529596" lon="9.418319994268098"><ele>744.75</ele><time>2026-04-19T07:09:48.999Z</time></trkpt><trkpt lat="44.41260742970677" lon="9.418157431168167"><ele>751.5</ele><time>2026-04-19T07:09:49.999Z</time></trkpt><trkpt lat="44.412493100491744" lon="9.418044677523685"><ele>758.25</ele><time>2026-04-19T07:09:50.999Z</time></trkpt><trkpt lat="44.41235720463371" lon="9.418052576887067"><ele>765.0</ele><time>2026-04-19T07:09:51.999Z</time></trkpt><trkpt lat="44.41224928523724" lon="9.418090876015285"><ele>761.0</ele><time>2026-04-19T07:09:52.999Z</time></trkpt><trkpt lat="44.41213557583402" lon="9.418146967838943"><ele>757.0</ele><time>2026-04-19T07:09:53.999Z</time></trkpt><trkpt lat="44.41201056120159" lon="9.418282839272814"><ele>753.0</ele><time>2026-04-19T07:09:54.999Z</time></trkpt><trkpt lat="44.41190372089716" lon="9.418485341214712"><ele>753.0</ele><time>2026-04-19T07:09:55.999Z</time></trkpt><trkpt lat="44.41183210450581" lon="9.418701174932893"><ele>753.0</ele><time>2026-04-19T07:09:56.999Z</time></trkpt><trkpt lat="44.41180562593006" lon="9.418921795449226"><ele>753.0</ele><time>2026-04-19T07:09:57.999Z</time></trkpt><trkpt lat="44.41178068492222" lon="9.419162499686355"><ele>759.6666666666667</ele><time>2026-04-19T07:09:58.999Z</time></trkpt><trkpt lat="44.41174601084389" lon="9.419412302079358"><ele>766.3333333333334</ele><time>2026-04-19T07:09:59.999Z</time></trkpt><trkpt lat="44.41168697651079" lon="9.419646995887772"><ele>773.0</ele><time>2026-04-19T07:10:00.999Z</time></trkpt><trkpt lat="44.41161047458725" lon="9.419860264898666"><ele>777.6666666666667</ele><time>2026-04-19T07:10:01.999Z</time></trkpt><trkpt lat="44.41152533815794" lon="9.420078430354367"><ele>782.3333333333333</ele><time>2026-04-19T07:10:02.999Z</time></trkpt><trkpt lat="44.41144291724517" lon="9.42029419558155"><ele>787.0</ele><time>2026-04-19T07:10:03.999Z</time></trkpt><trkpt lat="44.411383613618504" lon="9.420510791885215"><ele>776.0</ele><time>2026-04-19T07:10:04.999Z</time></trkpt><trkpt lat="44.41132313145469" lon="9.420724876598566"><ele>765.0</ele><time>2026-04-19T07:10:05.999Z</time></trkpt><trkpt lat="44.411291265162156" lon="9.420963657364943"><ele>754.0</ele><time>2026-04-19T07:10:06.999Z</time></trkpt><trkpt lat="44.41127283394422" lon="9.42120747388207"><ele>755.3333333333334</ele><time>2026-04-19T07:10:07.999Z</time></trkpt><trkpt lat="44.41126791886498" lon="9.421458189434688"><ele>756.6666666666666</ele><time>2026-04-19T07:10:08.999Z</time></trkpt><trkpt lat="44.41128582368186" lon="9.421688578589322"><ele>758.0</ele><time>2026-04-19T07:10:09.999Z</time></trkpt><trkpt lat="44.41132650255836" lon="9.42186624311215"><ele>768.0</ele><time>2026-04-19T07:10:10.999Z</time></trkpt><trkpt lat="44.41139514878173" lon="9.422040193843653"><ele>778.0</ele><time>2026-04-19T07:10:11.999Z</time></trkpt><trkpt lat="44.41148106152563" lon="9.422175700279679"><ele>788.0</ele><time>2026-04-19T07:10:12.998Z</time></trkpt><trkpt lat="44.41159307813924" lon="9.422295928025767"><ele>798.0</ele><time>2026-04-19T07:10:13.998Z</time></trkpt><trkpt lat="44.41162505341299" lon="9.422466087187908"><ele>798.0</ele><time>2026-04-19T07:10:14.998Z</time></trkpt><trkpt lat="44.41162264539356" lon="9.422643450926625"><ele>798.0</ele><time>2026-04-19T07:10:15.998Z</time></trkpt><trkpt lat="44.41162689135043" lon="9.422854094157975"><ele>798.0</ele><time>2026-04-19T07:10:16.998Z</time></trkpt><trkpt lat="44.411650122877695" lon="9.423071096162799"><ele>798.0</ele><time>2026-04-19T07:10:17.998Z</time></trkpt><trkpt lat="44.41174715103737" lon="9.423252132322972"><ele>798.5</ele><time>2026-04-19T07:10:18.998Z</time></trkpt><trkpt lat="44.4117925404845" lon="9.423434235963525"><ele>799.0</ele><time>2026-04-19T07:10:19.998Z</time></trkpt><trkpt lat="44.411756372637605" lon="9.423625394744661"><ele>799.5</ele><time>2026-04-19T07:10:20.998Z</time></trkpt><trkpt lat="44.41170532236354" lon="9.423816044832542"><ele>800.0</ele><time>2026-04-19T07:10:21.998Z</time></trkpt><trkpt lat="44.41165828504297" lon="9.423983213461902"><ele>804.0</ele><time>2026-04-19T07:10:22.998Z</time></trkpt><trkpt lat="44.41156005956248" lon="9.424237182942402"><ele>808.0</ele><time>2026-04-19T07:10:23.998Z</time></trkpt><trkpt lat="44.411440737405606" lon="9.424430897650415"><ele>812.0</ele><time>2026-04-19T07:10:24.998Z</time></trkpt><trkpt lat="44.41130426956766" lon="9.42459912878512"><ele>806.25</ele><time>2026-04-19T07:10:25.998Z</time></trkpt><trkpt lat="44.41119897088302" lon="9.42473585915852"><ele>800.5</ele><time>2026-04-19T07:10:26.998Z</time></trkpt><trkpt lat="44.41110255826354" lon="9.424851881305301"><ele>794.75</ele><time>2026-04-19T07:10:27.998Z</time></trkpt><trkpt lat="44.41103327568535" lon="9.424999853946128"><ele>789.0</ele><time>2026-04-19T07:10:28.998Z</time></trkpt><trkpt lat="44.41100735723648" lon="9.425203558050933"><ele>789.0</ele><time>2026-04-19T07:10:29.998Z</time></trkpt><trkpt lat="44.41101764552422" lon="9.425422056769042"><ele>789.0</ele><time>2026-04-19T07:10:30.998Z</time></trkpt><trkpt lat="44.41106486402581" lon="9.425610082608232"><ele>789.0</ele><time>2026-04-19T07:10:31.998Z</time></trkpt><trkpt lat="44.4111528078493" lon="9.425761637739232"><ele>789.0</ele><time>2026-04-19T07:10:32.998Z</time></trkpt><trkpt lat="44.411295519680166" lon="9.425863464392084"><ele>797.25</ele><time>2026-04-19T07:10:33.998Z</time></trkpt><trkpt lat="44.41145667084084" lon="9.425907603732462"><ele>805.5</ele><time>2026-04-19T07:10:34.998Z</time></trkpt><trkpt lat="44.41159410754223" lon="9.425976808849402"><ele>813.75</ele><time>2026-04-19T07:10:35.998Z</time></trkpt><trkpt lat="44.411629758274884" lon="9.426155520844288"><ele>822.0</ele><time>2026-04-19T07:10:36.998Z</time></trkpt><trkpt lat="44.41162347371267" lon="9.426349907616368"><ele>822.0</ele><time>2026-04-19T07:10:37.998Z</time></trkpt><trkpt lat="44.41158658528428" lon="9.426542064095521"><ele>822.0</ele><time>2026-04-19T07:10:38.998Z</time></trkpt><trkpt lat="44.411570010690426" lon="9.426716900573686"><ele>822.0</ele><time>2026-04-19T07:10:39.998Z</time></trkpt><trkpt lat="44.41160453872569" lon="9.426858532923388"><ele>822.0</ele><time>2026-04-19T07:10:40.998Z</time></trkpt><trkpt lat="44.4116752259361" lon="9.426940086397826"><ele>822.0</ele><time>2026-04-19T07:10:41.998Z</time></trkpt><trkpt lat="44.41174454566" lon="9.427010597751945"><ele>822.0</ele><time>2026-04-19T07:10:42.998Z</time></trkpt><trkpt lat="44.411890115602894" lon="9.426908719627864"><ele>822.0</ele><time>2026-04-19T07:10:43.998Z</time></trkpt><trkpt lat="44.41195566283512" lon="9.426772548831057"><ele>822.0</ele><time>2026-04-19T07:10:44.998Z</time></trkpt><trkpt lat="44.41193628464339" lon="9.426584594713509"><ele>822.0</ele><time>2026-04-19T07:10:45.998Z</time></trkpt><trkpt lat="44.411843330033086" lon="9.426393709468442"><ele>822.0</ele><time>2026-04-19T07:10:46.998Z</time></trkpt><trkpt lat="44.411801830095165" lon="9.426220434406648"><ele>822.0</ele><time>2026-04-19T07:10:47.998Z</time></trkpt><trkpt lat="44.4118752370316" lon="9.426048532000037"><ele>822.0</ele><time>2026-04-19T07:10:48.998Z</time></trkpt><trkpt lat="44.41190997925399" lon="9.425865304317462"><ele>823.25</ele><time>2026-04-19T07:10:49.998Z</time></trkpt><trkpt lat="44.41187897676135" lon="9.42566120838135"><ele>824.5</ele><time>2026-04-19T07:10:51Z</time></trkpt><trkpt lat="44.411770853493934" lon="9.425499105623189"><ele>825.75</ele><time>2026-04-19T07:10:52Z</time></trkpt><trkpt lat="44.41166435646475" lon="9.42537796135042"><ele>827.0</ele><time>2026-04-19T07:10:53Z</time></trkpt><trkpt lat="44.41156847613135" lon="9.425237717568566"><ele>828.0</ele><time>2026-04-19T07:10:54Z</time></trkpt><trkpt lat="44.41156432959654" lon="9.425039462378283"><ele>829.0</ele><time>2026-04-19T07:10:55Z</time></trkpt><trkpt lat="44.41161256858774" lon="9.424852355947118"><ele>830.0</ele><time>2026-04-19T07:10:56Z</time></trkpt><trkpt lat="44.41171472269025" lon="9.424720589818579"><ele>831.0</ele><time>2026-04-19T07:10:57Z</time></trkpt><trkpt lat="44.411818586111416" lon="9.424569282015058"><ele>824.6666666666667</ele><time>2026-04-19T07:10:58Z</time></trkpt><trkpt lat="44.41193716257836" lon="9.424426202258294"><ele>818.3333333333334</ele><time>2026-04-19T07:10:59Z</time></trkpt><trkpt lat="44.41204642073419" lon="9.424276759939996"><ele>812.0</ele><time>2026-04-19T07:11:00Z</time></trkpt><trkpt lat="44.41213090319671" lon="9.424100950706682"><ele>826.0</ele><time>2026-04-19T07:11:01Z</time></trkpt><trkpt lat="44.4122155059263" lon="9.423912452215188"><ele>840.0</ele><time>2026-04-19T07:11:02Z</time></trkpt><trkpt lat="44.41230165703773" lon="9.42371968707639"><ele>854.0</ele><time>2026-04-19T07:11:03Z</time></trkpt><trkpt lat="44.412368873230335" lon="9.423508082108373"><ele>854.0</ele><time>2026-04-19T07:11:04Z</time></trkpt><trkpt lat="44.41240608956587" lon="9.42328865530507"><ele>854.0</ele><time>2026-04-19T07:11:05Z</time></trkpt><trkpt lat="44.412410333853586" lon="9.423054406433064"><ele>854.0</ele><time>2026-04-19T07:11:06Z</time></trkpt><trkpt lat="44.41240246153507" lon="9.422814617434652"><ele>852.0</ele><time>2026-04-19T07:11:07Z</time></trkpt><trkpt lat="44.412396444390694" lon="9.422580447744776"><ele>850.0</ele><time>2026-04-19T07:11:08Z</time></trkpt><trkpt lat="44.41238315585606" lon="9.422375367163536"><ele>848.0</ele><time>2026-04-19T07:11:09Z</time></trkpt><trkpt lat="44.41236570905517" lon="9.422179246541447"><ele>848.0</ele><time>2026-04-19T07:11:10Z</time></trkpt><trkpt lat="44.41238512560494" lon="9.422035889510585"><ele>848.0</ele><time>2026-04-19T07:11:11Z</time></trkpt><trkpt lat="44.41243370236071" lon="9.421942136303537"><ele>848.0</ele><time>2026-04-19T07:11:12Z</time></trkpt><trkpt lat="44.41253772426003" lon="9.421994977738567"><ele>848.0</ele><time>2026-04-19T07:11:13Z</time></trkpt><trkpt lat="44.41261379756036" lon="9.4220809360452"><ele>848.0</ele><time>2026-04-19T07:11:14Z</time></trkpt><trkpt lat="44.41262957430574" lon="9.42224283175279"><ele>848.0</ele><time>2026-04-19T07:11:15Z</time></trkpt><trkpt lat="44.41249367767441" lon="9.422367369996325"><ele>848.0</ele><time>2026-04-19T07:11:16Z</time></trkpt><trkpt lat="44.41248682742149" lon="9.422477322779331"><ele>848.0</ele><time>2026-04-19T07:11:17Z</time></trkpt><trkpt lat="44.41245412618608" lon="9.42266772033131"><ele>848.0</ele><time>2026-04-19T07:11:18Z</time></trkpt><trkpt lat="44.4124927868989" lon="9.422874740400818"><ele>849.5</ele><time>2026-04-19T07:11:19Z</time></trkpt><trkpt lat="44.41252150363386" lon="9.423076603510157"><ele>851.0</ele><time>2026-04-19T07:11:20Z</time></trkpt><trkpt lat="44.41253747516697" lon="9.423271563362729"><ele>852.5</ele><time>2026-04-19T07:11:21Z</time></trkpt><trkpt lat="44.41254636727043" lon="9.423476472994164"><ele>854.0</ele><time>2026-04-19T07:11:22Z</time></trkpt><trkpt lat="44.41250774862833" lon="9.423673033495223"><ele>857.6666666666667</ele><time>2026-04-19T07:11:23Z</time></trkpt><trkpt lat="44.41244318524098" lon="9.423863376999925"><ele>861.3333333333333</ele><time>2026-04-19T07:11:24Z</time></trkpt><trkpt lat="44.41238138609159" lon="9.424059505016544"><ele>865.0</ele><time>2026-04-19T07:11:25Z</time></trkpt><trkpt lat="44.41232804405284" lon="9.42426071417064"><ele>865.0</ele><time>2026-04-19T07:11:26Z</time></trkpt><trkpt lat="44.41229435564817" lon="9.424468987147364"><ele>865.0</ele><time>2026-04-19T07:11:27Z</time></trkpt><trkpt lat="44.41229293439157" lon="9.424655342267066"><ele>865.0</ele><time>2026-04-19T07:11:28Z</time></trkpt><trkpt lat="44.412330024196784" lon="9.424816970544938"><ele>865.0</ele><time>2026-04-19T07:11:29Z</time></trkpt><trkpt lat="44.412415767882536" lon="9.424939848307384"><ele>864.5</ele><time>2026-04-19T07:11:30Z</time></trkpt><trkpt lat="44.412553997046565" lon="9.425008471119751"><ele>864.0</ele><time>2026-04-19T07:11:30.999Z</time></trkpt><trkpt lat="44.41268737432366" lon="9.425091181643095"><ele>863.5</ele><time>2026-04-19T07:11:31.999Z</time></trkpt><trkpt lat="44.412805206555994" lon="9.425180515375018"><ele>863.0</ele><time>2026-04-19T07:11:32.999Z</time></trkpt><trkpt lat="44.41289742796615" lon="9.425273264192604"><ele>863.0</ele><time>2026-04-19T07:11:33.999Z</time></trkpt><trkpt lat="44.412956077803095" lon="9.425379505927985"><ele>863.0</ele><time>2026-04-19T07:11:34.999Z</time></trkpt><trkpt lat="44.41290578893648" lon="9.425543649333592"><ele>863.0</ele><time>2026-04-19T07:11:35.999Z</time></trkpt><trkpt lat="44.41285840795609" lon="9.425713502802449"><ele>863.0</ele><time>2026-04-19T07:11:36.999Z</time></trkpt><trkpt lat="44.41278514426618" lon="9.425883054040964"><ele>863.0</ele><time>2026-04-19T07:11:37.999Z</time></trkpt><trkpt lat="44.41273336464105" lon="9.42607961683595"><ele>863.0</ele><time>2026-04-19T07:11:38.999Z</time></trkpt><trkpt lat="44.41270380036102" lon="9.426293174907677"><ele>863.0</ele><time>2026-04-19T07:11:39.999Z</time></trkpt><trkpt lat="44.412695970678456" lon="9.426512026772974"><ele>863.0</ele><time>2026-04-19T07:11:40.999Z</time></trkpt><trkpt lat="44.41271826813581" lon="9.42674194029082"><ele>863.0</ele><time>2026-04-19T07:11:41.999Z</time></trkpt><trkpt lat="44.41276485068172" lon="9.42697456985197"><ele>863.0</ele><time>2026-04-19T07:11:42.999Z</time></trkpt><trkpt lat="44.41283130383556" lon="9.427203430597617"><ele>862.5</ele><time>2026-04-19T07:11:43.999Z</time></trkpt><trkpt lat="44.412910512026095" lon="9.42739690263912"><ele>862.0</ele><time>2026-04-19T07:11:44.999Z</time></trkpt><trkpt lat="44.41296467944805" lon="9.427564996237924"><ele>861.5</ele><time>2026-04-19T07:11:45.999Z</time></trkpt><trkpt lat="44.41294144409021" lon="9.427758501757577"><ele>861.0</ele><time>2026-04-19T07:11:46.999Z</time></trkpt><trkpt lat="44.41290049895143" lon="9.427957392075296"><ele>860.6666666666667</ele><time>2026-04-19T07:11:47.999Z</time></trkpt><trkpt lat="44.41289184844926" lon="9.42814623429876"><ele>860.3333333333334</ele><time>2026-04-19T07:11:48.999Z</time></trkpt><trkpt lat="44.41297393906106" lon="9.428331335752727"><ele>860.0</ele><time>2026-04-19T07:11:49.999Z</time></trkpt><trkpt lat="44.413067012235146" lon="9.428522839061985"><ele>874.0</ele><time>2026-04-19T07:11:50.999Z</time></trkpt><trkpt lat="44.41313786776135" lon="9.428723860601627"><ele>888.0</ele><time>2026-04-19T07:11:51.999Z</time></trkpt><trkpt lat="44.413097735296304" lon="9.428954548645152"><ele>902.0</ele><time>2026-04-19T07:11:52.999Z</time></trkpt><trkpt lat="44.413059895804345" lon="9.429199059315103"><ele>904.6666666666667</ele><time>2026-04-19T07:11:53.999Z</time></trkpt><trkpt lat="44.41299119038757" lon="9.429414503899153"><ele>907.3333333333333</ele><time>2026-04-19T07:11:54.999Z</time></trkpt><trkpt lat="44.41293778938812" lon="9.429628135264984"><ele>910.0</ele><time>2026-04-19T07:11:55.999Z</time></trkpt><trkpt lat="44.412898611646135" lon="9.429833475982468"><ele>912.25</ele><time>2026-04-19T07:11:56.999Z</time></trkpt><trkpt lat="44.41287592517516" lon="9.430009528521802"><ele>914.5</ele><time>2026-04-19T07:11:57.999Z</time></trkpt><trkpt lat="44.412887168945105" lon="9.430170898998371"><ele>916.75</ele><time>2026-04-19T07:11:58.999Z</time></trkpt><trkpt lat="44.412970599648084" lon="9.43031075407342"><ele>919.0</ele><time>2026-04-19T07:11:59.999Z</time></trkpt><trkpt lat="44.413092780620644" lon="9.430432570793652"><ele>918.5</ele><time>2026-04-19T07:12:00.999Z</time></trkpt><trkpt lat="44.41315884321795" lon="9.430602636350159"><ele>918.0</ele><time>2026-04-19T07:12:01.999Z</time></trkpt><trkpt lat="44.41320380161378" lon="9.43080438398764"><ele>917.5</ele><time>2026-04-19T07:12:02.999Z</time></trkpt><trkpt lat="44.4132340010501" lon="9.431011422243477"><ele>917.0</ele><time>2026-04-19T07:12:03.999Z</time></trkpt><trkpt lat="44.413145887798954" lon="9.431166991148638"><ele>922.0</ele><time>2026-04-19T07:12:04.999Z</time></trkpt><trkpt lat="44.41304731491847" lon="9.431332132915838"><ele>927.0</ele><time>2026-04-19T07:12:05.999Z</time></trkpt><trkpt lat="44.41296141626356" lon="9.431512376803942"><ele>932.0</ele><time>2026-04-19T07:12:06.999Z</time></trkpt><trkpt lat="44.412886419489325" lon="9.431715039917485"><ele>917.3333333333334</ele><time>2026-04-19T07:12:07.999Z</time></trkpt><trkpt lat="44.41284175258804" lon="9.431962237680146"><ele>902.6666666666667</ele><time>2026-04-19T07:12:08.999Z</time></trkpt><trkpt lat="44.412796185950995" lon="9.432201710309547"><ele>888.0</ele><time>2026-04-19T07:12:09.999Z</time></trkpt><trkpt lat="44.41273749455271" lon="9.432432387626159"><ele>888.0</ele><time>2026-04-19T07:12:10.999Z</time></trkpt><trkpt lat="44.412661464370906" lon="9.432662725229351"><ele>888.0</ele><time>2026-04-19T07:12:11.999Z</time></trkpt><trkpt lat="44.41259802284628" lon="9.432873282292958"><ele>888.0</ele><time>2026-04-19T07:12:12.999Z</time></trkpt><trkpt lat="44.41258926202584" lon="9.433074008900627"><ele>893.25</ele><time>2026-04-19T07:12:13.999Z</time></trkpt><trkpt lat="44.4126259396272" lon="9.433266753009388"><ele>898.5</ele><time>2026-04-19T07:12:14.999Z</time></trkpt><trkpt lat="44.41262459780306" lon="9.433455097803401"><ele>903.75</ele><time>2026-04-19T07:12:15.999Z</time></trkpt><trkpt lat="44.41251905535055" lon="9.433615195825215"><ele>909.0</ele><time>2026-04-19T07:12:16.999Z</time></trkpt><trkpt lat="44.41242855841682" lon="9.433807254678767"><ele>914.3333333333333</ele><time>2026-04-19T07:12:17.999Z</time></trkpt><trkpt lat="44.41233192289762" lon="9.433997800617108"><ele>919.6666666666666</ele><time>2026-04-19T07:12:18.999Z</time></trkpt><trkpt lat="44.41226399808014" lon="9.434207768753192"><ele>925.0</ele><time>2026-04-19T07:12:19.999Z</time></trkpt><trkpt lat="44.41223456438381" lon="9.43443804419887"><ele>928.3333333333333</ele><time>2026-04-19T07:12:20.999Z</time></trkpt><trkpt lat="44.412198312876974" lon="9.434677228313424"><ele>931.6666666666667</ele><time>2026-04-19T07:12:21.999Z</time></trkpt><trkpt lat="44.41214968403158" lon="9.434914141784482"><ele>935.0</ele><time>2026-04-19T07:12:22.999Z</time></trkpt><trkpt lat="44.412089349748314" lon="9.435148745098422"><ele>920.3333333333334</ele><time>2026-04-19T07:12:23.999Z</time></trkpt><trkpt lat="44.41202299169838" lon="9.435382547288283"><ele>905.6666666666667</ele><time>2026-04-19T07:12:24.999Z</time></trkpt><trkpt lat="44.41197420345154" lon="9.435598898342345"><ele>891.0</ele><time>2026-04-19T07:12:25.999Z</time></trkpt><trkpt lat="44.4119481087571" lon="9.43580583655358"><ele>891.0</ele><time>2026-04-19T07:12:26.999Z</time></trkpt><trkpt lat="44.411958660277946" lon="9.435994645425277"><ele>891.0</ele><time>2026-04-19T07:12:27.998Z</time></trkpt><trkpt lat="44.41201668621323" lon="9.436161750258393"><ele>891.0</ele><time>2026-04-19T07:12:28.998Z</time></trkpt><trkpt lat="44.41212672913851" lon="9.436304497915458"><ele>891.0</ele><time>2026-04-19T07:12:29.998Z</time></trkpt><trkpt lat="44.41225654581295" lon="9.436435570303965"><ele>904.0</ele><time>2026-04-19T07:12:30.998Z</time></trkpt><trkpt lat="44.41237855153154" lon="9.4365829593273"><ele>917.0</ele><time>2026-04-19T07:12:31.998Z</time></trkpt><trkpt lat="44.41250211254154" lon="9.436749542361468"><ele>930.0</ele><time>2026-04-19T07:12:32.998Z</time></trkpt><trkpt lat="44.412608044573375" lon="9.436902477487164"><ele>930.0</ele><time>2026-04-19T07:12:33.998Z</time></trkpt><trkpt lat="44.412728257103254" lon="9.437008700195182"><ele>930.0</ele><time>2026-04-19T07:12:34.998Z</time></trkpt><trkpt lat="44.41287277112139" lon="9.437015812974598"><ele>930.0</ele><time>2026-04-19T07:12:35.998Z</time></trkpt><trkpt lat="44.413035391472555" lon="9.436993447773046"><ele>930.25</ele><time>2026-04-19T07:12:36.998Z</time></trkpt><trkpt lat="44.413166380232084" lon="9.437022666467225"><ele>930.5</ele><time>2026-04-19T07:12:37.998Z</time></trkpt><trkpt lat="44.413247772905855" lon="9.437205109317143"><ele>930.75</ele><time>2026-04-19T07:12:38.998Z</time></trkpt><trkpt lat="44.41338472849737" lon="9.437327476638984"><ele>931.0</ele><time>2026-04-19T07:12:39.998Z</time></trkpt><trkpt lat="44.41352217330713" lon="9.437415104225947"><ele>931.0</ele><time>2026-04-19T07:12:40.998Z</time></trkpt><trkpt lat="44.41368089241371" lon="9.43748542996241"><ele>931.0</ele><time>2026-04-19T07:12:41.998Z</time></trkpt><trkpt lat="44.41376684831271" lon="9.437661664455044"><ele>931.0</ele><time>2026-04-19T07:12:42.998Z</time></trkpt><trkpt lat="44.413873201379154" lon="9.437829642455092"><ele>930.75</ele><time>2026-04-19T07:12:43.998Z</time></trkpt><trkpt lat="44.41398518158539" lon="9.43795120195903"><ele>930.5</ele><time>2026-04-19T07:12:44.998Z</time></trkpt><trkpt lat="44.414115308012065" lon="9.438055167566903"><ele>930.25</ele><time>2026-04-19T07:12:45.998Z</time></trkpt><trkpt lat="44.41424321586962" lon="9.438154275033497"><ele>930.0</ele><time>2026-04-19T07:12:46.998Z</time></trkpt><trkpt lat="44.414389636103124" lon="9.438190186723801"><ele>930.0</ele><time>2026-04-19T07:12:47.998Z</time></trkpt><trkpt lat="44.41455292129158" lon="9.438150590674926"><ele>930.0</ele><time>2026-04-19T07:12:48.998Z</time></trkpt><trkpt lat="44.41469432210069" lon="9.438075574912153"><ele>930.0</ele><time>2026-04-19T07:12:49.998Z</time></trkpt><trkpt lat="44.414816725849505" lon="9.43802656476501"><ele>930.0</ele><time>2026-04-19T07:12:50.998Z</time></trkpt><trkpt lat="44.41490796855963" lon="9.437978861648709"><ele>936.0</ele><time>2026-04-19T07:12:51.998Z</time></trkpt><trkpt lat="44.41498813450688" lon="9.43808943982856"><ele>942.0</ele><time>2026-04-19T07:12:52.998Z</time></trkpt><trkpt lat="44.41502089165512" lon="9.438261767929532"><ele>948.0</ele><time>2026-04-19T07:12:53.998Z</time></trkpt><trkpt lat="44.41498722258127" lon="9.438450150184934"><ele>954.0</ele><time>2026-04-19T07:12:54.998Z</time></trkpt><trkpt lat="44.41492682184336" lon="9.43863849919809"><ele>954.5</ele><time>2026-04-19T07:12:55.998Z</time></trkpt><trkpt lat="44.4148785000818" lon="9.438820153910545"><ele>955.0</ele><time>2026-04-19T07:12:57Z</time></trkpt><trkpt lat="44.41482993760054" lon="9.439013427170442"><ele>955.5</ele><time>2026-04-19T07:12:58Z</time></trkpt><trkpt lat="44.41479066983638" lon="9.439203938916949"><ele>956.0</ele><time>2026-04-19T07:12:59Z</time></trkpt><trkpt lat="44.41478051358737" lon="9.43936103291916"><ele>956.0</ele><time>2026-04-19T07:13:00Z</time></trkpt><trkpt lat="44.414835763737315" lon="9.43954287744768"><ele>956.0</ele><time>2026-04-19T07:13:01Z</time></trkpt><trkpt lat="44.41495835753966" lon="9.43969490433461"><ele>956.0</ele><time>2026-04-19T07:13:02Z</time></trkpt><trkpt lat="44.415082520905074" lon="9.439809769100911"><ele>955.25</ele><time>2026-04-19T07:13:03Z</time></trkpt><trkpt lat="44.4151459871302" lon="9.439962818672882"><ele>954.5</ele><time>2026-04-19T07:13:04Z</time></trkpt><trkpt lat="44.41510651658923" lon="9.440175100364659"><ele>953.75</ele><time>2026-04-19T07:13:05Z</time></trkpt><trkpt lat="44.41508015665949" lon="9.440373880047431"><ele>953.0</ele><time>2026-04-19T07:13:06Z</time></trkpt><trkpt lat="44.41505263322381" lon="9.44057587881198"><ele>952.75</ele><time>2026-04-19T07:13:07Z</time></trkpt><trkpt lat="44.415080423720426" lon="9.44075281227093"><ele>952.5</ele><time>2026-04-19T07:13:08Z</time></trkpt><trkpt lat="44.41515692035456" lon="9.440913271280603"><ele>952.25</ele><time>2026-04-19T07:13:09Z</time></trkpt><trkpt lat="44.41526251328169" lon="9.441055186068128"><ele>952.0</ele><time>2026-04-19T07:13:10Z</time></trkpt><trkpt lat="44.41538069523693" lon="9.441196765790076"><ele>954.25</ele><time>2026-04-19T07:13:11Z</time></trkpt><trkpt lat="44.415503887693944" lon="9.44130201624284"><ele>956.5</ele><time>2026-04-19T07:13:12Z</time></trkpt><trkpt lat="44.415663248210066" lon="9.441313025710084"><ele>958.75</ele><time>2026-04-19T07:13:13Z</time></trkpt><trkpt lat="44.41579925516664" lon="9.441305616016415"><ele>961.0</ele><time>2026-04-19T07:13:14Z</time></trkpt><trkpt lat="44.41589702672318" lon="9.441341190924467"><ele>961.0</ele><time>2026-04-19T07:13:15Z</time></trkpt><trkpt lat="44.41597551254449" lon="9.441432120432435"><ele>961.0</ele><time>2026-04-19T07:13:16Z</time></trkpt><trkpt lat="44.41599907314478" lon="9.4416143473639"><ele>961.0</ele><time>2026-04-19T07:13:17Z</time></trkpt><trkpt lat="44.41594184336874" lon="9.441760588537226"><ele>961.0</ele><time>2026-04-19T07:13:18Z</time></trkpt><trkpt lat="44.415828670303775" lon="9.4418717642514"><ele>961.0</ele><time>2026-04-19T07:13:19Z</time></trkpt><trkpt lat="44.41572672347315" lon="9.441936840243088"><ele>961.0</ele><time>2026-04-19T07:13:20Z</time></trkpt><trkpt lat="44.41561382276803" lon="9.442072898076441"><ele>961.0</ele><time>2026-04-19T07:13:21Z</time></trkpt><trkpt lat="44.415547346650854" lon="9.442241610853673"><ele>961.0</ele><time>2026-04-19T07:13:22Z</time></trkpt><trkpt lat="44.41549617311181" lon="9.442427819769035"><ele>963.0</ele><time>2026-04-19T07:13:23Z</time></trkpt><trkpt lat="44.41541593112294" lon="9.442581091338903"><ele>965.0</ele><time>2026-04-19T07:13:24Z</time></trkpt><trkpt lat="44.415305649031524" lon="9.44268635003922"><ele>967.0</ele><time>2026-04-19T07:13:25Z</time></trkpt><trkpt lat="44.415204015481855" lon="9.442761340473488"><ele>969.0</ele><time>2026-04-19T07:13:26Z</time></trkpt><trkpt lat="44.41511343883511" lon="9.442831834514948"><ele>969.0</ele><time>2026-04-19T07:13:27Z</time></trkpt><trkpt lat="44.415068300552676" lon="9.4429052095585"><ele>969.0</ele><time>2026-04-19T07:13:28Z</time></trkpt><trkpt lat="44.415047527709774" lon="9.442989533468944"><ele>969.0</ele><time>2026-04-19T07:13:29Z</time></trkpt><trkpt lat="44.415041638608436" lon="9.443106799488204"><ele>969.0</ele><time>2026-04-19T07:13:31Z</time></trkpt><trkpt lat="44.415097671166045" lon="9.443214771529016"><ele>969.0</ele><time>2026-04-19T07:14:22.999Z</time></trkpt><trkpt lat="44.41513851262141" lon="9.443290431941177"><ele>969.0</ele><time>2026-04-19T07:14:23.999Z</time></trkpt><trkpt lat="44.41519690332659" lon="9.443362669297793"><ele>967.4000000000001</ele><time>2026-04-19T07:14:24.999Z</time></trkpt><trkpt lat="44.41527756100888" lon="9.44341159919039"><ele>965.8000000000001</ele><time>2026-04-19T07:14:25.999Z</time></trkpt><trkpt lat="44.41537919935233" lon="9.443419248073784"><ele>964.1999999999999</ele><time>2026-04-19T07:14:26.999Z</time></trkpt><trkpt lat="44.4154879996844" lon="9.443409500466958"><ele>962.5999999999999</ele><time>2026-04-19T07:14:27.999Z</time></trkpt><trkpt lat="44.41558992415135" lon="9.443430325322371"><ele>961.0</ele><time>2026-04-19T07:14:28.999Z</time></trkpt><trkpt lat="44.415680348263" lon="9.443517618712661"><ele>961.0</ele><time>2026-04-19T07:14:29.999Z</time></trkpt><trkpt lat="44.41575473960907" lon="9.443671827439267"><ele>961.0</ele><time>2026-04-19T07:14:30.999Z</time></trkpt><trkpt lat="44.41583574928184" lon="9.443800447595002"><ele>961.0</ele><time>2026-04-19T07:14:31.999Z</time></trkpt><trkpt lat="44.415948579326944" lon="9.443879737715013"><ele>961.0</ele><time>2026-04-19T07:14:32.999Z</time></trkpt><trkpt lat="44.41605474752723" lon="9.443942372212323"><ele>957.5</ele><time>2026-04-19T07:14:33.999Z</time></trkpt><trkpt lat="44.41614697900082" lon="9.443988980517323"><ele>954.0</ele><time>2026-04-19T07:14:34.999Z</time></trkpt><trkpt lat="44.416253725892595" lon="9.443970639077662"><ele>950.5</ele><time>2026-04-19T07:14:35.999Z</time></trkpt><trkpt lat="44.41633707054708" lon="9.44394248551921"><ele>947.0</ele><time>2026-04-19T07:14:36.999Z</time></trkpt><trkpt lat="44.416525285022956" lon="9.443823227685197"><ele>946.6</ele><time>2026-04-19T07:14:37.998Z</time></trkpt><trkpt lat="44.41660320522065" lon="9.443762031968848"><ele>946.2</ele><time>2026-04-19T07:14:38.998Z</time></trkpt><trkpt lat="44.41671811726252" lon="9.443712727034473"><ele>945.8</ele><time>2026-04-19T07:14:39.998Z</time></trkpt><trkpt lat="44.41682120231753" lon="9.443709920779316"><ele>945.4</ele><time>2026-04-19T07:14:40.998Z</time></trkpt><trkpt lat="44.41689331783156" lon="9.443806505163655"><ele>945.0</ele><time>2026-04-19T07:14:41.998Z</time></trkpt><trkpt lat="44.41690634886636" lon="9.44398947096652"><ele>945.0</ele><time>2026-04-19T07:14:42.998Z</time></trkpt><trkpt lat="44.416897379399224" lon="9.444162782512123"><ele>945.0</ele><time>2026-04-19T07:14:43.998Z</time></trkpt><trkpt lat="44.416966764202314" lon="9.444367015291062"><ele>945.0</ele><time>2026-04-19T07:14:44.998Z</time></trkpt><trkpt lat="44.417063155802076" lon="9.444486315829067"><ele>945.0</ele><time>2026-04-19T07:14:45.998Z</time></trkpt><trkpt lat="44.417149401511494" lon="9.444650794611148"><ele>942.75</ele><time>2026-04-19T07:14:46.998Z</time></trkpt><trkpt lat="44.41714395385243" lon="9.444803418465717"><ele>940.5</ele><time>2026-04-19T07:14:47.998Z</time></trkpt><trkpt lat="44.41711762849728" lon="9.444972789740707"><ele>938.25</ele><time>2026-04-19T07:14:48.998Z</time></trkpt><trkpt lat="44.41710574173428" lon="9.445188754730593"><ele>936.0</ele><time>2026-04-19T07:14:49.998Z</time></trkpt><trkpt lat="44.4171450170735" lon="9.44539959082559"><ele>935.25</ele><time>2026-04-19T07:14:50.998Z</time></trkpt><trkpt lat="44.41715447860976" lon="9.445594103099776"><ele>934.5</ele><time>2026-04-19T07:14:51.998Z</time></trkpt><trkpt lat="44.41711320667309" lon="9.445764445556044"><ele>933.75</ele><time>2026-04-19T07:14:52.998Z</time></trkpt><trkpt lat="44.41701859736869" lon="9.445914718210194"><ele>933.0</ele><time>2026-04-19T07:14:53.998Z</time></trkpt><trkpt lat="44.41688455312578" lon="9.446054593772214"><ele>933.0</ele><time>2026-04-19T07:14:54.998Z</time></trkpt><trkpt lat="44.41673401831643" lon="9.446207116816206"><ele>933.0</ele><time>2026-04-19T07:14:55.998Z</time></trkpt><trkpt lat="44.41660446932363" lon="9.446355470424784"><ele>933.0</ele><time>2026-04-19T07:14:56.998Z</time></trkpt><trkpt lat="44.416504344028226" lon="9.446521112651297"><ele>933.6666666666667</ele><time>2026-04-19T07:14:57.998Z</time></trkpt><trkpt lat="44.41645264921059" lon="9.44673082192626"><ele>934.3333333333334</ele><time>2026-04-19T07:14:58.998Z</time></trkpt><trkpt lat="44.416440946163235" lon="9.446974526989685"><ele>935.0</ele><time>2026-04-19T07:14:59.998Z</time></trkpt><trkpt lat="44.41641056498613" lon="9.447219810913614"><ele>935.0</ele><time>2026-04-19T07:15:00.998Z</time></trkpt><trkpt lat="44.416370136809114" lon="9.447419458479693"><ele>935.0</ele><time>2026-04-19T07:15:02Z</time></trkpt><trkpt lat="44.41632367374744" lon="9.447620595094838"><ele>935.0</ele><time>2026-04-19T07:15:03Z</time></trkpt><trkpt lat="44.416245652175384" lon="9.447778456785093"><ele>935.0</ele><time>2026-04-19T07:15:04Z</time></trkpt><trkpt lat="44.416178906879274" lon="9.447923089824007"><ele>931.6666666666667</ele><time>2026-04-19T07:15:05Z</time></trkpt><trkpt lat="44.41633007589552" lon="9.448067485623474"><ele>928.3333333333333</ele><time>2026-04-19T07:15:06Z</time></trkpt><trkpt lat="44.41644720234466" lon="9.44820399646858"><ele>925.0</ele><time>2026-04-19T07:15:07Z</time></trkpt><trkpt lat="44.416564817886496" lon="9.448302902680595"><ele>925.0</ele><time>2026-04-19T07:15:08Z</time></trkpt><trkpt lat="44.41669311865001" lon="9.448334845398561"><ele>925.0</ele><time>2026-04-19T07:15:09Z</time></trkpt><trkpt lat="44.41680941427286" lon="9.448279292255371"><ele>925.0</ele><time>2026-04-19T07:15:10Z</time></trkpt><trkpt lat="44.41693090842803" lon="9.448086032025687"><ele>925.0</ele><time>2026-04-19T07:15:11Z</time></trkpt><trkpt lat="44.41704624572024" lon="9.447963718749946"><ele>926.5</ele><time>2026-04-19T07:15:12Z</time></trkpt><trkpt lat="44.417172271208415" lon="9.447978583427858"><ele>928.0</ele><time>2026-04-19T07:15:13Z</time></trkpt><trkpt lat="44.41728720348425" lon="9.448029844622681"><ele>929.5</ele><time>2026-04-19T07:15:14Z</time></trkpt><trkpt lat="44.41737942190054" lon="9.448130066773322"><ele>931.0</ele><time>2026-04-19T07:15:15Z</time></trkpt><trkpt lat="44.41736453482493" lon="9.448302757094504"><ele>931.0</ele><time>2026-04-19T07:15:16Z</time></trkpt><trkpt lat="44.417319454561806" lon="9.448426688164991"><ele>931.0</ele><time>2026-04-19T07:15:17Z</time></trkpt><trkpt lat="44.41723785814851" lon="9.448574286211864"><ele>931.0</ele><time>2026-04-19T07:15:18Z</time></trkpt><trkpt lat="44.41715968590297" lon="9.448765537783917"><ele>931.0</ele><time>2026-04-19T07:15:19Z</time></trkpt><trkpt lat="44.417077457939904" lon="9.448954378651193"><ele>928.25</ele><time>2026-04-19T07:15:20Z</time></trkpt><trkpt lat="44.416985664904466" lon="9.449138199722732"><ele>925.5</ele><time>2026-04-19T07:15:21Z</time></trkpt><trkpt lat="44.41686629188583" lon="9.449252018692125"><ele>922.75</ele><time>2026-04-19T07:15:22Z</time></trkpt><trkpt lat="44.41673262518956" lon="9.44932840446011"><ele>920.0</ele><time>2026-04-19T07:15:23Z</time></trkpt><trkpt lat="44.41659682256244" lon="9.449379040993696"><ele>920.0</ele><time>2026-04-19T07:15:24Z</time></trkpt><trkpt lat="44.416454447536076" lon="9.449413547522623"><ele>920.0</ele><time>2026-04-19T07:15:25Z</time></trkpt><trkpt lat="44.416314968960855" lon="9.449479064764201"><ele>920.0</ele><time>2026-04-19T07:15:26Z</time></trkpt><trkpt lat="44.41620262379244" lon="9.449579213221455"><ele>920.0</ele><time>2026-04-19T07:15:27Z</time></trkpt><trkpt lat="44.416159666937" lon="9.449734848572483"><ele>916.3333333333334</ele><time>2026-04-19T07:15:28Z</time></trkpt><trkpt lat="44.416140954387" lon="9.449923172203519"><ele>912.6666666666667</ele><time>2026-04-19T07:15:29Z</time></trkpt><trkpt lat="44.4161412737439" lon="9.450166870051346"><ele>909.0</ele><time>2026-04-19T07:15:30Z</time></trkpt><trkpt lat="44.416196568312664" lon="9.450417875437624"><ele>908.0</ele><time>2026-04-19T07:15:31Z</time></trkpt><trkpt lat="44.41623229125123" lon="9.450659953885065"><ele>907.0</ele><time>2026-04-19T07:15:32Z</time></trkpt><trkpt lat="44.41625819061121" lon="9.45090349338275"><ele>906.0</ele><time>2026-04-19T07:15:33Z</time></trkpt><trkpt lat="44.41624972882051" lon="9.45114300815911"><ele>905.6666666666667</ele><time>2026-04-19T07:15:34Z</time></trkpt><trkpt lat="44.41623983217364" lon="9.451395558802867"><ele>905.3333333333334</ele><time>2026-04-19T07:15:35Z</time></trkpt><trkpt lat="44.41621723615645" lon="9.451647873574542"><ele>905.0</ele><time>2026-04-19T07:15:36Z</time></trkpt><trkpt lat="44.416195565754336" lon="9.451903957133231"><ele>904.6666666666667</ele><time>2026-04-19T07:15:37Z</time></trkpt><trkpt lat="44.4161628394747" lon="9.452159957248284"><ele>904.3333333333333</ele><time>2026-04-19T07:15:38Z</time></trkpt><trkpt lat="44.41610120573515" lon="9.452356553382627"><ele>904.0</ele><time>2026-04-19T07:15:39Z</time></trkpt><trkpt lat="44.416035995471276" lon="9.45256426343855"><ele>904.0</ele><time>2026-04-19T07:15:40Z</time></trkpt><trkpt lat="44.41600212415796" lon="9.452773685004864"><ele>904.0</ele><time>2026-04-19T07:15:41Z</time></trkpt><trkpt lat="44.416005345677824" lon="9.452993973912157"><ele>904.0</ele><time>2026-04-19T07:15:42Z</time></trkpt><trkpt lat="44.41598735725424" lon="9.453198783440738"><ele>903.25</ele><time>2026-04-19T07:15:43Z</time></trkpt><trkpt lat="44.4159111499945" lon="9.45336873387914"><ele>902.5</ele><time>2026-04-19T07:15:44Z</time></trkpt><trkpt lat="44.4158079648469" lon="9.453531502446461"><ele>901.75</ele><time>2026-04-19T07:15:45Z</time></trkpt><trkpt lat="44.41572500249641" lon="9.453683822641741"><ele>901.0</ele><time>2026-04-19T07:15:46Z</time></trkpt><trkpt lat="44.41566340967136" lon="9.45382108445285"><ele>901.0</ele><time>2026-04-19T07:15:47Z</time></trkpt><trkpt lat="44.41571637441093" lon="9.45401941550044"><ele>901.0</ele><time>2026-04-19T07:15:48Z</time></trkpt><trkpt lat="44.4158005598009" lon="9.454192260755805"><ele>901.0</ele><time>2026-04-19T07:15:49Z</time></trkpt><trkpt lat="44.415884671137626" lon="9.454356551023587"><ele>901.0</ele><time>2026-04-19T07:15:50Z</time></trkpt><trkpt lat="44.41597284014118" lon="9.454532759727345"><ele>902.0</ele><time>2026-04-19T07:15:51Z</time></trkpt><trkpt lat="44.41605652391261" lon="9.454708250846059"><ele>903.0</ele><time>2026-04-19T07:15:52Z</time></trkpt><trkpt lat="44.41615082712931" lon="9.4548669823846"><ele>904.0</ele><time>2026-04-19T07:15:53Z</time></trkpt><trkpt lat="44.41624931404047" lon="9.455000834382572"><ele>905.0</ele><time>2026-04-19T07:15:53.999Z</time></trkpt><trkpt lat="44.416312582959705" lon="9.455157168876145"><ele>904.75</ele><time>2026-04-19T07:15:54.999Z</time></trkpt><trkpt lat="44.416347652548815" lon="9.455314614271861"><ele>904.5</ele><time>2026-04-19T07:15:55.999Z</time></trkpt><trkpt lat="44.41634429684595" lon="9.455475439693911"><ele>904.25</ele><time>2026-04-19T07:15:56.999Z</time></trkpt><trkpt lat="44.41624979482622" lon="9.455605351720706"><ele>904.0</ele><time>2026-04-19T07:15:57.999Z</time></trkpt><trkpt lat="44.41618978984698" lon="9.455773553202235"><ele>904.0</ele><time>2026-04-19T07:15:58.999Z</time></trkpt><trkpt lat="44.41614623912401" lon="9.455934864515893"><ele>904.0</ele><time>2026-04-19T07:15:59.999Z</time></trkpt><trkpt lat="44.41616960725217" lon="9.456114836566412"><ele>904.0</ele><time>2026-04-19T07:16:00.999Z</time></trkpt><trkpt lat="44.4162390208525" lon="9.456304507269747"><ele>904.0</ele><time>2026-04-19T07:16:01.999Z</time></trkpt><trkpt lat="44.41631095200845" lon="9.456501971176925"><ele>900.6666666666666</ele><time>2026-04-19T07:16:02.999Z</time></trkpt><trkpt lat="44.41637614744532" lon="9.456707586915021"><ele>897.3333333333333</ele><time>2026-04-19T07:16:03.999Z</time></trkpt><trkpt lat="44.416443340084214" lon="9.456914245459942"><ele>894.0</ele><time>2026-04-19T07:16:04.999Z</time></trkpt><trkpt lat="44.416515330834315" lon="9.457128575802418"><ele>894.0</ele><time>2026-04-19T07:16:05.999Z</time></trkpt><trkpt lat="44.416581235642234" lon="9.457359575685848"><ele>894.0</ele><time>2026-04-19T07:16:06.999Z</time></trkpt><trkpt lat="44.416645831307555" lon="9.457581550261695"><ele>894.0</ele><time>2026-04-19T07:16:07.999Z</time></trkpt><trkpt lat="44.416713481010504" lon="9.457810044116787"><ele>892.6666666666667</ele><time>2026-04-19T07:16:08.999Z</time></trkpt><trkpt lat="44.4167777334849" lon="9.458032786749403"><ele>891.3333333333334</ele><time>2026-04-19T07:16:09.999Z</time></trkpt><trkpt lat="44.41686202127336" lon="9.458227556981614"><ele>890.0</ele><time>2026-04-19T07:16:10.999Z</time></trkpt><trkpt lat="44.41698249568194" lon="9.458413935059491"><ele>890.0</ele><time>2026-04-19T07:16:11.999Z</time></trkpt><trkpt lat="44.41710097408255" lon="9.458593225001499"><ele>890.0</ele><time>2026-04-19T07:16:12.999Z</time></trkpt><trkpt lat="44.4171923892728" lon="9.45878060067461"><ele>890.0</ele><time>2026-04-19T07:16:13.999Z</time></trkpt><trkpt lat="44.41729073948795" lon="9.458950241692255"><ele>888.6666666666667</ele><time>2026-04-19T07:16:14.999Z</time></trkpt><trkpt lat="44.41742494516376" lon="9.459044559942331"><ele>887.3333333333333</ele><time>2026-04-19T07:16:15.999Z</time></trkpt><trkpt lat="44.4175855183978" lon="9.459082196431106"><ele>886.0</ele><time>2026-04-19T07:16:16.999Z</time></trkpt><trkpt lat="44.41770891377363" lon="9.459193569131942"><ele>886.0</ele><time>2026-04-19T07:16:17.999Z</time></trkpt><trkpt lat="44.417770365155306" lon="9.459411585504224"><ele>886.0</ele><time>2026-04-19T07:16:18.999Z</time></trkpt><trkpt lat="44.41788417954286" lon="9.459562058712237"><ele>886.0</ele><time>2026-04-19T07:16:19.999Z</time></trkpt><trkpt lat="44.417996779805286" lon="9.45972893393693"><ele>886.3333333333333</ele><time>2026-04-19T07:16:20.999Z</time></trkpt><trkpt lat="44.41806649029157" lon="9.459914975560563"><ele>886.6666666666667</ele><time>2026-04-19T07:16:21.999Z</time></trkpt><trkpt lat="44.418079160097825" lon="9.46011776765056"><ele>887.0</ele><time>2026-04-19T07:16:22.999Z</time></trkpt><trkpt lat="44.418056915909446" lon="9.460353026805825"><ele>890.3333333333334</ele><time>2026-04-19T07:16:23.999Z</time></trkpt><trkpt lat="44.41809762780213" lon="9.46059940035642"><ele>893.6666666666667</ele><time>2026-04-19T07:16:24.999Z</time></trkpt><trkpt lat="44.418103379762925" lon="9.460832112077767"><ele>897.0</ele><time>2026-04-19T07:16:25.999Z</time></trkpt><trkpt lat="44.41811374016941" lon="9.461054726655183"><ele>897.0</ele><time>2026-04-19T07:16:26.999Z</time></trkpt><trkpt lat="44.41809766195075" lon="9.461259402149265"><ele>897.0</ele><time>2026-04-19T07:16:27.999Z</time></trkpt><trkpt lat="44.418055174590364" lon="9.461449944915927"><ele>897.0</ele><time>2026-04-19T07:16:28.999Z</time></trkpt><trkpt lat="44.41796520269914" lon="9.461597468721411"><ele>897.0</ele><time>2026-04-19T07:16:29.999Z</time></trkpt><trkpt lat="44.417862742583864" lon="9.4617343477796"><ele>899.25</ele><time>2026-04-19T07:16:30.999Z</time></trkpt><trkpt lat="44.41780061935746" lon="9.461896505186242"><ele>901.5</ele><time>2026-04-19T07:16:31.999Z</time></trkpt><trkpt lat="44.41775617078871" lon="9.462093024337522"><ele>903.75</ele><time>2026-04-19T07:16:32.999Z</time></trkpt><trkpt lat="44.41778627354277" lon="9.462299042622302"><ele>906.0</ele><time>2026-04-19T07:16:33.999Z</time></trkpt><trkpt lat="44.41783408978713" lon="9.462500362629319"><ele>906.0</ele><time>2026-04-19T07:16:34.999Z</time></trkpt><trkpt lat="44.41791108964113" lon="9.462704518108257"><ele>906.0</ele><time>2026-04-19T07:16:35.999Z</time></trkpt><trkpt lat="44.41802316160628" lon="9.462896751463704"><ele>906.0</ele><time>2026-04-19T07:16:36.999Z</time></trkpt><trkpt lat="44.418138520501714" lon="9.463071476449722"><ele>904.0</ele><time>2026-04-19T07:16:37.999Z</time></trkpt><trkpt lat="44.418190544569235" lon="9.463267844164793"><ele>902.0</ele><time>2026-04-19T07:16:38.999Z</time></trkpt><trkpt lat="44.41819090985203" lon="9.463473161069864"><ele>900.0</ele><time>2026-04-19T07:16:39.999Z</time></trkpt><trkpt lat="44.41812871932688" lon="9.463675627366607"><ele>901.3333333333333</ele><time>2026-04-19T07:16:40.999Z</time></trkpt><trkpt lat="44.41802381065029" lon="9.463837220728868"><ele>902.6666666666666</ele><time>2026-04-19T07:16:41.999Z</time></trkpt><trkpt lat="44.417910288151546" lon="9.464012984617547"><ele>904.0</ele><time>2026-04-19T07:16:42.999Z</time></trkpt><trkpt lat="44.417824427314436" lon="9.464155196795904"><ele>900.75</ele><time>2026-04-19T07:16:43.999Z</time></trkpt><trkpt lat="44.41779391312527" lon="9.46434736443974"><ele>897.5</ele><time>2026-04-19T07:16:44.999Z</time></trkpt><trkpt lat="44.417800110128496" lon="9.464547470303584"><ele>894.25</ele><time>2026-04-19T07:16:45.999Z</time></trkpt><trkpt lat="44.41773280503186" lon="9.464693883530524"><ele>891.0</ele><time>2026-04-19T07:16:46.999Z</time></trkpt><trkpt lat="44.41761261633594" lon="9.464794283365485"><ele>887.0</ele><time>2026-04-19T07:16:47.999Z</time></trkpt><trkpt lat="44.41755824385767" lon="9.46495096778712"><ele>883.0</ele><time>2026-04-19T07:16:48.998Z</time></trkpt><trkpt lat="44.41750123598017" lon="9.465128954843918"><ele>879.0</ele><time>2026-04-19T07:16:49.998Z</time></trkpt><trkpt lat="44.41757726410112" lon="9.465386531574723"><ele>878.25</ele><time>2026-04-19T07:16:50.998Z</time></trkpt><trkpt lat="44.41764147249605" lon="9.46558441744669"><ele>877.5</ele><time>2026-04-19T07:16:51.998Z</time></trkpt><trkpt lat="44.41769992622036" lon="9.465766437200672"><ele>876.75</ele><time>2026-04-19T07:16:52.998Z</time></trkpt><trkpt lat="44.417704171490044" lon="9.465921514889626"><ele>876.0</ele><time>2026-04-19T07:16:53.998Z</time></trkpt><trkpt lat="44.41768355248943" lon="9.466018099321824"><ele>876.0</ele><time>2026-04-19T07:16:54.998Z</time></trkpt><trkpt lat="44.41755140703484" lon="9.466063273050732"><ele>876.0</ele><time>2026-04-19T07:16:55.998Z</time></trkpt><trkpt lat="44.41749116672041" lon="9.46631070431317"><ele>876.0</ele><time>2026-04-19T07:16:57.998Z</time></trkpt><trkpt lat="44.41752219561689" lon="9.466463800710963"><ele>876.0</ele><time>2026-04-19T07:16:58.998Z</time></trkpt><trkpt lat="44.41764961146669" lon="9.466523484861696"><ele>877.5</ele><time>2026-04-19T07:16:59.998Z</time></trkpt><trkpt lat="44.41772032499465" lon="9.466619839815785"><ele>879.0</ele><time>2026-04-19T07:17:00.998Z</time></trkpt><trkpt lat="44.417740091318144" lon="9.466778940928181"><ele>880.5</ele><time>2026-04-19T07:17:01.998Z</time></trkpt><trkpt lat="44.4177254915753" lon="9.466962205414626"><ele>882.0</ele><time>2026-04-19T07:17:02.998Z</time></trkpt><trkpt lat="44.41768170150557" lon="9.46719696747415"><ele>882.0</ele><time>2026-04-19T07:17:03.998Z</time></trkpt><trkpt lat="44.41767744457705" lon="9.467456585187044"><ele>882.0</ele><time>2026-04-19T07:17:04.998Z</time></trkpt><trkpt lat="44.41772736109421" lon="9.467694264733916"><ele>882.0</ele><time>2026-04-19T07:17:05.998Z</time></trkpt><trkpt lat="44.41779091808034" lon="9.4679013155762"><ele>880.75</ele><time>2026-04-19T07:17:06.998Z</time></trkpt><trkpt lat="44.417870890847986" lon="9.468076408557895"><ele>879.5</ele><time>2026-04-19T07:17:08Z</time></trkpt><trkpt lat="44.417920114644964" lon="9.468240634554176"><ele>878.25</ele><time>2026-04-19T07:17:09Z</time></trkpt><trkpt lat="44.41791291383713" lon="9.46841825640667"><ele>877.0</ele><time>2026-04-19T07:17:10Z</time></trkpt><trkpt lat="44.41788967990069" lon="9.468607688554375"><ele>877.0</ele><time>2026-04-19T07:17:11Z</time></trkpt><trkpt lat="44.41791600908571" lon="9.468766497271186"><ele>877.0</ele><time>2026-04-19T07:17:12Z</time></trkpt><trkpt lat="44.41798092553249" lon="9.468883247145218"><ele>877.0</ele><time>2026-04-19T07:17:13Z</time></trkpt><trkpt lat="44.4181117525346" lon="9.468938454024414"><ele>877.0</ele><time>2026-04-19T07:17:14Z</time></trkpt><trkpt lat="44.41823125857761" lon="9.468962991731347"><ele>872.0</ele><time>2026-04-19T07:17:15Z</time></trkpt><trkpt lat="44.41834776894352" lon="9.469015156472246"><ele>867.0</ele><time>2026-04-19T07:17:16Z</time></trkpt><trkpt lat="44.418424570088774" lon="9.469165754505966"><ele>862.0</ele><time>2026-04-19T07:17:17Z</time></trkpt><trkpt lat="44.418427670388645" lon="9.469313570621187"><ele>857.0</ele><time>2026-04-19T07:17:18Z</time></trkpt><trkpt lat="44.41844678207289" lon="9.4695021625464"><ele>861.0</ele><time>2026-04-19T07:17:19Z</time></trkpt><trkpt lat="44.418469328043706" lon="9.469722160205464"><ele>865.0</ele><time>2026-04-19T07:17:20Z</time></trkpt><trkpt lat="44.41849932278163" lon="9.469992442902681"><ele>869.0</ele><time>2026-04-19T07:17:21Z</time></trkpt><trkpt lat="44.418577154899" lon="9.470300909935462"><ele>873.6666666666667</ele><time>2026-04-19T07:17:22Z</time></trkpt><trkpt lat="44.41869277391296" lon="9.47051030555047"><ele>878.3333333333333</ele><time>2026-04-19T07:17:23Z</time></trkpt><trkpt lat="44.41878689749059" lon="9.470680032479935"><ele>883.0</ele><time>2026-04-19T07:17:24Z</time></trkpt><trkpt lat="44.4188732368439" lon="9.470881131642479"><ele>874.0</ele><time>2026-04-19T07:17:25Z</time></trkpt><trkpt lat="44.41898543873592" lon="9.471069831920765"><ele>865.0</ele><time>2026-04-19T07:17:26Z</time></trkpt><trkpt lat="44.41909600271361" lon="9.47121718343334"><ele>856.0</ele><time>2026-04-19T07:17:27Z</time></trkpt><trkpt lat="44.419173285399154" lon="9.471344860393145"><ele>847.0</ele><time>2026-04-19T07:17:28Z</time></trkpt><trkpt lat="44.41921375331307" lon="9.471482240151147"><ele>847.0</ele><time>2026-04-19T07:17:29Z</time></trkpt><trkpt lat="44.419192447407944" lon="9.471594596450661"><ele>847.0</ele><time>2026-04-19T07:17:30Z</time></trkpt><trkpt lat="44.419141156314474" lon="9.471672966801009"><ele>847.0</ele><time>2026-04-19T07:17:31Z</time></trkpt><trkpt lat="44.419074609314" lon="9.471828685167143"><ele>847.0</ele><time>2026-04-19T07:17:32Z</time></trkpt><trkpt lat="44.41898803144284" lon="9.472022758660826"><ele>850.0</ele><time>2026-04-19T07:17:33Z</time></trkpt><trkpt lat="44.418913523521944" lon="9.472201741881438"><ele>853.0</ele><time>2026-04-19T07:17:34Z</time></trkpt><trkpt lat="44.41887240261809" lon="9.472351898837683"><ele>856.0</ele><time>2026-04-19T07:17:35Z</time></trkpt><trkpt lat="44.41887074895782" lon="9.472489612403413"><ele>859.0</ele><time>2026-04-19T07:17:36Z</time></trkpt><trkpt lat="44.4190331597233" lon="9.4725633416484"><ele>859.0</ele><time>2026-04-19T07:17:37Z</time></trkpt><trkpt lat="44.419163517422575" lon="9.472542937513182"><ele>859.0</ele><time>2026-04-19T07:17:38Z</time></trkpt><trkpt lat="44.419217693351236" lon="9.47248621408207"><ele>859.0</ele><time>2026-04-19T07:17:39Z</time></trkpt><trkpt lat="44.41936479380564" lon="9.472398160221989"><ele>859.0</ele><time>2026-04-19T07:17:40Z</time></trkpt><trkpt lat="44.4194906729285" lon="9.472287546494078"><ele>856.0</ele><time>2026-04-19T07:17:41Z</time></trkpt><trkpt lat="44.41954256367116" lon="9.4720844137054"><ele>853.0</ele><time>2026-04-19T07:17:42Z</time></trkpt><trkpt lat="44.41962796531443" lon="9.471922875059116"><ele>850.0</ele><time>2026-04-19T07:17:43Z</time></trkpt><trkpt lat="44.41974506354625" lon="9.471817550789705"><ele>847.0</ele><time>2026-04-19T07:17:44Z</time></trkpt><trkpt lat="44.41986717685669" lon="9.471791033284303"><ele>848.5</ele><time>2026-04-19T07:17:45Z</time></trkpt><trkpt lat="44.41996664994167" lon="9.47185008479019"><ele>850.0</ele><time>2026-04-19T07:17:46Z</time></trkpt><trkpt lat="44.42006836269525" lon="9.471957458506207"><ele>851.5</ele><time>2026-04-19T07:17:47Z</time></trkpt><trkpt lat="44.42014121618584" lon="9.472132660571315"><ele>853.0</ele><time>2026-04-19T07:17:48Z</time></trkpt><trkpt lat="44.420228344720364" lon="9.47235156686691"><ele>853.0</ele><time>2026-04-19T07:17:49Z</time></trkpt><trkpt lat="44.420340766885914" lon="9.472502440821152"><ele>853.0</ele><time>2026-04-19T07:17:50Z</time></trkpt><trkpt lat="44.420443207755135" lon="9.472589322800795"><ele>853.0</ele><time>2026-04-19T07:17:51Z</time></trkpt><trkpt lat="44.42057459866077" lon="9.47258903681428"><ele>853.0</ele><time>2026-04-19T07:17:52Z</time></trkpt><trkpt lat="44.420746567157465" lon="9.472561178661485"><ele>847.3333333333333</ele><time>2026-04-19T07:17:53Z</time></trkpt><trkpt lat="44.42090614560596" lon="9.472524876448425"><ele>841.6666666666667</ele><time>2026-04-19T07:17:54Z</time></trkpt><trkpt lat="44.42105676481822" lon="9.472479061150093"><ele>836.0</ele><time>2026-04-19T07:17:55Z</time></trkpt><trkpt lat="44.42119070855311" lon="9.472448090494598"><ele>836.0</ele><time>2026-04-19T07:17:56Z</time></trkpt><trkpt lat="44.42127256124317" lon="9.472556647107742"><ele>836.0</ele><time>2026-04-19T07:17:57Z</time></trkpt><trkpt lat="44.42129389764563" lon="9.472680027199527"><ele>836.0</ele><time>2026-04-19T07:17:58Z</time></trkpt><trkpt lat="44.42135484114167" lon="9.472877040008068"><ele>836.0</ele><time>2026-04-19T07:17:59Z</time></trkpt><trkpt lat="44.42143794193874" lon="9.473064982616428"><ele>837.25</ele><time>2026-04-19T07:17:59.999Z</time></trkpt><trkpt lat="44.42153481346789" lon="9.473206108958456"><ele>838.5</ele><time>2026-04-19T07:18:00.999Z</time></trkpt><trkpt lat="44.42164794749003" lon="9.473247202675992"><ele>839.75</ele><time>2026-04-19T07:18:01.999Z</time></trkpt><trkpt lat="44.42176545089826" lon="9.47318775094475"><ele>841.0</ele><time>2026-04-19T07:18:02.999Z</time></trkpt><trkpt lat="44.421922915604426" lon="9.473097117738131"><ele>841.0</ele><time>2026-04-19T07:18:03.999Z</time></trkpt><trkpt lat="44.42208409673497" lon="9.47311680417349"><ele>841.0</ele><time>2026-04-19T07:18:04.999Z</time></trkpt><trkpt lat="44.42227092905656" lon="9.473129562741908"><ele>841.0</ele><time>2026-04-19T07:18:05.999Z</time></trkpt><trkpt lat="44.42246071747794" lon="9.473137926603881"><ele>836.6666666666666</ele><time>2026-04-19T07:18:06.999Z</time></trkpt><trkpt lat="44.42264947017877" lon="9.473084862138482"><ele>832.3333333333333</ele><time>2026-04-19T07:18:07.999Z</time></trkpt><trkpt lat="44.422823814797304" lon="9.473059706206888"><ele>828.0</ele><time>2026-04-19T07:18:08.999Z</time></trkpt><trkpt lat="44.42299256103088" lon="9.473034076859998"><ele>825.6666666666667</ele><time>2026-04-19T07:18:09.999Z</time></trkpt><trkpt lat="44.42315339620504" lon="9.473012928985828"><ele>823.3333333333334</ele><time>2026-04-19T07:18:10.999Z</time></trkpt><trkpt lat="44.423307185237746" lon="9.472996631069632"><ele>821.0</ele><time>2026-04-19T07:18:11.999Z</time></trkpt><trkpt lat="44.42344805376249" lon="9.472999729628075"><ele>821.0</ele><time>2026-04-19T07:18:12.999Z</time></trkpt><trkpt lat="44.423593198478" lon="9.473044529712322"><ele>821.0</ele><time>2026-04-19T07:18:13.999Z</time></trkpt><trkpt lat="44.423742058955355" lon="9.473097691424627"><ele>821.0</ele><time>2026-04-19T07:18:14.999Z</time></trkpt><trkpt lat="44.423871389441565" lon="9.473170901273345"><ele>821.0</ele><time>2026-04-19T07:18:15.999Z</time></trkpt><trkpt lat="44.42393383499976" lon="9.473294510049481"><ele>813.25</ele><time>2026-04-19T07:18:16.999Z</time></trkpt><trkpt lat="44.423943494389306" lon="9.473446112529407"><ele>805.5</ele><time>2026-04-19T07:18:17.999Z</time></trkpt><trkpt lat="44.42393188557971" lon="9.473618318454315"><ele>797.75</ele><time>2026-04-19T07:18:18.999Z</time></trkpt><trkpt lat="44.42389312363404" lon="9.473822970663987"><ele>790.0</ele><time>2026-04-19T07:18:19.999Z</time></trkpt><trkpt lat="44.423818888729414" lon="9.474059953793878"><ele>797.0</ele><time>2026-04-19T07:18:20.999Z</time></trkpt><trkpt lat="44.42373477572452" lon="9.474271728566514"><ele>804.0</ele><time>2026-04-19T07:18:21.999Z</time></trkpt><trkpt lat="44.4236564212957" lon="9.474475989518666"><ele>811.0</ele><time>2026-04-19T07:18:22.999Z</time></trkpt><trkpt lat="44.42355955621489" lon="9.47464418272618"><ele>811.0</ele><time>2026-04-19T07:18:23.999Z</time></trkpt><trkpt lat="44.42343766917403" lon="9.474757069784896"><ele>811.0</ele><time>2026-04-19T07:18:24.999Z</time></trkpt><trkpt lat="44.423320568240015" lon="9.474876861833401"><ele>811.0</ele><time>2026-04-19T07:18:25.999Z</time></trkpt><trkpt lat="44.423220374827544" lon="9.474951794228685"><ele>811.0</ele><time>2026-04-19T07:18:26.999Z</time></trkpt><trkpt lat="44.42316210843482" lon="9.475071848154224"><ele>811.0</ele><time>2026-04-19T07:18:27.999Z</time></trkpt><trkpt lat="44.42314960900903" lon="9.47521301325066"><ele>811.0</ele><time>2026-04-19T07:18:28.999Z</time></trkpt><trkpt lat="44.4232411554734" lon="9.475365130939965"><ele>811.0</ele><time>2026-04-19T07:18:29.999Z</time></trkpt><trkpt lat="44.42335025441731" lon="9.475473852656147"><ele>811.0</ele><time>2026-04-19T07:18:30.999Z</time></trkpt><trkpt lat="44.42342728973296" lon="9.47561818427488"><ele>810.25</ele><time>2026-04-19T07:18:31.999Z</time></trkpt><trkpt lat="44.423436735416686" lon="9.475798432324284"><ele>809.5</ele><time>2026-04-19T07:18:32.999Z</time></trkpt><trkpt lat="44.4234106013109" lon="9.476003364241851"><ele>808.75</ele><time>2026-04-19T07:18:33.999Z</time></trkpt><trkpt lat="44.423412077067844" lon="9.476225743763555"><ele>808.0</ele><time>2026-04-19T07:18:34.999Z</time></trkpt><trkpt lat="44.42343321539598" lon="9.476437927241884"><ele>810.25</ele><time>2026-04-19T07:18:35.999Z</time></trkpt><trkpt lat="44.42348100733112" lon="9.476630519200329"><ele>812.5</ele><time>2026-04-19T07:18:36.999Z</time></trkpt><trkpt lat="44.42352113635475" lon="9.476797914268028"><ele>814.75</ele><time>2026-04-19T07:18:37.999Z</time></trkpt><trkpt lat="44.42357301162445" lon="9.476931540778265"><ele>817.0</ele><time>2026-04-19T07:18:38.999Z</time></trkpt><trkpt lat="44.42366494630793" lon="9.477027685702911"><ele>817.0</ele><time>2026-04-19T07:18:39.999Z</time></trkpt><trkpt lat="44.423809539457984" lon="9.477046072220116"><ele>817.0</ele><time>2026-04-19T07:18:40.999Z</time></trkpt><trkpt lat="44.42396581456221" lon="9.477027649827598"><ele>817.0</ele><time>2026-04-19T07:18:41.999Z</time></trkpt><trkpt lat="44.42412427384303" lon="9.477012416194025"><ele>805.0</ele><time>2026-04-19T07:18:42.999Z</time></trkpt><trkpt lat="44.424289041639334" lon="9.47700767060822"><ele>793.0</ele><time>2026-04-19T07:18:43.999Z</time></trkpt><trkpt lat="44.42445700590757" lon="9.476990419010734"><ele>781.0</ele><time>2026-04-19T07:18:44.999Z</time></trkpt><trkpt lat="44.42461217656667" lon="9.476963297080049"><ele>777.5</ele><time>2026-04-19T07:18:45.999Z</time></trkpt><trkpt lat="44.42475726846995" lon="9.476921935406686"><ele>774.0</ele><time>2026-04-19T07:18:46.999Z</time></trkpt><trkpt lat="44.42488239517414" lon="9.47692067570028"><ele>770.5</ele><time>2026-04-19T07:18:47.999Z</time></trkpt><trkpt lat="44.424997141758" lon="9.476936478196162"><ele>767.0</ele><time>2026-04-19T07:18:48.999Z</time></trkpt><trkpt lat="44.42507614829626" lon="9.477053699394107"><ele>773.0</ele><time>2026-04-19T07:18:49.999Z</time></trkpt><trkpt lat="44.42510973699676" lon="9.477219451695294"><ele>779.0</ele><time>2026-04-19T07:18:50.999Z</time></trkpt><trkpt lat="44.42510693255967" lon="9.47741670609843"><ele>785.0</ele><time>2026-04-19T07:18:51.999Z</time></trkpt><trkpt lat="44.42513809154115" lon="9.477639024255136"><ele>791.0</ele><time>2026-04-19T07:18:52.999Z</time></trkpt><trkpt lat="44.42517226845486" lon="9.477897456949158"><ele>796.0</ele><time>2026-04-19T07:18:53.998Z</time></trkpt><trkpt lat="44.42520364414354" lon="9.478151618446189"><ele>801.0</ele><time>2026-04-19T07:18:54.998Z</time></trkpt><trkpt lat="44.425277308203185" lon="9.478344305307829"><ele>806.0</ele><time>2026-04-19T07:18:55.998Z</time></trkpt><trkpt lat="44.42532936940676" lon="9.47858109735935"><ele>807.6666666666667</ele><time>2026-04-19T07:18:56.998Z</time></trkpt><trkpt lat="44.425375999851425" lon="9.478817478327226"><ele>809.3333333333333</ele><time>2026-04-19T07:18:57.998Z</time></trkpt><trkpt lat="44.42540979204168" lon="9.479042748691995"><ele>811.0</ele><time>2026-04-19T07:18:58.998Z</time></trkpt><trkpt lat="44.4253963186032" lon="9.479273846908967"><ele>811.0</ele><time>2026-04-19T07:18:59.998Z</time></trkpt><trkpt lat="44.42538905345677" lon="9.479503368080536"><ele>811.0</ele><time>2026-04-19T07:19:00.998Z</time></trkpt><trkpt lat="44.42540334598835" lon="9.47973191484957"><ele>811.0</ele><time>2026-04-19T07:19:01.998Z</time></trkpt><trkpt lat="44.42540505917619" lon="9.479936324331709"><ele>810.4</ele><time>2026-04-19T07:19:02.998Z</time></trkpt><trkpt lat="44.42542286759198" lon="9.480128162825185"><ele>809.8</ele><time>2026-04-19T07:19:03.998Z</time></trkpt><trkpt lat="44.42544807791693" lon="9.480291472232658"><ele>809.1999999999999</ele><time>2026-04-19T07:19:04.998Z</time></trkpt><trkpt lat="44.4254902297394" lon="9.480418858739535"><ele>808.5999999999999</ele><time>2026-04-19T07:19:05.998Z</time></trkpt><trkpt lat="44.42556060478538" lon="9.480493974942044"><ele>808.0</ele><time>2026-04-19T07:19:06.998Z</time></trkpt><trkpt lat="44.425664513187535" lon="9.48050702522904"><ele>804.25</ele><time>2026-04-19T07:19:07.998Z</time></trkpt><trkpt lat="44.42576760680442" lon="9.480441425562244"><ele>800.5</ele><time>2026-04-19T07:19:08.998Z</time></trkpt><trkpt lat="44.42587145743134" lon="9.48033040609152"><ele>796.75</ele><time>2026-04-19T07:19:09.998Z</time></trkpt><trkpt lat="44.425976563987916" lon="9.48024830226873"><ele>793.0</ele><time>2026-04-19T07:19:10.998Z</time></trkpt><trkpt lat="44.42608697931064" lon="9.480318470429761"><ele>788.75</ele><time>2026-04-19T07:19:11.998Z</time></trkpt><trkpt lat="44.426207691696405" lon="9.480411370945482"><ele>784.5</ele><time>2026-04-19T07:19:13Z</time></trkpt><trkpt lat="44.42634661828658" lon="9.480496872823775"><ele>780.25</ele><time>2026-04-19T07:19:14Z</time></trkpt><trkpt lat="44.42647603984961" lon="9.48057737852151"><ele>776.0</ele><time>2026-04-19T07:19:15Z</time></trkpt><trkpt lat="44.42658040396921" lon="9.480675601319982"><ele>775.0</ele><time>2026-04-19T07:19:16Z</time></trkpt><trkpt lat="44.426625241070504" lon="9.480819213106292"><ele>774.0</ele><time>2026-04-19T07:19:17Z</time></trkpt><trkpt lat="44.426642533067024" lon="9.481010498777145"><ele>773.0</ele><time>2026-04-19T07:19:18Z</time></trkpt><trkpt lat="44.42666047092761" lon="9.481205763495758"><ele>772.0</ele><time>2026-04-19T07:19:19Z</time></trkpt><trkpt lat="44.426699886150985" lon="9.481348067277654"><ele>772.0</ele><time>2026-04-19T07:19:20Z</time></trkpt><trkpt lat="44.42675660692086" lon="9.481451707470342"><ele>772.0</ele><time>2026-04-19T07:19:21Z</time></trkpt><trkpt lat="44.42686590448525" lon="9.48147995324579"><ele>772.0</ele><time>2026-04-19T07:19:22Z</time></trkpt><trkpt lat="44.42697456416278" lon="9.481373673041194"><ele>772.0</ele><time>2026-04-19T07:19:23Z</time></trkpt><trkpt lat="44.42705135347214" lon="9.481217662318102"><ele>772.0</ele><time>2026-04-19T07:19:24Z</time></trkpt><trkpt lat="44.42712034977969" lon="9.481079366630256"><ele>772.0</ele><time>2026-04-19T07:19:25Z</time></trkpt><trkpt lat="44.427222707238776" lon="9.481053814758502"><ele>772.0</ele><time>2026-04-19T07:19:26Z</time></trkpt><trkpt lat="44.42733827133377" lon="9.48112922946407"><ele>772.0</ele><time>2026-04-19T07:19:27Z</time></trkpt><trkpt lat="44.427483921376414" lon="9.481237131732575"><ele>774.6666666666666</ele><time>2026-04-19T07:19:28Z</time></trkpt><trkpt lat="44.427624973774925" lon="9.481349866954487"><ele>777.3333333333333</ele><time>2026-04-19T07:19:29Z</time></trkpt><trkpt lat="44.42771062379208" lon="9.48153755804896"><ele>780.0</ele><time>2026-04-19T07:19:30Z</time></trkpt><trkpt lat="44.42779936914925" lon="9.481770416663643"><ele>780.0</ele><time>2026-04-19T07:19:31Z</time></trkpt><trkpt lat="44.42788444976923" lon="9.482005095858042"><ele>780.0</ele><time>2026-04-19T07:19:32Z</time></trkpt><trkpt lat="44.42799985160304" lon="9.482233078118579"><ele>780.0</ele><time>2026-04-19T07:19:33Z</time></trkpt><trkpt lat="44.42810145102006" lon="9.482440911566536"><ele>774.3333333333334</ele><time>2026-04-19T07:19:34Z</time></trkpt><trkpt lat="44.4282162937343" lon="9.482631723594782"><ele>768.6666666666667</ele><time>2026-04-19T07:19:35Z</time></trkpt><trkpt lat="44.42833161961651" lon="9.482807594215856"><ele>763.0</ele><time>2026-04-19T07:19:36Z</time></trkpt><trkpt lat="44.42852576606745" lon="9.482874385439882"><ele>761.3333333333334</ele><time>2026-04-19T07:19:37Z</time></trkpt><trkpt lat="44.428696212048706" lon="9.48298699995318"><ele>759.6666666666666</ele><time>2026-04-19T07:19:38Z</time></trkpt><trkpt lat="44.42885900959923" lon="9.48314887011497"><ele>758.0</ele><time>2026-04-19T07:19:39Z</time></trkpt><trkpt lat="44.4290342534552" lon="9.483279987377658"><ele>758.0</ele><time>2026-04-19T07:19:40Z</time></trkpt><trkpt lat="44.4291966510825" lon="9.483417653190582"><ele>758.0</ele><time>2026-04-19T07:19:41Z</time></trkpt><trkpt lat="44.429345522263006" lon="9.483558110604317"><ele>758.0</ele><time>2026-04-19T07:19:42Z</time></trkpt><trkpt lat="44.42950606058367" lon="9.483640921172102"><ele>757.0</ele><time>2026-04-19T07:19:43Z</time></trkpt><trkpt lat="44.42967186381149" lon="9.483677107230765"><ele>756.0</ele><time>2026-04-19T07:19:44Z</time></trkpt><trkpt lat="44.42978958996223" lon="9.483804361276176"><ele>755.0</ele><time>2026-04-19T07:19:45Z</time></trkpt><trkpt lat="44.42986271750836" lon="9.483986599078666"><ele>755.0</ele><time>2026-04-19T07:19:46Z</time></trkpt><trkpt lat="44.4299397419887" lon="9.48419341578104"><ele>755.0</ele><time>2026-04-19T07:19:47Z</time></trkpt><trkpt lat="44.42999821624985" lon="9.484393758856138"><ele>755.0</ele><time>2026-04-19T07:19:48Z</time></trkpt><trkpt lat="44.43006573314673" lon="9.484552378373463"><ele>755.25</ele><time>2026-04-19T07:19:49Z</time></trkpt><trkpt lat="44.430105047893825" lon="9.48469264440066"><ele>755.5</ele><time>2026-04-19T07:19:50Z</time></trkpt><trkpt lat="44.43018097240988" lon="9.484775015539778"><ele>755.75</ele><time>2026-04-19T07:19:51Z</time></trkpt><trkpt lat="44.430371385049654" lon="9.484731220683077"><ele>756.0</ele><time>2026-04-19T07:19:52Z</time></trkpt><trkpt lat="44.430507079678634" lon="9.484698594004481"><ele>756.0</ele><time>2026-04-19T07:19:53Z</time></trkpt><trkpt lat="44.43062852169618" lon="9.484745047229788"><ele>756.0</ele><time>2026-04-19T07:19:54Z</time></trkpt><trkpt lat="44.43072766594607" lon="9.484822578309624"><ele>756.0</ele><time>2026-04-19T07:19:55Z</time></trkpt><trkpt lat="44.43087342735838" lon="9.484936300898426"><ele>756.0</ele><time>2026-04-19T07:19:56Z</time></trkpt><trkpt lat="44.431021148101216" lon="9.485064244512639"><ele>756.0</ele><time>2026-04-19T07:19:57Z</time></trkpt><trkpt lat="44.431144892738054" lon="9.485230719582551"><ele>756.0</ele><time>2026-04-19T07:19:58Z</time></trkpt><trkpt lat="44.431280029004085" lon="9.485454446624836"><ele>756.0</ele><time>2026-04-19T07:19:59Z</time></trkpt><trkpt lat="44.43135887812058" lon="9.485725361271937"><ele>750.3333333333334</ele><time>2026-04-19T07:20:00Z</time></trkpt><trkpt lat="44.43143456326594" lon="9.485966098485356"><ele>744.6666666666667</ele><time>2026-04-19T07:20:01Z</time></trkpt><trkpt lat="44.43151550885574" lon="9.48618763019301"><ele>739.0</ele><time>2026-04-19T07:20:02Z</time></trkpt><trkpt lat="44.43160247682304" lon="9.486410782107258"><ele>739.0</ele><time>2026-04-19T07:20:03Z</time></trkpt><trkpt lat="44.431664924646334" lon="9.486651563728653"><ele>739.0</ele><time>2026-04-19T07:20:04Z</time></trkpt><trkpt lat="44.43167702745615" lon="9.48692951983432"><ele>739.0</ele><time>2026-04-19T07:20:05Z</time></trkpt><trkpt lat="44.43168581756449" lon="9.487194915340813"><ele>738.6666666666667</ele><time>2026-04-19T07:20:06Z</time></trkpt><trkpt lat="44.431670835140196" lon="9.487480449701543"><ele>738.3333333333334</ele><time>2026-04-19T07:20:07Z</time></trkpt><trkpt lat="44.43166337278451" lon="9.48777829468417"><ele>738.0</ele><time>2026-04-19T07:20:08Z</time></trkpt><trkpt lat="44.43165840572101" lon="9.48808113840225"><ele>736.0</ele><time>2026-04-19T07:20:09Z</time></trkpt><trkpt lat="44.431655389078635" lon="9.488374609712022"><ele>734.0</ele><time>2026-04-19T07:20:09.999Z</time></trkpt><trkpt lat="44.431658008802344" lon="9.488648840428567"><ele>732.0</ele><time>2026-04-19T07:20:10.999Z</time></trkpt><trkpt lat="44.431663050618106" lon="9.48891429499586"><ele>731.0</ele><time>2026-04-19T07:20:11.999Z</time></trkpt><trkpt lat="44.43166831030993" lon="9.489164801333807"><ele>730.0</ele><time>2026-04-19T07:20:12.999Z</time></trkpt><trkpt lat="44.431671357321484" lon="9.489406590780458"><ele>729.0</ele><time>2026-04-19T07:20:13.999Z</time></trkpt><trkpt lat="44.43166338121795" lon="9.489638821380353"><ele>727.6666666666666</ele><time>2026-04-19T07:20:14.999Z</time></trkpt><trkpt lat="44.43163144935978" lon="9.489855023413973"><ele>726.3333333333333</ele><time>2026-04-19T07:20:15.999Z</time></trkpt><trkpt lat="44.43155189099536" lon="9.490040141444512"><ele>725.0</ele><time>2026-04-19T07:20:16.999Z</time></trkpt><trkpt lat="44.43143578793542" lon="9.490184539419625"><ele>728.0</ele><time>2026-04-19T07:20:17.999Z</time></trkpt><trkpt lat="44.43129842303374" lon="9.490291978936703"><ele>731.0</ele><time>2026-04-19T07:20:18.999Z</time></trkpt><trkpt lat="44.4311833291152" lon="9.490372078120261"><ele>734.0</ele><time>2026-04-19T07:20:19.999Z</time></trkpt><trkpt lat="44.43112868398218" lon="9.490484061777206"><ele>737.0</ele><time>2026-04-19T07:20:20.999Z</time></trkpt><trkpt lat="44.431141412998045" lon="9.490642953826969"><ele>737.0</ele><time>2026-04-19T07:20:21.999Z</time></trkpt><trkpt lat="44.431218040178784" lon="9.490790199731908"><ele>737.0</ele><time>2026-04-19T07:20:22.999Z</time></trkpt><trkpt lat="44.43133712970375" lon="9.490900678784278"><ele>737.0</ele><time>2026-04-19T07:20:23.999Z</time></trkpt><trkpt lat="44.431474380537544" lon="9.490992615199604"><ele>737.0</ele><time>2026-04-19T07:20:24.999Z</time></trkpt><trkpt lat="44.43155619485161" lon="9.491136931833086"><ele>732.6666666666666</ele><time>2026-04-19T07:20:25.999Z</time></trkpt><trkpt lat="44.43158078317018" lon="9.491376687435846"><ele>728.3333333333334</ele><time>2026-04-19T07:20:26.999Z</time></trkpt><trkpt lat="44.431634256646845" lon="9.491602330081403"><ele>724.0</ele><time>2026-04-19T07:20:27.999Z</time></trkpt><trkpt lat="44.43172307646811" lon="9.491767480332765"><ele>724.0</ele><time>2026-04-19T07:20:28.999Z</time></trkpt><trkpt lat="44.431850390328755" lon="9.491893540626107"><ele>724.0</ele><time>2026-04-19T07:20:29.999Z</time></trkpt><trkpt lat="44.43194499278515" lon="9.492035512962419"><ele>724.0</ele><time>2026-04-19T07:20:30.999Z</time></trkpt><trkpt lat="44.43197014112839" lon="9.492261949030834"><ele>727.3333333333334</ele><time>2026-04-19T07:20:31.999Z</time></trkpt><trkpt lat="44.431980085585984" lon="9.49250039462082"><ele>730.6666666666666</ele><time>2026-04-19T07:20:32.999Z</time></trkpt><trkpt lat="44.43197677713988" lon="9.492720447246201"><ele>734.0</ele><time>2026-04-19T07:20:33.999Z</time></trkpt><trkpt lat="44.43206510750291" lon="9.492931738259548"><ele>736.25</ele><time>2026-04-19T07:20:34.999Z</time></trkpt><trkpt lat="44.43202753215581" lon="9.493140980829663"><ele>738.5</ele><time>2026-04-19T07:20:35.999Z</time></trkpt><trkpt lat="44.432001640225856" lon="9.493343767083868"><ele>740.75</ele><time>2026-04-19T07:20:36.999Z</time></trkpt><trkpt lat="44.431993951523424" lon="9.493522761724236"><ele>743.0</ele><time>2026-04-19T07:20:37.999Z</time></trkpt><trkpt lat="44.43203553638275" lon="9.493694414507626"><ele>740.0</ele><time>2026-04-19T07:20:38.999Z</time></trkpt><trkpt lat="44.43212199988519" lon="9.49379026709797"><ele>737.0</ele><time>2026-04-19T07:20:39.999Z</time></trkpt><trkpt lat="44.43224457562152" lon="9.493804936367278"><ele>734.0</ele><time>2026-04-19T07:20:40.999Z</time></trkpt><trkpt lat="44.43237950494492" lon="9.493804034562698"><ele>731.0</ele><time>2026-04-19T07:20:41.999Z</time></trkpt><trkpt lat="44.43250223720173" lon="9.493822719815256"><ele>728.4</ele><time>2026-04-19T07:20:42.999Z</time></trkpt><trkpt lat="44.43261152022614" lon="9.49386289884721"><ele>725.8</ele><time>2026-04-19T07:20:43.999Z</time></trkpt><trkpt lat="44.43267827873778" lon="9.493948244889022"><ele>723.1999999999999</ele><time>2026-04-19T07:20:44.999Z</time></trkpt><trkpt lat="44.43269191739495" lon="9.49409137669907"><ele>720.5999999999999</ele><time>2026-04-19T07:20:45.999Z</time></trkpt><trkpt lat="44.43266495804809" lon="9.494279577485518"><ele>718.0</ele><time>2026-04-19T07:20:46.999Z</time></trkpt><trkpt lat="44.43262163213655" lon="9.494447780714816"><ele>719.0</ele><time>2026-04-19T07:20:47.999Z</time></trkpt><trkpt lat="44.43257772075071" lon="9.494649449776704"><ele>720.0</ele><time>2026-04-19T07:20:48.999Z</time></trkpt><trkpt lat="44.43252696453598" lon="9.494835154133986"><ele>721.0</ele><time>2026-04-19T07:20:49.999Z</time></trkpt><trkpt lat="44.43248098717211" lon="9.495059212879964"><ele>721.0</ele><time>2026-04-19T07:20:50.999Z</time></trkpt><trkpt lat="44.43242652845374" lon="9.495274456172455"><ele>721.0</ele><time>2026-04-19T07:20:51.999Z</time></trkpt><trkpt lat="44.43238785988093" lon="9.495484758599282"><ele>721.0</ele><time>2026-04-19T07:20:52.999Z</time></trkpt><trkpt lat="44.43235430051372" lon="9.49570198457585"><ele>724.0</ele><time>2026-04-19T07:20:53.999Z</time></trkpt><trkpt lat="44.4323255732615" lon="9.495924079578538"><ele>727.0</ele><time>2026-04-19T07:20:54.999Z</time></trkpt><trkpt lat="44.432263418621964" lon="9.496141380665511"><ele>730.0</ele><time>2026-04-19T07:20:55.999Z</time></trkpt><trkpt lat="44.43216397131151" lon="9.49630324813264"><ele>727.0</ele><time>2026-04-19T07:20:56.999Z</time></trkpt><trkpt lat="44.432010581147495" lon="9.49646029946103"><ele>724.0</ele><time>2026-04-19T07:20:57.999Z</time></trkpt><trkpt lat="44.43190459323885" lon="9.496643580097306"><ele>721.0</ele><time>2026-04-19T07:20:58.999Z</time></trkpt><trkpt lat="44.431814953502226" lon="9.496853445512446"><ele>721.0</ele><time>2026-04-19T07:20:59.999Z</time></trkpt><trkpt lat="44.431730705020264" lon="9.49706188279321"><ele>721.0</ele><time>2026-04-19T07:21:00.999Z</time></trkpt><trkpt lat="44.43164364487901" lon="9.497261024460984"><ele>721.0</ele><time>2026-04-19T07:21:01.999Z</time></trkpt><trkpt lat="44.431574969839964" lon="9.497450186605228"><ele>724.0</ele><time>2026-04-19T07:21:02.999Z</time></trkpt><trkpt lat="44.431520427889126" lon="9.497640085354774"><ele>727.0</ele><time>2026-04-19T07:21:03.998Z</time></trkpt><trkpt lat="44.43147124282517" lon="9.497825383962846"><ele>730.0</ele><time>2026-04-19T07:21:04.998Z</time></trkpt><trkpt lat="44.431427772318315" lon="9.498000771225474"><ele>733.0</ele><time>2026-04-19T07:21:05.998Z</time></trkpt><trkpt lat="44.431409662585104" lon="9.498197099848953"><ele>733.6666666666667</ele><time>2026-04-19T07:21:06.998Z</time></trkpt><trkpt lat="44.43144971830523" lon="9.498418841235507"><ele>734.3333333333334</ele><time>2026-04-19T07:21:07.998Z</time></trkpt><trkpt lat="44.431522023202525" lon="9.498641269772948"><ele>735.0</ele><time>2026-04-19T07:21:08.998Z</time></trkpt><trkpt lat="44.43161700760702" lon="9.498863978615388"><ele>729.3333333333334</ele><time>2026-04-19T07:21:09.998Z</time></trkpt><trkpt lat="44.43169682420024" lon="9.499075007460277"><ele>723.6666666666667</ele><time>2026-04-19T07:21:10.998Z</time></trkpt><trkpt lat="44.43178955622169" lon="9.499286508334349"><ele>718.0</ele><time>2026-04-19T07:21:11.998Z</time></trkpt><trkpt lat="44.431897289545034" lon="9.499478004904574"><ele>715.0</ele><time>2026-04-19T07:21:12.998Z</time></trkpt><trkpt lat="44.43201321873334" lon="9.499642471406622"><ele>712.0</ele><time>2026-04-19T07:21:13.998Z</time></trkpt><trkpt lat="44.432061984082296" lon="9.499860816168686"><ele>709.0</ele><time>2026-04-19T07:21:14.998Z</time></trkpt><trkpt lat="44.43208038741851" lon="9.500125472123303"><ele>709.0</ele><time>2026-04-19T07:21:15.998Z</time></trkpt><trkpt lat="44.43209053932307" lon="9.500384837367926"><ele>709.0</ele><time>2026-04-19T07:21:16.998Z</time></trkpt><trkpt lat="44.43209289952871" lon="9.500623145572117"><ele>709.0</ele><time>2026-04-19T07:21:17.998Z</time></trkpt><trkpt lat="44.432077696535174" lon="9.50082380364088"><ele>708.0</ele><time>2026-04-19T07:21:19Z</time></trkpt><trkpt lat="44.432043944340194" lon="9.50103597383838"><ele>707.0</ele><time>2026-04-19T07:21:20Z</time></trkpt><trkpt lat="44.432102139916665" lon="9.501227983368471"><ele>706.0</ele><time>2026-04-19T07:21:21Z</time></trkpt><trkpt lat="44.43220165917119" lon="9.501404249770504"><ele>709.0</ele><time>2026-04-19T07:21:22Z</time></trkpt><trkpt lat="44.43227698812202" lon="9.50155568236637"><ele>712.0</ele><time>2026-04-19T07:21:23Z</time></trkpt><trkpt lat="44.43227050948936" lon="9.501774533562918"><ele>715.0</ele><time>2026-04-19T07:21:24Z</time></trkpt><trkpt lat="44.43222650571387" lon="9.501971504200128"><ele>718.0</ele><time>2026-04-19T07:21:25Z</time></trkpt><trkpt lat="44.432186893632455" lon="9.5021568013319"><ele>711.0</ele><time>2026-04-19T07:21:26Z</time></trkpt><trkpt lat="44.43198482445501" lon="9.502436682014967"><ele>704.0</ele><time>2026-04-19T07:21:27Z</time></trkpt><trkpt lat="44.43197964455724" lon="9.502688565771697"><ele>704.0</ele><time>2026-04-19T07:21:28Z</time></trkpt><trkpt lat="44.43202260617317" lon="9.502948862786422"><ele>704.0</ele><time>2026-04-19T07:21:29Z</time></trkpt><trkpt lat="44.432059695606064" lon="9.503209777437199"><ele>704.0</ele><time>2026-04-19T07:21:30Z</time></trkpt><trkpt lat="44.432092757030645" lon="9.503480910030925"><ele>704.3333333333333</ele><time>2026-04-19T07:21:31Z</time></trkpt><trkpt lat="44.43212041996405" lon="9.503748437052822"><ele>704.6666666666666</ele><time>2026-04-19T07:21:32Z</time></trkpt><trkpt lat="44.432160758315746" lon="9.504015027955775"><ele>705.0</ele><time>2026-04-19T07:21:33Z</time></trkpt><trkpt lat="44.43222316015494" lon="9.504267464140051"><ele>709.6666666666666</ele><time>2026-04-19T07:21:34Z</time></trkpt><trkpt lat="44.43230269238494" lon="9.50451308917615"><ele>714.3333333333333</ele><time>2026-04-19T07:21:35Z</time></trkpt><trkpt lat="44.43237018086075" lon="9.5047616220288"><ele>719.0</ele><time>2026-04-19T07:21:36Z</time></trkpt><trkpt lat="44.43239962170397" lon="9.50501552161238"><ele>719.0</ele><time>2026-04-19T07:21:37Z</time></trkpt><trkpt lat="44.43239572988404" lon="9.50527715174666"><ele>719.0</ele><time>2026-04-19T07:21:38Z</time></trkpt><trkpt lat="44.432358708569375" lon="9.505529957665715"><ele>719.0</ele><time>2026-04-19T07:21:39Z</time></trkpt><trkpt lat="44.43229676596786" lon="9.505774207454431"><ele>719.0</ele><time>2026-04-19T07:21:40Z</time></trkpt><trkpt lat="44.43221239031294" lon="9.50600267034853"><ele>719.0</ele><time>2026-04-19T07:21:41Z</time></trkpt><trkpt lat="44.432107226337585" lon="9.506189880735306"><ele>719.0</ele><time>2026-04-19T07:21:42Z</time></trkpt><trkpt lat="44.43196391891541" lon="9.50630922376189"><ele>719.0</ele><time>2026-04-19T07:21:43Z</time></trkpt><trkpt lat="44.43179344553933" lon="9.506370790140267"><ele>719.0</ele><time>2026-04-19T07:21:44Z</time></trkpt><trkpt lat="44.431617579424916" lon="9.5064468867917"><ele>719.0</ele><time>2026-04-19T07:21:45Z</time></trkpt><trkpt lat="44.431463239224584" lon="9.506596333514025"><ele>719.0</ele><time>2026-04-19T07:21:46Z</time></trkpt><trkpt lat="44.43131838623171" lon="9.506760457236462"><ele>719.0</ele><time>2026-04-19T07:21:47Z</time></trkpt><trkpt lat="44.43117666607461" lon="9.506913952015655"><ele>719.0</ele><time>2026-04-19T07:21:48Z</time></trkpt><trkpt lat="44.43107461759806" lon="9.507081180509713"><ele>715.5</ele><time>2026-04-19T07:21:49Z</time></trkpt><trkpt lat="44.43102153846291" lon="9.507265811911767"><ele>712.0</ele><time>2026-04-19T07:21:50Z</time></trkpt><trkpt lat="44.43102387073898" lon="9.507460440023356"><ele>708.5</ele><time>2026-04-19T07:21:51Z</time></trkpt><trkpt lat="44.431054786737796" lon="9.507682446457897"><ele>705.0</ele><time>2026-04-19T07:21:52Z</time></trkpt><trkpt lat="44.43106518693095" lon="9.50789782434437"><ele>706.3333333333334</ele><time>2026-04-19T07:21:53Z</time></trkpt><trkpt lat="44.43101115172686" lon="9.508070146985943"><ele>707.6666666666667</ele><time>2026-04-19T07:21:54Z</time></trkpt><trkpt lat="44.43088617736358" lon="9.508234509711205"><ele>709.0</ele><time>2026-04-19T07:21:55Z</time></trkpt><trkpt lat="44.43080481751593" lon="9.508418208869458"><ele>709.0</ele><time>2026-04-19T07:21:56Z</time></trkpt><trkpt lat="44.430801542212855" lon="9.508645137077384"><ele>709.0</ele><time>2026-04-19T07:21:57Z</time></trkpt><trkpt lat="44.43084200047059" lon="9.508907440359726"><ele>709.0</ele><time>2026-04-19T07:21:58Z</time></trkpt><trkpt lat="44.430842393222235" lon="9.509138937243259"><ele>710.0</ele><time>2026-04-19T07:21:59Z</time></trkpt><trkpt lat="44.430758678551975" lon="9.509373731090113"><ele>711.0</ele><time>2026-04-19T07:22:00Z</time></trkpt><trkpt lat="44.430644097785425" lon="9.509599722268792"><ele>712.0</ele><time>2026-04-19T07:22:01Z</time></trkpt><trkpt lat="44.43053634165397" lon="9.509818097888271"><ele>708.6666666666667</ele><time>2026-04-19T07:22:02Z</time></trkpt><trkpt lat="44.43044354919909" lon="9.510039226913884"><ele>705.3333333333334</ele><time>2026-04-19T07:22:03Z</time></trkpt><trkpt lat="44.43039854309166" lon="9.510283221387066"><ele>702.0</ele><time>2026-04-19T07:22:04Z</time></trkpt><trkpt lat="44.43036486501962" lon="9.510552579432742"><ele>702.0</ele><time>2026-04-19T07:22:05Z</time></trkpt><trkpt lat="44.43025723744255" lon="9.51076487974736"><ele>702.0</ele><time>2026-04-19T07:22:06Z</time></trkpt><trkpt lat="44.430092451521894" lon="9.51093061577858"><ele>702.0</ele><time>2026-04-19T07:22:07Z</time></trkpt><trkpt lat="44.429925474165486" lon="9.511060861426545"><ele>705.3333333333334</ele><time>2026-04-19T07:22:08Z</time></trkpt><trkpt lat="44.42979337716553" lon="9.511244355029751"><ele>708.6666666666667</ele><time>2026-04-19T07:22:09Z</time></trkpt><trkpt lat="44.42969742347239" lon="9.511475436443295"><ele>712.0</ele><time>2026-04-19T07:22:10Z</time></trkpt><trkpt lat="44.429644281259286" lon="9.511720583182674"><ele>706.3333333333334</ele><time>2026-04-19T07:22:11Z</time></trkpt><trkpt lat="44.429616349601325" lon="9.511979908690265"><ele>700.6666666666666</ele><time>2026-04-19T07:22:12Z</time></trkpt><trkpt lat="44.42959335531545" lon="9.512233459791771"><ele>695.0</ele><time>2026-04-19T07:22:13Z</time></trkpt><trkpt lat="44.429564568010974" lon="9.512484846121048"><ele>694.6666666666666</ele><time>2026-04-19T07:22:14Z</time></trkpt><trkpt lat="44.42952800929391" lon="9.512746956157693"><ele>694.3333333333334</ele><time>2026-04-19T07:22:15Z</time></trkpt><trkpt lat="44.42949286492924" lon="9.513006831235037"><ele>694.0</ele><time>2026-04-19T07:22:16Z</time></trkpt><trkpt lat="44.429439929469034" lon="9.513260066408789"><ele>694.6666666666667</ele><time>2026-04-19T07:22:17Z</time></trkpt><trkpt lat="44.42938797000899" lon="9.513523391534216"><ele>695.3333333333334</ele><time>2026-04-19T07:22:17.999Z</time></trkpt><trkpt lat="44.429350212013176" lon="9.513780826002815"><ele>696.0</ele><time>2026-04-19T07:22:18.999Z</time></trkpt><trkpt lat="44.42932360028736" lon="9.514053438159987"><ele>697.0</ele><time>2026-04-19T07:22:19.999Z</time></trkpt><trkpt lat="44.42930342611168" lon="9.51431850087915"><ele>698.0</ele><time>2026-04-19T07:22:20.999Z</time></trkpt><trkpt lat="44.429282035570246" lon="9.514585561454258"><ele>699.0</ele><time>2026-04-19T07:22:21.999Z</time></trkpt><trkpt lat="44.42923730129837" lon="9.514840662036164"><ele>700.6666666666666</ele><time>2026-04-19T07:22:22.999Z</time></trkpt><trkpt lat="44.429148430015495" lon="9.515066801145627"><ele>702.3333333333333</ele><time>2026-04-19T07:22:23.999Z</time></trkpt><trkpt lat="44.429030727989975" lon="9.515273680938115"><ele>704.0</ele><time>2026-04-19T07:22:24.999Z</time></trkpt><trkpt lat="44.428905604861804" lon="9.515477781021353"><ele>703.3333333333333</ele><time>2026-04-19T07:22:25.999Z</time></trkpt><trkpt lat="44.42878314145412" lon="9.51568040506138"><ele>702.6666666666666</ele><time>2026-04-19T07:22:26.999Z</time></trkpt><trkpt lat="44.42866845509705" lon="9.515880809255158"><ele>702.0</ele><time>2026-04-19T07:22:27.999Z</time></trkpt><trkpt lat="44.42854902786973" lon="9.516084440916574"><ele>704.6666666666666</ele><time>2026-04-19T07:22:28.999Z</time></trkpt><trkpt lat="44.42842180008051" lon="9.516267586513687"><ele>707.3333333333333</ele><time>2026-04-19T07:22:29.999Z</time></trkpt><trkpt lat="44.42828575369761" lon="9.51641405783237"><ele>710.0</ele><time>2026-04-19T07:22:30.999Z</time></trkpt><trkpt lat="44.42814441367174" lon="9.516525959790997"><ele>710.0</ele><time>2026-04-19T07:22:31.999Z</time></trkpt><trkpt lat="44.42801008625915" lon="9.516620796046972"><ele>710.0</ele><time>2026-04-19T07:22:32.999Z</time></trkpt><trkpt lat="44.42788953855693" lon="9.516719689286917"><ele>710.0</ele><time>2026-04-19T07:22:33.999Z</time></trkpt><trkpt lat="44.42779870771911" lon="9.51682870466803"><ele>710.0</ele><time>2026-04-19T07:22:34.999Z</time></trkpt><trkpt lat="44.42776550374704" lon="9.51696837273634"><ele>709.75</ele><time>2026-04-19T07:22:35.999Z</time></trkpt><trkpt lat="44.427783087934785" lon="9.517112117094536"><ele>709.5</ele><time>2026-04-19T07:22:36.999Z</time></trkpt><trkpt lat="44.42784338397624" lon="9.51723695041925"><ele>709.25</ele><time>2026-04-19T07:22:37.999Z</time></trkpt><trkpt lat="44.42794039733829" lon="9.517365572330052"><ele>709.0</ele><time>2026-04-19T07:22:38.999Z</time></trkpt><trkpt lat="44.428045454562636" lon="9.517502472513762"><ele>709.0</ele><time>2026-04-19T07:22:39.999Z</time></trkpt><trkpt lat="44.42815478438809" lon="9.517670113059573"><ele>709.0</ele><time>2026-04-19T07:22:40.999Z</time></trkpt><trkpt lat="44.42826692502147" lon="9.517841903809108"><ele>709.0</ele><time>2026-04-19T07:22:41.999Z</time></trkpt><trkpt lat="44.428378370324" lon="9.51803097647033"><ele>705.3333333333334</ele><time>2026-04-19T07:22:42.999Z</time></trkpt><trkpt lat="44.42847006433436" lon="9.518244148354324"><ele>701.6666666666666</ele><time>2026-04-19T07:22:43.999Z</time></trkpt><trkpt lat="44.42853268943475" lon="9.518476818484983"><ele>698.0</ele><time>2026-04-19T07:22:44.999Z</time></trkpt><trkpt lat="44.42858871425049" lon="9.518713424569777"><ele>695.6666666666666</ele><time>2026-04-19T07:22:45.999Z</time></trkpt><trkpt lat="44.428625662480655" lon="9.518945699222995"><ele>693.3333333333334</ele><time>2026-04-19T07:22:46.999Z</time></trkpt><trkpt lat="44.42863132872774" lon="9.519185191889513"><ele>691.0</ele><time>2026-04-19T07:22:47.999Z</time></trkpt><trkpt lat="44.428605084815985" lon="9.519428072488592"><ele>694.0</ele><time>2026-04-19T07:22:48.999Z</time></trkpt><trkpt lat="44.428559688204395" lon="9.519657389577132"><ele>697.0</ele><time>2026-04-19T07:22:49.999Z</time></trkpt><trkpt lat="44.428482029939104" lon="9.519862401351412"><ele>700.0</ele><time>2026-04-19T07:22:50.999Z</time></trkpt><trkpt lat="44.42836638844915" lon="9.520054144392105"><ele>700.0</ele><time>2026-04-19T07:22:51.999Z</time></trkpt><trkpt lat="44.42823682790967" lon="9.52023706530433"><ele>700.0</ele><time>2026-04-19T07:22:52.999Z</time></trkpt><trkpt lat="44.42810077047365" lon="9.52042858571058"><ele>700.0</ele><time>2026-04-19T07:22:53.999Z</time></trkpt><trkpt lat="44.42795733296313" lon="9.520591801515089"><ele>701.0</ele><time>2026-04-19T07:22:54.999Z</time></trkpt><trkpt lat="44.427791540753894" lon="9.520742510388692"><ele>702.0</ele><time>2026-04-19T07:22:55.999Z</time></trkpt><trkpt lat="44.427621112203425" lon="9.520871496849812"><ele>703.0</ele><time>2026-04-19T07:22:56.999Z</time></trkpt><trkpt lat="44.42743402190473" lon="9.52094348124149"><ele>703.0</ele><time>2026-04-19T07:22:57.999Z</time></trkpt><trkpt lat="44.42724054752082" lon="9.520979985241999"><ele>703.0</ele><time>2026-04-19T07:22:58.999Z</time></trkpt><trkpt lat="44.42704051399438" lon="9.520988573470309"><ele>703.0</ele><time>2026-04-19T07:22:59.999Z</time></trkpt><trkpt lat="44.426838726630386" lon="9.520967720839952"><ele>702.0</ele><time>2026-04-19T07:23:00.999Z</time></trkpt><trkpt lat="44.426641020006784" lon="9.520940674355835"><ele>701.0</ele><time>2026-04-19T07:23:01.999Z</time></trkpt><trkpt lat="44.42644129787247" lon="9.520933490990732"><ele>700.0</ele><time>2026-04-19T07:23:02.999Z</time></trkpt><trkpt lat="44.42625432921925" lon="9.520928692854364"><ele>698.0</ele><time>2026-04-19T07:23:03.999Z</time></trkpt><trkpt lat="44.426078165175674" lon="9.52090245793319"><ele>696.0</ele><time>2026-04-19T07:23:04.999Z</time></trkpt><trkpt lat="44.42592018475572" lon="9.52084859249622"><ele>694.0</ele><time>2026-04-19T07:23:05.999Z</time></trkpt><trkpt lat="44.42577729599577" lon="9.520774119711197"><ele>694.0</ele><time>2026-04-19T07:23:06.999Z</time></trkpt><trkpt lat="44.42564700172785" lon="9.520721170514514"><ele>694.0</ele><time>2026-04-19T07:23:07.999Z</time></trkpt><trkpt lat="44.42553218657104" lon="9.520740505691997"><ele>694.0</ele><time>2026-04-19T07:23:08.999Z</time></trkpt><trkpt lat="44.42543938689173" lon="9.52082835938126"><ele>694.0</ele><time>2026-04-19T07:23:09.999Z</time></trkpt><trkpt lat="44.425387534312115" lon="9.520975200294087"><ele>691.75</ele><time>2026-04-19T07:23:10.998Z</time></trkpt><trkpt lat="44.42537614439201" lon="9.521158941675615"><ele>689.5</ele><time>2026-04-19T07:23:11.998Z</time></trkpt><trkpt lat="44.42543055306155" lon="9.521351477516117"><ele>687.25</ele><time>2026-04-19T07:23:12.998Z</time></trkpt><trkpt lat="44.425514407753305" lon="9.521536748672627"><ele>685.0</ele><time>2026-04-19T07:23:13.998Z</time></trkpt><trkpt lat="44.42560319245726" lon="9.521720785419236"><ele>687.0</ele><time>2026-04-19T07:23:14.998Z</time></trkpt><trkpt lat="44.42567435665253" lon="9.521930244348077"><ele>689.0</ele><time>2026-04-19T07:23:15.998Z</time></trkpt><trkpt lat="44.425754116004384" lon="9.522156319043583"><ele>691.0</ele><time>2026-04-19T07:23:16.998Z</time></trkpt><trkpt lat="44.42583753556393" lon="9.52237893184989"><ele>691.0</ele><time>2026-04-19T07:23:17.998Z</time></trkpt><trkpt lat="44.425940485074825" lon="9.522579338389505"><ele>691.0</ele><time>2026-04-19T07:23:18.998Z</time></trkpt><trkpt lat="44.42604872236653" lon="9.522762653676393"><ele>691.0</ele><time>2026-04-19T07:23:19.998Z</time></trkpt><trkpt lat="44.42618023234953" lon="9.522922147075242"><ele>689.0</ele><time>2026-04-19T07:23:20.998Z</time></trkpt><trkpt lat="44.42633695040077" lon="9.523027694047773"><ele>687.0</ele><time>2026-04-19T07:23:21.998Z</time></trkpt><trkpt lat="44.426512783304034" lon="9.523102322650447"><ele>685.0</ele><time>2026-04-19T07:23:22.998Z</time></trkpt><trkpt lat="44.42669683509986" lon="9.5231581303379"><ele>685.0</ele><time>2026-04-19T07:23:23.998Z</time></trkpt><trkpt lat="44.42687209546805" lon="9.523195264005748"><ele>685.0</ele><time>2026-04-19T07:23:25.001Z</time></trkpt><trkpt lat="44.42704889647508" lon="9.523253089286257"><ele>685.0</ele><time>2026-04-19T07:23:26.001Z</time></trkpt><trkpt lat="44.42720241896605" lon="9.523383111465696"><ele>685.0</ele><time>2026-04-19T07:23:27.001Z</time></trkpt><trkpt lat="44.427336524955564" lon="9.523583017204658"><ele>685.0</ele><time>2026-04-19T07:23:28.001Z</time></trkpt><trkpt lat="44.42746190795637" lon="9.523790172001647"><ele>685.0</ele><time>2026-04-19T07:23:29.001Z</time></trkpt><trkpt lat="44.42760063800456" lon="9.52401224983149"><ele>685.0</ele><time>2026-04-19T07:23:30.001Z</time></trkpt><trkpt lat="44.42773840096463" lon="9.52422081581056"><ele>685.0</ele><time>2026-04-19T07:23:31.001Z</time></trkpt><trkpt lat="44.427876247745495" lon="9.52442663400873"><ele>685.0</ele><time>2026-04-19T07:23:32.001Z</time></trkpt><trkpt lat="44.42799393552833" lon="9.52464126063445"><ele>686.0</ele><time>2026-04-19T07:23:33.001Z</time></trkpt><trkpt lat="44.42806622329489" lon="9.524895645885303"><ele>687.0</ele><time>2026-04-19T07:23:34.001Z</time></trkpt><trkpt lat="44.42811456700178" lon="9.525180106968476"><ele>688.0</ele><time>2026-04-19T07:23:35.001Z</time></trkpt><trkpt lat="44.42816309296908" lon="9.525471816788087"><ele>688.0</ele><time>2026-04-19T07:23:36Z</time></trkpt><trkpt lat="44.42821313449279" lon="9.525754315908433"><ele>688.0</ele><time>2026-04-19T07:23:37.001Z</time></trkpt><trkpt lat="44.428270423589545" lon="9.526041289960807"><ele>688.0</ele><time>2026-04-19T07:23:38.001Z</time></trkpt><trkpt lat="44.42833100143162" lon="9.526325412771994"><ele>686.3333333333334</ele><time>2026-04-19T07:23:39Z</time></trkpt><trkpt lat="44.42838354582693" lon="9.52660396764935"><ele>684.6666666666666</ele><time>2026-04-19T07:23:40Z</time></trkpt><trkpt lat="44.428420982526355" lon="9.526894103784635"><ele>683.0</ele><time>2026-04-19T07:23:41Z</time></trkpt><trkpt lat="44.42843772151324" lon="9.527196846683974"><ele>682.3333333333333</ele><time>2026-04-19T07:23:42Z</time></trkpt><trkpt lat="44.428426407746024" lon="9.527479721473485"><ele>681.6666666666666</ele><time>2026-04-19T07:23:43Z</time></trkpt><trkpt lat="44.4284187188406" lon="9.527766908714405"><ele>681.0</ele><time>2026-04-19T07:23:44Z</time></trkpt><trkpt lat="44.42841595463176" lon="9.52805121193425"><ele>681.0</ele><time>2026-04-19T07:23:45Z</time></trkpt><trkpt lat="44.428414231859385" lon="9.528327958505136"><ele>681.0</ele><time>2026-04-19T07:23:46Z</time></trkpt><trkpt lat="44.42839149525781" lon="9.52859207614157"><ele>681.0</ele><time>2026-04-19T07:23:47Z</time></trkpt><trkpt lat="44.42832185636833" lon="9.528837073277442"><ele>682.3333333333334</ele><time>2026-04-19T07:23:48Z</time></trkpt><trkpt lat="44.42821806511345" lon="9.52908526530409"><ele>683.6666666666667</ele><time>2026-04-19T07:23:49Z</time></trkpt><trkpt lat="44.428111711241" lon="9.529317438007913"><ele>685.0</ele><time>2026-04-19T07:23:50Z</time></trkpt><trkpt lat="44.4280049608107" lon="9.529547982059277"><ele>678.0</ele><time>2026-04-19T07:23:51Z</time></trkpt><trkpt lat="44.42790439758203" lon="9.529779505847907"><ele>671.0</ele><time>2026-04-19T07:23:52Z</time></trkpt><trkpt lat="44.42782863012199" lon="9.530026308928804"><ele>664.0</ele><time>2026-04-19T07:23:53Z</time></trkpt><trkpt lat="44.42779295405315" lon="9.53029993770953"><ele>663.3333333333334</ele><time>2026-04-19T07:23:54Z</time></trkpt><trkpt lat="44.42777819871098" lon="9.530565607594047"><ele>662.6666666666666</ele><time>2026-04-19T07:23:55Z</time></trkpt><trkpt lat="44.42775979114583" lon="9.530816427502456"><ele>662.0</ele><time>2026-04-19T07:23:56Z</time></trkpt><trkpt lat="44.427737230681274" lon="9.531051936520129"><ele>661.6666666666666</ele><time>2026-04-19T07:23:57Z</time></trkpt><trkpt lat="44.427719172854104" lon="9.531276653072911"><ele>661.3333333333334</ele><time>2026-04-19T07:23:58Z</time></trkpt><trkpt lat="44.42771842906738" lon="9.531485320945583"><ele>661.0</ele><time>2026-04-19T07:23:59Z</time></trkpt><trkpt lat="44.427764317784366" lon="9.53167695712113"><ele>661.0</ele><time>2026-04-19T07:24:00Z</time></trkpt><trkpt lat="44.42787030557703" lon="9.531822518556488"><ele>661.0</ele><time>2026-04-19T07:24:01Z</time></trkpt><trkpt lat="44.4280252259261" lon="9.531926114303545"><ele>661.0</ele><time>2026-04-19T07:24:02Z</time></trkpt><trkpt lat="44.42819849289717" lon="9.532004434102046"><ele>661.6666666666667</ele><time>2026-04-19T07:24:03Z</time></trkpt><trkpt lat="44.42836607570722" lon="9.532103867634817"><ele>662.3333333333334</ele><time>2026-04-19T07:24:04Z</time></trkpt><trkpt lat="44.428534267827324" lon="9.532218805971121"><ele>663.0</ele><time>2026-04-19T07:24:05Z</time></trkpt><trkpt lat="44.42871134238116" lon="9.532330478383257"><ele>669.6666666666666</ele><time>2026-04-19T07:24:06Z</time></trkpt><trkpt lat="44.42889338382017" lon="9.532440446335606"><ele>676.3333333333333</ele><time>2026-04-19T07:24:07Z</time></trkpt><trkpt lat="44.429068398529445" lon="9.532570093338741"><ele>683.0</ele><time>2026-04-19T07:24:08Z</time></trkpt><trkpt lat="44.42923015545326" lon="9.532748620388587"><ele>675.6666666666666</ele><time>2026-04-19T07:24:09Z</time></trkpt><trkpt lat="44.429366224368934" lon="9.532963747302722"><ele>668.3333333333334</ele><time>2026-04-19T07:24:10Z</time></trkpt><trkpt lat="44.42949950404597" lon="9.533183390251134"><ele>661.0</ele><time>2026-04-19T07:24:11Z</time></trkpt><trkpt lat="44.42963394494058" lon="9.53340141153667"><ele>664.0</ele><time>2026-04-19T07:24:12Z</time></trkpt><trkpt lat="44.429770734973474" lon="9.53359396341622"><ele>667.0</ele><time>2026-04-19T07:24:13Z</time></trkpt><trkpt lat="44.42988804031641" lon="9.533789564679454"><ele>670.0</ele><time>2026-04-19T07:24:14Z</time></trkpt><trkpt lat="44.43000604960396" lon="9.533974792750788"><ele>670.0</ele><time>2026-04-19T07:24:15Z</time></trkpt><trkpt lat="44.43010535647242" lon="9.534172904787235"><ele>670.0</ele><time>2026-04-19T07:24:16Z</time></trkpt><trkpt lat="44.430157736907375" lon="9.534388705870454"><ele>670.0</ele><time>2026-04-19T07:24:17Z</time></trkpt><trkpt lat="44.43016540538654" lon="9.53460717210551"><ele>670.3333333333334</ele><time>2026-04-19T07:24:18Z</time></trkpt><trkpt lat="44.43011257620888" lon="9.534821229446077"><ele>670.6666666666666</ele><time>2026-04-19T07:24:19Z</time></trkpt><trkpt lat="44.43000327654929" lon="9.535008749201491"><ele>671.0</ele><time>2026-04-19T07:24:20Z</time></trkpt><trkpt lat="44.42985115456532" lon="9.535162676330836"><ele>671.0</ele><time>2026-04-19T07:24:21Z</time></trkpt><trkpt lat="44.429771397861224" lon="9.53537100042826"><ele>671.0</ele><time>2026-04-19T07:24:22Z</time></trkpt><trkpt lat="44.42966313233592" lon="9.535572956762852"><ele>671.0</ele><time>2026-04-19T07:24:23Z</time></trkpt><trkpt lat="44.42956025450446" lon="9.53577766061515"><ele>668.3333333333333</ele><time>2026-04-19T07:24:24Z</time></trkpt><trkpt lat="44.429479343913094" lon="9.535979108798466"><ele>665.6666666666666</ele><time>2026-04-19T07:24:25Z</time></trkpt><trkpt lat="44.429416445369725" lon="9.536197412566343"><ele>663.0</ele><time>2026-04-19T07:24:26Z</time></trkpt><trkpt lat="44.429389264304255" lon="9.536428287069722"><ele>663.0</ele><time>2026-04-19T07:24:26.999Z</time></trkpt><trkpt lat="44.42936565987097" lon="9.536633953312672"><ele>663.0</ele><time>2026-04-19T07:24:27.999Z</time></trkpt><trkpt lat="44.429319143514974" lon="9.536814176138323"><ele>663.0</ele><time>2026-04-19T07:24:28.999Z</time></trkpt><trkpt lat="44.42921978619588" lon="9.536969525900474"><ele>663.0</ele><time>2026-04-19T07:24:29.999Z</time></trkpt><trkpt lat="44.4290819781851" lon="9.537074180182815"><ele>667.25</ele><time>2026-04-19T07:24:30.999Z</time></trkpt><trkpt lat="44.42899633660389" lon="9.537220025305611"><ele>671.5</ele><time>2026-04-19T07:24:31.999Z</time></trkpt><trkpt lat="44.428978942280374" lon="9.537426033289458"><ele>675.75</ele><time>2026-04-19T07:24:32.999Z</time></trkpt><trkpt lat="44.42896225214083" lon="9.537607447191359"><ele>680.0</ele><time>2026-04-19T07:24:33.999Z</time></trkpt><trkpt lat="44.42886631228175" lon="9.537716982042564"><ele>678.6666666666666</ele><time>2026-04-19T07:24:34.999Z</time></trkpt><trkpt lat="44.42872814967602" lon="9.537783436464627"><ele>677.3333333333334</ele><time>2026-04-19T07:24:35.999Z</time></trkpt><trkpt lat="44.428574521996666" lon="9.537869911447075"><ele>676.0</ele><time>2026-04-19T07:24:36.999Z</time></trkpt><trkpt lat="44.428433377663325" lon="9.537979874382875"><ele>676.0</ele><time>2026-04-19T07:24:37.999Z</time></trkpt><trkpt lat="44.42828933969974" lon="9.538103916028017"><ele>676.0</ele><time>2026-04-19T07:24:38.999Z</time></trkpt><trkpt lat="44.428135371176175" lon="9.538242155721449"><ele>676.0</ele><time>2026-04-19T07:24:39.999Z</time></trkpt><trkpt lat="44.42798225624362" lon="9.538369056077068"><ele>673.3333333333334</ele><time>2026-04-19T07:24:40.999Z</time></trkpt><trkpt lat="44.427848019542786" lon="9.538521488440388"><ele>670.6666666666666</ele><time>2026-04-19T07:24:41.999Z</time></trkpt><trkpt lat="44.42773297653148" lon="9.5387076491227"><ele>668.0</ele><time>2026-04-19T07:24:42.999Z</time></trkpt><trkpt lat="44.42764006152882" lon="9.53892228376138"><ele>668.0</ele><time>2026-04-19T07:24:43.999Z</time></trkpt><trkpt lat="44.427562574217156" lon="9.539151225595994"><ele>668.0</ele><time>2026-04-19T07:24:44.999Z</time></trkpt><trkpt lat="44.427490444619075" lon="9.539348405448422"><ele>668.0</ele><time>2026-04-19T07:24:45.999Z</time></trkpt><trkpt lat="44.42742630161277" lon="9.539535229585317"><ele>669.6666666666666</ele><time>2026-04-19T07:24:46.999Z</time></trkpt><trkpt lat="44.4273809193093" lon="9.539729466119823"><ele>671.3333333333334</ele><time>2026-04-19T07:24:47.999Z</time></trkpt><trkpt lat="44.42737603420593" lon="9.539958397145488"><ele>673.0</ele><time>2026-04-19T07:24:48.999Z</time></trkpt><trkpt lat="44.42741459367339" lon="9.540197793981065"><ele>673.6666666666667</ele><time>2026-04-19T07:24:49.999Z</time></trkpt><trkpt lat="44.42747798384279" lon="9.540431458297446"><ele>674.3333333333334</ele><time>2026-04-19T07:24:50.999Z</time></trkpt><trkpt lat="44.42752525999031" lon="9.540678903228228"><ele>675.0</ele><time>2026-04-19T07:24:51.999Z</time></trkpt><trkpt lat="44.42756584751101" lon="9.540913993041343"><ele>675.0</ele><time>2026-04-19T07:24:52.999Z</time></trkpt><trkpt lat="44.42760414214751" lon="9.541131928488262"><ele>675.0</ele><time>2026-04-19T07:24:53.999Z</time></trkpt><trkpt lat="44.42763694623357" lon="9.54135171547721"><ele>675.0</ele><time>2026-04-19T07:24:54.999Z</time></trkpt><trkpt lat="44.42761246004413" lon="9.54155468911861"><ele>674.0</ele><time>2026-04-19T07:24:55.999Z</time></trkpt><trkpt lat="44.42752019313351" lon="9.541732616884158"><ele>673.0</ele><time>2026-04-19T07:24:56.999Z</time></trkpt><trkpt lat="44.42744877205232" lon="9.541891235975195"><ele>672.0</ele><time>2026-04-19T07:24:57.999Z</time></trkpt><trkpt lat="44.42745458634946" lon="9.54207744577021"><ele>671.0</ele><time>2026-04-19T07:24:58.999Z</time></trkpt><trkpt lat="44.427537003252674" lon="9.542250146356238"><ele>668.3333333333333</ele><time>2026-04-19T07:24:59.999Z</time></trkpt><trkpt lat="44.427668390877585" lon="9.542410831122233"><ele>665.6666666666666</ele><time>2026-04-19T07:25:00.999Z</time></trkpt><trkpt lat="44.4277851891575" lon="9.542583307317052"><ele>663.0</ele><time>2026-04-19T07:25:01.999Z</time></trkpt><trkpt lat="44.427866299527416" lon="9.542788300496046"><ele>660.0</ele><time>2026-04-19T07:25:02.999Z</time></trkpt><trkpt lat="44.42793126840492" lon="9.543010878500827"><ele>657.0</ele><time>2026-04-19T07:25:03.999Z</time></trkpt><trkpt lat="44.42797523201997" lon="9.543237821573236"><ele>654.0</ele><time>2026-04-19T07:25:04.999Z</time></trkpt><trkpt lat="44.428004899002666" lon="9.54345695639192"><ele>653.75</ele><time>2026-04-19T07:25:05.999Z</time></trkpt><trkpt lat="44.42802378884275" lon="9.543664662967272"><ele>653.5</ele><time>2026-04-19T07:25:06.999Z</time></trkpt><trkpt lat="44.42801897164734" lon="9.543866748057933"><ele>653.25</ele><time>2026-04-19T07:25:07.999Z</time></trkpt><trkpt lat="44.42796728123759" lon="9.544053394157453"><ele>653.0</ele><time>2026-04-19T07:25:08.999Z</time></trkpt><trkpt lat="44.42789104078195" lon="9.54420929288384"><ele>653.0</ele><time>2026-04-19T07:25:09.999Z</time></trkpt><trkpt lat="44.42782183693021" lon="9.54433392525596"><ele>653.0</ele><time>2026-04-19T07:25:10.999Z</time></trkpt><trkpt lat="44.427770806050205" lon="9.544447383261089"><ele>653.0</ele><time>2026-04-19T07:25:11.999Z</time></trkpt><trkpt lat="44.427727655601565" lon="9.544545850956233"><ele>653.0</ele><time>2026-04-19T07:25:12.999Z</time></trkpt><trkpt lat="44.42768854797326" lon="9.54463806373271"><ele>653.0</ele><time>2026-04-19T07:25:13.999Z</time></trkpt><trkpt lat="44.427636835456944" lon="9.544764522239102"><ele>654.8</ele><time>2026-04-19T07:25:15.999Z</time></trkpt><trkpt lat="44.4276475926779" lon="9.544860550335256"><ele>656.5999999999999</ele><time>2026-04-19T07:25:18.998Z</time></trkpt><trkpt lat="44.42768795564005" lon="9.544967105104721"><ele>658.4000000000001</ele><time>2026-04-19T07:25:49Z</time></trkpt><trkpt lat="44.427706834797554" lon="9.545074843292692"><ele>660.2</ele><time>2026-04-19T07:25:50Z</time></trkpt><trkpt lat="44.4277356858409" lon="9.54521540045027"><ele>662.0</ele><time>2026-04-19T07:25:51Z</time></trkpt><trkpt lat="44.427765517856855" lon="9.545373193030077"><ele>661.5</ele><time>2026-04-19T07:25:52Z</time></trkpt><trkpt lat="44.42779473508121" lon="9.545545553379661"><ele>661.0</ele><time>2026-04-19T07:25:53Z</time></trkpt><trkpt lat="44.42782495708166" lon="9.545728692934265"><ele>660.5</ele><time>2026-04-19T07:25:54Z</time></trkpt><trkpt lat="44.427861316809796" lon="9.545926524304404"><ele>660.0</ele><time>2026-04-19T07:25:55Z</time></trkpt><trkpt lat="44.42789885111847" lon="9.54612967259291"><ele>657.0</ele><time>2026-04-19T07:25:56Z</time></trkpt><trkpt lat="44.42794018924263" lon="9.546333267919872"><ele>654.0</ele><time>2026-04-19T07:25:57Z</time></trkpt><trkpt lat="44.42798653005995" lon="9.546553108343433"><ele>651.0</ele><time>2026-04-19T07:25:58Z</time></trkpt><trkpt lat="44.428050442983505" lon="9.546752459079158"><ele>655.0</ele><time>2026-04-19T07:25:59Z</time></trkpt><trkpt lat="44.42812796244693" lon="9.546958652086364"><ele>659.0</ele><time>2026-04-19T07:26:00Z</time></trkpt><trkpt lat="44.4282261598013" lon="9.547166280858702"><ele>663.0</ele><time>2026-04-19T07:26:01Z</time></trkpt><trkpt lat="44.42831441327363" lon="9.547381535640591"><ele>663.0</ele><time>2026-04-19T07:26:02Z</time></trkpt><trkpt lat="44.428409737497056" lon="9.54759355212181"><ele>663.0</ele><time>2026-04-19T07:26:03Z</time></trkpt><trkpt lat="44.428496365480626" lon="9.547805246250723"><ele>663.0</ele><time>2026-04-19T07:26:04Z</time></trkpt><trkpt lat="44.428568811808" lon="9.548009978333177"><ele>658.6666666666666</ele><time>2026-04-19T07:26:05Z</time></trkpt><trkpt lat="44.42860764018147" lon="9.548233198629113"><ele>654.3333333333333</ele><time>2026-04-19T07:26:06Z</time></trkpt><trkpt lat="44.428622879776974" lon="9.54848402328402"><ele>650.0</ele><time>2026-04-19T07:26:07Z</time></trkpt><trkpt lat="44.42864431181384" lon="9.548727934916663"><ele>648.6666666666666</ele><time>2026-04-19T07:26:08Z</time></trkpt><trkpt lat="44.42866650931709" lon="9.548975735733432"><ele>647.3333333333334</ele><time>2026-04-19T07:26:09Z</time></trkpt><trkpt lat="44.42868898643087" lon="9.549223739633334"><ele>646.0</ele><time>2026-04-19T07:26:10Z</time></trkpt><trkpt lat="44.42871035330623" lon="9.54946550187341"><ele>644.3333333333334</ele><time>2026-04-19T07:26:11Z</time></trkpt><trkpt lat="44.42872451927539" lon="9.549703801458408"><ele>642.6666666666666</ele><time>2026-04-19T07:26:12Z</time></trkpt><trkpt lat="44.428714740769955" lon="9.549930756424677"><ele>641.0</ele><time>2026-04-19T07:26:13Z</time></trkpt><trkpt lat="44.42867369908512" lon="9.550144486024381"><ele>641.0</ele><time>2026-04-19T07:26:14Z</time></trkpt><trkpt lat="44.42863200697725" lon="9.550335012109565"><ele>641.0</ele><time>2026-04-19T07:26:15Z</time></trkpt><trkpt lat="44.42862225805099" lon="9.550515236088241"><ele>641.0</ele><time>2026-04-19T07:26:16Z</time></trkpt><trkpt lat="44.42867922154664" lon="9.550668148319586"><ele>641.0</ele><time>2026-04-19T07:26:17Z</time></trkpt><trkpt lat="44.428781182212354" lon="9.550771499190956"><ele>643.3333333333333</ele><time>2026-04-19T07:26:18Z</time></trkpt><trkpt lat="44.428937895751005" lon="9.550795974923473"><ele>645.6666666666666</ele><time>2026-04-19T07:26:19Z</time></trkpt><trkpt lat="44.4291047278591" lon="9.550722318236952"><ele>648.0</ele><time>2026-04-19T07:26:20Z</time></trkpt><trkpt lat="44.42927445066792" lon="9.550610750956848"><ele>648.0</ele><time>2026-04-19T07:26:21Z</time></trkpt><trkpt lat="44.42945561134435" lon="9.550532714624799"><ele>648.0</ele><time>2026-04-19T07:26:22Z</time></trkpt><trkpt lat="44.42963789216762" lon="9.550496535607692"><ele>648.0</ele><time>2026-04-19T07:26:23Z</time></trkpt><trkpt lat="44.42983841322228" lon="9.55047429472534"><ele>646.6666666666666</ele><time>2026-04-19T07:26:24Z</time></trkpt><trkpt lat="44.43004363752815" lon="9.550449626333114"><ele>645.3333333333333</ele><time>2026-04-19T07:26:25Z</time></trkpt><trkpt lat="44.43024168982004" lon="9.550419893562408"><ele>644.0</ele><time>2026-04-19T07:26:26Z</time></trkpt><trkpt lat="44.43043070749255" lon="9.550394479797266"><ele>643.6666666666666</ele><time>2026-04-19T07:26:27Z</time></trkpt><trkpt lat="44.43061092782551" lon="9.550420609966615"><ele>643.3333333333334</ele><time>2026-04-19T07:26:28Z</time></trkpt><trkpt lat="44.43078274240929" lon="9.550523599665471"><ele>643.0</ele><time>2026-04-19T07:26:29Z</time></trkpt><trkpt lat="44.430957053886054" lon="9.550649645532022"><ele>643.0</ele><time>2026-04-19T07:26:30Z</time></trkpt><trkpt lat="44.43115734174088" lon="9.55068130662427"><ele>643.0</ele><time>2026-04-19T07:26:31Z</time></trkpt><trkpt lat="44.43135854072492" lon="9.550677768344164"><ele>643.0</ele><time>2026-04-19T07:26:31.999Z</time></trkpt><trkpt lat="44.431549601123564" lon="9.550635285210369"><ele>643.6666666666667</ele><time>2026-04-19T07:26:32.999Z</time></trkpt><trkpt lat="44.43172631917242" lon="9.550682483096894"><ele>644.3333333333334</ele><time>2026-04-19T07:26:33.999Z</time></trkpt><trkpt lat="44.43190128801842" lon="9.550734290112823"><ele>645.0</ele><time>2026-04-19T07:26:34.999Z</time></trkpt><trkpt lat="44.432085026540754" lon="9.550794066876716"><ele>644.3333333333334</ele><time>2026-04-19T07:26:35.999Z</time></trkpt><trkpt lat="44.43226448417411" lon="9.550823543633339"><ele>643.6666666666667</ele><time>2026-04-19T07:26:36.999Z</time></trkpt><trkpt lat="44.432420616416415" lon="9.550791446150543"><ele>643.0</ele><time>2026-04-19T07:26:37.999Z</time></trkpt><trkpt lat="44.43255761044329" lon="9.550746634237212"><ele>643.0</ele><time>2026-04-19T07:26:38.999Z</time></trkpt><trkpt lat="44.432683387079116" lon="9.550690167878379"><ele>643.0</ele><time>2026-04-19T07:26:39.999Z</time></trkpt><trkpt lat="44.43278629445634" lon="9.550664309209512"><ele>643.0</ele><time>2026-04-19T07:26:40.999Z</time></trkpt><trkpt lat="44.432870980198736" lon="9.550648700617398"><ele>643.0</ele><time>2026-04-19T07:26:41.999Z</time></trkpt><trkpt lat="44.432938202577255" lon="9.550637919761881"><ele>643.0</ele><time>2026-04-19T07:26:42.999Z</time></trkpt><trkpt lat="44.43300399728738" lon="9.550619848640093"><ele>643.2</ele><time>2026-04-19T07:26:44.999Z</time></trkpt><trkpt lat="44.43308892929561" lon="9.550642027548262"><ele>643.4</ele><time>2026-04-19T07:28:11Z</time></trkpt><trkpt lat="44.43317095282752" lon="9.550668441691156"><ele>643.6</ele><time>2026-04-19T07:28:12Z</time></trkpt><trkpt lat="44.43325220368538" lon="9.550718213682742"><ele>643.8000000000001</ele><time>2026-04-19T07:28:13Z</time></trkpt><trkpt lat="44.43332228993806" lon="9.550851572942156"><ele>644.0</ele><time>2026-04-19T07:28:14Z</time></trkpt><trkpt lat="44.433367825371164" lon="9.551021281615045"><ele>643.25</ele><time>2026-04-19T07:28:15Z</time></trkpt><trkpt lat="44.43338923887966" lon="9.551216694847385"><ele>642.5</ele><time>2026-04-19T07:28:16Z</time></trkpt><trkpt lat="44.4334130509681" lon="9.55140844337171"><ele>641.75</ele><time>2026-04-19T07:28:17Z</time></trkpt><trkpt lat="44.43344905006223" lon="9.551598741876798"><ele>641.0</ele><time>2026-04-19T07:28:18Z</time></trkpt><trkpt lat="44.433492891172854" lon="9.551784491373446"><ele>641.0</ele><time>2026-04-19T07:28:19Z</time></trkpt><trkpt lat="44.433573740048246" lon="9.551953761670115"><ele>641.0</ele><time>2026-04-19T07:28:20Z</time></trkpt><trkpt lat="44.43369118753698" lon="9.55211589944733"><ele>641.0</ele><time>2026-04-19T07:28:21Z</time></trkpt><trkpt lat="44.433820037174364" lon="9.552266566889429"><ele>638.6666666666666</ele><time>2026-04-19T07:28:22Z</time></trkpt><trkpt lat="44.433926517064776" lon="9.552418384199179"><ele>636.3333333333334</ele><time>2026-04-19T07:28:23Z</time></trkpt><trkpt lat="44.434020148532376" lon="9.552611449712009"><ele>634.0</ele><time>2026-04-19T07:28:24Z</time></trkpt><trkpt lat="44.43411181946546" lon="9.552802208763534"><ele>639.0</ele><time>2026-04-19T07:28:25Z</time></trkpt><trkpt lat="44.43418221799875" lon="9.553016522555268"><ele>644.0</ele><time>2026-04-19T07:28:26Z</time></trkpt><trkpt lat="44.434232311265944" lon="9.553247148256284"><ele>649.0</ele><time>2026-04-19T07:28:27Z</time></trkpt><trkpt lat="44.43426946485937" lon="9.553468141157094"><ele>649.0</ele><time>2026-04-19T07:28:28Z</time></trkpt><trkpt lat="44.43434028201894" lon="9.553666824846825"><ele>649.0</ele><time>2026-04-19T07:28:29Z</time></trkpt><trkpt lat="44.4344691108095" lon="9.553842160216169"><ele>649.0</ele><time>2026-04-19T07:28:30Z</time></trkpt><trkpt lat="44.43459770657296" lon="9.55399166988159"><ele>647.0</ele><time>2026-04-19T07:28:31Z</time></trkpt><trkpt lat="44.43470674775529" lon="9.554175597550266"><ele>645.0</ele><time>2026-04-19T07:28:32Z</time></trkpt><trkpt lat="44.434759051975696" lon="9.554398175393073"><ele>643.0</ele><time>2026-04-19T07:28:33Z</time></trkpt><trkpt lat="44.43477257451731" lon="9.55463615005291"><ele>643.0</ele><time>2026-04-19T07:28:34Z</time></trkpt><trkpt lat="44.434787391742645" lon="9.554871374303472"><ele>643.0</ele><time>2026-04-19T07:28:35Z</time></trkpt><trkpt lat="44.43483140221645" lon="9.555094810451664"><ele>643.0</ele><time>2026-04-19T07:28:36Z</time></trkpt><trkpt lat="44.434919592276096" lon="9.555301205083419"><ele>648.3333333333334</ele><time>2026-04-19T07:28:37Z</time></trkpt><trkpt lat="44.43503902899392" lon="9.55548255281352"><ele>653.6666666666666</ele><time>2026-04-19T07:28:38Z</time></trkpt><trkpt lat="44.43517615456213" lon="9.55563375302067"><ele>659.0</ele><time>2026-04-19T07:28:39Z</time></trkpt><trkpt lat="44.4353218716651" lon="9.555770885772475"><ele>653.6666666666666</ele><time>2026-04-19T07:28:40Z</time></trkpt><trkpt lat="44.43548189306701" lon="9.555868745223643"><ele>648.3333333333334</ele><time>2026-04-19T07:28:41Z</time></trkpt><trkpt lat="44.43565754199272" lon="9.555946549190292"><ele>643.0</ele><time>2026-04-19T07:28:41.999Z</time></trkpt><trkpt lat="44.4358322884823" lon="9.55601348199633"><ele>643.0</ele><time>2026-04-19T07:28:42.999Z</time></trkpt><trkpt lat="44.43599977558691" lon="9.556090126085744"><ele>643.0</ele><time>2026-04-19T07:28:43.999Z</time></trkpt><trkpt lat="44.43618346134165" lon="9.556179171127827"><ele>643.0</ele><time>2026-04-19T07:28:44.999Z</time></trkpt><trkpt lat="44.43636378822224" lon="9.556248388353216"><ele>654.6666666666667</ele><time>2026-04-19T07:28:45.999Z</time></trkpt><trkpt lat="44.43654572750933" lon="9.556279757535295"><ele>666.3333333333334</ele><time>2026-04-19T07:28:46.999Z</time></trkpt><trkpt lat="44.43673179805292" lon="9.556270619823046"><ele>678.0</ele><time>2026-04-19T07:28:47.999Z</time></trkpt><trkpt lat="44.43691263393621" lon="9.556254076661123"><ele>678.0</ele><time>2026-04-19T07:28:48.999Z</time></trkpt><trkpt lat="44.437097622013034" lon="9.55621777378972"><ele>678.0</ele><time>2026-04-19T07:28:49.999Z</time></trkpt><trkpt lat="44.4372747038489" lon="9.55617402217069"><ele>678.0</ele><time>2026-04-19T07:28:50.999Z</time></trkpt><trkpt lat="44.43745106029218" lon="9.556101294539895"><ele>666.3333333333334</ele><time>2026-04-19T07:28:51.999Z</time></trkpt><trkpt lat="44.437622402793984" lon="9.55600476457205"><ele>654.6666666666667</ele><time>2026-04-19T07:28:52.999Z</time></trkpt><trkpt lat="44.43778293488761" lon="9.555889689767268"><ele>643.0</ele><time>2026-04-19T07:28:53.999Z</time></trkpt><trkpt lat="44.43792619753447" lon="9.5557473816878"><ele>644.5</ele><time>2026-04-19T07:28:54.999Z</time></trkpt><trkpt lat="44.43803879037513" lon="9.555585976160597"><ele>646.0</ele><time>2026-04-19T07:28:55.999Z</time></trkpt><trkpt lat="44.438126642486175" lon="9.555417163242748"><ele>647.5</ele><time>2026-04-19T07:28:56.999Z</time></trkpt><trkpt lat="44.43822571389528" lon="9.55530559711898"><ele>649.0</ele><time>2026-04-19T07:28:57.999Z</time></trkpt><trkpt lat="44.43833833946587" lon="9.555265589623401"><ele>649.0</ele><time>2026-04-19T07:28:58.999Z</time></trkpt><trkpt lat="44.43846248919103" lon="9.555316450415987"><ele>649.0</ele><time>2026-04-19T07:28:59.999Z</time></trkpt><trkpt lat="44.43857801310182" lon="9.555448305102926"><ele>649.0</ele><time>2026-04-19T07:29:00.999Z</time></trkpt><trkpt lat="44.43867766943227" lon="9.555622488162628"><ele>649.0</ele><time>2026-04-19T07:29:01.999Z</time></trkpt><trkpt lat="44.43876785194629" lon="9.555832892370475"><ele>648.3333333333334</ele><time>2026-04-19T07:29:02.999Z</time></trkpt><trkpt lat="44.43884896993414" lon="9.55603905159666"><ele>647.6666666666666</ele><time>2026-04-19T07:29:03.999Z</time></trkpt><trkpt lat="44.438942832127516" lon="9.556235665933773"><ele>647.0</ele><time>2026-04-19T07:29:04.999Z</time></trkpt><trkpt lat="44.43906339066925" lon="9.55637769189164"><ele>647.0</ele><time>2026-04-19T07:29:05.999Z</time></trkpt><trkpt lat="44.43920734170823" lon="9.556468219983996"><ele>647.0</ele><time>2026-04-19T07:29:06.999Z</time></trkpt><trkpt lat="44.43933073915419" lon="9.556566865429339"><ele>647.0</ele><time>2026-04-19T07:29:07.999Z</time></trkpt><trkpt lat="44.43943190748008" lon="9.556653184246464"><ele>647.0</ele><time>2026-04-19T07:29:08.999Z</time></trkpt><trkpt lat="44.439511254215184" lon="9.556750981857972"><ele>647.0</ele><time>2026-04-19T07:29:09.999Z</time></trkpt><trkpt lat="44.43955661692135" lon="9.556874648134812"><ele>647.0</ele><time>2026-04-19T07:29:10.999Z</time></trkpt><trkpt lat="44.43955362810953" lon="9.55702383225494"><ele>647.0</ele><time>2026-04-19T07:29:11.999Z</time></trkpt><trkpt lat="44.43948873556788" lon="9.557178260771447"><ele>647.0</ele><time>2026-04-19T07:29:12.999Z</time></trkpt><trkpt lat="44.43941455648646" lon="9.557348809718786"><ele>647.3333333333333</ele><time>2026-04-19T07:29:13.999Z</time></trkpt><trkpt lat="44.4393425523921" lon="9.557521639677583"><ele>647.6666666666666</ele><time>2026-04-19T07:29:14.999Z</time></trkpt><trkpt lat="44.439265234482" lon="9.55771310900278"><ele>648.0</ele><time>2026-04-19T07:29:15.999Z</time></trkpt><trkpt lat="44.43919257128234" lon="9.5579135546556"><ele>643.0</ele><time>2026-04-19T07:29:16.999Z</time></trkpt><trkpt lat="44.43913546940268" lon="9.558125857797423"><ele>638.0</ele><time>2026-04-19T07:29:17.999Z</time></trkpt><trkpt lat="44.43910955298494" lon="9.558356979960323"><ele>633.0</ele><time>2026-04-19T07:29:18.999Z</time></trkpt><trkpt lat="44.43910769831067" lon="9.558573167678931"><ele>635.25</ele><time>2026-04-19T07:29:19.999Z</time></trkpt><trkpt lat="44.43910972077083" lon="9.558779000138468"><ele>637.5</ele><time>2026-04-19T07:29:20.999Z</time></trkpt><trkpt lat="44.439120377423635" lon="9.558966275219559"><ele>639.75</ele><time>2026-04-19T07:29:21.999Z</time></trkpt><trkpt lat="44.43913478028288" lon="9.559148034780364"><ele>642.0</ele><time>2026-04-19T07:29:22.999Z</time></trkpt><trkpt lat="44.43923000392515" lon="9.559312533860302"><ele>642.0</ele><time>2026-04-19T07:29:23.999Z</time></trkpt><trkpt lat="44.43936879307411" lon="9.559457517941652"><ele>642.0</ele><time>2026-04-19T07:29:24.999Z</time></trkpt><trkpt lat="44.43952633910096" lon="9.55957943892892"><ele>642.0</ele><time>2026-04-19T07:29:25.999Z</time></trkpt><trkpt lat="44.439701826977085" lon="9.559682830174742"><ele>647.6666666666666</ele><time>2026-04-19T07:29:26.999Z</time></trkpt><trkpt lat="44.4398848018518" lon="9.559726480382876"><ele>653.3333333333333</ele><time>2026-04-19T07:29:27.999Z</time></trkpt><trkpt lat="44.44006298738051" lon="9.559686226443299"><ele>659.0</ele><time>2026-04-19T07:29:28.999Z</time></trkpt><trkpt lat="44.44022702823724" lon="9.559617392031239"><ele>659.0</ele><time>2026-04-19T07:29:29.999Z</time></trkpt><trkpt lat="44.44039055298445" lon="9.559612338864651"><ele>659.0</ele><time>2026-04-19T07:29:30.998Z</time></trkpt><trkpt lat="44.44055702903777" lon="9.559711596390013"><ele>659.0</ele><time>2026-04-19T07:29:31.998Z</time></trkpt><trkpt lat="44.44072393914805" lon="9.559834048132215"><ele>657.0</ele><time>2026-04-19T07:29:32.998Z</time></trkpt><trkpt lat="44.440901602324814" lon="9.559922143265482"><ele>655.0</ele><time>2026-04-19T07:29:33.998Z</time></trkpt><trkpt lat="44.441089774252475" lon="9.55996461740435"><ele>653.0</ele><time>2026-04-19T07:29:34.998Z</time></trkpt><trkpt lat="44.44128263195194" lon="9.559980679591826"><ele>653.0</ele><time>2026-04-19T07:29:35.998Z</time></trkpt><trkpt lat="44.44147033879102" lon="9.55998611584048"><ele>653.0</ele><time>2026-04-19T07:29:36.998Z</time></trkpt><trkpt lat="44.44164766129287" lon="9.559945273723343"><ele>653.0</ele><time>2026-04-19T07:29:37.998Z</time></trkpt><trkpt lat="44.441811201807845" lon="9.559814603022335"><ele>653.0</ele><time>2026-04-19T07:29:38.998Z</time></trkpt><trkpt lat="44.441975571804946" lon="9.559691679273511"><ele>653.0</ele><time>2026-04-19T07:29:39.998Z</time></trkpt><trkpt lat="44.44215328350787" lon="9.559635302748143"><ele>653.0</ele><time>2026-04-19T07:29:40.998Z</time></trkpt><trkpt lat="44.442325802835086" lon="9.559546258763852"><ele>644.6666666666666</ele><time>2026-04-19T07:29:41.998Z</time></trkpt><trkpt lat="44.44249593586952" lon="9.559424071200729"><ele>636.3333333333334</ele><time>2026-04-19T07:29:43.001Z</time></trkpt><trkpt lat="44.442644999269476" lon="9.559339159510541"><ele>628.0</ele><time>2026-04-19T07:29:44.001Z</time></trkpt><trkpt lat="44.44280291655159" lon="9.559318244843787"><ele>628.0</ele><time>2026-04-19T07:29:45.001Z</time></trkpt><trkpt lat="44.44296158720596" lon="9.55934463983188"><ele>628.0</ele><time>2026-04-19T07:29:46.001Z</time></trkpt><trkpt lat="44.4431038223282" lon="9.559289656092556"><ele>628.0</ele><time>2026-04-19T07:29:47.001Z</time></trkpt><trkpt lat="44.44323356508342" lon="9.559243875311752"><ele>628.0</ele><time>2026-04-19T07:29:48.001Z</time></trkpt><trkpt lat="44.44335635661346" lon="9.559275227415416"><ele>630.0</ele><time>2026-04-19T07:29:49.001Z</time></trkpt><trkpt lat="44.44346277488421" lon="9.559403292014615"><ele>632.0</ele><time>2026-04-19T07:29:50.001Z</time></trkpt><trkpt lat="44.44350850553771" lon="9.559601932321307"><ele>634.0</ele><time>2026-04-19T07:29:51.001Z</time></trkpt><trkpt lat="44.44352310372542" lon="9.559834253784572"><ele>639.0</ele><time>2026-04-19T07:29:52.001Z</time></trkpt><trkpt lat="44.4435387292208" lon="9.560072909534831"><ele>644.0</ele><time>2026-04-19T07:29:53.001Z</time></trkpt><trkpt lat="44.44358708938923" lon="9.5602960417826"><ele>649.0</ele><time>2026-04-19T07:29:54.001Z</time></trkpt><trkpt lat="44.44363457884929" lon="9.560536491295233"><ele>654.3333333333334</ele><time>2026-04-19T07:29:55.001Z</time></trkpt><trkpt lat="44.44367970582212" lon="9.560780925974175"><ele>659.6666666666666</ele><time>2026-04-19T07:29:56.001Z</time></trkpt><trkpt lat="44.443720987532366" lon="9.561024602200275"><ele>665.0</ele><time>2026-04-19T07:29:57.001Z</time></trkpt><trkpt lat="44.443775124356044" lon="9.561259145704325"><ele>655.3333333333333</ele><time>2026-04-19T07:29:58.001Z</time></trkpt><trkpt lat="44.44384751760897" lon="9.56146621322762"><ele>645.6666666666666</ele><time>2026-04-19T07:29:59.001Z</time></trkpt><trkpt lat="44.44393380275923" lon="9.56163776774451"><ele>636.0</ele><time>2026-04-19T07:30:00.001Z</time></trkpt><trkpt lat="44.444058988533214" lon="9.561799126028443"><ele>636.0</ele><time>2026-04-19T07:30:01.001Z</time></trkpt><trkpt lat="44.44421532876214" lon="9.561907575939847"><ele>636.0</ele><time>2026-04-19T07:30:02Z</time></trkpt><trkpt lat="44.44438177174924" lon="9.56199134368511"><ele>636.0</ele><time>2026-04-19T07:30:03Z</time></trkpt><trkpt lat="44.44455113577744" lon="9.562098237098084"><ele>641.3333333333334</ele><time>2026-04-19T07:30:04Z</time></trkpt><trkpt lat="44.444717381428674" lon="9.56222134502559"><ele>646.6666666666667</ele><time>2026-04-19T07:30:05Z</time></trkpt><trkpt lat="44.44487681359221" lon="9.562320084329441"><ele>652.0</ele><time>2026-04-19T07:30:06Z</time></trkpt><trkpt lat="44.445047636671276" lon="9.562353139854082"><ele>652.0</ele><time>2026-04-19T07:30:07Z</time></trkpt><trkpt lat="44.445232786237135" lon="9.562315386976481"><ele>652.0</ele><time>2026-04-19T07:30:08Z</time></trkpt><trkpt lat="44.445425932210455" lon="9.562260047214211"><ele>652.0</ele><time>2026-04-19T07:30:09Z</time></trkpt><trkpt lat="44.445605032769514" lon="9.562210717254166"><ele>651.3333333333334</ele><time>2026-04-19T07:30:10Z</time></trkpt><trkpt lat="44.44578346987738" lon="9.562159023527576"><ele>650.6666666666666</ele><time>2026-04-19T07:30:10.999Z</time></trkpt><trkpt lat="44.445956145489596" lon="9.562149274651578"><ele>650.0</ele><time>2026-04-19T07:30:11.999Z</time></trkpt><trkpt lat="44.4461355982212" lon="9.562173116490928"><ele>640.6666666666666</ele><time>2026-04-19T07:30:12.999Z</time></trkpt><trkpt lat="44.44629923430314" lon="9.562208967409386"><ele>631.3333333333334</ele><time>2026-04-19T07:30:13.999Z</time></trkpt><trkpt lat="44.44645353124816" lon="9.562247695426008"><ele>622.0</ele><time>2026-04-19T07:30:14.999Z</time></trkpt><trkpt lat="44.44658461909926" lon="9.562332875673443"><ele>622.0</ele><time>2026-04-19T07:30:15.999Z</time></trkpt><trkpt lat="44.44666480800521" lon="9.562492469977215"><ele>622.0</ele><time>2026-04-19T07:30:16.999Z</time></trkpt><trkpt lat="44.44669203703096" lon="9.562715134755274"><ele>622.0</ele><time>2026-04-19T07:30:17.999Z</time></trkpt><trkpt lat="44.44669972912068" lon="9.562956059554807"><ele>627.0</ele><time>2026-04-19T07:30:18.999Z</time></trkpt><trkpt lat="44.44671090280375" lon="9.563204985611605"><ele>632.0</ele><time>2026-04-19T07:30:19.999Z</time></trkpt><trkpt lat="44.446725261475194" lon="9.563441279894269"><ele>637.0</ele><time>2026-04-19T07:30:20.999Z</time></trkpt><trkpt lat="44.446764755934396" lon="9.5636669578665"><ele>640.6666666666667</ele><time>2026-04-19T07:30:21.999Z</time></trkpt><trkpt lat="44.44683719653083" lon="9.563882603297962"><ele>644.3333333333334</ele><time>2026-04-19T07:30:22.999Z</time></trkpt><trkpt lat="44.44693883511224" lon="9.56407408326469"><ele>648.0</ele><time>2026-04-19T07:30:23.999Z</time></trkpt><trkpt lat="44.44706539300804" lon="9.564238390236081"><ele>648.6666666666666</ele><time>2026-04-19T07:30:24.999Z</time></trkpt><trkpt lat="44.44720728196639" lon="9.564389402454557"><ele>649.3333333333333</ele><time>2026-04-19T07:30:25.999Z</time></trkpt><trkpt lat="44.44738232195964" lon="9.56448829379824"><ele>650.0</ele><time>2026-04-19T07:30:26.999Z</time></trkpt><trkpt lat="44.44756924462583" lon="9.56456891372105"><ele>650.0</ele><time>2026-04-19T07:30:27.999Z</time></trkpt><trkpt lat="44.44774633665269" lon="9.564652571932234"><ele>650.0</ele><time>2026-04-19T07:30:28.999Z</time></trkpt><trkpt lat="44.44793163648683" lon="9.564771684718723"><ele>650.0</ele><time>2026-04-19T07:30:29.999Z</time></trkpt><trkpt lat="44.44811689632581" lon="9.564870010634966"><ele>643.6666666666666</ele><time>2026-04-19T07:30:30.999Z</time></trkpt><trkpt lat="44.44830893606992" lon="9.56493945004347"><ele>637.3333333333334</ele><time>2026-04-19T07:30:31.999Z</time></trkpt><trkpt lat="44.44850845550633" lon="9.564952133751218"><ele>631.0</ele><time>2026-04-19T07:30:32.999Z</time></trkpt><trkpt lat="44.44869243050991" lon="9.564893430629123"><ele>632.0</ele><time>2026-04-19T07:30:33.999Z</time></trkpt><trkpt lat="44.44888029310656" lon="9.564818818741035"><ele>633.0</ele><time>2026-04-19T07:30:34.999Z</time></trkpt><trkpt lat="44.44906523854402" lon="9.564738093255121"><ele>634.0</ele><time>2026-04-19T07:30:35.999Z</time></trkpt><trkpt lat="44.44923291845199" lon="9.56459840397563"><ele>630.0</ele><time>2026-04-19T07:30:36.999Z</time></trkpt><trkpt lat="44.44938881603765" lon="9.564430208157452"><ele>626.0</ele><time>2026-04-19T07:30:37.999Z</time></trkpt><trkpt lat="44.449543606686106" lon="9.564253644575148"><ele>622.0</ele><time>2026-04-19T07:30:38.999Z</time></trkpt><trkpt lat="44.44969493181347" lon="9.564089620167307"><ele>622.0</ele><time>2026-04-19T07:30:39.999Z</time></trkpt><trkpt lat="44.449846821380156" lon="9.563944761984445"><ele>622.0</ele><time>2026-04-19T07:30:40.999Z</time></trkpt><trkpt lat="44.45000131358776" lon="9.563819596170658"><ele>622.0</ele><time>2026-04-19T07:30:41.999Z</time></trkpt><trkpt lat="44.45016136578658" lon="9.563743196822747"><ele>622.0</ele><time>2026-04-19T07:30:42.999Z</time></trkpt><trkpt lat="44.45032536837269" lon="9.563713126699147"><ele>622.0</ele><time>2026-04-19T07:30:43.999Z</time></trkpt><trkpt lat="44.45049751244426" lon="9.563733353519043"><ele>622.0</ele><time>2026-04-19T07:30:44.999Z</time></trkpt><trkpt lat="44.45066001844158" lon="9.563819872502917"><ele>621.0</ele><time>2026-04-19T07:30:45.999Z</time></trkpt><trkpt lat="44.45081321174845" lon="9.56396874654217"><ele>620.0</ele><time>2026-04-19T07:30:46.999Z</time></trkpt><trkpt lat="44.45092691241594" lon="9.564156988671554"><ele>619.0</ele><time>2026-04-19T07:30:47.999Z</time></trkpt><trkpt lat="44.451016754086126" lon="9.564339816113641"><ele>619.0</ele><time>2026-04-19T07:30:48.998Z</time></trkpt><trkpt lat="44.45114681782722" lon="9.564444492649454"><ele>619.0</ele><time>2026-04-19T07:30:49.998Z</time></trkpt><trkpt lat="44.451307537131356" lon="9.564466635094302"><ele>619.0</ele><time>2026-04-19T07:30:50.998Z</time></trkpt><trkpt lat="44.45147307384899" lon="9.564420648820109"><ele>617.25</ele><time>2026-04-19T07:30:51.998Z</time></trkpt><trkpt lat="44.45161687117863" lon="9.564368864636894"><ele>615.5</ele><time>2026-04-19T07:30:52.998Z</time></trkpt><trkpt lat="44.451743344382145" lon="9.564369100646497"><ele>613.75</ele><time>2026-04-19T07:30:53.998Z</time></trkpt><trkpt lat="44.45185817961423" lon="9.564474076791447"><ele>612.0</ele><time>2026-04-19T07:30:54.998Z</time></trkpt><trkpt lat="44.45194411100939" lon="9.564646308768879"><ele>610.6666666666666</ele><time>2026-04-19T07:30:55.998Z</time></trkpt><trkpt lat="44.45199830839161" lon="9.56487944706828"><ele>609.3333333333333</ele><time>2026-04-19T07:30:56.998Z</time></trkpt><trkpt lat="44.452070543400005" lon="9.565106823300384"><ele>608.0</ele><time>2026-04-19T07:30:57.998Z</time></trkpt><trkpt lat="44.452176953068985" lon="9.56528455563411"><ele>607.0</ele><time>2026-04-19T07:30:58.998Z</time></trkpt><trkpt lat="44.452300595758025" lon="9.565370005197524"><ele>606.0</ele><time>2026-04-19T07:30:59.998Z</time></trkpt><trkpt lat="44.45243220251063" lon="9.565384258306578"><ele>605.0</ele><time>2026-04-19T07:31:00.998Z</time></trkpt><trkpt lat="44.45257685926476" lon="9.565279316044604"><ele>604.0</ele><time>2026-04-19T07:31:01.998Z</time></trkpt><trkpt lat="44.45270551485639" lon="9.56517785939914"><ele>604.25</ele><time>2026-04-19T07:31:02.998Z</time></trkpt><trkpt lat="44.45281628379258" lon="9.56519720316426"><ele>604.5</ele><time>2026-04-19T07:31:03.998Z</time></trkpt><trkpt lat="44.45293944936551" lon="9.565321733457674"><ele>604.75</ele><time>2026-04-19T07:31:04.998Z</time></trkpt><trkpt lat="44.45303546913394" lon="9.565487286953838"><ele>605.0</ele><time>2026-04-19T07:31:05.998Z</time></trkpt><trkpt lat="44.45311712689346" lon="9.565660682535423"><ele>605.0</ele><time>2026-04-19T07:31:06.998Z</time></trkpt><trkpt lat="44.45322771347338" lon="9.565805230372401"><ele>605.0</ele><time>2026-04-19T07:31:07.998Z</time></trkpt><trkpt lat="44.45333847957777" lon="9.565900245117769"><ele>605.0</ele><time>2026-04-19T07:31:08.998Z</time></trkpt><trkpt lat="44.45346600725406" lon="9.565901035573228"><ele>605.0</ele><time>2026-04-19T07:31:09.998Z</time></trkpt><trkpt lat="44.453616607216865" lon="9.565853134095827"><ele>605.0</ele><time>2026-04-19T07:31:10.998Z</time></trkpt><trkpt lat="44.45375095679699" lon="9.56577031557282"><ele>605.0</ele><time>2026-04-19T07:31:11.998Z</time></trkpt><trkpt lat="44.45392290456799" lon="9.565710750272187"><ele>605.0</ele><time>2026-04-19T07:31:12.998Z</time></trkpt><trkpt lat="44.454089283276424" lon="9.565662113438583"><ele>608.3333333333333</ele><time>2026-04-19T07:31:13.998Z</time></trkpt><trkpt lat="44.45425387764482" lon="9.56563366651436"><ele>611.6666666666666</ele><time>2026-04-19T07:31:14.998Z</time></trkpt><trkpt lat="44.45442397235279" lon="9.56564551243477"><ele>615.0</ele><time>2026-04-19T07:31:15.998Z</time></trkpt><trkpt lat="44.45458631602312" lon="9.56569350765152"><ele>612.3333333333334</ele><time>2026-04-19T07:31:16.998Z</time></trkpt><trkpt lat="44.45474341637854" lon="9.565783082568892"><ele>609.6666666666667</ele><time>2026-04-19T07:31:17.998Z</time></trkpt><trkpt lat="44.45488477988644" lon="9.56593415917964"><ele>607.0</ele><time>2026-04-19T07:31:18.998Z</time></trkpt><trkpt lat="44.455010642133395" lon="9.566049076328854"><ele>607.0</ele><time>2026-04-19T07:31:19.998Z</time></trkpt><trkpt lat="44.455180368115656" lon="9.566092018535935"><ele>607.0</ele><time>2026-04-19T07:31:20.998Z</time></trkpt><trkpt lat="44.455354123942236" lon="9.566107671467847"><ele>607.0</ele><time>2026-04-19T07:31:21.998Z</time></trkpt><trkpt lat="44.45550724353859" lon="9.566098359208729"><ele>604.3333333333334</ele><time>2026-04-19T07:31:22.998Z</time></trkpt><trkpt lat="44.45564009061972" lon="9.566112581301109"><ele>601.6666666666666</ele><time>2026-04-19T07:31:23.998Z</time></trkpt><trkpt lat="44.45580913449308" lon="9.566136538362523"><ele>599.0</ele><time>2026-04-19T07:31:24.998Z</time></trkpt><trkpt lat="44.45598573438498" lon="9.566152232308921"><ele>599.0</ele><time>2026-04-19T07:31:25.998Z</time></trkpt><trkpt lat="44.45616517724797" lon="9.56615841091369"><ele>599.0</ele><time>2026-04-19T07:31:26.998Z</time></trkpt><trkpt lat="44.4563451967454" lon="9.566162177186882"><ele>599.0</ele><time>2026-04-19T07:31:27.998Z</time></trkpt><trkpt lat="44.45652593526144" lon="9.566161223790592"><ele>598.0</ele><time>2026-04-19T07:31:28.998Z</time></trkpt><trkpt lat="44.456683912315675" lon="9.566158623892395"><ele>597.0</ele><time>2026-04-19T07:31:29.998Z</time></trkpt><trkpt lat="44.45682379440654" lon="9.566186798921057"><ele>596.0</ele><time>2026-04-19T07:31:30.998Z</time></trkpt><trkpt lat="44.45694666105663" lon="9.566285705544342"><ele>595.0</ele><time>2026-04-19T07:31:31.998Z</time></trkpt><trkpt lat="44.45702779620939" lon="9.566449782816441"><ele>598.3333333333334</ele><time>2026-04-19T07:31:32.998Z</time></trkpt><trkpt lat="44.45705591422387" lon="9.566661383505169"><ele>601.6666666666666</ele><time>2026-04-19T07:31:33.998Z</time></trkpt><trkpt lat="44.457035517736564" lon="9.566894680373643"><ele>605.0</ele><time>2026-04-19T07:31:34.998Z</time></trkpt><trkpt lat="44.45696767111307" lon="9.567131096778775"><ele>605.6666666666666</ele><time>2026-04-19T07:31:35.998Z</time></trkpt><trkpt lat="44.45689754227498" lon="9.56738522085536"><ele>606.3333333333334</ele><time>2026-04-19T07:31:36.998Z</time></trkpt><trkpt lat="44.45685592670192" lon="9.567628225339014"><ele>607.0</ele><time>2026-04-19T07:31:37.997Z</time></trkpt><trkpt lat="44.4568112534889" lon="9.567877004844622"><ele>608.0</ele><time>2026-04-19T07:31:38.997Z</time></trkpt><trkpt lat="44.456765009328045" lon="9.568136814220177"><ele>609.0</ele><time>2026-04-19T07:31:39.997Z</time></trkpt><trkpt lat="44.45673299029344" lon="9.568394271412707"><ele>610.0</ele><time>2026-04-19T07:31:40.997Z</time></trkpt><trkpt lat="44.456719972942665" lon="9.56866195472779"><ele>612.0</ele><time>2026-04-19T07:31:41.997Z</time></trkpt><trkpt lat="44.45672505522174" lon="9.568929775932585"><ele>614.0</ele><time>2026-04-19T07:31:42.997Z</time></trkpt><trkpt lat="44.456749403841435" lon="9.569195325527287"><ele>616.0</ele><time>2026-04-19T07:31:43.997Z</time></trkpt><trkpt lat="44.45679897783762" lon="9.569450996028955"><ele>618.3333333333334</ele><time>2026-04-19T07:31:44.997Z</time></trkpt><trkpt lat="44.45688162318427" lon="9.569701126600581"><ele>620.6666666666666</ele><time>2026-04-19T07:31:45.997Z</time></trkpt><trkpt lat="44.456982554626364" lon="9.569936587968728"><ele>623.0</ele><time>2026-04-19T07:31:46.997Z</time></trkpt><trkpt lat="44.45709471514174" lon="9.570167351729744"><ele>617.6666666666666</ele><time>2026-04-19T07:31:47.997Z</time></trkpt><trkpt lat="44.45719607597716" lon="9.570374251040521"><ele>612.3333333333334</ele><time>2026-04-19T07:31:49Z</time></trkpt><trkpt lat="44.45730618593417" lon="9.570554940532915"><ele>607.0</ele><time>2026-04-19T07:31:50Z</time></trkpt><trkpt lat="44.45745497243805" lon="9.570678610884542"><ele>607.0</ele><time>2026-04-19T07:31:51Z</time></trkpt><trkpt lat="44.45764286399855" lon="9.570756730945334"><ele>607.0</ele><time>2026-04-19T07:31:52Z</time></trkpt><trkpt lat="44.457827301243185" lon="9.570780007424588"><ele>607.0</ele><time>2026-04-19T07:31:53Z</time></trkpt><trkpt lat="44.458006576397445" lon="9.57077486599266"><ele>604.0</ele><time>2026-04-19T07:31:54Z</time></trkpt><trkpt lat="44.45817731408563" lon="9.570736574490605"><ele>601.0</ele><time>2026-04-19T07:31:55Z</time></trkpt><trkpt lat="44.45832899165174" lon="9.57065133246611"><ele>598.0</ele><time>2026-04-19T07:31:56Z</time></trkpt><trkpt lat="44.458461746509144" lon="9.570564830999885"><ele>598.0</ele><time>2026-04-19T07:31:57Z</time></trkpt><trkpt lat="44.458585649573116" lon="9.570584440762508"><ele>598.0</ele><time>2026-04-19T07:31:58Z</time></trkpt><trkpt lat="44.458693983165944" lon="9.570708625011031"><ele>598.0</ele><time>2026-04-19T07:31:59Z</time></trkpt><trkpt lat="44.458800437369625" lon="9.570875859150881"><ele>598.0</ele><time>2026-04-19T07:32:00Z</time></trkpt><trkpt lat="44.458919102149835" lon="9.571036230272089"><ele>601.0</ele><time>2026-04-19T07:32:01Z</time></trkpt><trkpt lat="44.45905945009205" lon="9.571172293816218"><ele>604.0</ele><time>2026-04-19T07:32:02Z</time></trkpt><trkpt lat="44.459207276231" lon="9.57128563969394"><ele>607.0</ele><time>2026-04-19T07:32:03Z</time></trkpt><trkpt lat="44.45933672031968" lon="9.571452868248555"><ele>607.0</ele><time>2026-04-19T07:32:04Z</time></trkpt><trkpt lat="44.45944576951139" lon="9.571650213382192"><ele>607.0</ele><time>2026-04-19T07:32:05Z</time></trkpt><trkpt lat="44.45953697599019" lon="9.571866623422041"><ele>607.0</ele><time>2026-04-19T07:32:06Z</time></trkpt><trkpt lat="44.459621043941645" lon="9.572110768325658"><ele>602.0</ele><time>2026-04-19T07:32:07Z</time></trkpt><trkpt lat="44.45970452113203" lon="9.572342255984362"><ele>597.0</ele><time>2026-04-19T07:32:07.999Z</time></trkpt><trkpt lat="44.45979255804928" lon="9.57256579718835"><ele>592.0</ele><time>2026-04-19T07:32:08.999Z</time></trkpt><trkpt lat="44.459893676797854" lon="9.572764502456112"><ele>600.0</ele><time>2026-04-19T07:32:09.999Z</time></trkpt><trkpt lat="44.46002759914823" lon="9.572909578909778"><ele>608.0</ele><time>2026-04-19T07:32:10.999Z</time></trkpt><trkpt lat="44.460206753519394" lon="9.572991376148986"><ele>616.0</ele><time>2026-04-19T07:32:11.999Z</time></trkpt><trkpt lat="44.46039167725062" lon="9.573053095385466"><ele>608.3333333333334</ele><time>2026-04-19T07:32:12.999Z</time></trkpt><trkpt lat="44.460567812723866" lon="9.573156499898161"><ele>600.6666666666666</ele><time>2026-04-19T07:32:13.999Z</time></trkpt><trkpt lat="44.460729004028614" lon="9.573301339957517"><ele>593.0</ele><time>2026-04-19T07:32:14.999Z</time></trkpt><trkpt lat="44.46088512236794" lon="9.573440173620135"><ele>593.0</ele><time>2026-04-19T07:32:15.999Z</time></trkpt><trkpt lat="44.461058155006036" lon="9.573544972533467"><ele>593.0</ele><time>2026-04-19T07:32:16.999Z</time></trkpt><trkpt lat="44.46123164838687" lon="9.573625280941078"><ele>593.0</ele><time>2026-04-19T07:32:17.999Z</time></trkpt><trkpt lat="44.46139094910752" lon="9.573699725991377"><ele>592.0</ele><time>2026-04-19T07:32:18.999Z</time></trkpt><trkpt lat="44.461529610099056" lon="9.573807344119748"><ele>591.0</ele><time>2026-04-19T07:32:19.999Z</time></trkpt><trkpt lat="44.46162393598454" lon="9.573985227515896"><ele>590.0</ele><time>2026-04-19T07:32:20.999Z</time></trkpt><trkpt lat="44.46167972135583" lon="9.574217435228997"><ele>590.0</ele><time>2026-04-19T07:32:21.999Z</time></trkpt><trkpt lat="44.46172222334071" lon="9.574468768922454"><ele>590.0</ele><time>2026-04-19T07:32:22.999Z</time></trkpt><trkpt lat="44.46179245647289" lon="9.574705760104472"><ele>590.0</ele><time>2026-04-19T07:32:23.999Z</time></trkpt><trkpt lat="44.461888278457685" lon="9.574922292472563"><ele>589.6666666666666</ele><time>2026-04-19T07:32:24.999Z</time></trkpt><trkpt lat="44.46200531208552" lon="9.575130760087417"><ele>589.3333333333334</ele><time>2026-04-19T07:32:25.999Z</time></trkpt><trkpt lat="44.46211021246526" lon="9.575326471528363"><ele>589.0</ele><time>2026-04-19T07:32:26.999Z</time></trkpt><trkpt lat="44.462197104719095" lon="9.57553401764386"><ele>589.0</ele><time>2026-04-19T07:32:27.999Z</time></trkpt><trkpt lat="44.46225541075604" lon="9.575765700985773"><ele>589.0</ele><time>2026-04-19T07:32:28.999Z</time></trkpt><trkpt lat="44.4623222976602" lon="9.57597180782372"><ele>589.0</ele><time>2026-04-19T07:32:29.999Z</time></trkpt><trkpt lat="44.46243934979877" lon="9.576131879294156"><ele>592.3333333333334</ele><time>2026-04-19T07:32:30.999Z</time></trkpt><trkpt lat="44.462596726449455" lon="9.576236963699454"><ele>595.6666666666666</ele><time>2026-04-19T07:32:31.999Z</time></trkpt><trkpt lat="44.4627451392396" lon="9.576357315457335"><ele>599.0</ele><time>2026-04-19T07:32:32.999Z</time></trkpt><trkpt lat="44.46284180223509" lon="9.576551875644357"><ele>599.0</ele><time>2026-04-19T07:32:33.999Z</time></trkpt><trkpt lat="44.46289942248052" lon="9.57680113324762"><ele>599.0</ele><time>2026-04-19T07:32:34.999Z</time></trkpt><trkpt lat="44.46298241862764" lon="9.57702363645889"><ele>599.0</ele><time>2026-04-19T07:32:35.999Z</time></trkpt><trkpt lat="44.463106979131766" lon="9.577220550031488"><ele>598.0</ele><time>2026-04-19T07:32:36.999Z</time></trkpt><trkpt lat="44.46325520884958" lon="9.577382460464298"><ele>597.0</ele><time>2026-04-19T07:32:37.999Z</time></trkpt><trkpt lat="44.46341469862731" lon="9.577537156068269"><ele>596.0</ele><time>2026-04-19T07:32:38.999Z</time></trkpt><trkpt lat="44.46356597786087" lon="9.577699110114018"><ele>602.0</ele><time>2026-04-19T07:32:39.999Z</time></trkpt><trkpt lat="44.463709039078786" lon="9.577853452169508"><ele>608.0</ele><time>2026-04-19T07:32:40.999Z</time></trkpt><trkpt lat="44.46385749598364" lon="9.577967241927773"><ele>614.0</ele><time>2026-04-19T07:32:41.999Z</time></trkpt><trkpt lat="44.46402918922612" lon="9.578013056251049"><ele>614.0</ele><time>2026-04-19T07:32:42.999Z</time></trkpt><trkpt lat="44.46421535098347" lon="9.57800288537954"><ele>614.0</ele><time>2026-04-19T07:32:43.999Z</time></trkpt><trkpt lat="44.46440581797413" lon="9.577966532409231"><ele>614.0</ele><time>2026-04-19T07:32:44.999Z</time></trkpt><trkpt lat="44.46458716879951" lon="9.577930288239447"><ele>612.0</ele><time>2026-04-19T07:32:45.999Z</time></trkpt><trkpt lat="44.46475811913258" lon="9.577875426945367"><ele>610.0</ele><time>2026-04-19T07:32:46.999Z</time></trkpt><trkpt lat="44.46491307890166" lon="9.57779393317202"><ele>608.0</ele><time>2026-04-19T07:32:47.999Z</time></trkpt><trkpt lat="44.465062716494195" lon="9.57774488989557"><ele>608.0</ele><time>2026-04-19T07:32:48.999Z</time></trkpt><trkpt lat="44.46519853546808" lon="9.577781505555587"><ele>608.0</ele><time>2026-04-19T07:32:49.999Z</time></trkpt><trkpt lat="44.465319591881524" lon="9.577904389350714"><ele>608.0</ele><time>2026-04-19T07:32:50.999Z</time></trkpt><trkpt lat="44.465421348241456" lon="9.578091668351949"><ele>600.6666666666666</ele><time>2026-04-19T07:32:51.999Z</time></trkpt><trkpt lat="44.46552263201541" lon="9.578293943846846"><ele>593.3333333333334</ele><time>2026-04-19T07:32:52.999Z</time></trkpt><trkpt lat="44.46559475649558" lon="9.578512102680493"><ele>586.0</ele><time>2026-04-19T07:32:53.999Z</time></trkpt><trkpt lat="44.46565449196881" lon="9.578762736092163"><ele>586.0</ele><time>2026-04-19T07:32:54.999Z</time></trkpt><trkpt lat="44.46570894499733" lon="9.579019312676257"><ele>586.0</ele><time>2026-04-19T07:32:55.999Z</time></trkpt><trkpt lat="44.46577305761934" lon="9.579282882186979"><ele>586.0</ele><time>2026-04-19T07:32:56.998Z</time></trkpt><trkpt lat="44.46585640178097" lon="9.57953634643143"><ele>589.6666666666667</ele><time>2026-04-19T07:32:57.998Z</time></trkpt><trkpt lat="44.46597222800562" lon="9.579771266447704"><ele>593.3333333333334</ele><time>2026-04-19T07:32:58.998Z</time></trkpt><trkpt lat="44.46610552325152" lon="9.579987755617756"><ele>597.0</ele><time>2026-04-19T07:32:59.998Z</time></trkpt><trkpt lat="44.46623392915597" lon="9.580205688628718"><ele>594.6666666666666</ele><time>2026-04-19T07:33:00.998Z</time></trkpt><trkpt lat="44.46634818046627" lon="9.580427292770924"><ele>592.3333333333333</ele><time>2026-04-19T07:33:01.998Z</time></trkpt><trkpt lat="44.466433816911255" lon="9.580673472213164"><ele>590.0</ele><time>2026-04-19T07:33:02.998Z</time></trkpt><trkpt lat="44.466478652701916" lon="9.58094691188372"><ele>589.3333333333333</ele><time>2026-04-19T07:33:03.998Z</time></trkpt><trkpt lat="44.46648079136848" lon="9.581238987763319"><ele>588.6666666666666</ele><time>2026-04-19T07:33:04.998Z</time></trkpt><trkpt lat="44.46649217096442" lon="9.581511535138427"><ele>588.0</ele><time>2026-04-19T07:33:05.998Z</time></trkpt><trkpt lat="44.4665468083105" lon="9.581778531940211"><ele>594.3333333333334</ele><time>2026-04-19T07:33:06.998Z</time></trkpt><trkpt lat="44.46663979398723" lon="9.58203061285806"><ele>600.6666666666667</ele><time>2026-04-19T07:33:07.998Z</time></trkpt><trkpt lat="44.46676131027582" lon="9.58226939296493"><ele>607.0</ele><time>2026-04-19T07:33:08.998Z</time></trkpt><trkpt lat="44.46688254125627" lon="9.58249331706032"><ele>607.0</ele><time>2026-04-19T07:33:09.998Z</time></trkpt><trkpt lat="44.467012230888905" lon="9.582707700969262"><ele>607.0</ele><time>2026-04-19T07:33:10.998Z</time></trkpt><trkpt lat="44.46715732154553" lon="9.58287815517767"><ele>607.0</ele><time>2026-04-19T07:33:11.998Z</time></trkpt><trkpt lat="44.4673203104631" lon="9.583001122597137"><ele>603.3333333333334</ele><time>2026-04-19T07:33:12.998Z</time></trkpt><trkpt lat="44.4675042491917" lon="9.583058717053671"><ele>599.6666666666666</ele><time>2026-04-19T07:33:13.998Z</time></trkpt><trkpt lat="44.467701698335574" lon="9.58306571932353"><ele>596.0</ele><time>2026-04-19T07:33:14.998Z</time></trkpt><trkpt lat="44.4679013205365" lon="9.583036005116204"><ele>595.0</ele><time>2026-04-19T07:33:15.998Z</time></trkpt><trkpt lat="44.46809985917595" lon="9.583008124236965"><ele>594.0</ele><time>2026-04-19T07:33:16.998Z</time></trkpt><trkpt lat="44.46829404127883" lon="9.582963445591682"><ele>593.0</ele><time>2026-04-19T07:33:17.998Z</time></trkpt><trkpt lat="44.468491550439204" lon="9.582898980562991"><ele>588.0</ele><time>2026-04-19T07:33:18.998Z</time></trkpt><trkpt lat="44.46867449162234" lon="9.58282134830751"><ele>583.0</ele><time>2026-04-19T07:33:19.998Z</time></trkpt><trkpt lat="44.468858240333354" lon="9.582733140956783"><ele>578.0</ele><time>2026-04-19T07:33:20.998Z</time></trkpt><trkpt lat="44.469029882876335" lon="9.58265001759085"><ele>578.0</ele><time>2026-04-19T07:33:21.998Z</time></trkpt><trkpt lat="44.469199936097716" lon="9.58256697825448"><ele>578.0</ele><time>2026-04-19T07:33:22.998Z</time></trkpt><trkpt lat="44.46937278493246" lon="9.582514257799158"><ele>578.0</ele><time>2026-04-19T07:33:23.998Z</time></trkpt><trkpt lat="44.469531718304644" lon="9.58248143469668"><ele>577.0</ele><time>2026-04-19T07:33:24.998Z</time></trkpt><trkpt lat="44.469686302776786" lon="9.582538042674228"><ele>576.0</ele><time>2026-04-19T07:33:25.998Z</time></trkpt><trkpt lat="44.46985652852483" lon="9.582642243747914"><ele>575.0</ele><time>2026-04-19T07:33:26.998Z</time></trkpt><trkpt lat="44.4700496885271" lon="9.582717880972513"><ele>575.0</ele><time>2026-04-19T07:33:27.998Z</time></trkpt><trkpt lat="44.470224542824205" lon="9.582789839804164"><ele>575.0</ele><time>2026-04-19T07:33:28.998Z</time></trkpt><trkpt lat="44.47039073502655" lon="9.582825552468071"><ele>575.0</ele><time>2026-04-19T07:33:29.998Z</time></trkpt><trkpt lat="44.470518351855596" lon="9.582902779796838"><ele>577.6666666666666</ele><time>2026-04-19T07:33:30.998Z</time></trkpt><trkpt lat="44.47061083979788" lon="9.583041780182429"><ele>580.3333333333334</ele><time>2026-04-19T07:33:31.998Z</time></trkpt><trkpt lat="44.470719676258774" lon="9.583226612570575"><ele>583.0</ele><time>2026-04-19T07:33:32.998Z</time></trkpt><trkpt lat="44.470852878762756" lon="9.583404719659995"><ele>583.0</ele><time>2026-04-19T07:33:33.998Z</time></trkpt><trkpt lat="44.4709895932591" lon="9.583557733269805"><ele>583.0</ele><time>2026-04-19T07:33:34.998Z</time></trkpt><trkpt lat="44.47115038876664" lon="9.583680497203327"><ele>583.0</ele><time>2026-04-19T07:33:35.998Z</time></trkpt><trkpt lat="44.47131565972961" lon="9.583805004557576"><ele>586.3333333333334</ele><time>2026-04-19T07:33:36.998Z</time></trkpt><trkpt lat="44.47147851829027" lon="9.583934172808949"><ele>589.6666666666666</ele><time>2026-04-19T07:33:37.998Z</time></trkpt><trkpt lat="44.4716340754383" lon="9.584027080561132"><ele>593.0</ele><time>2026-04-19T07:33:38.998Z</time></trkpt><trkpt lat="44.471816736975725" lon="9.584056628697349"><ele>593.0</ele><time>2026-04-19T07:33:39.998Z</time></trkpt><trkpt lat="44.47199656406791" lon="9.584007360800769"><ele>593.0</ele><time>2026-04-19T07:33:40.998Z</time></trkpt><trkpt lat="44.4721670686493" lon="9.583896535571608"><ele>593.0</ele><time>2026-04-19T07:33:41.998Z</time></trkpt><trkpt lat="44.47232178978249" lon="9.583726337971239"><ele>587.3333333333333</ele><time>2026-04-19T07:33:42.998Z</time></trkpt><trkpt lat="44.472496597661824" lon="9.583614998789141"><ele>581.6666666666666</ele><time>2026-04-19T07:33:43.998Z</time></trkpt><trkpt lat="44.4726516468939" lon="9.583493808080416"><ele>576.0</ele><time>2026-04-19T07:33:44.998Z</time></trkpt><trkpt lat="44.472816569136974" lon="9.583366044493605"><ele>574.6666666666666</ele><time>2026-04-19T07:33:45.997Z</time></trkpt><trkpt lat="44.47296462634529" lon="9.583266551675552"><ele>573.3333333333333</ele><time>2026-04-19T07:33:46.997Z</time></trkpt><trkpt lat="44.47312597859061" lon="9.583214189803227"><ele>572.0</ele><time>2026-04-19T07:33:47.997Z</time></trkpt><trkpt lat="44.47329670926473" lon="9.583225454789881"><ele>572.0</ele><time>2026-04-19T07:33:48.997Z</time></trkpt><trkpt lat="44.47347549779423" lon="9.58329167329549"><ele>572.0</ele><time>2026-04-19T07:33:49.997Z</time></trkpt><trkpt lat="44.47363891135327" lon="9.583387991776148"><ele>572.0</ele><time>2026-04-19T07:33:50.997Z</time></trkpt><trkpt lat="44.47378784855399" lon="9.583533807765377"><ele>569.3333333333333</ele><time>2026-04-19T07:33:51.997Z</time></trkpt><trkpt lat="44.47388210001957" lon="9.583753255012134"><ele>566.6666666666666</ele><time>2026-04-19T07:33:52.997Z</time></trkpt><trkpt lat="44.47397108191819" lon="9.584008004937479"><ele>564.0</ele><time>2026-04-19T07:33:53.997Z</time></trkpt><trkpt lat="44.47407292014843" lon="9.584249656287035"><ele>564.0</ele><time>2026-04-19T07:33:55Z</time></trkpt><trkpt lat="44.47415368154625" lon="9.584486974069208"><ele>564.0</ele><time>2026-04-19T07:33:56Z</time></trkpt><trkpt lat="44.47421920884283" lon="9.584742080839238"><ele>564.0</ele><time>2026-04-19T07:33:57Z</time></trkpt><trkpt lat="44.4742757921646" lon="9.584985981278809"><ele>566.0</ele><time>2026-04-19T07:33:58Z</time></trkpt><trkpt lat="44.474290049565596" lon="9.58525305820046"><ele>568.0</ele><time>2026-04-19T07:33:59Z</time></trkpt><trkpt lat="44.474276728916955" lon="9.585530367637835"><ele>570.0</ele><time>2026-04-19T07:34:00Z</time></trkpt><trkpt lat="44.47423695752014" lon="9.585793949104193"><ele>570.0</ele><time>2026-04-19T07:34:01Z</time></trkpt><trkpt lat="44.474197494379986" lon="9.58607250577684"><ele>570.0</ele><time>2026-04-19T07:34:02Z</time></trkpt><trkpt lat="44.47414078785844" lon="9.586346417778206"><ele>570.0</ele><time>2026-04-19T07:34:03Z</time></trkpt><trkpt lat="44.47408858615474" lon="9.586619442431793"><ele>568.0</ele><time>2026-04-19T07:34:04Z</time></trkpt><trkpt lat="44.474047753636306" lon="9.586886491970949"><ele>566.0</ele><time>2026-04-19T07:34:05Z</time></trkpt><trkpt lat="44.474022247932254" lon="9.587157225939082"><ele>564.0</ele><time>2026-04-19T07:34:06Z</time></trkpt><trkpt lat="44.47401869540704" lon="9.58740479764544"><ele>563.6666666666666</ele><time>2026-04-19T07:34:07Z</time></trkpt><trkpt lat="44.474043448948535" lon="9.58765040457577"><ele>563.3333333333333</ele><time>2026-04-19T07:34:07.999Z</time></trkpt><trkpt lat="44.47408902667016" lon="9.58789685162508"><ele>563.0</ele><time>2026-04-19T07:34:08.999Z</time></trkpt><trkpt lat="44.47417567495681" lon="9.58812409619627"><ele>567.6666666666666</ele><time>2026-04-19T07:34:09.999Z</time></trkpt><trkpt lat="44.474305062559424" lon="9.588334607443667"><ele>572.3333333333334</ele><time>2026-04-19T07:34:10.999Z</time></trkpt><trkpt lat="44.47444522895747" lon="9.58852435039697"><ele>577.0</ele><time>2026-04-19T07:34:11.999Z</time></trkpt><trkpt lat="44.4745800254665" lon="9.58871848942"><ele>572.6666666666667</ele><time>2026-04-19T07:34:12.999Z</time></trkpt><trkpt lat="44.47470784784182" lon="9.588923389940224"><ele>568.3333333333334</ele><time>2026-04-19T07:34:13.999Z</time></trkpt><trkpt lat="44.474841141022864" lon="9.589104371342783"><ele>564.0</ele><time>2026-04-19T07:34:14.999Z</time></trkpt><trkpt lat="44.47499345319798" lon="9.589235987548605"><ele>564.0</ele><time>2026-04-19T07:34:15.999Z</time></trkpt><trkpt lat="44.47516045725424" lon="9.589307152087068"><ele>564.0</ele><time>2026-04-19T07:34:16.999Z</time></trkpt><trkpt lat="44.47530339090172" lon="9.589368623983729"><ele>564.0</ele><time>2026-04-19T07:34:17.999Z</time></trkpt><trkpt lat="44.47540312822469" lon="9.589454576063577"><ele>564.0</ele><time>2026-04-19T07:34:18.999Z</time></trkpt><trkpt lat="44.4754673868724" lon="9.589580137854924"><ele>560.3333333333334</ele><time>2026-04-19T07:34:19.999Z</time></trkpt><trkpt lat="44.475456295118235" lon="9.589765858608242"><ele>556.6666666666667</ele><time>2026-04-19T07:34:20.999Z</time></trkpt><trkpt lat="44.47547907507245" lon="9.589986410927352"><ele>553.0</ele><time>2026-04-19T07:34:21.999Z</time></trkpt><trkpt lat="44.47548713150049" lon="9.590209229700168"><ele>556.0</ele><time>2026-04-19T07:34:22.999Z</time></trkpt><trkpt lat="44.475508817231166" lon="9.59044238310954"><ele>559.0</ele><time>2026-04-19T07:34:23.999Z</time></trkpt><trkpt lat="44.475556602182" lon="9.590676955457912"><ele>562.0</ele><time>2026-04-19T07:34:24.999Z</time></trkpt><trkpt lat="44.47564159515342" lon="9.590901528307695"><ele>562.0</ele><time>2026-04-19T07:34:25.999Z</time></trkpt><trkpt lat="44.47575515745683" lon="9.591099335014341"><ele>562.0</ele><time>2026-04-19T07:34:26.999Z</time></trkpt><trkpt lat="44.475895789750716" lon="9.591238933318742"><ele>562.0</ele><time>2026-04-19T07:34:27.999Z</time></trkpt><trkpt lat="44.47605773128879" lon="9.591323692611752"><ele>559.3333333333334</ele><time>2026-04-19T07:34:28.999Z</time></trkpt><trkpt lat="44.476232094430905" lon="9.591420829101967"><ele>556.6666666666666</ele><time>2026-04-19T07:34:29.999Z</time></trkpt><trkpt lat="44.47639207638698" lon="9.591526704605299"><ele>554.0</ele><time>2026-04-19T07:34:30.999Z</time></trkpt><trkpt lat="44.47652120269432" lon="9.591698088128393"><ele>554.0</ele><time>2026-04-19T07:34:31.999Z</time></trkpt><trkpt lat="44.47664726455282" lon="9.591893593716778"><ele>554.0</ele><time>2026-04-19T07:34:32.999Z</time></trkpt><trkpt lat="44.476779026556166" lon="9.592106920143001"><ele>554.0</ele><time>2026-04-19T07:34:33.999Z</time></trkpt><trkpt lat="44.47690784221581" lon="9.592319446984062"><ele>555.6666666666666</ele><time>2026-04-19T07:34:34.999Z</time></trkpt><trkpt lat="44.47703330639461" lon="9.592529037589944"><ele>557.3333333333334</ele><time>2026-04-19T07:34:35.999Z</time></trkpt><trkpt lat="44.47715495584038" lon="9.592710908206337"><ele>559.0</ele><time>2026-04-19T07:34:36.999Z</time></trkpt><trkpt lat="44.47728563010069" lon="9.592842196641689"><ele>559.0</ele><time>2026-04-19T07:34:37.999Z</time></trkpt><trkpt lat="44.477385955637" lon="9.592979878430114"><ele>559.0</ele><time>2026-04-19T07:34:38.999Z</time></trkpt><trkpt lat="44.477458210530315" lon="9.593105034586141"><ele>559.0</ele><time>2026-04-19T07:34:39.999Z</time></trkpt><trkpt lat="44.47748418455212" lon="9.593270270163949"><ele>559.0</ele><time>2026-04-19T07:34:40.999Z</time></trkpt><trkpt lat="44.47745201996763" lon="9.593469986473494"><ele>561.3333333333334</ele><time>2026-04-19T07:34:41.999Z</time></trkpt><trkpt lat="44.477371403330004" lon="9.593692189427907"><ele>563.6666666666666</ele><time>2026-04-19T07:34:42.999Z</time></trkpt><trkpt lat="44.47730696057792" lon="9.593955743979393"><ele>566.0</ele><time>2026-04-19T07:34:43.999Z</time></trkpt><trkpt lat="44.477232064959644" lon="9.594204121564177"><ele>566.0</ele><time>2026-04-19T07:34:44.999Z</time></trkpt><trkpt lat="44.477156662018864" lon="9.594464442977753"><ele>566.0</ele><time>2026-04-19T07:34:45.999Z</time></trkpt><trkpt lat="44.47708044882304" lon="9.594733457052842"><ele>566.0</ele><time>2026-04-19T07:34:46.999Z</time></trkpt><trkpt lat="44.47701082738247" lon="9.59497817235931"><ele>576.0</ele><time>2026-04-19T07:34:47.999Z</time></trkpt><trkpt lat="44.47696271786268" lon="9.595221130740269"><ele>586.0</ele><time>2026-04-19T07:34:48.999Z</time></trkpt><trkpt lat="44.47694601441738" lon="9.595488807712341"><ele>596.0</ele><time>2026-04-19T07:34:49.999Z</time></trkpt><trkpt lat="44.476962513809895" lon="9.595764000307039"><ele>596.0</ele><time>2026-04-19T07:34:50.999Z</time></trkpt><trkpt lat="44.47698647382335" lon="9.596045139147991"><ele>596.0</ele><time>2026-04-19T07:34:51.999Z</time></trkpt><trkpt lat="44.47703331827062" lon="9.596314795400453"><ele>596.0</ele><time>2026-04-19T07:34:52.999Z</time></trkpt><trkpt lat="44.47710754606386" lon="9.596567689711936"><ele>584.3333333333333</ele><time>2026-04-19T07:34:53.999Z</time></trkpt><trkpt lat="44.47721983214367" lon="9.596811096447347"><ele>572.6666666666666</ele><time>2026-04-19T07:34:54.999Z</time></trkpt><trkpt lat="44.47734056839567" lon="9.597045637242113"><ele>561.0</ele><time>2026-04-19T07:34:55.999Z</time></trkpt><trkpt lat="44.47741657765288" lon="9.597312324269556"><ele>561.0</ele><time>2026-04-19T07:34:56.999Z</time></trkpt><trkpt lat="44.47749151848846" lon="9.597589049100938"><ele>561.0</ele><time>2026-04-19T07:34:57.999Z</time></trkpt><trkpt lat="44.47756127612749" lon="9.597863679860769"><ele>561.0</ele><time>2026-04-19T07:34:58.999Z</time></trkpt><trkpt lat="44.47764515425315" lon="9.598131889073079"><ele>561.6666666666666</ele><time>2026-04-19T07:34:59.999Z</time></trkpt><trkpt lat="44.477713937428916" lon="9.598409371098116"><ele>562.3333333333333</ele><time>2026-04-19T07:35:00.999Z</time></trkpt><trkpt lat="44.47777831857554" lon="9.59867843238469"><ele>563.0</ele><time>2026-04-19T07:35:01.998Z</time></trkpt><trkpt lat="44.477840071768085" lon="9.598942270100133"><ele>563.0</ele><time>2026-04-19T07:35:02.998Z</time></trkpt><trkpt lat="44.47789482779364" lon="9.599186970820082"><ele>563.0</ele><time>2026-04-19T07:35:03.998Z</time></trkpt><trkpt lat="44.477966209663336" lon="9.599408947259752"><ele>563.0</ele><time>2026-04-19T07:35:04.998Z</time></trkpt><trkpt lat="44.478065760793754" lon="9.599598073072643"><ele>558.75</ele><time>2026-04-19T07:35:05.998Z</time></trkpt><trkpt lat="44.47815398857668" lon="9.599779432522318"><ele>554.5</ele><time>2026-04-19T07:35:06.998Z</time></trkpt><trkpt lat="44.47822187911016" lon="9.59994704980642"><ele>550.25</ele><time>2026-04-19T07:35:07.998Z</time></trkpt><trkpt lat="44.478238842195076" lon="9.60012129385398"><ele>546.0</ele><time>2026-04-19T07:35:08.998Z</time></trkpt><trkpt lat="44.47819689756931" lon="9.600301266916663"><ele>546.3333333333334</ele><time>2026-04-19T07:35:09.998Z</time></trkpt><trkpt lat="44.47809887685682" lon="9.600440703339265"><ele>546.6666666666667</ele><time>2026-04-19T07:35:10.998Z</time></trkpt><trkpt lat="44.477976686190296" lon="9.600572238365121"><ele>547.0</ele><time>2026-04-19T07:35:11.998Z</time></trkpt><trkpt lat="44.47784694221867" lon="9.600715649495175"><ele>550.3333333333334</ele><time>2026-04-19T07:35:12.998Z</time></trkpt><trkpt lat="44.47769232070406" lon="9.60084357426672"><ele>553.6666666666666</ele><time>2026-04-19T07:35:13.998Z</time></trkpt><trkpt lat="44.477540333139366" lon="9.600987994097197"><ele>557.0</ele><time>2026-04-19T07:35:14.998Z</time></trkpt><trkpt lat="44.47738197187655" lon="9.601137087994823"><ele>554.6666666666666</ele><time>2026-04-19T07:35:15.998Z</time></trkpt><trkpt lat="44.47723554522362" lon="9.601299537617052"><ele>552.3333333333334</ele><time>2026-04-19T07:35:16.998Z</time></trkpt><trkpt lat="44.477104842301486" lon="9.6014965833162"><ele>550.0</ele><time>2026-04-19T07:35:17.998Z</time></trkpt><trkpt lat="44.47699469632578" lon="9.601715959407644"><ele>555.6666666666667</ele><time>2026-04-19T07:35:18.998Z</time></trkpt><trkpt lat="44.47690343834951" lon="9.601935154265867"><ele>561.3333333333334</ele><time>2026-04-19T07:35:19.998Z</time></trkpt><trkpt lat="44.476824987470145" lon="9.602133048390906"><ele>567.0</ele><time>2026-04-19T07:35:20.998Z</time></trkpt><trkpt lat="44.47676552631773" lon="9.60233259434007"><ele>567.0</ele><time>2026-04-19T07:35:21.998Z</time></trkpt><trkpt lat="44.47675776405404" lon="9.602554925846675"><ele>567.0</ele><time>2026-04-19T07:35:22.998Z</time></trkpt><trkpt lat="44.476817620723615" lon="9.602793118051494"><ele>567.0</ele><time>2026-04-19T07:35:23.998Z</time></trkpt><trkpt lat="44.47691313836056" lon="9.603025823863076"><ele>572.25</ele><time>2026-04-19T07:35:24.998Z</time></trkpt><trkpt lat="44.47699994373071" lon="9.6032353037352"><ele>577.5</ele><time>2026-04-19T07:35:25.998Z</time></trkpt><trkpt lat="44.477073608364094" lon="9.603415575972726"><ele>582.75</ele><time>2026-04-19T07:35:26.998Z</time></trkpt><trkpt lat="44.47716588284038" lon="9.603528503358463"><ele>588.0</ele><time>2026-04-19T07:35:27.998Z</time></trkpt><trkpt lat="44.47730303125202" lon="9.603553383939259"><ele>579.75</ele><time>2026-04-19T07:35:28.998Z</time></trkpt><trkpt lat="44.477452793828256" lon="9.603553546695029"><ele>571.5</ele><time>2026-04-19T07:35:29.998Z</time></trkpt><trkpt lat="44.47756596376951" lon="9.60366393407079"><ele>563.25</ele><time>2026-04-19T07:35:30.998Z</time></trkpt><trkpt lat="44.47764200727373" lon="9.603823125235325"><ele>555.0</ele><time>2026-04-19T07:35:31.998Z</time></trkpt><trkpt lat="44.47771030661144" lon="9.604061653810124"><ele>555.0</ele><time>2026-04-19T07:35:32.998Z</time></trkpt><trkpt lat="44.477776512947514" lon="9.60428216173301"><ele>555.0</ele><time>2026-04-19T07:35:33.998Z</time></trkpt><trkpt lat="44.47786740437049" lon="9.604516792134929"><ele>555.0</ele><time>2026-04-19T07:35:34.998Z</time></trkpt><trkpt lat="44.47797950742525" lon="9.604734676690898"><ele>548.6666666666666</ele><time>2026-04-19T07:35:35.998Z</time></trkpt><trkpt lat="44.47811100913475" lon="9.604913659217873"><ele>542.3333333333333</ele><time>2026-04-19T07:35:36.998Z</time></trkpt><trkpt lat="44.47823250023108" lon="9.605065273507256"><ele>536.0</ele><time>2026-04-19T07:35:37.998Z</time></trkpt><trkpt lat="44.47836091769333" lon="9.605308012657657"><ele>541.3333333333333</ele><time>2026-04-19T07:35:38.998Z</time></trkpt><trkpt lat="44.47846846552772" lon="9.605517812322748"><ele>546.6666666666666</ele><time>2026-04-19T07:35:39.998Z</time></trkpt><trkpt lat="44.478551745676675" lon="9.60573262617761"><ele>552.0</ele><time>2026-04-19T07:35:40.998Z</time></trkpt><trkpt lat="44.478629291149616" lon="9.605944268631816"><ele>552.0</ele><time>2026-04-19T07:35:41.998Z</time></trkpt><trkpt lat="44.478741595254874" lon="9.606103996538774"><ele>552.0</ele><time>2026-04-19T07:35:42.998Z</time></trkpt><trkpt lat="44.47887639841093" lon="9.606218556655968"><ele>552.0</ele><time>2026-04-19T07:35:43.998Z</time></trkpt><trkpt lat="44.47898663640796" lon="9.60634265954815"><ele>546.3333333333334</ele><time>2026-04-19T07:35:44.998Z</time></trkpt><trkpt lat="44.479076080646905" lon="9.606515485078372"><ele>540.6666666666667</ele><time>2026-04-19T07:35:45.998Z</time></trkpt><trkpt lat="44.47912976882624" lon="9.60674197843661"><ele>535.0</ele><time>2026-04-19T07:35:46.998Z</time></trkpt><trkpt lat="44.47919715931064" lon="9.606996494933314"><ele>535.0</ele><time>2026-04-19T07:35:47.998Z</time></trkpt><trkpt lat="44.479245700879595" lon="9.607253362179451"><ele>535.0</ele><time>2026-04-19T07:35:48.998Z</time></trkpt><trkpt lat="44.47931193489344" lon="9.607502156895887"><ele>535.0</ele><time>2026-04-19T07:35:49.998Z</time></trkpt><trkpt lat="44.47940459872778" lon="9.607731660539564"><ele>538.0</ele><time>2026-04-19T07:35:50.998Z</time></trkpt><trkpt lat="44.479517490113565" lon="9.607939361370107"><ele>541.0</ele><time>2026-04-19T07:35:51.997Z</time></trkpt><trkpt lat="44.47963296670305" lon="9.608146108106743"><ele>544.0</ele><time>2026-04-19T07:35:52.997Z</time></trkpt><trkpt lat="44.47974212126512" lon="9.60835659287144"><ele>542.0</ele><time>2026-04-19T07:35:53.997Z</time></trkpt><trkpt lat="44.4798434104824" lon="9.608564871672483"><ele>540.0</ele><time>2026-04-19T07:35:54.997Z</time></trkpt><trkpt lat="44.47994073881561" lon="9.608754642441891"><ele>538.0</ele><time>2026-04-19T07:35:55.997Z</time></trkpt><trkpt lat="44.4800632488123" lon="9.60889652810558"><ele>538.0</ele><time>2026-04-19T07:35:56.997Z</time></trkpt><trkpt lat="44.480227821554955" lon="9.608969506465431"><ele>538.0</ele><time>2026-04-19T07:35:57.997Z</time></trkpt><trkpt lat="44.480406676785535" lon="9.608989733850969"><ele>538.0</ele><time>2026-04-19T07:35:58.997Z</time></trkpt><trkpt lat="44.48056725655877" lon="9.609086639107145"><ele>537.3333333333334</ele><time>2026-04-19T07:35:59.997Z</time></trkpt><trkpt lat="44.4807273697451" lon="9.609208222378852"><ele>536.6666666666666</ele><time>2026-04-19T07:36:01Z</time></trkpt><trkpt lat="44.48082749877361" lon="9.609379082886715"><ele>536.0</ele><time>2026-04-19T07:36:02Z</time></trkpt><trkpt lat="44.48091359441335" lon="9.6095823208844"><ele>536.0</ele><time>2026-04-19T07:36:03Z</time></trkpt><trkpt lat="44.481005521093735" lon="9.60980037391933"><ele>536.0</ele><time>2026-04-19T07:36:04Z</time></trkpt><trkpt lat="44.4810560230179" lon="9.61000031877554"><ele>536.0</ele><time>2026-04-19T07:36:05Z</time></trkpt><trkpt lat="44.481075763716426" lon="9.610123296765527"><ele>536.0</ele><time>2026-04-19T07:36:06Z</time></trkpt><trkpt lat="44.48108895270757" lon="9.610209598157157"><ele>536.0</ele><time>2026-04-19T07:36:08Z</time></trkpt><trkpt lat="44.48113624202315" lon="9.61030566575328"><ele>536.0</ele><time>2026-04-19T07:37:39.998Z</time></trkpt><trkpt lat="44.481179164852286" lon="9.610382973502974"><ele>536.0</ele><time>2026-04-19T07:37:40.998Z</time></trkpt><trkpt lat="44.48125280414109" lon="9.610457758387245"><ele>536.0</ele><time>2026-04-19T07:37:41.998Z</time></trkpt><trkpt lat="44.48134268508291" lon="9.610535613664203"><ele>536.0</ele><time>2026-04-19T07:37:42.998Z</time></trkpt><trkpt lat="44.48143468354601" lon="9.610608948226998"><ele>530.5</ele><time>2026-04-19T07:37:43.998Z</time></trkpt><trkpt lat="44.48153940342728" lon="9.610696513883637"><ele>525.0</ele><time>2026-04-19T07:37:44.998Z</time></trkpt><trkpt lat="44.48164629094416" lon="9.610787954287865"><ele>519.5</ele><time>2026-04-19T07:37:45.998Z</time></trkpt><trkpt lat="44.48175838030552" lon="9.610889641311976"><ele>514.0</ele><time>2026-04-19T07:37:46.998Z</time></trkpt><trkpt lat="44.48187748436053" lon="9.610993224388999"><ele>514.0</ele><time>2026-04-19T07:37:47.998Z</time></trkpt><trkpt lat="44.48198065493797" lon="9.611111416711708"><ele>514.0</ele><time>2026-04-19T07:37:48.998Z</time></trkpt><trkpt lat="44.482057183308605" lon="9.611281746262218"><ele>514.0</ele><time>2026-04-19T07:37:49.998Z</time></trkpt><trkpt lat="44.48211276906544" lon="9.611495376315952"><ele>514.0</ele><time>2026-04-19T07:37:50.998Z</time></trkpt><trkpt lat="44.48217270611205" lon="9.611713056167405"><ele>516.0</ele><time>2026-04-19T07:37:51.998Z</time></trkpt><trkpt lat="44.48223281735776" lon="9.611926676464273"><ele>518.0</ele><time>2026-04-19T07:37:52.998Z</time></trkpt><trkpt lat="44.482298473272756" lon="9.612142788563817"><ele>520.0</ele><time>2026-04-19T07:37:53.998Z</time></trkpt><trkpt lat="44.48237594132709" lon="9.612358325611416"><ele>520.0</ele><time>2026-04-19T07:37:54.998Z</time></trkpt><trkpt lat="44.48246871173139" lon="9.612562191847934"><ele>520.0</ele><time>2026-04-19T07:37:55.998Z</time></trkpt><trkpt lat="44.48259039976573" lon="9.612762696253442"><ele>520.0</ele><time>2026-04-19T07:37:56.998Z</time></trkpt><trkpt lat="44.482730746886816" lon="9.61293745910194"><ele>517.6666666666667</ele><time>2026-04-19T07:37:57.998Z</time></trkpt><trkpt lat="44.48288014432796" lon="9.613117651651383"><ele>515.3333333333334</ele><time>2026-04-19T07:37:58.998Z</time></trkpt><trkpt lat="44.483030497934834" lon="9.613295900712812"><ele>513.0</ele><time>2026-04-19T07:37:59.998Z</time></trkpt><trkpt lat="44.48317895749267" lon="9.613475153430283"><ele>513.6666666666666</ele><time>2026-04-19T07:38:00.998Z</time></trkpt><trkpt lat="44.48332272915642" lon="9.613651931111258"><ele>514.3333333333333</ele><time>2026-04-19T07:38:01.997Z</time></trkpt><trkpt lat="44.4834655044594" lon="9.613831407538566"><ele>515.0</ele><time>2026-04-19T07:38:02.997Z</time></trkpt><trkpt lat="44.4836083532777" lon="9.614009912525002"><ele>515.0</ele><time>2026-04-19T07:38:03.997Z</time></trkpt><trkpt lat="44.48375110084108" lon="9.614188595040611"><ele>515.0</ele><time>2026-04-19T07:38:04.997Z</time></trkpt><trkpt lat="44.48389323524851" lon="9.61435686324939"><ele>515.0</ele><time>2026-04-19T07:38:05.997Z</time></trkpt><trkpt lat="44.48404264601542" lon="9.61450097117296"><ele>514.3333333333333</ele><time>2026-04-19T07:38:07Z</time></trkpt><trkpt lat="44.48421102798598" lon="9.614602881219268"><ele>513.6666666666666</ele><time>2026-04-19T07:38:08Z</time></trkpt><trkpt lat="44.48438409626072" lon="9.614659915738045"><ele>513.0</ele><time>2026-04-19T07:38:09Z</time></trkpt><trkpt lat="44.48456837710287" lon="9.614691061043258"><ele>513.6666666666666</ele><time>2026-04-19T07:38:10Z</time></trkpt><trkpt lat="44.48474996226778" lon="9.614718104897054"><ele>514.3333333333333</ele><time>2026-04-19T07:38:11Z</time></trkpt><trkpt lat="44.48493688432726" lon="9.614760359138518"><ele>515.0</ele><time>2026-04-19T07:38:12Z</time></trkpt><trkpt lat="44.4851160177778" lon="9.614806766717367"><ele>515.0</ele><time>2026-04-19T07:38:13Z</time></trkpt><trkpt lat="44.48529849639992" lon="9.61485333065726"><ele>515.0</ele><time>2026-04-19T07:38:14Z</time></trkpt><trkpt lat="44.48549068685446" lon="9.614896909809596"><ele>515.0</ele><time>2026-04-19T07:38:15Z</time></trkpt><trkpt lat="44.4856719914349" lon="9.614937751304124"><ele>515.0</ele><time>2026-04-19T07:38:16Z</time></trkpt><trkpt lat="44.48585669933258" lon="9.61498155609834"><ele>515.0</ele><time>2026-04-19T07:38:17Z</time></trkpt><trkpt lat="44.48604408911285" lon="9.615027088190724"><ele>515.0</ele><time>2026-04-19T07:38:18Z</time></trkpt><trkpt lat="44.48622897025516" lon="9.61507768893295"><ele>512.3333333333333</ele><time>2026-04-19T07:38:19Z</time></trkpt><trkpt lat="44.48641454747824" lon="9.615146680113616"><ele>509.66666666666663</ele><time>2026-04-19T07:38:20Z</time></trkpt><trkpt lat="44.486591792239714" lon="9.615252647782638"><ele>507.0</ele><time>2026-04-19T07:38:21Z</time></trkpt><trkpt lat="44.48676651690393" lon="9.615386602749306"><ele>507.0</ele><time>2026-04-19T07:38:22Z</time></trkpt><trkpt lat="44.48694247938856" lon="9.615507282721909"><ele>507.0</ele><time>2026-04-19T07:38:23Z</time></trkpt><trkpt lat="44.48712216328226" lon="9.615596650946122"><ele>507.0</ele><time>2026-04-19T07:38:24Z</time></trkpt><trkpt lat="44.487315947156446" lon="9.61567009248833"><ele>508.66666666666663</ele><time>2026-04-19T07:38:25Z</time></trkpt><trkpt lat="44.487503109230154" lon="9.615748072903033"><ele>510.3333333333333</ele><time>2026-04-19T07:38:26Z</time></trkpt><trkpt lat="44.48769498947844" lon="9.61584993649522"><ele>512.0</ele><time>2026-04-19T07:38:27Z</time></trkpt><trkpt lat="44.48787493349152" lon="9.615967161280198"><ele>508.0</ele><time>2026-04-19T07:38:28Z</time></trkpt><trkpt lat="44.4880645323606" lon="9.616087150590282"><ele>504.0</ele><time>2026-04-19T07:38:29Z</time></trkpt><trkpt lat="44.48824993605105" lon="9.616201428216057"><ele>500.0</ele><time>2026-04-19T07:38:30Z</time></trkpt><trkpt lat="44.48843368984757" lon="9.616313920271658"><ele>500.0</ele><time>2026-04-19T07:38:31Z</time></trkpt><trkpt lat="44.488624063617806" lon="9.616423643611265"><ele>500.0</ele><time>2026-04-19T07:38:32Z</time></trkpt><trkpt lat="44.48881198847738" lon="9.616529709894198"><ele>500.0</ele><time>2026-04-19T07:38:33Z</time></trkpt><trkpt lat="44.48900185574146" lon="9.616629212099545"><ele>502.0</ele><time>2026-04-19T07:38:34Z</time></trkpt><trkpt lat="44.48919599602263" lon="9.61671488240581"><ele>504.0</ele><time>2026-04-19T07:38:35Z</time></trkpt><trkpt lat="44.48939145446635" lon="9.616780695830295"><ele>506.0</ele><time>2026-04-19T07:38:35.999Z</time></trkpt><trkpt lat="44.489580315904746" lon="9.6168597478424"><ele>508.0</ele><time>2026-04-19T07:38:36.999Z</time></trkpt><trkpt lat="44.4897273765114" lon="9.617024378588823"><ele>510.0</ele><time>2026-04-19T07:38:37.999Z</time></trkpt><trkpt lat="44.4898420590174" lon="9.617222990247429"><ele>512.0</ele><time>2026-04-19T07:38:38.999Z</time></trkpt><trkpt lat="44.489963088855625" lon="9.617428550694267"><ele>512.0</ele><time>2026-04-19T07:38:39.999Z</time></trkpt><trkpt lat="44.49008052594308" lon="9.617644500207275"><ele>512.0</ele><time>2026-04-19T07:38:40.999Z</time></trkpt><trkpt lat="44.490183280987125" lon="9.617872390936842"><ele>512.0</ele><time>2026-04-19T07:38:41.999Z</time></trkpt><trkpt lat="44.49024680457276" lon="9.618129525559072"><ele>508.66666666666663</ele><time>2026-04-19T07:38:42.999Z</time></trkpt><trkpt lat="44.49031807669278" lon="9.618372800722536"><ele>505.33333333333337</ele><time>2026-04-19T07:38:43.999Z</time></trkpt><trkpt lat="44.49033533416665" lon="9.618616413427924"><ele>502.0</ele><time>2026-04-19T07:38:44.999Z</time></trkpt><trkpt lat="44.49033997129029" lon="9.618856050823448"><ele>501.0</ele><time>2026-04-19T07:38:45.999Z</time></trkpt><trkpt lat="44.49032508009962" lon="9.619086097143624"><ele>500.0</ele><time>2026-04-19T07:38:46.999Z</time></trkpt><trkpt lat="44.490358215573785" lon="9.619313312177113"><ele>499.0</ele><time>2026-04-19T07:38:47.999Z</time></trkpt><trkpt lat="44.490444226275194" lon="9.61954278227731"><ele>503.33333333333337</ele><time>2026-04-19T07:38:48.999Z</time></trkpt><trkpt lat="44.49056412559795" lon="9.619739285480522"><ele>507.66666666666663</ele><time>2026-04-19T07:38:49.999Z</time></trkpt><trkpt lat="44.490716733913594" lon="9.61990742803946"><ele>512.0</ele><time>2026-04-19T07:38:50.999Z</time></trkpt><trkpt lat="44.490877088959024" lon="9.620047424289986"><ele>512.0</ele><time>2026-04-19T07:38:51.999Z</time></trkpt><trkpt lat="44.490977285104684" lon="9.62023285529006"><ele>512.0</ele><time>2026-04-19T07:38:52.999Z</time></trkpt><trkpt lat="44.49101376104704" lon="9.620438604027958"><ele>512.0</ele><time>2026-04-19T07:38:53.999Z</time></trkpt><trkpt lat="44.4910417831858" lon="9.62068213871466"><ele>510.3333333333333</ele><time>2026-04-19T07:38:54.999Z</time></trkpt><trkpt lat="44.49109622901955" lon="9.620890790091579"><ele>508.66666666666663</ele><time>2026-04-19T07:38:55.999Z</time></trkpt><trkpt lat="44.49119976391241" lon="9.621073697393637"><ele>507.0</ele><time>2026-04-19T07:38:56.999Z</time></trkpt><trkpt lat="44.49132567470832" lon="9.621254935227737"><ele>507.0</ele><time>2026-04-19T07:38:57.999Z</time></trkpt><trkpt lat="44.491431892911315" lon="9.621425072591967"><ele>507.0</ele><time>2026-04-19T07:38:58.999Z</time></trkpt><trkpt lat="44.49151960928613" lon="9.621583403066404"><ele>507.0</ele><time>2026-04-19T07:38:59.999Z</time></trkpt><trkpt lat="44.491625363227705" lon="9.621678457033397"><ele>507.0</ele><time>2026-04-19T07:39:00.999Z</time></trkpt><trkpt lat="44.49176206913282" lon="9.621653742136264"><ele>507.0</ele><time>2026-04-19T07:39:01.999Z</time></trkpt><trkpt lat="44.49188291554013" lon="9.621527952768599"><ele>507.0</ele><time>2026-04-19T07:39:02.999Z</time></trkpt><trkpt lat="44.491971529746166" lon="9.621357696051591"><ele>507.0</ele><time>2026-04-19T07:39:03.999Z</time></trkpt><trkpt lat="44.4920819395709" lon="9.621180471821916"><ele>508.33333333333337</ele><time>2026-04-19T07:39:04.999Z</time></trkpt><trkpt lat="44.49219937354425" lon="9.621004709977278"><ele>509.6666666666667</ele><time>2026-04-19T07:39:05.999Z</time></trkpt><trkpt lat="44.49231902445002" lon="9.620827498584454"><ele>511.0</ele><time>2026-04-19T07:39:06.999Z</time></trkpt><trkpt lat="44.49243597931464" lon="9.62066572897918"><ele>511.0</ele><time>2026-04-19T07:39:07.999Z</time></trkpt><trkpt lat="44.492565180460225" lon="9.620496257722143"><ele>511.0</ele><time>2026-04-19T07:39:08.999Z</time></trkpt><trkpt lat="44.49268696967381" lon="9.62034548013434"><ele>511.0</ele><time>2026-04-19T07:39:09.999Z</time></trkpt><trkpt lat="44.492778258103606" lon="9.620154611823555"><ele>510.33333333333337</ele><time>2026-04-19T07:39:10.999Z</time></trkpt><trkpt lat="44.49287941973757" lon="9.619927709089225"><ele>509.66666666666663</ele><time>2026-04-19T07:39:11.999Z</time></trkpt><trkpt lat="44.492980872484594" lon="9.619728883144658"><ele>509.0</ele><time>2026-04-19T07:39:12.999Z</time></trkpt><trkpt lat="44.493077728197605" lon="9.619527640418964"><ele>511.5</ele><time>2026-04-19T07:39:13.999Z</time></trkpt><trkpt lat="44.493133111412405" lon="9.619309496542037"><ele>514.0</ele><time>2026-04-19T07:39:14.999Z</time></trkpt><trkpt lat="44.49317355550102" lon="9.619116994689783"><ele>516.5</ele><time>2026-04-19T07:39:15.999Z</time></trkpt><trkpt lat="44.49325189146265" lon="9.618963259434208"><ele>519.0</ele><time>2026-04-19T07:39:16.999Z</time></trkpt><trkpt lat="44.493403422858435" lon="9.618869346936767"><ele>519.0</ele><time>2026-04-19T07:39:17.999Z</time></trkpt><trkpt lat="44.49358167904418" lon="9.618817277710187"><ele>519.0</ele><time>2026-04-19T07:39:18.999Z</time></trkpt><trkpt lat="44.49374896841271" lon="9.618745669885115"><ele>519.0</ele><time>2026-04-19T07:39:19.999Z</time></trkpt><trkpt lat="44.49390522544051" lon="9.618652206039359"><ele>519.0</ele><time>2026-04-19T07:39:20.999Z</time></trkpt><trkpt lat="44.494049324945" lon="9.618506771013838"><ele>519.0</ele><time>2026-04-19T07:39:21.999Z</time></trkpt><trkpt lat="44.494185535802366" lon="9.618351260094618"><ele>519.0</ele><time>2026-04-19T07:39:22.999Z</time></trkpt><trkpt lat="44.49432848568067" lon="9.61819092436033"><ele>519.0</ele><time>2026-04-19T07:39:23.999Z</time></trkpt><trkpt lat="44.494470112057705" lon="9.618035430020006"><ele>519.0</ele><time>2026-04-19T07:39:24.998Z</time></trkpt><trkpt lat="44.494623064514556" lon="9.617891599478144"><ele>519.0</ele><time>2026-04-19T07:39:25.998Z</time></trkpt><trkpt lat="44.49475927792574" lon="9.617716269850716"><ele>518.5</ele><time>2026-04-19T07:39:26.998Z</time></trkpt><trkpt lat="44.49486532564475" lon="9.61751587543125"><ele>518.0</ele><time>2026-04-19T07:39:27.998Z</time></trkpt><trkpt lat="44.49496797888462" lon="9.617338051910068"><ele>517.5</ele><time>2026-04-19T07:39:28.998Z</time></trkpt><trkpt lat="44.49504012176933" lon="9.617243818844063"><ele>517.0</ele><time>2026-04-19T07:39:29.998Z</time></trkpt><trkpt lat="44.495135503624006" lon="9.617196215867963"><ele>517.0</ele><time>2026-04-19T07:39:30.998Z</time></trkpt><trkpt lat="44.495247562747835" lon="9.617220113135811"><ele>517.0</ele><time>2026-04-19T07:39:31.998Z</time></trkpt><trkpt lat="44.495333212210056" lon="9.61730500628235"><ele>517.0</ele><time>2026-04-19T07:39:32.998Z</time></trkpt><trkpt lat="44.49547571404593" lon="9.617407726807935"><ele>517.0</ele><time>2026-04-19T07:39:33.998Z</time></trkpt><trkpt lat="44.495619957971954" lon="9.617504166540437"><ele>517.25</ele><time>2026-04-19T07:39:34.998Z</time></trkpt><trkpt lat="44.495754175489736" lon="9.617618615310624"><ele>517.5</ele><time>2026-04-19T07:39:35.998Z</time></trkpt><trkpt lat="44.495856662078424" lon="9.617746210378005"><ele>517.75</ele><time>2026-04-19T07:39:36.998Z</time></trkpt><trkpt lat="44.49590054085538" lon="9.6179180150989"><ele>518.0</ele><time>2026-04-19T07:39:37.998Z</time></trkpt><trkpt lat="44.49590071389417" lon="9.618113096312745"><ele>521.0</ele><time>2026-04-19T07:39:38.998Z</time></trkpt><trkpt lat="44.495808747492006" lon="9.618275243987137"><ele>524.0</ele><time>2026-04-19T07:39:39.998Z</time></trkpt><trkpt lat="44.49572777593652" lon="9.61847275489529"><ele>527.0</ele><time>2026-04-19T07:39:40.998Z</time></trkpt><trkpt lat="44.49566001725504" lon="9.618682170118586"><ele>532.0</ele><time>2026-04-19T07:39:41.998Z</time></trkpt><trkpt lat="44.49557194835274" lon="9.618888007374611"><ele>537.0</ele><time>2026-04-19T07:39:42.998Z</time></trkpt><trkpt lat="44.49546722981466" lon="9.619092349320407"><ele>542.0</ele><time>2026-04-19T07:39:43.998Z</time></trkpt><trkpt lat="44.49536961800723" lon="9.619292954639675"><ele>536.6666666666666</ele><time>2026-04-19T07:39:44.998Z</time></trkpt><trkpt lat="44.49525147370788" lon="9.61947171520588"><ele>531.3333333333334</ele><time>2026-04-19T07:39:45.998Z</time></trkpt><trkpt lat="44.495109780111065" lon="9.61962267412609"><ele>526.0</ele><time>2026-04-19T07:39:46.998Z</time></trkpt><trkpt lat="44.4949695335547" lon="9.61976660717362"><ele>526.0</ele><time>2026-04-19T07:39:47.998Z</time></trkpt><trkpt lat="44.49485440423179" lon="9.619913223720621"><ele>526.0</ele><time>2026-04-19T07:39:48.998Z</time></trkpt><trkpt lat="44.49473985848698" lon="9.620031678174454"><ele>526.0</ele><time>2026-04-19T07:39:49.998Z</time></trkpt><trkpt lat="44.494665201775526" lon="9.620174431285108"><ele>526.0</ele><time>2026-04-19T07:39:50.998Z</time></trkpt><trkpt lat="44.49465024478772" lon="9.620324881928815"><ele>526.5</ele><time>2026-04-19T07:39:51.998Z</time></trkpt><trkpt lat="44.49470884240066" lon="9.620479450291816"><ele>527.0</ele><time>2026-04-19T07:39:52.998Z</time></trkpt><trkpt lat="44.49476051988709" lon="9.620660046723616"><ele>527.5</ele><time>2026-04-19T07:39:53.998Z</time></trkpt><trkpt lat="44.49482584182395" lon="9.620840195743273"><ele>528.0</ele><time>2026-04-19T07:39:54.998Z</time></trkpt><trkpt lat="44.49486050320362" lon="9.621010243840793"><ele>529.75</ele><time>2026-04-19T07:39:55.998Z</time></trkpt><trkpt lat="44.49481758938596" lon="9.6211554439069"><ele>531.5</ele><time>2026-04-19T07:39:56.998Z</time></trkpt><trkpt lat="44.49472295416987" lon="9.621239110938612"><ele>533.25</ele><time>2026-04-19T07:39:57.998Z</time></trkpt><trkpt lat="44.49458093152544" lon="9.621194543479316"><ele>535.0</ele><time>2026-04-19T07:39:58.998Z</time></trkpt><trkpt lat="44.494447332085365" lon="9.6211666348378"><ele>535.0</ele><time>2026-04-19T07:39:59.998Z</time></trkpt><trkpt lat="44.494280899953516" lon="9.62121809361501"><ele>535.0</ele><time>2026-04-19T07:40:00.998Z</time></trkpt><trkpt lat="44.49415589477279" lon="9.621329137698645"><ele>535.0</ele><time>2026-04-19T07:40:01.998Z</time></trkpt><trkpt lat="44.49404257213844" lon="9.62147612373262"><ele>535.0</ele><time>2026-04-19T07:40:02.998Z</time></trkpt><trkpt lat="44.493927451930674" lon="9.621629085125745"><ele>535.0</ele><time>2026-04-19T07:40:03.998Z</time></trkpt><trkpt lat="44.49380679179425" lon="9.62178160633045"><ele>535.0</ele><time>2026-04-19T07:40:04.998Z</time></trkpt><trkpt lat="44.49369030218275" lon="9.62194292361609"><ele>531.75</ele><time>2026-04-19T07:40:05.998Z</time></trkpt><trkpt lat="44.49359122169356" lon="9.62209931759534"><ele>528.5</ele><time>2026-04-19T07:40:06.998Z</time></trkpt><trkpt lat="44.493521283237925" lon="9.622249716380228"><ele>525.25</ele><time>2026-04-19T07:40:07.998Z</time></trkpt><trkpt lat="44.49349400258879" lon="9.622435011498693"><ele>522.0</ele><time>2026-04-19T07:40:08.998Z</time></trkpt><trkpt lat="44.49352716108289" lon="9.622628638487507"><ele>522.0</ele><time>2026-04-19T07:40:09.998Z</time></trkpt><trkpt lat="44.49361380703146" lon="9.622801885912782"><ele>522.0</ele><time>2026-04-19T07:40:10.998Z</time></trkpt><trkpt lat="44.49371198129441" lon="9.622971066222938"><ele>522.0</ele><time>2026-04-19T07:40:11.998Z</time></trkpt><trkpt lat="44.49377457673696" lon="9.623172066308774"><ele>528.0</ele><time>2026-04-19T07:40:13Z</time></trkpt><trkpt lat="44.49380166359036" lon="9.623389443377619"><ele>534.0</ele><time>2026-04-19T07:40:14Z</time></trkpt><trkpt lat="44.493838879885566" lon="9.6235909228222"><ele>540.0</ele><time>2026-04-19T07:40:15Z</time></trkpt><trkpt lat="44.493926263055116" lon="9.62378137942063"><ele>540.0</ele><time>2026-04-19T07:40:16Z</time></trkpt><trkpt lat="44.49404450264903" lon="9.623943066659585"><ele>540.0</ele><time>2026-04-19T07:40:17Z</time></trkpt><trkpt lat="44.49418635447015" lon="9.624088099377964"><ele>540.0</ele><time>2026-04-19T07:40:18Z</time></trkpt><trkpt lat="44.49428144290654" lon="9.624242054731768"><ele>540.0</ele><time>2026-04-19T07:40:19Z</time></trkpt><trkpt lat="44.494347190375095" lon="9.624399781405351"><ele>540.0</ele><time>2026-04-19T07:40:20Z</time></trkpt><trkpt lat="44.494380148953205" lon="9.62459839705393"><ele>540.0</ele><time>2026-04-19T07:40:21Z</time></trkpt><trkpt lat="44.49435164654651" lon="9.624825983249517"><ele>540.0</ele><time>2026-04-19T07:40:22Z</time></trkpt><trkpt lat="44.494303143225416" lon="9.625050098074105"><ele>540.3333333333334</ele><time>2026-04-19T07:40:23Z</time></trkpt><trkpt lat="44.494281885548446" lon="9.625285827578484"><ele>540.6666666666667</ele><time>2026-04-19T07:40:24Z</time></trkpt><trkpt lat="44.494299728333395" lon="9.62551891180593"><ele>541.0</ele><time>2026-04-19T07:40:25Z</time></trkpt><trkpt lat="44.49432265839515" lon="9.625750159359173"><ele>542.0</ele><time>2026-04-19T07:40:26Z</time></trkpt><trkpt lat="44.494333497225306" lon="9.625989905823602"><ele>543.0</ele><time>2026-04-19T07:40:27Z</time></trkpt><trkpt lat="44.4943364076647" lon="9.626240576585763"><ele>544.0</ele><time>2026-04-19T07:40:28Z</time></trkpt><trkpt lat="44.49432482428837" lon="9.62649689298523"><ele>544.0</ele><time>2026-04-19T07:40:29Z</time></trkpt><trkpt lat="44.4943015757242" lon="9.626748812676691"><ele>544.0</ele><time>2026-04-19T07:40:30Z</time></trkpt><trkpt lat="44.49427312338464" lon="9.626990336063734"><ele>544.0</ele><time>2026-04-19T07:40:31Z</time></trkpt><trkpt lat="44.49424726697587" lon="9.627205913650323"><ele>544.0</ele><time>2026-04-19T07:40:32Z</time></trkpt><trkpt lat="44.4942536300877" lon="9.627404910715168"><ele>544.0</ele><time>2026-04-19T07:40:33Z</time></trkpt><trkpt lat="44.494314049064585" lon="9.627591506710163"><ele>544.0</ele><time>2026-04-19T07:40:34Z</time></trkpt><trkpt lat="44.4944263990857" lon="9.627761777721872"><ele>543.6666666666667</ele><time>2026-04-19T07:40:35Z</time></trkpt><trkpt lat="44.494542896233845" lon="9.62793999057864"><ele>543.3333333333334</ele><time>2026-04-19T07:40:36Z</time></trkpt><trkpt lat="44.49459341442351" lon="9.628177169408696"><ele>543.0</ele><time>2026-04-19T07:40:37Z</time></trkpt><trkpt lat="44.494639034177915" lon="9.628429789883256"><ele>550.3333333333334</ele><time>2026-04-19T07:40:38Z</time></trkpt><trkpt lat="44.49469210214011" lon="9.628670377936615"><ele>557.6666666666667</ele><time>2026-04-19T07:40:39Z</time></trkpt><trkpt lat="44.4947328515013" lon="9.628915215304852"><ele>565.0</ele><time>2026-04-19T07:40:40Z</time></trkpt><trkpt lat="44.49479382379496" lon="9.629179627843595"><ele>565.0</ele><time>2026-04-19T07:40:40.999Z</time></trkpt><trkpt lat="44.494842507866764" lon="9.629467559616725"><ele>565.0</ele><time>2026-04-19T07:40:41.999Z</time></trkpt><trkpt lat="44.49487099309779" lon="9.629743551047863"><ele>565.0</ele><time>2026-04-19T07:40:42.999Z</time></trkpt><trkpt lat="44.49491220921875" lon="9.62998542315433"><ele>564.3333333333334</ele><time>2026-04-19T07:40:43.999Z</time></trkpt><trkpt lat="44.49495995574564" lon="9.630222041201431"><ele>563.6666666666666</ele><time>2026-04-19T07:40:44.999Z</time></trkpt><trkpt lat="44.49501383184161" lon="9.630428682052653"><ele>563.0</ele><time>2026-04-19T07:40:45.999Z</time></trkpt><trkpt lat="44.49511296478817" lon="9.630603373991933"><ele>562.3333333333333</ele><time>2026-04-19T07:40:46.999Z</time></trkpt><trkpt lat="44.49524729508858" lon="9.630741554517861"><ele>561.6666666666666</ele><time>2026-04-19T07:40:47.999Z</time></trkpt><trkpt lat="44.49541428561458" lon="9.63081356044108"><ele>561.0</ele><time>2026-04-19T07:40:48.999Z</time></trkpt><trkpt lat="44.49558932979197" lon="9.630828150561051"><ele>562.6666666666666</ele><time>2026-04-19T07:40:49.999Z</time></trkpt><trkpt lat="44.495763993956636" lon="9.63079511207665"><ele>564.3333333333333</ele><time>2026-04-19T07:40:50.999Z</time></trkpt><trkpt lat="44.49593170195054" lon="9.630716477170356"><ele>566.0</ele><time>2026-04-19T07:40:51.999Z</time></trkpt><trkpt lat="44.49609041546397" lon="9.630591205257073"><ele>566.0</ele><time>2026-04-19T07:40:52.999Z</time></trkpt><trkpt lat="44.4962324048548" lon="9.630438841985093"><ele>566.0</ele><time>2026-04-19T07:40:53.999Z</time></trkpt><trkpt lat="44.49637017521664" lon="9.630297122499883"><ele>566.0</ele><time>2026-04-19T07:40:54.999Z</time></trkpt><trkpt lat="44.49650551153066" lon="9.63018088680688"><ele>564.0</ele><time>2026-04-19T07:40:55.999Z</time></trkpt><trkpt lat="44.496635104173485" lon="9.630062655645075"><ele>562.0</ele><time>2026-04-19T07:40:56.999Z</time></trkpt><trkpt lat="44.49673683543994" lon="9.629916858284806"><ele>560.0</ele><time>2026-04-19T07:40:57.999Z</time></trkpt><trkpt lat="44.496792121136885" lon="9.629733349737307"><ele>558.0</ele><time>2026-04-19T07:40:58.999Z</time></trkpt><trkpt lat="44.4967885286948" lon="9.629529363397907"><ele>559.75</ele><time>2026-04-19T07:40:59.999Z</time></trkpt><trkpt lat="44.49681754984399" lon="9.629364738551333"><ele>561.5</ele><time>2026-04-19T07:41:00.999Z</time></trkpt><trkpt lat="44.496885801073" lon="9.629256455476087"><ele>563.25</ele><time>2026-04-19T07:41:01.999Z</time></trkpt><trkpt lat="44.496984904444425" lon="9.629191290841561"><ele>565.0</ele><time>2026-04-19T07:41:02.999Z</time></trkpt><trkpt lat="44.497117131750784" lon="9.629265313140603"><ele>561.5</ele><time>2026-04-19T07:41:03.999Z</time></trkpt><trkpt lat="44.49725957638656" lon="9.629299262135016"><ele>558.0</ele><time>2026-04-19T07:41:04.999Z</time></trkpt><trkpt lat="44.49737573541842" lon="9.629317956552857"><ele>554.5</ele><time>2026-04-19T07:41:05.999Z</time></trkpt><trkpt lat="44.497493373576454" lon="9.62923046443291"><ele>551.0</ele><time>2026-04-19T07:41:06.999Z</time></trkpt><trkpt lat="44.49757708713245" lon="9.629062190343292"><ele>551.0</ele><time>2026-04-19T07:41:07.999Z</time></trkpt><trkpt lat="44.4975878219238" lon="9.628858619038366"><ele>551.0</ele><time>2026-04-19T07:41:08.999Z</time></trkpt><trkpt lat="44.49757498274712" lon="9.628684795988503"><ele>551.0</ele><time>2026-04-19T07:41:09.999Z</time></trkpt><trkpt lat="44.49748435120432" lon="9.628521302087057"><ele>551.0</ele><time>2026-04-19T07:41:10.999Z</time></trkpt><trkpt lat="44.497410399139866" lon="9.628351143580575"><ele>551.2</ele><time>2026-04-19T07:41:11.999Z</time></trkpt><trkpt lat="44.497368621211145" lon="9.628192538317023"><ele>551.4000000000001</ele><time>2026-04-19T07:41:12.999Z</time></trkpt><trkpt lat="44.497355889744036" lon="9.628054033547597"><ele>551.6</ele><time>2026-04-19T07:41:13.999Z</time></trkpt><trkpt lat="44.49742236628301" lon="9.627942192905007"><ele>551.8000000000001</ele><time>2026-04-19T07:41:14.999Z</time></trkpt><trkpt lat="44.49752462248995" lon="9.62785253260183"><ele>552.0</ele><time>2026-04-19T07:41:15.999Z</time></trkpt><trkpt lat="44.49763278842638" lon="9.627775966635824"><ele>552.0</ele><time>2026-04-19T07:41:16.999Z</time></trkpt><trkpt lat="44.49775503933978" lon="9.627864719868516"><ele>552.0</ele><time>2026-04-19T07:41:17.999Z</time></trkpt><trkpt lat="44.49788913049678" lon="9.627899306366709"><ele>552.0</ele><time>2026-04-19T07:41:18.999Z</time></trkpt><trkpt lat="44.49802449399956" lon="9.627911359579041"><ele>552.0</ele><time>2026-04-19T07:41:19.999Z</time></trkpt><trkpt lat="44.498160343717544" lon="9.62781907098626"><ele>550.75</ele><time>2026-04-19T07:41:20.999Z</time></trkpt><trkpt lat="44.49826865839631" lon="9.627650219026766"><ele>549.5</ele><time>2026-04-19T07:41:21.999Z</time></trkpt><trkpt lat="44.4983928458871" lon="9.627544029409343"><ele>548.25</ele><time>2026-04-19T07:41:22.999Z</time></trkpt><trkpt lat="44.49852672228825" lon="9.627501331923405"><ele>547.0</ele><time>2026-04-19T07:41:23.999Z</time></trkpt><trkpt lat="44.49866085743588" lon="9.627519196138724"><ele>545.0</ele><time>2026-04-19T07:41:24.999Z</time></trkpt><trkpt lat="44.498806434246376" lon="9.627541548099396"><ele>543.0</ele><time>2026-04-19T07:41:25.999Z</time></trkpt><trkpt lat="44.49893902159677" lon="9.627546781771983"><ele>541.0</ele><time>2026-04-19T07:41:26.999Z</time></trkpt><trkpt lat="44.49906122087573" lon="9.627453431766352"><ele>539.0</ele><time>2026-04-19T07:41:27.999Z</time></trkpt><trkpt lat="44.499149057605955" lon="9.627283919224142"><ele>539.0</ele><time>2026-04-19T07:41:28.999Z</time></trkpt><trkpt lat="44.49920758067363" lon="9.627093595984137"><ele>539.0</ele><time>2026-04-19T07:41:29.999Z</time></trkpt><trkpt lat="44.49931920448753" lon="9.627010380534273"><ele>539.0</ele><time>2026-04-19T07:41:30.998Z</time></trkpt><trkpt lat="44.49944117170878" lon="9.626996483765181"><ele>539.0</ele><time>2026-04-19T07:41:31.998Z</time></trkpt><trkpt lat="44.49959511518602" lon="9.626967084018373"><ele>537.3333333333333</ele><time>2026-04-19T07:41:32.998Z</time></trkpt><trkpt lat="44.49976426704875" lon="9.626994552698644"><ele>535.6666666666666</ele><time>2026-04-19T07:41:33.998Z</time></trkpt><trkpt lat="44.49993009665371" lon="9.627005959258142"><ele>534.0</ele><time>2026-04-19T07:41:34.998Z</time></trkpt><trkpt lat="44.5000941524826" lon="9.62702996419097"><ele>534.0</ele><time>2026-04-19T07:41:35.998Z</time></trkpt><trkpt lat="44.50023840148388" lon="9.627093194391717"><ele>534.0</ele><time>2026-04-19T07:41:36.998Z</time></trkpt><trkpt lat="44.50034847710508" lon="9.627176977731688"><ele>534.0</ele><time>2026-04-19T07:41:37.998Z</time></trkpt><trkpt lat="44.50047142079322" lon="9.627189898300294"><ele>534.0</ele><time>2026-04-19T07:41:38.998Z</time></trkpt><trkpt lat="44.500573234165905" lon="9.627110741379823"><ele>534.0</ele><time>2026-04-19T07:41:39.998Z</time></trkpt><trkpt lat="44.50063246509579" lon="9.626944727740828"><ele>534.0</ele><time>2026-04-19T07:41:40.998Z</time></trkpt><trkpt lat="44.50066247200804" lon="9.626740816365853"><ele>534.0</ele><time>2026-04-19T07:41:41.998Z</time></trkpt><trkpt lat="44.50067739701082" lon="9.626543974972503"><ele>534.0</ele><time>2026-04-19T07:41:42.998Z</time></trkpt><trkpt lat="44.50065057031141" lon="9.626360873287348"><ele>534.0</ele><time>2026-04-19T07:41:43.998Z</time></trkpt><trkpt lat="44.50063717706726" lon="9.626219912903405"><ele>534.0</ele><time>2026-04-19T07:41:44.998Z</time></trkpt><trkpt lat="44.50064356959423" lon="9.626112248853234"><ele>534.0</ele><time>2026-04-19T07:41:45.998Z</time></trkpt><trkpt lat="44.500719257287486" lon="9.626025438709485"><ele>534.0</ele><time>2026-04-19T07:41:46.998Z</time></trkpt><trkpt lat="44.50082059845019" lon="9.625968045388179"><ele>534.0</ele><time>2026-04-19T07:41:47.998Z</time></trkpt><trkpt lat="44.500926503267856" lon="9.62603731562485"><ele>534.0</ele><time>2026-04-19T07:41:48.998Z</time></trkpt><trkpt lat="44.50101157878194" lon="9.626172469132909"><ele>534.0</ele><time>2026-04-19T07:41:49.998Z</time></trkpt><trkpt lat="44.5010831012744" lon="9.6263375631039"><ele>534.0</ele><time>2026-04-19T07:41:50.998Z</time></trkpt><trkpt lat="44.50116420774812" lon="9.626496575826986"><ele>534.0</ele><time>2026-04-19T07:41:51.998Z</time></trkpt><trkpt lat="44.50125828760081" lon="9.626646533980612"><ele>533.0</ele><time>2026-04-19T07:41:52.998Z</time></trkpt><trkpt lat="44.50135255290462" lon="9.626770097417824"><ele>532.0</ele><time>2026-04-19T07:41:53.998Z</time></trkpt><trkpt lat="44.50145428876784" lon="9.626840689124675"><ele>531.0</ele><time>2026-04-19T07:41:54.998Z</time></trkpt><trkpt lat="44.501567840223125" lon="9.626841865951935"><ele>530.0</ele><time>2026-04-19T07:41:55.998Z</time></trkpt><trkpt lat="44.50168152294392" lon="9.626772303927414"><ele>530.0</ele><time>2026-04-19T07:41:56.998Z</time></trkpt><trkpt lat="44.501772278112924" lon="9.62664058472702"><ele>530.0</ele><time>2026-04-19T07:41:57.998Z</time></trkpt><trkpt lat="44.50184077672287" lon="9.626473921984145"><ele>530.0</ele><time>2026-04-19T07:41:58.998Z</time></trkpt><trkpt lat="44.501897676164546" lon="9.626285567516664"><ele>530.0</ele><time>2026-04-19T07:41:59.998Z</time></trkpt><trkpt lat="44.50195276068924" lon="9.626094397883987"><ele>529.0</ele><time>2026-04-19T07:42:00.998Z</time></trkpt><trkpt lat="44.502024242490634" lon="9.625900577369665"><ele>528.0</ele><time>2026-04-19T07:42:01.998Z</time></trkpt><trkpt lat="44.50207369313772" lon="9.62570002136612"><ele>527.0</ele><time>2026-04-19T07:42:02.998Z</time></trkpt><trkpt lat="44.50211991493544" lon="9.625518166276443"><ele>526.0</ele><time>2026-04-19T07:42:03.998Z</time></trkpt><trkpt lat="44.50217501731885" lon="9.62536670777543"><ele>526.0</ele><time>2026-04-19T07:42:04.998Z</time></trkpt><trkpt lat="44.5022539494766" lon="9.625271224255224"><ele>526.0</ele><time>2026-04-19T07:42:05.998Z</time></trkpt><trkpt lat="44.50235442753629" lon="9.62522879023193"><ele>526.0</ele><time>2026-04-19T07:42:06.998Z</time></trkpt><trkpt lat="44.50246824972173" lon="9.625311637560465"><ele>526.0</ele><time>2026-04-19T07:42:07.998Z</time></trkpt><trkpt lat="44.502554522367795" lon="9.625469441027892"><ele>526.0</ele><time>2026-04-19T07:42:08.998Z</time></trkpt><trkpt lat="44.502561226734294" lon="9.625681461897099"><ele>526.0</ele><time>2026-04-19T07:42:09.998Z</time></trkpt><trkpt lat="44.5025522966088" lon="9.625896891450338"><ele>526.0</ele><time>2026-04-19T07:42:10.998Z</time></trkpt><trkpt lat="44.50252848228764" lon="9.62612316380479"><ele>525.0</ele><time>2026-04-19T07:42:11.998Z</time></trkpt><trkpt lat="44.50252088618088" lon="9.626337077689808"><ele>524.0</ele><time>2026-04-19T07:42:12.998Z</time></trkpt><trkpt lat="44.50251305172576" lon="9.626548072516027"><ele>523.0</ele><time>2026-04-19T07:42:13.998Z</time></trkpt><trkpt lat="44.50251108888271" lon="9.626738538564998"><ele>522.0</ele><time>2026-04-19T07:42:14.998Z</time></trkpt><trkpt lat="44.50253188729353" lon="9.626906628302443"><ele>519.75</ele><time>2026-04-19T07:42:15.998Z</time></trkpt><trkpt lat="44.5025927577058" lon="9.627042131844762"><ele>517.5</ele><time>2026-04-19T07:42:16.998Z</time></trkpt><trkpt lat="44.502702163913106" lon="9.62712343671671"><ele>515.25</ele><time>2026-04-19T07:42:17.998Z</time></trkpt><trkpt lat="44.50284533146815" lon="9.627146701200509"><ele>513.0</ele><time>2026-04-19T07:42:19Z</time></trkpt><trkpt lat="44.502990126151936" lon="9.62711108951058"><ele>512.75</ele><time>2026-04-19T07:42:20Z</time></trkpt><trkpt lat="44.50311967865238" lon="9.627123560159655"><ele>512.5</ele><time>2026-04-19T07:42:21Z</time></trkpt><trkpt lat="44.50324223318181" lon="9.627154106918962"><ele>512.25</ele><time>2026-04-19T07:42:22Z</time></trkpt><trkpt lat="44.50340831062354" lon="9.627225031005253"><ele>512.0</ele><time>2026-04-19T07:42:23Z</time></trkpt><trkpt lat="44.50353463260434" lon="9.627299004691128"><ele>512.0</ele><time>2026-04-19T07:42:24Z</time></trkpt><trkpt lat="44.50367651700077" lon="9.627320817700925"><ele>512.0</ele><time>2026-04-19T07:42:25Z</time></trkpt><trkpt lat="44.5038158463553" lon="9.627271788316683"><ele>512.0</ele><time>2026-04-19T07:42:26Z</time></trkpt><trkpt lat="44.503943734570676" lon="9.627152239467533"><ele>512.0</ele><time>2026-04-19T07:42:27Z</time></trkpt><trkpt lat="44.50405317921516" lon="9.62697766677792"><ele>513.25</ele><time>2026-04-19T07:42:28Z</time></trkpt><trkpt lat="44.50414060564175" lon="9.626781537236866"><ele>514.5</ele><time>2026-04-19T07:42:29Z</time></trkpt><trkpt lat="44.50425386811514" lon="9.62667418189817"><ele>515.75</ele><time>2026-04-19T07:42:30Z</time></trkpt><trkpt lat="44.50436611264174" lon="9.626592077381563"><ele>517.0</ele><time>2026-04-19T07:42:31Z</time></trkpt><trkpt lat="44.50448766715413" lon="9.626515072270726"><ele>515.25</ele><time>2026-04-19T07:42:32Z</time></trkpt><trkpt lat="44.504616772242436" lon="9.626439651017368"><ele>513.5</ele><time>2026-04-19T07:42:33Z</time></trkpt><trkpt lat="44.50474538413118" lon="9.6263923066743"><ele>511.75</ele><time>2026-04-19T07:42:34Z</time></trkpt><trkpt lat="44.50485821031746" lon="9.626435667035965"><ele>510.0</ele><time>2026-04-19T07:42:35Z</time></trkpt><trkpt lat="44.504955496473784" lon="9.62650635268492"><ele>510.0</ele><time>2026-04-19T07:42:36Z</time></trkpt><trkpt lat="44.50501014336666" lon="9.626647750937423"><ele>510.0</ele><time>2026-04-19T07:42:37Z</time></trkpt><trkpt lat="44.5050157916267" lon="9.626786058661063"><ele>510.0</ele><time>2026-04-19T07:42:38Z</time></trkpt><trkpt lat="44.50499246792317" lon="9.626942529636903"><ele>510.0</ele><time>2026-04-19T07:42:39Z</time></trkpt><trkpt lat="44.50494195007905" lon="9.627083775794258"><ele>510.0</ele><time>2026-04-19T07:42:40Z</time></trkpt><trkpt lat="44.50488553152987" lon="9.62719073547658"><ele>509.4</ele><time>2026-04-19T07:42:41Z</time></trkpt><trkpt lat="44.504850057983774" lon="9.627272246157185"><ele>508.8</ele><time>2026-04-19T07:42:42Z</time></trkpt><trkpt lat="44.504711470737796" lon="9.627243984294703"><ele>508.20000000000005</ele><time>2026-04-19T07:42:43Z</time></trkpt><trkpt lat="44.504633228309146" lon="9.627288413965726"><ele>507.6</ele><time>2026-04-19T07:42:44Z</time></trkpt><trkpt lat="44.50454970857232" lon="9.627335840385667"><ele>507.0</ele><time>2026-04-19T07:42:45Z</time></trkpt><trkpt lat="44.50445650106814" lon="9.627412261142213"><ele>507.0</ele><time>2026-04-19T07:42:45.999Z</time></trkpt><trkpt lat="44.504340820382104" lon="9.627469052649111"><ele>507.0</ele><time>2026-04-19T07:42:46.999Z</time></trkpt><trkpt lat="44.504222177315064" lon="9.627533868956455"><ele>507.0</ele><time>2026-04-19T07:42:47.999Z</time></trkpt><trkpt lat="44.50411017023042" lon="9.627598205254316"><ele>507.0</ele><time>2026-04-19T07:42:48.999Z</time></trkpt><trkpt lat="44.50400485731817" lon="9.627666998406502"><ele>507.0</ele><time>2026-04-19T07:42:49.999Z</time></trkpt><trkpt lat="44.50389603684121" lon="9.627736900142162"><ele>507.00000000000006</ele><time>2026-04-19T07:42:50.999Z</time></trkpt><trkpt lat="44.5037893810482" lon="9.627803506889277"><ele>507.00000000000006</ele><time>2026-04-19T07:42:51.999Z</time></trkpt><trkpt lat="44.50369280741619" lon="9.627860712929829"><ele>507.0</ele><time>2026-04-19T07:42:52.999Z</time></trkpt><trkpt lat="44.50359878004622" lon="9.627914982150967"><ele>507.0</ele><time>2026-04-19T07:42:53.999Z</time></trkpt><trkpt lat="44.50349778209489" lon="9.627973042943234"><ele>506.6</ele><time>2026-04-19T07:42:54.999Z</time></trkpt><trkpt lat="44.50340536674832" lon="9.628029452098856"><ele>506.20000000000005</ele><time>2026-04-19T07:42:55.999Z</time></trkpt><trkpt lat="44.50331177445085" lon="9.628091501568328"><ele>505.8</ele><time>2026-04-19T07:42:56.999Z</time></trkpt><trkpt lat="44.503214691984006" lon="9.628139992995427"><ele>505.4</ele><time>2026-04-19T07:42:57.999Z</time></trkpt><trkpt lat="44.503123439982886" lon="9.628191305000584"><ele>505.0</ele><time>2026-04-19T07:42:58.999Z</time></trkpt><trkpt lat="44.503038061145745" lon="9.628240640266664"><ele>505.0</ele><time>2026-04-19T07:42:59.999Z</time></trkpt><trkpt lat="44.5029576416783" lon="9.628289764273626"><ele>505.0</ele><time>2026-04-19T07:43:00.999Z</time></trkpt><trkpt lat="44.50283935905964" lon="9.628349141985009"><ele>505.0</ele><time>2026-04-19T07:43:02.999Z</time></trkpt><trkpt lat="44.502743199462564" lon="9.628404859815301"><ele>505.0</ele><time>2026-04-19T07:43:04.999Z</time></trkpt><trkpt lat="44.50270380714548" lon="9.628515835810381"><ele>505.0</ele><time>2026-04-19T07:43:06.999Z</time></trkpt><trkpt lat="44.502760003397576" lon="9.628665114541048"><ele>505.0</ele><time>2026-04-19T07:43:08.999Z</time></trkpt><trkpt lat="44.502789576526425" lon="9.628745217413362"><ele>505.0</ele><time>2026-04-19T07:43:09.999Z</time></trkpt><trkpt lat="44.502823222464855" lon="9.628826482216894"><ele>505.0</ele><time>2026-04-19T07:43:10.999Z</time></trkpt><trkpt lat="44.502879314180895" lon="9.628985738619228"><ele>505.0</ele><time>2026-04-19T07:43:12.999Z</time></trkpt><trkpt lat="44.50292653003056" lon="9.629092827332759"><ele>505.0</ele><time>2026-04-19T07:43:14.999Z</time></trkpt><trkpt lat="44.50304743095165" lon="9.629027389439422"><ele>505.00000000000006</ele><time>2026-04-19T07:43:16.999Z</time></trkpt><trkpt lat="44.50311098570372" lon="9.628972808751739"><ele>505.0</ele><time>2026-04-19T07:43:18.999Z</time></trkpt><trkpt lat="44.50317986592789" lon="9.62895054209397"><ele>505.0</ele><time>2026-04-19T07:43:21.999Z</time></trkpt><trkpt lat="44.50324560178209" lon="9.62888232623412"><ele>505.0</ele><time>2026-04-19T07:43:25.999Z</time></trkpt><trkpt lat="44.503308127642875" lon="9.628818076352763"><ele>505.00000000000006</ele><time>2026-04-19T07:43:27.999Z</time></trkpt><trkpt lat="44.50337077537152" lon="9.62872526759442"><ele>505.0</ele><time>2026-04-19T07:43:29.999Z</time></trkpt><trkpt lat="44.503429221599326" lon="9.628691492881703"><ele>505.0</ele><time>2026-04-19T07:43:32.999Z</time></trkpt><trkpt lat="44.5033891419463" lon="9.628555170651198"><ele>504.99999999999994</ele><time>2026-04-19T07:53:14.99Z</time></trkpt><trkpt lat="44.50342753163301" lon="9.628640871018293"><ele>505.0</ele><time>2026-04-19T07:53:23Z</time></trkpt><trkpt lat="44.50343996514563" lon="9.628731043737345"><ele>505.0</ele><time>2026-04-19T07:54:24.999Z</time></trkpt><trkpt lat="44.50338689551144" lon="9.628790180669533"><ele>504.99999999999994</ele><time>2026-04-19T07:59:13.999Z</time></trkpt><trkpt lat="44.50341865688238" lon="9.628710812240223"><ele>505.0</ele><time>2026-04-19T07:59:19.999Z</time></trkpt><trkpt lat="44.503484238537055" lon="9.628669099673601"><ele>505.0</ele><time>2026-04-19T08:02:12.999Z</time></trkpt><trkpt lat="44.50356524951915" lon="9.62861513881793"><ele>505.00000000000006</ele><time>2026-04-19T08:02:13.999Z</time></trkpt><trkpt lat="44.50362490046008" lon="9.628544107884814"><ele>505.0</ele><time>2026-04-19T08:02:14.999Z</time></trkpt><trkpt lat="44.50367512668963" lon="9.628490797925688"><ele>505.0</ele><time>2026-04-19T08:02:15.999Z</time></trkpt><trkpt lat="44.503740642454076" lon="9.628424524534815"><ele>505.0</ele><time>2026-04-19T08:02:16.999Z</time></trkpt><trkpt lat="44.50382311170591" lon="9.628351712789662"><ele>505.00000000000006</ele><time>2026-04-19T08:02:17.999Z</time></trkpt><trkpt lat="44.50390965834446" lon="9.628281893481848"><ele>505.0</ele><time>2026-04-19T08:02:18.999Z</time></trkpt><trkpt lat="44.50400848312258" lon="9.62820444988538"><ele>505.00000000000006</ele><time>2026-04-19T08:02:19.999Z</time></trkpt><trkpt lat="44.50411002084791" lon="9.62813331595075"><ele>505.0</ele><time>2026-04-19T08:02:20.999Z</time></trkpt><trkpt lat="44.50420047024517" lon="9.628090315640979"><ele>505.0</ele><time>2026-04-19T08:02:21.999Z</time></trkpt><trkpt lat="44.5042708527163" lon="9.628058817564074"><ele>505.0</ele><time>2026-04-19T08:02:22.999Z</time></trkpt><trkpt lat="44.504334903191236" lon="9.62803320147546"><ele>505.00000000000006</ele><time>2026-04-19T08:02:23.999Z</time></trkpt><trkpt lat="44.504403781140056" lon="9.628019566748833"><ele>505.0</ele><time>2026-04-19T08:02:24.999Z</time></trkpt><trkpt lat="44.504478937061776" lon="9.628010973564736"><ele>505.0</ele><time>2026-04-19T08:02:25.999Z</time></trkpt><trkpt lat="44.50457848706659" lon="9.628001178959918"><ele>505.0</ele><time>2026-04-19T08:02:27.999Z</time></trkpt><trkpt lat="44.50464879399787" lon="9.627998548656688"><ele>505.0</ele><time>2026-04-19T08:02:29.999Z</time></trkpt><trkpt lat="44.504668593964325" lon="9.628240951576538"><ele>505.0</ele><time>2026-04-19T08:02:32.999Z</time></trkpt><trkpt lat="44.504671256196616" lon="9.628379831318233"><ele>505.0</ele><time>2026-04-19T08:02:33.999Z</time></trkpt><trkpt lat="44.504670364226676" lon="9.628511969780583"><ele>505.50000000000006</ele><time>2026-04-19T08:02:34.999Z</time></trkpt><trkpt lat="44.50467820167311" lon="9.628663570872586"><ele>506.0</ele><time>2026-04-19T08:02:35.999Z</time></trkpt><trkpt lat="44.50468553653345" lon="9.628804299536856"><ele>506.5</ele><time>2026-04-19T08:02:36.999Z</time></trkpt><trkpt lat="44.50469087414709" lon="9.6289125575341"><ele>507.0</ele><time>2026-04-19T08:02:37.999Z</time></trkpt><trkpt lat="44.504699631026426" lon="9.629019250515215"><ele>507.50000000000006</ele><time>2026-04-19T08:02:38.999Z</time></trkpt><trkpt lat="44.50470708162646" lon="9.62913499580348"><ele>508.0</ele><time>2026-04-19T08:02:39.999Z</time></trkpt><trkpt lat="44.50471433446288" lon="9.62925190077302"><ele>508.0</ele><time>2026-04-19T08:02:40.999Z</time></trkpt><trkpt lat="44.50472075622578" lon="9.62936957825209"><ele>507.99999999999994</ele><time>2026-04-19T08:02:41.999Z</time></trkpt><trkpt lat="44.5047240773092" lon="9.629472010565893"><ele>507.99999999999994</ele><time>2026-04-19T08:02:42.999Z</time></trkpt><trkpt lat="44.50472493042422" lon="9.629608422803095"><ele>508.0</ele><time>2026-04-19T08:02:44.999Z</time></trkpt><trkpt lat="44.504697794748225" lon="9.629798050274239"><ele>508.0</ele><time>2026-04-19T08:02:46.998Z</time></trkpt><trkpt lat="44.504653417560775" lon="9.629930091827152"><ele>508.25</ele><time>2026-04-19T08:02:47.998Z</time></trkpt><trkpt lat="44.50459455378142" lon="9.630075370029623"><ele>508.5</ele><time>2026-04-19T08:02:48.998Z</time></trkpt><trkpt lat="44.504521372939614" lon="9.630242010572896"><ele>508.75</ele><time>2026-04-19T08:02:49.998Z</time></trkpt><trkpt lat="44.504407697417555" lon="9.630381172706151"><ele>509.0</ele><time>2026-04-19T08:02:50.998Z</time></trkpt><trkpt lat="44.50429461190165" lon="9.630546984241464"><ele>509.75</ele><time>2026-04-19T08:02:51.998Z</time></trkpt><trkpt lat="44.504226707528865" lon="9.630646050764218"><ele>510.5</ele><time>2026-04-19T08:02:52.998Z</time></trkpt><trkpt lat="44.504121120700674" lon="9.63080009278272"><ele>511.25</ele><time>2026-04-19T08:02:53.998Z</time></trkpt><trkpt lat="44.50404322243623" lon="9.630938424173278"><ele>512.0</ele><time>2026-04-19T08:02:54.998Z</time></trkpt><trkpt lat="44.50397939664149" lon="9.631023491050597"><ele>512.0</ele><time>2026-04-19T08:02:55.998Z</time></trkpt><trkpt lat="44.5039158434919" lon="9.631114103064398"><ele>512.0</ele><time>2026-04-19T08:02:56.998Z</time></trkpt><trkpt lat="44.50384147067601" lon="9.631216013958399"><ele>512.0</ele><time>2026-04-19T08:02:57.998Z</time></trkpt><trkpt lat="44.50377040741657" lon="9.631320505887734"><ele>512.0</ele><time>2026-04-19T08:02:58.998Z</time></trkpt><trkpt lat="44.50370260262129" lon="9.631414958434531"><ele>512.0</ele><time>2026-04-19T08:02:59.998Z</time></trkpt><trkpt lat="44.50362406795316" lon="9.631521795882579"><ele>512.0</ele><time>2026-04-19T08:03:00.998Z</time></trkpt><trkpt lat="44.503541354405606" lon="9.63165110959298"><ele>512.0</ele><time>2026-04-19T08:03:01.998Z</time></trkpt><trkpt lat="44.50345455653169" lon="9.631799095231415"><ele>512.0</ele><time>2026-04-19T08:03:02.998Z</time></trkpt><trkpt lat="44.50337317862787" lon="9.631917673145637"><ele>512.0</ele><time>2026-04-19T08:03:03.998Z</time></trkpt><trkpt lat="44.503277025410995" lon="9.632002636397091"><ele>512.0</ele><time>2026-04-19T08:03:04.998Z</time></trkpt><trkpt lat="44.50318308310105" lon="9.632055690994356"><ele>512.0</ele><time>2026-04-19T08:03:05.998Z</time></trkpt><trkpt lat="44.50309300209376" lon="9.632123301638403"><ele>512.0</ele><time>2026-04-19T08:03:06.998Z</time></trkpt><trkpt lat="44.50298284898672" lon="9.63207000523533"><ele>512.0</ele><time>2026-04-19T08:03:07.998Z</time></trkpt><trkpt lat="44.502864475146374" lon="9.632022218014319"><ele>512.0</ele><time>2026-04-19T08:03:08.998Z</time></trkpt><trkpt lat="44.50274467756625" lon="9.63198118813384"><ele>510.5</ele><time>2026-04-19T08:03:09.998Z</time></trkpt><trkpt lat="44.50262703274549" lon="9.63195974810965"><ele>509.0</ele><time>2026-04-19T08:03:10.998Z</time></trkpt><trkpt lat="44.502506890440955" lon="9.631974359950995"><ele>507.5</ele><time>2026-04-19T08:03:11.998Z</time></trkpt><trkpt lat="44.50239152455" lon="9.632072518076045"><ele>506.0</ele><time>2026-04-19T08:03:12.998Z</time></trkpt><trkpt lat="44.502287304126284" lon="9.632214542051827"><ele>506.0</ele><time>2026-04-19T08:03:13.998Z</time></trkpt><trkpt lat="44.502178607433585" lon="9.632379212583356"><ele>506.0</ele><time>2026-04-19T08:03:14.998Z</time></trkpt><trkpt lat="44.502066672710555" lon="9.632510550481387"><ele>506.0</ele><time>2026-04-19T08:03:15.998Z</time></trkpt><trkpt lat="44.50195967398363" lon="9.632624540573245"><ele>506.0</ele><time>2026-04-19T08:03:16.998Z</time></trkpt><trkpt lat="44.501859571573604" lon="9.632730211538997"><ele>505.75</ele><time>2026-04-19T08:03:17.998Z</time></trkpt><trkpt lat="44.501767621892554" lon="9.632832935441318"><ele>505.5</ele><time>2026-04-19T08:03:18.998Z</time></trkpt><trkpt lat="44.501667080323074" lon="9.632947637740264"><ele>505.25</ele><time>2026-04-19T08:03:19.998Z</time></trkpt><trkpt lat="44.50155230993538" lon="9.633081326885643"><ele>505.0</ele><time>2026-04-19T08:03:20.998Z</time></trkpt><trkpt lat="44.50140650194056" lon="9.633213083731421"><ele>505.0</ele><time>2026-04-19T08:03:21.998Z</time></trkpt><trkpt lat="44.50125847436279" lon="9.633375185776877"><ele>505.0</ele><time>2026-04-19T08:03:22.998Z</time></trkpt><trkpt lat="44.50110942724401" lon="9.63353984722705"><ele>505.0</ele><time>2026-04-19T08:03:23.998Z</time></trkpt><trkpt lat="44.50094830414037" lon="9.633717537873798"><ele>504.6666666666667</ele><time>2026-04-19T08:03:24.998Z</time></trkpt><trkpt lat="44.500783618627935" lon="9.633899157340664"><ele>504.33333333333337</ele><time>2026-04-19T08:03:25.998Z</time></trkpt><trkpt lat="44.50063510965448" lon="9.634064555736678"><ele>504.0</ele><time>2026-04-19T08:03:26.998Z</time></trkpt><trkpt lat="44.50050966105681" lon="9.634229895585555"><ele>501.66666666666663</ele><time>2026-04-19T08:03:27.998Z</time></trkpt><trkpt lat="44.500382675998736" lon="9.63436489067654"><ele>499.3333333333333</ele><time>2026-04-19T08:03:28.998Z</time></trkpt><trkpt lat="44.50026473283085" lon="9.634495584955364"><ele>497.0</ele><time>2026-04-19T08:03:29.998Z</time></trkpt><trkpt lat="44.500136383490805" lon="9.634613822977553"><ele>497.0</ele><time>2026-04-19T08:03:30.998Z</time></trkpt><trkpt lat="44.50002951556396" lon="9.634732894111865"><ele>497.0</ele><time>2026-04-19T08:03:31.998Z</time></trkpt><trkpt lat="44.49993305342227" lon="9.634869736142027"><ele>497.0</ele><time>2026-04-19T08:03:32.998Z</time></trkpt><trkpt lat="44.499824649291355" lon="9.634988527487131"><ele>497.0</ele><time>2026-04-19T08:03:33.998Z</time></trkpt><trkpt lat="44.49970336627196" lon="9.635126388638925"><ele>495.3333333333333</ele><time>2026-04-19T08:03:34.998Z</time></trkpt><trkpt lat="44.499574707451885" lon="9.63528613301282"><ele>493.66666666666663</ele><time>2026-04-19T08:03:35.997Z</time></trkpt><trkpt lat="44.49944824352187" lon="9.635470305321087"><ele>492.0</ele><time>2026-04-19T08:03:36.997Z</time></trkpt><trkpt lat="44.49932904116563" lon="9.635690265635947"><ele>492.0</ele><time>2026-04-19T08:03:37.997Z</time></trkpt><trkpt lat="44.49922234818419" lon="9.63594414721782"><ele>492.0</ele><time>2026-04-19T08:03:38.997Z</time></trkpt><trkpt lat="44.499130232646706" lon="9.636226945220573"><ele>492.0</ele><time>2026-04-19T08:03:39.997Z</time></trkpt><trkpt lat="44.499051769139236" lon="9.63651638348094"><ele>493.0</ele><time>2026-04-19T08:03:40.997Z</time></trkpt><trkpt lat="44.49898259630493" lon="9.636801213888074"><ele>494.0</ele><time>2026-04-19T08:03:41.997Z</time></trkpt><trkpt lat="44.49891035911766" lon="9.637071462411381"><ele>495.0</ele><time>2026-04-19T08:03:42.997Z</time></trkpt><trkpt lat="44.498840831152734" lon="9.637323322481237"><ele>495.0</ele><time>2026-04-19T08:03:43.997Z</time></trkpt><trkpt lat="44.49876415249392" lon="9.6375803078612"><ele>495.0</ele><time>2026-04-19T08:03:44.997Z</time></trkpt><trkpt lat="44.498696229579785" lon="9.63784858449333"><ele>495.0</ele><time>2026-04-19T08:03:45.999Z</time></trkpt><trkpt lat="44.498622281038415" lon="9.638113526863467"><ele>494.0</ele><time>2026-04-19T08:03:46.999Z</time></trkpt><trkpt lat="44.49854586077498" lon="9.638384582620718"><ele>493.0</ele><time>2026-04-19T08:03:47.999Z</time></trkpt><trkpt lat="44.49846985101835" lon="9.638662029860573"><ele>492.0</ele><time>2026-04-19T08:03:48.999Z</time></trkpt><trkpt lat="44.49839367635356" lon="9.638942963997792"><ele>492.0</ele><time>2026-04-19T08:03:49.999Z</time></trkpt><trkpt lat="44.498319460674345" lon="9.63921597381111"><ele>492.0</ele><time>2026-04-19T08:03:50.999Z</time></trkpt><trkpt lat="44.49823842442332" lon="9.639497796618166"><ele>492.0</ele><time>2026-04-19T08:03:51.999Z</time></trkpt><trkpt lat="44.49816303927009" lon="9.639771040677164"><ele>493.66666666666663</ele><time>2026-04-19T08:03:52.999Z</time></trkpt><trkpt lat="44.49809053212943" lon="9.640028279881308"><ele>495.3333333333333</ele><time>2026-04-19T08:03:53.999Z</time></trkpt><trkpt lat="44.498016812300435" lon="9.640282744020613"><ele>497.0</ele><time>2026-04-19T08:03:54.999Z</time></trkpt><trkpt lat="44.497939921915695" lon="9.640529110476303"><ele>493.3333333333333</ele><time>2026-04-19T08:03:55.999Z</time></trkpt><trkpt lat="44.497858190456924" lon="9.640796481750753"><ele>489.66666666666663</ele><time>2026-04-19T08:03:56.999Z</time></trkpt><trkpt lat="44.497778553818975" lon="9.64104850385604"><ele>486.0</ele><time>2026-04-19T08:03:57.999Z</time></trkpt><trkpt lat="44.49769832661397" lon="9.641314466048039"><ele>486.0</ele><time>2026-04-19T08:03:58.999Z</time></trkpt><trkpt lat="44.49762512486842" lon="9.641587529857405"><ele>486.0</ele><time>2026-04-19T08:03:59.999Z</time></trkpt><trkpt lat="44.4975566631863" lon="9.641863077157842"><ele>486.0</ele><time>2026-04-19T08:04:00.999Z</time></trkpt><trkpt lat="44.49748524847423" lon="9.642147875457978"><ele>487.33333333333337</ele><time>2026-04-19T08:04:01.999Z</time></trkpt><trkpt lat="44.497414246105784" lon="9.642433193913845"><ele>488.6666666666667</ele><time>2026-04-19T08:04:02.999Z</time></trkpt><trkpt lat="44.49734160527625" lon="9.642705050103347"><ele>490.0</ele><time>2026-04-19T08:04:03.999Z</time></trkpt><trkpt lat="44.49725188697249" lon="9.642962611196278"><ele>494.0</ele><time>2026-04-19T08:04:04.999Z</time></trkpt><trkpt lat="44.49712694030866" lon="9.643220895717771"><ele>498.0</ele><time>2026-04-19T08:04:05.999Z</time></trkpt><trkpt lat="44.49696380042938" lon="9.643462016635288"><ele>490.5</ele><time>2026-04-19T08:04:06.999Z</time></trkpt><trkpt lat="44.496795336627734" lon="9.643748875428443"><ele>483.0</ele><time>2026-04-19T08:04:07.999Z</time></trkpt><trkpt lat="44.49663247038063" lon="9.64406668374492"><ele>483.0</ele><time>2026-04-19T08:04:08.999Z</time></trkpt><trkpt lat="44.49647360567396" lon="9.644394475938025"><ele>483.0</ele><time>2026-04-19T08:04:09.999Z</time></trkpt><trkpt lat="44.49632559753302" lon="9.644747225892635"><ele>481.0</ele><time>2026-04-19T08:04:10.999Z</time></trkpt><trkpt lat="44.49616849720177" lon="9.645053368481877"><ele>479.0</ele><time>2026-04-19T08:04:11.999Z</time></trkpt><trkpt lat="44.496022853426034" lon="9.645340042563657"><ele>479.0</ele><time>2026-04-19T08:04:12.999Z</time></trkpt><trkpt lat="44.49590010987009" lon="9.645646189454112"><ele>479.0</ele><time>2026-04-19T08:04:13.999Z</time></trkpt><trkpt lat="44.49578800735855" lon="9.645961341798017"><ele>477.0</ele><time>2026-04-19T08:04:14.999Z</time></trkpt><trkpt lat="44.49568647739241" lon="9.646280520479628"><ele>475.0</ele><time>2026-04-19T08:04:15.999Z</time></trkpt><trkpt lat="44.4956178425132" lon="9.646577631571956"><ele>475.0</ele><time>2026-04-19T08:04:16.999Z</time></trkpt><trkpt lat="44.49558090623786" lon="9.646886757502944"><ele>475.0</ele><time>2026-04-19T08:04:17.999Z</time></trkpt><trkpt lat="44.49554167629453" lon="9.647207458864264"><ele>474.5</ele><time>2026-04-19T08:04:18.999Z</time></trkpt><trkpt lat="44.49549375463014" lon="9.647536690380313"><ele>474.0</ele><time>2026-04-19T08:04:19.999Z</time></trkpt><trkpt lat="44.49544189721945" lon="9.64786191706648"><ele>472.5</ele><time>2026-04-19T08:04:20.999Z</time></trkpt><trkpt lat="44.495388575793925" lon="9.648180583759178"><ele>471.0</ele><time>2026-04-19T08:04:21.999Z</time></trkpt><trkpt lat="44.49533390152161" lon="9.648488351596017"><ele>470.33333333333337</ele><time>2026-04-19T08:04:22.999Z</time></trkpt><trkpt lat="44.49528301772117" lon="9.648768987152348"><ele>469.6666666666667</ele><time>2026-04-19T08:04:23.999Z</time></trkpt><trkpt lat="44.49524620057177" lon="9.64903735590564"><ele>469.0</ele><time>2026-04-19T08:04:24.999Z</time></trkpt><trkpt lat="44.495231056385656" lon="9.649298646366669"><ele>468.6666666666667</ele><time>2026-04-19T08:04:25.999Z</time></trkpt><trkpt lat="44.495255704117476" lon="9.649557824753682"><ele>468.33333333333337</ele><time>2026-04-19T08:04:26.999Z</time></trkpt><trkpt lat="44.49530582741317" lon="9.649840419767042"><ele>468.0</ele><time>2026-04-19T08:04:27.999Z</time></trkpt><trkpt lat="44.49533594877508" lon="9.650147791543182"><ele>468.0</ele><time>2026-04-19T08:04:28.999Z</time></trkpt><trkpt lat="44.495374919536005" lon="9.65045739630275"><ele>468.0</ele><time>2026-04-19T08:04:29.999Z</time></trkpt><trkpt lat="44.49542411648677" lon="9.650754720996474"><ele>468.0</ele><time>2026-04-19T08:04:30.999Z</time></trkpt><trkpt lat="44.49544653966342" lon="9.651054892538436"><ele>469.66666666666663</ele><time>2026-04-19T08:04:31.999Z</time></trkpt><trkpt lat="44.495487414086455" lon="9.651347333664999"><ele>471.3333333333333</ele><time>2026-04-19T08:04:32.999Z</time></trkpt><trkpt lat="44.495531944758284" lon="9.651640263630087"><ele>473.0</ele><time>2026-04-19T08:04:33.999Z</time></trkpt><trkpt lat="44.49556860105584" lon="9.651929982316855"><ele>471.66666666666663</ele><time>2026-04-19T08:04:34.999Z</time></trkpt><trkpt lat="44.49560116552953" lon="9.652199915175974"><ele>470.33333333333337</ele><time>2026-04-19T08:04:35.999Z</time></trkpt><trkpt lat="44.495633423971434" lon="9.652454472981157"><ele>469.0</ele><time>2026-04-19T08:04:36.999Z</time></trkpt><trkpt lat="44.4956633084039" lon="9.652695663033848"><ele>468.6666666666667</ele><time>2026-04-19T08:04:37.999Z</time></trkpt><trkpt lat="44.495695041933416" lon="9.652941458377311"><ele>468.33333333333337</ele><time>2026-04-19T08:04:38.999Z</time></trkpt><trkpt lat="44.49571984095274" lon="9.65323934288257"><ele>468.0</ele><time>2026-04-19T08:04:39.999Z</time></trkpt><trkpt lat="44.49575874343145" lon="9.6535563899021"><ele>468.0</ele><time>2026-04-19T08:04:40.999Z</time></trkpt><trkpt lat="44.495800475595665" lon="9.653894699982523"><ele>468.0</ele><time>2026-04-19T08:04:41.999Z</time></trkpt><trkpt lat="44.49584113704277" lon="9.654223956444282"><ele>468.0</ele><time>2026-04-19T08:04:42.998Z</time></trkpt><trkpt lat="44.4958820275878" lon="9.654525566604036"><ele>468.0</ele><time>2026-04-19T08:04:43.998Z</time></trkpt><trkpt lat="44.49586834566549" lon="9.654821869809883"><ele>468.0</ele><time>2026-04-19T08:04:44.998Z</time></trkpt><trkpt lat="44.49581526798676" lon="9.655123495389459"><ele>473.5</ele><time>2026-04-19T08:04:45.998Z</time></trkpt><trkpt lat="44.49573082296994" lon="9.655415482108166"><ele>479.0</ele><time>2026-04-19T08:04:46.998Z</time></trkpt><trkpt lat="44.49564456991601" lon="9.655708281467156"><ele>479.0</ele><time>2026-04-19T08:04:47.998Z</time></trkpt><trkpt lat="44.4955352348678" lon="9.655977951090225"><ele>479.0</ele><time>2026-04-19T08:04:48.998Z</time></trkpt><trkpt lat="44.49541043763283" lon="9.656227468596983"><ele>479.0</ele><time>2026-04-19T08:04:49.998Z</time></trkpt><trkpt lat="44.49528210588507" lon="9.65646074004672"><ele>475.66666666666663</ele><time>2026-04-19T08:04:50.998Z</time></trkpt><trkpt lat="44.49515031353628" lon="9.656686040467267"><ele>472.33333333333337</ele><time>2026-04-19T08:04:51.998Z</time></trkpt><trkpt lat="44.495042268075906" lon="9.656905755053348"><ele>469.0</ele><time>2026-04-19T08:04:52.998Z</time></trkpt><trkpt lat="44.49514189643431" lon="9.657323153840036"><ele>469.0</ele><time>2026-04-19T08:04:53.998Z</time></trkpt><trkpt lat="44.49512011482038" lon="9.657611373109782"><ele>469.0</ele><time>2026-04-19T08:04:54.998Z</time></trkpt><trkpt lat="44.49509598467665" lon="9.657886201830514"><ele>469.0</ele><time>2026-04-19T08:04:55.998Z</time></trkpt><trkpt lat="44.49507173435856" lon="9.658148684840596"><ele>468.33333333333337</ele><time>2026-04-19T08:04:56.998Z</time></trkpt><trkpt lat="44.49504981076139" lon="9.65840149568904"><ele>467.66666666666663</ele><time>2026-04-19T08:04:57.998Z</time></trkpt><trkpt lat="44.495020541123644" lon="9.658660946467222"><ele>467.0</ele><time>2026-04-19T08:04:58.998Z</time></trkpt><trkpt lat="44.49498986722959" lon="9.65891760007188"><ele>467.0</ele><time>2026-04-19T08:04:59.998Z</time></trkpt><trkpt lat="44.49495193693949" lon="9.659177519520732"><ele>467.0</ele><time>2026-04-19T08:05:00.998Z</time></trkpt><trkpt lat="44.494890186455045" lon="9.659434633616717"><ele>467.0</ele><time>2026-04-19T08:05:01.998Z</time></trkpt><trkpt lat="44.494803712319126" lon="9.659687972572916"><ele>465.66666666666663</ele><time>2026-04-19T08:05:02.998Z</time></trkpt><trkpt lat="44.494705205292505" lon="9.659945274738206"><ele>464.33333333333337</ele><time>2026-04-19T08:05:03.998Z</time></trkpt><trkpt lat="44.494603577879126" lon="9.660201818085033"><ele>463.0</ele><time>2026-04-19T08:05:04.998Z</time></trkpt><trkpt lat="44.494501982255564" lon="9.660455850280707"><ele>463.0</ele><time>2026-04-19T08:05:05.998Z</time></trkpt><trkpt lat="44.494390890022814" lon="9.660718122769742"><ele>463.0</ele><time>2026-04-19T08:05:06.998Z</time></trkpt><trkpt lat="44.49425821285212" lon="9.660955334036757"><ele>463.0</ele><time>2026-04-19T08:05:07.998Z</time></trkpt><trkpt lat="44.494101971856516" lon="9.661176736284988"><ele>466.33333333333337</ele><time>2026-04-19T08:05:08.998Z</time></trkpt><trkpt lat="44.49396819230706" lon="9.661411558643707"><ele>469.66666666666663</ele><time>2026-04-19T08:05:09.998Z</time></trkpt><trkpt lat="44.493872391293195" lon="9.661686735330017"><ele>473.0</ele><time>2026-04-19T08:05:10.998Z</time></trkpt><trkpt lat="44.49381426468217" lon="9.661995989615372"><ele>467.5</ele><time>2026-04-19T08:05:11.998Z</time></trkpt><trkpt lat="44.49376555783256" lon="9.662312517041672"><ele>462.0</ele><time>2026-04-19T08:05:12.998Z</time></trkpt><trkpt lat="44.493713442880164" lon="9.662624637515874"><ele>463.5</ele><time>2026-04-19T08:05:13.998Z</time></trkpt><trkpt lat="44.49365173902251" lon="9.662928589059357"><ele>465.0</ele><time>2026-04-19T08:05:14.998Z</time></trkpt><trkpt lat="44.493587080974216" lon="9.663232619327115"><ele>465.0</ele><time>2026-04-19T08:05:15.998Z</time></trkpt><trkpt lat="44.493520619780845" lon="9.663536495260491"><ele>465.0</ele><time>2026-04-19T08:05:16.998Z</time></trkpt><trkpt lat="44.49345910901925" lon="9.66383567915699"><ele>465.0</ele><time>2026-04-19T08:05:17.998Z</time></trkpt><trkpt lat="44.49339601106876" lon="9.6641382536496"><ele>464.66666666666663</ele><time>2026-04-19T08:05:18.998Z</time></trkpt><trkpt lat="44.49333629313489" lon="9.664436782116345"><ele>464.3333333333333</ele><time>2026-04-19T08:05:19.998Z</time></trkpt><trkpt lat="44.493280133109" lon="9.66474354590063"><ele>464.0</ele><time>2026-04-19T08:05:20.998Z</time></trkpt><trkpt lat="44.49322232655921" lon="9.66504517079008"><ele>467.0</ele><time>2026-04-19T08:05:21.998Z</time></trkpt><trkpt lat="44.49315974422096" lon="9.6653530874964"><ele>470.0</ele><time>2026-04-19T08:05:22.998Z</time></trkpt><trkpt lat="44.49309565889973" lon="9.665654574253324"><ele>470.0</ele><time>2026-04-19T08:05:23.998Z</time></trkpt><trkpt lat="44.49300806262358" lon="9.66595882358531"><ele>470.0</ele><time>2026-04-19T08:05:24.998Z</time></trkpt><trkpt lat="44.492909794416676" lon="9.666242235152968"><ele>463.5</ele><time>2026-04-19T08:05:25.998Z</time></trkpt><trkpt lat="44.492810660613735" lon="9.666536950890631"><ele>457.0</ele><time>2026-04-19T08:05:26.998Z</time></trkpt><trkpt lat="44.49272237937877" lon="9.666828252027775"><ele>456.5</ele><time>2026-04-19T08:05:27.998Z</time></trkpt><trkpt lat="44.492641391966686" lon="9.667135018346958"><ele>456.0</ele><time>2026-04-19T08:05:28.998Z</time></trkpt><trkpt lat="44.49257032733567" lon="9.667452760832873"><ele>456.0</ele><time>2026-04-19T08:05:29.998Z</time></trkpt><trkpt lat="44.492507233289636" lon="9.66775982694851"><ele>456.0</ele><time>2026-04-19T08:05:30.998Z</time></trkpt><trkpt lat="44.4924470922409" lon="9.668077072327689"><ele>456.5</ele><time>2026-04-19T08:05:31.998Z</time></trkpt><trkpt lat="44.49239017669767" lon="9.668395539622859"><ele>457.0</ele><time>2026-04-19T08:05:32.998Z</time></trkpt><trkpt lat="44.49233011893989" lon="9.668711996860008"><ele>457.5</ele><time>2026-04-19T08:05:33.998Z</time></trkpt><trkpt lat="44.492272529164175" lon="9.669021262117578"><ele>458.0</ele><time>2026-04-19T08:05:34.998Z</time></trkpt><trkpt lat="44.492214884497734" lon="9.669328062778197"><ele>459.0</ele><time>2026-04-19T08:05:35.997Z</time></trkpt><trkpt lat="44.492164049670805" lon="9.669632944355053"><ele>460.0</ele><time>2026-04-19T08:05:36.997Z</time></trkpt><trkpt lat="44.492109089895955" lon="9.669936247823863"><ele>461.0</ele><time>2026-04-19T08:05:37.997Z</time></trkpt><trkpt lat="44.49205383508246" lon="9.670236355890774"><ele>459.3333333333333</ele><time>2026-04-19T08:05:38.997Z</time></trkpt><trkpt lat="44.491994559855314" lon="9.670536782950112"><ele>457.66666666666663</ele><time>2026-04-19T08:05:39.997Z</time></trkpt><trkpt lat="44.49193324941509" lon="9.67084241197364"><ele>456.0</ele><time>2026-04-19T08:05:40.997Z</time></trkpt><trkpt lat="44.49187452925445" lon="9.671152520069322"><ele>456.0</ele><time>2026-04-19T08:05:41.997Z</time></trkpt><trkpt lat="44.491817593249166" lon="9.671458883163114"><ele>456.0</ele><time>2026-04-19T08:05:42.997Z</time></trkpt><trkpt lat="44.49176121294129" lon="9.671766060218827"><ele>456.5</ele><time>2026-04-19T08:05:43.997Z</time></trkpt><trkpt lat="44.49170287460798" lon="9.672073640170668"><ele>457.0</ele><time>2026-04-19T08:05:44.997Z</time></trkpt><trkpt lat="44.49164688054619" lon="9.67237851098143"><ele>457.0</ele><time>2026-04-19T08:05:45.997Z</time></trkpt><trkpt lat="44.49159241539181" lon="9.67266971109349"><ele>457.0</ele><time>2026-04-19T08:05:46.997Z</time></trkpt><trkpt lat="44.491537231189355" lon="9.672965487487946"><ele>457.0</ele><time>2026-04-19T08:05:47.997Z</time></trkpt><trkpt lat="44.49147923839259" lon="9.673265399074163"><ele>456.6666666666667</ele><time>2026-04-19T08:05:48.997Z</time></trkpt><trkpt lat="44.491424443224794" lon="9.673563207417669"><ele>456.33333333333337</ele><time>2026-04-19T08:05:49.997Z</time></trkpt><trkpt lat="44.49136595004352" lon="9.673867494836228"><ele>456.0</ele><time>2026-04-19T08:05:50.999Z</time></trkpt><trkpt lat="44.491306686887846" lon="9.67417407722634"><ele>454.0</ele><time>2026-04-19T08:05:51.999Z</time></trkpt><trkpt lat="44.491247235500744" lon="9.674478160760044"><ele>452.0</ele><time>2026-04-19T08:05:52.999Z</time></trkpt><trkpt lat="44.49119052432452" lon="9.674786952332814"><ele>452.0</ele><time>2026-04-19T08:05:53.999Z</time></trkpt><trkpt lat="44.49113487593014" lon="9.675092037654073"><ele>452.0</ele><time>2026-04-19T08:05:54.999Z</time></trkpt><trkpt lat="44.49107945379916" lon="9.67539555833173"><ele>452.0</ele><time>2026-04-19T08:05:55.999Z</time></trkpt><trkpt lat="44.491022702384505" lon="9.675698744925171"><ele>452.0</ele><time>2026-04-19T08:05:56.999Z</time></trkpt><trkpt lat="44.49096354622698" lon="9.676001540923135"><ele>452.0</ele><time>2026-04-19T08:05:57.999Z</time></trkpt><trkpt lat="44.49090430699443" lon="9.6763064250201"><ele>452.0</ele><time>2026-04-19T08:05:58.999Z</time></trkpt><trkpt lat="44.49084659705625" lon="9.676617200855137"><ele>453.0</ele><time>2026-04-19T08:05:59.999Z</time></trkpt><trkpt lat="44.49079194678389" lon="9.676924553712896"><ele>454.0</ele><time>2026-04-19T08:06:00.999Z</time></trkpt><trkpt lat="44.49073510302507" lon="9.67723461304193"><ele>454.5</ele><time>2026-04-19T08:06:01.999Z</time></trkpt><trkpt lat="44.490676376158625" lon="9.677546569171106"><ele>455.0</ele><time>2026-04-19T08:06:02.999Z</time></trkpt><trkpt lat="44.490615992340736" lon="9.677857836321948"><ele>455.5</ele><time>2026-04-19T08:06:03.999Z</time></trkpt><trkpt lat="44.490557904868396" lon="9.678170803091477"><ele>456.0</ele><time>2026-04-19T08:06:04.999Z</time></trkpt><trkpt lat="44.49050354558202" lon="9.678489645076944"><ele>457.5</ele><time>2026-04-19T08:06:05.999Z</time></trkpt><trkpt lat="44.49044991699431" lon="9.678807089911146"><ele>459.0</ele><time>2026-04-19T08:06:06.999Z</time></trkpt><trkpt lat="44.49039793655198" lon="9.679121508834537"><ele>455.5</ele><time>2026-04-19T08:06:07.999Z</time></trkpt><trkpt lat="44.490345915418935" lon="9.679436499058347"><ele>452.0</ele><time>2026-04-19T08:06:08.999Z</time></trkpt><trkpt lat="44.49029324575396" lon="9.679757008727929"><ele>452.0</ele><time>2026-04-19T08:06:09.999Z</time></trkpt><trkpt lat="44.49023931129793" lon="9.680073186138037"><ele>452.0</ele><time>2026-04-19T08:06:10.999Z</time></trkpt><trkpt lat="44.490185410983905" lon="9.680391175082045"><ele>452.0</ele><time>2026-04-19T08:06:11.999Z</time></trkpt><trkpt lat="44.49012467115783" lon="9.680705684540778"><ele>452.0</ele><time>2026-04-19T08:06:12.999Z</time></trkpt><trkpt lat="44.490044912242354" lon="9.68101303609138"><ele>454.5</ele><time>2026-04-19T08:06:13.999Z</time></trkpt><trkpt lat="44.489941576065895" lon="9.681307442606336"><ele>457.0</ele><time>2026-04-19T08:06:14.999Z</time></trkpt><trkpt lat="44.48981097419952" lon="9.681590433461619"><ele>457.0</ele><time>2026-04-19T08:06:15.999Z</time></trkpt><trkpt lat="44.489671786360226" lon="9.681871014561635"><ele>457.0</ele><time>2026-04-19T08:06:16.999Z</time></trkpt><trkpt lat="44.48953243733926" lon="9.682157727574781"><ele>453.5</ele><time>2026-04-19T08:06:17.999Z</time></trkpt><trkpt lat="44.48939411284013" lon="9.682457443134059"><ele>450.0</ele><time>2026-04-19T08:06:18.999Z</time></trkpt><trkpt lat="44.489255186479205" lon="9.682762400005435"><ele>451.5</ele><time>2026-04-19T08:06:19.999Z</time></trkpt><trkpt lat="44.48911834336701" lon="9.683067054517748"><ele>453.0</ele><time>2026-04-19T08:06:20.999Z</time></trkpt><trkpt lat="44.48899178571213" lon="9.683370195480778"><ele>454.5</ele><time>2026-04-19T08:06:21.999Z</time></trkpt><trkpt lat="44.48889042878513" lon="9.683677571260686"><ele>456.0</ele><time>2026-04-19T08:06:22.999Z</time></trkpt><trkpt lat="44.48881992953056" lon="9.684012574209921"><ele>456.0</ele><time>2026-04-19T08:06:23.999Z</time></trkpt><trkpt lat="44.48876583994781" lon="9.684348524164996"><ele>456.0</ele><time>2026-04-19T08:06:24.999Z</time></trkpt><trkpt lat="44.48868994378483" lon="9.68467293239149"><ele>454.5</ele><time>2026-04-19T08:06:25.999Z</time></trkpt><trkpt lat="44.48862427019005" lon="9.684990235141079"><ele>453.0</ele><time>2026-04-19T08:06:26.999Z</time></trkpt><trkpt lat="44.488548560741144" lon="9.685295515087398"><ele>453.0</ele><time>2026-04-19T08:06:27.999Z</time></trkpt><trkpt lat="44.488443352801525" lon="9.685566249324138"><ele>453.0</ele><time>2026-04-19T08:06:28.999Z</time></trkpt><trkpt lat="44.48830301394244" lon="9.685819748342126"><ele>453.0</ele><time>2026-04-19T08:06:29.999Z</time></trkpt><trkpt lat="44.488145499233994" lon="9.686056753998866"><ele>451.66666666666663</ele><time>2026-04-19T08:06:30.999Z</time></trkpt><trkpt lat="44.488000282807654" lon="9.686290405300245"><ele>450.3333333333333</ele><time>2026-04-19T08:06:31.999Z</time></trkpt><trkpt lat="44.48785650448213" lon="9.686479600260682"><ele>449.0</ele><time>2026-04-19T08:06:32.999Z</time></trkpt><trkpt lat="44.487722838539646" lon="9.686687273653268"><ele>449.0</ele><time>2026-04-19T08:06:33.999Z</time></trkpt><trkpt lat="44.48761141367797" lon="9.686912025448912"><ele>449.0</ele><time>2026-04-19T08:06:34.999Z</time></trkpt><trkpt lat="44.487537071577314" lon="9.687158963069388"><ele>449.0</ele><time>2026-04-19T08:06:35.998Z</time></trkpt><trkpt lat="44.48750709596122" lon="9.687443170193124"><ele>450.3333333333333</ele><time>2026-04-19T08:06:36.998Z</time></trkpt><trkpt lat="44.48751581542748" lon="9.687743368881586"><ele>451.66666666666663</ele><time>2026-04-19T08:06:37.998Z</time></trkpt><trkpt lat="44.48751890019203" lon="9.688072151447885"><ele>453.0</ele><time>2026-04-19T08:06:38.998Z</time></trkpt><trkpt lat="44.48752355503649" lon="9.688376838920309"><ele>453.33333333333337</ele><time>2026-04-19T08:06:39.998Z</time></trkpt><trkpt lat="44.487528273094256" lon="9.688665128965452"><ele>453.6666666666667</ele><time>2026-04-19T08:06:40.998Z</time></trkpt><trkpt lat="44.48753311429832" lon="9.688955262497013"><ele>454.0</ele><time>2026-04-19T08:06:41.998Z</time></trkpt><trkpt lat="44.48753782584552" lon="9.68923762600212"><ele>455.0</ele><time>2026-04-19T08:06:42.998Z</time></trkpt><trkpt lat="44.48754186754865" lon="9.689542820070091"><ele>456.0</ele><time>2026-04-19T08:06:43.998Z</time></trkpt><trkpt lat="44.48753390659539" lon="9.689826129817101"><ele>457.0</ele><time>2026-04-19T08:06:44.998Z</time></trkpt><trkpt lat="44.4875069026631" lon="9.69011644144042"><ele>457.6666666666667</ele><time>2026-04-19T08:06:45.998Z</time></trkpt><trkpt lat="44.48749228804074" lon="9.690434143976866"><ele>458.33333333333337</ele><time>2026-04-19T08:06:46.998Z</time></trkpt><trkpt lat="44.48745711823212" lon="9.6907231376236"><ele>459.0</ele><time>2026-04-19T08:06:47.998Z</time></trkpt><trkpt lat="44.48742302859828" lon="9.691008602486882"><ele>458.66666666666663</ele><time>2026-04-19T08:06:48.998Z</time></trkpt><trkpt lat="44.48738863382202" lon="9.691309089129685"><ele>458.3333333333333</ele><time>2026-04-19T08:06:49.998Z</time></trkpt><trkpt lat="44.48735225051562" lon="9.691606228767032"><ele>458.0</ele><time>2026-04-19T08:06:50.998Z</time></trkpt><trkpt lat="44.48729626989641" lon="9.691904186135208"><ele>459.0</ele><time>2026-04-19T08:06:51.998Z</time></trkpt><trkpt lat="44.48721507815376" lon="9.692205776677302"><ele>460.0</ele><time>2026-04-19T08:06:52.998Z</time></trkpt><trkpt lat="44.487113556947826" lon="9.692477372874876"><ele>461.0</ele><time>2026-04-19T08:06:53.998Z</time></trkpt><trkpt lat="44.48701971619198" lon="9.69276255143413"><ele>455.66666666666663</ele><time>2026-04-19T08:06:54.998Z</time></trkpt><trkpt lat="44.48694975832636" lon="9.69304887107649"><ele>450.33333333333337</ele><time>2026-04-19T08:06:55.998Z</time></trkpt><trkpt lat="44.48691474177109" lon="9.693359095585935"><ele>445.0</ele><time>2026-04-19T08:06:56.998Z</time></trkpt><trkpt lat="44.48689562582949" lon="9.693660766713982"><ele>444.6666666666667</ele><time>2026-04-19T08:06:57.998Z</time></trkpt><trkpt lat="44.48689062817358" lon="9.693940631740213"><ele>444.33333333333337</ele><time>2026-04-19T08:06:58.998Z</time></trkpt><trkpt lat="44.48692108370258" lon="9.69422385197972"><ele>444.0</ele><time>2026-04-19T08:06:59.998Z</time></trkpt><trkpt lat="44.486986794381835" lon="9.694505189135134"><ele>443.66666666666663</ele><time>2026-04-19T08:07:00.998Z</time></trkpt><trkpt lat="44.48706562796768" lon="9.6947870768811"><ele>443.3333333333333</ele><time>2026-04-19T08:07:01.998Z</time></trkpt><trkpt lat="44.48708319571305" lon="9.695066157646385"><ele>443.0</ele><time>2026-04-19T08:07:02.998Z</time></trkpt><trkpt lat="44.487044686031886" lon="9.695371122955885"><ele>443.0</ele><time>2026-04-19T08:07:03.998Z</time></trkpt><trkpt lat="44.48696382714226" lon="9.695654873241386"><ele>443.0</ele><time>2026-04-19T08:07:04.998Z</time></trkpt><trkpt lat="44.48687517456417" lon="9.695935675949173"><ele>443.0</ele><time>2026-04-19T08:07:05.998Z</time></trkpt><trkpt lat="44.486807081603274" lon="9.696201401647897"><ele>443.66666666666663</ele><time>2026-04-19T08:07:06.998Z</time></trkpt><trkpt lat="44.48676669750169" lon="9.696485889076516"><ele>444.33333333333337</ele><time>2026-04-19T08:07:07.998Z</time></trkpt><trkpt lat="44.48671475978911" lon="9.696764303921729"><ele>445.0</ele><time>2026-04-19T08:07:08.998Z</time></trkpt><trkpt lat="44.48665435565622" lon="9.697045350344798"><ele>447.33333333333337</ele><time>2026-04-19T08:07:09.998Z</time></trkpt><trkpt lat="44.48659229428539" lon="9.697342257833196"><ele>449.66666666666663</ele><time>2026-04-19T08:07:10.998Z</time></trkpt><trkpt lat="44.48653098933852" lon="9.697612612285917"><ele>452.0</ele><time>2026-04-19T08:07:11.998Z</time></trkpt><trkpt lat="44.486467558301634" lon="9.697868768706773"><ele>452.0</ele><time>2026-04-19T08:07:12.998Z</time></trkpt><trkpt lat="44.48640811472414" lon="9.698106691725545"><ele>452.0</ele><time>2026-04-19T08:07:13.998Z</time></trkpt><trkpt lat="44.486323933170695" lon="9.698336820796701"><ele>452.0</ele><time>2026-04-19T08:07:14.998Z</time></trkpt><trkpt lat="44.486192505125274" lon="9.698554473763675"><ele>449.3333333333333</ele><time>2026-04-19T08:07:15.998Z</time></trkpt><trkpt lat="44.4860359019776" lon="9.698735530399558"><ele>446.66666666666663</ele><time>2026-04-19T08:07:16.998Z</time></trkpt><trkpt lat="44.48588030202628" lon="9.698927406289057"><ele>444.0</ele><time>2026-04-19T08:07:17.998Z</time></trkpt><trkpt lat="44.48575150347986" lon="9.699128708737062"><ele>444.0</ele><time>2026-04-19T08:07:18.998Z</time></trkpt><trkpt lat="44.48563901221575" lon="9.699359262322474"><ele>444.0</ele><time>2026-04-19T08:07:19.998Z</time></trkpt><trkpt lat="44.48553418043643" lon="9.699613006756994"><ele>444.0</ele><time>2026-04-19T08:07:20.998Z</time></trkpt><trkpt lat="44.48543008664127" lon="9.699864440889176"><ele>443.66666666666663</ele><time>2026-04-19T08:07:21.998Z</time></trkpt><trkpt lat="44.485333637235094" lon="9.700091619268656"><ele>443.3333333333333</ele><time>2026-04-19T08:07:22.998Z</time></trkpt><trkpt lat="44.485236736705495" lon="9.700295370895198"><ele>443.0</ele><time>2026-04-19T08:07:23.998Z</time></trkpt><trkpt lat="44.485109249356256" lon="9.700425472377457"><ele>444.66666666666663</ele><time>2026-04-19T08:07:24.998Z</time></trkpt><trkpt lat="44.48494681177714" lon="9.700464074338079"><ele>446.33333333333337</ele><time>2026-04-19T08:07:25.998Z</time></trkpt><trkpt lat="44.484753200074834" lon="9.700450200069643"><ele>448.0</ele><time>2026-04-19T08:07:26.998Z</time></trkpt><trkpt lat="44.48458020140871" lon="9.700436205014078"><ele>448.0</ele><time>2026-04-19T08:07:27.998Z</time></trkpt><trkpt lat="44.484415021543334" lon="9.700453681408808"><ele>448.0</ele><time>2026-04-19T08:07:28.998Z</time></trkpt><trkpt lat="44.48424762629737" lon="9.700523591112699"><ele>448.0</ele><time>2026-04-19T08:07:29.998Z</time></trkpt><trkpt lat="44.484065107340626" lon="9.70065781798583"><ele>448.0</ele><time>2026-04-19T08:07:30.998Z</time></trkpt><trkpt lat="44.483894892161636" lon="9.700819429968083"><ele>448.0</ele><time>2026-04-19T08:07:31.998Z</time></trkpt><trkpt lat="44.48372949213537" lon="9.701022598125691"><ele>448.0</ele><time>2026-04-19T08:07:32.997Z</time></trkpt><trkpt lat="44.48356137400817" lon="9.701234533861793"><ele>447.33333333333337</ele><time>2026-04-19T08:07:33.997Z</time></trkpt><trkpt lat="44.4833969956245" lon="9.70142434381813"><ele>446.66666666666663</ele><time>2026-04-19T08:07:34.997Z</time></trkpt><trkpt lat="44.48324178479391" lon="9.701603156090684"><ele>446.0</ele><time>2026-04-19T08:07:35.997Z</time></trkpt><trkpt lat="44.483104367182264" lon="9.701763267236363"><ele>446.0</ele><time>2026-04-19T08:07:36.997Z</time></trkpt><trkpt lat="44.48297259998752" lon="9.701917312525287"><ele>446.0</ele><time>2026-04-19T08:07:37.997Z</time></trkpt><trkpt lat="44.48284975907915" lon="9.70207324052035"><ele>446.0</ele><time>2026-04-19T08:07:38.997Z</time></trkpt><trkpt lat="44.482742924074216" lon="9.702246049459848"><ele>446.0</ele><time>2026-04-19T08:07:39.997Z</time></trkpt><trkpt lat="44.482655692200865" lon="9.702446812269732"><ele>446.0</ele><time>2026-04-19T08:07:40.997Z</time></trkpt><trkpt lat="44.48258050459671" lon="9.702648187619126"><ele>446.0</ele><time>2026-04-19T08:07:41.997Z</time></trkpt><trkpt lat="44.482507623674934" lon="9.702843064673322"><ele>447.0</ele><time>2026-04-19T08:07:42.997Z</time></trkpt><trkpt lat="44.482432339742985" lon="9.703046680216875"><ele>448.0</ele><time>2026-04-19T08:07:43.997Z</time></trkpt><trkpt lat="44.482367865558345" lon="9.703253377346195"><ele>449.0</ele><time>2026-04-19T08:07:44.997Z</time></trkpt><trkpt lat="44.482302994806034" lon="9.703434512661374"><ele>448.3333333333333</ele><time>2026-04-19T08:07:45.997Z</time></trkpt><trkpt lat="44.48223646792678" lon="9.703634426441416"><ele>447.66666666666663</ele><time>2026-04-19T08:07:46.997Z</time></trkpt><trkpt lat="44.482167163988876" lon="9.703836893484638"><ele>447.0</ele><time>2026-04-19T08:07:47.997Z</time></trkpt><trkpt lat="44.482096891204876" lon="9.704044373838022"><ele>445.33333333333337</ele><time>2026-04-19T08:07:48.997Z</time></trkpt><trkpt lat="44.48203686262984" lon="9.704260898471544"><ele>443.6666666666667</ele><time>2026-04-19T08:07:49.997Z</time></trkpt><trkpt lat="44.48199940316524" lon="9.704515413765082"><ele>442.0</ele><time>2026-04-19T08:07:50.997Z</time></trkpt><trkpt lat="44.48198398392919" lon="9.704804582884314"><ele>442.0</ele><time>2026-04-19T08:07:51.997Z</time></trkpt><trkpt lat="44.48197221757667" lon="9.705108498616465"><ele>442.0</ele><time>2026-04-19T08:07:52.997Z</time></trkpt><trkpt lat="44.48195651138016" lon="9.705437329129895"><ele>442.0</ele><time>2026-04-19T08:07:53.997Z</time></trkpt><trkpt lat="44.481893700200175" lon="9.705737686440848"><ele>442.0</ele><time>2026-04-19T08:07:54.997Z</time></trkpt><trkpt lat="44.48186908339456" lon="9.705991218846307"><ele>442.0</ele><time>2026-04-19T08:07:55.997Z</time></trkpt><trkpt lat="44.48183972451159" lon="9.706251330500384"><ele>441.0</ele><time>2026-04-19T08:07:56.999Z</time></trkpt><trkpt lat="44.48180835711917" lon="9.706491424847224"><ele>440.0</ele><time>2026-04-19T08:07:57.999Z</time></trkpt><trkpt lat="44.481794323622964" lon="9.706712241849607"><ele>439.0</ele><time>2026-04-19T08:07:58.999Z</time></trkpt><trkpt lat="44.48176902772335" lon="9.706911989259476"><ele>438.5</ele><time>2026-04-19T08:07:59.999Z</time></trkpt><trkpt lat="44.48174189805945" lon="9.707113013793638"><ele>438.0</ele><time>2026-04-19T08:08:00.999Z</time></trkpt><trkpt lat="44.48169600188133" lon="9.707316707964798"><ele>437.5</ele><time>2026-04-19T08:08:01.999Z</time></trkpt><trkpt lat="44.48166665316091" lon="9.707512804338297"><ele>437.0</ele><time>2026-04-19T08:08:02.999Z</time></trkpt><trkpt lat="44.481638261902994" lon="9.707710938805036"><ele>438.0</ele><time>2026-04-19T08:08:03.999Z</time></trkpt><trkpt lat="44.481580508495476" lon="9.70790116322769"><ele>439.0</ele><time>2026-04-19T08:08:04.999Z</time></trkpt><trkpt lat="44.48150442918981" lon="9.708064389017359"><ele>440.0</ele><time>2026-04-19T08:08:05.999Z</time></trkpt><trkpt lat="44.48142470329898" lon="9.708204476153659"><ele>441.0</ele><time>2026-04-19T08:08:06.999Z</time></trkpt><trkpt lat="44.48135034146496" lon="9.708321680538951"><ele>441.0</ele><time>2026-04-19T08:08:07.999Z</time></trkpt><trkpt lat="44.48127073272917" lon="9.708442363187928"><ele>441.0</ele><time>2026-04-19T08:08:08.999Z</time></trkpt><trkpt lat="44.48119946262564" lon="9.708555788445219"><ele>441.0</ele><time>2026-04-19T08:08:09.999Z</time></trkpt><trkpt lat="44.48112505992421" lon="9.70867307719751"><ele>441.0</ele><time>2026-04-19T08:08:10.999Z</time></trkpt><trkpt lat="44.48107186169605" lon="9.708810403794615"><ele>441.0</ele><time>2026-04-19T08:08:11.999Z</time></trkpt><trkpt lat="44.4810586701616" lon="9.708984523354285"><ele>440.0</ele><time>2026-04-19T08:08:12.999Z</time></trkpt><trkpt lat="44.481086804685965" lon="9.709167359535726"><ele>439.0</ele><time>2026-04-19T08:08:13.999Z</time></trkpt><trkpt lat="44.48115114111332" lon="9.70935074588828"><ele>438.0</ele><time>2026-04-19T08:08:14.999Z</time></trkpt><trkpt lat="44.48121948309398" lon="9.709521163363474"><ele>437.0</ele><time>2026-04-19T08:08:15.999Z</time></trkpt><trkpt lat="44.48128580817701" lon="9.70970373830421"><ele>439.0</ele><time>2026-04-19T08:08:16.999Z</time></trkpt><trkpt lat="44.48134635244687" lon="9.709888657809916"><ele>441.0</ele><time>2026-04-19T08:08:17.999Z</time></trkpt><trkpt lat="44.481396899237865" lon="9.710080380377178"><ele>443.0</ele><time>2026-04-19T08:08:18.999Z</time></trkpt><trkpt lat="44.48138585273077" lon="9.71026713009957"><ele>445.0</ele><time>2026-04-19T08:08:19.999Z</time></trkpt><trkpt lat="44.481357531536496" lon="9.710440700168833"><ele>445.5</ele><time>2026-04-19T08:08:20.999Z</time></trkpt><trkpt lat="44.48129236141614" lon="9.710605703487795"><ele>446.0</ele><time>2026-04-19T08:08:21.999Z</time></trkpt><trkpt lat="44.481220146157874" lon="9.710796220605856"><ele>446.5</ele><time>2026-04-19T08:08:22.999Z</time></trkpt><trkpt lat="44.48115655209019" lon="9.711000888653945"><ele>447.0</ele><time>2026-04-19T08:08:23.999Z</time></trkpt><trkpt lat="44.48108111001443" lon="9.711181304811895"><ele>445.25</ele><time>2026-04-19T08:08:24.999Z</time></trkpt><trkpt lat="44.481014726" lon="9.711348938606728"><ele>443.5</ele><time>2026-04-19T08:08:25.999Z</time></trkpt><trkpt lat="44.48095059409392" lon="9.711511981925094"><ele>441.75</ele><time>2026-04-19T08:08:26.999Z</time></trkpt><trkpt lat="44.48088708866102" lon="9.711669550200396"><ele>440.0</ele><time>2026-04-19T08:08:27.999Z</time></trkpt><trkpt lat="44.48082942585783" lon="9.7118278047287"><ele>440.4</ele><time>2026-04-19T08:08:28.999Z</time></trkpt><trkpt lat="44.480772640825634" lon="9.711966269770539"><ele>440.8</ele><time>2026-04-19T08:08:29.999Z</time></trkpt><trkpt lat="44.48071263472127" lon="9.712092454563473"><ele>441.20000000000005</ele><time>2026-04-19T08:08:30.999Z</time></trkpt><trkpt lat="44.480648681380885" lon="9.712206942438378"><ele>441.6</ele><time>2026-04-19T08:08:31.999Z</time></trkpt><trkpt lat="44.480571532979354" lon="9.71233471962498"><ele>442.0</ele><time>2026-04-19T08:08:32.999Z</time></trkpt><trkpt lat="44.480471464015494" lon="9.712461207069381"><ele>441.0</ele><time>2026-04-19T08:08:33.999Z</time></trkpt><trkpt lat="44.48037967775139" lon="9.71257340506055"><ele>440.0</ele><time>2026-04-19T08:08:34.999Z</time></trkpt><trkpt lat="44.480284202550024" lon="9.712656050899353"><ele>439.0</ele><time>2026-04-19T08:08:35.999Z</time></trkpt><trkpt lat="44.4801762900998" lon="9.7127160821065"><ele>438.0</ele><time>2026-04-19T08:08:36.999Z</time></trkpt><trkpt lat="44.48004582196733" lon="9.712708093797074"><ele>438.0</ele><time>2026-04-19T08:08:37.999Z</time></trkpt><trkpt lat="44.47989911148462" lon="9.71270644070963"><ele>438.0</ele><time>2026-04-19T08:08:38.999Z</time></trkpt><trkpt lat="44.4797683037709" lon="9.71261638390269"><ele>438.0</ele><time>2026-04-19T08:08:39.999Z</time></trkpt><trkpt lat="44.47961122946331" lon="9.712512066511554"><ele>436.33333333333337</ele><time>2026-04-19T08:08:40.999Z</time></trkpt><trkpt lat="44.479436014245124" lon="9.712391597555289"><ele>434.6666666666667</ele><time>2026-04-19T08:08:41.999Z</time></trkpt><trkpt lat="44.47926035191585" lon="9.71226704361361"><ele>433.0</ele><time>2026-04-19T08:08:42.999Z</time></trkpt><trkpt lat="44.47909649495651" lon="9.712150671858875"><ele>433.0</ele><time>2026-04-19T08:08:43.999Z</time></trkpt><trkpt lat="44.47893442274445" lon="9.71203595546846"><ele>433.0</ele><time>2026-04-19T08:08:44.999Z</time></trkpt><trkpt lat="44.47875897011149" lon="9.711912707369098"><ele>433.0</ele><time>2026-04-19T08:08:45.999Z</time></trkpt><trkpt lat="44.47858696559252" lon="9.711791582743684"><ele>432.0</ele><time>2026-04-19T08:08:46.999Z</time></trkpt><trkpt lat="44.47842229161227" lon="9.711675537321323"><ele>431.0</ele><time>2026-04-19T08:08:47.999Z</time></trkpt><trkpt lat="44.47827782403764" lon="9.711573731309675"><ele>430.0</ele><time>2026-04-19T08:08:48.999Z</time></trkpt><trkpt lat="44.47814004713728" lon="9.71147649702647"><ele>430.0</ele><time>2026-04-19T08:08:49.999Z</time></trkpt><trkpt lat="44.47802087052848" lon="9.711421230896148"><ele>430.0</ele><time>2026-04-19T08:08:50.999Z</time></trkpt><trkpt lat="44.47792758312378" lon="9.711335730064796"><ele>430.0</ele><time>2026-04-19T08:08:51.999Z</time></trkpt><trkpt lat="44.47785002427475" lon="9.711234595858812"><ele>430.0</ele><time>2026-04-19T08:08:52.999Z</time></trkpt><trkpt lat="44.47777599465967" lon="9.711142142169953"><ele>430.0</ele><time>2026-04-19T08:08:53.999Z</time></trkpt><trkpt lat="44.477690181096094" lon="9.71112771708037"><ele>431.5</ele><time>2026-04-19T08:08:54.999Z</time></trkpt><trkpt lat="44.477610188124345" lon="9.711183753726116"><ele>433.0</ele><time>2026-04-19T08:08:55.999Z</time></trkpt><trkpt lat="44.477520113121294" lon="9.711316071387934"><ele>434.5</ele><time>2026-04-19T08:08:56.999Z</time></trkpt><trkpt lat="44.477421761374565" lon="9.711472928596036"><ele>436.0</ele><time>2026-04-19T08:08:57.999Z</time></trkpt><trkpt lat="44.47728743323087" lon="9.711577504427916"><ele>436.0</ele><time>2026-04-19T08:08:58.999Z</time></trkpt><trkpt lat="44.47713509539866" lon="9.711682491351246"><ele>436.0</ele><time>2026-04-19T08:08:59.999Z</time></trkpt><trkpt lat="44.47698999091554" lon="9.711796507518157"><ele>436.0</ele><time>2026-04-19T08:09:00.999Z</time></trkpt><trkpt lat="44.476847259619966" lon="9.711927070012178"><ele>435.33333333333337</ele><time>2026-04-19T08:09:01.998Z</time></trkpt><trkpt lat="44.47668562278895" lon="9.712070599296887"><ele>434.66666666666663</ele><time>2026-04-19T08:09:02.998Z</time></trkpt><trkpt lat="44.47651560388461" lon="9.712232102989038"><ele>434.0</ele><time>2026-04-19T08:09:03.998Z</time></trkpt><trkpt lat="44.47633372693243" lon="9.71240978134968"><ele>434.0</ele><time>2026-04-19T08:09:04.998Z</time></trkpt><trkpt lat="44.47615035988773" lon="9.712580550694359"><ele>434.0</ele><time>2026-04-19T08:09:05.998Z</time></trkpt><trkpt lat="44.47598527799118" lon="9.71274920821767"><ele>434.0</ele><time>2026-04-19T08:09:06.998Z</time></trkpt><trkpt lat="44.475831293073426" lon="9.712962316983692"><ele>434.0</ele><time>2026-04-19T08:09:07.998Z</time></trkpt><trkpt lat="44.47567753721267" lon="9.71321588651361"><ele>434.0</ele><time>2026-04-19T08:09:08.998Z</time></trkpt><trkpt lat="44.47549983500001" lon="9.713481607840711"><ele>434.5</ele><time>2026-04-19T08:09:09.998Z</time></trkpt><trkpt lat="44.47531159598216" lon="9.713787191282245"><ele>435.0</ele><time>2026-04-19T08:09:10.998Z</time></trkpt><trkpt lat="44.47512783089347" lon="9.714084699338597"><ele>434.0</ele><time>2026-04-19T08:09:11.998Z</time></trkpt><trkpt lat="44.47492277942434" lon="9.714416180298171"><ele>433.0</ele><time>2026-04-19T08:09:12.998Z</time></trkpt><trkpt lat="44.47475581374185" lon="9.71470559125735"><ele>433.6666666666667</ele><time>2026-04-19T08:09:13.998Z</time></trkpt><trkpt lat="44.47460316525754" lon="9.71492079325443"><ele>434.33333333333337</ele><time>2026-04-19T08:09:14.998Z</time></trkpt><trkpt lat="44.47448030222013" lon="9.71510304979045"><ele>435.0</ele><time>2026-04-19T08:09:15.998Z</time></trkpt><trkpt lat="44.47436492927062" lon="9.715318935339319"><ele>435.0</ele><time>2026-04-19T08:09:16.998Z</time></trkpt><trkpt lat="44.4742695611022" lon="9.715515327115606"><ele>435.0</ele><time>2026-04-19T08:09:17.998Z</time></trkpt><trkpt lat="44.474178972866696" lon="9.715745431914964"><ele>435.0</ele><time>2026-04-19T08:09:18.998Z</time></trkpt><trkpt lat="44.47406661702933" lon="9.715985284657588"><ele>433.5</ele><time>2026-04-19T08:09:19.998Z</time></trkpt><trkpt lat="44.47397862172094" lon="9.716263320836445"><ele>432.0</ele><time>2026-04-19T08:09:20.998Z</time></trkpt><trkpt lat="44.47387795114363" lon="9.716562822157563"><ele>432.0</ele><time>2026-04-19T08:09:21.998Z</time></trkpt><trkpt lat="44.47379562869681" lon="9.71689742258187"><ele>432.0</ele><time>2026-04-19T08:09:22.998Z</time></trkpt><trkpt lat="44.473725856615886" lon="9.717227075698377"><ele>432.5</ele><time>2026-04-19T08:09:23.998Z</time></trkpt><trkpt lat="44.473633519160764" lon="9.717528711276882"><ele>433.0</ele><time>2026-04-19T08:09:24.998Z</time></trkpt><trkpt lat="44.47354053056505" lon="9.717803418740747"><ele>433.0</ele><time>2026-04-19T08:09:25.998Z</time></trkpt><trkpt lat="44.47343445178138" lon="9.718052103378888"><ele>433.0</ele><time>2026-04-19T08:09:26.998Z</time></trkpt><trkpt lat="44.47333321758705" lon="9.718287493644366"><ele>433.0</ele><time>2026-04-19T08:09:27.998Z</time></trkpt><trkpt lat="44.473191405478275" lon="9.718504553851002"><ele>433.33333333333337</ele><time>2026-04-19T08:09:28.998Z</time></trkpt><trkpt lat="44.47303482296552" lon="9.718702375446746"><ele>433.66666666666663</ele><time>2026-04-19T08:09:29.998Z</time></trkpt><trkpt lat="44.472877709871696" lon="9.718893017562092"><ele>434.0</ele><time>2026-04-19T08:09:30.998Z</time></trkpt><trkpt lat="44.47272856077949" lon="9.719083910187779"><ele>434.0</ele><time>2026-04-19T08:09:31.998Z</time></trkpt><trkpt lat="44.47257977344546" lon="9.719288818680711"><ele>434.0</ele><time>2026-04-19T08:09:32.998Z</time></trkpt><trkpt lat="44.472430089118475" lon="9.719510124633398"><ele>434.0</ele><time>2026-04-19T08:09:33.998Z</time></trkpt><trkpt lat="44.472286608897505" lon="9.719730851014964"><ele>433.0</ele><time>2026-04-19T08:09:34.998Z</time></trkpt><trkpt lat="44.47215058985699" lon="9.719950334609988"><ele>432.0</ele><time>2026-04-19T08:09:35.998Z</time></trkpt><trkpt lat="44.47201270383691" lon="9.720175288245882"><ele>431.0</ele><time>2026-04-19T08:09:36.998Z</time></trkpt><trkpt lat="44.471870411164176" lon="9.720414157541324"><ele>430.66666666666663</ele><time>2026-04-19T08:09:37.998Z</time></trkpt><trkpt lat="44.471733395090574" lon="9.720633459683484"><ele>430.33333333333337</ele><time>2026-04-19T08:09:38.998Z</time></trkpt><trkpt lat="44.47159710432597" lon="9.720868279921289"><ele>430.0</ele><time>2026-04-19T08:09:39.998Z</time></trkpt><trkpt lat="44.47145734957517" lon="9.721098637831155"><ele>430.0</ele><time>2026-04-19T08:09:40.998Z</time></trkpt><trkpt lat="44.471313735067255" lon="9.721335177342338"><ele>430.0</ele><time>2026-04-19T08:09:41.998Z</time></trkpt><trkpt lat="44.47116769988222" lon="9.721568957252597"><ele>430.0</ele><time>2026-04-19T08:09:42.998Z</time></trkpt><trkpt lat="44.471019737283676" lon="9.72180740255927"><ele>431.0</ele><time>2026-04-19T08:09:43.998Z</time></trkpt><trkpt lat="44.47087302228123" lon="9.722038043279047"><ele>432.0</ele><time>2026-04-19T08:09:44.998Z</time></trkpt><trkpt lat="44.47072758217763" lon="9.722270990553314"><ele>433.0</ele><time>2026-04-19T08:09:45.998Z</time></trkpt><trkpt lat="44.47058402585363" lon="9.722507184784561"><ele>433.0</ele><time>2026-04-19T08:09:46.998Z</time></trkpt><trkpt lat="44.47043988664809" lon="9.722732594040824"><ele>433.0</ele><time>2026-04-19T08:09:47.998Z</time></trkpt><trkpt lat="44.470295519421384" lon="9.722969658472335"><ele>433.0</ele><time>2026-04-19T08:09:48.998Z</time></trkpt><trkpt lat="44.470160409608816" lon="9.72318804495951"><ele>433.0</ele><time>2026-04-19T08:09:49.998Z</time></trkpt><trkpt lat="44.470044243882484" lon="9.7234138224637"><ele>433.0</ele><time>2026-04-19T08:09:50.998Z</time></trkpt><trkpt lat="44.469953688225836" lon="9.723653325912492"><ele>433.0</ele><time>2026-04-19T08:09:51.998Z</time></trkpt><trkpt lat="44.46989240022148" lon="9.723921746343498"><ele>432.33333333333337</ele><time>2026-04-19T08:09:52.998Z</time></trkpt><trkpt lat="44.46988033258598" lon="9.724223769618398"><ele>431.66666666666663</ele><time>2026-04-19T08:09:53.998Z</time></trkpt><trkpt lat="44.46991077573918" lon="9.724542552962655"><ele>431.0</ele><time>2026-04-19T08:09:54.998Z</time></trkpt><trkpt lat="44.469984984069" lon="9.724841663848323"><ele>431.0</ele><time>2026-04-19T08:09:55.998Z</time></trkpt><trkpt lat="44.47006616165632" lon="9.725105829999077"><ele>431.0</ele><time>2026-04-19T08:09:56.998Z</time></trkpt><trkpt lat="44.47013471436075" lon="9.725376255148275"><ele>431.0</ele><time>2026-04-19T08:09:57.998Z</time></trkpt><trkpt lat="44.47020435894527" lon="9.725662876910397"><ele>433.0</ele><time>2026-04-19T08:09:58.998Z</time></trkpt><trkpt lat="44.47028149257611" lon="9.72596382455494"><ele>435.0</ele><time>2026-04-19T08:09:59.998Z</time></trkpt><trkpt lat="44.4703647003563" lon="9.726271467684503"><ele>432.5</ele><time>2026-04-19T08:10:00.998Z</time></trkpt><trkpt lat="44.470464064060785" lon="9.726578451835183"><ele>430.0</ele><time>2026-04-19T08:10:01.998Z</time></trkpt><trkpt lat="44.470575368246614" lon="9.726871807177627"><ele>435.0</ele><time>2026-04-19T08:10:02.998Z</time></trkpt><trkpt lat="44.47069901365288" lon="9.727143908411326"><ele>440.0</ele><time>2026-04-19T08:10:03.998Z</time></trkpt><trkpt lat="44.470837060740706" lon="9.727395008527767"><ele>440.0</ele><time>2026-04-19T08:10:04.998Z</time></trkpt><trkpt lat="44.4709653297772" lon="9.727605022822193"><ele>440.0</ele><time>2026-04-19T08:10:05.998Z</time></trkpt><trkpt lat="44.471080029098815" lon="9.727794565918932"><ele>440.0</ele><time>2026-04-19T08:10:06.998Z</time></trkpt><trkpt lat="44.47115305207105" lon="9.727990123503771"><ele>440.0</ele><time>2026-04-19T08:10:07.998Z</time></trkpt><trkpt lat="44.47116439831916" lon="9.728222154892455"><ele>440.0</ele><time>2026-04-19T08:10:08.998Z</time></trkpt><trkpt lat="44.47113284774374" lon="9.72847368171982"><ele>440.0</ele><time>2026-04-19T08:10:09.998Z</time></trkpt><trkpt lat="44.47103310906836" lon="9.728706805058174"><ele>440.0</ele><time>2026-04-19T08:10:10.998Z</time></trkpt><trkpt lat="44.47088697351158" lon="9.728927706161725"><ele>440.0</ele><time>2026-04-19T08:10:11.999Z</time></trkpt><trkpt lat="44.47072894679037" lon="9.729147300803039"><ele>440.0</ele><time>2026-04-19T08:10:12.999Z</time></trkpt><trkpt lat="44.47058771871155" lon="9.729379004340002"><ele>439.66666666666663</ele><time>2026-04-19T08:10:13.999Z</time></trkpt><trkpt lat="44.47045707428031" lon="9.729578712929122"><ele>439.33333333333337</ele><time>2026-04-19T08:10:14.999Z</time></trkpt><trkpt lat="44.47030981857744" lon="9.729709691857083"><ele>439.0</ele><time>2026-04-19T08:10:15.999Z</time></trkpt><trkpt lat="44.470132419304136" lon="9.729806643437426"><ele>439.0</ele><time>2026-04-19T08:10:16.999Z</time></trkpt><trkpt lat="44.46994814064728" lon="9.729886171408557"><ele>439.0</ele><time>2026-04-19T08:10:17.999Z</time></trkpt><trkpt lat="44.469779425165434" lon="9.729979492173058"><ele>439.0</ele><time>2026-04-19T08:10:18.999Z</time></trkpt><trkpt lat="44.46961449961341" lon="9.730054654861892"><ele>441.0</ele><time>2026-04-19T08:10:19.999Z</time></trkpt><trkpt lat="44.469450881812215" lon="9.730115686614587"><ele>443.0</ele><time>2026-04-19T08:10:20.999Z</time></trkpt><trkpt lat="44.46929360615008" lon="9.730160012741154"><ele>445.0</ele><time>2026-04-19T08:10:21.999Z</time></trkpt><trkpt lat="44.469164072208365" lon="9.730185825571494"><ele>445.0</ele><time>2026-04-19T08:10:22.999Z</time></trkpt><trkpt lat="44.46905695896522" lon="9.730220485015973"><ele>445.0</ele><time>2026-04-19T08:10:23.999Z</time></trkpt><trkpt lat="44.468951155054775" lon="9.73028470778936"><ele>445.0</ele><time>2026-04-19T08:10:24.999Z</time></trkpt><trkpt lat="44.46885817855003" lon="9.730391370823408"><ele>445.0</ele><time>2026-04-19T08:10:25.999Z</time></trkpt><trkpt lat="44.46878029501843" lon="9.730514583257701"><ele>444.0</ele><time>2026-04-19T08:10:26.999Z</time></trkpt><trkpt lat="44.46872640733418" lon="9.73067031147673"><ele>443.0</ele><time>2026-04-19T08:10:27.999Z</time></trkpt><trkpt lat="44.46868641854163" lon="9.730819197777679"><ele>442.0</ele><time>2026-04-19T08:10:28.999Z</time></trkpt><trkpt lat="44.46866277822338" lon="9.730963362860896"><ele>441.0</ele><time>2026-04-19T08:10:29.999Z</time></trkpt><trkpt lat="44.46864422785817" lon="9.731113533613813"><ele>441.0</ele><time>2026-04-19T08:10:30.999Z</time></trkpt><trkpt lat="44.46862822858005" lon="9.731265303981127"><ele>441.0</ele><time>2026-04-19T08:10:31.999Z</time></trkpt><trkpt lat="44.468622327550605" lon="9.73141809011965"><ele>441.0</ele><time>2026-04-19T08:10:32.999Z</time></trkpt><trkpt lat="44.46863958413887" lon="9.731581142416799"><ele>441.0</ele><time>2026-04-19T08:10:33.999Z</time></trkpt><trkpt lat="44.46869566761093" lon="9.731739535589982"><ele>441.25</ele><time>2026-04-19T08:10:34.999Z</time></trkpt><trkpt lat="44.468780890719316" lon="9.731884142868148"><ele>441.5</ele><time>2026-04-19T08:10:35.999Z</time></trkpt><trkpt lat="44.46888956743047" lon="9.7319916681683"><ele>441.75</ele><time>2026-04-19T08:10:36.999Z</time></trkpt><trkpt lat="44.46900977549032" lon="9.732069214008359"><ele>442.0</ele><time>2026-04-19T08:10:37.999Z</time></trkpt><trkpt lat="44.46913081965023" lon="9.732151375881534"><ele>442.0</ele><time>2026-04-19T08:10:38.999Z</time></trkpt><trkpt lat="44.469240291472616" lon="9.732251020924206"><ele>442.0</ele><time>2026-04-19T08:10:39.999Z</time></trkpt><trkpt lat="44.46934725476136" lon="9.732365331165841"><ele>442.0</ele><time>2026-04-19T08:10:40.999Z</time></trkpt><trkpt lat="44.46945226380218" lon="9.73248569314016"><ele>442.0</ele><time>2026-04-19T08:10:41.999Z</time></trkpt><trkpt lat="44.46955059654486" lon="9.732610149379349"><ele>440.0</ele><time>2026-04-19T08:10:42.999Z</time></trkpt><trkpt lat="44.4696439932623" lon="9.732748417787217"><ele>438.0</ele><time>2026-04-19T08:10:43.999Z</time></trkpt><trkpt lat="44.46974015599544" lon="9.732887797758787"><ele>436.0</ele><time>2026-04-19T08:10:44.999Z</time></trkpt><trkpt lat="44.46983436888164" lon="9.733036499947652"><ele>434.0</ele><time>2026-04-19T08:10:45.999Z</time></trkpt><trkpt lat="44.46992354430296" lon="9.733185709975702"><ele>434.0</ele><time>2026-04-19T08:10:46.999Z</time></trkpt><trkpt lat="44.47000958735998" lon="9.733338213952331"><ele>434.0</ele><time>2026-04-19T08:10:47.999Z</time></trkpt><trkpt lat="44.470095708053314" lon="9.733480311259898"><ele>434.0</ele><time>2026-04-19T08:10:48.999Z</time></trkpt><trkpt lat="44.4701767944559" lon="9.733611411754119"><ele>434.0</ele><time>2026-04-19T08:10:49.999Z</time></trkpt><trkpt lat="44.47025811758433" lon="9.733737087364478"><ele>434.75</ele><time>2026-04-19T08:10:50.999Z</time></trkpt><trkpt lat="44.47034029109909" lon="9.733866315714067"><ele>435.5</ele><time>2026-04-19T08:10:51.999Z</time></trkpt><trkpt lat="44.47041966908333" lon="9.733991183583747"><ele>436.25</ele><time>2026-04-19T08:10:52.999Z</time></trkpt><trkpt lat="44.4704995895638" lon="9.734112411593584"><ele>437.0</ele><time>2026-04-19T08:10:53.999Z</time></trkpt><trkpt lat="44.47058525819369" lon="9.73425275652748"><ele>437.0</ele><time>2026-04-19T08:10:54.999Z</time></trkpt><trkpt lat="44.47067074491649" lon="9.734408438654853"><ele>437.0</ele><time>2026-04-19T08:10:55.999Z</time></trkpt><trkpt lat="44.47080702157636" lon="9.734593613619783"><ele>437.0</ele><time>2026-04-19T08:10:56.999Z</time></trkpt><trkpt lat="44.470938149989315" lon="9.73481200086152"><ele>437.0</ele><time>2026-04-19T08:10:57.998Z</time></trkpt><trkpt lat="44.47107180590159" lon="9.735036406382187"><ele>437.0</ele><time>2026-04-19T08:10:58.998Z</time></trkpt><trkpt lat="44.47121931677438" lon="9.735272886078121"><ele>437.0</ele><time>2026-04-19T08:10:59.998Z</time></trkpt><trkpt lat="44.471374697805345" lon="9.735518516432792"><ele>434.66666666666663</ele><time>2026-04-19T08:11:00.998Z</time></trkpt><trkpt lat="44.471527201893835" lon="9.735738523070253"><ele>432.33333333333337</ele><time>2026-04-19T08:11:01.998Z</time></trkpt><trkpt lat="44.47168595290961" lon="9.735920282499752"><ele>430.0</ele><time>2026-04-19T08:11:02.998Z</time></trkpt><trkpt lat="44.471845533431015" lon="9.736087023006563"><ele>431.0</ele><time>2026-04-19T08:11:03.998Z</time></trkpt><trkpt lat="44.472005661594636" lon="9.736247756666055"><ele>432.0</ele><time>2026-04-19T08:11:04.998Z</time></trkpt><trkpt lat="44.47217930205923" lon="9.736401635471555"><ele>433.0</ele><time>2026-04-19T08:11:05.998Z</time></trkpt><trkpt lat="44.47235999709077" lon="9.736534742567045"><ele>433.0</ele><time>2026-04-19T08:11:06.998Z</time></trkpt><trkpt lat="44.47254997947017" lon="9.736654694421661"><ele>433.0</ele><time>2026-04-19T08:11:07.998Z</time></trkpt><trkpt lat="44.47274377550487" lon="9.736768030900246"><ele>433.0</ele><time>2026-04-19T08:11:08.998Z</time></trkpt><trkpt lat="44.472941100739135" lon="9.736890426133934"><ele>435.33333333333337</ele><time>2026-04-19T08:11:09.998Z</time></trkpt><trkpt lat="44.473140119852935" lon="9.73700975903425"><ele>437.66666666666663</ele><time>2026-04-19T08:11:10.998Z</time></trkpt><trkpt lat="44.47333948529766" lon="9.737123210359586"><ele>440.0</ele><time>2026-04-19T08:11:11.998Z</time></trkpt><trkpt lat="44.473538115231285" lon="9.7372235481562"><ele>440.0</ele><time>2026-04-19T08:11:12.998Z</time></trkpt><trkpt lat="44.47372465200501" lon="9.737304357665627"><ele>440.0</ele><time>2026-04-19T08:11:13.998Z</time></trkpt><trkpt lat="44.47389505153008" lon="9.737413202869798"><ele>440.0</ele><time>2026-04-19T08:11:14.998Z</time></trkpt><trkpt lat="44.47405654494618" lon="9.737525516352845"><ele>437.3333333333333</ele><time>2026-04-19T08:11:15.998Z</time></trkpt><trkpt lat="44.47421569371984" lon="9.737674653442301"><ele>434.66666666666663</ele><time>2026-04-19T08:11:16.998Z</time></trkpt><trkpt lat="44.47436487404148" lon="9.737861825102295"><ele>432.0</ele><time>2026-04-19T08:11:17.998Z</time></trkpt><trkpt lat="44.47448933461747" lon="9.738081652499254"><ele>432.0</ele><time>2026-04-19T08:11:18.998Z</time></trkpt><trkpt lat="44.47458926314165" lon="9.738327016695417"><ele>432.0</ele><time>2026-04-19T08:11:19.998Z</time></trkpt><trkpt lat="44.47467716526054" lon="9.738588709323373"><ele>432.0</ele><time>2026-04-19T08:11:20.998Z</time></trkpt><trkpt lat="44.474765989972" lon="9.738854035659694"><ele>430.33333333333337</ele><time>2026-04-19T08:11:21.998Z</time></trkpt><trkpt lat="44.47487081012081" lon="9.739104496955052"><ele>428.6666666666667</ele><time>2026-04-19T08:11:22.998Z</time></trkpt><trkpt lat="44.474974497564595" lon="9.73935571958132"><ele>427.0</ele><time>2026-04-19T08:11:23.998Z</time></trkpt><trkpt lat="44.47513068436742" lon="9.73953599792179"><ele>424.0</ele><time>2026-04-19T08:11:24.998Z</time></trkpt><trkpt lat="44.47526385631417" lon="9.739730842973714"><ele>421.0</ele><time>2026-04-19T08:11:25.998Z</time></trkpt><trkpt lat="44.475391922612296" lon="9.739942170413238"><ele>418.0</ele><time>2026-04-19T08:11:26.998Z</time></trkpt><trkpt lat="44.4754914294269" lon="9.74017238816246"><ele>421.33333333333337</ele><time>2026-04-19T08:11:27.998Z</time></trkpt><trkpt lat="44.47557141454526" lon="9.740425360255747"><ele>424.66666666666663</ele><time>2026-04-19T08:11:28.998Z</time></trkpt><trkpt lat="44.47566959057354" lon="9.740653146077399"><ele>428.0</ele><time>2026-04-19T08:11:29.998Z</time></trkpt><trkpt lat="44.47571624136838" lon="9.74093688669668"><ele>428.0</ele><time>2026-04-19T08:11:30.998Z</time></trkpt><trkpt lat="44.475962268800316" lon="9.741012534186941"><ele>428.0</ele><time>2026-04-19T08:11:31.998Z</time></trkpt><trkpt lat="44.47613479915436" lon="9.741166356359804"><ele>428.66666666666663</ele><time>2026-04-19T08:11:32.998Z</time></trkpt><trkpt lat="44.476298959868366" lon="9.741333293064402"><ele>429.33333333333337</ele><time>2026-04-19T08:11:33.998Z</time></trkpt><trkpt lat="44.47646795632572" lon="9.74149493241667"><ele>430.0</ele><time>2026-04-19T08:11:34.998Z</time></trkpt><trkpt lat="44.47665052705466" lon="9.74164579270574"><ele>430.0</ele><time>2026-04-19T08:11:35.998Z</time></trkpt><trkpt lat="44.476830123773134" lon="9.741757914850487"><ele>430.0</ele><time>2026-04-19T08:11:36.998Z</time></trkpt><trkpt lat="44.47699880888405" lon="9.741885870067323"><ele>430.0</ele><time>2026-04-19T08:11:37.998Z</time></trkpt><trkpt lat="44.47715688357504" lon="9.741995600325797"><ele>427.6666666666667</ele><time>2026-04-19T08:11:38.998Z</time></trkpt><trkpt lat="44.477261685132135" lon="9.742191528884312"><ele>425.33333333333337</ele><time>2026-04-19T08:11:39.998Z</time></trkpt><trkpt lat="44.47733851021642" lon="9.742404854532603"><ele>423.0</ele><time>2026-04-19T08:11:40.998Z</time></trkpt><trkpt lat="44.47737816137695" lon="9.742659397659708"><ele>422.33333333333337</ele><time>2026-04-19T08:11:41.998Z</time></trkpt><trkpt lat="44.47737095762057" lon="9.742919436758495"><ele>421.6666666666667</ele><time>2026-04-19T08:11:42.998Z</time></trkpt><trkpt lat="44.47735832357977" lon="9.7432124100748"><ele>421.0</ele><time>2026-04-19T08:11:43.998Z</time></trkpt><trkpt lat="44.4773479404275" lon="9.743505420669427"><ele>421.33333333333337</ele><time>2026-04-19T08:11:44.998Z</time></trkpt><trkpt lat="44.47736745702073" lon="9.743822440888783"><ele>421.66666666666663</ele><time>2026-04-19T08:11:45.998Z</time></trkpt><trkpt lat="44.477411001535195" lon="9.74412758498322"><ele>422.0</ele><time>2026-04-19T08:11:46.998Z</time></trkpt><trkpt lat="44.47745822617526" lon="9.744418283746343"><ele>423.3333333333333</ele><time>2026-04-19T08:11:47.998Z</time></trkpt><trkpt lat="44.4775008223165" lon="9.744696794326652"><ele>424.66666666666663</ele><time>2026-04-19T08:11:48.998Z</time></trkpt><trkpt lat="44.47754851575724" lon="9.744987181987923"><ele>426.0</ele><time>2026-04-19T08:11:49.998Z</time></trkpt><trkpt lat="44.477605341876306" lon="9.745263814532363"><ele>427.66666666666663</ele><time>2026-04-19T08:11:50.998Z</time></trkpt><trkpt lat="44.477684718638436" lon="9.745526274528407"><ele>429.3333333333333</ele><time>2026-04-19T08:11:51.998Z</time></trkpt><trkpt lat="44.47781146679966" lon="9.745767291805128"><ele>431.0</ele><time>2026-04-19T08:11:52.998Z</time></trkpt><trkpt lat="44.47794919703116" lon="9.745987103640928"><ele>427.0</ele><time>2026-04-19T08:11:53.998Z</time></trkpt><trkpt lat="44.47806090010213" lon="9.746215424137109"><ele>423.0</ele><time>2026-04-19T08:11:54.998Z</time></trkpt><trkpt lat="44.47818418128872" lon="9.746449303148255"><ele>419.0</ele><time>2026-04-19T08:11:55.998Z</time></trkpt><trkpt lat="44.47829605179342" lon="9.746694916119171"><ele>420.66666666666663</ele><time>2026-04-19T08:11:56.998Z</time></trkpt><trkpt lat="44.47839980495371" lon="9.746947510478575"><ele>422.33333333333337</ele><time>2026-04-19T08:11:57.998Z</time></trkpt><trkpt lat="44.47847059960974" lon="9.74724140878147"><ele>424.0</ele><time>2026-04-19T08:11:58.998Z</time></trkpt><trkpt lat="44.478512109412364" lon="9.747527527527097"><ele>426.33333333333337</ele><time>2026-04-19T08:11:59.998Z</time></trkpt><trkpt lat="44.47853694589684" lon="9.747829733523552"><ele>428.66666666666663</ele><time>2026-04-19T08:12:00.998Z</time></trkpt><trkpt lat="44.478542340533416" lon="9.748106778618691"><ele>431.0</ele><time>2026-04-19T08:12:01.998Z</time></trkpt><trkpt lat="44.47854925919981" lon="9.748358845876616"><ele>433.0</ele><time>2026-04-19T08:12:02.998Z</time></trkpt><trkpt lat="44.47856340898577" lon="9.74858057964113"><ele>435.0</ele><time>2026-04-19T08:12:03.998Z</time></trkpt><trkpt lat="44.47858778066033" lon="9.748805508916748"><ele>437.0</ele><time>2026-04-19T08:12:04.998Z</time></trkpt><trkpt lat="44.47862082083616" lon="9.749012911928421"><ele>437.0</ele><time>2026-04-19T08:12:05.998Z</time></trkpt><trkpt lat="44.47866268496124" lon="9.74919318079885"><ele>437.00000000000006</ele><time>2026-04-19T08:12:06.998Z</time></trkpt><trkpt lat="44.47868466252733" lon="9.749333525644813"><ele>437.00000000000006</ele><time>2026-04-19T08:12:07.999Z</time></trkpt><trkpt lat="44.47870944024037" lon="9.749432661389976"><ele>437.0</ele><time>2026-04-19T08:12:08.999Z</time></trkpt><trkpt lat="44.47867196380371" lon="9.749529149134661"><ele>437.0</ele><time>2026-04-19T08:12:11.999Z</time></trkpt><trkpt lat="44.47859502566035" lon="9.749446005808682"><ele>437.0</ele><time>2026-04-19T08:12:13.999Z</time></trkpt><trkpt lat="44.478571399227796" lon="9.749322742307992"><ele>437.00000000000006</ele><time>2026-04-19T08:12:14.999Z</time></trkpt><trkpt lat="44.478532043573594" lon="9.74919586764229"><ele>437.00000000000006</ele><time>2026-04-19T08:12:15.999Z</time></trkpt><trkpt lat="44.478493499436006" lon="9.7490651811077"><ele>437.0</ele><time>2026-04-19T08:12:16.999Z</time></trkpt><trkpt lat="44.47841602623387" lon="9.74894451537939"><ele>437.0</ele><time>2026-04-19T08:12:17.999Z</time></trkpt><trkpt lat="44.478356337852865" lon="9.748795044530107"><ele>437.0</ele><time>2026-04-19T08:12:18.999Z</time></trkpt><trkpt lat="44.478308884356245" lon="9.748632728657446"><ele>437.00000000000006</ele><time>2026-04-19T08:12:19.999Z</time></trkpt><trkpt lat="44.478250045949686" lon="9.748525159829063"><ele>437.00000000000006</ele><time>2026-04-19T08:12:20.999Z</time></trkpt><trkpt lat="44.47820825656117" lon="9.748411784447915"><ele>437.0</ele><time>2026-04-19T08:12:21.999Z</time></trkpt><trkpt lat="44.47814755612878" lon="9.748330117459558"><ele>437.0</ele><time>2026-04-19T08:12:22.999Z</time></trkpt><trkpt lat="44.47809121687626" lon="9.748269056502233"><ele>437.75</ele><time>2026-04-19T08:12:23.999Z</time></trkpt><trkpt lat="44.47799898603506" lon="9.748174045024609"><ele>438.5</ele><time>2026-04-19T08:12:25.999Z</time></trkpt><trkpt lat="44.47794650738554" lon="9.748072742297998"><ele>439.25</ele><time>2026-04-19T08:12:27.999Z</time></trkpt><trkpt lat="44.477820172676815" lon="9.747886127924222"><ele>440.0</ele><time>2026-04-19T08:12:29.999Z</time></trkpt><trkpt lat="44.477941199358604" lon="9.748087166401202"><ele>439.99999999999994</ele><time>2026-04-19T08:12:30.999Z</time></trkpt><trkpt lat="44.47791951516797" lon="9.748207068366176"><ele>440.0</ele><time>2026-04-19T08:25:18.999Z</time></trkpt><trkpt lat="44.47797033290055" lon="9.748274724297845"><ele>440.0</ele><time>2026-04-19T08:25:21.999Z</time></trkpt><trkpt lat="44.478021976134606" lon="9.74836935043667"><ele>440.0</ele><time>2026-04-19T08:25:24.999Z</time></trkpt><trkpt lat="44.478080268616154" lon="9.748409539684502"><ele>439.99999999999994</ele><time>2026-04-19T08:25:25.999Z</time></trkpt><trkpt lat="44.478173003902405" lon="9.7484466207338"><ele>440.0</ele><time>2026-04-19T08:25:26.999Z</time></trkpt><trkpt lat="44.47824794658463" lon="9.748532156750032"><ele>439.4</ele><time>2026-04-19T08:25:27.999Z</time></trkpt><trkpt lat="44.47828005759999" lon="9.748668361229935"><ele>438.8</ele><time>2026-04-19T08:25:28.999Z</time></trkpt><trkpt lat="44.47832600084765" lon="9.748766907146111"><ele>438.20000000000005</ele><time>2026-04-19T08:25:29.999Z</time></trkpt><trkpt lat="44.47836613758959" lon="9.748903757223827"><ele>437.6</ele><time>2026-04-19T08:25:30.999Z</time></trkpt><trkpt lat="44.47840550102154" lon="9.74905822652388"><ele>437.0</ele><time>2026-04-19T08:25:31.999Z</time></trkpt><trkpt lat="44.4785029365731" lon="9.74916524863341"><ele>436.99999999999994</ele><time>2026-04-19T08:25:32.999Z</time></trkpt><trkpt lat="44.478526828409244" lon="9.749280818820697"><ele>437.0</ele><time>2026-04-19T08:25:33.999Z</time></trkpt><trkpt lat="44.47855470797561" lon="9.749386779856087"><ele>437.0</ele><time>2026-04-19T08:25:34.999Z</time></trkpt><trkpt lat="44.47858248711776" lon="9.749471459806532"><ele>437.0</ele><time>2026-04-19T08:25:35.999Z</time></trkpt><trkpt lat="44.47863283198978" lon="9.749580573014423"><ele>436.99999999999994</ele><time>2026-04-19T08:25:37.999Z</time></trkpt><trkpt lat="44.47869599990286" lon="9.749616578811676"><ele>437.0</ele><time>2026-04-19T08:25:40.999Z</time></trkpt><trkpt lat="44.478729819103314" lon="9.74941154012449"><ele>437.0</ele><time>2026-04-19T08:25:48.999Z</time></trkpt><trkpt lat="44.478705509899015" lon="9.749297210296081"><ele>437.00000000000006</ele><time>2026-04-19T08:25:49.999Z</time></trkpt><trkpt lat="44.47868217764691" lon="9.749162772549704"><ele>437.00000000000006</ele><time>2026-04-19T08:25:50.999Z</time></trkpt><trkpt lat="44.47866124586161" lon="9.749033248596938"><ele>437.0</ele><time>2026-04-19T08:25:51.999Z</time></trkpt><trkpt lat="44.47863550496013" lon="9.74890009469464"><ele>437.0</ele><time>2026-04-19T08:25:52.999Z</time></trkpt><trkpt lat="44.47861196025322" lon="9.748755096843833"><ele>437.0</ele><time>2026-04-19T08:25:53.999Z</time></trkpt><trkpt lat="44.47859321186405" lon="9.74859615864434"><ele>437.0</ele><time>2026-04-19T08:25:54.999Z</time></trkpt><trkpt lat="44.47858221544783" lon="9.74841652352727"><ele>437.0</ele><time>2026-04-19T08:25:55.998Z</time></trkpt><trkpt lat="44.478571483520305" lon="9.748222220401843"><ele>437.0</ele><time>2026-04-19T08:25:56.998Z</time></trkpt><trkpt lat="44.47856060526862" lon="9.748016485510899"><ele>435.5</ele><time>2026-04-19T08:25:57.998Z</time></trkpt><trkpt lat="44.478558699669954" lon="9.747848334110525"><ele>434.0</ele><time>2026-04-19T08:25:58.998Z</time></trkpt><trkpt lat="44.47854281636772" lon="9.747647464872582"><ele>432.5</ele><time>2026-04-19T08:25:59.998Z</time></trkpt><trkpt lat="44.478526262584175" lon="9.747450024109066"><ele>431.0</ele><time>2026-04-19T08:26:00.998Z</time></trkpt><trkpt lat="44.478484360048974" lon="9.747219473029249"><ele>428.66666666666663</ele><time>2026-04-19T08:26:01.998Z</time></trkpt><trkpt lat="44.47843707083789" lon="9.747007115082505"><ele>426.33333333333337</ele><time>2026-04-19T08:26:02.998Z</time></trkpt><trkpt lat="44.47836774485123" lon="9.746797862730846"><ele>424.0</ele><time>2026-04-19T08:26:03.998Z</time></trkpt><trkpt lat="44.47828196789307" lon="9.746593944031922"><ele>422.33333333333337</ele><time>2026-04-19T08:26:04.998Z</time></trkpt><trkpt lat="44.478190595170744" lon="9.746401151144712"><ele>420.66666666666663</ele><time>2026-04-19T08:26:05.998Z</time></trkpt><trkpt lat="44.47809868843196" lon="9.74621019270091"><ele>419.0</ele><time>2026-04-19T08:26:06.998Z</time></trkpt><trkpt lat="44.478003303090745" lon="9.746023868008457"><ele>423.0</ele><time>2026-04-19T08:26:07.998Z</time></trkpt><trkpt lat="44.47790258506326" lon="9.745833788209408"><ele>427.0</ele><time>2026-04-19T08:26:08.998Z</time></trkpt><trkpt lat="44.47779986851656" lon="9.745642496204061"><ele>431.0</ele><time>2026-04-19T08:26:09.998Z</time></trkpt><trkpt lat="44.477698917234584" lon="9.745423310604178"><ele>429.3333333333333</ele><time>2026-04-19T08:26:10.998Z</time></trkpt><trkpt lat="44.47761635384799" lon="9.74519655381668"><ele>427.66666666666663</ele><time>2026-04-19T08:26:11.998Z</time></trkpt><trkpt lat="44.47755705234802" lon="9.744924663781976"><ele>426.0</ele><time>2026-04-19T08:26:12.998Z</time></trkpt><trkpt lat="44.47751413409004" lon="9.744630729231824"><ele>424.66666666666663</ele><time>2026-04-19T08:26:13.998Z</time></trkpt><trkpt lat="44.47747540594617" lon="9.744324457398642"><ele>423.3333333333333</ele><time>2026-04-19T08:26:14.998Z</time></trkpt><trkpt lat="44.477436280931556" lon="9.744043163256542"><ele>422.0</ele><time>2026-04-19T08:26:15.998Z</time></trkpt><trkpt lat="44.47739888897319" lon="9.743781351131322"><ele>421.66666666666663</ele><time>2026-04-19T08:26:16.998Z</time></trkpt><trkpt lat="44.477374053870236" lon="9.743515611655473"><ele>421.33333333333337</ele><time>2026-04-19T08:26:17.998Z</time></trkpt><trkpt lat="44.47737989289561" lon="9.743260922489982"><ele>421.0</ele><time>2026-04-19T08:26:18.998Z</time></trkpt><trkpt lat="44.47739803634492" lon="9.743013890670984"><ele>421.0</ele><time>2026-04-19T08:26:19.998Z</time></trkpt><trkpt lat="44.47740947479779" lon="9.742762052906832"><ele>421.0</ele><time>2026-04-19T08:26:20.998Z</time></trkpt><trkpt lat="44.47740455337961" lon="9.742524368367597"><ele>421.0</ele><time>2026-04-19T08:26:21.998Z</time></trkpt><trkpt lat="44.47736594300327" lon="9.742303625073086"><ele>421.6666666666667</ele><time>2026-04-19T08:26:22.998Z</time></trkpt><trkpt lat="44.47728012638881" lon="9.742100243283163"><ele>422.33333333333337</ele><time>2026-04-19T08:26:23.998Z</time></trkpt><trkpt lat="44.477152565494755" lon="9.741926545333342"><ele>423.0</ele><time>2026-04-19T08:26:24.998Z</time></trkpt><trkpt lat="44.47699479289488" lon="9.741788312581923"><ele>425.33333333333337</ele><time>2026-04-19T08:26:25.998Z</time></trkpt><trkpt lat="44.47680474402007" lon="9.741692648606369"><ele>427.6666666666667</ele><time>2026-04-19T08:26:26.998Z</time></trkpt><trkpt lat="44.47661588366461" lon="9.741587808974451"><ele>430.0</ele><time>2026-04-19T08:26:27.998Z</time></trkpt><trkpt lat="44.47645773833247" lon="9.741460283813877"><ele>430.0</ele><time>2026-04-19T08:26:28.998Z</time></trkpt><trkpt lat="44.47632757443514" lon="9.741323229767664"><ele>430.0</ele><time>2026-04-19T08:26:29.998Z</time></trkpt><trkpt lat="44.4762085879094" lon="9.74119365108333"><ele>430.0</ele><time>2026-04-19T08:26:30.998Z</time></trkpt><trkpt lat="44.47608139540375" lon="9.741069911717512"><ele>429.5</ele><time>2026-04-19T08:26:31.998Z</time></trkpt><trkpt lat="44.47595185124709" lon="9.740950268104392"><ele>429.0</ele><time>2026-04-19T08:26:32.998Z</time></trkpt><trkpt lat="44.47583567079467" lon="9.740834738854714"><ele>428.5</ele><time>2026-04-19T08:26:33.998Z</time></trkpt><trkpt lat="44.47573198977304" lon="9.74072163056352"><ele>428.0</ele><time>2026-04-19T08:26:34.998Z</time></trkpt><trkpt lat="44.47563494476334" lon="9.740589760399377"><ele>428.0</ele><time>2026-04-19T08:26:35.998Z</time></trkpt><trkpt lat="44.47559788329909" lon="9.740400288638718"><ele>428.0</ele><time>2026-04-19T08:26:36.998Z</time></trkpt><trkpt lat="44.475532517380906" lon="9.740237039903203"><ele>428.0</ele><time>2026-04-19T08:26:37.998Z</time></trkpt><trkpt lat="44.47548006189938" lon="9.740056545742586"><ele>428.0</ele><time>2026-04-19T08:26:38.998Z</time></trkpt><trkpt lat="44.47537441802067" lon="9.739861488509984"><ele>427.66666666666663</ele><time>2026-04-19T08:26:39.998Z</time></trkpt><trkpt lat="44.47523839758902" lon="9.739660087858269"><ele>427.33333333333337</ele><time>2026-04-19T08:26:40.998Z</time></trkpt><trkpt lat="44.475092478817004" lon="9.739455793610446"><ele>427.0</ele><time>2026-04-19T08:26:41.998Z</time></trkpt><trkpt lat="44.474958828214874" lon="9.739259644598738"><ele>427.0</ele><time>2026-04-19T08:26:42.998Z</time></trkpt><trkpt lat="44.47485987211566" lon="9.739012086761939"><ele>427.0</ele><time>2026-04-19T08:26:43.998Z</time></trkpt><trkpt lat="44.47476676177029" lon="9.7387477807074"><ele>427.0</ele><time>2026-04-19T08:26:44.998Z</time></trkpt><trkpt lat="44.47467069482784" lon="9.73851011178206"><ele>428.6666666666667</ele><time>2026-04-19T08:26:45.998Z</time></trkpt><trkpt lat="44.47461601163062" lon="9.738277942548097"><ele>430.33333333333337</ele><time>2026-04-19T08:26:46.998Z</time></trkpt><trkpt lat="44.47454320257558" lon="9.738073766760262"><ele>432.0</ele><time>2026-04-19T08:26:47.998Z</time></trkpt><trkpt lat="44.47445161468149" lon="9.737894185506336"><ele>432.0</ele><time>2026-04-19T08:26:48.998Z</time></trkpt><trkpt lat="44.47434358057588" lon="9.737739479180423"><ele>432.0</ele><time>2026-04-19T08:26:49.998Z</time></trkpt><trkpt lat="44.47423299437207" lon="9.737612223094015"><ele>432.0</ele><time>2026-04-19T08:26:50.998Z</time></trkpt><trkpt lat="44.474109208257815" lon="9.737504059091707"><ele>432.0</ele><time>2026-04-19T08:26:51.999Z</time></trkpt><trkpt lat="44.473972025939446" lon="9.737415141075795"><ele>434.66666666666663</ele><time>2026-04-19T08:26:52.999Z</time></trkpt><trkpt lat="44.473842176266665" lon="9.737333308052937"><ele>437.3333333333333</ele><time>2026-04-19T08:26:53.999Z</time></trkpt><trkpt lat="44.47368284792221" lon="9.737256367717105"><ele>440.0</ele><time>2026-04-19T08:26:54.999Z</time></trkpt><trkpt lat="44.47351582615356" lon="9.73719791741734"><ele>440.0</ele><time>2026-04-19T08:26:55.999Z</time></trkpt><trkpt lat="44.47336112599056" lon="9.737091075209298"><ele>440.0</ele><time>2026-04-19T08:26:56.999Z</time></trkpt><trkpt lat="44.473177129903554" lon="9.736976601130852"><ele>440.0</ele><time>2026-04-19T08:26:57.999Z</time></trkpt><trkpt lat="44.47299400883635" lon="9.736862071014022"><ele>437.66666666666663</ele><time>2026-04-19T08:26:58.999Z</time></trkpt><trkpt lat="44.472796462047775" lon="9.736748992853595"><ele>435.33333333333337</ele><time>2026-04-19T08:26:59.999Z</time></trkpt><trkpt lat="44.472596063967195" lon="9.736616575220934"><ele>433.0</ele><time>2026-04-19T08:27:00.999Z</time></trkpt><trkpt lat="44.47241164455107" lon="9.736495585522972"><ele>433.0</ele><time>2026-04-19T08:27:01.999Z</time></trkpt><trkpt lat="44.47224053278555" lon="9.736377864957266"><ele>433.0</ele><time>2026-04-19T08:27:02.999Z</time></trkpt><trkpt lat="44.47208448807079" lon="9.736251768286705"><ele>433.0</ele><time>2026-04-19T08:27:03.999Z</time></trkpt><trkpt lat="44.471941041582255" lon="9.736120313227016"><ele>432.0</ele><time>2026-04-19T08:27:04.999Z</time></trkpt><trkpt lat="44.47179879759344" lon="9.735979546130578"><ele>431.0</ele><time>2026-04-19T08:27:05.999Z</time></trkpt><trkpt lat="44.47166080967947" lon="9.73583153169881"><ele>430.0</ele><time>2026-04-19T08:27:06.999Z</time></trkpt><trkpt lat="44.47152091196471" lon="9.735671387228065"><ele>430.0</ele><time>2026-04-19T08:27:07.999Z</time></trkpt><trkpt lat="44.47139505734558" lon="9.73547594909904"><ele>430.0</ele><time>2026-04-19T08:27:08.999Z</time></trkpt><trkpt lat="44.471258441397815" lon="9.735278841521449"><ele>430.0</ele><time>2026-04-19T08:27:09.999Z</time></trkpt><trkpt lat="44.47112851056476" lon="9.735069303601025"><ele>432.33333333333337</ele><time>2026-04-19T08:27:10.999Z</time></trkpt><trkpt lat="44.471005841251674" lon="9.734869678045659"><ele>434.66666666666663</ele><time>2026-04-19T08:27:11.999Z</time></trkpt><trkpt lat="44.47089386510386" lon="9.734688113546913"><ele>437.0</ele><time>2026-04-19T08:27:12.999Z</time></trkpt><trkpt lat="44.47076801467844" lon="9.734515247613015"><ele>434.3333333333333</ele><time>2026-04-19T08:27:13.999Z</time></trkpt><trkpt lat="44.47065479361514" lon="9.734326502057652"><ele>431.66666666666663</ele><time>2026-04-19T08:27:14.999Z</time></trkpt><trkpt lat="44.470548718480806" lon="9.734152693368044"><ele>429.0</ele><time>2026-04-19T08:27:15.999Z</time></trkpt><trkpt lat="44.470451032939714" lon="9.733994991674505"><ele>430.25</ele><time>2026-04-19T08:27:16.999Z</time></trkpt><trkpt lat="44.47035907973076" lon="9.733846340084638"><ele>431.5</ele><time>2026-04-19T08:27:17.999Z</time></trkpt><trkpt lat="44.470274247534725" lon="9.733703423516111"><ele>432.75</ele><time>2026-04-19T08:27:18.999Z</time></trkpt><trkpt lat="44.47019088139052" lon="9.733561800413353"><ele>434.0</ele><time>2026-04-19T08:27:20Z</time></trkpt><trkpt lat="44.47011875368688" lon="9.733420454613842"><ele>434.0</ele><time>2026-04-19T08:27:21Z</time></trkpt><trkpt lat="44.470053505406675" lon="9.73328698466992"><ele>434.0</ele><time>2026-04-19T08:27:22Z</time></trkpt><trkpt lat="44.46992043334057" lon="9.733137038464493"><ele>434.0</ele><time>2026-04-19T08:27:23Z</time></trkpt><trkpt lat="44.469825632529854" lon="9.732982296994338"><ele>434.0</ele><time>2026-04-19T08:27:24Z</time></trkpt><trkpt lat="44.469716906055936" lon="9.732818354680294"><ele>436.66666666666663</ele><time>2026-04-19T08:27:25Z</time></trkpt><trkpt lat="44.46960037173266" lon="9.732639817747229"><ele>439.33333333333337</ele><time>2026-04-19T08:27:26Z</time></trkpt><trkpt lat="44.469482713686325" lon="9.732464419571293"><ele>442.0</ele><time>2026-04-19T08:27:27Z</time></trkpt><trkpt lat="44.469349404756244" lon="9.732291367509495"><ele>442.0</ele><time>2026-04-19T08:27:28Z</time></trkpt><trkpt lat="44.469191951902474" lon="9.73213923221299"><ele>442.0</ele><time>2026-04-19T08:27:29Z</time></trkpt><trkpt lat="44.46903067096479" lon="9.732018401319591"><ele>442.0</ele><time>2026-04-19T08:27:30Z</time></trkpt><trkpt lat="44.46888880474248" lon="9.731914138931733"><ele>441.75</ele><time>2026-04-19T08:27:31Z</time></trkpt><trkpt lat="44.46877785626895" lon="9.73178907935232"><ele>441.5</ele><time>2026-04-19T08:27:32Z</time></trkpt><trkpt lat="44.46867420205856" lon="9.731670766788294"><ele>441.25</ele><time>2026-04-19T08:27:33Z</time></trkpt><trkpt lat="44.46862276173177" lon="9.731470164911558"><ele>441.0</ele><time>2026-04-19T08:27:34Z</time></trkpt><trkpt lat="44.46861210050982" lon="9.73123259092588"><ele>440.33333333333337</ele><time>2026-04-19T08:27:35Z</time></trkpt><trkpt lat="44.468649782163794" lon="9.730975061437956"><ele>439.6666666666667</ele><time>2026-04-19T08:27:36Z</time></trkpt><trkpt lat="44.46873950353561" lon="9.73074411863456"><ele>439.0</ele><time>2026-04-19T08:27:37Z</time></trkpt><trkpt lat="44.468794440241155" lon="9.730536006959552"><ele>438.33333333333337</ele><time>2026-04-19T08:27:38Z</time></trkpt><trkpt lat="44.4689090851591" lon="9.730385915032777"><ele>437.66666666666663</ele><time>2026-04-19T08:27:39Z</time></trkpt><trkpt lat="44.46904812609906" lon="9.730287772859226"><ele>437.0</ele><time>2026-04-19T08:27:40Z</time></trkpt><trkpt lat="44.46922655786375" lon="9.730215164549737"><ele>437.66666666666663</ele><time>2026-04-19T08:27:41Z</time></trkpt><trkpt lat="44.469428566053814" lon="9.73015719537323"><ele>438.33333333333337</ele><time>2026-04-19T08:27:42Z</time></trkpt><trkpt lat="44.46963051982016" lon="9.73008274275903"><ele>439.0</ele><time>2026-04-19T08:27:43Z</time></trkpt><trkpt lat="44.4698301624143" lon="9.730006428462652"><ele>439.0</ele><time>2026-04-19T08:27:44Z</time></trkpt><trkpt lat="44.47002216786244" lon="9.729895977770532"><ele>439.0</ele><time>2026-04-19T08:27:45Z</time></trkpt><trkpt lat="44.47019174309751" lon="9.72980031460501"><ele>439.0</ele><time>2026-04-19T08:27:46Z</time></trkpt><trkpt lat="44.4703535811436" lon="9.729707849588479"><ele>439.33333333333337</ele><time>2026-04-19T08:27:47Z</time></trkpt><trkpt lat="44.47048944648914" lon="9.729599006370808"><ele>439.66666666666663</ele><time>2026-04-19T08:27:48Z</time></trkpt><trkpt lat="44.4706119276912" lon="9.72944281128542"><ele>440.0</ele><time>2026-04-19T08:27:48.999Z</time></trkpt><trkpt lat="44.4707167286969" lon="9.729254217273693"><ele>440.0</ele><time>2026-04-19T08:27:49.999Z</time></trkpt><trkpt lat="44.47083301841564" lon="9.729031181627127"><ele>440.0</ele><time>2026-04-19T08:27:50.999Z</time></trkpt><trkpt lat="44.470957561671796" lon="9.728826735036659"><ele>440.0</ele><time>2026-04-19T08:27:51.999Z</time></trkpt><trkpt lat="44.471079578992466" lon="9.728627919286907"><ele>442.3333333333333</ele><time>2026-04-19T08:27:52.999Z</time></trkpt><trkpt lat="44.47116793168447" lon="9.728427826525724"><ele>444.66666666666663</ele><time>2026-04-19T08:27:53.999Z</time></trkpt><trkpt lat="44.47121154286018" lon="9.728213118299944"><ele>447.0</ele><time>2026-04-19T08:27:54.999Z</time></trkpt><trkpt lat="44.471181317872706" lon="9.727984220747823"><ele>447.0</ele><time>2026-04-19T08:27:55.999Z</time></trkpt><trkpt lat="44.47111632364673" lon="9.727762298692069"><ele>447.0</ele><time>2026-04-19T08:27:56.999Z</time></trkpt><trkpt lat="44.47100244372946" lon="9.727565033237706"><ele>447.0</ele><time>2026-04-19T08:27:57.999Z</time></trkpt><trkpt lat="44.470865151210376" lon="9.727361942830193"><ele>444.66666666666663</ele><time>2026-04-19T08:27:58.999Z</time></trkpt><trkpt lat="44.47075271832174" lon="9.727155498898476"><ele>442.3333333333333</ele><time>2026-04-19T08:27:59.999Z</time></trkpt><trkpt lat="44.47065599191356" lon="9.726925475887299"><ele>440.0</ele><time>2026-04-19T08:28:00.999Z</time></trkpt><trkpt lat="44.47056453832772" lon="9.726697872177468"><ele>441.0</ele><time>2026-04-19T08:28:01.999Z</time></trkpt><trkpt lat="44.47046917768678" lon="9.72645135989505"><ele>442.0</ele><time>2026-04-19T08:28:02.999Z</time></trkpt><trkpt lat="44.470378901225985" lon="9.726186813995476"><ele>443.0</ele><time>2026-04-19T08:28:03.999Z</time></trkpt><trkpt lat="44.470299290897145" lon="9.725914629245667"><ele>440.3333333333333</ele><time>2026-04-19T08:28:04.999Z</time></trkpt><trkpt lat="44.47022155626391" lon="9.725628194463718"><ele>437.66666666666663</ele><time>2026-04-19T08:28:05.999Z</time></trkpt><trkpt lat="44.470153169360046" lon="9.725348174558773"><ele>435.0</ele><time>2026-04-19T08:28:06.999Z</time></trkpt><trkpt lat="44.470087446534144" lon="9.725073051211965"><ele>433.66666666666663</ele><time>2026-04-19T08:28:07.999Z</time></trkpt><trkpt lat="44.470017237648804" lon="9.724798340545474"><ele>432.3333333333333</ele><time>2026-04-19T08:28:08.999Z</time></trkpt><trkpt lat="44.469960155421695" lon="9.724542900261577"><ele>431.0</ele><time>2026-04-19T08:28:09.999Z</time></trkpt><trkpt lat="44.46991457424797" lon="9.7242881719508"><ele>431.0</ele><time>2026-04-19T08:28:10.999Z</time></trkpt><trkpt lat="44.46992422764392" lon="9.724034767625863"><ele>431.0</ele><time>2026-04-19T08:28:11.999Z</time></trkpt><trkpt lat="44.469958640568066" lon="9.723776480624705"><ele>431.0</ele><time>2026-04-19T08:28:12.999Z</time></trkpt><trkpt lat="44.470032510523374" lon="9.723523058287848"><ele>431.66666666666663</ele><time>2026-04-19T08:28:13.999Z</time></trkpt><trkpt lat="44.470149034946736" lon="9.723286011337409"><ele>432.33333333333337</ele><time>2026-04-19T08:28:14.999Z</time></trkpt><trkpt lat="44.470285754112936" lon="9.723063383983842"><ele>433.0</ele><time>2026-04-19T08:28:15.999Z</time></trkpt><trkpt lat="44.47042043023451" lon="9.722816337933608"><ele>433.0</ele><time>2026-04-19T08:28:16.999Z</time></trkpt><trkpt lat="44.47057056720706" lon="9.722584416374612"><ele>433.0</ele><time>2026-04-19T08:28:17.999Z</time></trkpt><trkpt lat="44.47071311805468" lon="9.722350789175618"><ele>433.0</ele><time>2026-04-19T08:28:18.999Z</time></trkpt><trkpt lat="44.47085596149661" lon="9.722117639454995"><ele>433.0</ele><time>2026-04-19T08:28:19.999Z</time></trkpt><trkpt lat="44.47099392815701" lon="9.721886341503359"><ele>433.0</ele><time>2026-04-19T08:28:20.999Z</time></trkpt><trkpt lat="44.471134681345156" lon="9.721654295702434"><ele>433.0</ele><time>2026-04-19T08:28:21.999Z</time></trkpt><trkpt lat="44.471277014292745" lon="9.721421077836526"><ele>432.0</ele><time>2026-04-19T08:28:22.999Z</time></trkpt><trkpt lat="44.471420450318526" lon="9.721183632264083"><ele>431.0</ele><time>2026-04-19T08:28:23.999Z</time></trkpt><trkpt lat="44.47156559623312" lon="9.720942377550982"><ele>430.0</ele><time>2026-04-19T08:28:24.999Z</time></trkpt><trkpt lat="44.471714760619825" lon="9.720698112446554"><ele>429.5</ele><time>2026-04-19T08:28:25.999Z</time></trkpt><trkpt lat="44.47186469215065" lon="9.720451504067185"><ele>429.0</ele><time>2026-04-19T08:28:26.999Z</time></trkpt><trkpt lat="44.472013331357715" lon="9.720206707034428"><ele>429.33333333333337</ele><time>2026-04-19T08:28:27.999Z</time></trkpt><trkpt lat="44.472159863487576" lon="9.719973427315448"><ele>429.6666666666667</ele><time>2026-04-19T08:28:28.999Z</time></trkpt><trkpt lat="44.4723037616272" lon="9.719743199970786"><ele>430.0</ele><time>2026-04-19T08:28:29.999Z</time></trkpt><trkpt lat="44.47245972630296" lon="9.719497700641208"><ele>432.0</ele><time>2026-04-19T08:28:30.999Z</time></trkpt><trkpt lat="44.47262644896266" lon="9.719259739561629"><ele>434.0</ele><time>2026-04-19T08:28:31.999Z</time></trkpt><trkpt lat="44.4728002071584" lon="9.719026084602643"><ele>431.5</ele><time>2026-04-19T08:28:32.999Z</time></trkpt><trkpt lat="44.47297614376605" lon="9.718807979807787"><ele>429.0</ele><time>2026-04-19T08:28:33.999Z</time></trkpt><trkpt lat="44.47315264123941" lon="9.71859070517717"><ele>430.33333333333337</ele><time>2026-04-19T08:28:34.999Z</time></trkpt><trkpt lat="44.473305465561374" lon="9.71838221439153"><ele>431.6666666666667</ele><time>2026-04-19T08:28:35.999Z</time></trkpt><trkpt lat="44.47344050886301" lon="9.718148194179097"><ele>433.0</ele><time>2026-04-19T08:28:36.999Z</time></trkpt><trkpt lat="44.473551927270286" lon="9.717880091047444"><ele>434.5</ele><time>2026-04-19T08:28:37.999Z</time></trkpt><trkpt lat="44.473651021319014" lon="9.717575621987091"><ele>436.0</ele><time>2026-04-19T08:28:38.999Z</time></trkpt><trkpt lat="44.47373499700797" lon="9.717274177847498"><ele>434.0</ele><time>2026-04-19T08:28:39.999Z</time></trkpt><trkpt lat="44.47381397873971" lon="9.716965242873068"><ele>432.0</ele><time>2026-04-19T08:28:40.999Z</time></trkpt><trkpt lat="44.473887549372456" lon="9.716667226705002"><ele>432.0</ele><time>2026-04-19T08:28:41.999Z</time></trkpt><trkpt lat="44.473968084515704" lon="9.716364917075838"><ele>432.0</ele><time>2026-04-19T08:28:42.999Z</time></trkpt><trkpt lat="44.47405498721639" lon="9.716072450831046"><ele>433.0</ele><time>2026-04-19T08:28:43.999Z</time></trkpt><trkpt lat="44.47417417786246" lon="9.715815762156625"><ele>434.0</ele><time>2026-04-19T08:28:44.999Z</time></trkpt><trkpt lat="44.47428027108204" lon="9.715538960067828"><ele>435.0</ele><time>2026-04-19T08:28:45.999Z</time></trkpt><trkpt lat="44.47442000166803" lon="9.715290134097211"><ele>434.0</ele><time>2026-04-19T08:28:46.999Z</time></trkpt><trkpt lat="44.47456901404677" lon="9.715036657205005"><ele>433.0</ele><time>2026-04-19T08:28:47.999Z</time></trkpt><trkpt lat="44.47471071060695" lon="9.714807302796839"><ele>433.0</ele><time>2026-04-19T08:28:48.999Z</time></trkpt><trkpt lat="44.47485120818751" lon="9.714578376953478"><ele>433.0</ele><time>2026-04-19T08:28:49.999Z</time></trkpt><trkpt lat="44.47499403943373" lon="9.714353824781737"><ele>433.0</ele><time>2026-04-19T08:28:50.999Z</time></trkpt><trkpt lat="44.47513606642093" lon="9.714124737893899"><ele>433.33333333333337</ele><time>2026-04-19T08:28:51.999Z</time></trkpt><trkpt lat="44.475277981602204" lon="9.713890603928586"><ele>433.66666666666663</ele><time>2026-04-19T08:28:52.999Z</time></trkpt><trkpt lat="44.475419923863704" lon="9.713661817541825"><ele>434.0</ele><time>2026-04-19T08:28:53.999Z</time></trkpt><trkpt lat="44.47555702732436" lon="9.713445882342416"><ele>434.0</ele><time>2026-04-19T08:28:54.999Z</time></trkpt><trkpt lat="44.475697191593774" lon="9.713226031121847"><ele>434.0</ele><time>2026-04-19T08:28:55.999Z</time></trkpt><trkpt lat="44.47583525908557" lon="9.713014636742981"><ele>434.0</ele><time>2026-04-19T08:28:56.999Z</time></trkpt><trkpt lat="44.4759878750545" lon="9.712801793553597"><ele>434.0</ele><time>2026-04-19T08:28:57.999Z</time></trkpt><trkpt lat="44.47615154266244" lon="9.71260602203146"><ele>434.0</ele><time>2026-04-19T08:28:58.999Z</time></trkpt><trkpt lat="44.47632306425103" lon="9.712427847569861"><ele>434.0</ele><time>2026-04-19T08:28:59.999Z</time></trkpt><trkpt lat="44.47650943746625" lon="9.712283193855846"><ele>434.0</ele><time>2026-04-19T08:29:00.999Z</time></trkpt><trkpt lat="44.47666532166977" lon="9.712116250206838"><ele>434.0</ele><time>2026-04-19T08:29:01.999Z</time></trkpt><trkpt lat="44.47682358625295" lon="9.711980333874074"><ele>434.0</ele><time>2026-04-19T08:29:02.999Z</time></trkpt><trkpt lat="44.47696547937072" lon="9.711862429574428"><ele>434.5</ele><time>2026-04-19T08:29:03.999Z</time></trkpt><trkpt lat="44.47708868920075" lon="9.711756531213496"><ele>435.0</ele><time>2026-04-19T08:29:04.999Z</time></trkpt><trkpt lat="44.477187042970506" lon="9.711667638214717"><ele>435.5</ele><time>2026-04-19T08:29:05.999Z</time></trkpt><trkpt lat="44.477271786528775" lon="9.711592032366745"><ele>436.0</ele><time>2026-04-19T08:29:06.999Z</time></trkpt><trkpt lat="44.47735675699746" lon="9.71155244718179"><ele>436.00000000000006</ele><time>2026-04-19T08:29:07.999Z</time></trkpt><trkpt lat="44.477420452830614" lon="9.711507954276094"><ele>436.0</ele><time>2026-04-19T08:29:08.999Z</time></trkpt><trkpt lat="44.4774740969772" lon="9.711447814581879"><ele>436.0</ele><time>2026-04-19T08:29:09.999Z</time></trkpt><trkpt lat="44.47756025450373" lon="9.711429584747005"><ele>436.0</ele><time>2026-04-19T08:29:10.999Z</time></trkpt><trkpt lat="44.47764377538532" lon="9.711425102970338"><ele>436.00000000000006</ele><time>2026-04-19T08:29:11.999Z</time></trkpt><trkpt lat="44.47772275931038" lon="9.711438280787473"><ele>436.0</ele><time>2026-04-19T08:29:12.999Z</time></trkpt><trkpt lat="44.47780716664058" lon="9.711427458481364"><ele>436.0</ele><time>2026-04-19T08:29:13.999Z</time></trkpt><trkpt lat="44.477857254457575" lon="9.711364279155159"><ele>436.0</ele><time>2026-04-19T08:29:14.999Z</time></trkpt><trkpt lat="44.47786155139196" lon="9.711262296525017"><ele>436.0</ele><time>2026-04-19T08:29:15.999Z</time></trkpt><trkpt lat="44.47782938971739" lon="9.7111430365336"><ele>436.0</ele><time>2026-04-19T08:29:16.999Z</time></trkpt><trkpt lat="44.47775784796085" lon="9.711016079532104"><ele>436.0</ele><time>2026-04-19T08:29:17.999Z</time></trkpt><trkpt lat="44.47767389430592" lon="9.710887547993556"><ele>437.25</ele><time>2026-04-19T08:29:18.999Z</time></trkpt><trkpt lat="44.47759266649127" lon="9.710792170898301"><ele>438.5</ele><time>2026-04-19T08:29:19.999Z</time></trkpt><trkpt lat="44.477478421792256" lon="9.710777419858472"><ele>439.75</ele><time>2026-04-19T08:29:20.999Z</time></trkpt><trkpt lat="44.47734872681912" lon="9.710814749666941"><ele>441.0</ele><time>2026-04-19T08:29:21.999Z</time></trkpt><trkpt lat="44.47722460296081" lon="9.710914685235078"><ele>440.75</ele><time>2026-04-19T08:29:22.999Z</time></trkpt><trkpt lat="44.47710160994429" lon="9.711040241069545"><ele>440.5</ele><time>2026-04-19T08:29:23.999Z</time></trkpt><trkpt lat="44.476964545316804" lon="9.71111076324118"><ele>440.25</ele><time>2026-04-19T08:29:24.999Z</time></trkpt><trkpt lat="44.47681460248345" lon="9.711134482797592"><ele>440.0</ele><time>2026-04-19T08:29:25.999Z</time></trkpt><trkpt lat="44.47664242745057" lon="9.711137039158372"><ele>440.0</ele><time>2026-04-19T08:29:26.999Z</time></trkpt><trkpt lat="44.47646812931525" lon="9.711160467589329"><ele>440.0</ele><time>2026-04-19T08:29:27.999Z</time></trkpt><trkpt lat="44.47629138655079" lon="9.711168212477519"><ele>440.0</ele><time>2026-04-19T08:29:28.999Z</time></trkpt><trkpt lat="44.47611098540741" lon="9.711179425664977"><ele>442.0</ele><time>2026-04-19T08:29:29.999Z</time></trkpt><trkpt lat="44.475928585871074" lon="9.711180694310212"><ele>444.0</ele><time>2026-04-19T08:29:30.999Z</time></trkpt><trkpt lat="44.47575014050305" lon="9.71119389275764"><ele>446.0</ele><time>2026-04-19T08:29:31.999Z</time></trkpt><trkpt lat="44.47557394325062" lon="9.711191492284424"><ele>449.25</ele><time>2026-04-19T08:29:32.999Z</time></trkpt><trkpt lat="44.47541111173833" lon="9.711190564268186"><ele>452.5</ele><time>2026-04-19T08:29:33.999Z</time></trkpt><trkpt lat="44.47527779789283" lon="9.711217795341112"><ele>455.75</ele><time>2026-04-19T08:29:34.999Z</time></trkpt><trkpt lat="44.47514073508389" lon="9.711283821504297"><ele>459.0</ele><time>2026-04-19T08:29:35.999Z</time></trkpt><trkpt lat="44.47502544332567" lon="9.71141565839867"><ele>459.0</ele><time>2026-04-19T08:29:36.999Z</time></trkpt><trkpt lat="44.47491839919561" lon="9.711593165700178"><ele>459.0</ele><time>2026-04-19T08:29:37.999Z</time></trkpt><trkpt lat="44.47482597945219" lon="9.711747372055498"><ele>459.0</ele><time>2026-04-19T08:29:38.999Z</time></trkpt><trkpt lat="44.474748540719" lon="9.711824731450694"><ele>459.0</ele><time>2026-04-19T08:29:39.999Z</time></trkpt><trkpt lat="44.47467728297406" lon="9.711818371876204"><ele>459.0</ele><time>2026-04-19T08:29:40.999Z</time></trkpt><trkpt lat="44.47466809523542" lon="9.711560009480674"><ele>459.0</ele><time>2026-04-19T08:29:42.999Z</time></trkpt><trkpt lat="44.474695728317094" lon="9.711417316385266"><ele>459.0</ele><time>2026-04-19T08:29:43.999Z</time></trkpt><trkpt lat="44.47472708756012" lon="9.711236613711321"><ele>459.0</ele><time>2026-04-19T08:29:44.999Z</time></trkpt><trkpt lat="44.47474604891444" lon="9.711031451714828"><ele>460.0</ele><time>2026-04-19T08:29:45.999Z</time></trkpt><trkpt lat="44.47478960260686" lon="9.710812327275198"><ele>461.0</ele><time>2026-04-19T08:29:46.999Z</time></trkpt><trkpt lat="44.47485699523628" lon="9.710565722413323"><ele>462.0</ele><time>2026-04-19T08:29:47.999Z</time></trkpt><trkpt lat="44.47494112297886" lon="9.710371030787174"><ele>464.0</ele><time>2026-04-19T08:29:48.999Z</time></trkpt><trkpt lat="44.47504888563436" lon="9.710140592528262"><ele>466.0</ele><time>2026-04-19T08:29:49.999Z</time></trkpt><trkpt lat="44.47512954307797" lon="9.709961959121298"><ele>468.0</ele><time>2026-04-19T08:29:50.999Z</time></trkpt><trkpt lat="44.47518029586475" lon="9.7097431191958"><ele>468.0</ele><time>2026-04-19T08:29:51.999Z</time></trkpt><trkpt lat="44.47519130672116" lon="9.709493199264104"><ele>468.0</ele><time>2026-04-19T08:29:52.999Z</time></trkpt><trkpt lat="44.47517499893516" lon="9.709220055217086"><ele>468.0</ele><time>2026-04-19T08:29:53.999Z</time></trkpt><trkpt lat="44.47517531139977" lon="9.70894435601272"><ele>469.66666666666663</ele><time>2026-04-19T08:29:54.999Z</time></trkpt><trkpt lat="44.47524270960426" lon="9.708677805968184"><ele>471.3333333333333</ele><time>2026-04-19T08:29:55.999Z</time></trkpt><trkpt lat="44.4753244709843" lon="9.70843039549468"><ele>473.0</ele><time>2026-04-19T08:29:56.999Z</time></trkpt><trkpt lat="44.47542064518805" lon="9.708214824418901"><ele>472.3333333333333</ele><time>2026-04-19T08:29:57.999Z</time></trkpt><trkpt lat="44.47551488988828" lon="9.707994081245317"><ele>471.66666666666663</ele><time>2026-04-19T08:29:58.999Z</time></trkpt><trkpt lat="44.475609259645076" lon="9.707791368194941"><ele>471.0</ele><time>2026-04-19T08:29:59.999Z</time></trkpt><trkpt lat="44.47567737804392" lon="9.707580363727756"><ele>473.0</ele><time>2026-04-19T08:30:00.999Z</time></trkpt><trkpt lat="44.475722839758355" lon="9.707359732368035"><ele>475.0</ele><time>2026-04-19T08:30:01.999Z</time></trkpt><trkpt lat="44.4757462767019" lon="9.707163662418681"><ele>477.0</ele><time>2026-04-19T08:30:02.999Z</time></trkpt><trkpt lat="44.475740012381905" lon="9.707014152635042"><ele>479.0</ele><time>2026-04-19T08:30:03.999Z</time></trkpt><trkpt lat="44.47570924332798" lon="9.706906804057516"><ele>480.0</ele><time>2026-04-19T08:30:04.999Z</time></trkpt><trkpt lat="44.4756332944971" lon="9.706856083108496"><ele>481.0</ele><time>2026-04-19T08:30:05.999Z</time></trkpt><trkpt lat="44.47552958155789" lon="9.706883307343455"><ele>482.0</ele><time>2026-04-19T08:30:06.999Z</time></trkpt><trkpt lat="44.47542405987633" lon="9.70699416693763"><ele>483.0</ele><time>2026-04-19T08:30:07.999Z</time></trkpt><trkpt lat="44.475329021580606" lon="9.707171385350716"><ele>485.33333333333337</ele><time>2026-04-19T08:30:08.999Z</time></trkpt><trkpt lat="44.47524025256701" lon="9.707354363961477"><ele>487.6666666666667</ele><time>2026-04-19T08:30:09.999Z</time></trkpt><trkpt lat="44.47513556903036" lon="9.707521162463163"><ele>490.0</ele><time>2026-04-19T08:30:10.999Z</time></trkpt><trkpt lat="44.47501699631114" lon="9.707708355642724"><ele>487.0</ele><time>2026-04-19T08:30:11.999Z</time></trkpt><trkpt lat="44.47489792875966" lon="9.707877395247765"><ele>484.0</ele><time>2026-04-19T08:30:12.999Z</time></trkpt><trkpt lat="44.47478867054277" lon="9.707990629868812"><ele>481.0</ele><time>2026-04-19T08:30:13.999Z</time></trkpt><trkpt lat="44.47464402090742" lon="9.70806726876962"><ele>484.33333333333337</ele><time>2026-04-19T08:30:14.999Z</time></trkpt><trkpt lat="44.474448092863994" lon="9.708188053680985"><ele>487.66666666666663</ele><time>2026-04-19T08:30:15.999Z</time></trkpt><trkpt lat="44.47424881455209" lon="9.708265100070046"><ele>491.0</ele><time>2026-04-19T08:30:16.999Z</time></trkpt><trkpt lat="44.474056719014875" lon="9.708345632191103"><ele>491.0</ele><time>2026-04-19T08:30:17.999Z</time></trkpt><trkpt lat="44.47387258832592" lon="9.708428466359694"><ele>491.0</ele><time>2026-04-19T08:30:18.999Z</time></trkpt><trkpt lat="44.47370933178002" lon="9.708503377719095"><ele>491.0</ele><time>2026-04-19T08:30:19.999Z</time></trkpt><trkpt lat="44.4735726326948" lon="9.70862461569969"><ele>492.66666666666663</ele><time>2026-04-19T08:30:20.999Z</time></trkpt><trkpt lat="44.47347972970371" lon="9.7088181150247"><ele>494.33333333333337</ele><time>2026-04-19T08:30:21.999Z</time></trkpt><trkpt lat="44.473424392454255" lon="9.709032928822666"><ele>496.0</ele><time>2026-04-19T08:30:22.999Z</time></trkpt><trkpt lat="44.47333600463376" lon="9.70922765520398"><ele>496.0</ele><time>2026-04-19T08:30:23.999Z</time></trkpt><trkpt lat="44.47323309724951" lon="9.709388660504857"><ele>496.0</ele><time>2026-04-19T08:30:24.999Z</time></trkpt><trkpt lat="44.473144229892014" lon="9.709527109206155"><ele>496.0</ele><time>2026-04-19T08:30:25.999Z</time></trkpt><trkpt lat="44.473069185602775" lon="9.709627535455969"><ele>496.0</ele><time>2026-04-19T08:30:26.999Z</time></trkpt><trkpt lat="44.472986976934656" lon="9.709636453225928"><ele>499.5</ele><time>2026-04-19T08:30:27.999Z</time></trkpt><trkpt lat="44.47290130277231" lon="9.70960099357531"><ele>503.0</ele><time>2026-04-19T08:30:28.999Z</time></trkpt><trkpt lat="44.47285262563733" lon="9.709440254648037"><ele>506.5</ele><time>2026-04-19T08:30:29.999Z</time></trkpt><trkpt lat="44.47288240002289" lon="9.709241647251256"><ele>510.0</ele><time>2026-04-19T08:30:30.999Z</time></trkpt><trkpt lat="44.472896557428236" lon="9.709018621975634"><ele>510.0</ele><time>2026-04-19T08:30:31.999Z</time></trkpt><trkpt lat="44.47293214800305" lon="9.708788749077403"><ele>510.0</ele><time>2026-04-19T08:30:32.999Z</time></trkpt><trkpt lat="44.47295044261827" lon="9.708539277153019"><ele>510.0</ele><time>2026-04-19T08:30:33.999Z</time></trkpt><trkpt lat="44.47296296964362" lon="9.708281115964752"><ele>508.0</ele><time>2026-04-19T08:30:34.999Z</time></trkpt><trkpt lat="44.47297835711889" lon="9.708021816262274"><ele>506.0</ele><time>2026-04-19T08:30:35.999Z</time></trkpt><trkpt lat="44.47299661786571" lon="9.707788837246758"><ele>504.0</ele><time>2026-04-19T08:30:36.999Z</time></trkpt><trkpt lat="44.4730086601371" lon="9.70759993328784"><ele>504.0</ele><time>2026-04-19T08:30:37.999Z</time></trkpt><trkpt lat="44.47300403959389" lon="9.707431020690674"><ele>504.0</ele><time>2026-04-19T08:30:38.999Z</time></trkpt><trkpt lat="44.47295664141813" lon="9.707311451007847"><ele>504.0</ele><time>2026-04-19T08:30:39.999Z</time></trkpt><trkpt lat="44.472889306420555" lon="9.707236245817397"><ele>504.0</ele><time>2026-04-19T08:30:40.999Z</time></trkpt><trkpt lat="44.47276518819506" lon="9.707305365189283"><ele>504.0</ele><time>2026-04-19T08:30:41.999Z</time></trkpt><trkpt lat="44.47265450427846" lon="9.707420217000926"><ele>506.5</ele><time>2026-04-19T08:30:42.999Z</time></trkpt><trkpt lat="44.4725404948891" lon="9.70751405219153"><ele>509.0</ele><time>2026-04-19T08:30:43.999Z</time></trkpt><trkpt lat="44.47241566925506" lon="9.707612659252508"><ele>511.5</ele><time>2026-04-19T08:30:44.999Z</time></trkpt><trkpt lat="44.472321866096465" lon="9.70776333766081"><ele>514.0</ele><time>2026-04-19T08:30:45.999Z</time></trkpt><trkpt lat="44.4722623287575" lon="9.707979744070604"><ele>514.0</ele><time>2026-04-19T08:30:46.999Z</time></trkpt><trkpt lat="44.47219027710744" lon="9.708153107348762"><ele>514.0</ele><time>2026-04-19T08:30:47.999Z</time></trkpt><trkpt lat="44.472092753200464" lon="9.708307426113008"><ele>514.0</ele><time>2026-04-19T08:30:48.999Z</time></trkpt><trkpt lat="44.471958002565344" lon="9.708422038448912"><ele>514.0</ele><time>2026-04-19T08:30:49.999Z</time></trkpt><trkpt lat="44.47179425034347" lon="9.708521500672136"><ele>517.0</ele><time>2026-04-19T08:30:50.999Z</time></trkpt><trkpt lat="44.47162348784335" lon="9.708634102906148"><ele>520.0</ele><time>2026-04-19T08:30:51.999Z</time></trkpt><trkpt lat="44.47145917863941" lon="9.708737420595362"><ele>523.0</ele><time>2026-04-19T08:30:52.999Z</time></trkpt><trkpt lat="44.47131493400153" lon="9.708803101107808"><ele>525.6666666666667</ele><time>2026-04-19T08:30:53.999Z</time></trkpt><trkpt lat="44.471159928511696" lon="9.708814234643343"><ele>528.3333333333334</ele><time>2026-04-19T08:30:54.999Z</time></trkpt><trkpt lat="44.4709824650078" lon="9.708773229256007"><ele>531.0</ele><time>2026-04-19T08:30:55.999Z</time></trkpt><trkpt lat="44.47078152928232" lon="9.708717517957686"><ele>531.0</ele><time>2026-04-19T08:30:56.999Z</time></trkpt><trkpt lat="44.470583886099035" lon="9.708698654136517"><ele>531.0</ele><time>2026-04-19T08:30:57.999Z</time></trkpt><trkpt lat="44.47038256382083" lon="9.70870658829951"><ele>531.0</ele><time>2026-04-19T08:30:58.999Z</time></trkpt><trkpt lat="44.47017941342941" lon="9.708785028964414"><ele>532.0</ele><time>2026-04-19T08:30:59.999Z</time></trkpt><trkpt lat="44.470010557317906" lon="9.708862579022954"><ele>533.0</ele><time>2026-04-19T08:31:00.999Z</time></trkpt><trkpt lat="44.469869344184765" lon="9.708930168974442"><ele>534.0</ele><time>2026-04-19T08:31:01.999Z</time></trkpt><trkpt lat="44.469741682577784" lon="9.708934650623878"><ele>534.0</ele><time>2026-04-19T08:31:02.999Z</time></trkpt><trkpt lat="44.469620656339686" lon="9.70884699737852"><ele>534.0</ele><time>2026-04-19T08:31:03.999Z</time></trkpt><trkpt lat="44.46948781069472" lon="9.708731397204813"><ele>534.0</ele><time>2026-04-19T08:31:04.999Z</time></trkpt><trkpt lat="44.469323032694604" lon="9.70861394268052"><ele>536.6666666666666</ele><time>2026-04-19T08:31:05.999Z</time></trkpt><trkpt lat="44.469153879462894" lon="9.708472244625817"><ele>539.3333333333333</ele><time>2026-04-19T08:31:06.999Z</time></trkpt><trkpt lat="44.46898650157099" lon="9.708339109292545"><ele>542.0</ele><time>2026-04-19T08:31:07.999Z</time></trkpt><trkpt lat="44.468830803005936" lon="9.708207053337802"><ele>541.75</ele><time>2026-04-19T08:31:08.999Z</time></trkpt><trkpt lat="44.468707273772935" lon="9.708074725240305"><ele>541.5</ele><time>2026-04-19T08:31:09.999Z</time></trkpt><trkpt lat="44.46861620529662" lon="9.707966770515517"><ele>541.25</ele><time>2026-04-19T08:31:10.999Z</time></trkpt><trkpt lat="44.46857009507916" lon="9.707826207252056"><ele>541.0</ele><time>2026-04-19T08:31:11.999Z</time></trkpt><trkpt lat="44.46858802508303" lon="9.707646825545364"><ele>541.0</ele><time>2026-04-19T08:31:12.999Z</time></trkpt><trkpt lat="44.46860558954853" lon="9.707429228244782"><ele>541.0</ele><time>2026-04-19T08:31:13.999Z</time></trkpt><trkpt lat="44.4686202796152" lon="9.70720730077307"><ele>541.0</ele><time>2026-04-19T08:31:14.999Z</time></trkpt><trkpt lat="44.46861313997362" lon="9.706986924138281"><ele>542.5</ele><time>2026-04-19T08:31:16Z</time></trkpt><trkpt lat="44.46861011325504" lon="9.706807871219667"><ele>544.0</ele><time>2026-04-19T08:31:17Z</time></trkpt><trkpt lat="44.46854726771086" lon="9.706639102962644"><ele>545.5</ele><time>2026-04-19T08:31:18Z</time></trkpt><trkpt lat="44.46842484924051" lon="9.706478193281404"><ele>547.0</ele><time>2026-04-19T08:31:19Z</time></trkpt><trkpt lat="44.46827474344421" lon="9.70633411123603"><ele>547.0</ele><time>2026-04-19T08:31:20Z</time></trkpt><trkpt lat="44.468129964830645" lon="9.706178852751997"><ele>547.0</ele><time>2026-04-19T08:31:21Z</time></trkpt><trkpt lat="44.46797974379636" lon="9.706006167492067"><ele>547.0</ele><time>2026-04-19T08:31:22Z</time></trkpt><trkpt lat="44.467847660877275" lon="9.70584606262095"><ele>547.75</ele><time>2026-04-19T08:31:23Z</time></trkpt><trkpt lat="44.467731725723944" lon="9.705697331989526"><ele>548.5</ele><time>2026-04-19T08:31:24Z</time></trkpt><trkpt lat="44.467623671406166" lon="9.70556625407575"><ele>549.25</ele><time>2026-04-19T08:31:25Z</time></trkpt><trkpt lat="44.467507331068056" lon="9.705465468528004"><ele>550.0</ele><time>2026-04-19T08:31:26Z</time></trkpt><trkpt lat="44.46736926762127" lon="9.705458495360734"><ele>550.0</ele><time>2026-04-19T08:31:27Z</time></trkpt><trkpt lat="44.46721744248735" lon="9.705490773647874"><ele>550.0</ele><time>2026-04-19T08:31:28Z</time></trkpt><trkpt lat="44.46707108539336" lon="9.70556709836278"><ele>550.0</ele><time>2026-04-19T08:31:29Z</time></trkpt><trkpt lat="44.466962109595634" lon="9.705652422703242"><ele>550.0</ele><time>2026-04-19T08:31:30Z</time></trkpt><trkpt lat="44.4668794733209" lon="9.7056625758716"><ele>550.5</ele><time>2026-04-19T08:31:31Z</time></trkpt><trkpt lat="44.466737463955965" lon="9.705601378780644"><ele>551.0</ele><time>2026-04-19T08:31:33Z</time></trkpt><trkpt lat="44.46668213601678" lon="9.705482269098463"><ele>551.5</ele><time>2026-04-19T08:31:34Z</time></trkpt><trkpt lat="44.46662057657669" lon="9.705343223412859"><ele>552.0</ele><time>2026-04-19T08:31:35Z</time></trkpt><trkpt lat="44.466575746185484" lon="9.705194176259333"><ele>552.8000000000001</ele><time>2026-04-19T08:31:36Z</time></trkpt><trkpt lat="44.46655093635808" lon="9.705047677132235"><ele>553.6</ele><time>2026-04-19T08:31:37Z</time></trkpt><trkpt lat="44.46656241252888" lon="9.704916472301937"><ele>554.4000000000001</ele><time>2026-04-19T08:31:38Z</time></trkpt><trkpt lat="44.46659364686352" lon="9.704787086049969"><ele>555.2</ele><time>2026-04-19T08:31:39Z</time></trkpt><trkpt lat="44.46662433119779" lon="9.704616670490832"><ele>556.0</ele><time>2026-04-19T08:31:40Z</time></trkpt><trkpt lat="44.466681676600174" lon="9.704478949402478"><ele>557.0</ele><time>2026-04-19T08:31:41Z</time></trkpt><trkpt lat="44.46671761088815" lon="9.704306511122788"><ele>558.0</ele><time>2026-04-19T08:31:42Z</time></trkpt><trkpt lat="44.46672939225971" lon="9.704150048109124"><ele>559.0</ele><time>2026-04-19T08:31:43Z</time></trkpt><trkpt lat="44.466704407075454" lon="9.704020950254392"><ele>560.0</ele><time>2026-04-19T08:31:44Z</time></trkpt><trkpt lat="44.466646697018504" lon="9.703882444166277"><ele>560.0</ele><time>2026-04-19T08:31:45Z</time></trkpt><trkpt lat="44.466523152217874" lon="9.703729685296963"><ele>560.0</ele><time>2026-04-19T08:31:46Z</time></trkpt><trkpt lat="44.466386993386486" lon="9.703540730047415"><ele>560.0</ele><time>2026-04-19T08:31:47Z</time></trkpt><trkpt lat="44.46624547103679" lon="9.703360066406919"><ele>558.6666666666666</ele><time>2026-04-19T08:31:48Z</time></trkpt><trkpt lat="44.466099128849656" lon="9.703171983025763"><ele>557.3333333333334</ele><time>2026-04-19T08:31:49Z</time></trkpt><trkpt lat="44.46593818675251" lon="9.702984264168824"><ele>556.0</ele><time>2026-04-19T08:31:50Z</time></trkpt><trkpt lat="44.46577970968585" lon="9.702778913947302"><ele>564.0</ele><time>2026-04-19T08:31:51Z</time></trkpt><trkpt lat="44.46562407360314" lon="9.70255056630839"><ele>572.0</ele><time>2026-04-19T08:31:52Z</time></trkpt><trkpt lat="44.46545865281329" lon="9.702335846327685"><ele>571.6666666666666</ele><time>2026-04-19T08:31:53Z</time></trkpt><trkpt lat="44.46532046075919" lon="9.702155071029647"><ele>571.3333333333334</ele><time>2026-04-19T08:31:54Z</time></trkpt><trkpt lat="44.46518808867154" lon="9.701988750004109"><ele>571.0</ele><time>2026-04-19T08:31:55Z</time></trkpt><trkpt lat="44.465080502798585" lon="9.701825877385291"><ele>571.0</ele><time>2026-04-19T08:31:56Z</time></trkpt><trkpt lat="44.464998407888295" lon="9.701650531417126"><ele>571.0</ele><time>2026-04-19T08:31:57Z</time></trkpt><trkpt lat="44.46494893023539" lon="9.701435188383094"><ele>571.0</ele><time>2026-04-19T08:31:58Z</time></trkpt><trkpt lat="44.46489787431589" lon="9.701185687311048"><ele>574.3333333333334</ele><time>2026-04-19T08:31:59Z</time></trkpt><trkpt lat="44.464849372538225" lon="9.700932107498112"><ele>577.6666666666666</ele><time>2026-04-19T08:32:00Z</time></trkpt><trkpt lat="44.464799858051435" lon="9.700679933977801"><ele>581.0</ele><time>2026-04-19T08:32:01Z</time></trkpt><trkpt lat="44.46473596335644" lon="9.700425164810662"><ele>584.0</ele><time>2026-04-19T08:32:02Z</time></trkpt><trkpt lat="44.4646832527583" lon="9.700176567888116"><ele>587.0</ele><time>2026-04-19T08:32:03Z</time></trkpt><trkpt lat="44.464623217240856" lon="9.6999461507057"><ele>590.0</ele><time>2026-04-19T08:32:04Z</time></trkpt><trkpt lat="44.46457364780293" lon="9.699745829176159"><ele>589.25</ele><time>2026-04-19T08:32:05Z</time></trkpt><trkpt lat="44.46452153719457" lon="9.699574442970542"><ele>588.5</ele><time>2026-04-19T08:32:06Z</time></trkpt><trkpt lat="44.46442819790465" lon="9.69943593990087"><ele>587.75</ele><time>2026-04-19T08:32:07Z</time></trkpt><trkpt lat="44.46427759537151" lon="9.699323964014095"><ele>587.0</ele><time>2026-04-19T08:32:08Z</time></trkpt><trkpt lat="44.464094308524245" lon="9.699246382081354"><ele>587.0</ele><time>2026-04-19T08:32:09Z</time></trkpt><trkpt lat="44.463927534721584" lon="9.699131235090451"><ele>587.0</ele><time>2026-04-19T08:32:10Z</time></trkpt><trkpt lat="44.46379374233449" lon="9.698979171580701"><ele>587.0</ele><time>2026-04-19T08:32:11Z</time></trkpt><trkpt lat="44.46365736613617" lon="9.69883503182856"><ele>584.3333333333333</ele><time>2026-04-19T08:32:12Z</time></trkpt><trkpt lat="44.46350075093706" lon="9.6987600615652"><ele>581.6666666666666</ele><time>2026-04-19T08:32:13Z</time></trkpt><trkpt lat="44.46331955988782" lon="9.698750605126293"><ele>579.0</ele><time>2026-04-19T08:32:14Z</time></trkpt><trkpt lat="44.46315784395247" lon="9.69866394710397"><ele>584.0</ele><time>2026-04-19T08:32:15Z</time></trkpt><trkpt lat="44.46298042721301" lon="9.698577100157054"><ele>589.0</ele><time>2026-04-19T08:32:16Z</time></trkpt><trkpt lat="44.4628067247092" lon="9.698466974336448"><ele>594.0</ele><time>2026-04-19T08:32:17Z</time></trkpt><trkpt lat="44.46262266979409" lon="9.698355261015607"><ele>594.0</ele><time>2026-04-19T08:32:18Z</time></trkpt><trkpt lat="44.46245339078604" lon="9.698263996880437"><ele>594.0</ele><time>2026-04-19T08:32:19Z</time></trkpt><trkpt lat="44.46230872825981" lon="9.698170731431881"><ele>594.0</ele><time>2026-04-19T08:32:20Z</time></trkpt><trkpt lat="44.462194903843404" lon="9.698042851573117"><ele>595.3333333333334</ele><time>2026-04-19T08:32:21Z</time></trkpt><trkpt lat="44.46207318118564" lon="9.697858985399803"><ele>596.6666666666667</ele><time>2026-04-19T08:32:22Z</time></trkpt><trkpt lat="44.46196800280014" lon="9.697696756496494"><ele>598.0</ele><time>2026-04-19T08:32:23Z</time></trkpt><trkpt lat="44.461869345568445" lon="9.697544148169248"><ele>598.0</ele><time>2026-04-19T08:32:24Z</time></trkpt><trkpt lat="44.46180482731635" lon="9.697416986136329"><ele>598.0</ele><time>2026-04-19T08:32:25Z</time></trkpt><trkpt lat="44.46177591947095" lon="9.697273974197154"><ele>598.0</ele><time>2026-04-19T08:32:26Z</time></trkpt><trkpt lat="44.46179480103454" lon="9.697133918678642"><ele>598.0</ele><time>2026-04-19T08:32:27Z</time></trkpt><trkpt lat="44.46191549654192" lon="9.697071082615281"><ele>598.0</ele><time>2026-04-19T08:32:28Z</time></trkpt><trkpt lat="44.46205554306017" lon="9.696965667234325"><ele>601.6666666666667</ele><time>2026-04-19T08:32:29Z</time></trkpt><trkpt lat="44.46221100037972" lon="9.6968645692801"><ele>605.3333333333334</ele><time>2026-04-19T08:32:30Z</time></trkpt><trkpt lat="44.46236479388253" lon="9.696740451512435"><ele>609.0</ele><time>2026-04-19T08:32:31Z</time></trkpt><trkpt lat="44.46251136063405" lon="9.69658726047061"><ele>609.0</ele><time>2026-04-19T08:32:32Z</time></trkpt><trkpt lat="44.462659474146896" lon="9.696393155498427"><ele>609.0</ele><time>2026-04-19T08:32:33Z</time></trkpt><trkpt lat="44.46279421198831" lon="9.69619769952161"><ele>609.0</ele><time>2026-04-19T08:32:34Z</time></trkpt><trkpt lat="44.462898546973854" lon="9.69598448367136"><ele>606.0</ele><time>2026-04-19T08:32:35Z</time></trkpt><trkpt lat="44.46293722895426" lon="9.695718291612074"><ele>603.0</ele><time>2026-04-19T08:32:36Z</time></trkpt><trkpt lat="44.462938909300476" lon="9.695427796320834"><ele>600.0</ele><time>2026-04-19T08:32:37Z</time></trkpt><trkpt lat="44.46291048751369" lon="9.69512568476334"><ele>600.0</ele><time>2026-04-19T08:32:38Z</time></trkpt><trkpt lat="44.4629119916812" lon="9.694836500012453"><ele>600.0</ele><time>2026-04-19T08:32:39Z</time></trkpt><trkpt lat="44.462885152008596" lon="9.694584748600784"><ele>600.0</ele><time>2026-04-19T08:32:40Z</time></trkpt><trkpt lat="44.46287874428562" lon="9.694357023425354"><ele>601.75</ele><time>2026-04-19T08:32:41Z</time></trkpt><trkpt lat="44.462863899729044" lon="9.694146051908177"><ele>603.5</ele><time>2026-04-19T08:32:42Z</time></trkpt><trkpt lat="44.46281535126012" lon="9.693955786160105"><ele>605.25</ele><time>2026-04-19T08:32:43Z</time></trkpt><trkpt lat="44.4627546417147" lon="9.693786356349694"><ele>607.0</ele><time>2026-04-19T08:32:44Z</time></trkpt><trkpt lat="44.462602197570405" lon="9.69368276516551"><ele>609.6666666666667</ele><time>2026-04-19T08:32:45Z</time></trkpt><trkpt lat="44.46245529645175" lon="9.693574721959113"><ele>612.3333333333334</ele><time>2026-04-19T08:32:46Z</time></trkpt><trkpt lat="44.46232464446777" lon="9.693425575580681"><ele>615.0</ele><time>2026-04-19T08:32:47Z</time></trkpt><trkpt lat="44.46220320464874" lon="9.69327537965715"><ele>614.6666666666666</ele><time>2026-04-19T08:32:48Z</time></trkpt><trkpt lat="44.46208204181902" lon="9.693086645588249"><ele>614.3333333333333</ele><time>2026-04-19T08:32:49Z</time></trkpt><trkpt lat="44.46195652483156" lon="9.692887702194131"><ele>614.0</ele><time>2026-04-19T08:32:50Z</time></trkpt><trkpt lat="44.46182750700866" lon="9.692707327534078"><ele>614.0</ele><time>2026-04-19T08:32:51Z</time></trkpt><trkpt lat="44.46173793868201" lon="9.692484048054443"><ele>614.0</ele><time>2026-04-19T08:32:52Z</time></trkpt><trkpt lat="44.46163458291223" lon="9.692246292304269"><ele>614.0</ele><time>2026-04-19T08:32:53Z</time></trkpt><trkpt lat="44.461535901254194" lon="9.69201277767631"><ele>613.6666666666666</ele><time>2026-04-19T08:32:54Z</time></trkpt><trkpt lat="44.461423320358556" lon="9.691814902235157"><ele>613.3333333333334</ele><time>2026-04-19T08:32:55Z</time></trkpt><trkpt lat="44.46127521747898" lon="9.691638085829663"><ele>613.0</ele><time>2026-04-19T08:32:56Z</time></trkpt><trkpt lat="44.461109925961225" lon="9.691499114761804"><ele>613.0</ele><time>2026-04-19T08:32:57Z</time></trkpt><trkpt lat="44.460969679965615" lon="9.691348810477198"><ele>613.0</ele><time>2026-04-19T08:32:58Z</time></trkpt><trkpt lat="44.46084413293129" lon="9.691180575705168"><ele>613.0</ele><time>2026-04-19T08:32:59Z</time></trkpt><trkpt lat="44.46073125844063" lon="9.690971287268745"><ele>612.3333333333334</ele><time>2026-04-19T08:33:00Z</time></trkpt><trkpt lat="44.46061379975606" lon="9.690778344609972"><ele>611.6666666666666</ele><time>2026-04-19T08:33:01Z</time></trkpt><trkpt lat="44.46051623939089" lon="9.690586180659588"><ele>611.0</ele><time>2026-04-19T08:33:02Z</time></trkpt><trkpt lat="44.460423536820585" lon="9.690400470077812"><ele>612.6666666666666</ele><time>2026-04-19T08:33:02.999Z</time></trkpt><trkpt lat="44.46036310529441" lon="9.69017259888438"><ele>614.3333333333334</ele><time>2026-04-19T08:33:03.999Z</time></trkpt><trkpt lat="44.460335878109355" lon="9.689901965537912"><ele>616.0</ele><time>2026-04-19T08:33:04.999Z</time></trkpt><trkpt lat="44.46031266784814" lon="9.689607465594367"><ele>617.6666666666667</ele><time>2026-04-19T08:33:06Z</time></trkpt><trkpt lat="44.4602800951376" lon="9.689336840836813"><ele>619.3333333333334</ele><time>2026-04-19T08:33:07Z</time></trkpt><trkpt lat="44.460219370960374" lon="9.68908499091251"><ele>621.0</ele><time>2026-04-19T08:33:08Z</time></trkpt><trkpt lat="44.460142591123635" lon="9.688839571109286"><ele>622.6666666666666</ele><time>2026-04-19T08:33:09Z</time></trkpt><trkpt lat="44.46006118181745" lon="9.688592144354363"><ele>624.3333333333333</ele><time>2026-04-19T08:33:10Z</time></trkpt><trkpt lat="44.45997398308724" lon="9.68834690463164"><ele>626.0</ele><time>2026-04-19T08:33:11Z</time></trkpt><trkpt lat="44.45986310440928" lon="9.688118946079182"><ele>626.0</ele><time>2026-04-19T08:33:12Z</time></trkpt><trkpt lat="44.45971816281739" lon="9.687915229921785"><ele>626.0</ele><time>2026-04-19T08:33:13Z</time></trkpt><trkpt lat="44.45956425522516" lon="9.687734719128724"><ele>626.0</ele><time>2026-04-19T08:33:14Z</time></trkpt><trkpt lat="44.45940119167128" lon="9.687576748403506"><ele>627.0</ele><time>2026-04-19T08:33:15Z</time></trkpt><trkpt lat="44.45924050154177" lon="9.687464916681884"><ele>628.0</ele><time>2026-04-19T08:33:16Z</time></trkpt><trkpt lat="44.45908625151348" lon="9.687390688794272"><ele>629.0</ele><time>2026-04-19T08:33:16.999Z</time></trkpt><trkpt lat="44.45894134923876" lon="9.687330165520924"><ele>629.0</ele><time>2026-04-19T08:33:17.999Z</time></trkpt><trkpt lat="44.458817336901255" lon="9.68724785560267"><ele>629.0</ele><time>2026-04-19T08:33:18.999Z</time></trkpt><trkpt lat="44.458752802832485" lon="9.68708408173176"><ele>629.0</ele><time>2026-04-19T08:33:19.999Z</time></trkpt><trkpt lat="44.458704037658656" lon="9.686874210318857"><ele>629.0</ele><time>2026-04-19T08:33:20.999Z</time></trkpt><trkpt lat="44.45866642770743" lon="9.68663685536357"><ele>629.3333333333333</ele><time>2026-04-19T08:33:21.999Z</time></trkpt><trkpt lat="44.458629254650425" lon="9.68638532019421"><ele>629.6666666666666</ele><time>2026-04-19T08:33:22.999Z</time></trkpt><trkpt lat="44.458605462408975" lon="9.686114429012225"><ele>630.0</ele><time>2026-04-19T08:33:23.999Z</time></trkpt><trkpt lat="44.45859844012124" lon="9.685841787063218"><ele>630.0</ele><time>2026-04-19T08:33:24.999Z</time></trkpt><trkpt lat="44.45858833398328" lon="9.685594622565032"><ele>630.0</ele><time>2026-04-19T08:33:25.999Z</time></trkpt><trkpt lat="44.45854604768126" lon="9.685347162446085"><ele>630.0</ele><time>2026-04-19T08:33:26.999Z</time></trkpt><trkpt lat="44.45848597833569" lon="9.685087347670278"><ele>631.0</ele><time>2026-04-19T08:33:27.999Z</time></trkpt><trkpt lat="44.458422945345646" lon="9.684822325989215"><ele>632.0</ele><time>2026-04-19T08:33:28.999Z</time></trkpt><trkpt lat="44.45836777540032" lon="9.684576185048895"><ele>633.0</ele><time>2026-04-19T08:33:29.999Z</time></trkpt><trkpt lat="44.45831898916883" lon="9.684368332213305"><ele>634.5</ele><time>2026-04-19T08:33:30.999Z</time></trkpt><trkpt lat="44.4582643083287" lon="9.684170841214408"><ele>636.0</ele><time>2026-04-19T08:33:31.999Z</time></trkpt><trkpt lat="44.45825428667804" lon="9.683986346046202"><ele>637.5</ele><time>2026-04-19T08:33:32.999Z</time></trkpt><trkpt lat="44.45828559527306" lon="9.683821688901414"><ele>639.0</ele><time>2026-04-19T08:33:33.999Z</time></trkpt><trkpt lat="44.45838222413866" lon="9.68367310641359"><ele>641.3333333333334</ele><time>2026-04-19T08:33:34.999Z</time></trkpt><trkpt lat="44.45850911601628" lon="9.683519313717573"><ele>643.6666666666667</ele><time>2026-04-19T08:33:35.999Z</time></trkpt><trkpt lat="44.45864016034715" lon="9.683358359785442"><ele>646.0</ele><time>2026-04-19T08:33:36.999Z</time></trkpt><trkpt lat="44.45872136806821" lon="9.683245528550884"><ele>646.0</ele><time>2026-04-19T08:33:37.999Z</time></trkpt><trkpt lat="44.45876923047556" lon="9.683104256030305"><ele>646.0</ele><time>2026-04-19T08:33:38.999Z</time></trkpt><trkpt lat="44.45877057883178" lon="9.682940052612766"><ele>646.0</ele><time>2026-04-19T08:33:39.999Z</time></trkpt><trkpt lat="44.458712987859236" lon="9.682790287822383"><ele>646.0</ele><time>2026-04-19T08:33:40.999Z</time></trkpt><trkpt lat="44.458589838289086" lon="9.682689240201482"><ele>649.6666666666667</ele><time>2026-04-19T08:33:41.999Z</time></trkpt><trkpt lat="44.458416583965544" lon="9.682638649556955"><ele>653.3333333333334</ele><time>2026-04-19T08:33:42.999Z</time></trkpt><trkpt lat="44.45825938300956" lon="9.682564403237333"><ele>657.0</ele><time>2026-04-19T08:33:43.999Z</time></trkpt><trkpt lat="44.45809853273545" lon="9.682502261942519"><ele>658.3333333333334</ele><time>2026-04-19T08:33:44.999Z</time></trkpt><trkpt lat="44.45794847281788" lon="9.682452098046987"><ele>659.6666666666667</ele><time>2026-04-19T08:33:45.999Z</time></trkpt><trkpt lat="44.45775533077416" lon="9.682451812778483"><ele>661.0</ele><time>2026-04-19T08:33:46.999Z</time></trkpt><trkpt lat="44.45758226584777" lon="9.682495746797676"><ele>661.0</ele><time>2026-04-19T08:33:47.999Z</time></trkpt><trkpt lat="44.45743868983328" lon="9.682580808895885"><ele>661.0</ele><time>2026-04-19T08:33:48.999Z</time></trkpt><trkpt lat="44.45731871768329" lon="9.682655863925495"><ele>661.0</ele><time>2026-04-19T08:33:49.999Z</time></trkpt><trkpt lat="44.45723327442677" lon="9.682691650878409"><ele>661.0</ele><time>2026-04-19T08:33:50.999Z</time></trkpt><trkpt lat="44.45712344419116" lon="9.682668879808102"><ele>659.6666666666667</ele><time>2026-04-19T08:33:51.999Z</time></trkpt><trkpt lat="44.457020124056186" lon="9.682525081708985"><ele>658.3333333333334</ele><time>2026-04-19T08:33:52.999Z</time></trkpt><trkpt lat="44.45694035438225" lon="9.682344947327296"><ele>657.0</ele><time>2026-04-19T08:33:53.999Z</time></trkpt><trkpt lat="44.45686321029269" lon="9.68210943239213"><ele>659.6666666666666</ele><time>2026-04-19T08:33:54.999Z</time></trkpt><trkpt lat="44.456789087252595" lon="9.681860147400197"><ele>662.3333333333333</ele><time>2026-04-19T08:33:55.999Z</time></trkpt><trkpt lat="44.456744189496604" lon="9.681594447287392"><ele>665.0</ele><time>2026-04-19T08:33:56.999Z</time></trkpt><trkpt lat="44.4567493010197" lon="9.681346598135939"><ele>666.6666666666666</ele><time>2026-04-19T08:33:57.999Z</time></trkpt><trkpt lat="44.45674649638917" lon="9.681042763563333"><ele>668.3333333333334</ele><time>2026-04-19T08:33:58.999Z</time></trkpt><trkpt lat="44.456754959510896" lon="9.68073797299859"><ele>670.0</ele><time>2026-04-19T08:33:59.999Z</time></trkpt><trkpt lat="44.45673698926705" lon="9.680414171410016"><ele>672.5</ele><time>2026-04-19T08:34:00.999Z</time></trkpt><trkpt lat="44.45669266208058" lon="9.680086965259578"><ele>675.0</ele><time>2026-04-19T08:34:01.999Z</time></trkpt><trkpt lat="44.45663329077819" lon="9.679769222049474"><ele>675.0</ele><time>2026-04-19T08:34:02.999Z</time></trkpt><trkpt lat="44.456568191977" lon="9.67944854856145"><ele>675.0</ele><time>2026-04-19T08:34:03.999Z</time></trkpt><trkpt lat="44.45651290392915" lon="9.679149920668664"><ele>677.3333333333334</ele><time>2026-04-19T08:34:04.999Z</time></trkpt><trkpt lat="44.45646723659702" lon="9.678871150889526"><ele>679.6666666666667</ele><time>2026-04-19T08:34:05.999Z</time></trkpt><trkpt lat="44.45638905682756" lon="9.678608007886334"><ele>682.0</ele><time>2026-04-19T08:34:06.999Z</time></trkpt><trkpt lat="44.456263853812644" lon="9.678355708309967"><ele>682.0</ele><time>2026-04-19T08:34:07.999Z</time></trkpt><trkpt lat="44.456123993728006" lon="9.678109546689798"><ele>682.0</ele><time>2026-04-19T08:34:08.999Z</time></trkpt><trkpt lat="44.45600661125565" lon="9.677888274533666"><ele>682.0</ele><time>2026-04-19T08:34:09.999Z</time></trkpt><trkpt lat="44.455900842800624" lon="9.677669663628489"><ele>684.6666666666667</ele><time>2026-04-19T08:34:10.999Z</time></trkpt><trkpt lat="44.455831690189335" lon="9.677409805037442"><ele>687.3333333333334</ele><time>2026-04-19T08:34:11.999Z</time></trkpt><trkpt lat="44.45576766122832" lon="9.677142627819256"><ele>690.0</ele><time>2026-04-19T08:34:12.999Z</time></trkpt><trkpt lat="44.455697091335786" lon="9.676861861523319"><ele>692.3333333333334</ele><time>2026-04-19T08:34:13.999Z</time></trkpt><trkpt lat="44.45562774649666" lon="9.676588254182887"><ele>694.6666666666667</ele><time>2026-04-19T08:34:14.999Z</time></trkpt><trkpt lat="44.455557851997604" lon="9.676312478122117"><ele>697.0</ele><time>2026-04-19T08:34:15.999Z</time></trkpt><trkpt lat="44.45549047820085" lon="9.676033836512207"><ele>695.3333333333334</ele><time>2026-04-19T08:34:16.999Z</time></trkpt><trkpt lat="44.45543466553202" lon="9.675763602315156"><ele>693.6666666666666</ele><time>2026-04-19T08:34:17.999Z</time></trkpt><trkpt lat="44.45538910148087" lon="9.675537158234803"><ele>692.0</ele><time>2026-04-19T08:34:18.999Z</time></trkpt><trkpt lat="44.45535378282527" lon="9.675331850537072"><ele>693.5</ele><time>2026-04-19T08:34:19.999Z</time></trkpt><trkpt lat="44.45533781071799" lon="9.675158632543528"><ele>695.0</ele><time>2026-04-19T08:34:20.999Z</time></trkpt><trkpt lat="44.455343674853616" lon="9.674981961444994"><ele>696.5</ele><time>2026-04-19T08:34:21.999Z</time></trkpt><trkpt lat="44.45538782253591" lon="9.674788785872346"><ele>698.0</ele><time>2026-04-19T08:34:22.999Z</time></trkpt><trkpt lat="44.455453107539846" lon="9.674554186147244"><ele>701.0</ele><time>2026-04-19T08:34:23.999Z</time></trkpt><trkpt lat="44.455525651740885" lon="9.674297506366363"><ele>704.0</ele><time>2026-04-19T08:34:24.999Z</time></trkpt><trkpt lat="44.45559668487534" lon="9.67404275177671"><ele>707.0</ele><time>2026-04-19T08:34:25.999Z</time></trkpt><trkpt lat="44.455671038904505" lon="9.673786808376187"><ele>704.3333333333333</ele><time>2026-04-19T08:34:26.999Z</time></trkpt><trkpt lat="44.455744303575074" lon="9.673563159594949"><ele>701.6666666666666</ele><time>2026-04-19T08:34:27.999Z</time></trkpt><trkpt lat="44.45582994766326" lon="9.673368268793395"><ele>699.0</ele><time>2026-04-19T08:34:28.999Z</time></trkpt><trkpt lat="44.45594486733386" lon="9.673190772009397"><ele>699.0</ele><time>2026-04-19T08:34:29.999Z</time></trkpt><trkpt lat="44.456097970374074" lon="9.673015507382875"><ele>699.0</ele><time>2026-04-19T08:34:30.999Z</time></trkpt><trkpt lat="44.45627250833594" lon="9.672819852326702"><ele>699.0</ele><time>2026-04-19T08:34:31.999Z</time></trkpt><trkpt lat="44.456446968891775" lon="9.672641632247883"><ele>698.3333333333334</ele><time>2026-04-19T08:34:32.999Z</time></trkpt><trkpt lat="44.45660874594574" lon="9.672478667927836"><ele>697.6666666666667</ele><time>2026-04-19T08:34:33.999Z</time></trkpt><trkpt lat="44.456738211636406" lon="9.672324365704675"><ele>697.0</ele><time>2026-04-19T08:34:34.999Z</time></trkpt><trkpt lat="44.45686447613137" lon="9.672187605117237"><ele>697.0</ele><time>2026-04-19T08:34:35.999Z</time></trkpt><trkpt lat="44.456971248322645" lon="9.672027542217878"><ele>697.0</ele><time>2026-04-19T08:34:36.999Z</time></trkpt><trkpt lat="44.45701254893453" lon="9.67182711758194"><ele>697.0</ele><time>2026-04-19T08:34:37.999Z</time></trkpt><trkpt lat="44.456973636666554" lon="9.67161191459709"><ele>696.75</ele><time>2026-04-19T08:34:38.999Z</time></trkpt><trkpt lat="44.45692992593911" lon="9.67139732954652"><ele>696.5</ele><time>2026-04-19T08:34:39.999Z</time></trkpt><trkpt lat="44.45694317264449" lon="9.671258277934962"><ele>696.25</ele><time>2026-04-19T08:34:40.999Z</time></trkpt><trkpt lat="44.457082252358674" lon="9.671167878801624"><ele>696.0</ele><time>2026-04-19T08:34:41.999Z</time></trkpt><trkpt lat="44.457200218173256" lon="9.671150529694378"><ele>693.0</ele><time>2026-04-19T08:34:42.999Z</time></trkpt><trkpt lat="44.4573514669353" lon="9.67106994820527"><ele>690.0</ele><time>2026-04-19T08:34:43.999Z</time></trkpt><trkpt lat="44.45750654089198" lon="9.670935549566538"><ele>687.0</ele><time>2026-04-19T08:34:44.999Z</time></trkpt><trkpt lat="44.45765414896783" lon="9.670695593254887"><ele>687.0</ele><time>2026-04-19T08:34:45.999Z</time></trkpt><trkpt lat="44.45777257167849" lon="9.670469328942588"><ele>687.0</ele><time>2026-04-19T08:34:46.999Z</time></trkpt><trkpt lat="44.45787294753843" lon="9.67027426034079"><ele>687.0</ele><time>2026-04-19T08:34:47.999Z</time></trkpt><trkpt lat="44.45792151248711" lon="9.67011811067136"><ele>688.25</ele><time>2026-04-19T08:34:48.999Z</time></trkpt><trkpt lat="44.457903012269085" lon="9.669969564709088"><ele>689.5</ele><time>2026-04-19T08:34:49.999Z</time></trkpt><trkpt lat="44.45782090902249" lon="9.669820699576546"><ele>690.75</ele><time>2026-04-19T08:34:50.999Z</time></trkpt><trkpt lat="44.457683977113554" lon="9.669678073004626"><ele>692.0</ele><time>2026-04-19T08:34:51.999Z</time></trkpt><trkpt lat="44.45755518988041" lon="9.669581661431419"><ele>692.0</ele><time>2026-04-19T08:34:52.999Z</time></trkpt><trkpt lat="44.45739000130352" lon="9.66949004411009"><ele>692.0</ele><time>2026-04-19T08:34:53.999Z</time></trkpt><trkpt lat="44.45720538113061" lon="9.669419228850673"><ele>692.0</ele><time>2026-04-19T08:34:54.999Z</time></trkpt><trkpt lat="44.4570112240576" lon="9.669321639900623"><ele>694.3333333333333</ele><time>2026-04-19T08:34:55.999Z</time></trkpt><trkpt lat="44.45683156090984" lon="9.669202134974437"><ele>696.6666666666666</ele><time>2026-04-19T08:34:56.999Z</time></trkpt><trkpt lat="44.45666655272114" lon="9.669080283384531"><ele>699.0</ele><time>2026-04-19T08:34:57.999Z</time></trkpt><trkpt lat="44.45653664388775" lon="9.668939252496333"><ele>699.0</ele><time>2026-04-19T08:34:58.999Z</time></trkpt><trkpt lat="44.456458442587135" lon="9.668767669668817"><ele>699.0</ele><time>2026-04-19T08:34:59.999Z</time></trkpt><trkpt lat="44.45641572730155" lon="9.668504804018648"><ele>699.0</ele><time>2026-04-19T08:35:00.999Z</time></trkpt><trkpt lat="44.45636601659072" lon="9.66823952014792"><ele>700.6666666666666</ele><time>2026-04-19T08:35:01.999Z</time></trkpt><trkpt lat="44.45631239048461" lon="9.66798048091807"><ele>702.3333333333333</ele><time>2026-04-19T08:35:02.999Z</time></trkpt><trkpt lat="44.45621869674237" lon="9.667704045969662"><ele>704.0</ele><time>2026-04-19T08:35:03.999Z</time></trkpt><trkpt lat="44.45611267947446" lon="9.667461849225901"><ele>704.0</ele><time>2026-04-19T08:35:04.999Z</time></trkpt><trkpt lat="44.45603456664371" lon="9.667255490831572"><ele>704.0</ele><time>2026-04-19T08:35:05.999Z</time></trkpt><trkpt lat="44.455988973524185" lon="9.667017422541562"><ele>704.0</ele><time>2026-04-19T08:35:06.999Z</time></trkpt><trkpt lat="44.455978584209014" lon="9.666755875100995"><ele>707.0</ele><time>2026-04-19T08:35:07.999Z</time></trkpt><trkpt lat="44.455982934010564" lon="9.66649386685974"><ele>710.0</ele><time>2026-04-19T08:35:08.999Z</time></trkpt><trkpt lat="44.45595450045523" lon="9.666257831936706"><ele>713.0</ele><time>2026-04-19T08:35:09.999Z</time></trkpt><trkpt lat="44.45585754021589" lon="9.666037464789715"><ele>716.3333333333333</ele><time>2026-04-19T08:35:10.999Z</time></trkpt><trkpt lat="44.45573891654611" lon="9.665818802281645"><ele>719.6666666666666</ele><time>2026-04-19T08:35:12Z</time></trkpt><trkpt lat="44.45563397435286" lon="9.665633541411244"><ele>723.0</ele><time>2026-04-19T08:35:13Z</time></trkpt><trkpt lat="44.45563344384016" lon="9.66543967450854"><ele>722.4</ele><time>2026-04-19T08:35:14Z</time></trkpt><trkpt lat="44.45564779480337" lon="9.665257581077883"><ele>721.8</ele><time>2026-04-19T08:35:15Z</time></trkpt><trkpt lat="44.45569832526962" lon="9.665114832372444"><ele>721.2</ele><time>2026-04-19T08:35:16Z</time></trkpt><trkpt lat="44.45582930981773" lon="9.665113155990413"><ele>720.6</ele><time>2026-04-19T08:35:17Z</time></trkpt><trkpt lat="44.45589429528543" lon="9.665092885015044"><ele>720.0</ele><time>2026-04-19T08:35:18Z</time></trkpt><trkpt lat="44.45603805418863" lon="9.665059948237019"><ele>720.0</ele><time>2026-04-19T08:35:19Z</time></trkpt><trkpt lat="44.45619069896193" lon="9.665007305185288"><ele>720.0</ele><time>2026-04-19T08:35:20Z</time></trkpt><trkpt lat="44.45634128793895" lon="9.664961149363517"><ele>720.0</ele><time>2026-04-19T08:35:21Z</time></trkpt><trkpt lat="44.456516979432834" lon="9.664918020158884"><ele>725.0</ele><time>2026-04-19T08:35:22Z</time></trkpt><trkpt lat="44.45671312239801" lon="9.664818716702728"><ele>730.0</ele><time>2026-04-19T08:35:23Z</time></trkpt><trkpt lat="44.456871592419134" lon="9.664663882611059"><ele>735.0</ele><time>2026-04-19T08:35:24Z</time></trkpt><trkpt lat="44.45700189338681" lon="9.664468704697795"><ele>732.0</ele><time>2026-04-19T08:35:25Z</time></trkpt><trkpt lat="44.45709667548185" lon="9.664264437132445"><ele>729.0</ele><time>2026-04-19T08:35:26Z</time></trkpt><trkpt lat="44.45713776590898" lon="9.664055059897334"><ele>726.0</ele><time>2026-04-19T08:35:27Z</time></trkpt><trkpt lat="44.45714883754723" lon="9.66377639145787"><ele>723.6666666666666</ele><time>2026-04-19T08:35:28Z</time></trkpt><trkpt lat="44.45712929067713" lon="9.663500256928947"><ele>721.3333333333333</ele><time>2026-04-19T08:35:29Z</time></trkpt><trkpt lat="44.457120397549296" lon="9.663195893966051"><ele>719.0</ele><time>2026-04-19T08:35:30Z</time></trkpt><trkpt lat="44.4571102601547" lon="9.662874404973895"><ele>719.0</ele><time>2026-04-19T08:35:31Z</time></trkpt><trkpt lat="44.45709108245456" lon="9.662556352839834"><ele>719.0</ele><time>2026-04-19T08:35:32Z</time></trkpt><trkpt lat="44.457086522813" lon="9.66223127845824"><ele>720.0</ele><time>2026-04-19T08:35:33Z</time></trkpt><trkpt lat="44.45707880662619" lon="9.661942432234778"><ele>721.0</ele><time>2026-04-19T08:35:34Z</time></trkpt><trkpt lat="44.45707402014782" lon="9.661673650259164"><ele>722.0</ele><time>2026-04-19T08:35:35Z</time></trkpt><trkpt lat="44.45706814085544" lon="9.661420346906416"><ele>722.0</ele><time>2026-04-19T08:35:36Z</time></trkpt><trkpt lat="44.45705940848384" lon="9.661153859770025"><ele>722.0</ele><time>2026-04-19T08:35:37Z</time></trkpt><trkpt lat="44.45705162068138" lon="9.66087040177709"><ele>722.0</ele><time>2026-04-19T08:35:38Z</time></trkpt><trkpt lat="44.457046789285926" lon="9.660563584177034"><ele>721.6666666666666</ele><time>2026-04-19T08:35:39Z</time></trkpt><trkpt lat="44.45704256562997" lon="9.66025901322261"><ele>721.3333333333334</ele><time>2026-04-19T08:35:40Z</time></trkpt><trkpt lat="44.45703500961902" lon="9.65995707578201"><ele>721.0</ele><time>2026-04-19T08:35:41Z</time></trkpt><trkpt lat="44.457028688677234" lon="9.659666929030179"><ele>721.0</ele><time>2026-04-19T08:35:42Z</time></trkpt><trkpt lat="44.457021314887605" lon="9.659362197502965"><ele>721.0</ele><time>2026-04-19T08:35:43Z</time></trkpt><trkpt lat="44.45701165519704" lon="9.659067372125847"><ele>721.0</ele><time>2026-04-19T08:35:44Z</time></trkpt><trkpt lat="44.456993271610244" lon="9.658768340077941"><ele>721.6666666666667</ele><time>2026-04-19T08:35:45Z</time></trkpt><trkpt lat="44.456958668613865" lon="9.658473863283385"><ele>722.3333333333334</ele><time>2026-04-19T08:35:46Z</time></trkpt><trkpt lat="44.45689483238734" lon="9.658191082484917"><ele>723.0</ele><time>2026-04-19T08:35:47Z</time></trkpt><trkpt lat="44.45681948169821" lon="9.657928704732642"><ele>725.0</ele><time>2026-04-19T08:35:48Z</time></trkpt><trkpt lat="44.456750894366785" lon="9.657687375469106"><ele>727.0</ele><time>2026-04-19T08:35:49Z</time></trkpt><trkpt lat="44.456722778439996" lon="9.657438246336248"><ele>729.0</ele><time>2026-04-19T08:35:50Z</time></trkpt><trkpt lat="44.4566398757676" lon="9.65721150641936"><ele>729.0</ele><time>2026-04-19T08:35:51Z</time></trkpt><trkpt lat="44.45653738811886" lon="9.656995920322958"><ele>729.0</ele><time>2026-04-19T08:35:52Z</time></trkpt><trkpt lat="44.45638959341503" lon="9.656796077613183"><ele>729.0</ele><time>2026-04-19T08:35:53Z</time></trkpt><trkpt lat="44.456255721517856" lon="9.656605533492609"><ele>729.0</ele><time>2026-04-19T08:35:54Z</time></trkpt><trkpt lat="44.45614512833392" lon="9.65641793166421"><ele>729.0</ele><time>2026-04-19T08:35:55Z</time></trkpt><trkpt lat="44.45605938647255" lon="9.656230506195941"><ele>729.0</ele><time>2026-04-19T08:35:56Z</time></trkpt><trkpt lat="44.456043981316384" lon="9.656006584636682"><ele>729.0</ele><time>2026-04-19T08:35:57Z</time></trkpt><trkpt lat="44.45603854976559" lon="9.655792071552208"><ele>729.0</ele><time>2026-04-19T08:35:58Z</time></trkpt><trkpt lat="44.45604496004989" lon="9.655549073809548"><ele>729.0</ele><time>2026-04-19T08:35:59Z</time></trkpt><trkpt lat="44.45604373578853" lon="9.65531118064282"><ele>729.6666666666666</ele><time>2026-04-19T08:36:00Z</time></trkpt><trkpt lat="44.45604990500635" lon="9.655066384965036"><ele>730.3333333333333</ele><time>2026-04-19T08:36:00.999Z</time></trkpt><trkpt lat="44.4560541774755" lon="9.654828703714374"><ele>731.0</ele><time>2026-04-19T08:36:01.999Z</time></trkpt><trkpt lat="44.456061402233324" lon="9.654583765060387"><ele>730.6666666666666</ele><time>2026-04-19T08:36:02.999Z</time></trkpt><trkpt lat="44.456068066563596" lon="9.654329512304528"><ele>730.3333333333334</ele><time>2026-04-19T08:36:03.999Z</time></trkpt><trkpt lat="44.456053382654304" lon="9.654071338974337"><ele>730.0</ele><time>2026-04-19T08:36:04.999Z</time></trkpt><trkpt lat="44.455988510410734" lon="9.653804462276971"><ele>732.0</ele><time>2026-04-19T08:36:05.999Z</time></trkpt><trkpt lat="44.45587369493384" lon="9.65354643529102"><ele>734.0</ele><time>2026-04-19T08:36:06.999Z</time></trkpt><trkpt lat="44.455727578020664" lon="9.653296218388627"><ele>736.0</ele><time>2026-04-19T08:36:07.999Z</time></trkpt><trkpt lat="44.45559524140691" lon="9.653061910479895"><ele>736.0</ele><time>2026-04-19T08:36:08.999Z</time></trkpt><trkpt lat="44.455480916455315" lon="9.652839075430581"><ele>736.0</ele><time>2026-04-19T08:36:09.999Z</time></trkpt><trkpt lat="44.45538199531547" lon="9.652618787607414"><ele>736.0</ele><time>2026-04-19T08:36:10.999Z</time></trkpt><trkpt lat="44.45526775740169" lon="9.652402303738052"><ele>736.6666666666667</ele><time>2026-04-19T08:36:11.999Z</time></trkpt><trkpt lat="44.455153747582386" lon="9.652221401244441"><ele>737.3333333333334</ele><time>2026-04-19T08:36:12.999Z</time></trkpt><trkpt lat="44.45500347265454" lon="9.652080391242153"><ele>738.0</ele><time>2026-04-19T08:36:13.999Z</time></trkpt><trkpt lat="44.454811564341895" lon="9.651981512395139"><ele>741.3333333333334</ele><time>2026-04-19T08:36:14.999Z</time></trkpt><trkpt lat="44.45461163856566" lon="9.651951285107893"><ele>744.6666666666667</ele><time>2026-04-19T08:36:15.999Z</time></trkpt><trkpt lat="44.45444837723347" lon="9.65188722444967"><ele>748.0</ele><time>2026-04-19T08:36:16.999Z</time></trkpt><trkpt lat="44.45428292059661" lon="9.651814777131348"><ele>748.0</ele><time>2026-04-19T08:36:17.999Z</time></trkpt><trkpt lat="44.454095723380156" lon="9.651695483760657"><ele>748.0</ele><time>2026-04-19T08:36:18.999Z</time></trkpt><trkpt lat="44.45393333613324" lon="9.651539741291227"><ele>748.0</ele><time>2026-04-19T08:36:19.999Z</time></trkpt><trkpt lat="44.45378123062739" lon="9.651389870405069"><ele>747.3333333333334</ele><time>2026-04-19T08:36:20.999Z</time></trkpt><trkpt lat="44.45362235707015" lon="9.651290614435792"><ele>746.6666666666666</ele><time>2026-04-19T08:36:21.999Z</time></trkpt><trkpt lat="44.45344385718187" lon="9.651200354606406"><ele>746.0</ele><time>2026-04-19T08:36:22.999Z</time></trkpt><trkpt lat="44.453317387946015" lon="9.651087508294413"><ele>750.3333333333333</ele><time>2026-04-19T08:36:23.999Z</time></trkpt><trkpt lat="44.45321743350934" lon="9.650946054286234"><ele>754.6666666666666</ele><time>2026-04-19T08:36:24.999Z</time></trkpt><trkpt lat="44.45314290531043" lon="9.650739506733885"><ele>759.0</ele><time>2026-04-19T08:36:25.999Z</time></trkpt><trkpt lat="44.45306413137306" lon="9.650511521510584"><ele>760.3333333333334</ele><time>2026-04-19T08:36:26.999Z</time></trkpt><trkpt lat="44.45294085861304" lon="9.650310000188655"><ele>761.6666666666667</ele><time>2026-04-19T08:36:27.999Z</time></trkpt><trkpt lat="44.45278814953697" lon="9.650143237662247"><ele>763.0</ele><time>2026-04-19T08:36:28.999Z</time></trkpt><trkpt lat="44.4526500760067" lon="9.649960082388608"><ele>763.0</ele><time>2026-04-19T08:36:29.999Z</time></trkpt><trkpt lat="44.45252854085752" lon="9.649768716158356"><ele>763.0</ele><time>2026-04-19T08:36:30.999Z</time></trkpt><trkpt lat="44.45244254632654" lon="9.649586101684157"><ele>763.0</ele><time>2026-04-19T08:36:31.999Z</time></trkpt><trkpt lat="44.45236659899125" lon="9.649420874936768"><ele>765.6666666666667</ele><time>2026-04-19T08:36:32.999Z</time></trkpt><trkpt lat="44.4523101284716" lon="9.649260075675835"><ele>768.3333333333334</ele><time>2026-04-19T08:36:33.999Z</time></trkpt><trkpt lat="44.45226761792228" lon="9.649058045656465"><ele>771.0</ele><time>2026-04-19T08:36:34.999Z</time></trkpt><trkpt lat="44.45220976392331" lon="9.648821252983788"><ele>771.0</ele><time>2026-04-19T08:36:35.999Z</time></trkpt><trkpt lat="44.452182885627195" lon="9.648569216199517"><ele>771.0</ele><time>2026-04-19T08:36:36.999Z</time></trkpt><trkpt lat="44.452097662728484" lon="9.648358641216666"><ele>771.0</ele><time>2026-04-19T08:36:37.999Z</time></trkpt><trkpt lat="44.45200017145266" lon="9.648155416262394"><ele>771.0</ele><time>2026-04-19T08:36:38.999Z</time></trkpt><trkpt lat="44.45188414417023" lon="9.647954675178143"><ele>771.0</ele><time>2026-04-19T08:36:39.999Z</time></trkpt><trkpt lat="44.451769229931905" lon="9.647761724371804"><ele>771.0</ele><time>2026-04-19T08:36:40.999Z</time></trkpt><trkpt lat="44.45167959709829" lon="9.647600007834802"><ele>772.25</ele><time>2026-04-19T08:36:41.999Z</time></trkpt><trkpt lat="44.45159113398775" lon="9.647483142488394"><ele>773.5</ele><time>2026-04-19T08:36:42.999Z</time></trkpt><trkpt lat="44.45147186681568" lon="9.647450030615973"><ele>774.75</ele><time>2026-04-19T08:36:43.999Z</time></trkpt><trkpt lat="44.451339427535224" lon="9.647491364085418"><ele>776.0</ele><time>2026-04-19T08:36:44.999Z</time></trkpt><trkpt lat="44.45122404717503" lon="9.64752473362899"><ele>776.0</ele><time>2026-04-19T08:36:45.999Z</time></trkpt><trkpt lat="44.45112916489302" lon="9.647453536435362"><ele>776.0</ele><time>2026-04-19T08:36:46.999Z</time></trkpt><trkpt lat="44.45109813053039" lon="9.647278176752238"><ele>776.0</ele><time>2026-04-19T08:36:47.999Z</time></trkpt><trkpt lat="44.451113922485035" lon="9.647118191837876"><ele>776.0</ele><time>2026-04-19T08:36:48.999Z</time></trkpt><trkpt lat="44.45120583941327" lon="9.646973045000639"><ele>781.6666666666667</ele><time>2026-04-19T08:36:49.999Z</time></trkpt><trkpt lat="44.45131904464509" lon="9.646794505357366"><ele>787.3333333333333</ele><time>2026-04-19T08:36:50.999Z</time></trkpt><trkpt lat="44.45145032718243" lon="9.646595724290531"><ele>793.0</ele><time>2026-04-19T08:36:51.999Z</time></trkpt><trkpt lat="44.4515303973212" lon="9.646335101426489"><ele>790.6666666666666</ele><time>2026-04-19T08:36:52.999Z</time></trkpt><trkpt lat="44.451586798928204" lon="9.646030125816441"><ele>788.3333333333333</ele><time>2026-04-19T08:36:53.999Z</time></trkpt><trkpt lat="44.45164482010867" lon="9.645751133505868"><ele>786.0</ele><time>2026-04-19T08:36:54.999Z</time></trkpt><trkpt lat="44.45166704201412" lon="9.645413409084941"><ele>784.0</ele><time>2026-04-19T08:36:55.999Z</time></trkpt><trkpt lat="44.45169052645648" lon="9.645126016405374"><ele>782.0</ele><time>2026-04-19T08:36:56.999Z</time></trkpt><trkpt lat="44.45170750241383" lon="9.644872709968668"><ele>780.0</ele><time>2026-04-19T08:36:57.999Z</time></trkpt><trkpt lat="44.45171803910893" lon="9.644656428201063"><ele>780.0</ele><time>2026-04-19T08:36:58.999Z</time></trkpt><trkpt lat="44.45169083954525" lon="9.64446384056648"><ele>780.0</ele><time>2026-04-19T08:36:59.999Z</time></trkpt><trkpt lat="44.451594624911536" lon="9.644271798091843"><ele>780.0</ele><time>2026-04-19T08:37:00.999Z</time></trkpt><trkpt lat="44.451433707099376" lon="9.644139489604832"><ele>779.0</ele><time>2026-04-19T08:37:01.999Z</time></trkpt><trkpt lat="44.45123669205044" lon="9.644065833563152"><ele>778.0</ele><time>2026-04-19T08:37:02.999Z</time></trkpt><trkpt lat="44.451023521784784" lon="9.64403813137336"><ele>777.0</ele><time>2026-04-19T08:37:03.999Z</time></trkpt><trkpt lat="44.45084956589988" lon="9.643954041065356"><ele>777.0</ele><time>2026-04-19T08:37:04.999Z</time></trkpt><trkpt lat="44.450707189486586" lon="9.643840205879204"><ele>777.0</ele><time>2026-04-19T08:37:05.999Z</time></trkpt><trkpt lat="44.45055217872348" lon="9.643692297825204"><ele>777.0</ele><time>2026-04-19T08:37:06.999Z</time></trkpt><trkpt lat="44.45041113307623" lon="9.643548283791622"><ele>777.3333333333333</ele><time>2026-04-19T08:37:07.999Z</time></trkpt><trkpt lat="44.45030155528323" lon="9.643411419531665"><ele>777.6666666666666</ele><time>2026-04-19T08:37:08.999Z</time></trkpt><trkpt lat="44.450224012991136" lon="9.643223480843503"><ele>778.0</ele><time>2026-04-19T08:37:09.999Z</time></trkpt><trkpt lat="44.45015103960131" lon="9.642993946029987"><ele>779.3333333333333</ele><time>2026-04-19T08:37:10.999Z</time></trkpt><trkpt lat="44.450077539920954" lon="9.642796734006252"><ele>780.6666666666667</ele><time>2026-04-19T08:37:11.999Z</time></trkpt><trkpt lat="44.449966896335184" lon="9.642588423813137"><ele>782.0</ele><time>2026-04-19T08:37:12.999Z</time></trkpt><trkpt lat="44.4498099487285" lon="9.642383539955786"><ele>782.0</ele><time>2026-04-19T08:37:13.999Z</time></trkpt><trkpt lat="44.449684740821766" lon="9.642179965339826"><ele>782.0</ele><time>2026-04-19T08:37:14.999Z</time></trkpt><trkpt lat="44.44943636504832" lon="9.641957349745107"><ele>783.0</ele><time>2026-04-19T08:37:15.999Z</time></trkpt><trkpt lat="44.44929981682306" lon="9.64177822916303"><ele>784.0</ele><time>2026-04-19T08:37:16.999Z</time></trkpt><trkpt lat="44.44914683568172" lon="9.641616274469142"><ele>785.0</ele><time>2026-04-19T08:37:18Z</time></trkpt><trkpt lat="44.448990676926904" lon="9.641525391261386"><ele>785.0</ele><time>2026-04-19T08:37:19Z</time></trkpt><trkpt lat="44.448813145909014" lon="9.641492382463213"><ele>785.0</ele><time>2026-04-19T08:37:20Z</time></trkpt><trkpt lat="44.44861566351898" lon="9.641494482814702"><ele>785.0</ele><time>2026-04-19T08:37:21Z</time></trkpt><trkpt lat="44.44842034769133" lon="9.64149850181183"><ele>786.3333333333334</ele><time>2026-04-19T08:37:22Z</time></trkpt><trkpt lat="44.44823822961247" lon="9.641490813627003"><ele>787.6666666666667</ele><time>2026-04-19T08:37:23Z</time></trkpt><trkpt lat="44.44807674748052" lon="9.641558154847685"><ele>789.0</ele><time>2026-04-19T08:37:24Z</time></trkpt><trkpt lat="44.4479482796397" lon="9.64167722641794"><ele>789.0</ele><time>2026-04-19T08:37:25Z</time></trkpt><trkpt lat="44.44783112309902" lon="9.641769545181502"><ele>789.0</ele><time>2026-04-19T08:37:26Z</time></trkpt><trkpt lat="44.44771793005142" lon="9.641743231356813"><ele>789.0</ele><time>2026-04-19T08:37:27Z</time></trkpt><trkpt lat="44.44766189282088" lon="9.641647435338456"><ele>789.0</ele><time>2026-04-19T08:37:28Z</time></trkpt><trkpt lat="44.44766458597489" lon="9.641501939616315"><ele>789.0</ele><time>2026-04-19T08:37:29Z</time></trkpt><trkpt lat="44.44762172093293" lon="9.641300415427448"><ele>792.6666666666667</ele><time>2026-04-19T08:37:30Z</time></trkpt><trkpt lat="44.44757107035773" lon="9.641065003757635"><ele>796.3333333333334</ele><time>2026-04-19T08:37:31Z</time></trkpt><trkpt lat="44.44752157491823" lon="9.640852862277647"><ele>800.0</ele><time>2026-04-19T08:37:32Z</time></trkpt><trkpt lat="44.44744749492168" lon="9.640637161044092"><ele>800.0</ele><time>2026-04-19T08:37:33Z</time></trkpt><trkpt lat="44.44735015454119" lon="9.640424317718763"><ele>800.0</ele><time>2026-04-19T08:37:34Z</time></trkpt><trkpt lat="44.44719377750472" lon="9.640293406351942"><ele>800.0</ele><time>2026-04-19T08:37:35Z</time></trkpt><trkpt lat="44.447025468834454" lon="9.640194606300923"><ele>798.6666666666667</ele><time>2026-04-19T08:37:36Z</time></trkpt><trkpt lat="44.446941870683034" lon="9.640047928288945"><ele>797.3333333333333</ele><time>2026-04-19T08:37:37Z</time></trkpt><trkpt lat="44.44681834113807" lon="9.63983527259075"><ele>796.0</ele><time>2026-04-19T08:37:38Z</time></trkpt><trkpt lat="44.44673384424695" lon="9.639594510229543"><ele>797.3333333333333</ele><time>2026-04-19T08:37:39Z</time></trkpt><trkpt lat="44.446586522299086" lon="9.639370829451279"><ele>798.6666666666667</ele><time>2026-04-19T08:37:40Z</time></trkpt><trkpt lat="44.44644480791874" lon="9.63913715278797"><ele>800.0</ele><time>2026-04-19T08:37:41Z</time></trkpt><trkpt lat="44.44630863003491" lon="9.638900892136474"><ele>797.5</ele><time>2026-04-19T08:37:42Z</time></trkpt><trkpt lat="44.44616606581389" lon="9.6386553539452"><ele>795.0</ele><time>2026-04-19T08:37:43Z</time></trkpt><trkpt lat="44.44600771254042" lon="9.638422385222228"><ele>795.0</ele><time>2026-04-19T08:37:44Z</time></trkpt><trkpt lat="44.44582749355458" lon="9.638200593880377"><ele>795.0</ele><time>2026-04-19T08:37:45Z</time></trkpt><trkpt lat="44.44564323681521" lon="9.638002989783823"><ele>795.0</ele><time>2026-04-19T08:37:46Z</time></trkpt><trkpt lat="44.445474762645986" lon="9.637816847734559"><ele>795.0</ele><time>2026-04-19T08:37:47Z</time></trkpt><trkpt lat="44.445319079997724" lon="9.637633077147676"><ele>795.0</ele><time>2026-04-19T08:37:48Z</time></trkpt><trkpt lat="44.44518647043888" lon="9.637453183919527"><ele>796.6666666666667</ele><time>2026-04-19T08:37:49Z</time></trkpt><trkpt lat="44.44507456158248" lon="9.637286190126655"><ele>798.3333333333334</ele><time>2026-04-19T08:37:50Z</time></trkpt><trkpt lat="44.44494740535664" lon="9.6371773196838"><ele>800.0</ele><time>2026-04-19T08:37:51Z</time></trkpt><trkpt lat="44.4447923589722" lon="9.637164446280194"><ele>802.3333333333334</ele><time>2026-04-19T08:37:52Z</time></trkpt><trkpt lat="44.44462053248244" lon="9.637253169248595"><ele>804.6666666666667</ele><time>2026-04-19T08:37:53Z</time></trkpt><trkpt lat="44.44445094205352" lon="9.637320164921139"><ele>807.0</ele><time>2026-04-19T08:37:54Z</time></trkpt><trkpt lat="44.44426010213598" lon="9.637243139564386"><ele>807.0</ele><time>2026-04-19T08:37:55Z</time></trkpt><trkpt lat="44.44407708620526" lon="9.63716736998523"><ele>807.0</ele><time>2026-04-19T08:37:56Z</time></trkpt><trkpt lat="44.443892560555135" lon="9.637050946098968"><ele>807.0</ele><time>2026-04-19T08:37:57Z</time></trkpt><trkpt lat="44.443733644739034" lon="9.636897178282451"><ele>810.3333333333333</ele><time>2026-04-19T08:37:58Z</time></trkpt><trkpt lat="44.4435974191576" lon="9.636741180607558"><ele>813.6666666666666</ele><time>2026-04-19T08:37:59Z</time></trkpt><trkpt lat="44.44346487974901" lon="9.636553787461471"><ele>817.0</ele><time>2026-04-19T08:38:00Z</time></trkpt><trkpt lat="44.44336674309671" lon="9.636320673254163"><ele>816.6666666666666</ele><time>2026-04-19T08:38:01Z</time></trkpt><trkpt lat="44.443282245057105" lon="9.636106956518983"><ele>816.3333333333333</ele><time>2026-04-19T08:38:02Z</time></trkpt><trkpt lat="44.443188067907116" lon="9.635902013012794"><ele>816.0</ele><time>2026-04-19T08:38:03Z</time></trkpt><trkpt lat="44.443061830220266" lon="9.635696072495845"><ele>818.0</ele><time>2026-04-19T08:38:04Z</time></trkpt><trkpt lat="44.442897556232225" lon="9.635519582202326"><ele>820.0</ele><time>2026-04-19T08:38:05Z</time></trkpt><trkpt lat="44.44272110811774" lon="9.635358705006182"><ele>822.0</ele><time>2026-04-19T08:38:06Z</time></trkpt><trkpt lat="44.44257316030686" lon="9.635213076258047"><ele>822.0</ele><time>2026-04-19T08:38:07Z</time></trkpt><trkpt lat="44.442452649146446" lon="9.635087451837453"><ele>822.0</ele><time>2026-04-19T08:38:08Z</time></trkpt><trkpt lat="44.442338105729206" lon="9.635016971367124"><ele>822.0</ele><time>2026-04-19T08:38:09Z</time></trkpt><trkpt lat="44.4421945416261" lon="9.635022406223452"><ele>822.0</ele><time>2026-04-19T08:38:10Z</time></trkpt><trkpt lat="44.442035815457" lon="9.635111096551102"><ele>823.3333333333333</ele><time>2026-04-19T08:38:11Z</time></trkpt><trkpt lat="44.44185853522302" lon="9.635204429945258"><ele>824.6666666666666</ele><time>2026-04-19T08:38:12Z</time></trkpt><trkpt lat="44.44168417060879" lon="9.635287904831488"><ele>826.0</ele><time>2026-04-19T08:38:13Z</time></trkpt><trkpt lat="44.44149344573927" lon="9.63533865510256"><ele>828.6666666666666</ele><time>2026-04-19T08:38:14Z</time></trkpt><trkpt lat="44.44129671339777" lon="9.635345234331027"><ele>831.3333333333333</ele><time>2026-04-19T08:38:15Z</time></trkpt><trkpt lat="44.44109163827695" lon="9.635337391534053"><ele>834.0</ele><time>2026-04-19T08:38:16Z</time></trkpt><trkpt lat="44.440900127069085" lon="9.63536445775164"><ele>834.0</ele><time>2026-04-19T08:38:17Z</time></trkpt><trkpt lat="44.44073218804317" lon="9.63544967365249"><ele>834.0</ele><time>2026-04-19T08:38:18Z</time></trkpt><trkpt lat="44.44055748870693" lon="9.635533825511821"><ele>834.0</ele><time>2026-04-19T08:38:19Z</time></trkpt><trkpt lat="44.44039093846128" lon="9.635597702551243"><ele>835.25</ele><time>2026-04-19T08:38:20Z</time></trkpt><trkpt lat="44.440246412601766" lon="9.635637253785866"><ele>836.5</ele><time>2026-04-19T08:38:21Z</time></trkpt><trkpt lat="44.44011159661185" lon="9.635607616315385"><ele>837.75</ele><time>2026-04-19T08:38:22Z</time></trkpt><trkpt lat="44.439990952309095" lon="9.635518165888632"><ele>839.0</ele><time>2026-04-19T08:38:23Z</time></trkpt><trkpt lat="44.439842302060406" lon="9.6354176247167"><ele>839.0</ele><time>2026-04-19T08:38:24Z</time></trkpt><trkpt lat="44.43967994984568" lon="9.635364019709346"><ele>839.0</ele><time>2026-04-19T08:38:25Z</time></trkpt><trkpt lat="44.439512430530584" lon="9.6353270399568"><ele>839.0</ele><time>2026-04-19T08:38:26Z</time></trkpt><trkpt lat="44.43933248025985" lon="9.635312763508988"><ele>841.3333333333334</ele><time>2026-04-19T08:38:27Z</time></trkpt><trkpt lat="44.439151425442375" lon="9.635288612401812"><ele>843.6666666666667</ele><time>2026-04-19T08:38:28Z</time></trkpt><trkpt lat="44.43897948240452" lon="9.635262188703711"><ele>846.0</ele><time>2026-04-19T08:38:29Z</time></trkpt><trkpt lat="44.43883143639401" lon="9.635227604429376"><ele>846.75</ele><time>2026-04-19T08:38:30Z</time></trkpt><trkpt lat="44.43870317647264" lon="9.635186974142579"><ele>847.5</ele><time>2026-04-19T08:38:31Z</time></trkpt><trkpt lat="44.438585520105875" lon="9.63514212739379"><ele>848.25</ele><time>2026-04-19T08:38:32Z</time></trkpt><trkpt lat="44.43848442286564" lon="9.635088210506863"><ele>849.0</ele><time>2026-04-19T08:38:33Z</time></trkpt><trkpt lat="44.438390814651946" lon="9.635038758355327"><ele>849.0</ele><time>2026-04-19T08:38:34Z</time></trkpt><trkpt lat="44.43829807419261" lon="9.635006343105394"><ele>849.0</ele><time>2026-04-19T08:38:35Z</time></trkpt><trkpt lat="44.43820965612606" lon="9.634966295328212"><ele>849.0</ele><time>2026-04-19T08:38:36Z</time></trkpt><trkpt lat="44.438101790399514" lon="9.63507916905963"><ele>849.0</ele><time>2026-04-19T08:38:37Z</time></trkpt><trkpt lat="44.438008325329925" lon="9.63516753782973"><ele>849.0</ele><time>2026-04-19T08:38:38Z</time></trkpt><trkpt lat="44.43789758383081" lon="9.635232039852683"><ele>850.25</ele><time>2026-04-19T08:38:39Z</time></trkpt><trkpt lat="44.43777822356688" lon="9.635205204107974"><ele>851.5</ele><time>2026-04-19T08:38:40Z</time></trkpt><trkpt lat="44.43766684723088" lon="9.635090766223051"><ele>852.75</ele><time>2026-04-19T08:38:41Z</time></trkpt><trkpt lat="44.437550801899896" lon="9.634914790958835"><ele>854.0</ele><time>2026-04-19T08:38:42Z</time></trkpt><trkpt lat="44.43741849579158" lon="9.634762351025794"><ele>854.0</ele><time>2026-04-19T08:38:43Z</time></trkpt><trkpt lat="44.43729500619447" lon="9.634660885293599"><ele>854.0</ele><time>2026-04-19T08:38:44Z</time></trkpt><trkpt lat="44.437176354724386" lon="9.634652524608327"><ele>854.0</ele><time>2026-04-19T08:38:45Z</time></trkpt><trkpt lat="44.4370404191556" lon="9.634739463035775"><ele>854.0</ele><time>2026-04-19T08:38:46Z</time></trkpt><trkpt lat="44.436895697780386" lon="9.634749165243008"><ele>855.75</ele><time>2026-04-19T08:38:47Z</time></trkpt><trkpt lat="44.4367536066804" lon="9.634776153867989"><ele>857.5</ele><time>2026-04-19T08:38:48Z</time></trkpt><trkpt lat="44.43665611370835" lon="9.63481320268334"><ele>859.25</ele><time>2026-04-19T08:38:49Z</time></trkpt><trkpt lat="44.43652523912927" lon="9.63496399943581"><ele>861.0</ele><time>2026-04-19T08:38:50Z</time></trkpt><trkpt lat="44.436364152109455" lon="9.635039777959822"><ele>859.25</ele><time>2026-04-19T08:38:51Z</time></trkpt><trkpt lat="44.436225695268334" lon="9.635072266479652"><ele>857.5</ele><time>2026-04-19T08:38:52Z</time></trkpt><trkpt lat="44.436131370933545" lon="9.634992531360306"><ele>855.75</ele><time>2026-04-19T08:38:53Z</time></trkpt><trkpt lat="44.436095686735015" lon="9.634857334925591"><ele>854.0</ele><time>2026-04-19T08:38:54Z</time></trkpt><trkpt lat="44.43617312011684" lon="9.634730618257473"><ele>854.0</ele><time>2026-04-19T08:38:55Z</time></trkpt><trkpt lat="44.43628139409064" lon="9.634631501037237"><ele>854.0</ele><time>2026-04-19T08:38:56Z</time></trkpt><trkpt lat="44.43635930134478" lon="9.634520655322216"><ele>854.0</ele><time>2026-04-19T08:38:57Z</time></trkpt><trkpt lat="44.43643529623556" lon="9.634350164633126"><ele>854.0</ele><time>2026-04-19T08:38:58Z</time></trkpt><trkpt lat="44.43648011944706" lon="9.63414168787226"><ele>861.0</ele><time>2026-04-19T08:38:59Z</time></trkpt><trkpt lat="44.43653974582225" lon="9.633918814901852"><ele>868.0</ele><time>2026-04-19T08:39:00Z</time></trkpt><trkpt lat="44.43663199038423" lon="9.63373294720742"><ele>875.0</ele><time>2026-04-19T08:39:01Z</time></trkpt><trkpt lat="44.43675891595728" lon="9.63358049633553"><ele>875.5</ele><time>2026-04-19T08:39:02Z</time></trkpt><trkpt lat="44.43686439129715" lon="9.63342163426549"><ele>876.0</ele><time>2026-04-19T08:39:03Z</time></trkpt><trkpt lat="44.43694655478215" lon="9.633294875069936"><ele>876.5</ele><time>2026-04-19T08:39:04Z</time></trkpt><trkpt lat="44.43698007949376" lon="9.633110100601286"><ele>877.0</ele><time>2026-04-19T08:39:05Z</time></trkpt><trkpt lat="44.43697984285461" lon="9.632872208756861"><ele>879.0</ele><time>2026-04-19T08:39:06Z</time></trkpt><trkpt lat="44.43695057002209" lon="9.632648689622034"><ele>881.0</ele><time>2026-04-19T08:39:07Z</time></trkpt><trkpt lat="44.43689461262639" lon="9.632419769567223"><ele>883.0</ele><time>2026-04-19T08:39:08Z</time></trkpt><trkpt lat="44.43683004578845" lon="9.632185345131267"><ele>887.0</ele><time>2026-04-19T08:39:09Z</time></trkpt><trkpt lat="44.43674378505613" lon="9.63193510660781"><ele>891.0</ele><time>2026-04-19T08:39:10Z</time></trkpt><trkpt lat="44.43663748494626" lon="9.63170527514253"><ele>895.0</ele><time>2026-04-19T08:39:11Z</time></trkpt><trkpt lat="44.43650958853384" lon="9.631481229574979"><ele>895.0</ele><time>2026-04-19T08:39:12Z</time></trkpt><trkpt lat="44.4363747354756" lon="9.631244289093752"><ele>895.0</ele><time>2026-04-19T08:39:13Z</time></trkpt><trkpt lat="44.43624080883718" lon="9.631009878274844"><ele>895.0</ele><time>2026-04-19T08:39:14Z</time></trkpt><trkpt lat="44.43612608910829" lon="9.630805047674423"><ele>893.6666666666666</ele><time>2026-04-19T08:39:15Z</time></trkpt><trkpt lat="44.43604491104586" lon="9.630579689198186"><ele>892.3333333333333</ele><time>2026-04-19T08:39:16Z</time></trkpt><trkpt lat="44.43598831360554" lon="9.630343517512207"><ele>891.0</ele><time>2026-04-19T08:39:17Z</time></trkpt><trkpt lat="44.43589885061417" lon="9.63012219140594"><ele>895.0</ele><time>2026-04-19T08:39:18Z</time></trkpt><trkpt lat="44.4358193876198" lon="9.62990666358897"><ele>899.0</ele><time>2026-04-19T08:39:19Z</time></trkpt><trkpt lat="44.435700513015966" lon="9.629716493097263"><ele>903.0</ele><time>2026-04-19T08:39:20Z</time></trkpt><trkpt lat="44.43557582208197" lon="9.629519986003906"><ele>904.6666666666667</ele><time>2026-04-19T08:39:21Z</time></trkpt><trkpt lat="44.43545076051328" lon="9.629317869442092"><ele>906.3333333333334</ele><time>2026-04-19T08:39:22Z</time></trkpt><trkpt lat="44.43531424555835" lon="9.629133158406525"><ele>908.0</ele><time>2026-04-19T08:39:23Z</time></trkpt><trkpt lat="44.435148792199385" lon="9.628987994304532"><ele>908.0</ele><time>2026-04-19T08:39:24Z</time></trkpt><trkpt lat="44.43498449204268" lon="9.628855252375013"><ele>908.0</ele><time>2026-04-19T08:39:25Z</time></trkpt><trkpt lat="44.43484545620505" lon="9.628728210174453"><ele>908.0</ele><time>2026-04-19T08:39:26Z</time></trkpt><trkpt lat="44.43473313564152" lon="9.62858464047157"><ele>908.3333333333334</ele><time>2026-04-19T08:39:27Z</time></trkpt><trkpt lat="44.43465813321223" lon="9.628410927650364"><ele>908.6666666666667</ele><time>2026-04-19T08:39:28Z</time></trkpt><trkpt lat="44.43463119044303" lon="9.628194677427011"><ele>909.0</ele><time>2026-04-19T08:39:29Z</time></trkpt><trkpt lat="44.43458384854273" lon="9.627967054563909"><ele>913.6666666666667</ele><time>2026-04-19T08:39:30Z</time></trkpt><trkpt lat="44.43454299653813" lon="9.62772563265005"><ele>918.3333333333334</ele><time>2026-04-19T08:39:31Z</time></trkpt><trkpt lat="44.4344598556473" lon="9.627502110981364"><ele>923.0</ele><time>2026-04-19T08:39:32Z</time></trkpt><trkpt lat="44.4343418399293" lon="9.627308576672528"><ele>923.0</ele><time>2026-04-19T08:39:33Z</time></trkpt><trkpt lat="44.43418814913767" lon="9.627146886385091"><ele>923.0</ele><time>2026-04-19T08:39:34Z</time></trkpt><trkpt lat="44.434007864754584" lon="9.626995364658608"><ele>923.0</ele><time>2026-04-19T08:39:35Z</time></trkpt><trkpt lat="44.433831196748734" lon="9.626849156163171"><ele>927.6666666666667</ele><time>2026-04-19T08:39:36Z</time></trkpt><trkpt lat="44.43364883658819" lon="9.626696551963851"><ele>932.3333333333333</ele><time>2026-04-19T08:39:37Z</time></trkpt><trkpt lat="44.4334652966081" lon="9.626536562052193"><ele>937.0</ele><time>2026-04-19T08:39:38Z</time></trkpt><trkpt lat="44.43330013012155" lon="9.626385115827626"><ele>937.0</ele><time>2026-04-19T08:39:39Z</time></trkpt><trkpt lat="44.43316332550157" lon="9.626252065875859"><ele>937.0</ele><time>2026-04-19T08:39:40Z</time></trkpt><trkpt lat="44.43305250253546" lon="9.626107286901188"><ele>937.0</ele><time>2026-04-19T08:39:41Z</time></trkpt><trkpt lat="44.432955135207955" lon="9.625927823815688"><ele>937.6666666666666</ele><time>2026-04-19T08:39:42Z</time></trkpt><trkpt lat="44.432857845001756" lon="9.625725552945124"><ele>938.3333333333333</ele><time>2026-04-19T08:39:43Z</time></trkpt><trkpt lat="44.43274731236266" lon="9.62551121881716"><ele>939.0</ele><time>2026-04-19T08:39:44Z</time></trkpt><trkpt lat="44.432641154275366" lon="9.625283312547905"><ele>941.3333333333333</ele><time>2026-04-19T08:39:45Z</time></trkpt><trkpt lat="44.43253239817227" lon="9.625049328855399"><ele>943.6666666666666</ele><time>2026-04-19T08:39:46Z</time></trkpt><trkpt lat="44.43241848058767" lon="9.62479764787893"><ele>946.0</ele><time>2026-04-19T08:39:47Z</time></trkpt><trkpt lat="44.432306412212014" lon="9.624541125756403"><ele>947.6666666666666</ele><time>2026-04-19T08:39:48Z</time></trkpt><trkpt lat="44.43220566792785" lon="9.624295140368814"><ele>949.3333333333333</ele><time>2026-04-19T08:39:49Z</time></trkpt><trkpt lat="44.432110729842016" lon="9.624080332118828"><ele>951.0</ele><time>2026-04-19T08:39:50Z</time></trkpt><trkpt lat="44.432007152730485" lon="9.623901098886334"><ele>951.0</ele><time>2026-04-19T08:39:51Z</time></trkpt><trkpt lat="44.43187278226402" lon="9.623784089536946"><ele>951.0</ele><time>2026-04-19T08:39:52Z</time></trkpt><trkpt lat="44.43169331162036" lon="9.623758433933679"><ele>951.0</ele><time>2026-04-19T08:39:53Z</time></trkpt><trkpt lat="44.431500234859804" lon="9.62378496500056"><ele>952.3333333333333</ele><time>2026-04-19T08:39:54Z</time></trkpt><trkpt lat="44.431293509728725" lon="9.623819579245929"><ele>953.6666666666666</ele><time>2026-04-19T08:39:55Z</time></trkpt><trkpt lat="44.431100714941195" lon="9.623818780993412"><ele>955.0</ele><time>2026-04-19T08:39:56Z</time></trkpt><trkpt lat="44.430894865142776" lon="9.62380560699452"><ele>955.0</ele><time>2026-04-19T08:39:57Z</time></trkpt><trkpt lat="44.430691676415286" lon="9.623778870829977"><ele>955.0</ele><time>2026-04-19T08:39:58Z</time></trkpt><trkpt lat="44.43050434227437" lon="9.62374946451607"><ele>955.0</ele><time>2026-04-19T08:39:59Z</time></trkpt><trkpt lat="44.430316916659166" lon="9.623702855019138"><ele>959.0</ele><time>2026-04-19T08:40:00Z</time></trkpt><trkpt lat="44.430136943459694" lon="9.623605824350376"><ele>963.0</ele><time>2026-04-19T08:40:01Z</time></trkpt><trkpt lat="44.429944764194765" lon="9.623518741310278"><ele>967.0</ele><time>2026-04-19T08:40:02Z</time></trkpt><trkpt lat="44.42977316919246" lon="9.623443304980059"><ele>968.25</ele><time>2026-04-19T08:40:03Z</time></trkpt><trkpt lat="44.429629375957845" lon="9.623380341734991"><ele>969.5</ele><time>2026-04-19T08:40:04Z</time></trkpt><trkpt lat="44.42949097567828" lon="9.623314888303478"><ele>970.75</ele><time>2026-04-19T08:40:05Z</time></trkpt><trkpt lat="44.42939453027017" lon="9.62325870246243"><ele>972.0</ele><time>2026-04-19T08:40:06Z</time></trkpt><trkpt lat="44.42933404355685" lon="9.623174124319839"><ele>972.0</ele><time>2026-04-19T08:40:07Z</time></trkpt><trkpt lat="44.429306208444494" lon="9.623049663432745"><ele>972.0</ele><time>2026-04-19T08:40:08Z</time></trkpt><trkpt lat="44.42937705199441" lon="9.622934405211018"><ele>972.0</ele><time>2026-04-19T08:40:09Z</time></trkpt><trkpt lat="44.42948526752762" lon="9.622893766077526"><ele>972.0</ele><time>2026-04-19T08:40:10Z</time></trkpt><trkpt lat="44.429616692646576" lon="9.622835069322528"><ele>976.0</ele><time>2026-04-19T08:40:11Z</time></trkpt><trkpt lat="44.42975402921017" lon="9.622763875743694"><ele>980.0</ele><time>2026-04-19T08:40:12Z</time></trkpt><trkpt lat="44.429915321917036" lon="9.622697974251967"><ele>984.0</ele><time>2026-04-19T08:40:13Z</time></trkpt><trkpt lat="44.430087427288235" lon="9.622633782348915"><ele>984.0</ele><time>2026-04-19T08:40:14Z</time></trkpt><trkpt lat="44.43027720722962" lon="9.622609046571817"><ele>984.0</ele><time>2026-04-19T08:40:15Z</time></trkpt><trkpt lat="44.430475969094644" lon="9.622586768585453"><ele>984.0</ele><time>2026-04-19T08:40:16Z</time></trkpt><trkpt lat="44.430638504750405" lon="9.622578095122847"><ele>984.6</ele><time>2026-04-19T08:40:17Z</time></trkpt><trkpt lat="44.4307611108851" lon="9.622572245311"><ele>985.2</ele><time>2026-04-19T08:40:18Z</time></trkpt><trkpt lat="44.43084936801834" lon="9.622528180432303"><ele>985.8000000000001</ele><time>2026-04-19T08:40:19Z</time></trkpt><trkpt lat="44.43089160774021" lon="9.622414190131996"><ele>986.4000000000001</ele><time>2026-04-19T08:40:20Z</time></trkpt><trkpt lat="44.43086969537134" lon="9.622273532240254"><ele>987.0</ele><time>2026-04-19T08:40:21Z</time></trkpt><trkpt lat="44.43079309929003" lon="9.622150513386313"><ele>987.0</ele><time>2026-04-19T08:40:22Z</time></trkpt><trkpt lat="44.43063480019695" lon="9.622090843261525"><ele>987.0</ele><time>2026-04-19T08:40:23Z</time></trkpt><trkpt lat="44.43047472527094" lon="9.622025933861236"><ele>987.0</ele><time>2026-04-19T08:40:24Z</time></trkpt><trkpt lat="44.430304662583175" lon="9.621943251281069"><ele>991.3333333333333</ele><time>2026-04-19T08:40:25Z</time></trkpt><trkpt lat="44.43012610578248" lon="9.621859589283975"><ele>995.6666666666666</ele><time>2026-04-19T08:40:26Z</time></trkpt><trkpt lat="44.42992948637843" lon="9.621792897361264"><ele>1000.0</ele><time>2026-04-19T08:40:27Z</time></trkpt><trkpt lat="44.42971198035115" lon="9.62176196199249"><ele>1001.5</ele><time>2026-04-19T08:40:28Z</time></trkpt><trkpt lat="44.429490185013584" lon="9.621752440645903"><ele>1003.0</ele><time>2026-04-19T08:40:29Z</time></trkpt><trkpt lat="44.42926191499173" lon="9.621715519605216"><ele>1003.0</ele><time>2026-04-19T08:40:30Z</time></trkpt><trkpt lat="44.4290168957237" lon="9.621752723738327"><ele>1003.0</ele><time>2026-04-19T08:40:31Z</time></trkpt><trkpt lat="44.42880096218927" lon="9.621771093457854"><ele>1003.25</ele><time>2026-04-19T08:40:32Z</time></trkpt><trkpt lat="44.42865160435344" lon="9.621753569632235"><ele>1003.5</ele><time>2026-04-19T08:40:33Z</time></trkpt><trkpt lat="44.42854739545628" lon="9.621722248311407"><ele>1003.75</ele><time>2026-04-19T08:40:34Z</time></trkpt><trkpt lat="44.42848222534292" lon="9.621626082946724"><ele>1004.0</ele><time>2026-04-19T08:40:35Z</time></trkpt><trkpt lat="44.42847807342227" lon="9.621462191711322"><ele>1004.0</ele><time>2026-04-19T08:40:36Z</time></trkpt><trkpt lat="44.42844346445345" lon="9.621258727552204"><ele>1004.0</ele><time>2026-04-19T08:40:37Z</time></trkpt><trkpt lat="44.42837056061181" lon="9.621091018282312"><ele>1004.0</ele><time>2026-04-19T08:40:38Z</time></trkpt><trkpt lat="44.42825596585093" lon="9.621004438872962"><ele>1004.0</ele><time>2026-04-19T08:40:39Z</time></trkpt><trkpt lat="44.42811483045316" lon="9.620998684167063"><ele>1008.3333333333334</ele><time>2026-04-19T08:40:40Z</time></trkpt><trkpt lat="44.42795432319768" lon="9.621084541093188"><ele>1012.6666666666667</ele><time>2026-04-19T08:40:41Z</time></trkpt><trkpt lat="44.42780413892586" lon="9.62121769769026"><ele>1017.0</ele><time>2026-04-19T08:40:42Z</time></trkpt><trkpt lat="44.427670277195894" lon="9.621393089875067"><ele>1017.0</ele><time>2026-04-19T08:40:43Z</time></trkpt><trkpt lat="44.427549970447586" lon="9.621606486039541"><ele>1017.0</ele><time>2026-04-19T08:40:44Z</time></trkpt><trkpt lat="44.427400971623605" lon="9.621816156313027"><ele>1017.0</ele><time>2026-04-19T08:40:45Z</time></trkpt><trkpt lat="44.42725263195959" lon="9.621984006185512"><ele>1017.0</ele><time>2026-04-19T08:40:46Z</time></trkpt><trkpt lat="44.42711205755437" lon="9.622059842495577"><ele>1017.0</ele><time>2026-04-19T08:40:47Z</time></trkpt><trkpt lat="44.42696580278782" lon="9.622084058496643"><ele>1017.0</ele><time>2026-04-19T08:40:48Z</time></trkpt><trkpt lat="44.426807132607955" lon="9.622058797567862"><ele>1017.0</ele><time>2026-04-19T08:40:49Z</time></trkpt><trkpt lat="44.426643647425095" lon="9.622002478863081"><ele>1017.0</ele><time>2026-04-19T08:40:50Z</time></trkpt><trkpt lat="44.426511486762905" lon="9.621973797624628"><ele>1017.0</ele><time>2026-04-19T08:40:51Z</time></trkpt><trkpt lat="44.426422427834446" lon="9.62197864093409"><ele>1017.0</ele><time>2026-04-19T08:40:52Z</time></trkpt><trkpt lat="44.42633490688966" lon="9.622049970592196"><ele>1022.25</ele><time>2026-04-19T08:40:53Z</time></trkpt><trkpt lat="44.42621037185811" lon="9.622158612315518"><ele>1027.5</ele><time>2026-04-19T08:40:54Z</time></trkpt><trkpt lat="44.42610690764144" lon="9.622281073622702"><ele>1032.75</ele><time>2026-04-19T08:40:55Z</time></trkpt><trkpt lat="44.42598651683449" lon="9.62234752031227"><ele>1038.0</ele><time>2026-04-19T08:40:56Z</time></trkpt><trkpt lat="44.425848266890064" lon="9.622437770432699"><ele>1038.0</ele><time>2026-04-19T08:40:57Z</time></trkpt><trkpt lat="44.425717813614376" lon="9.622513133895273"><ele>1038.0</ele><time>2026-04-19T08:40:58Z</time></trkpt><trkpt lat="44.42559103269397" lon="9.622580773970911"><ele>1038.0</ele><time>2026-04-19T08:40:59Z</time></trkpt><trkpt lat="44.42545033408716" lon="9.622654186994595"><ele>1038.0</ele><time>2026-04-19T08:41:00Z</time></trkpt><trkpt lat="44.425293707782586" lon="9.622687271519695"><ele>1039.6666666666667</ele><time>2026-04-19T08:41:01Z</time></trkpt><trkpt lat="44.42513789359366" lon="9.622675071643792"><ele>1041.3333333333335</ele><time>2026-04-19T08:41:02Z</time></trkpt><trkpt lat="44.42498660020177" lon="9.622648683652937"><ele>1043.0</ele><time>2026-04-19T08:41:03Z</time></trkpt><trkpt lat="44.424833255491855" lon="9.62260745173871"><ele>1043.0</ele><time>2026-04-19T08:41:04Z</time></trkpt><trkpt lat="44.42467004083546" lon="9.622522250999284"><ele>1043.0</ele><time>2026-04-19T08:41:05Z</time></trkpt><trkpt lat="44.42451915288801" lon="9.622440475850613"><ele>1043.0</ele><time>2026-04-19T08:41:06Z</time></trkpt><trkpt lat="44.42440202103205" lon="9.622374072144122"><ele>1046.0</ele><time>2026-04-19T08:41:07Z</time></trkpt><trkpt lat="44.424299109121" lon="9.622340929639101"><ele>1049.0</ele><time>2026-04-19T08:41:08Z</time></trkpt><trkpt lat="44.42419943945623" lon="9.622376931799534"><ele>1052.0</ele><time>2026-04-19T08:41:09Z</time></trkpt><trkpt lat="44.42411731343437" lon="9.622531444013962"><ele>1055.0</ele><time>2026-04-19T08:41:10Z</time></trkpt><trkpt lat="44.4240776070761" lon="9.622716284560857"><ele>1051.25</ele><time>2026-04-19T08:41:11Z</time></trkpt><trkpt lat="44.42405351848054" lon="9.62288103295013"><ele>1047.5</ele><time>2026-04-19T08:41:12Z</time></trkpt><trkpt lat="44.4240224223187" lon="9.623036857386058"><ele>1043.75</ele><time>2026-04-19T08:41:13Z</time></trkpt><trkpt lat="44.423958497156875" lon="9.623188055775167"><ele>1040.0</ele><time>2026-04-19T08:41:14Z</time></trkpt><trkpt lat="44.42386523827219" lon="9.623300374193883"><ele>1044.75</ele><time>2026-04-19T08:41:15Z</time></trkpt><trkpt lat="44.42374981266575" lon="9.623390305130764"><ele>1049.5</ele><time>2026-04-19T08:41:16Z</time></trkpt><trkpt lat="44.42363344543901" lon="9.62348025349675"><ele>1054.25</ele><time>2026-04-19T08:41:16.999Z</time></trkpt><trkpt lat="44.423532402454995" lon="9.623558963193387"><ele>1059.0</ele><time>2026-04-19T08:41:17.999Z</time></trkpt><trkpt lat="44.423404811972134" lon="9.623560602815871"><ele>1059.0</ele><time>2026-04-19T08:41:18.999Z</time></trkpt><trkpt lat="44.42327591677393" lon="9.62350644717865"><ele>1059.0</ele><time>2026-04-19T08:41:19.999Z</time></trkpt><trkpt lat="44.42315094493582" lon="9.623460550228907"><ele>1059.0</ele><time>2026-04-19T08:41:20.999Z</time></trkpt><trkpt lat="44.42303548897282" lon="9.623404576301116"><ele>1059.0</ele><time>2026-04-19T08:41:21.999Z</time></trkpt><trkpt lat="44.42292708600461" lon="9.6233591396296"><ele>1059.0</ele><time>2026-04-19T08:41:22.999Z</time></trkpt><trkpt lat="44.42283103376774" lon="9.623282185952576"><ele>1059.0</ele><time>2026-04-19T08:41:23.999Z</time></trkpt><trkpt lat="44.42275016611586" lon="9.623210256860608"><ele>1059.0</ele><time>2026-04-19T08:41:24.999Z</time></trkpt><trkpt lat="44.422668174048944" lon="9.623145479139444"><ele>1059.0</ele><time>2026-04-19T08:41:25.999Z</time></trkpt><trkpt lat="44.42258917236868" lon="9.623100947081488"><ele>1059.0</ele><time>2026-04-19T08:41:26.999Z</time></trkpt><trkpt lat="44.42250607030777" lon="9.623078299748896"><ele>1059.0</ele><time>2026-04-19T08:41:27.999Z</time></trkpt><trkpt lat="44.42241972582397" lon="9.623077492009774"><ele>1059.0</ele><time>2026-04-19T08:41:28.999Z</time></trkpt><trkpt lat="44.42233018951049" lon="9.62310333390172"><ele>1059.0</ele><time>2026-04-19T08:41:30Z</time></trkpt><trkpt lat="44.4222486067884" lon="9.623139805495354"><ele>1059.0</ele><time>2026-04-19T08:41:31Z</time></trkpt><trkpt lat="44.42216105244819" lon="9.623172673458"><ele>1059.0</ele><time>2026-04-19T08:41:32Z</time></trkpt><trkpt lat="44.42207441694" lon="9.623194832217289"><ele>1059.0</ele><time>2026-04-19T08:41:33Z</time></trkpt><trkpt lat="44.42198870477712" lon="9.623217745117325"><ele>1059.0</ele><time>2026-04-19T08:41:34Z</time></trkpt><trkpt lat="44.421916441125575" lon="9.623244072641949"><ele>1059.0</ele><time>2026-04-19T08:41:35Z</time></trkpt><trkpt lat="44.421854003860496" lon="9.623272904576796"><ele>1059.0</ele><time>2026-04-19T08:41:36Z</time></trkpt><trkpt lat="44.42174213768312" lon="9.623307234008951"><ele>1059.0</ele><time>2026-04-19T08:41:38Z</time></trkpt><trkpt lat="44.42165778433118" lon="9.623336394216523"><ele>1059.0</ele><time>2026-04-19T08:41:39Z</time></trkpt><trkpt lat="44.42154820929361" lon="9.62336603360884"><ele>1059.0</ele><time>2026-04-19T08:41:40Z</time></trkpt><trkpt lat="44.4214471623259" lon="9.623392725191515"><ele>1059.0</ele><time>2026-04-19T08:41:41Z</time></trkpt><trkpt lat="44.42135553847364" lon="9.623415860229448"><ele>1059.0</ele><time>2026-04-19T08:41:42Z</time></trkpt><trkpt lat="44.42126646123122" lon="9.623439908623846"><ele>1059.0</ele><time>2026-04-19T08:41:43Z</time></trkpt><trkpt lat="44.42117987221531" lon="9.62346601612641"><ele>1059.0</ele><time>2026-04-19T08:41:44Z</time></trkpt><trkpt lat="44.42108421163187" lon="9.623490359123743"><ele>1059.6000000000001</ele><time>2026-04-19T08:41:45Z</time></trkpt><trkpt lat="44.42097453751144" lon="9.623516545131396"><ele>1060.2</ele><time>2026-04-19T08:41:46Z</time></trkpt><trkpt lat="44.42085927101666" lon="9.623542562166172"><ele>1060.8000000000002</ele><time>2026-04-19T08:41:47Z</time></trkpt><trkpt lat="44.42075328156255" lon="9.623582643055858"><ele>1061.4</ele><time>2026-04-19T08:41:48Z</time></trkpt><trkpt lat="44.42065882030651" lon="9.623655756828311"><ele>1062.0</ele><time>2026-04-19T08:41:49Z</time></trkpt><trkpt lat="44.42057788314225" lon="9.623763409268744"><ele>1062.0</ele><time>2026-04-19T08:41:50Z</time></trkpt><trkpt lat="44.42051191189635" lon="9.623869378218238"><ele>1062.0</ele><time>2026-04-19T08:41:51Z</time></trkpt><trkpt lat="44.42045899038026" lon="9.623975333147678"><ele>1062.0</ele><time>2026-04-19T08:41:52Z</time></trkpt><trkpt lat="44.42042060014515" lon="9.624088320944274"><ele>1062.0</ele><time>2026-04-19T08:41:53Z</time></trkpt><trkpt lat="44.42040936730321" lon="9.624228734398704"><ele>1062.0</ele><time>2026-04-19T08:41:54Z</time></trkpt><trkpt lat="44.42040983898027" lon="9.624375401289418"><ele>1058.0</ele><time>2026-04-19T08:41:55Z</time></trkpt><trkpt lat="44.42041473452638" lon="9.624524038035696"><ele>1054.0</ele><time>2026-04-19T08:41:56Z</time></trkpt><trkpt lat="44.42039645544516" lon="9.624662133849178"><ele>1050.0</ele><time>2026-04-19T08:41:57Z</time></trkpt><trkpt lat="44.42039514330121" lon="9.624794843703036"><ele>1046.0</ele><time>2026-04-19T08:41:58Z</time></trkpt><trkpt lat="44.42035455248355" lon="9.624923040193563"><ele>1042.0</ele><time>2026-04-19T08:41:59Z</time></trkpt><trkpt lat="44.420303109716784" lon="9.625038114975942"><ele>1042.0</ele><time>2026-04-19T08:42:00Z</time></trkpt><trkpt lat="44.42024819899669" lon="9.625149828313736"><ele>1042.0</ele><time>2026-04-19T08:42:01Z</time></trkpt><trkpt lat="44.42019775412181" lon="9.625254360888698"><ele>1042.0</ele><time>2026-04-19T08:42:02Z</time></trkpt><trkpt lat="44.42014017531866" lon="9.625354780896725"><ele>1042.0</ele><time>2026-04-19T08:42:03Z</time></trkpt><trkpt lat="44.420077108293995" lon="9.625423904991221"><ele>1042.0</ele><time>2026-04-19T08:42:04Z</time></trkpt><trkpt lat="44.42001488975481" lon="9.625462813304399"><ele>1042.0</ele><time>2026-04-19T08:42:05Z</time></trkpt><trkpt lat="44.419945556951944" lon="9.625477378287233"><ele>1040.8333333333333</ele><time>2026-04-19T08:42:06Z</time></trkpt><trkpt lat="44.41987371779308" lon="9.625471730081024"><ele>1039.6666666666665</ele><time>2026-04-19T08:42:07Z</time></trkpt><trkpt lat="44.419796708026894" lon="9.625452048902725"><ele>1038.5</ele><time>2026-04-19T08:42:08Z</time></trkpt><trkpt lat="44.41972637685488" lon="9.625451687618884"><ele>1037.3333333333333</ele><time>2026-04-19T08:42:09Z</time></trkpt><trkpt lat="44.41965711595352" lon="9.625498432671916"><ele>1036.1666666666667</ele><time>2026-04-19T08:42:10Z</time></trkpt><trkpt lat="44.41960371499876" lon="9.625573825545937"><ele>1035.0</ele><time>2026-04-19T08:42:11Z</time></trkpt><trkpt lat="44.4195668043513" lon="9.625676031795916"><ele>1035.0</ele><time>2026-04-19T08:42:12Z</time></trkpt><trkpt lat="44.41953014181584" lon="9.625760174229468"><ele>1035.0</ele><time>2026-04-19T08:42:13Z</time></trkpt><trkpt lat="44.41950110665281" lon="9.625910488353066"><ele>1035.0</ele><time>2026-04-19T08:42:15Z</time></trkpt><trkpt lat="44.41945853412868" lon="9.62599345487004"><ele>1035.0</ele><time>2026-04-19T08:42:16Z</time></trkpt><trkpt lat="44.41940438380862" lon="9.626089161800582"><ele>1035.0</ele><time>2026-04-19T08:42:17Z</time></trkpt><trkpt lat="44.41933787276191" lon="9.626179659519366"><ele>1035.0</ele><time>2026-04-19T08:42:18Z</time></trkpt><trkpt lat="44.41926842474136" lon="9.626254447930098"><ele>1033.5</ele><time>2026-04-19T08:42:19Z</time></trkpt><trkpt lat="44.419212233750244" lon="9.626296146678207"><ele>1032.0</ele><time>2026-04-19T08:42:20Z</time></trkpt><trkpt lat="44.41913403288636" lon="9.626336540815187"><ele>1030.5</ele><time>2026-04-19T08:42:22Z</time></trkpt><trkpt lat="44.4190279276353" lon="9.62638974316804"><ele>1029.0</ele><time>2026-04-19T08:42:24Z</time></trkpt><trkpt lat="44.418956579379355" lon="9.626428963179873"><ele>1027.5</ele><time>2026-04-19T08:42:25Z</time></trkpt><trkpt lat="44.41885767017524" lon="9.626481173829253"><ele>1026.0</ele><time>2026-04-19T08:42:26Z</time></trkpt><trkpt lat="44.4187465325925" lon="9.626533465638099"><ele>1026.0</ele><time>2026-04-19T08:42:27Z</time></trkpt><trkpt lat="44.41862331755184" lon="9.62659583952231"><ele>1026.0</ele><time>2026-04-19T08:42:28Z</time></trkpt><trkpt lat="44.418512599308364" lon="9.626670573503008"><ele>1026.0</ele><time>2026-04-19T08:42:29Z</time></trkpt><trkpt lat="44.41840131206366" lon="9.626787134103443"><ele>1026.0</ele><time>2026-04-19T08:42:30Z</time></trkpt><trkpt lat="44.41828992123259" lon="9.626919764393108"><ele>1024.0</ele><time>2026-04-19T08:42:31Z</time></trkpt><trkpt lat="44.418203264605474" lon="9.627074175130081"><ele>1022.0</ele><time>2026-04-19T08:42:32Z</time></trkpt><trkpt lat="44.41810078957316" lon="9.627241309688754"><ele>1020.0</ele><time>2026-04-19T08:42:33Z</time></trkpt><trkpt lat="44.41792890010388" lon="9.627332207612236"><ele>1020.0</ele><time>2026-04-19T08:42:34Z</time></trkpt><trkpt lat="44.417744755031386" lon="9.627458306950311"><ele>1020.0</ele><time>2026-04-19T08:42:35Z</time></trkpt><trkpt lat="44.41754858970444" lon="9.627570260447673"><ele>1020.0</ele><time>2026-04-19T08:42:36Z</time></trkpt><trkpt lat="44.417355978421945" lon="9.627604112311202"><ele>1020.0</ele><time>2026-04-19T08:42:37Z</time></trkpt><trkpt lat="44.417179863047465" lon="9.627619507078776"><ele>1020.0</ele><time>2026-04-19T08:42:38Z</time></trkpt><trkpt lat="44.41702953839347" lon="9.627627492843892"><ele>1020.0</ele><time>2026-04-19T08:42:39Z</time></trkpt><trkpt lat="44.4169129379373" lon="9.62769990951582"><ele>1019.5</ele><time>2026-04-19T08:42:40Z</time></trkpt><trkpt lat="44.41682466197311" lon="9.627815624877474"><ele>1019.0</ele><time>2026-04-19T08:42:41Z</time></trkpt><trkpt lat="44.41680157469855" lon="9.627988267142692"><ele>1018.5</ele><time>2026-04-19T08:42:42Z</time></trkpt><trkpt lat="44.41685380994224" lon="9.628178309495595"><ele>1018.0</ele><time>2026-04-19T08:42:43Z</time></trkpt><trkpt lat="44.41689456070706" lon="9.628349841408541"><ele>1018.0</ele><time>2026-04-19T08:42:44Z</time></trkpt><trkpt lat="44.41688815406571" lon="9.62847587449383"><ele>1018.0</ele><time>2026-04-19T08:42:45Z</time></trkpt><trkpt lat="44.416795541472986" lon="9.628524761657745"><ele>1018.0</ele><time>2026-04-19T08:42:46Z</time></trkpt><trkpt lat="44.41665843555214" lon="9.628535073554353"><ele>1018.0</ele><time>2026-04-19T08:42:47Z</time></trkpt><trkpt lat="44.41650211460828" lon="9.62851185278554"><ele>1018.0</ele><time>2026-04-19T08:42:48Z</time></trkpt><trkpt lat="44.416329945897736" lon="9.62848412574254"><ele>1018.0</ele><time>2026-04-19T08:42:49Z</time></trkpt><trkpt lat="44.41618375993324" lon="9.628539211139541"><ele>1018.0</ele><time>2026-04-19T08:42:50Z</time></trkpt><trkpt lat="44.416042849915954" lon="9.628676657578907"><ele>1014.6666666666666</ele><time>2026-04-19T08:42:51Z</time></trkpt><trkpt lat="44.41592274996002" lon="9.628860127450336"><ele>1011.3333333333333</ele><time>2026-04-19T08:42:52Z</time></trkpt><trkpt lat="44.41582039036054" lon="9.629043598396569"><ele>1008.0</ele><time>2026-04-19T08:42:53Z</time></trkpt><trkpt lat="44.41575227046047" lon="9.629239414247007"><ele>1010.6666666666667</ele><time>2026-04-19T08:42:54Z</time></trkpt><trkpt lat="44.41571226194742" lon="9.629524978712954"><ele>1013.3333333333334</ele><time>2026-04-19T08:42:55Z</time></trkpt><trkpt lat="44.41565891714684" lon="9.629772074855854"><ele>1016.0</ele><time>2026-04-19T08:42:56Z</time></trkpt><trkpt lat="44.415558096124535" lon="9.62995291022922"><ele>1015.6666666666667</ele><time>2026-04-19T08:42:57Z</time></trkpt><trkpt lat="44.41543914389872" lon="9.630092493023964"><ele>1015.3333333333333</ele><time>2026-04-19T08:42:58Z</time></trkpt><trkpt lat="44.41530250752261" lon="9.630216588267313"><ele>1015.0</ele><time>2026-04-19T08:42:59Z</time></trkpt><trkpt lat="44.41516410783449" lon="9.630311590754983"><ele>1015.0</ele><time>2026-04-19T08:43:00Z</time></trkpt><trkpt lat="44.41503226501284" lon="9.630341691268205"><ele>1015.0</ele><time>2026-04-19T08:43:01Z</time></trkpt><trkpt lat="44.41488294831376" lon="9.630290775427275"><ele>1015.0</ele><time>2026-04-19T08:43:02Z</time></trkpt><trkpt lat="44.41470967421859" lon="9.630332529383697"><ele>1014.0</ele><time>2026-04-19T08:43:03Z</time></trkpt><trkpt lat="44.41454792297457" lon="9.630429930450216"><ele>1013.0</ele><time>2026-04-19T08:43:04Z</time></trkpt><trkpt lat="44.414343158143886" lon="9.63043362159564"><ele>1012.0</ele><time>2026-04-19T08:43:05Z</time></trkpt><trkpt lat="44.414178141740955" lon="9.630389331046594"><ele>1012.0</ele><time>2026-04-19T08:43:06Z</time></trkpt><trkpt lat="44.414000365998746" lon="9.630364625946562"><ele>1012.0</ele><time>2026-04-19T08:43:07Z</time></trkpt><trkpt lat="44.41382013933836" lon="9.63031462820875"><ele>1012.0</ele><time>2026-04-19T08:43:08Z</time></trkpt><trkpt lat="44.413653294664364" lon="9.630240953058522"><ele>1007.25</ele><time>2026-04-19T08:43:09Z</time></trkpt><trkpt lat="44.41355085298394" lon="9.630140823373969"><ele>1002.5</ele><time>2026-04-19T08:43:10Z</time></trkpt><trkpt lat="44.41341572831855" lon="9.630023033308385"><ele>997.75</ele><time>2026-04-19T08:43:11Z</time></trkpt><trkpt lat="44.41330339842623" lon="9.629946566674048"><ele>993.0</ele><time>2026-04-19T08:43:12Z</time></trkpt><trkpt lat="44.413185721825734" lon="9.62995422374453"><ele>993.0</ele><time>2026-04-19T08:43:13Z</time></trkpt><trkpt lat="44.41306006116547" lon="9.630067444727002"><ele>993.0</ele><time>2026-04-19T08:43:14Z</time></trkpt><trkpt lat="44.412927584629465" lon="9.630203374314249"><ele>993.0</ele><time>2026-04-19T08:43:15Z</time></trkpt><trkpt lat="44.41276815509902" lon="9.630237969104423"><ele>991.0</ele><time>2026-04-19T08:43:16Z</time></trkpt><trkpt lat="44.41260150088703" lon="9.630194226622088"><ele>989.0</ele><time>2026-04-19T08:43:17Z</time></trkpt><trkpt lat="44.412417756254634" lon="9.630134019210258"><ele>987.0</ele><time>2026-04-19T08:43:18Z</time></trkpt><trkpt lat="44.41225484221833" lon="9.63007439118126"><ele>990.5</ele><time>2026-04-19T08:43:19Z</time></trkpt><trkpt lat="44.412122784280754" lon="9.63001076331379"><ele>994.0</ele><time>2026-04-19T08:43:20Z</time></trkpt><trkpt lat="44.41203186179706" lon="9.629913760552357"><ele>997.5</ele><time>2026-04-19T08:43:21Z</time></trkpt><trkpt lat="44.41197473796937" lon="9.629766418824602"><ele>1001.0</ele><time>2026-04-19T08:43:22Z</time></trkpt><trkpt lat="44.41188674774811" lon="9.629629066812237"><ele>1001.0</ele><time>2026-04-19T08:43:23Z</time></trkpt><trkpt lat="44.41180119547563" lon="9.629493948255254"><ele>1001.0</ele><time>2026-04-19T08:43:23.999Z</time></trkpt><trkpt lat="44.41165793957913" lon="9.629409780536767"><ele>1001.0</ele><time>2026-04-19T08:43:24.999Z</time></trkpt><trkpt lat="44.41149680202848" lon="9.62932090638962"><ele>996.0</ele><time>2026-04-19T08:43:25.999Z</time></trkpt><trkpt lat="44.41133517325826" lon="9.629209706349622"><ele>991.0</ele><time>2026-04-19T08:43:26.999Z</time></trkpt><trkpt lat="44.411161662228274" lon="9.629087775478013"><ele>986.0</ele><time>2026-04-19T08:43:27.999Z</time></trkpt><trkpt lat="44.41099151714797" lon="9.628995863196137"><ele>986.0</ele><time>2026-04-19T08:43:28.999Z</time></trkpt><trkpt lat="44.410818698068674" lon="9.62893518851637"><ele>986.0</ele><time>2026-04-19T08:43:29.999Z</time></trkpt><trkpt lat="44.41065099069492" lon="9.628918606488613"><ele>986.0</ele><time>2026-04-19T08:43:30.999Z</time></trkpt><trkpt lat="44.41051988974318" lon="9.628863909089644"><ele>987.0</ele><time>2026-04-19T08:43:31.999Z</time></trkpt><trkpt lat="44.410405835936466" lon="9.628799506927782"><ele>988.0</ele><time>2026-04-19T08:43:32.999Z</time></trkpt><trkpt lat="44.41034767841839" lon="9.628670305984231"><ele>989.0</ele><time>2026-04-19T08:43:33.999Z</time></trkpt><trkpt lat="44.41038943957989" lon="9.62845550692859"><ele>990.0</ele><time>2026-04-19T08:43:34.999Z</time></trkpt><trkpt lat="44.410340339429844" lon="9.628329126413622"><ele>987.0</ele><time>2026-04-19T08:43:36Z</time></trkpt><trkpt lat="44.41028507238782" lon="9.628186742693735"><ele>984.0</ele><time>2026-04-19T08:43:37Z</time></trkpt><trkpt lat="44.410177667026616" lon="9.62804884580202"><ele>981.0</ele><time>2026-04-19T08:43:38Z</time></trkpt><trkpt lat="44.410092287312466" lon="9.627879928806541"><ele>978.0</ele><time>2026-04-19T08:43:39Z</time></trkpt><trkpt lat="44.41007807956474" lon="9.627677187717484"><ele>974.3333333333333</ele><time>2026-04-19T08:43:40Z</time></trkpt><trkpt lat="44.41002923119453" lon="9.627453797871004"><ele>970.6666666666666</ele><time>2026-04-19T08:43:41Z</time></trkpt><trkpt lat="44.40996712802303" lon="9.627233682291044"><ele>967.0</ele><time>2026-04-19T08:43:42Z</time></trkpt><trkpt lat="44.40986443091026" lon="9.62700009468782"><ele>964.6666666666666</ele><time>2026-04-19T08:43:43Z</time></trkpt><trkpt lat="44.40973735659379" lon="9.626783795814609"><ele>962.3333333333333</ele><time>2026-04-19T08:43:44Z</time></trkpt><trkpt lat="44.40959480706411" lon="9.626628944447045"><ele>960.0</ele><time>2026-04-19T08:43:45Z</time></trkpt><trkpt lat="44.40943061941528" lon="9.626504684808358"><ele>960.0</ele><time>2026-04-19T08:43:46Z</time></trkpt><trkpt lat="44.40925711793381" lon="9.626420321687936"><ele>960.0</ele><time>2026-04-19T08:43:47Z</time></trkpt><trkpt lat="44.40909753908251" lon="9.626360787861602"><ele>960.0</ele><time>2026-04-19T08:43:48Z</time></trkpt><trkpt lat="44.40893255581591" lon="9.626360512156827"><ele>959.3333333333333</ele><time>2026-04-19T08:43:49Z</time></trkpt><trkpt lat="44.40877917926304" lon="9.62641669334678"><ele>958.6666666666666</ele><time>2026-04-19T08:43:50Z</time></trkpt><trkpt lat="44.40865190774858" lon="9.626541725741458"><ele>958.0</ele><time>2026-04-19T08:43:51Z</time></trkpt><trkpt lat="44.408536895105065" lon="9.626667662238141"><ele>958.0</ele><time>2026-04-19T08:43:52Z</time></trkpt><trkpt lat="44.40844312162975" lon="9.626742964122675"><ele>958.0</ele><time>2026-04-19T08:43:53Z</time></trkpt><trkpt lat="44.40835213482933" lon="9.626760838925392"><ele>958.0</ele><time>2026-04-19T08:43:54Z</time></trkpt><trkpt lat="44.40826229358884" lon="9.626690978192935"><ele>958.0</ele><time>2026-04-19T08:43:55Z</time></trkpt><trkpt lat="44.40822684499894" lon="9.626497587129478"><ele>958.0</ele><time>2026-04-19T08:43:56Z</time></trkpt><trkpt lat="44.408141298620194" lon="9.62628119728556"><ele>954.0</ele><time>2026-04-19T08:43:57Z</time></trkpt><trkpt lat="44.408015065911044" lon="9.626072006694235"><ele>950.0</ele><time>2026-04-19T08:43:58Z</time></trkpt><trkpt lat="44.40796302433456" lon="9.625819973281478"><ele>946.0</ele><time>2026-04-19T08:43:59Z</time></trkpt><trkpt lat="44.40791594468358" lon="9.625567810216063"><ele>951.6666666666666</ele><time>2026-04-19T08:44:00Z</time></trkpt><trkpt lat="44.40786286873777" lon="9.62533794893565"><ele>957.3333333333333</ele><time>2026-04-19T08:44:01Z</time></trkpt><trkpt lat="44.407842224080305" lon="9.625114439276588"><ele>963.0</ele><time>2026-04-19T08:44:02Z</time></trkpt><trkpt lat="44.40783054516107" lon="9.62491866543771"><ele>963.0</ele><time>2026-04-19T08:44:03Z</time></trkpt><trkpt lat="44.40789357732575" lon="9.624732793116348"><ele>963.0</ele><time>2026-04-19T08:44:04Z</time></trkpt><trkpt lat="44.407976871544456" lon="9.624535795906752"><ele>963.0</ele><time>2026-04-19T08:44:05Z</time></trkpt><trkpt lat="44.40806857583311" lon="9.624341466285415"><ele>954.3333333333333</ele><time>2026-04-19T08:44:06Z</time></trkpt><trkpt lat="44.4081174452915" lon="9.624110856674848"><ele>945.6666666666666</ele><time>2026-04-19T08:44:07Z</time></trkpt><trkpt lat="44.40812677103244" lon="9.623870218105614"><ele>937.0</ele><time>2026-04-19T08:44:08Z</time></trkpt><trkpt lat="44.40809679048988" lon="9.623627608299183"><ele>935.0</ele><time>2026-04-19T08:44:09Z</time></trkpt><trkpt lat="44.4080249264325" lon="9.623415569220569"><ele>933.0</ele><time>2026-04-19T08:44:10Z</time></trkpt><trkpt lat="44.40791587455085" lon="9.623246495972122"><ele>931.0</ele><time>2026-04-19T08:44:11Z</time></trkpt><trkpt lat="44.40779824477869" lon="9.62303557904967"><ele>933.6666666666666</ele><time>2026-04-19T08:44:12Z</time></trkpt><trkpt lat="44.40770956509548" lon="9.622835491698385"><ele>936.3333333333333</ele><time>2026-04-19T08:44:13Z</time></trkpt><trkpt lat="44.407582427810446" lon="9.622701302006858"><ele>939.0</ele><time>2026-04-19T08:44:14Z</time></trkpt><trkpt lat="44.40751438643457" lon="9.622529709975948"><ele>939.0</ele><time>2026-04-19T08:44:15Z</time></trkpt><trkpt lat="44.407517865081" lon="9.62233423560596"><ele>939.0</ele><time>2026-04-19T08:44:16Z</time></trkpt><trkpt lat="44.407489250272235" lon="9.62212596874753"><ele>939.0</ele><time>2026-04-19T08:44:17Z</time></trkpt><trkpt lat="44.40744778311373" lon="9.62192645546077"><ele>939.0</ele><time>2026-04-19T08:44:18Z</time></trkpt><trkpt lat="44.40732474838643" lon="9.621727974515654"><ele>941.6666666666667</ele><time>2026-04-19T08:44:19Z</time></trkpt><trkpt lat="44.407197944107274" lon="9.621523354999363"><ele>944.3333333333334</ele><time>2026-04-19T08:44:20Z</time></trkpt><trkpt lat="44.40708317682368" lon="9.621296192776605"><ele>947.0</ele><time>2026-04-19T08:44:21Z</time></trkpt><trkpt lat="44.40696806205595" lon="9.621045788792706"><ele>941.6666666666667</ele><time>2026-04-19T08:44:22Z</time></trkpt><trkpt lat="44.406838790466814" lon="9.620804687545986"><ele>936.3333333333333</ele><time>2026-04-19T08:44:23Z</time></trkpt><trkpt lat="44.40670951840602" lon="9.620646153992531"><ele>931.0</ele><time>2026-04-19T08:44:24Z</time></trkpt><trkpt lat="44.40652039118907" lon="9.620542313732505"><ele>934.3333333333333</ele><time>2026-04-19T08:44:25Z</time></trkpt><trkpt lat="44.40631869944838" lon="9.620438934431752"><ele>937.6666666666667</ele><time>2026-04-19T08:44:26Z</time></trkpt><trkpt lat="44.40614320710996" lon="9.620336901447544"><ele>941.0</ele><time>2026-04-19T08:44:27Z</time></trkpt><trkpt lat="44.405981669750446" lon="9.620207542146998"><ele>934.3333333333334</ele><time>2026-04-19T08:44:28Z</time></trkpt><trkpt lat="44.40582731447016" lon="9.620038662915595"><ele>927.6666666666667</ele><time>2026-04-19T08:44:29Z</time></trkpt><trkpt lat="44.4056741869815" lon="9.619874043668167"><ele>921.0</ele><time>2026-04-19T08:44:30Z</time></trkpt><trkpt lat="44.405536670525684" lon="9.619717886988816"><ele>921.3333333333333</ele><time>2026-04-19T08:44:31Z</time></trkpt><trkpt lat="44.40539491461972" lon="9.61961977244658"><ele>921.6666666666666</ele><time>2026-04-19T08:44:32Z</time></trkpt><trkpt lat="44.40523913353104" lon="9.61955667203857"><ele>922.0</ele><time>2026-04-19T08:44:33Z</time></trkpt><trkpt lat="44.40508412396931" lon="9.619566520620111"><ele>922.0</ele><time>2026-04-19T08:44:34Z</time></trkpt><trkpt lat="44.40493277040444" lon="9.619661634100872"><ele>922.0</ele><time>2026-04-19T08:44:35Z</time></trkpt><trkpt lat="44.404785913604286" lon="9.619791568761045"><ele>922.0</ele><time>2026-04-19T08:44:36Z</time></trkpt><trkpt lat="44.4046135402086" lon="9.619828652869534"><ele>921.0</ele><time>2026-04-19T08:44:37Z</time></trkpt><trkpt lat="44.40443357859964" lon="9.61984762717662"><ele>920.0</ele><time>2026-04-19T08:44:38Z</time></trkpt><trkpt lat="44.40427101668227" lon="9.61979608650795"><ele>919.0</ele><time>2026-04-19T08:44:39Z</time></trkpt><trkpt lat="44.40415204740021" lon="9.619731333586113"><ele>919.0</ele><time>2026-04-19T08:44:40Z</time></trkpt><trkpt lat="44.40401539637768" lon="9.61958284235455"><ele>919.0</ele><time>2026-04-19T08:44:41Z</time></trkpt><trkpt lat="44.4038650470456" lon="9.61941184902278"><ele>919.0</ele><time>2026-04-19T08:44:42Z</time></trkpt><trkpt lat="44.403730854987494" lon="9.619206121004847"><ele>917.6666666666666</ele><time>2026-04-19T08:44:43Z</time></trkpt><trkpt lat="44.40360129352153" lon="9.619022527005287"><ele>916.3333333333333</ele><time>2026-04-19T08:44:44Z</time></trkpt><trkpt lat="44.40346519551186" lon="9.618884269313934"><ele>915.0</ele><time>2026-04-19T08:44:45Z</time></trkpt><trkpt lat="44.40331216930793" lon="9.618813833856287"><ele>915.0</ele><time>2026-04-19T08:44:46Z</time></trkpt><trkpt lat="44.40315189553145" lon="9.618848299021712"><ele>915.0</ele><time>2026-04-19T08:44:47Z</time></trkpt><trkpt lat="44.40299115641964" lon="9.61893338184279"><ele>915.0</ele><time>2026-04-19T08:44:48Z</time></trkpt><trkpt lat="44.40283200688387" lon="9.618896439648028"><ele>918.3333333333333</ele><time>2026-04-19T08:44:49Z</time></trkpt><trkpt lat="44.4026653541938" lon="9.618783200475633"><ele>921.6666666666666</ele><time>2026-04-19T08:44:50Z</time></trkpt><trkpt lat="44.40252312498162" lon="9.618622985661347"><ele>925.0</ele><time>2026-04-19T08:44:51Z</time></trkpt><trkpt lat="44.40242453369672" lon="9.618426426455045"><ele>918.0</ele><time>2026-04-19T08:44:52Z</time></trkpt><trkpt lat="44.40239557212383" lon="9.618195127820105"><ele>911.0</ele><time>2026-04-19T08:44:53Z</time></trkpt><trkpt lat="44.40238997429683" lon="9.61791969110891"><ele>904.0</ele><time>2026-04-19T08:44:54Z</time></trkpt><trkpt lat="44.40234306986723" lon="9.61763590609753"><ele>900.0</ele><time>2026-04-19T08:44:55Z</time></trkpt><trkpt lat="44.40227678117638" lon="9.617359729756517"><ele>896.0</ele><time>2026-04-19T08:44:56Z</time></trkpt><trkpt lat="44.40220186437467" lon="9.61712536872319"><ele>892.0</ele><time>2026-04-19T08:44:57Z</time></trkpt><trkpt lat="44.40213802722422" lon="9.616933958149755"><ele>890.0</ele><time>2026-04-19T08:44:58Z</time></trkpt><trkpt lat="44.40206326847454" lon="9.616791113896914"><ele>888.0</ele><time>2026-04-19T08:44:59Z</time></trkpt><trkpt lat="44.40195511480939" lon="9.61672103454109"><ele>886.0</ele><time>2026-04-19T08:45:00Z</time></trkpt><trkpt lat="44.401824823214874" lon="9.61672042778067"><ele>884.0</ele><time>2026-04-19T08:45:01Z</time></trkpt><trkpt lat="44.4016659955652" lon="9.61677785139457"><ele>884.0</ele><time>2026-04-19T08:45:02Z</time></trkpt><trkpt lat="44.40151871989117" lon="9.616854818268264"><ele>884.0</ele><time>2026-04-19T08:45:03Z</time></trkpt><trkpt lat="44.40139738943022" lon="9.616949479243473"><ele>884.0</ele><time>2026-04-19T08:45:04Z</time></trkpt><trkpt lat="44.401304268210936" lon="9.617142867378785"><ele>887.0</ele><time>2026-04-19T08:45:05Z</time></trkpt><trkpt lat="44.40123732522577" lon="9.617388464901962"><ele>890.0</ele><time>2026-04-19T08:45:06Z</time></trkpt><trkpt lat="44.40115636048396" lon="9.617638420298329"><ele>893.0</ele><time>2026-04-19T08:45:07Z</time></trkpt><trkpt lat="44.4010621276368" lon="9.617886810669109"><ele>893.0</ele><time>2026-04-19T08:45:08Z</time></trkpt><trkpt lat="44.40093179571166" lon="9.61810806002001"><ele>893.0</ele><time>2026-04-19T08:45:09Z</time></trkpt><trkpt lat="44.40078132223375" lon="9.618291516008423"><ele>893.0</ele><time>2026-04-19T08:45:10Z</time></trkpt><trkpt lat="44.40062355499102" lon="9.618437098894159"><ele>890.3333333333334</ele><time>2026-04-19T08:45:11Z</time></trkpt><trkpt lat="44.40046188968732" lon="9.618542689001092"><ele>887.6666666666667</ele><time>2026-04-19T08:45:12Z</time></trkpt><trkpt lat="44.40027695733209" lon="9.618603412223683"><ele>885.0</ele><time>2026-04-19T08:45:13Z</time></trkpt><trkpt lat="44.400100306688316" lon="9.618604495438081"><ele>885.0</ele><time>2026-04-19T08:45:14Z</time></trkpt><trkpt lat="44.39992159090528" lon="9.61856422762433"><ele>885.0</ele><time>2026-04-19T08:45:15Z</time></trkpt><trkpt lat="44.39974487651176" lon="9.61845987338676"><ele>885.0</ele><time>2026-04-19T08:45:16Z</time></trkpt><trkpt lat="44.39954904470287" lon="9.618389961906804"><ele>885.6666666666667</ele><time>2026-04-19T08:45:17Z</time></trkpt><trkpt lat="44.39934513419033" lon="9.618350630068836"><ele>886.3333333333334</ele><time>2026-04-19T08:45:18Z</time></trkpt><trkpt lat="44.39916275079065" lon="9.618305883523858"><ele>887.0</ele><time>2026-04-19T08:45:19Z</time></trkpt><trkpt lat="44.398985607963496" lon="9.618234870500721"><ele>890.0</ele><time>2026-04-19T08:45:20Z</time></trkpt><trkpt lat="44.3988144151691" lon="9.618081216566063"><ele>893.0</ele><time>2026-04-19T08:45:21Z</time></trkpt><trkpt lat="44.39863848165665" lon="9.61789819872508"><ele>896.0</ele><time>2026-04-19T08:45:22Z</time></trkpt><trkpt lat="44.39849014345284" lon="9.617703107095936"><ele>895.6666666666667</ele><time>2026-04-19T08:45:23Z</time></trkpt><trkpt lat="44.39832320973105" lon="9.617557230829178"><ele>895.3333333333333</ele><time>2026-04-19T08:45:24Z</time></trkpt><trkpt lat="44.3981340310913" lon="9.617447981864515"><ele>895.0</ele><time>2026-04-19T08:45:25Z</time></trkpt><trkpt lat="44.397965292768426" lon="9.61729360167192"><ele>895.0</ele><time>2026-04-19T08:45:26Z</time></trkpt><trkpt lat="44.397805017356234" lon="9.617129960609219"><ele>895.0</ele><time>2026-04-19T08:45:27Z</time></trkpt><trkpt lat="44.39762889595706" lon="9.617027124805006"><ele>895.0</ele><time>2026-04-19T08:45:28Z</time></trkpt><trkpt lat="44.39743456787069" lon="9.616921836583064"><ele>891.0</ele><time>2026-04-19T08:45:29Z</time></trkpt><trkpt lat="44.39729116907626" lon="9.616731483339322"><ele>887.0</ele><time>2026-04-19T08:45:30Z</time></trkpt><trkpt lat="44.39713936735445" lon="9.616536658188714"><ele>883.0</ele><time>2026-04-19T08:45:31Z</time></trkpt><trkpt lat="44.39694953693262" lon="9.61640590791504"><ele>883.0</ele><time>2026-04-19T08:45:32Z</time></trkpt><trkpt lat="44.39673950606802" lon="9.616308671328898"><ele>883.0</ele><time>2026-04-19T08:45:33Z</time></trkpt><trkpt lat="44.39655261329211" lon="9.616181636708369"><ele>883.0</ele><time>2026-04-19T08:45:34Z</time></trkpt><trkpt lat="44.396393911161304" lon="9.616009537010017"><ele>876.3333333333333</ele><time>2026-04-19T08:45:35Z</time></trkpt><trkpt lat="44.39623283203701" lon="9.61582036054277"><ele>869.6666666666667</ele><time>2026-04-19T08:45:36Z</time></trkpt><trkpt lat="44.396088935095214" lon="9.61562951626941"><ele>863.0</ele><time>2026-04-19T08:45:37Z</time></trkpt><trkpt lat="44.39593786010705" lon="9.615461210035493"><ele>856.6666666666667</ele><time>2026-04-19T08:45:38Z</time></trkpt><trkpt lat="44.39580787906349" lon="9.615313762727894"><ele>850.3333333333333</ele><time>2026-04-19T08:45:39Z</time></trkpt><trkpt lat="44.39567072874972" lon="9.615198537939865"><ele>844.0</ele><time>2026-04-19T08:45:39.999Z</time></trkpt><trkpt lat="44.39555115456972" lon="9.615131737885177"><ele>843.5</ele><time>2026-04-19T08:45:40.999Z</time></trkpt><trkpt lat="44.39543785590713" lon="9.61512074505655"><ele>843.0</ele><time>2026-04-19T08:45:42.001Z</time></trkpt><trkpt lat="44.395315791265006" lon="9.615178896377712"><ele>842.5</ele><time>2026-04-19T08:45:43.001Z</time></trkpt><trkpt lat="44.39519026606911" lon="9.615321611875759"><ele>842.0</ele><time>2026-04-19T08:45:44.001Z</time></trkpt><trkpt lat="44.39507555457045" lon="9.615490679283527"><ele>843.5</ele><time>2026-04-19T08:45:45.001Z</time></trkpt><trkpt lat="44.395015183666914" lon="9.615656287868013"><ele>845.0</ele><time>2026-04-19T08:45:46.001Z</time></trkpt><trkpt lat="44.3950214463316" lon="9.615840349475945"><ele>846.5</ele><time>2026-04-19T08:45:47.001Z</time></trkpt><trkpt lat="44.39508245116109" lon="9.616008235910584"><ele>848.0</ele><time>2026-04-19T08:45:48.001Z</time></trkpt><trkpt lat="44.39509582147122" lon="9.616135384277445"><ele>848.0</ele><time>2026-04-19T08:45:49.001Z</time></trkpt><trkpt lat="44.39502743285365" lon="9.616226380720601"><ele>848.0</ele><time>2026-04-19T08:45:50Z</time></trkpt><trkpt lat="44.39490141045056" lon="9.616168582640725"><ele>848.0</ele><time>2026-04-19T08:45:51Z</time></trkpt><trkpt lat="44.39484560664587" lon="9.616046196553084"><ele>848.0</ele><time>2026-04-19T08:45:52Z</time></trkpt><trkpt lat="44.39488621577571" lon="9.61589229059784"><ele>848.0</ele><time>2026-04-19T08:45:53Z</time></trkpt><trkpt lat="44.39490060391538" lon="9.615664033817232"><ele>848.0</ele><time>2026-04-19T08:45:54Z</time></trkpt><trkpt lat="44.39491660038815" lon="9.615442102225975"><ele>848.0</ele><time>2026-04-19T08:45:55Z</time></trkpt><trkpt lat="44.39493660169684" lon="9.615195464061916"><ele>848.0</ele><time>2026-04-19T08:45:56Z</time></trkpt><trkpt lat="44.394970247375376" lon="9.614953736659405"><ele>846.0</ele><time>2026-04-19T08:45:57Z</time></trkpt><trkpt lat="44.39505833338504" lon="9.61473851384457"><ele>844.0</ele><time>2026-04-19T08:45:58Z</time></trkpt><trkpt lat="44.39518015010491" lon="9.614600620389279"><ele>842.0</ele><time>2026-04-19T08:45:59Z</time></trkpt><trkpt lat="44.39531055666108" lon="9.614533374362496"><ele>839.4000000000001</ele><time>2026-04-19T08:46:00Z</time></trkpt><trkpt lat="44.395418823839265" lon="9.61442462520546"><ele>836.8000000000001</ele><time>2026-04-19T08:46:01Z</time></trkpt><trkpt lat="44.39547324981283" lon="9.614355705060651"><ele>834.2</ele><time>2026-04-19T08:46:02Z</time></trkpt><trkpt lat="44.39548212941846" lon="9.614212625351001"><ele>831.6</ele><time>2026-04-19T08:46:03Z</time></trkpt><trkpt lat="44.395413387211065" lon="9.614110246084138"><ele>829.0</ele><time>2026-04-19T08:46:04Z</time></trkpt><trkpt lat="44.395296984233894" lon="9.614050306246222"><ele>829.0</ele><time>2026-04-19T08:46:05Z</time></trkpt><trkpt lat="44.395163749470555" lon="9.614124725507423"><ele>829.0</ele><time>2026-04-19T08:46:06Z</time></trkpt><trkpt lat="44.39506265086608" lon="9.614257988762358"><ele>829.0</ele><time>2026-04-19T08:46:07Z</time></trkpt><trkpt lat="44.394931410629006" lon="9.614405070454799"><ele>823.3333333333333</ele><time>2026-04-19T08:46:08Z</time></trkpt><trkpt lat="44.394670418942994" lon="9.614638746188549"><ele>817.6666666666667</ele><time>2026-04-19T08:46:10Z</time></trkpt><trkpt lat="44.3946020711097" lon="9.61480584129685"><ele>812.0</ele><time>2026-04-19T08:46:11Z</time></trkpt><trkpt lat="44.394611270427575" lon="9.614970210015215"><ele>812.0</ele><time>2026-04-19T08:46:12Z</time></trkpt><trkpt lat="44.39462543378464" lon="9.615179211841674"><ele>812.0</ele><time>2026-04-19T08:46:13Z</time></trkpt><trkpt lat="44.39462013801106" lon="9.615409581260796"><ele>812.0</ele><time>2026-04-19T08:46:14Z</time></trkpt><trkpt lat="44.394560470022725" lon="9.61563400334743"><ele>816.3333333333334</ele><time>2026-04-19T08:46:15Z</time></trkpt><trkpt lat="44.39444134881261" lon="9.615792592786912"><ele>820.6666666666667</ele><time>2026-04-19T08:46:16Z</time></trkpt><trkpt lat="44.39429987445979" lon="9.615915053404128"><ele>825.0</ele><time>2026-04-19T08:46:17Z</time></trkpt><trkpt lat="44.39412521512996" lon="9.615932757921593"><ele>825.0</ele><time>2026-04-19T08:46:18Z</time></trkpt><trkpt lat="44.39393464382649" lon="9.615931224089989"><ele>825.0</ele><time>2026-04-19T08:46:19Z</time></trkpt><trkpt lat="44.39369433866651" lon="9.615961779090272"><ele>825.0</ele><time>2026-04-19T08:46:20Z</time></trkpt><trkpt lat="44.39347815173971" lon="9.615978684693372"><ele>821.6666666666667</ele><time>2026-04-19T08:46:21Z</time></trkpt><trkpt lat="44.39326599424165" lon="9.616062423682273"><ele>818.3333333333334</ele><time>2026-04-19T08:46:22Z</time></trkpt><trkpt lat="44.39306713479237" lon="9.616117820386576"><ele>815.0</ele><time>2026-04-19T08:46:23Z</time></trkpt><trkpt lat="44.392866249695594" lon="9.616179392131858"><ele>814.6666666666667</ele><time>2026-04-19T08:46:24Z</time></trkpt><trkpt lat="44.392658127426394" lon="9.616241372472958"><ele>814.3333333333333</ele><time>2026-04-19T08:46:25Z</time></trkpt><trkpt lat="44.39245882613922" lon="9.616296603315382"><ele>814.0</ele><time>2026-04-19T08:46:26Z</time></trkpt><trkpt lat="44.39226574728765" lon="9.616352077868603"><ele>810.3333333333333</ele><time>2026-04-19T08:46:27Z</time></trkpt><trkpt lat="44.392076961219146" lon="9.616372369144791"><ele>806.6666666666667</ele><time>2026-04-19T08:46:28Z</time></trkpt><trkpt lat="44.391890202173876" lon="9.61639018179271"><ele>803.0</ele><time>2026-04-19T08:46:29Z</time></trkpt><trkpt lat="44.391709871446544" lon="9.61641197738917"><ele>803.0</ele><time>2026-04-19T08:46:30Z</time></trkpt><trkpt lat="44.3915318291778" lon="9.616435014379764"><ele>803.0</ele><time>2026-04-19T08:46:31Z</time></trkpt><trkpt lat="44.39135034557839" lon="9.616465361031738"><ele>803.0</ele><time>2026-04-19T08:46:32Z</time></trkpt><trkpt lat="44.391174795116896" lon="9.616464082103699"><ele>799.3333333333334</ele><time>2026-04-19T08:46:33Z</time></trkpt><trkpt lat="44.39100507126507" lon="9.616484721601884"><ele>795.6666666666667</ele><time>2026-04-19T08:46:34Z</time></trkpt><trkpt lat="44.39083672096692" lon="9.616502273007551"><ele>792.0</ele><time>2026-04-19T08:46:35Z</time></trkpt><trkpt lat="44.39067144739084" lon="9.616471125741885"><ele>792.0</ele><time>2026-04-19T08:46:36Z</time></trkpt><trkpt lat="44.39050804056685" lon="9.616361194573546"><ele>792.0</ele><time>2026-04-19T08:46:37Z</time></trkpt><trkpt lat="44.390305067630855" lon="9.616212998460231"><ele>792.0</ele><time>2026-04-19T08:46:38Z</time></trkpt><trkpt lat="44.39011845726935" lon="9.61607214432763"><ele>792.75</ele><time>2026-04-19T08:46:39Z</time></trkpt><trkpt lat="44.38995859038468" lon="9.615954278872108"><ele>793.5</ele><time>2026-04-19T08:46:40Z</time></trkpt><trkpt lat="44.389838307139655" lon="9.615853517419138"><ele>794.25</ele><time>2026-04-19T08:46:41Z</time></trkpt><trkpt lat="44.389747783989684" lon="9.6157474303353"><ele>795.0</ele><time>2026-04-19T08:46:42Z</time></trkpt><trkpt lat="44.38970514058235" lon="9.615603460902491"><ele>795.0</ele><time>2026-04-19T08:46:43Z</time></trkpt><trkpt lat="44.38970841991343" lon="9.615437381238612"><ele>795.0</ele><time>2026-04-19T08:46:44Z</time></trkpt><trkpt lat="44.38979605043637" lon="9.615317590745367"><ele>795.0</ele><time>2026-04-19T08:46:45Z</time></trkpt><trkpt lat="44.389944499616725" lon="9.615272062252936"><ele>795.0</ele><time>2026-04-19T08:46:46Z</time></trkpt><trkpt lat="44.39012473317532" lon="9.615237661227207"><ele>793.6666666666667</ele><time>2026-04-19T08:46:47Z</time></trkpt><trkpt lat="44.39030199721118" lon="9.615245293408114"><ele>792.3333333333334</ele><time>2026-04-19T08:46:48Z</time></trkpt><trkpt lat="44.39045184110642" lon="9.615308876490712"><ele>791.0</ele><time>2026-04-19T08:46:49Z</time></trkpt><trkpt lat="44.39059564948525" lon="9.615456032966854"><ele>791.0</ele><time>2026-04-19T08:46:50Z</time></trkpt><trkpt lat="44.390766151244854" lon="9.615613222010456"><ele>791.0</ele><time>2026-04-19T08:46:51Z</time></trkpt><trkpt lat="44.39090633590574" lon="9.615680159887418"><ele>791.0</ele><time>2026-04-19T08:46:52Z</time></trkpt><trkpt lat="44.39105815367021" lon="9.615684264625726"><ele>791.0</ele><time>2026-04-19T08:46:53Z</time></trkpt><trkpt lat="44.39121152916139" lon="9.615586254189944"><ele>791.0</ele><time>2026-04-19T08:46:54Z</time></trkpt><trkpt lat="44.391364940933364" lon="9.615407336074512"><ele>791.0</ele><time>2026-04-19T08:46:55Z</time></trkpt><trkpt lat="44.39154893660566" lon="9.6152314888592"><ele>786.0</ele><time>2026-04-19T08:46:56Z</time></trkpt><trkpt lat="44.391725280406824" lon="9.615067170154624"><ele>781.0</ele><time>2026-04-19T08:46:57Z</time></trkpt><trkpt lat="44.39188746925765" lon="9.614921857837626"><ele>776.0</ele><time>2026-04-19T08:46:58Z</time></trkpt><trkpt lat="44.39202285616431" lon="9.614776041922816"><ele>776.0</ele><time>2026-04-19T08:46:59Z</time></trkpt><trkpt lat="44.39214622400912" lon="9.614665998011658"><ele>776.0</ele><time>2026-04-19T08:47:00Z</time></trkpt><trkpt lat="44.39225191683872" lon="9.614565156058774"><ele>776.0</ele><time>2026-04-19T08:47:01Z</time></trkpt><trkpt lat="44.39234782438014" lon="9.614474115786289"><ele>776.0</ele><time>2026-04-19T08:47:02Z</time></trkpt><trkpt lat="44.392418274414155" lon="9.614375302355292"><ele>776.0</ele><time>2026-04-19T08:47:03Z</time></trkpt><trkpt lat="44.39244492625081" lon="9.614265199291165"><ele>776.0</ele><time>2026-04-19T08:47:04Z</time></trkpt><trkpt lat="44.392444431039735" lon="9.614114838535015"><ele>776.0</ele><time>2026-04-19T08:47:05Z</time></trkpt><trkpt lat="44.392397050072034" lon="9.61400705761834"><ele>776.0</ele><time>2026-04-19T08:47:06Z</time></trkpt><trkpt lat="44.39231016803467" lon="9.61394654687742"><ele>776.0</ele><time>2026-04-19T08:47:07Z</time></trkpt><trkpt lat="44.39222212860793" lon="9.613900093781375"><ele>773.1999999999999</ele><time>2026-04-19T08:47:08Z</time></trkpt><trkpt lat="44.39211590676129" lon="9.613891775968373"><ele>770.4</ele><time>2026-04-19T08:47:09Z</time></trkpt><trkpt lat="44.3920085650681" lon="9.61393053460512"><ele>767.6</ele><time>2026-04-19T08:47:10Z</time></trkpt><trkpt lat="44.39193190778576" lon="9.614000720546269"><ele>764.8</ele><time>2026-04-19T08:47:11Z</time></trkpt><trkpt lat="44.39184529363627" lon="9.614011391743334"><ele>762.0</ele><time>2026-04-19T08:47:12Z</time></trkpt><trkpt lat="44.3917623314091" lon="9.614051630828488"><ele>762.0</ele><time>2026-04-19T08:47:13Z</time></trkpt><trkpt lat="44.391666529094834" lon="9.614094879732109"><ele>762.0</ele><time>2026-04-19T08:47:14Z</time></trkpt><trkpt lat="44.3915714060499" lon="9.614154542166462"><ele>762.0</ele><time>2026-04-19T08:47:15Z</time></trkpt><trkpt lat="44.39147379795062" lon="9.614262059317667"><ele>762.0</ele><time>2026-04-19T08:47:16Z</time></trkpt><trkpt lat="44.391392703167185" lon="9.614416859771795"><ele>763.4000000000001</ele><time>2026-04-19T08:47:17Z</time></trkpt><trkpt lat="44.39133070337488" lon="9.614566669248923"><ele>764.8000000000001</ele><time>2026-04-19T08:47:18Z</time></trkpt><trkpt lat="44.3912608349145" lon="9.614697513020234"><ele>766.2</ele><time>2026-04-19T08:47:19Z</time></trkpt><trkpt lat="44.39121714019068" lon="9.614829771080736"><ele>767.6</ele><time>2026-04-19T08:47:20Z</time></trkpt><trkpt lat="44.39114088279152" lon="9.614893671850618"><ele>769.0</ele><time>2026-04-19T08:47:21Z</time></trkpt><trkpt lat="44.3910693246736" lon="9.614923123048325"><ele>769.0</ele><time>2026-04-19T08:47:22Z</time></trkpt><trkpt lat="44.390981089305605" lon="9.614913084238811"><ele>769.0</ele><time>2026-04-19T08:47:23Z</time></trkpt><trkpt lat="44.39087875551767" lon="9.61483927022776"><ele>769.0</ele><time>2026-04-19T08:47:24Z</time></trkpt><trkpt lat="44.39076926161694" lon="9.6147040822281"><ele>769.0</ele><time>2026-04-19T08:47:25Z</time></trkpt><trkpt lat="44.3906389157475" lon="9.614517366887814"><ele>765.6666666666666</ele><time>2026-04-19T08:47:26Z</time></trkpt><trkpt lat="44.39051467654619" lon="9.614315281923538"><ele>762.3333333333333</ele><time>2026-04-19T08:47:27Z</time></trkpt><trkpt lat="44.39041606920614" lon="9.614107717855662"><ele>759.0</ele><time>2026-04-19T08:47:28Z</time></trkpt><trkpt lat="44.39033487618169" lon="9.613964818781243"><ele>759.0</ele><time>2026-04-19T08:47:29Z</time></trkpt><trkpt lat="44.39022419504267" lon="9.613811332452418"><ele>759.0</ele><time>2026-04-19T08:47:30Z</time></trkpt><trkpt lat="44.39010821686048" lon="9.613704423246853"><ele>759.0</ele><time>2026-04-19T08:47:31Z</time></trkpt><trkpt lat="44.38999717186485" lon="9.613638279445667"><ele>759.0</ele><time>2026-04-19T08:47:32Z</time></trkpt><trkpt lat="44.38987176977187" lon="9.613656605404607"><ele>759.0</ele><time>2026-04-19T08:47:32.999Z</time></trkpt><trkpt lat="44.38974318554612" lon="9.613765339283065"><ele>759.0</ele><time>2026-04-19T08:47:33.999Z</time></trkpt><trkpt lat="44.38962043869262" lon="9.613957535845406"><ele>759.0</ele><time>2026-04-19T08:47:34.999Z</time></trkpt><trkpt lat="44.38948116081904" lon="9.614130503013726"><ele>753.3333333333334</ele><time>2026-04-19T08:47:35.999Z</time></trkpt><trkpt lat="44.38936080161103" lon="9.614219654878918"><ele>747.6666666666667</ele><time>2026-04-19T08:47:36.999Z</time></trkpt><trkpt lat="44.38921759829871" lon="9.614301060768"><ele>742.0</ele><time>2026-04-19T08:47:37.999Z</time></trkpt><trkpt lat="44.38907130847681" lon="9.61440315422506"><ele>742.0</ele><time>2026-04-19T08:47:38.999Z</time></trkpt><trkpt lat="44.388922525842624" lon="9.61454586463311"><ele>742.0</ele><time>2026-04-19T08:47:39.999Z</time></trkpt><trkpt lat="44.38879448236186" lon="9.614679321540905"><ele>742.0</ele><time>2026-04-19T08:47:40.999Z</time></trkpt><trkpt lat="44.38863993275106" lon="9.614716187261974"><ele>742.0</ele><time>2026-04-19T08:47:41.999Z</time></trkpt><trkpt lat="44.388502239587396" lon="9.614737704615006"><ele>742.0</ele><time>2026-04-19T08:47:42.999Z</time></trkpt><trkpt lat="44.3883704701572" lon="9.614746677235125"><ele>742.0</ele><time>2026-04-19T08:47:43.999Z</time></trkpt><trkpt lat="44.38828203050305" lon="9.614832780965349"><ele>742.0</ele><time>2026-04-19T08:47:44.999Z</time></trkpt><trkpt lat="44.38819827000062" lon="9.615007068589131"><ele>742.0</ele><time>2026-04-19T08:47:45.999Z</time></trkpt><trkpt lat="44.38815948334383" lon="9.61525338035533"><ele>742.0</ele><time>2026-04-19T08:47:46.999Z</time></trkpt><trkpt lat="44.38812618406196" lon="9.615518021722387"><ele>742.0</ele><time>2026-04-19T08:47:48.001Z</time></trkpt><trkpt lat="44.38813238470892" lon="9.615770444614688"><ele>744.3333333333334</ele><time>2026-04-19T08:47:49.001Z</time></trkpt><trkpt lat="44.388160888581744" lon="9.616020426902676"><ele>746.6666666666666</ele><time>2026-04-19T08:47:50.001Z</time></trkpt><trkpt lat="44.38816364819777" lon="9.616246350968092"><ele>749.0</ele><time>2026-04-19T08:47:51.001Z</time></trkpt><trkpt lat="44.38816521359312" lon="9.616423028617769"><ele>746.2</ele><time>2026-04-19T08:47:52.001Z</time></trkpt><trkpt lat="44.388133452289" lon="9.616535635238899"><ele>743.4000000000001</ele><time>2026-04-19T08:47:53.001Z</time></trkpt><trkpt lat="44.38805377271759" lon="9.616598643888405"><ele>740.6</ele><time>2026-04-19T08:47:54.001Z</time></trkpt><trkpt lat="44.387967680252736" lon="9.616582027012324"><ele>737.8</ele><time>2026-04-19T08:47:55.001Z</time></trkpt><trkpt lat="44.387914545417395" lon="9.616461787865298"><ele>735.0</ele><time>2026-04-19T08:47:56.001Z</time></trkpt><trkpt lat="44.38792598951026" lon="9.616267911149613"><ele>730.6666666666666</ele><time>2026-04-19T08:47:57.001Z</time></trkpt><trkpt lat="44.387942825573504" lon="9.616044555628063"><ele>726.3333333333333</ele><time>2026-04-19T08:47:58.001Z</time></trkpt><trkpt lat="44.38795637229439" lon="9.615847941211"><ele>722.0</ele><time>2026-04-19T08:47:59.001Z</time></trkpt><trkpt lat="44.38791730385182" lon="9.61562751485456"><ele>722.0</ele><time>2026-04-19T08:48:00.001Z</time></trkpt><trkpt lat="44.38783367941873" lon="9.615353428776043"><ele>722.0</ele><time>2026-04-19T08:48:01.001Z</time></trkpt><trkpt lat="44.38771364307566" lon="9.615089674565478"><ele>722.0</ele><time>2026-04-19T08:48:02.001Z</time></trkpt><trkpt lat="44.38755275102475" lon="9.614847085894374"><ele>722.6666666666666</ele><time>2026-04-19T08:48:03.001Z</time></trkpt><trkpt lat="44.387435757423724" lon="9.614642780382564"><ele>723.3333333333334</ele><time>2026-04-19T08:48:04Z</time></trkpt><trkpt lat="44.38733761995663" lon="9.614461322684361"><ele>724.0</ele><time>2026-04-19T08:48:05Z</time></trkpt><trkpt lat="44.38722812328533" lon="9.614298464309275"><ele>721.3333333333334</ele><time>2026-04-19T08:48:06Z</time></trkpt><trkpt lat="44.38712818511652" lon="9.614124184485215"><ele>718.6666666666666</ele><time>2026-04-19T08:48:07Z</time></trkpt><trkpt lat="44.38700644646542" lon="9.614011168560934"><ele>716.0</ele><time>2026-04-19T08:48:08Z</time></trkpt><trkpt lat="44.38682756069325" lon="9.613985970402618"><ele>716.0</ele><time>2026-04-19T08:48:09Z</time></trkpt><trkpt lat="44.386686245776865" lon="9.613935262555612"><ele>716.0</ele><time>2026-04-19T08:48:10Z</time></trkpt><trkpt lat="44.38658159466442" lon="9.613843651501515"><ele>716.0</ele><time>2026-04-19T08:48:11Z</time></trkpt><trkpt lat="44.386561829648194" lon="9.613683254615635"><ele>716.0</ele><time>2026-04-19T08:48:12Z</time></trkpt><trkpt lat="44.38653346989901" lon="9.61349376451298"><ele>713.6666666666666</ele><time>2026-04-19T08:48:13Z</time></trkpt><trkpt lat="44.386473718156786" lon="9.613295912143746"><ele>711.3333333333334</ele><time>2026-04-19T08:48:14Z</time></trkpt><trkpt lat="44.38637336181958" lon="9.613101713579795"><ele>709.0</ele><time>2026-04-19T08:48:15Z</time></trkpt><trkpt lat="44.386216554465555" lon="9.612923339074625"><ele>706.0</ele><time>2026-04-19T08:48:16Z</time></trkpt><trkpt lat="44.38603932291415" lon="9.612802485871246"><ele>703.0</ele><time>2026-04-19T08:48:17Z</time></trkpt><trkpt lat="44.38585282512655" lon="9.612759681925947"><ele>700.0</ele><time>2026-04-19T08:48:18Z</time></trkpt><trkpt lat="44.385709231064816" lon="9.612678572922619"><ele>700.0</ele><time>2026-04-19T08:48:19Z</time></trkpt><trkpt lat="44.38560868742909" lon="9.612535072652811"><ele>700.0</ele><time>2026-04-19T08:48:20Z</time></trkpt><trkpt lat="44.38548659793572" lon="9.612330009443939"><ele>700.0</ele><time>2026-04-19T08:48:21Z</time></trkpt><trkpt lat="44.38534815228918" lon="9.612095074726923"><ele>698.6666666666667</ele><time>2026-04-19T08:48:22Z</time></trkpt><trkpt lat="44.385215478807545" lon="9.611871983239753"><ele>697.3333333333334</ele><time>2026-04-19T08:48:23Z</time></trkpt><trkpt lat="44.38509206488082" lon="9.611704655622155"><ele>696.0</ele><time>2026-04-19T08:48:24Z</time></trkpt><trkpt lat="44.38498627126831" lon="9.611528007618094"><ele>696.0</ele><time>2026-04-19T08:48:25Z</time></trkpt><trkpt lat="44.38489744435288" lon="9.611341159636947"><ele>696.0</ele><time>2026-04-19T08:48:26Z</time></trkpt><trkpt lat="44.3848058611129" lon="9.611168172055065"><ele>696.0</ele><time>2026-04-19T08:48:27Z</time></trkpt><trkpt lat="44.38472458913952" lon="9.610969779680469"><ele>698.0</ele><time>2026-04-19T08:48:28Z</time></trkpt><trkpt lat="44.38466454397329" lon="9.61074737286442"><ele>700.0</ele><time>2026-04-19T08:48:29Z</time></trkpt><trkpt lat="44.38458027715598" lon="9.610542206253578"><ele>702.0</ele><time>2026-04-19T08:48:30Z</time></trkpt><trkpt lat="44.38449921275608" lon="9.610343330619871"><ele>699.0</ele><time>2026-04-19T08:48:31Z</time></trkpt><trkpt lat="44.38436992471374" lon="9.610172744726105"><ele>696.0</ele><time>2026-04-19T08:48:32Z</time></trkpt><trkpt lat="44.38423259693585" lon="9.6100324232328"><ele>693.0</ele><time>2026-04-19T08:48:33Z</time></trkpt><trkpt lat="44.3841134104798" lon="9.609910307106357"><ele>693.0</ele><time>2026-04-19T08:48:34Z</time></trkpt><trkpt lat="44.38398446238464" lon="9.60981689719348"><ele>693.0</ele><time>2026-04-19T08:48:35Z</time></trkpt><trkpt lat="44.383849441264296" lon="9.609801757244764"><ele>693.0</ele><time>2026-04-19T08:48:36Z</time></trkpt><trkpt lat="44.383737098317354" lon="9.609876345101464"><ele>693.0</ele><time>2026-04-19T08:48:37Z</time></trkpt><trkpt lat="44.38365676954515" lon="9.61002061552163"><ele>692.25</ele><time>2026-04-19T08:48:38Z</time></trkpt><trkpt lat="44.38361213521851" lon="9.610206431482602"><ele>691.5</ele><time>2026-04-19T08:48:39Z</time></trkpt><trkpt lat="44.38358475046091" lon="9.61041950512403"><ele>690.75</ele><time>2026-04-19T08:48:40Z</time></trkpt><trkpt lat="44.38352135027948" lon="9.610573676305117"><ele>690.0</ele><time>2026-04-19T08:48:41Z</time></trkpt><trkpt lat="44.38339549057797" lon="9.610690394302294"><ele>690.0</ele><time>2026-04-19T08:48:42Z</time></trkpt><trkpt lat="44.38325611582966" lon="9.61080224816051"><ele>690.0</ele><time>2026-04-19T08:48:43Z</time></trkpt><trkpt lat="44.38310042143387" lon="9.610888199811152"><ele>690.0</ele><time>2026-04-19T08:48:44Z</time></trkpt><trkpt lat="44.382940414138325" lon="9.61088772907703"><ele>690.25</ele><time>2026-04-19T08:48:45Z</time></trkpt><trkpt lat="44.382785911462456" lon="9.610897369196167"><ele>690.5</ele><time>2026-04-19T08:48:46Z</time></trkpt><trkpt lat="44.382656075798884" lon="9.610878404547085"><ele>690.75</ele><time>2026-04-19T08:48:47Z</time></trkpt><trkpt lat="44.38255466277528" lon="9.610811170300318"><ele>691.0</ele><time>2026-04-19T08:48:48Z</time></trkpt><trkpt lat="44.382507648697654" lon="9.610670005081866"><ele>691.0</ele><time>2026-04-19T08:48:49Z</time></trkpt><trkpt lat="44.38251416745683" lon="9.610484310143496"><ele>691.0</ele><time>2026-04-19T08:48:50Z</time></trkpt><trkpt lat="44.382443323769806" lon="9.61031990314615"><ele>691.0</ele><time>2026-04-19T08:48:51Z</time></trkpt><trkpt lat="44.38230403978656" lon="9.61019359977857"><ele>691.0</ele><time>2026-04-19T08:48:52Z</time></trkpt><trkpt lat="44.38214392026021" lon="9.610102643557216"><ele>686.6666666666667</ele><time>2026-04-19T08:48:53Z</time></trkpt><trkpt lat="44.381970202970955" lon="9.610088071981648"><ele>682.3333333333334</ele><time>2026-04-19T08:48:54Z</time></trkpt><trkpt lat="44.38177741777642" lon="9.610054462479292"><ele>678.0</ele><time>2026-04-19T08:48:55Z</time></trkpt><trkpt lat="44.38158124465129" lon="9.609985842869747"><ele>678.0</ele><time>2026-04-19T08:48:56Z</time></trkpt><trkpt lat="44.38139097773573" lon="9.609899449008319"><ele>678.0</ele><time>2026-04-19T08:48:57Z</time></trkpt><trkpt lat="44.38120694675855" lon="9.60981380539102"><ele>678.0</ele><time>2026-04-19T08:48:58Z</time></trkpt><trkpt lat="44.38101715726054" lon="9.609729309802985"><ele>678.0</ele><time>2026-04-19T08:48:59Z</time></trkpt><trkpt lat="44.38083505420279" lon="9.609655706852788"><ele>678.0</ele><time>2026-04-19T08:49:00Z</time></trkpt><trkpt lat="44.380653123426626" lon="9.609576555318052"><ele>678.0</ele><time>2026-04-19T08:49:01Z</time></trkpt><trkpt lat="44.38047768653747" lon="9.609501103345638"><ele>673.6666666666666</ele><time>2026-04-19T08:49:02Z</time></trkpt><trkpt lat="44.38030810486738" lon="9.609418744497237"><ele>669.3333333333333</ele><time>2026-04-19T08:49:03Z</time></trkpt><trkpt lat="44.380153132841535" lon="9.6093038454614"><ele>665.0</ele><time>2026-04-19T08:49:04Z</time></trkpt><trkpt lat="44.380019782011416" lon="9.60912605938185"><ele>665.0</ele><time>2026-04-19T08:49:05Z</time></trkpt><trkpt lat="44.37988258132561" lon="9.608980750254664"><ele>665.0</ele><time>2026-04-19T08:49:06Z</time></trkpt><trkpt lat="44.379768380064554" lon="9.60884231341286"><ele>665.0</ele><time>2026-04-19T08:49:07Z</time></trkpt><trkpt lat="44.379656737602645" lon="9.608718329466635"><ele>662.5</ele><time>2026-04-19T08:49:08Z</time></trkpt><trkpt lat="44.37953949330908" lon="9.608648116302774"><ele>660.0</ele><time>2026-04-19T08:49:09Z</time></trkpt><trkpt lat="44.37941539076142" lon="9.608651810793408"><ele>657.5</ele><time>2026-04-19T08:49:10Z</time></trkpt><trkpt lat="44.379298679374884" lon="9.608719015887207"><ele>655.0</ele><time>2026-04-19T08:49:11Z</time></trkpt><trkpt lat="44.379218666825125" lon="9.608880812169893"><ele>655.0</ele><time>2026-04-19T08:49:12Z</time></trkpt><trkpt lat="44.37918995120003" lon="9.60908428960354"><ele>655.0</ele><time>2026-04-19T08:49:13Z</time></trkpt><trkpt lat="44.37918521810862" lon="9.609261006712288"><ele>655.0</ele><time>2026-04-19T08:49:14Z</time></trkpt><trkpt lat="44.37915313095021" lon="9.609389706652355"><ele>655.0</ele><time>2026-04-19T08:49:15Z</time></trkpt><trkpt lat="44.379085001693646" lon="9.609466130438923"><ele>655.0</ele><time>2026-04-19T08:49:16Z</time></trkpt><trkpt lat="44.37899242082204" lon="9.609478620224639"><ele>655.0</ele><time>2026-04-19T08:49:17Z</time></trkpt><trkpt lat="44.3789093039501" lon="9.60942329216165"><ele>655.0</ele><time>2026-04-19T08:49:18Z</time></trkpt><trkpt lat="44.37883756341447" lon="9.609264191970908"><ele>655.0</ele><time>2026-04-19T08:49:19Z</time></trkpt><trkpt lat="44.37875183031876" lon="9.609069860497112"><ele>653.0</ele><time>2026-04-19T08:49:20Z</time></trkpt><trkpt lat="44.3786110861082" lon="9.60894398871491"><ele>651.0</ele><time>2026-04-19T08:49:21Z</time></trkpt><trkpt lat="44.37847319684758" lon="9.608939366413791"><ele>649.0</ele><time>2026-04-19T08:49:22Z</time></trkpt><trkpt lat="44.37832347764935" lon="9.60900589152759"><ele>649.0</ele><time>2026-04-19T08:49:23Z</time></trkpt><trkpt lat="44.37820948419161" lon="9.608922365949686"><ele>649.0</ele><time>2026-04-19T08:49:24Z</time></trkpt><trkpt lat="44.378127830253" lon="9.60879614418144"><ele>649.0</ele><time>2026-04-19T08:49:25Z</time></trkpt><trkpt lat="44.378103511382896" lon="9.60859601690014"><ele>649.0</ele><time>2026-04-19T08:49:26Z</time></trkpt><trkpt lat="44.3780581820418" lon="9.608389019470845"><ele>645.0</ele><time>2026-04-19T08:49:27Z</time></trkpt><trkpt lat="44.37800391092826" lon="9.608210787370078"><ele>641.0</ele><time>2026-04-19T08:49:28Z</time></trkpt><trkpt lat="44.37792389969899" lon="9.60808671065272"><ele>637.0</ele><time>2026-04-19T08:49:29Z</time></trkpt><trkpt lat="44.37782330636563" lon="9.608068532923324"><ele>633.0</ele><time>2026-04-19T08:49:30Z</time></trkpt><trkpt lat="44.377717141474655" lon="9.608132766348168"><ele>633.0</ele><time>2026-04-19T08:49:31Z</time></trkpt><trkpt lat="44.37763629648514" lon="9.608278838496547"><ele>633.0</ele><time>2026-04-19T08:49:32Z</time></trkpt><trkpt lat="44.37753584202936" lon="9.608384962672242"><ele>633.0</ele><time>2026-04-19T08:49:33Z</time></trkpt><trkpt lat="44.37742534321643" lon="9.60838026006278"><ele>633.0</ele><time>2026-04-19T08:49:34Z</time></trkpt><trkpt lat="44.37730382647596" lon="9.608335894400499"><ele>631.3333333333334</ele><time>2026-04-19T08:49:35Z</time></trkpt><trkpt lat="44.377162723138156" lon="9.608234345701446"><ele>629.6666666666667</ele><time>2026-04-19T08:49:36Z</time></trkpt><trkpt lat="44.3770195085795" lon="9.608191763724532"><ele>628.0</ele><time>2026-04-19T08:49:36.999Z</time></trkpt><trkpt lat="44.37686362277284" lon="9.608255595062401"><ele>628.0</ele><time>2026-04-19T08:49:37.999Z</time></trkpt><trkpt lat="44.376729991316395" lon="9.608384433991935"><ele>628.0</ele><time>2026-04-19T08:49:38.999Z</time></trkpt><trkpt lat="44.37658985456462" lon="9.608435058395147"><ele>628.0</ele><time>2026-04-19T08:49:39.999Z</time></trkpt><trkpt lat="44.37646257246854" lon="9.60838483076651"><ele>628.0</ele><time>2026-04-19T08:49:40.999Z</time></trkpt><trkpt lat="44.37637933756595" lon="9.608225125877043"><ele>627.6666666666667</ele><time>2026-04-19T08:49:41.999Z</time></trkpt><trkpt lat="44.37625530023291" lon="9.60807904947741"><ele>627.3333333333334</ele><time>2026-04-19T08:49:42.999Z</time></trkpt><trkpt lat="44.376147361283834" lon="9.607943488870994"><ele>627.0</ele><time>2026-04-19T08:49:43.999Z</time></trkpt><trkpt lat="44.375996017885015" lon="9.607875863555847"><ele>623.0</ele><time>2026-04-19T08:49:44.999Z</time></trkpt><trkpt lat="44.37583768733692" lon="9.607795859144815"><ele>619.0</ele><time>2026-04-19T08:49:45.999Z</time></trkpt><trkpt lat="44.37565154472125" lon="9.60769106816422"><ele>615.0</ele><time>2026-04-19T08:49:46.999Z</time></trkpt><trkpt lat="44.375486110726506" lon="9.607581592973295"><ele>615.0</ele><time>2026-04-19T08:49:47.999Z</time></trkpt><trkpt lat="44.37534602456673" lon="9.607463476142785"><ele>615.0</ele><time>2026-04-19T08:49:48.999Z</time></trkpt><trkpt lat="44.37522587969314" lon="9.607371104025514"><ele>615.0</ele><time>2026-04-19T08:49:49.999Z</time></trkpt><trkpt lat="44.37510877714353" lon="9.607331214525685"><ele>615.0</ele><time>2026-04-19T08:49:50.999Z</time></trkpt><trkpt lat="44.374978947704804" lon="9.607372681796734"><ele>615.0</ele><time>2026-04-19T08:49:51.999Z</time></trkpt><trkpt lat="44.3748469072975" lon="9.607500998097949"><ele>615.0</ele><time>2026-04-19T08:49:52.999Z</time></trkpt><trkpt lat="44.37472594106082" lon="9.607615242239852"><ele>615.0</ele><time>2026-04-19T08:49:54.001Z</time></trkpt><trkpt lat="44.37459282970549" lon="9.607654336090492"><ele>615.0</ele><time>2026-04-19T08:49:55.001Z</time></trkpt><trkpt lat="44.37443653603377" lon="9.60759244881966"><ele>612.5</ele><time>2026-04-19T08:49:56.001Z</time></trkpt><trkpt lat="44.37428667539323" lon="9.607551710942088"><ele>610.0</ele><time>2026-04-19T08:49:57.001Z</time></trkpt><trkpt lat="44.374159772296466" lon="9.607522751797806"><ele>607.5</ele><time>2026-04-19T08:49:58.001Z</time></trkpt><trkpt lat="44.37403265352495" lon="9.607590722445185"><ele>605.0</ele><time>2026-04-19T08:49:59.001Z</time></trkpt><trkpt lat="44.3739047808057" lon="9.607736263503229"><ele>605.0</ele><time>2026-04-19T08:50:00.001Z</time></trkpt><trkpt lat="44.37378721379204" lon="9.607917534770115"><ele>605.0</ele><time>2026-04-19T08:50:01.001Z</time></trkpt><trkpt lat="44.373679274313474" lon="9.608071443140739"><ele>605.0</ele><time>2026-04-19T08:50:02.001Z</time></trkpt><trkpt lat="44.373572368993635" lon="9.608168884026579"><ele>605.0</ele><time>2026-04-19T08:50:03.001Z</time></trkpt><trkpt lat="44.37344386868905" lon="9.608232401573085"><ele>605.0</ele><time>2026-04-19T08:50:04.001Z</time></trkpt><trkpt lat="44.37329474548529" lon="9.60824829344739"><ele>605.0</ele><time>2026-04-19T08:50:05.001Z</time></trkpt><trkpt lat="44.3731610155043" lon="9.608161851441796"><ele>605.0</ele><time>2026-04-19T08:50:06.001Z</time></trkpt><trkpt lat="44.37301142895912" lon="9.608059509139386"><ele>603.6666666666666</ele><time>2026-04-19T08:50:07.001Z</time></trkpt><trkpt lat="44.37284938857711" lon="9.607993647767447"><ele>602.3333333333334</ele><time>2026-04-19T08:50:08.001Z</time></trkpt><trkpt lat="44.372690943390886" lon="9.607963318340321"><ele>601.0</ele><time>2026-04-19T08:50:09Z</time></trkpt><trkpt lat="44.372531507507446" lon="9.608026125079128"><ele>601.0</ele><time>2026-04-19T08:50:10Z</time></trkpt><trkpt lat="44.37237803840824" lon="9.608078730936949"><ele>601.0</ele><time>2026-04-19T08:50:11Z</time></trkpt><trkpt lat="44.372249119272254" lon="9.608039544501016"><ele>601.0</ele><time>2026-04-19T08:50:12Z</time></trkpt><trkpt lat="44.37212918774995" lon="9.607956278777637"><ele>601.0</ele><time>2026-04-19T08:50:13Z</time></trkpt><trkpt lat="44.372050848176585" lon="9.60782357369266"><ele>599.2</ele><time>2026-04-19T08:50:14Z</time></trkpt><trkpt lat="44.372005622375276" lon="9.607733908469458"><ele>597.4000000000001</ele><time>2026-04-19T08:50:15Z</time></trkpt><trkpt lat="44.372050747079115" lon="9.60759411604124"><ele>595.6</ele><time>2026-04-19T08:50:16Z</time></trkpt><trkpt lat="44.37215236557581" lon="9.607513661225548"><ele>593.8000000000001</ele><time>2026-04-19T08:50:17Z</time></trkpt><trkpt lat="44.37226689606776" lon="9.60754811436609"><ele>592.0</ele><time>2026-04-19T08:50:18Z</time></trkpt><trkpt lat="44.372385552640225" lon="9.607694724152312"><ele>590.25</ele><time>2026-04-19T08:50:19Z</time></trkpt><trkpt lat="44.37253368971449" lon="9.60779657428068"><ele>588.5</ele><time>2026-04-19T08:50:20Z</time></trkpt><trkpt lat="44.37266349512327" lon="9.607835086961403"><ele>586.75</ele><time>2026-04-19T08:50:21Z</time></trkpt><trkpt lat="44.372779747779155" lon="9.60774377313446"><ele>585.0</ele><time>2026-04-19T08:50:22Z</time></trkpt><trkpt lat="44.37287447116549" lon="9.607553575673895"><ele>585.0</ele><time>2026-04-19T08:50:23Z</time></trkpt><trkpt lat="44.37295779432564" lon="9.607352153115215"><ele>585.0</ele><time>2026-04-19T08:50:24Z</time></trkpt><trkpt lat="44.373029622826174" lon="9.607158504634636"><ele>585.0</ele><time>2026-04-19T08:50:25Z</time></trkpt><trkpt lat="44.373065058134216" lon="9.606961176671687"><ele>581.6666666666666</ele><time>2026-04-19T08:50:26Z</time></trkpt><trkpt lat="44.37304291259511" lon="9.606743454283126"><ele>578.3333333333333</ele><time>2026-04-19T08:50:27Z</time></trkpt><trkpt lat="44.37295743842468" lon="9.606536264799756"><ele>575.0</ele><time>2026-04-19T08:50:28Z</time></trkpt><trkpt lat="44.37283161251231" lon="9.606343293186892"><ele>574.25</ele><time>2026-04-19T08:50:29Z</time></trkpt><trkpt lat="44.37276707491023" lon="9.606166624702048"><ele>573.5</ele><time>2026-04-19T08:50:30Z</time></trkpt><trkpt lat="44.3727206099908" lon="9.606024004228933"><ele>572.75</ele><time>2026-04-19T08:50:31Z</time></trkpt><trkpt lat="44.37270570062419" lon="9.60587492414924"><ele>572.0</ele><time>2026-04-19T08:50:32Z</time></trkpt><trkpt lat="44.372773853852685" lon="9.605725873634285"><ele>570.5</ele><time>2026-04-19T08:50:33Z</time></trkpt><trkpt lat="44.372900853401866" lon="9.605649874032023"><ele>569.0</ele><time>2026-04-19T08:50:34Z</time></trkpt><trkpt lat="44.373029155483195" lon="9.605710642138611"><ele>567.5</ele><time>2026-04-19T08:50:35Z</time></trkpt><trkpt lat="44.37314892643769" lon="9.605828109666517"><ele>566.0</ele><time>2026-04-19T08:50:36Z</time></trkpt><trkpt lat="44.373218445683975" lon="9.605999663441322"><ele>568.25</ele><time>2026-04-19T08:50:37Z</time></trkpt><trkpt lat="44.37323050403379" lon="9.606181294136217"><ele>570.5</ele><time>2026-04-19T08:50:38Z</time></trkpt><trkpt lat="44.37325568722438" lon="9.606369074297234"><ele>572.75</ele><time>2026-04-19T08:50:39Z</time></trkpt><trkpt lat="44.37331991742787" lon="9.606541496316131"><ele>575.0</ele><time>2026-04-19T08:50:40Z</time></trkpt><trkpt lat="44.373446773431354" lon="9.606629434052687"><ele>575.0</ele><time>2026-04-19T08:50:41Z</time></trkpt><trkpt lat="44.37359607596555" lon="9.606646007008798"><ele>575.0</ele><time>2026-04-19T08:50:42Z</time></trkpt><trkpt lat="44.37374744344265" lon="9.60660171404135"><ele>575.0</ele><time>2026-04-19T08:50:43Z</time></trkpt><trkpt lat="44.37389729653549" lon="9.60655463718625"><ele>576.6666666666666</ele><time>2026-04-19T08:50:44Z</time></trkpt><trkpt lat="44.37403073075319" lon="9.606469946763244"><ele>578.3333333333334</ele><time>2026-04-19T08:50:45Z</time></trkpt><trkpt lat="44.37416005741584" lon="9.60629802023568"><ele>580.0</ele><time>2026-04-19T08:50:46Z</time></trkpt><trkpt lat="44.37425847035772" lon="9.606096823802705"><ele>572.3333333333334</ele><time>2026-04-19T08:50:47Z</time></trkpt><trkpt lat="44.37434611191288" lon="9.605921787882039"><ele>564.6666666666666</ele><time>2026-04-19T08:50:48Z</time></trkpt><trkpt lat="44.37446657862811" lon="9.60576701526278"><ele>557.0</ele><time>2026-04-19T08:50:49Z</time></trkpt><trkpt lat="44.37458615130784" lon="9.605624386536451"><ele>553.6666666666666</ele><time>2026-04-19T08:50:50Z</time></trkpt><trkpt lat="44.37470052842354" lon="9.605483703616912"><ele>550.3333333333334</ele><time>2026-04-19T08:50:51Z</time></trkpt><trkpt lat="44.37481884672214" lon="9.605370340526608"><ele>547.0</ele><time>2026-04-19T08:50:52Z</time></trkpt><trkpt lat="44.37496838784081" lon="9.60531786400115"><ele>547.0</ele><time>2026-04-19T08:50:53Z</time></trkpt><trkpt lat="44.37513978065054" lon="9.605269220893113"><ele>547.0</ele><time>2026-04-19T08:50:54Z</time></trkpt><trkpt lat="44.375257269620704" lon="9.605212685476374"><ele>547.0</ele><time>2026-04-19T08:50:55Z</time></trkpt><trkpt lat="44.37535610603081" lon="9.605144156581842"><ele>547.0</ele><time>2026-04-19T08:50:56Z</time></trkpt><trkpt lat="44.375463438055654" lon="9.605144591955902"><ele>547.4</ele><time>2026-04-19T08:50:57Z</time></trkpt><trkpt lat="44.37555217291185" lon="9.605265258975475"><ele>547.8000000000001</ele><time>2026-04-19T08:50:58Z</time></trkpt><trkpt lat="44.37560503400166" lon="9.605417736961511"><ele>548.2</ele><time>2026-04-19T08:50:59Z</time></trkpt><trkpt lat="44.37567109583589" lon="9.605505765874893"><ele>548.6</ele><time>2026-04-19T08:51:00Z</time></trkpt><trkpt lat="44.37575701981062" lon="9.605544588083307"><ele>549.0</ele><time>2026-04-19T08:51:01Z</time></trkpt><trkpt lat="44.37599601423914" lon="9.605352317569084"><ele>549.0</ele><time>2026-04-19T08:51:02Z</time></trkpt><trkpt lat="44.376123007562356" lon="9.605204145417636"><ele>549.0</ele><time>2026-04-19T08:51:03Z</time></trkpt><trkpt lat="44.37623300151458" lon="9.605047858261896"><ele>549.0</ele><time>2026-04-19T08:51:04Z</time></trkpt><trkpt lat="44.37631711946377" lon="9.604893715754438"><ele>549.2</ele><time>2026-04-19T08:51:05Z</time></trkpt><trkpt lat="44.37639629865778" lon="9.604817978323446"><ele>549.4</ele><time>2026-04-19T08:51:06Z</time></trkpt><trkpt lat="44.376497089363156" lon="9.60477583143816"><ele>549.6</ele><time>2026-04-19T08:51:07Z</time></trkpt><trkpt lat="44.37657297202316" lon="9.60481998907666"><ele>549.8</ele><time>2026-04-19T08:51:08Z</time></trkpt><trkpt lat="44.37667773045754" lon="9.604864906850382"><ele>550.0</ele><time>2026-04-19T08:51:09Z</time></trkpt><trkpt lat="44.37680494939587" lon="9.604910203995326"><ele>550.0</ele><time>2026-04-19T08:51:10Z</time></trkpt><trkpt lat="44.376899913060896" lon="9.605023961022564"><ele>550.0</ele><time>2026-04-19T08:51:11Z</time></trkpt><trkpt lat="44.37695378527472" lon="9.60514265947475"><ele>550.0</ele><time>2026-04-19T08:51:12Z</time></trkpt><trkpt lat="44.377012627653606" lon="9.605248045136191"><ele>550.0</ele><time>2026-04-19T08:51:13Z</time></trkpt><trkpt lat="44.37708180341465" lon="9.605356197314482"><ele>550.0</ele><time>2026-04-19T08:51:14Z</time></trkpt><trkpt lat="44.3772090141971" lon="9.605385579934287"><ele>550.25</ele><time>2026-04-19T08:51:15Z</time></trkpt><trkpt lat="44.37733281613399" lon="9.605305007064356"><ele>550.5</ele><time>2026-04-19T08:51:16Z</time></trkpt><trkpt lat="44.37741533868961" lon="9.605181931984227"><ele>550.75</ele><time>2026-04-19T08:51:17Z</time></trkpt><trkpt lat="44.37743763537542" lon="9.605013591506372"><ele>551.0</ele><time>2026-04-19T08:51:18Z</time></trkpt><trkpt lat="44.37739050430599" lon="9.604846838235773"><ele>551.0</ele><time>2026-04-19T08:51:19Z</time></trkpt><trkpt lat="44.37734405686958" lon="9.604657139035938"><ele>551.0</ele><time>2026-04-19T08:51:20Z</time></trkpt><trkpt lat="44.37739873636347" lon="9.604507539390452"><ele>551.0</ele><time>2026-04-19T08:51:21Z</time></trkpt><trkpt lat="44.377489815753236" lon="9.604407473511174"><ele>551.0</ele><time>2026-04-19T08:51:22Z</time></trkpt><trkpt lat="44.37752883590204" lon="9.604304283579474"><ele>548.25</ele><time>2026-04-19T08:51:23Z</time></trkpt><trkpt lat="44.377482880316734" lon="9.604108863511968"><ele>545.5</ele><time>2026-04-19T08:51:24Z</time></trkpt><trkpt lat="44.377455510075315" lon="9.603919639991469"><ele>542.75</ele><time>2026-04-19T08:51:25Z</time></trkpt><trkpt lat="44.377488108913774" lon="9.603772164814634"><ele>540.0</ele><time>2026-04-19T08:51:26Z</time></trkpt><trkpt lat="44.37757620206764" lon="9.603628203847238"><ele>536.0</ele><time>2026-04-19T08:51:27Z</time></trkpt><trkpt lat="44.37766710925391" lon="9.603491538685532"><ele>532.0</ele><time>2026-04-19T08:51:28Z</time></trkpt><trkpt lat="44.377756668259806" lon="9.60339520685222"><ele>528.0</ele><time>2026-04-19T08:51:29Z</time></trkpt><trkpt lat="44.37786490466564" lon="9.603319236698422"><ele>524.0</ele><time>2026-04-19T08:51:30Z</time></trkpt><trkpt lat="44.37798547984962" lon="9.603395169307422"><ele>524.6</ele><time>2026-04-19T08:51:31Z</time></trkpt><trkpt lat="44.37807820859235" lon="9.60344548477042"><ele>525.2</ele><time>2026-04-19T08:51:32Z</time></trkpt><trkpt lat="44.37814296909204" lon="9.60339133378341"><ele>525.8000000000001</ele><time>2026-04-19T08:51:33Z</time></trkpt><trkpt lat="44.378206442855415" lon="9.603231298776334"><ele>526.4</ele><time>2026-04-19T08:51:34Z</time></trkpt><trkpt lat="44.37819205837183" lon="9.603040745014894"><ele>527.0</ele><time>2026-04-19T08:51:35Z</time></trkpt><trkpt lat="44.378180979693596" lon="9.602829415381777"><ele>527.0</ele><time>2026-04-19T08:51:36Z</time></trkpt><trkpt lat="44.3781945092219" lon="9.602642663366401"><ele>527.0</ele><time>2026-04-19T08:51:37Z</time></trkpt><trkpt lat="44.37827227227113" lon="9.602481723545909"><ele>527.0</ele><time>2026-04-19T08:51:38Z</time></trkpt><trkpt lat="44.37837334223158" lon="9.6023372059491"><ele>527.0</ele><time>2026-04-19T08:51:38.999Z</time></trkpt><trkpt lat="44.37849535863447" lon="9.6022286173457"><ele>527.0</ele><time>2026-04-19T08:51:39.999Z</time></trkpt><trkpt lat="44.37865178327328" lon="9.602210067450747"><ele>527.0</ele><time>2026-04-19T08:51:40.999Z</time></trkpt><trkpt lat="44.37880871956705" lon="9.602190712570716"><ele>527.0</ele><time>2026-04-19T08:51:41.999Z</time></trkpt><trkpt lat="44.37896332597" lon="9.602140924641468"><ele>527.5</ele><time>2026-04-19T08:51:42.999Z</time></trkpt><trkpt lat="44.37910581042985" lon="9.602073088416812"><ele>528.0</ele><time>2026-04-19T08:51:43.999Z</time></trkpt><trkpt lat="44.379226440057074" lon="9.602020247439638"><ele>528.5</ele><time>2026-04-19T08:51:44.999Z</time></trkpt><trkpt lat="44.37934833468673" lon="9.602027922995065"><ele>529.0</ele><time>2026-04-19T08:51:45.999Z</time></trkpt><trkpt lat="44.379463072854804" lon="9.602136487234683"><ele>529.0</ele><time>2026-04-19T08:51:46.999Z</time></trkpt><trkpt lat="44.379582144606346" lon="9.60228588404931"><ele>529.0</ele><time>2026-04-19T08:51:47.999Z</time></trkpt><trkpt lat="44.379703324595745" lon="9.602461442171423"><ele>529.0</ele><time>2026-04-19T08:51:48.999Z</time></trkpt><trkpt lat="44.3798265945933" lon="9.602632931478214"><ele>529.5</ele><time>2026-04-19T08:51:49.999Z</time></trkpt><trkpt lat="44.37995639778148" lon="9.602726340349516"><ele>530.0</ele><time>2026-04-19T08:51:50.999Z</time></trkpt><trkpt lat="44.380096064548034" lon="9.602767713756588"><ele>530.5</ele><time>2026-04-19T08:51:51.999Z</time></trkpt><trkpt lat="44.38020759895269" lon="9.602856557943069"><ele>531.0</ele><time>2026-04-19T08:51:52.999Z</time></trkpt><trkpt lat="44.38024674231617" lon="9.603041978863473"><ele>531.0</ele><time>2026-04-19T08:51:53.999Z</time></trkpt><trkpt lat="44.38029594997397" lon="9.60323324626017"><ele>531.0</ele><time>2026-04-19T08:51:54.999Z</time></trkpt><trkpt lat="44.38032180529231" lon="9.603408784734961"><ele>531.0</ele><time>2026-04-19T08:51:55.999Z</time></trkpt><trkpt lat="44.38037821297503" lon="9.603542961962349"><ele>531.0</ele><time>2026-04-19T08:51:56.999Z</time></trkpt><trkpt lat="44.3804827395341" lon="9.603613099186608"><ele>524.0</ele><time>2026-04-19T08:51:57.999Z</time></trkpt><trkpt lat="44.38062749450679" lon="9.60358574139536"><ele>517.0</ele><time>2026-04-19T08:51:59.001Z</time></trkpt><trkpt lat="44.38076591240874" lon="9.603486604299274"><ele>510.0</ele><time>2026-04-19T08:52:00.001Z</time></trkpt><trkpt lat="44.38089935493552" lon="9.603338508244068"><ele>510.0</ele><time>2026-04-19T08:52:01.001Z</time></trkpt><trkpt lat="44.381046518329775" lon="9.603186747888813"><ele>510.0</ele><time>2026-04-19T08:52:02.001Z</time></trkpt><trkpt lat="44.3811746417797" lon="9.602975681608074"><ele>510.0</ele><time>2026-04-19T08:52:03.001Z</time></trkpt><trkpt lat="44.3812733820916" lon="9.602719148810392"><ele>508.66666666666663</ele><time>2026-04-19T08:52:04.001Z</time></trkpt><trkpt lat="44.38132350052396" lon="9.602504276223685"><ele>507.3333333333333</ele><time>2026-04-19T08:52:05.001Z</time></trkpt><trkpt lat="44.381367751311174" lon="9.602314817670429"><ele>506.0</ele><time>2026-04-19T08:52:06.001Z</time></trkpt><trkpt lat="44.381386358014254" lon="9.602101097543473"><ele>504.0</ele><time>2026-04-19T08:52:07Z</time></trkpt><trkpt lat="44.38139369410619" lon="9.601841846350016"><ele>502.0</ele><time>2026-04-19T08:52:08Z</time></trkpt><trkpt lat="44.381381687842314" lon="9.601619465024314"><ele>500.0</ele><time>2026-04-19T08:52:09Z</time></trkpt><trkpt lat="44.38136587497155" lon="9.601378073119106"><ele>492.0</ele><time>2026-04-19T08:52:10Z</time></trkpt><trkpt lat="44.381331090052115" lon="9.601168382517999"><ele>484.0</ele><time>2026-04-19T08:52:11Z</time></trkpt><trkpt lat="44.38128908986175" lon="9.600958576185123"><ele>476.0</ele><time>2026-04-19T08:52:12Z</time></trkpt><trkpt lat="44.38122351786356" lon="9.600766097779552"><ele>474.0</ele><time>2026-04-19T08:52:13Z</time></trkpt><trkpt lat="44.38116955927015" lon="9.600570583495418"><ele>472.0</ele><time>2026-04-19T08:52:14Z</time></trkpt><trkpt lat="44.38112896811701" lon="9.600402794957308"><ele>470.0</ele><time>2026-04-19T08:52:15Z</time></trkpt><trkpt lat="44.38112245165189" lon="9.600260699736918"><ele>468.0</ele><time>2026-04-19T08:52:16Z</time></trkpt><trkpt lat="44.38116439437431" lon="9.600138239389256"><ele>465.75</ele><time>2026-04-19T08:52:17Z</time></trkpt><trkpt lat="44.38126391709016" lon="9.600066053015123"><ele>463.5</ele><time>2026-04-19T08:52:18Z</time></trkpt><trkpt lat="44.38137969012586" lon="9.600070954641131"><ele>461.25</ele><time>2026-04-19T08:52:19Z</time></trkpt><trkpt lat="44.38150884149509" lon="9.60011915212517"><ele>459.0</ele><time>2026-04-19T08:52:20Z</time></trkpt><trkpt lat="44.38169333668402" lon="9.60015120331098"><ele>465.0</ele><time>2026-04-19T08:52:21Z</time></trkpt><trkpt lat="44.3818699097716" lon="9.600200902780406"><ele>471.0</ele><time>2026-04-19T08:52:22Z</time></trkpt><trkpt lat="44.38205600997025" lon="9.600259067364396"><ele>477.0</ele><time>2026-04-19T08:52:23Z</time></trkpt><trkpt lat="44.38221258197865" lon="9.600346843063775"><ele>479.0</ele><time>2026-04-19T08:52:24Z</time></trkpt><trkpt lat="44.382351463270766" lon="9.60044245811346"><ele>481.0</ele><time>2026-04-19T08:52:25Z</time></trkpt><trkpt lat="44.38246305309506" lon="9.600541515834848"><ele>483.0</ele><time>2026-04-19T08:52:26Z</time></trkpt><trkpt lat="44.38256539628137" lon="9.60059708434749"><ele>485.0</ele><time>2026-04-19T08:52:27Z</time></trkpt><trkpt lat="44.38266832846039" lon="9.600578165801764"><ele>485.0</ele><time>2026-04-19T08:52:28Z</time></trkpt><trkpt lat="44.38274961846646" lon="9.600478401848354"><ele>485.0</ele><time>2026-04-19T08:52:29Z</time></trkpt><trkpt lat="44.382774573140544" lon="9.600317792760338"><ele>485.0</ele><time>2026-04-19T08:52:30Z</time></trkpt><trkpt lat="44.382729620199896" lon="9.600142491872244"><ele>485.0</ele><time>2026-04-19T08:52:31Z</time></trkpt><trkpt lat="44.38263155927721" lon="9.60002319752382"><ele>483.0</ele><time>2026-04-19T08:52:32Z</time></trkpt><trkpt lat="44.382505033580486" lon="9.600000300677264"><ele>481.0</ele><time>2026-04-19T08:52:33Z</time></trkpt><trkpt lat="44.38235898796668" lon="9.60003908784209"><ele>479.0</ele><time>2026-04-19T08:52:34Z</time></trkpt><trkpt lat="44.38221149681485" lon="9.600001632729123"><ele>477.0</ele><time>2026-04-19T08:52:35Z</time></trkpt><trkpt lat="44.38206198063887" lon="9.59989600292747"><ele>477.0</ele><time>2026-04-19T08:52:36Z</time></trkpt><trkpt lat="44.38193580024056" lon="9.59981080739061"><ele>477.00000000000006</ele><time>2026-04-19T08:52:37Z</time></trkpt><trkpt lat="44.38185521697986" lon="9.599734265871561"><ele>477.00000000000006</ele><time>2026-04-19T08:52:38Z</time></trkpt><trkpt lat="44.381822040550716" lon="9.599615199252653"><ele>477.0</ele><time>2026-04-19T08:52:39Z</time></trkpt><trkpt lat="44.38184404963785" lon="9.599477373860694"><ele>477.0</ele><time>2026-04-19T08:52:40Z</time></trkpt><trkpt lat="44.38190141003896" lon="9.599362980629568"><ele>470.33333333333337</ele><time>2026-04-19T08:52:41Z</time></trkpt><trkpt lat="44.38203992403045" lon="9.59938410655803"><ele>463.6666666666667</ele><time>2026-04-19T08:52:42Z</time></trkpt><trkpt lat="44.3822039421891" lon="9.599394756687404"><ele>457.0</ele><time>2026-04-19T08:52:43Z</time></trkpt><trkpt lat="44.38237518369657" lon="9.599418851935337"><ele>456.0</ele><time>2026-04-19T08:52:44Z</time></trkpt><trkpt lat="44.38256340528557" lon="9.599445966380387"><ele>455.0</ele><time>2026-04-19T08:52:45Z</time></trkpt><trkpt lat="44.38274993551406" lon="9.599466404674718"><ele>454.0</ele><time>2026-04-19T08:52:46Z</time></trkpt><trkpt lat="44.3829114870323" lon="9.599490325112479"><ele>457.33333333333337</ele><time>2026-04-19T08:52:47Z</time></trkpt><trkpt lat="44.38304670391771" lon="9.599586981314463"><ele>460.66666666666663</ele><time>2026-04-19T08:52:48Z</time></trkpt><trkpt lat="44.3831749861463" lon="9.59970551788793"><ele>464.0</ele><time>2026-04-19T08:52:49Z</time></trkpt><trkpt lat="44.38331645827914" lon="9.59983345669986"><ele>464.0</ele><time>2026-04-19T08:52:50Z</time></trkpt><trkpt lat="44.38345269476319" lon="9.600006976479651"><ele>464.0</ele><time>2026-04-19T08:52:51Z</time></trkpt><trkpt lat="44.38357784152264" lon="9.60016747005605"><ele>464.0</ele><time>2026-04-19T08:52:52Z</time></trkpt><trkpt lat="44.3837033385774" lon="9.600314260360413"><ele>465.66666666666663</ele><time>2026-04-19T08:52:53Z</time></trkpt><trkpt lat="44.38383904724315" lon="9.600458885342952"><ele>467.33333333333337</ele><time>2026-04-19T08:52:54Z</time></trkpt><trkpt lat="44.38397676550549" lon="9.600594612938895"><ele>469.0</ele><time>2026-04-19T08:52:55Z</time></trkpt><trkpt lat="44.38410942359204" lon="9.600712231135644"><ele>469.0</ele><time>2026-04-19T08:52:56Z</time></trkpt><trkpt lat="44.384238252405154" lon="9.600811435997828"><ele>469.0</ele><time>2026-04-19T08:52:57Z</time></trkpt><trkpt lat="44.384361821186836" lon="9.600880340449333"><ele>469.0</ele><time>2026-04-19T08:52:58Z</time></trkpt><trkpt lat="44.384483830923024" lon="9.600892396009995"><ele>469.0</ele><time>2026-04-19T08:52:59Z</time></trkpt><trkpt lat="44.38460218238173" lon="9.600805328174177"><ele>469.0</ele><time>2026-04-19T08:53:00Z</time></trkpt><trkpt lat="44.384705561129586" lon="9.600640984839194"><ele>469.0</ele><time>2026-04-19T08:53:01Z</time></trkpt><trkpt lat="44.38482978975756" lon="9.600493982504426"><ele>469.0</ele><time>2026-04-19T08:53:02Z</time></trkpt><trkpt lat="44.38497016902194" lon="9.600377850843282"><ele>458.6666666666667</ele><time>2026-04-19T08:53:03Z</time></trkpt><trkpt lat="44.3851169335925" lon="9.60028016364683"><ele>448.33333333333337</ele><time>2026-04-19T08:53:04Z</time></trkpt><trkpt lat="44.38528083855521" lon="9.60024306503961"><ele>438.0</ele><time>2026-04-19T08:53:05Z</time></trkpt><trkpt lat="44.38543110136578" lon="9.600205597325965"><ele>437.75</ele><time>2026-04-19T08:53:06Z</time></trkpt><trkpt lat="44.385561660414474" lon="9.60018058683389"><ele>437.5</ele><time>2026-04-19T08:53:07Z</time></trkpt><trkpt lat="44.385697265221125" lon="9.600161445165108"><ele>437.25</ele><time>2026-04-19T08:53:08Z</time></trkpt><trkpt lat="44.385851201975484" lon="9.600160805439746"><ele>437.0</ele><time>2026-04-19T08:53:09Z</time></trkpt><trkpt lat="44.385978434291104" lon="9.600211049276762"><ele>446.66666666666663</ele><time>2026-04-19T08:53:10Z</time></trkpt><trkpt lat="44.38607344269671" lon="9.600343294341098"><ele>456.33333333333337</ele><time>2026-04-19T08:53:11Z</time></trkpt><trkpt lat="44.38615907492993" lon="9.600535862330087"><ele>466.0</ele><time>2026-04-19T08:53:12Z</time></trkpt><trkpt lat="44.386221510526745" lon="9.600769150901423"><ele>466.0</ele><time>2026-04-19T08:53:13Z</time></trkpt><trkpt lat="44.386282668973045" lon="9.600963720555892"><ele>466.0</ele><time>2026-04-19T08:53:14Z</time></trkpt><trkpt lat="44.38635445744925" lon="9.601125397907435"><ele>466.0</ele><time>2026-04-19T08:53:15Z</time></trkpt><trkpt lat="44.38649420809441" lon="9.601250343399427"><ele>463.25</ele><time>2026-04-19T08:53:16Z</time></trkpt><trkpt lat="44.38663719283987" lon="9.60134733301737"><ele>460.5</ele><time>2026-04-19T08:53:17Z</time></trkpt><trkpt lat="44.38676906399203" lon="9.601415435727544"><ele>457.75</ele><time>2026-04-19T08:53:18Z</time></trkpt><trkpt lat="44.38687528827697" lon="9.601470996190361"><ele>455.0</ele><time>2026-04-19T08:53:19Z</time></trkpt><trkpt lat="44.386960763943215" lon="9.601498996017755"><ele>455.0</ele><time>2026-04-19T08:53:20Z</time></trkpt><trkpt lat="44.387021003400825" lon="9.601423027469993"><ele>455.0</ele><time>2026-04-19T08:53:21Z</time></trkpt><trkpt lat="44.38706374766782" lon="9.601310506434439"><ele>455.0</ele><time>2026-04-19T08:53:22Z</time></trkpt><trkpt lat="44.387018192585806" lon="9.601151590740939"><ele>455.0</ele><time>2026-04-19T08:53:23Z</time></trkpt><trkpt lat="44.38690302052075" lon="9.601047888227901"><ele>455.0</ele><time>2026-04-19T08:53:24Z</time></trkpt><trkpt lat="44.3867667190949" lon="9.601018433272085"><ele>450.25</ele><time>2026-04-19T08:53:25Z</time></trkpt><trkpt lat="44.38663353879065" lon="9.601039055233112"><ele>445.5</ele><time>2026-04-19T08:53:26Z</time></trkpt><trkpt lat="44.38652763513965" lon="9.60098937746849"><ele>440.75</ele><time>2026-04-19T08:53:27Z</time></trkpt><trkpt lat="44.38645934750937" lon="9.600828489435786"><ele>436.0</ele><time>2026-04-19T08:53:28Z</time></trkpt><trkpt lat="44.38643864758544" lon="9.60063400583314"><ele>436.0</ele><time>2026-04-19T08:53:29Z</time></trkpt><trkpt lat="44.38642790197274" lon="9.60041916826091"><ele>436.0</ele><time>2026-04-19T08:53:30Z</time></trkpt><trkpt lat="44.386382225258814" lon="9.60018525069197"><ele>436.0</ele><time>2026-04-19T08:53:31Z</time></trkpt><trkpt lat="44.386355025769966" lon="9.59999529951274"><ele>436.25</ele><time>2026-04-19T08:53:32Z</time></trkpt><trkpt lat="44.38629361906536" lon="9.599823868745895"><ele>436.5</ele><time>2026-04-19T08:53:33Z</time></trkpt><trkpt lat="44.38621221723718" lon="9.599680345487618"><ele>436.75</ele><time>2026-04-19T08:53:34Z</time></trkpt><trkpt lat="44.38607572137644" lon="9.5995929418988"><ele>437.0</ele><time>2026-04-19T08:53:35Z</time></trkpt><trkpt lat="44.385938663105165" lon="9.599529723930194"><ele>437.0</ele><time>2026-04-19T08:53:35.999Z</time></trkpt><trkpt lat="44.38579446942005" lon="9.599512851040501"><ele>437.0</ele><time>2026-04-19T08:53:36.999Z</time></trkpt><trkpt lat="44.38566915797715" lon="9.599538519978084"><ele>437.0</ele><time>2026-04-19T08:53:37.999Z</time></trkpt><trkpt lat="44.385567407254825" lon="9.599566868165914"><ele>437.0</ele><time>2026-04-19T08:53:38.999Z</time></trkpt><trkpt lat="44.38549306323952" lon="9.599599377717295"><ele>437.16666666666663</ele><time>2026-04-19T08:53:39.999Z</time></trkpt><trkpt lat="44.38540016207205" lon="9.59964265923146"><ele>437.3333333333333</ele><time>2026-04-19T08:53:41.999Z</time></trkpt><trkpt lat="44.385325858851424" lon="9.599664697524075"><ele>437.5</ele><time>2026-04-19T08:53:44.999Z</time></trkpt><trkpt lat="44.38525493896918" lon="9.599676925273869"><ele>437.66666666666663</ele><time>2026-04-19T08:55:18Z</time></trkpt><trkpt lat="44.385185777428624" lon="9.599697862116633"><ele>437.8333333333333</ele><time>2026-04-19T08:55:18.999Z</time></trkpt><trkpt lat="44.3851139329773" lon="9.599699375291824"><ele>438.0</ele><time>2026-04-19T08:55:19.999Z</time></trkpt><trkpt lat="44.38505055653414" lon="9.599631227382549"><ele>438.0</ele><time>2026-04-19T08:55:20.999Z</time></trkpt><trkpt lat="44.38499389935594" lon="9.599516025793584"><ele>438.0</ele><time>2026-04-19T08:55:21.999Z</time></trkpt><trkpt lat="44.38492678571568" lon="9.599399076791979"><ele>438.0</ele><time>2026-04-19T08:55:22.999Z</time></trkpt><trkpt lat="44.38479260443317" lon="9.599198973652229"><ele>438.0</ele><time>2026-04-19T08:55:24.999Z</time></trkpt><trkpt lat="44.38471330429751" lon="9.599057889348517"><ele>435.25</ele><time>2026-04-19T08:55:25.999Z</time></trkpt><trkpt lat="44.384611133229" lon="9.598918165146808"><ele>432.5</ele><time>2026-04-19T08:55:26.999Z</time></trkpt><trkpt lat="44.384504503840034" lon="9.598773626857971"><ele>429.75</ele><time>2026-04-19T08:55:27.999Z</time></trkpt><trkpt lat="44.38440103614982" lon="9.598647616001244"><ele>427.0</ele><time>2026-04-19T08:55:28.999Z</time></trkpt><trkpt lat="44.38430701816901" lon="9.598529929087459"><ele>425.75</ele><time>2026-04-19T08:55:29.999Z</time></trkpt><trkpt lat="44.384234409316775" lon="9.59840262493175"><ele>424.5</ele><time>2026-04-19T08:55:30.999Z</time></trkpt><trkpt lat="44.38413135112633" lon="9.59828066348794"><ele>423.25</ele><time>2026-04-19T08:55:31.999Z</time></trkpt><trkpt lat="44.384003981718365" lon="9.598148118032674"><ele>422.0</ele><time>2026-04-19T08:55:32.999Z</time></trkpt><trkpt lat="44.3838349153504" lon="9.598035946011747"><ele>422.0</ele><time>2026-04-19T08:55:33.999Z</time></trkpt><trkpt lat="44.383663058297486" lon="9.59792645939471"><ele>422.0</ele><time>2026-04-19T08:55:34.999Z</time></trkpt><trkpt lat="44.38350727449624" lon="9.597829988549789"><ele>422.0</ele><time>2026-04-19T08:55:35.999Z</time></trkpt><trkpt lat="44.38336320748117" lon="9.59773839837788"><ele>418.3333333333333</ele><time>2026-04-19T08:55:36.999Z</time></trkpt><trkpt lat="44.38322075322096" lon="9.597644316966875"><ele>414.66666666666663</ele><time>2026-04-19T08:55:37.999Z</time></trkpt><trkpt lat="44.383082404965954" lon="9.597524937328018"><ele>411.0</ele><time>2026-04-19T08:55:38.999Z</time></trkpt><trkpt lat="44.38295193374163" lon="9.597386003395972"><ele>411.0</ele><time>2026-04-19T08:55:39.999Z</time></trkpt><trkpt lat="44.38284835216937" lon="9.597213993978816"><ele>411.0</ele><time>2026-04-19T08:55:40.999Z</time></trkpt><trkpt lat="44.38273644615956" lon="9.597066498527854"><ele>411.0</ele><time>2026-04-19T08:55:41.999Z</time></trkpt><trkpt lat="44.382638488179815" lon="9.596913032439137"><ele>402.33333333333337</ele><time>2026-04-19T08:55:42.999Z</time></trkpt><trkpt lat="44.3825346119172" lon="9.596772138139594"><ele>393.6666666666667</ele><time>2026-04-19T08:55:43.999Z</time></trkpt><trkpt lat="44.382394304949436" lon="9.596654940623035"><ele>385.0</ele><time>2026-04-19T08:55:44.999Z</time></trkpt><trkpt lat="44.3822369259213" lon="9.596573087152228"><ele>385.6666666666667</ele><time>2026-04-19T08:55:45.999Z</time></trkpt><trkpt lat="44.38208649768194" lon="9.596511000144512"><ele>386.33333333333337</ele><time>2026-04-19T08:55:46.999Z</time></trkpt><trkpt lat="44.38193044578024" lon="9.596443648470046"><ele>387.0</ele><time>2026-04-19T08:55:47.999Z</time></trkpt><trkpt lat="44.38177330044683" lon="9.596365264722177"><ele>387.0</ele><time>2026-04-19T08:55:48.999Z</time></trkpt><trkpt lat="44.3816145231783" lon="9.596290151611951"><ele>387.0</ele><time>2026-04-19T08:55:49.999Z</time></trkpt><trkpt lat="44.3814489321919" lon="9.596270348942692"><ele>387.0</ele><time>2026-04-19T08:55:50.999Z</time></trkpt><trkpt lat="44.381274308277725" lon="9.59628162405885"><ele>386.66666666666663</ele><time>2026-04-19T08:55:51.999Z</time></trkpt><trkpt lat="44.38111181152997" lon="9.596291371393873"><ele>386.3333333333333</ele><time>2026-04-19T08:55:52.999Z</time></trkpt><trkpt lat="44.38094181907144" lon="9.596295465702218"><ele>386.0</ele><time>2026-04-19T08:55:53.999Z</time></trkpt><trkpt lat="44.38078106394947" lon="9.596289298146123"><ele>386.0</ele><time>2026-04-19T08:55:54.999Z</time></trkpt><trkpt lat="44.380619288541624" lon="9.596300939502266"><ele>386.0</ele><time>2026-04-19T08:55:55.999Z</time></trkpt><trkpt lat="44.38045419679879" lon="9.596355303798521"><ele>386.0</ele><time>2026-04-19T08:55:56.999Z</time></trkpt><trkpt lat="44.38029277619005" lon="9.596423123127087"><ele>386.25</ele><time>2026-04-19T08:55:57.999Z</time></trkpt><trkpt lat="44.38013988864757" lon="9.596465239965012"><ele>386.5</ele><time>2026-04-19T08:55:58.999Z</time></trkpt><trkpt lat="44.37999167271857" lon="9.59647747312161"><ele>386.75</ele><time>2026-04-19T08:55:59.999Z</time></trkpt><trkpt lat="44.37985044412278" lon="9.596461313676489"><ele>387.0</ele><time>2026-04-19T08:56:00.999Z</time></trkpt><trkpt lat="44.37971289153085" lon="9.596422155479363"><ele>385.25</ele><time>2026-04-19T08:56:01.999Z</time></trkpt><trkpt lat="44.37958819030066" lon="9.596367181231209"><ele>383.5</ele><time>2026-04-19T08:56:02.999Z</time></trkpt><trkpt lat="44.37947558719451" lon="9.596291206429115"><ele>381.75</ele><time>2026-04-19T08:56:03.999Z</time></trkpt><trkpt lat="44.37936521176244" lon="9.59619624785029"><ele>380.0</ele><time>2026-04-19T08:56:04.999Z</time></trkpt><trkpt lat="44.379245493539074" lon="9.596099365481347"><ele>376.25</ele><time>2026-04-19T08:56:05.999Z</time></trkpt><trkpt lat="44.379119122968156" lon="9.596010015909265"><ele>372.5</ele><time>2026-04-19T08:56:06.999Z</time></trkpt><trkpt lat="44.37898958002642" lon="9.595932486010534"><ele>368.75</ele><time>2026-04-19T08:56:07.999Z</time></trkpt><trkpt lat="44.378854282215286" lon="9.595858877009391"><ele>365.0</ele><time>2026-04-19T08:56:08.999Z</time></trkpt><trkpt lat="44.37871553456341" lon="9.595792913367957"><ele>364.75</ele><time>2026-04-19T08:56:10Z</time></trkpt><trkpt lat="44.378574710052746" lon="9.595733823605267"><ele>364.5</ele><time>2026-04-19T08:56:11Z</time></trkpt><trkpt lat="44.37843099707905" lon="9.595679318000586"><ele>364.25</ele><time>2026-04-19T08:56:12Z</time></trkpt><trkpt lat="44.37828973372559" lon="9.59561991590813"><ele>364.0</ele><time>2026-04-19T08:56:13Z</time></trkpt><trkpt lat="44.378155789953" lon="9.595569994018811"><ele>364.0</ele><time>2026-04-19T08:56:14Z</time></trkpt><trkpt lat="44.37802340480686" lon="9.595526421569234"><ele>364.0</ele><time>2026-04-19T08:56:15Z</time></trkpt><trkpt lat="44.377903733877936" lon="9.595457795165379"><ele>364.0</ele><time>2026-04-19T08:56:16Z</time></trkpt><trkpt lat="44.377777591141516" lon="9.595407865602983"><ele>364.0</ele><time>2026-04-19T08:56:17Z</time></trkpt><trkpt lat="44.37764176980809" lon="9.5953529389671"><ele>363.0</ele><time>2026-04-19T08:56:18Z</time></trkpt><trkpt lat="44.37749855673749" lon="9.595294927599417"><ele>362.0</ele><time>2026-04-19T08:56:19Z</time></trkpt><trkpt lat="44.37734828065023" lon="9.59525172247527"><ele>361.0</ele><time>2026-04-19T08:56:20Z</time></trkpt><trkpt lat="44.3772036185226" lon="9.595191564855725"><ele>361.66666666666663</ele><time>2026-04-19T08:56:21Z</time></trkpt><trkpt lat="44.377060011466384" lon="9.595133184532585"><ele>362.3333333333333</ele><time>2026-04-19T08:56:22Z</time></trkpt><trkpt lat="44.37691040186156" lon="9.595069845182953"><ele>363.0</ele><time>2026-04-19T08:56:23Z</time></trkpt><trkpt lat="44.37676571682623" lon="9.59500785110679"><ele>363.0</ele><time>2026-04-19T08:56:24Z</time></trkpt><trkpt lat="44.37661441576068" lon="9.594948063484049"><ele>363.0</ele><time>2026-04-19T08:56:25Z</time></trkpt><trkpt lat="44.37646916746249" lon="9.594898282787637"><ele>363.0</ele><time>2026-04-19T08:56:26Z</time></trkpt><trkpt lat="44.37633318796329" lon="9.594841918345546"><ele>363.0</ele><time>2026-04-19T08:56:27Z</time></trkpt><trkpt lat="44.37621381854496" lon="9.59475707831641"><ele>361.5</ele><time>2026-04-19T08:56:28Z</time></trkpt><trkpt lat="44.37610738071491" lon="9.59466553295164"><ele>360.0</ele><time>2026-04-19T08:56:29Z</time></trkpt><trkpt lat="44.376034859742084" lon="9.594535227081531"><ele>358.5</ele><time>2026-04-19T08:56:30Z</time></trkpt><trkpt lat="44.375945204382646" lon="9.594387620194938"><ele>357.0</ele><time>2026-04-19T08:56:31Z</time></trkpt><trkpt lat="44.37584164919998" lon="9.594272073121898"><ele>357.0</ele><time>2026-04-19T08:56:32Z</time></trkpt><trkpt lat="44.3757386845971" lon="9.59416363266865"><ele>357.0</ele><time>2026-04-19T08:56:33Z</time></trkpt><trkpt lat="44.37562824017616" lon="9.59406758610245"><ele>357.0</ele><time>2026-04-19T08:56:34Z</time></trkpt><trkpt lat="44.3755148264143" lon="9.593968654421229"><ele>357.0</ele><time>2026-04-19T08:56:35Z</time></trkpt><trkpt lat="44.3753967041371" lon="9.593875551504448"><ele>355.5</ele><time>2026-04-19T08:56:36Z</time></trkpt><trkpt lat="44.375284145462196" lon="9.593795808374441"><ele>354.0</ele><time>2026-04-19T08:56:37Z</time></trkpt><trkpt lat="44.37517141171464" lon="9.593730890217733"><ele>352.5</ele><time>2026-04-19T08:56:38Z</time></trkpt><trkpt lat="44.375058920256016" lon="9.593673635071905"><ele>351.0</ele><time>2026-04-19T08:56:39Z</time></trkpt><trkpt lat="44.374954925046545" lon="9.593617150681155"><ele>351.0</ele><time>2026-04-19T08:56:40Z</time></trkpt><trkpt lat="44.37487658756261" lon="9.593543794058782"><ele>351.0</ele><time>2026-04-19T08:56:41Z</time></trkpt><trkpt lat="44.37481523348064" lon="9.593488976742893"><ele>351.0</ele><time>2026-04-19T08:56:42Z</time></trkpt><trkpt lat="44.37475779045915" lon="9.593427752137705"><ele>351.0</ele><time>2026-04-19T08:56:44Z</time></trkpt><trkpt lat="44.37484361236612" lon="9.59330427573398"><ele>351.0</ele><time>2026-04-19T08:56:47Z</time></trkpt><trkpt lat="44.37491015940123" lon="9.593221424525593"><ele>351.0</ele><time>2026-04-19T08:56:48Z</time></trkpt><trkpt lat="44.37498622807785" lon="9.593152718489492"><ele>351.0</ele><time>2026-04-19T08:56:49Z</time></trkpt><trkpt lat="44.37506074626428" lon="9.59307438007138"><ele>351.0</ele><time>2026-04-19T08:56:50Z</time></trkpt><trkpt lat="44.37512999885823" lon="9.593003431007542"><ele>351.0</ele><time>2026-04-19T08:56:51Z</time></trkpt><trkpt lat="44.37520290789271" lon="9.592961118112626"><ele>351.0</ele><time>2026-04-19T08:56:52Z</time></trkpt><trkpt lat="44.37527546945348" lon="9.59292999597751"><ele>351.0</ele><time>2026-04-19T08:56:53Z</time></trkpt><trkpt lat="44.37535540559325" lon="9.592932654606551"><ele>351.0</ele><time>2026-04-19T08:56:54Z</time></trkpt><trkpt lat="44.37544117345583" lon="9.59295927636892"><ele>351.0</ele><time>2026-04-19T08:56:55Z</time></trkpt><trkpt lat="44.3755099750661" lon="9.59301973838336"><ele>351.0</ele><time>2026-04-19T08:56:56Z</time></trkpt><trkpt lat="44.37559586682799" lon="9.59309304530778"><ele>351.0</ele><time>2026-04-19T08:56:57Z</time></trkpt><trkpt lat="44.375654731921244" lon="9.593171726275118"><ele>351.0</ele><time>2026-04-19T08:56:58Z</time></trkpt><trkpt lat="44.3757213276809" lon="9.593243785466862"><ele>351.0</ele><time>2026-04-19T08:56:59Z</time></trkpt><trkpt lat="44.37577657613087" lon="9.593291267384473"><ele>351.5</ele><time>2026-04-19T08:57:00Z</time></trkpt><trkpt lat="44.37584493928242" lon="9.593339994481363"><ele>352.0</ele><time>2026-04-19T08:57:01Z</time></trkpt><trkpt lat="44.37591290985529" lon="9.593376349428526"><ele>352.5</ele><time>2026-04-19T08:57:02Z</time></trkpt><trkpt lat="44.376029283262845" lon="9.593399907208642"><ele>353.0</ele><time>2026-04-19T08:57:04Z</time></trkpt><trkpt lat="44.37609838056344" lon="9.59339092891133"><ele>353.5</ele><time>2026-04-19T08:57:05Z</time></trkpt><trkpt lat="44.37616966381635" lon="9.593362850810987"><ele>354.0</ele><time>2026-04-19T08:57:06Z</time></trkpt><trkpt lat="44.376239114763756" lon="9.59332204943546"><ele>354.0</ele><time>2026-04-19T08:57:07Z</time></trkpt><trkpt lat="44.37631304087903" lon="9.593297333561104"><ele>354.0</ele><time>2026-04-19T08:57:08Z</time></trkpt><trkpt lat="44.376379877829734" lon="9.593248625367062"><ele>354.0</ele><time>2026-04-19T08:57:09Z</time></trkpt><trkpt lat="44.376443546209124" lon="9.59319418273792"><ele>354.0</ele><time>2026-04-19T08:57:10Z</time></trkpt><trkpt lat="44.37650485433316" lon="9.593131739703757"><ele>354.0</ele><time>2026-04-19T08:57:11Z</time></trkpt><trkpt lat="44.376553625980804" lon="9.593069589463026"><ele>354.0</ele><time>2026-04-19T08:57:12Z</time></trkpt><trkpt lat="44.37658483374698" lon="9.592977314495776"><ele>354.0</ele><time>2026-04-19T08:57:13Z</time></trkpt><trkpt lat="44.376627650865814" lon="9.592909336904453"><ele>354.4</ele><time>2026-04-19T08:57:14Z</time></trkpt><trkpt lat="44.37665960014343" lon="9.592829522762193"><ele>354.79999999999995</ele><time>2026-04-19T08:57:15Z</time></trkpt><trkpt lat="44.37676060184572" lon="9.592701679182749"><ele>355.20000000000005</ele><time>2026-04-19T08:57:17Z</time></trkpt><trkpt lat="44.37682997712965" lon="9.592628471845957"><ele>355.6</ele><time>2026-04-19T08:57:18Z</time></trkpt><trkpt lat="44.376904193702934" lon="9.592563622728296"><ele>356.0</ele><time>2026-04-19T08:57:19Z</time></trkpt><trkpt lat="44.37698060215471" lon="9.592472739204267"><ele>356.0</ele><time>2026-04-19T08:57:20Z</time></trkpt><trkpt lat="44.377050432195944" lon="9.592402386990331"><ele>356.0</ele><time>2026-04-19T08:57:21Z</time></trkpt><trkpt lat="44.37713745112797" lon="9.592343776253845"><ele>356.0</ele><time>2026-04-19T08:57:22Z</time></trkpt><trkpt lat="44.37721529236204" lon="9.592258739680172"><ele>356.0</ele><time>2026-04-19T08:57:23Z</time></trkpt><trkpt lat="44.37727325831129" lon="9.592141872761651"><ele>356.0</ele><time>2026-04-19T08:57:24Z</time></trkpt><trkpt lat="44.37733970194474" lon="9.592011388553939"><ele>356.0</ele><time>2026-04-19T08:57:24.999Z</time></trkpt><trkpt lat="44.37742195316801" lon="9.591882538411543"><ele>356.0</ele><time>2026-04-19T08:57:25.999Z</time></trkpt><trkpt lat="44.37749201345801" lon="9.5917315437343"><ele>356.0</ele><time>2026-04-19T08:57:26.999Z</time></trkpt><trkpt lat="44.377589196319555" lon="9.591597481781944"><ele>356.0</ele><time>2026-04-19T08:57:27.999Z</time></trkpt><trkpt lat="44.37768617711925" lon="9.591471698741515"><ele>356.0</ele><time>2026-04-19T08:57:28.999Z</time></trkpt><trkpt lat="44.377788089633995" lon="9.591345905511744"><ele>356.0</ele><time>2026-04-19T08:57:29.999Z</time></trkpt><trkpt lat="44.37788025589574" lon="9.59123328630241"><ele>356.0</ele><time>2026-04-19T08:57:30.999Z</time></trkpt><trkpt lat="44.37797222118209" lon="9.591125880901586"><ele>356.0</ele><time>2026-04-19T08:57:31.999Z</time></trkpt><trkpt lat="44.37807137498421" lon="9.591017454962806"><ele>355.25</ele><time>2026-04-19T08:57:32.999Z</time></trkpt><trkpt lat="44.3781829836626" lon="9.590904272147668"><ele>354.5</ele><time>2026-04-19T08:57:33.999Z</time></trkpt><trkpt lat="44.37830146377458" lon="9.590777989198285"><ele>353.75</ele><time>2026-04-19T08:57:34.999Z</time></trkpt><trkpt lat="44.37842493722343" lon="9.590638014846782"><ele>353.0</ele><time>2026-04-19T08:57:35.999Z</time></trkpt><trkpt lat="44.378551666396284" lon="9.590516785462995"><ele>353.0</ele><time>2026-04-19T08:57:36.999Z</time></trkpt><trkpt lat="44.37866247375824" lon="9.590385051348761"><ele>353.0</ele><time>2026-04-19T08:57:37.999Z</time></trkpt><trkpt lat="44.378773098425185" lon="9.590251720586956"><ele>353.0</ele><time>2026-04-19T08:57:38.999Z</time></trkpt><trkpt lat="44.37887727481053" lon="9.590123959008377"><ele>353.0</ele><time>2026-04-19T08:57:39.999Z</time></trkpt><trkpt lat="44.378977123358396" lon="9.589970836605618"><ele>353.5</ele><time>2026-04-19T08:57:40.999Z</time></trkpt><trkpt lat="44.37908535693244" lon="9.5898413199994"><ele>354.0</ele><time>2026-04-19T08:57:41.999Z</time></trkpt><trkpt lat="44.37919866632694" lon="9.589707904627423"><ele>354.5</ele><time>2026-04-19T08:57:42.999Z</time></trkpt><trkpt lat="44.37931687912049" lon="9.589572435477688"><ele>355.0</ele><time>2026-04-19T08:57:43.999Z</time></trkpt><trkpt lat="44.37945379381786" lon="9.589451825485538"><ele>355.0</ele><time>2026-04-19T08:57:44.999Z</time></trkpt><trkpt lat="44.37959058540481" lon="9.58931231592636"><ele>355.0</ele><time>2026-04-19T08:57:45.999Z</time></trkpt><trkpt lat="44.37971894178754" lon="9.589160311740423"><ele>355.0</ele><time>2026-04-19T08:57:46.999Z</time></trkpt><trkpt lat="44.37986526010537" lon="9.589039861361861"><ele>355.3333333333333</ele><time>2026-04-19T08:57:47.999Z</time></trkpt><trkpt lat="44.38002790393425" lon="9.588952259530508"><ele>355.6666666666667</ele><time>2026-04-19T08:57:48.999Z</time></trkpt><trkpt lat="44.380179527555065" lon="9.588846540898057"><ele>356.0</ele><time>2026-04-19T08:57:49.999Z</time></trkpt><trkpt lat="44.3803125403138" lon="9.588730966106244"><ele>356.0</ele><time>2026-04-19T08:57:50.999Z</time></trkpt><trkpt lat="44.38045888102367" lon="9.58863948107012"><ele>356.0</ele><time>2026-04-19T08:57:51.999Z</time></trkpt><trkpt lat="44.380608612533784" lon="9.58855147416432"><ele>356.0</ele><time>2026-04-19T08:57:52.999Z</time></trkpt><trkpt lat="44.38075038874901" lon="9.588483425894793"><ele>356.33333333333337</ele><time>2026-04-19T08:57:53.999Z</time></trkpt><trkpt lat="44.38090152912918" lon="9.58839520645602"><ele>356.6666666666667</ele><time>2026-04-19T08:57:54.999Z</time></trkpt><trkpt lat="44.381069818460716" lon="9.588348092021489"><ele>357.0</ele><time>2026-04-19T08:57:55.999Z</time></trkpt><trkpt lat="44.381239268644215" lon="9.588289469467242"><ele>360.6666666666667</ele><time>2026-04-19T08:57:56.999Z</time></trkpt><trkpt lat="44.38138501962111" lon="9.588199257062866"><ele>364.33333333333337</ele><time>2026-04-19T08:57:57.999Z</time></trkpt><trkpt lat="44.381541591516346" lon="9.588130811165952"><ele>368.0</ele><time>2026-04-19T08:57:58.999Z</time></trkpt><trkpt lat="44.381692871332895" lon="9.588057752755637"><ele>368.0</ele><time>2026-04-19T08:57:59.999Z</time></trkpt><trkpt lat="44.38184456530297" lon="9.58797508371918"><ele>368.0</ele><time>2026-04-19T08:58:00.999Z</time></trkpt><trkpt lat="44.38198677869925" lon="9.58789567463386"><ele>368.0</ele><time>2026-04-19T08:58:01.999Z</time></trkpt><trkpt lat="44.38214344523281" lon="9.587819387937605"><ele>366.6666666666667</ele><time>2026-04-19T08:58:02.999Z</time></trkpt><trkpt lat="44.38230222612972" lon="9.587747114333649"><ele>365.3333333333333</ele><time>2026-04-19T08:58:03.999Z</time></trkpt><trkpt lat="44.38245961661739" lon="9.587669837233967"><ele>364.0</ele><time>2026-04-19T08:58:04.999Z</time></trkpt><trkpt lat="44.382599798910825" lon="9.58759210389176"><ele>364.0</ele><time>2026-04-19T08:58:05.999Z</time></trkpt><trkpt lat="44.382716287047245" lon="9.587525524788246"><ele>364.0</ele><time>2026-04-19T08:58:06.999Z</time></trkpt><trkpt lat="44.38285764170446" lon="9.587399788727277"><ele>364.0</ele><time>2026-04-19T08:58:07.999Z</time></trkpt><trkpt lat="44.38297660624118" lon="9.587300330943243"><ele>364.0</ele><time>2026-04-19T08:58:08.999Z</time></trkpt><trkpt lat="44.38309532084626" lon="9.587206011274608"><ele>364.2</ele><time>2026-04-19T08:58:09.999Z</time></trkpt><trkpt lat="44.383206979603536" lon="9.587118776209529"><ele>364.4</ele><time>2026-04-19T08:58:10.999Z</time></trkpt><trkpt lat="44.383310669696954" lon="9.587041715518094"><ele>364.6</ele><time>2026-04-19T08:58:11.999Z</time></trkpt><trkpt lat="44.38340163708196" lon="9.586969876012196"><ele>364.8</ele><time>2026-04-19T08:58:12.999Z</time></trkpt><trkpt lat="44.38348409843273" lon="9.586935532019949"><ele>365.0</ele><time>2026-04-19T08:58:13.999Z</time></trkpt><trkpt lat="44.383575889617674" lon="9.58686819672518"><ele>365.0</ele><time>2026-04-19T08:58:16Z</time></trkpt><trkpt lat="44.38367890128293" lon="9.586791133369397"><ele>365.0</ele><time>2026-04-19T08:58:18Z</time></trkpt><trkpt lat="44.38376417131657" lon="9.586726988945786"><ele>365.0</ele><time>2026-04-19T08:58:19Z</time></trkpt><trkpt lat="44.383822783455585" lon="9.586680063486915"><ele>365.0</ele><time>2026-04-19T08:58:20Z</time></trkpt><trkpt lat="44.383916804006" lon="9.586601754497975"><ele>365.0</ele><time>2026-04-19T08:58:21Z</time></trkpt><trkpt lat="44.38401260418134" lon="9.586493843683256"><ele>366.5</ele><time>2026-04-19T08:58:22Z</time></trkpt><trkpt lat="44.384128413787614" lon="9.586398327241898"><ele>368.0</ele><time>2026-04-19T08:58:23Z</time></trkpt><trkpt lat="44.384212802214705" lon="9.58625971605772"><ele>369.5</ele><time>2026-04-19T08:58:24Z</time></trkpt><trkpt lat="44.38429554082104" lon="9.586131393105113"><ele>371.0</ele><time>2026-04-19T08:58:25Z</time></trkpt><trkpt lat="44.38437648606723" lon="9.585985546394536"><ele>371.0</ele><time>2026-04-19T08:58:26Z</time></trkpt><trkpt lat="44.38446065124835" lon="9.585844214695955"><ele>371.0</ele><time>2026-04-19T08:58:27Z</time></trkpt><trkpt lat="44.38455353409036" lon="9.585712297414297"><ele>371.0</ele><time>2026-04-19T08:58:28Z</time></trkpt><trkpt lat="44.38465280938274" lon="9.58559001632846"><ele>371.0</ele><time>2026-04-19T08:58:29Z</time></trkpt><trkpt lat="44.38475526801557" lon="9.585467570417963"><ele>371.0</ele><time>2026-04-19T08:58:30Z</time></trkpt><trkpt lat="44.3848720968535" lon="9.585337961498741"><ele>371.0</ele><time>2026-04-19T08:58:31Z</time></trkpt><trkpt lat="44.38499611812257" lon="9.585192912019634"><ele>371.0</ele><time>2026-04-19T08:58:32Z</time></trkpt><trkpt lat="44.38512576926193" lon="9.585042465719775"><ele>371.0</ele><time>2026-04-19T08:58:33Z</time></trkpt><trkpt lat="44.38524982833658" lon="9.58488664746566"><ele>371.0</ele><time>2026-04-19T08:58:34Z</time></trkpt><trkpt lat="44.38536778243386" lon="9.58471538616534"><ele>371.0</ele><time>2026-04-19T08:58:35Z</time></trkpt><trkpt lat="44.38547992385027" lon="9.584523155500131"><ele>373.33333333333337</ele><time>2026-04-19T08:58:36Z</time></trkpt><trkpt lat="44.385577350006514" lon="9.584324109349273"><ele>375.6666666666667</ele><time>2026-04-19T08:58:37Z</time></trkpt><trkpt lat="44.38566813962428" lon="9.584124135751429"><ele>378.0</ele><time>2026-04-19T08:58:38Z</time></trkpt><trkpt lat="44.3857659965186" lon="9.583926776724212"><ele>378.0</ele><time>2026-04-19T08:58:39Z</time></trkpt><trkpt lat="44.38585842094816" lon="9.58374841296338"><ele>378.0</ele><time>2026-04-19T08:58:40Z</time></trkpt><trkpt lat="44.385944974897185" lon="9.583590443077735"><ele>378.0</ele><time>2026-04-19T08:58:41Z</time></trkpt><trkpt lat="44.386015512049184" lon="9.583413170611117"><ele>378.0</ele><time>2026-04-19T08:58:42Z</time></trkpt><trkpt lat="44.386057094563824" lon="9.583222931125663"><ele>375.3333333333333</ele><time>2026-04-19T08:58:43Z</time></trkpt><trkpt lat="44.38608135643127" lon="9.583011814386659"><ele>372.66666666666663</ele><time>2026-04-19T08:58:44Z</time></trkpt><trkpt lat="44.3860839978348" lon="9.582792983234585"><ele>370.0</ele><time>2026-04-19T08:58:45Z</time></trkpt><trkpt lat="44.38607872214798" lon="9.58256560592061"><ele>369.3333333333333</ele><time>2026-04-19T08:58:46Z</time></trkpt><trkpt lat="44.386084520957525" lon="9.58233426948685"><ele>368.6666666666667</ele><time>2026-04-19T08:58:47Z</time></trkpt><trkpt lat="44.38609345569175" lon="9.582103954596345"><ele>368.0</ele><time>2026-04-19T08:58:48Z</time></trkpt><trkpt lat="44.38609497642136" lon="9.581860326065597"><ele>368.0</ele><time>2026-04-19T08:58:49Z</time></trkpt><trkpt lat="44.3860973373944" lon="9.581600366473335"><ele>368.0</ele><time>2026-04-19T08:58:50Z</time></trkpt><trkpt lat="44.38610421260316" lon="9.5813479089526"><ele>368.0</ele><time>2026-04-19T08:58:51Z</time></trkpt><trkpt lat="44.38610699376949" lon="9.581092342239039"><ele>369.33333333333337</ele><time>2026-04-19T08:58:52Z</time></trkpt><trkpt lat="44.38610551215741" lon="9.580826526452785"><ele>370.6666666666667</ele><time>2026-04-19T08:58:53Z</time></trkpt><trkpt lat="44.38609984227464" lon="9.580571823030514"><ele>372.0</ele><time>2026-04-19T08:58:54Z</time></trkpt><trkpt lat="44.38608119429771" lon="9.580302316320676"><ele>374.0</ele><time>2026-04-19T08:58:55Z</time></trkpt><trkpt lat="44.38605092200948" lon="9.580050053971833"><ele>376.0</ele><time>2026-04-19T08:58:56Z</time></trkpt><trkpt lat="44.38601338356675" lon="9.57978767076932"><ele>378.0</ele><time>2026-04-19T08:58:57Z</time></trkpt><trkpt lat="44.38598001736822" lon="9.579517897838679"><ele>379.6666666666667</ele><time>2026-04-19T08:58:58Z</time></trkpt><trkpt lat="44.38595814789619" lon="9.579260093215353"><ele>381.33333333333337</ele><time>2026-04-19T08:58:59Z</time></trkpt><trkpt lat="44.38594038167941" lon="9.578985046959675"><ele>383.0</ele><time>2026-04-19T08:59:00Z</time></trkpt><trkpt lat="44.38593335376919" lon="9.578704540670357"><ele>383.33333333333337</ele><time>2026-04-19T08:59:01Z</time></trkpt><trkpt lat="44.38592371700313" lon="9.57843576711164"><ele>383.6666666666667</ele><time>2026-04-19T08:59:02Z</time></trkpt><trkpt lat="44.38591115752112" lon="9.57819661661956"><ele>384.0</ele><time>2026-04-19T08:59:03Z</time></trkpt><trkpt lat="44.3858967529416" lon="9.577962032768506"><ele>385.0</ele><time>2026-04-19T08:59:04Z</time></trkpt><trkpt lat="44.38587041049388" lon="9.577726089913835"><ele>386.0</ele><time>2026-04-19T08:59:05Z</time></trkpt><trkpt lat="44.385833494725915" lon="9.577483850649463"><ele>387.0</ele><time>2026-04-19T08:59:06Z</time></trkpt><trkpt lat="44.38576975297289" lon="9.577234314318318"><ele>390.66666666666663</ele><time>2026-04-19T08:59:07Z</time></trkpt><trkpt lat="44.38569502282796" lon="9.577007067822745"><ele>394.3333333333333</ele><time>2026-04-19T08:59:08Z</time></trkpt><trkpt lat="44.38561018665373" lon="9.576769607989549"><ele>398.0</ele><time>2026-04-19T08:59:09Z</time></trkpt><trkpt lat="44.385519285923785" lon="9.576539912312088"><ele>392.3333333333333</ele><time>2026-04-19T08:59:10Z</time></trkpt><trkpt lat="44.38543508847871" lon="9.576322282652868"><ele>386.66666666666663</ele><time>2026-04-19T08:59:11Z</time></trkpt><trkpt lat="44.38536036558777" lon="9.576116060911147"><ele>381.0</ele><time>2026-04-19T08:59:12Z</time></trkpt><trkpt lat="44.38529375926273" lon="9.575930298025439"><ele>381.0</ele><time>2026-04-19T08:59:13Z</time></trkpt><trkpt lat="44.385239089836595" lon="9.575750328104627"><ele>381.0</ele><time>2026-04-19T08:59:14Z</time></trkpt><trkpt lat="44.385256327209156" lon="9.57557776497629"><ele>381.0</ele><time>2026-04-19T08:59:15Z</time></trkpt><trkpt lat="44.38531074029979" lon="9.575435664015552"><ele>381.0</ele><time>2026-04-19T08:59:16Z</time></trkpt><trkpt lat="44.38539586713292" lon="9.575288544547563"><ele>381.0</ele><time>2026-04-19T08:59:17Z</time></trkpt><trkpt lat="44.385478699136904" lon="9.57512464758399"><ele>381.0</ele><time>2026-04-19T08:59:18Z</time></trkpt><trkpt lat="44.3855844951465" lon="9.574984607064671"><ele>381.0</ele><time>2026-04-19T08:59:19Z</time></trkpt><trkpt lat="44.385686239242105" lon="9.574842379955026"><ele>381.0</ele><time>2026-04-19T08:59:20Z</time></trkpt><trkpt lat="44.385772865719076" lon="9.574694454106247"><ele>381.5</ele><time>2026-04-19T08:59:21Z</time></trkpt><trkpt lat="44.38583298333521" lon="9.574549770062834"><ele>382.0</ele><time>2026-04-19T08:59:22Z</time></trkpt><trkpt lat="44.38585925350289" lon="9.574373826705056"><ele>382.5</ele><time>2026-04-19T08:59:23Z</time></trkpt><trkpt lat="44.385848730649975" lon="9.574184847085665"><ele>383.0</ele><time>2026-04-19T08:59:24Z</time></trkpt><trkpt lat="44.38580242585884" lon="9.573999027473972"><ele>383.0</ele><time>2026-04-19T08:59:25Z</time></trkpt><trkpt lat="44.38574102723838" lon="9.573814256635247"><ele>383.0</ele><time>2026-04-19T08:59:26Z</time></trkpt><trkpt lat="44.385680720365855" lon="9.57365108466238"><ele>383.0</ele><time>2026-04-19T08:59:27Z</time></trkpt><trkpt lat="44.38562203660186" lon="9.573471208374503"><ele>383.0</ele><time>2026-04-19T08:59:28Z</time></trkpt><trkpt lat="44.38556643355454" lon="9.573278061272276"><ele>382.5</ele><time>2026-04-19T08:59:29Z</time></trkpt><trkpt lat="44.38551958828596" lon="9.57309236317697"><ele>382.0</ele><time>2026-04-19T08:59:30Z</time></trkpt><trkpt lat="44.385480654224715" lon="9.572893793440201"><ele>381.5</ele><time>2026-04-19T08:59:31Z</time></trkpt><trkpt lat="44.3854700389979" lon="9.572683482040013"><ele>381.0</ele><time>2026-04-19T08:59:32Z</time></trkpt><trkpt lat="44.38546646688725" lon="9.572469416086678"><ele>380.6666666666667</ele><time>2026-04-19T08:59:33Z</time></trkpt><trkpt lat="44.385435879019504" lon="9.572236275212173"><ele>380.33333333333337</ele><time>2026-04-19T08:59:34Z</time></trkpt><trkpt lat="44.3854128940885" lon="9.571996901176542"><ele>380.0</ele><time>2026-04-19T08:59:35Z</time></trkpt><trkpt lat="44.38537455820108" lon="9.571766113394553"><ele>381.6666666666667</ele><time>2026-04-19T08:59:36Z</time></trkpt><trkpt lat="44.385324842567755" lon="9.571537361133906"><ele>383.33333333333337</ele><time>2026-04-19T08:59:37Z</time></trkpt><trkpt lat="44.38526810530225" lon="9.571333163436876"><ele>385.0</ele><time>2026-04-19T08:59:38Z</time></trkpt><trkpt lat="44.3852357208959" lon="9.5711160645263"><ele>386.0</ele><time>2026-04-19T08:59:39Z</time></trkpt><trkpt lat="44.38516867324961" lon="9.57087657146525"><ele>387.0</ele><time>2026-04-19T08:59:40Z</time></trkpt><trkpt lat="44.3850690939718" lon="9.570696904411045"><ele>388.0</ele><time>2026-04-19T08:59:41Z</time></trkpt><trkpt lat="44.38502079345362" lon="9.57049381904915"><ele>388.0</ele><time>2026-04-19T08:59:42Z</time></trkpt><trkpt lat="44.38488303670346" lon="9.570423870298225"><ele>388.0</ele><time>2026-04-19T08:59:43Z</time></trkpt><trkpt lat="44.384822963228885" lon="9.570294830509136"><ele>388.0</ele><time>2026-04-19T08:59:44Z</time></trkpt><trkpt lat="44.38479939934687" lon="9.570114711047298"><ele>388.0</ele><time>2026-04-19T08:59:44.999Z</time></trkpt><trkpt lat="44.384791031986175" lon="9.569914468834684"><ele>389.33333333333337</ele><time>2026-04-19T08:59:45.999Z</time></trkpt><trkpt lat="44.38480286049185" lon="9.569696378134555"><ele>390.66666666666663</ele><time>2026-04-19T08:59:46.999Z</time></trkpt><trkpt lat="44.384820706161804" lon="9.569462092736941"><ele>392.0</ele><time>2026-04-19T08:59:47.999Z</time></trkpt><trkpt lat="44.38485799427506" lon="9.569235082784203"><ele>393.3333333333333</ele><time>2026-04-19T08:59:48.999Z</time></trkpt><trkpt lat="44.384885160374616" lon="9.568982748228663"><ele>394.66666666666663</ele><time>2026-04-19T08:59:49.999Z</time></trkpt><trkpt lat="44.384893164712715" lon="9.568722923271595"><ele>396.0</ele><time>2026-04-19T08:59:50.999Z</time></trkpt><trkpt lat="44.384911192119326" lon="9.56848376585266"><ele>396.33333333333337</ele><time>2026-04-19T08:59:51.999Z</time></trkpt><trkpt lat="44.38493388235883" lon="9.568246931870068"><ele>396.6666666666667</ele><time>2026-04-19T08:59:52.999Z</time></trkpt><trkpt lat="44.384964122914326" lon="9.567998307060456"><ele>397.0</ele><time>2026-04-19T08:59:53.999Z</time></trkpt><trkpt lat="44.384994079027585" lon="9.567764413727968"><ele>396.0</ele><time>2026-04-19T08:59:54.999Z</time></trkpt><trkpt lat="44.38504092287692" lon="9.567553019842837"><ele>395.0</ele><time>2026-04-19T08:59:55.999Z</time></trkpt><trkpt lat="44.38508232162688" lon="9.567360635508717"><ele>394.0</ele><time>2026-04-19T08:59:56.999Z</time></trkpt><trkpt lat="44.38515590742958" lon="9.567184871582848"><ele>393.0</ele><time>2026-04-19T08:59:57.999Z</time></trkpt><trkpt lat="44.385270752925535" lon="9.567059700412871"><ele>392.33333333333337</ele><time>2026-04-19T08:59:58.999Z</time></trkpt><trkpt lat="44.38540863702473" lon="9.566922189467908"><ele>391.6666666666667</ele><time>2026-04-19T08:59:59.999Z</time></trkpt><trkpt lat="44.38554009823982" lon="9.566787506796716"><ele>391.0</ele><time>2026-04-19T09:00:00.999Z</time></trkpt><trkpt lat="44.385676073018324" lon="9.566687327087076"><ele>395.0</ele><time>2026-04-19T09:00:01.999Z</time></trkpt><trkpt lat="44.38581932812802" lon="9.566581573763015"><ele>399.0</ele><time>2026-04-19T09:00:02.999Z</time></trkpt><trkpt lat="44.38596343699458" lon="9.566483351106955"><ele>403.0</ele><time>2026-04-19T09:00:03.999Z</time></trkpt><trkpt lat="44.386109573952666" lon="9.566360300841996"><ele>403.0</ele><time>2026-04-19T09:00:04.999Z</time></trkpt><trkpt lat="44.38625658455179" lon="9.566243244084118"><ele>403.0</ele><time>2026-04-19T09:00:05.999Z</time></trkpt><trkpt lat="44.386394044239076" lon="9.566114547505194"><ele>403.0</ele><time>2026-04-19T09:00:06.999Z</time></trkpt><trkpt lat="44.386528108822105" lon="9.565973159784209"><ele>403.0</ele><time>2026-04-19T09:00:07.999Z</time></trkpt><trkpt lat="44.38666184419417" lon="9.56582075840794"><ele>403.0</ele><time>2026-04-19T09:00:08.999Z</time></trkpt><trkpt lat="44.386781154759035" lon="9.565682297226765"><ele>403.0</ele><time>2026-04-19T09:00:09.999Z</time></trkpt><trkpt lat="44.38689995337842" lon="9.565564904121242"><ele>403.0</ele><time>2026-04-19T09:00:10.999Z</time></trkpt><trkpt lat="44.38701916536901" lon="9.565473755732922"><ele>403.0</ele><time>2026-04-19T09:00:11.999Z</time></trkpt><trkpt lat="44.38713925713932" lon="9.56540447279771"><ele>403.0</ele><time>2026-04-19T09:00:12.999Z</time></trkpt><trkpt lat="44.387254915754504" lon="9.5653497975022"><ele>403.0</ele><time>2026-04-19T09:00:13.999Z</time></trkpt><trkpt lat="44.38736227893317" lon="9.565284702319492"><ele>403.4</ele><time>2026-04-19T09:00:14.999Z</time></trkpt><trkpt lat="44.38745418297729" lon="9.565200367811808"><ele>403.79999999999995</ele><time>2026-04-19T09:00:15.999Z</time></trkpt><trkpt lat="44.38751829832363" lon="9.565106038543007"><ele>404.2</ele><time>2026-04-19T09:00:16.999Z</time></trkpt><trkpt lat="44.38756218748546" lon="9.564981510875938"><ele>404.6</ele><time>2026-04-19T09:00:17.999Z</time></trkpt><trkpt lat="44.38758806352004" lon="9.564823915815795"><ele>405.0</ele><time>2026-04-19T09:00:18.999Z</time></trkpt><trkpt lat="44.387609495493855" lon="9.564632404302104"><ele>402.0</ele><time>2026-04-19T09:00:19.999Z</time></trkpt><trkpt lat="44.387638167724525" lon="9.564418464467336"><ele>399.0</ele><time>2026-04-19T09:00:20.999Z</time></trkpt><trkpt lat="44.3876749228537" lon="9.564201378576444"><ele>396.0</ele><time>2026-04-19T09:00:22Z</time></trkpt><trkpt lat="44.38772166025536" lon="9.563965042645393"><ele>396.0</ele><time>2026-04-19T09:00:23Z</time></trkpt><trkpt lat="44.38776844741132" lon="9.563719751666053"><ele>396.0</ele><time>2026-04-19T09:00:24Z</time></trkpt><trkpt lat="44.387815986054704" lon="9.563469108838168"><ele>396.0</ele><time>2026-04-19T09:00:25Z</time></trkpt><trkpt lat="44.387863230062614" lon="9.563227167059638"><ele>397.0</ele><time>2026-04-19T09:00:26Z</time></trkpt><trkpt lat="44.38791089422938" lon="9.562990795252345"><ele>398.0</ele><time>2026-04-19T09:00:27Z</time></trkpt><trkpt lat="44.38795556855332" lon="9.56276634645341"><ele>399.0</ele><time>2026-04-19T09:00:28Z</time></trkpt><trkpt lat="44.388001286123554" lon="9.562542956763746"><ele>398.33333333333337</ele><time>2026-04-19T09:00:29Z</time></trkpt><trkpt lat="44.38804604102596" lon="9.562321773698466"><ele>397.6666666666667</ele><time>2026-04-19T09:00:30Z</time></trkpt><trkpt lat="44.38809407663232" lon="9.562090008937817"><ele>397.0</ele><time>2026-04-19T09:00:31Z</time></trkpt><trkpt lat="44.388142387611744" lon="9.561855002240597"><ele>397.0</ele><time>2026-04-19T09:00:32Z</time></trkpt><trkpt lat="44.388193322314486" lon="9.561615523068403"><ele>397.0</ele><time>2026-04-19T09:00:33Z</time></trkpt><trkpt lat="44.38823998650042" lon="9.561377296582743"><ele>397.0</ele><time>2026-04-19T09:00:34Z</time></trkpt><trkpt lat="44.38828478983703" lon="9.561133179974963"><ele>397.6666666666667</ele><time>2026-04-19T09:00:35Z</time></trkpt><trkpt lat="44.388329281086406" lon="9.560898503986817"><ele>398.33333333333337</ele><time>2026-04-19T09:00:36Z</time></trkpt><trkpt lat="44.38837647016827" lon="9.560656389415925"><ele>399.0</ele><time>2026-04-19T09:00:37Z</time></trkpt><trkpt lat="44.38842372726952" lon="9.560412502160705"><ele>399.33333333333337</ele><time>2026-04-19T09:00:38Z</time></trkpt><trkpt lat="44.38847141045583" lon="9.560181709522753"><ele>399.6666666666667</ele><time>2026-04-19T09:00:39Z</time></trkpt><trkpt lat="44.38851792395815" lon="9.559957061619945"><ele>400.0</ele><time>2026-04-19T09:00:40Z</time></trkpt><trkpt lat="44.38856444012584" lon="9.559726294867115"><ele>400.0</ele><time>2026-04-19T09:00:41Z</time></trkpt><trkpt lat="44.38861214345349" lon="9.559492248862345"><ele>400.0</ele><time>2026-04-19T09:00:42Z</time></trkpt><trkpt lat="44.38865955240545" lon="9.559262522488991"><ele>400.0</ele><time>2026-04-19T09:00:43Z</time></trkpt><trkpt lat="44.38870708286783" lon="9.559039622376911"><ele>400.0</ele><time>2026-04-19T09:00:44Z</time></trkpt><trkpt lat="44.38874954191438" lon="9.558825875262134"><ele>400.0</ele><time>2026-04-19T09:00:45Z</time></trkpt><trkpt lat="44.388788135432435" lon="9.558602771273168"><ele>400.0</ele><time>2026-04-19T09:00:46Z</time></trkpt><trkpt lat="44.38884765951995" lon="9.558380487860767"><ele>403.33333333333337</ele><time>2026-04-19T09:00:47Z</time></trkpt><trkpt lat="44.38889374394067" lon="9.558154794448885"><ele>406.66666666666663</ele><time>2026-04-19T09:00:48Z</time></trkpt><trkpt lat="44.388941366551734" lon="9.55792890759744"><ele>410.0</ele><time>2026-04-19T09:00:49Z</time></trkpt><trkpt lat="44.38898672501015" lon="9.557705960491768"><ele>410.0</ele><time>2026-04-19T09:00:50Z</time></trkpt><trkpt lat="44.38903211319629" lon="9.557474966786797"><ele>410.0</ele><time>2026-04-19T09:00:51Z</time></trkpt><trkpt lat="44.38906879931506" lon="9.557239160152069"><ele>410.0</ele><time>2026-04-19T09:00:52Z</time></trkpt><trkpt lat="44.38912823541284" lon="9.557001235580344"><ele>409.3333333333333</ele><time>2026-04-19T09:00:53Z</time></trkpt><trkpt lat="44.38919147796805" lon="9.556764132769375"><ele>408.66666666666663</ele><time>2026-04-19T09:00:54Z</time></trkpt><trkpt lat="44.38926668720222" lon="9.556539094675362"><ele>408.0</ele><time>2026-04-19T09:00:55Z</time></trkpt><trkpt lat="44.38937387919636" lon="9.55634270622627"><ele>407.33333333333337</ele><time>2026-04-19T09:00:56Z</time></trkpt><trkpt lat="44.389431672517546" lon="9.556116532160436"><ele>406.6666666666667</ele><time>2026-04-19T09:00:57Z</time></trkpt><trkpt lat="44.38948067295716" lon="9.555888836095464"><ele>406.0</ele><time>2026-04-19T09:00:58Z</time></trkpt><trkpt lat="44.389540425262936" lon="9.555672948184485"><ele>406.0</ele><time>2026-04-19T09:00:59Z</time></trkpt><trkpt lat="44.389593194616204" lon="9.555472348170476"><ele>406.0</ele><time>2026-04-19T09:01:00Z</time></trkpt><trkpt lat="44.389632053311274" lon="9.555290333653911"><ele>406.0</ele><time>2026-04-19T09:01:01Z</time></trkpt><trkpt lat="44.389664531840666" lon="9.555131936605706"><ele>406.0</ele><time>2026-04-19T09:01:02Z</time></trkpt><trkpt lat="44.3896818271814" lon="9.554965897274833"><ele>405.75</ele><time>2026-04-19T09:01:03Z</time></trkpt><trkpt lat="44.38966133199125" lon="9.55476686828"><ele>405.5</ele><time>2026-04-19T09:01:04Z</time></trkpt><trkpt lat="44.3896115236769" lon="9.554560584994409"><ele>405.25</ele><time>2026-04-19T09:01:05Z</time></trkpt><trkpt lat="44.38957676230727" lon="9.55435841514063"><ele>405.0</ele><time>2026-04-19T09:01:06Z</time></trkpt><trkpt lat="44.38956281131977" lon="9.554174753076717"><ele>405.75</ele><time>2026-04-19T09:01:07Z</time></trkpt><trkpt lat="44.38957895861659" lon="9.553986936675479"><ele>406.5</ele><time>2026-04-19T09:01:08Z</time></trkpt><trkpt lat="44.38957031010625" lon="9.553784724699371"><ele>407.25</ele><time>2026-04-19T09:01:09Z</time></trkpt><trkpt lat="44.38954995982369" lon="9.553578965056287"><ele>408.0</ele><time>2026-04-19T09:01:10Z</time></trkpt><trkpt lat="44.38947250163455" lon="9.553358705756972"><ele>408.66666666666663</ele><time>2026-04-19T09:01:11Z</time></trkpt><trkpt lat="44.389398383320675" lon="9.553140613848758"><ele>409.3333333333333</ele><time>2026-04-19T09:01:12Z</time></trkpt><trkpt lat="44.38935019663882" lon="9.552907830151206"><ele>410.0</ele><time>2026-04-19T09:01:13Z</time></trkpt><trkpt lat="44.3892830546338" lon="9.552678173992735"><ele>412.66666666666663</ele><time>2026-04-19T09:01:14Z</time></trkpt><trkpt lat="44.38920293406525" lon="9.552462617520085"><ele>415.33333333333337</ele><time>2026-04-19T09:01:15Z</time></trkpt><trkpt lat="44.38914768993423" lon="9.552231343787154"><ele>418.0</ele><time>2026-04-19T09:01:16Z</time></trkpt><trkpt lat="44.389086527915566" lon="9.552029451864891"><ele>420.25</ele><time>2026-04-19T09:01:17Z</time></trkpt><trkpt lat="44.389030561119085" lon="9.55184896654354"><ele>422.5</ele><time>2026-04-19T09:01:18Z</time></trkpt><trkpt lat="44.389005899291064" lon="9.551714545125867"><ele>424.75</ele><time>2026-04-19T09:01:19Z</time></trkpt><trkpt lat="44.38897854302676" lon="9.551538141606013"><ele>427.0</ele><time>2026-04-19T09:01:20Z</time></trkpt><trkpt lat="44.38895083438531" lon="9.551379471290229"><ele>427.0</ele><time>2026-04-19T09:01:21Z</time></trkpt><trkpt lat="44.38893266218841" lon="9.551271240548946"><ele>427.00000000000006</ele><time>2026-04-19T09:01:22Z</time></trkpt><trkpt lat="44.388921550183824" lon="9.551172986910746"><ele>427.00000000000006</ele><time>2026-04-19T09:01:23Z</time></trkpt><trkpt lat="44.38893096376156" lon="9.551004960745752"><ele>427.0</ele><time>2026-04-19T09:01:25Z</time></trkpt><trkpt lat="44.38898611104441" lon="9.550924835268527"><ele>427.0</ele><time>2026-04-19T09:01:26Z</time></trkpt><trkpt lat="44.38906646742016" lon="9.550841658689762"><ele>426.25</ele><time>2026-04-19T09:01:27Z</time></trkpt><trkpt lat="44.389176986373265" lon="9.550773349494333"><ele>425.5</ele><time>2026-04-19T09:01:28Z</time></trkpt><trkpt lat="44.38927029938817" lon="9.550676804905837"><ele>424.75</ele><time>2026-04-19T09:01:29Z</time></trkpt><trkpt lat="44.38937643193202" lon="9.550596277868653"><ele>424.0</ele><time>2026-04-19T09:01:30Z</time></trkpt><trkpt lat="44.38948718572754" lon="9.550513182452654"><ele>424.0</ele><time>2026-04-19T09:01:31Z</time></trkpt><trkpt lat="44.389585816946" lon="9.550421480383205"><ele>424.0</ele><time>2026-04-19T09:01:32Z</time></trkpt><trkpt lat="44.389668945005845" lon="9.550298510011451"><ele>424.0</ele><time>2026-04-19T09:01:33Z</time></trkpt><trkpt lat="44.38975627565473" lon="9.550147079606667"><ele>424.0</ele><time>2026-04-19T09:01:34Z</time></trkpt><trkpt lat="44.389845507729035" lon="9.550015516412476"><ele>424.75</ele><time>2026-04-19T09:01:35Z</time></trkpt><trkpt lat="44.38991303755624" lon="9.549892011865275"><ele>425.5</ele><time>2026-04-19T09:01:36Z</time></trkpt><trkpt lat="44.38995308790801" lon="9.549728981655184"><ele>426.25</ele><time>2026-04-19T09:01:37Z</time></trkpt><trkpt lat="44.38998678918521" lon="9.549570955725331"><ele>427.0</ele><time>2026-04-19T09:01:38Z</time></trkpt><trkpt lat="44.390003604349765" lon="9.549425690129544"><ele>427.0</ele><time>2026-04-19T09:01:39Z</time></trkpt><trkpt lat="44.39001727838742" lon="9.549252059556737"><ele>427.0</ele><time>2026-04-19T09:01:40Z</time></trkpt><trkpt lat="44.38999584595244" lon="9.549065687270817"><ele>427.0</ele><time>2026-04-19T09:01:41Z</time></trkpt><trkpt lat="44.38994007497726" lon="9.548893648075046"><ele>427.0</ele><time>2026-04-19T09:01:42Z</time></trkpt><trkpt lat="44.389860427235064" lon="9.548721373121943"><ele>425.75</ele><time>2026-04-19T09:01:43Z</time></trkpt><trkpt lat="44.38982233369715" lon="9.548524226452594"><ele>424.5</ele><time>2026-04-19T09:01:44Z</time></trkpt><trkpt lat="44.38977361484185" lon="9.548330288533458"><ele>423.25</ele><time>2026-04-19T09:01:45Z</time></trkpt><trkpt lat="44.389718419743474" lon="9.548137994002971"><ele>422.0</ele><time>2026-04-19T09:01:46Z</time></trkpt><trkpt lat="44.38962212989025" lon="9.547983450753694"><ele>423.0</ele><time>2026-04-19T09:01:47Z</time></trkpt><trkpt lat="44.38954041695056" lon="9.547820139597178"><ele>424.0</ele><time>2026-04-19T09:01:48Z</time></trkpt><trkpt lat="44.38946157121532" lon="9.547664729120617"><ele>425.0</ele><time>2026-04-19T09:01:49Z</time></trkpt><trkpt lat="44.3893586914953" lon="9.547514208307195"><ele>426.0</ele><time>2026-04-19T09:01:50Z</time></trkpt><trkpt lat="44.38928367443146" lon="9.547336454437856"><ele>426.0</ele><time>2026-04-19T09:01:51Z</time></trkpt><trkpt lat="44.38922310083781" lon="9.547166320446959"><ele>426.0</ele><time>2026-04-19T09:01:52Z</time></trkpt><trkpt lat="44.38918599813715" lon="9.546998397540603"><ele>426.0</ele><time>2026-04-19T09:01:53Z</time></trkpt><trkpt lat="44.38919546431114" lon="9.546800474140218"><ele>426.0</ele><time>2026-04-19T09:01:54Z</time></trkpt><trkpt lat="44.389162285601806" lon="9.546599330002733"><ele>425.66666666666663</ele><time>2026-04-19T09:01:55Z</time></trkpt><trkpt lat="44.38908872867933" lon="9.546412906039851"><ele>425.3333333333333</ele><time>2026-04-19T09:01:56Z</time></trkpt><trkpt lat="44.38902117422361" lon="9.546218832874093"><ele>425.0</ele><time>2026-04-19T09:01:57Z</time></trkpt><trkpt lat="44.38897615620363" lon="9.546014170735152"><ele>425.0</ele><time>2026-04-19T09:01:58Z</time></trkpt><trkpt lat="44.38891969752257" lon="9.545802603165193"><ele>425.0</ele><time>2026-04-19T09:01:59Z</time></trkpt><trkpt lat="44.38885309603566" lon="9.545609922279892"><ele>425.0</ele><time>2026-04-19T09:02:00Z</time></trkpt><trkpt lat="44.388795631753865" lon="9.545399523315355"><ele>424.66666666666663</ele><time>2026-04-19T09:02:01Z</time></trkpt><trkpt lat="44.388740602013115" lon="9.545201034441003"><ele>424.33333333333337</ele><time>2026-04-19T09:02:02Z</time></trkpt><trkpt lat="44.38869214618579" lon="9.545000358337122"><ele>424.0</ele><time>2026-04-19T09:02:03Z</time></trkpt><trkpt lat="44.38865020164038" lon="9.544804476519614"><ele>424.0</ele><time>2026-04-19T09:02:04Z</time></trkpt><trkpt lat="44.38861151701964" lon="9.544603914471946"><ele>424.0</ele><time>2026-04-19T09:02:04.999Z</time></trkpt><trkpt lat="44.388576498942236" lon="9.544412639246023"><ele>424.0</ele><time>2026-04-19T09:02:05.999Z</time></trkpt><trkpt lat="44.38855225907445" lon="9.544239293182647"><ele>424.0</ele><time>2026-04-19T09:02:06.999Z</time></trkpt><trkpt lat="44.388514967432776" lon="9.544057810896067"><ele>426.33333333333337</ele><time>2026-04-19T09:02:07.999Z</time></trkpt><trkpt lat="44.388442236504176" lon="9.543836645326307"><ele>428.66666666666663</ele><time>2026-04-19T09:02:08.999Z</time></trkpt><trkpt lat="44.38834553320598" lon="9.543636230159215"><ele>431.0</ele><time>2026-04-19T09:02:09.999Z</time></trkpt><trkpt lat="44.38828468091194" lon="9.543432953788402"><ele>433.25</ele><time>2026-04-19T09:02:10.999Z</time></trkpt><trkpt lat="44.38823980263188" lon="9.54323480426019"><ele>435.5</ele><time>2026-04-19T09:02:11.999Z</time></trkpt><trkpt lat="44.388167428005225" lon="9.543060711310472"><ele>437.75</ele><time>2026-04-19T09:02:12.999Z</time></trkpt><trkpt lat="44.388115909962785" lon="9.542890621131663"><ele>440.0</ele><time>2026-04-19T09:02:13.999Z</time></trkpt><trkpt lat="44.38810691004493" lon="9.542717220572959"><ele>444.5</ele><time>2026-04-19T09:02:14.999Z</time></trkpt><trkpt lat="44.38809006879836" lon="9.542550223667059"><ele>449.0</ele><time>2026-04-19T09:02:15.999Z</time></trkpt><trkpt lat="44.38807001933214" lon="9.542382678122811"><ele>453.5</ele><time>2026-04-19T09:02:16.999Z</time></trkpt><trkpt lat="44.3880505933202" lon="9.542220873704471"><ele>458.0</ele><time>2026-04-19T09:02:17.999Z</time></trkpt><trkpt lat="44.38805550974603" lon="9.542049350203277"><ele>460.0</ele><time>2026-04-19T09:02:18.999Z</time></trkpt><trkpt lat="44.38803038185848" lon="9.54187326249468"><ele>462.0</ele><time>2026-04-19T09:02:19.999Z</time></trkpt><trkpt lat="44.387987668617946" lon="9.541699443047035"><ele>464.0</ele><time>2026-04-19T09:02:20.999Z</time></trkpt><trkpt lat="44.38798994864745" lon="9.541528806359658"><ele>466.0</ele><time>2026-04-19T09:02:21.999Z</time></trkpt><trkpt lat="44.3879653639046" lon="9.541337744789486"><ele>458.25</ele><time>2026-04-19T09:02:22.999Z</time></trkpt><trkpt lat="44.3879839947071" lon="9.541138896124112"><ele>450.5</ele><time>2026-04-19T09:02:23.999Z</time></trkpt><trkpt lat="44.387950329441246" lon="9.540954764696236"><ele>442.75</ele><time>2026-04-19T09:02:24.999Z</time></trkpt><trkpt lat="44.38789037257025" lon="9.54077980395864"><ele>435.0</ele><time>2026-04-19T09:02:25.999Z</time></trkpt><trkpt lat="44.38791151852567" lon="9.540588757947983"><ele>436.5</ele><time>2026-04-19T09:02:26.999Z</time></trkpt><trkpt lat="44.38791533172082" lon="9.540383004677537"><ele>438.0</ele><time>2026-04-19T09:02:28Z</time></trkpt><trkpt lat="44.38787724666238" lon="9.540195024961648"><ele>439.5</ele><time>2026-04-19T09:02:29Z</time></trkpt><trkpt lat="44.38786223876571" lon="9.539997406334145"><ele>441.0</ele><time>2026-04-19T09:02:30Z</time></trkpt><trkpt lat="44.38783130433182" lon="9.539829083697258"><ele>441.0</ele><time>2026-04-19T09:02:31Z</time></trkpt><trkpt lat="44.38770655576927" lon="9.53970267356198"><ele>441.0</ele><time>2026-04-19T09:02:32Z</time></trkpt><trkpt lat="44.38765268087327" lon="9.539562668068871"><ele>441.0</ele><time>2026-04-19T09:02:33Z</time></trkpt><trkpt lat="44.38766562291454" lon="9.539456589617085"><ele>441.0</ele><time>2026-04-19T09:02:34Z</time></trkpt><trkpt lat="44.38767418543429" lon="9.539335712209287"><ele>441.0</ele><time>2026-04-19T09:02:35Z</time></trkpt><trkpt lat="44.387668101652345" lon="9.539198052775822"><ele>443.6</ele><time>2026-04-19T09:02:36Z</time></trkpt><trkpt lat="44.38757480739907" lon="9.53908345851014"><ele>446.20000000000005</ele><time>2026-04-19T09:02:37Z</time></trkpt><trkpt lat="44.38750471748602" lon="9.53896396404003"><ele>448.79999999999995</ele><time>2026-04-19T09:02:38Z</time></trkpt><trkpt lat="44.38749649063441" lon="9.538874534418552"><ele>451.4</ele><time>2026-04-19T09:02:39Z</time></trkpt><trkpt lat="44.3874891161308" lon="9.538740247352619"><ele>454.0</ele><time>2026-04-19T09:02:40Z</time></trkpt><trkpt lat="44.38749207180829" lon="9.538575232384948"><ele>455.79999999999995</ele><time>2026-04-19T09:02:41Z</time></trkpt><trkpt lat="44.387506318088185" lon="9.538444267275935"><ele>457.59999999999997</ele><time>2026-04-19T09:02:42Z</time></trkpt><trkpt lat="44.38755151811764" lon="9.538317170181715"><ele>459.4</ele><time>2026-04-19T09:02:43Z</time></trkpt><trkpt lat="44.38758414226638" lon="9.53814681348033"><ele>461.2</ele><time>2026-04-19T09:02:44Z</time></trkpt><trkpt lat="44.38762503611653" lon="9.537982763520224"><ele>463.0</ele><time>2026-04-19T09:02:45Z</time></trkpt><trkpt lat="44.38764811353093" lon="9.537824915840984"><ele>465.5</ele><time>2026-04-19T09:02:46Z</time></trkpt><trkpt lat="44.38766612050204" lon="9.53763701620075"><ele>468.0</ele><time>2026-04-19T09:02:47Z</time></trkpt><trkpt lat="44.38765243762724" lon="9.537471529390913"><ele>470.5</ele><time>2026-04-19T09:02:48Z</time></trkpt><trkpt lat="44.38763526315643" lon="9.537327543275392"><ele>473.0</ele><time>2026-04-19T09:02:49Z</time></trkpt><trkpt lat="44.387602680207685" lon="9.537201942537129"><ele>473.0</ele><time>2026-04-19T09:02:50Z</time></trkpt><trkpt lat="44.38749803273575" lon="9.537121876110199"><ele>473.0</ele><time>2026-04-19T09:02:51Z</time></trkpt><trkpt lat="44.38738642710661" lon="9.537023285942688"><ele>473.0</ele><time>2026-04-19T09:02:52Z</time></trkpt><trkpt lat="44.38729116595423" lon="9.536900170163252"><ele>473.0</ele><time>2026-04-19T09:02:53Z</time></trkpt><trkpt lat="44.387181938426004" lon="9.536841242563721"><ele>468.79999999999995</ele><time>2026-04-19T09:02:54Z</time></trkpt><trkpt lat="44.38708737628095" lon="9.536777048379292"><ele>464.59999999999997</ele><time>2026-04-19T09:02:55Z</time></trkpt><trkpt lat="44.38699718976368" lon="9.536651551851628"><ele>460.40000000000003</ele><time>2026-04-19T09:02:57Z</time></trkpt><trkpt lat="44.3870146316349" lon="9.536549281891714"><ele>456.20000000000005</ele><time>2026-04-19T09:02:58Z</time></trkpt><trkpt lat="44.38707064166671" lon="9.5364624236482"><ele>452.0</ele><time>2026-04-19T09:02:59Z</time></trkpt><trkpt lat="44.38714757390368" lon="9.536349165805575"><ele>458.99999999999994</ele><time>2026-04-19T09:03:00Z</time></trkpt><trkpt lat="44.38719961938411" lon="9.536228578943243"><ele>466.0</ele><time>2026-04-19T09:03:01Z</time></trkpt><trkpt lat="44.38725665051647" lon="9.53615321258394"><ele>473.0</ele><time>2026-04-19T09:03:02Z</time></trkpt><trkpt lat="44.38733422440658" lon="9.536041329873392"><ele>480.0</ele><time>2026-04-19T09:03:03Z</time></trkpt><trkpt lat="44.38741272626904" lon="9.536015425853645"><ele>486.99999999999994</ele><time>2026-04-19T09:03:04Z</time></trkpt><trkpt lat="44.38748024406344" lon="9.535971336989535"><ele>494.0</ele><time>2026-04-19T09:03:05Z</time></trkpt><trkpt lat="44.3875284354992" lon="9.535861270679066"><ele>495.25</ele><time>2026-04-19T09:03:06Z</time></trkpt><trkpt lat="44.38751388463504" lon="9.535707457602046"><ele>496.5</ele><time>2026-04-19T09:03:07Z</time></trkpt><trkpt lat="44.38739471850596" lon="9.535587525027822"><ele>497.75</ele><time>2026-04-19T09:03:08Z</time></trkpt><trkpt lat="44.387275048729904" lon="9.535537483118032"><ele>499.0</ele><time>2026-04-19T09:03:09Z</time></trkpt><trkpt lat="44.387164259613016" lon="9.535499648658483"><ele>496.79999999999995</ele><time>2026-04-19T09:03:10Z</time></trkpt><trkpt lat="44.38705638797023" lon="9.535508006221152"><ele>494.59999999999997</ele><time>2026-04-19T09:03:11Z</time></trkpt><trkpt lat="44.38696084775762" lon="9.535475801109413"><ele>492.4</ele><time>2026-04-19T09:03:12Z</time></trkpt><trkpt lat="44.386877450835534" lon="9.535412138253132"><ele>490.2</ele><time>2026-04-19T09:03:13Z</time></trkpt><trkpt lat="44.38679109712766" lon="9.535340875910608"><ele>488.0</ele><time>2026-04-19T09:03:14Z</time></trkpt><trkpt lat="44.386718533646786" lon="9.535265196603973"><ele>488.0</ele><time>2026-04-19T09:03:15Z</time></trkpt><trkpt lat="44.38666909628337" lon="9.535124111575083"><ele>487.99999999999994</ele><time>2026-04-19T09:03:17Z</time></trkpt><trkpt lat="44.386730036657696" lon="9.53506618880742"><ele>487.99999999999994</ele><time>2026-04-19T09:03:18Z</time></trkpt><trkpt lat="44.38677268466835" lon="9.534961403372165"><ele>488.0</ele><time>2026-04-19T09:03:19Z</time></trkpt><trkpt lat="44.386839807897914" lon="9.534848795800675"><ele>488.0</ele><time>2026-04-19T09:03:20Z</time></trkpt><trkpt lat="44.386877771504366" lon="9.53470921300044"><ele>488.0</ele><time>2026-04-19T09:03:21Z</time></trkpt><trkpt lat="44.38686780703409" lon="9.534588371232124"><ele>487.99999999999994</ele><time>2026-04-19T09:03:22Z</time></trkpt><trkpt lat="44.38683093460064" lon="9.534473833194506"><ele>487.99999999999994</ele><time>2026-04-19T09:03:23Z</time></trkpt><trkpt lat="44.386767074197266" lon="9.534397561983228"><ele>488.0</ele><time>2026-04-19T09:03:24Z</time></trkpt><trkpt lat="44.386660690176676" lon="9.53434995086261"><ele>488.0</ele><time>2026-04-19T09:03:25Z</time></trkpt><trkpt lat="44.38655665000611" lon="9.534312278054486"><ele>486.79999999999995</ele><time>2026-04-19T09:03:26Z</time></trkpt><trkpt lat="44.3865127648976" lon="9.534245112279324"><ele>485.59999999999997</ele><time>2026-04-19T09:03:27Z</time></trkpt><trkpt lat="44.3864733914228" lon="9.53409808800176"><ele>484.40000000000003</ele><time>2026-04-19T09:03:28Z</time></trkpt><trkpt lat="44.38641332025201" lon="9.533961551623397"><ele>483.20000000000005</ele><time>2026-04-19T09:03:29Z</time></trkpt><trkpt lat="44.38637983699087" lon="9.533826331222334"><ele>482.0</ele><time>2026-04-19T09:03:30Z</time></trkpt><trkpt lat="44.38633089453773" lon="9.53369285423572"><ele>482.0</ele><time>2026-04-19T09:03:31Z</time></trkpt><trkpt lat="44.38627365748326" lon="9.533577007577374"><ele>482.00000000000006</ele><time>2026-04-19T09:03:32Z</time></trkpt><trkpt lat="44.38619513710611" lon="9.533438097421133"><ele>482.00000000000006</ele><time>2026-04-19T09:03:33Z</time></trkpt><trkpt lat="44.38611364434896" lon="9.5333113655046"><ele>482.0</ele><time>2026-04-19T09:03:34Z</time></trkpt><trkpt lat="44.38606797930428" lon="9.53321538998444"><ele>482.0</ele><time>2026-04-19T09:03:35Z</time></trkpt><trkpt lat="44.38606038138568" lon="9.533105003894491"><ele>482.0</ele><time>2026-04-19T09:03:36Z</time></trkpt><trkpt lat="44.38610331889881" lon="9.533013016322716"><ele>482.00000000000006</ele><time>2026-04-19T09:03:37Z</time></trkpt><trkpt lat="44.38618802910918" lon="9.532970614312411"><ele>482.00000000000006</ele><time>2026-04-19T09:03:38Z</time></trkpt><trkpt lat="44.38628480544124" lon="9.532856718636443"><ele>482.0</ele><time>2026-04-19T09:03:39Z</time></trkpt><trkpt lat="44.386374210534896" lon="9.532755575497687"><ele>482.0</ele><time>2026-04-19T09:03:40Z</time></trkpt><trkpt lat="44.386474898715235" lon="9.532706511492838"><ele>489.5</ele><time>2026-04-19T09:03:41Z</time></trkpt><trkpt lat="44.3865868091438" lon="9.53265868175596"><ele>497.0</ele><time>2026-04-19T09:03:42Z</time></trkpt><trkpt lat="44.38668073718918" lon="9.532580700742008"><ele>504.5</ele><time>2026-04-19T09:03:43Z</time></trkpt><trkpt lat="44.38675379504773" lon="9.532427482884186"><ele>512.0</ele><time>2026-04-19T09:03:44Z</time></trkpt><trkpt lat="44.3868355612289" lon="9.532288707034686"><ele>512.0</ele><time>2026-04-19T09:03:45Z</time></trkpt><trkpt lat="44.386923978109024" lon="9.532167093448345"><ele>512.0</ele><time>2026-04-19T09:03:46Z</time></trkpt><trkpt lat="44.387047262203524" lon="9.53210993961945"><ele>512.0</ele><time>2026-04-19T09:03:47Z</time></trkpt><trkpt lat="44.387132537278184" lon="9.531962209441147"><ele>512.0</ele><time>2026-04-19T09:03:48Z</time></trkpt><trkpt lat="44.38719832279974" lon="9.531811603795596"><ele>515.4</ele><time>2026-04-19T09:03:49Z</time></trkpt><trkpt lat="44.387308871406994" lon="9.531728737071614"><ele>518.8000000000001</ele><time>2026-04-19T09:03:50Z</time></trkpt><trkpt lat="44.38741807851313" lon="9.53164992297598"><ele>522.2</ele><time>2026-04-19T09:03:51Z</time></trkpt><trkpt lat="44.38751660374998" lon="9.531617488542215"><ele>525.6</ele><time>2026-04-19T09:03:52Z</time></trkpt><trkpt lat="44.387614078872254" lon="9.53159759314399"><ele>529.0</ele><time>2026-04-19T09:03:53Z</time></trkpt><trkpt lat="44.38769721045456" lon="9.531552624468437"><ele>529.0</ele><time>2026-04-19T09:03:54Z</time></trkpt><trkpt lat="44.38775702001427" lon="9.531431062950327"><ele>529.0</ele><time>2026-04-19T09:03:55Z</time></trkpt><trkpt lat="44.38778776907471" lon="9.53127565526613"><ele>529.0</ele><time>2026-04-19T09:03:56Z</time></trkpt><trkpt lat="44.387854597860155" lon="9.531158282102254"><ele>529.0</ele><time>2026-04-19T09:03:57Z</time></trkpt><trkpt lat="44.387922065223755" lon="9.531032832352855"><ele>529.0</ele><time>2026-04-19T09:03:58Z</time></trkpt><trkpt lat="44.38796261422772" lon="9.530883067925975"><ele>528.2</ele><time>2026-04-19T09:03:59Z</time></trkpt><trkpt lat="44.387969992334774" lon="9.530740075155466"><ele>527.4</ele><time>2026-04-19T09:04:00Z</time></trkpt><trkpt lat="44.38797679554241" lon="9.53062415866079"><ele>526.6</ele><time>2026-04-19T09:04:01Z</time></trkpt><trkpt lat="44.38794714986409" lon="9.530514567061461"><ele>525.8</ele><time>2026-04-19T09:04:02Z</time></trkpt><trkpt lat="44.387864800697606" lon="9.530442253303574"><ele>525.0</ele><time>2026-04-19T09:04:03Z</time></trkpt><trkpt lat="44.387709058010174" lon="9.530425137320142"><ele>528.5</ele><time>2026-04-19T09:04:04Z</time></trkpt><trkpt lat="44.38762497662866" lon="9.530326611926297"><ele>532.0</ele><time>2026-04-19T09:04:05Z</time></trkpt><trkpt lat="44.3875246254927" lon="9.530216998740265"><ele>535.5</ele><time>2026-04-19T09:04:06Z</time></trkpt><trkpt lat="44.387408715433494" lon="9.530127588846529"><ele>539.0</ele><time>2026-04-19T09:04:07Z</time></trkpt><trkpt lat="44.387345334530664" lon="9.530008533997462"><ele>539.0</ele><time>2026-04-19T09:04:08Z</time></trkpt><trkpt lat="44.387296684616025" lon="9.529903389978612"><ele>539.0</ele><time>2026-04-19T09:04:09Z</time></trkpt><trkpt lat="44.38731739143205" lon="9.529782743154403"><ele>539.0</ele><time>2026-04-19T09:04:11Z</time></trkpt><trkpt lat="44.3874184108598" lon="9.52983824265422"><ele>539.0</ele><time>2026-04-19T09:04:13Z</time></trkpt><trkpt lat="44.38744519806762" lon="9.52997172798085"><ele>539.0</ele><time>2026-04-19T09:04:14Z</time></trkpt><trkpt lat="44.387488876563026" lon="9.530089373251677"><ele>539.0</ele><time>2026-04-19T09:04:15Z</time></trkpt><trkpt lat="44.38758854034916" lon="9.530161712682748"><ele>539.0</ele><time>2026-04-19T09:04:16Z</time></trkpt><trkpt lat="44.38769806297015" lon="9.530223094410024"><ele>539.0</ele><time>2026-04-19T09:04:17Z</time></trkpt><trkpt lat="44.38779707801313" lon="9.530278070931843"><ele>539.0</ele><time>2026-04-19T09:04:18Z</time></trkpt><trkpt lat="44.38790487110932" lon="9.53028905485402"><ele>539.0</ele><time>2026-04-19T09:04:19Z</time></trkpt><trkpt lat="44.387990736997246" lon="9.530306819896534"><ele>541.8</ele><time>2026-04-19T09:04:20Z</time></trkpt><trkpt lat="44.38805993519776" lon="9.530323035276991"><ele>544.5999999999999</ele><time>2026-04-19T09:04:21Z</time></trkpt><trkpt lat="44.388125220091126" lon="9.53035123104884"><ele>547.4</ele><time>2026-04-19T09:04:22Z</time></trkpt><trkpt lat="44.38816800281864" lon="9.530467856923527"><ele>550.1999999999999</ele><time>2026-04-19T09:04:23Z</time></trkpt><trkpt lat="44.388206209261995" lon="9.530622000108965"><ele>553.0</ele><time>2026-04-19T09:04:24Z</time></trkpt><trkpt lat="44.3882587911646" lon="9.530771555075166"><ele>553.0</ele><time>2026-04-19T09:04:25Z</time></trkpt><trkpt lat="44.388310288391914" lon="9.53089563501898"><ele>553.0</ele><time>2026-04-19T09:04:26Z</time></trkpt><trkpt lat="44.388368203168824" lon="9.530958598932532"><ele>553.0</ele><time>2026-04-19T09:04:27Z</time></trkpt><trkpt lat="44.38845738903028" lon="9.530961337449204"><ele>553.0</ele><time>2026-04-19T09:04:29Z</time></trkpt><trkpt lat="44.38848257545798" lon="9.530761450510704"><ele>553.0</ele><time>2026-04-19T09:04:30Z</time></trkpt><trkpt lat="44.38839502010083" lon="9.530639226678991"><ele>553.0</ele><time>2026-04-19T09:04:30.999Z</time></trkpt><trkpt lat="44.38829605719389" lon="9.530538607342155"><ele>553.0</ele><time>2026-04-19T09:04:31.999Z</time></trkpt><trkpt lat="44.38824232044472" lon="9.530438840154655"><ele>553.0</ele><time>2026-04-19T09:04:32.999Z</time></trkpt><trkpt lat="44.388239185392806" lon="9.530340934093717"><ele>553.0</ele><time>2026-04-19T09:04:34Z</time></trkpt><trkpt lat="44.3882939974935" lon="9.53026282725672"><ele>553.0</ele><time>2026-04-19T09:04:35Z</time></trkpt><trkpt lat="44.38828825238022" lon="9.530129201973262"><ele>555.4</ele><time>2026-04-19T09:04:36Z</time></trkpt><trkpt lat="44.38825241411013" lon="9.530030427687667"><ele>557.8</ele><time>2026-04-19T09:04:37Z</time></trkpt><trkpt lat="44.38812402899452" lon="9.530015574058353"><ele>560.2</ele><time>2026-04-19T09:04:38Z</time></trkpt><trkpt lat="44.38801151467534" lon="9.53000711801053"><ele>562.6</ele><time>2026-04-19T09:04:39Z</time></trkpt><trkpt lat="44.38793562781468" lon="9.529955006773177"><ele>565.0</ele><time>2026-04-19T09:04:40Z</time></trkpt><trkpt lat="44.38786743849306" lon="9.529848049244915"><ele>566.3333333333334</ele><time>2026-04-19T09:04:41Z</time></trkpt><trkpt lat="44.38782555597187" lon="9.529744537881962"><ele>567.6666666666667</ele><time>2026-04-19T09:04:42Z</time></trkpt><trkpt lat="44.38781571515708" lon="9.529619449913419"><ele>569.0</ele><time>2026-04-19T09:04:43Z</time></trkpt><trkpt lat="44.38784481749758" lon="9.52950463689337"><ele>570.3333333333334</ele><time>2026-04-19T09:04:44Z</time></trkpt><trkpt lat="44.38789381625706" lon="9.529447398154295"><ele>571.6666666666666</ele><time>2026-04-19T09:04:45Z</time></trkpt><trkpt lat="44.387966542961095" lon="9.52944683615167"><ele>573.0</ele><time>2026-04-19T09:04:46Z</time></trkpt><trkpt lat="44.38806360095069" lon="9.529502266974182"><ele>573.0</ele><time>2026-04-19T09:04:47Z</time></trkpt><trkpt lat="44.388178366168994" lon="9.529494342355894"><ele>573.0</ele><time>2026-04-19T09:04:48Z</time></trkpt><trkpt lat="44.3882972442984" lon="9.529474222772247"><ele>573.0</ele><time>2026-04-19T09:04:49Z</time></trkpt><trkpt lat="44.38841613999202" lon="9.529434477374824"><ele>573.0</ele><time>2026-04-19T09:04:50Z</time></trkpt><trkpt lat="44.388509213158244" lon="9.52940083987768"><ele>573.0</ele><time>2026-04-19T09:04:51Z</time></trkpt><trkpt lat="44.388571778317626" lon="9.52934195240729"><ele>573.0</ele><time>2026-04-19T09:04:52Z</time></trkpt><trkpt lat="44.388500263567046" lon="9.529132879207616"><ele>573.0</ele><time>2026-04-19T09:04:54Z</time></trkpt><trkpt lat="44.388384361054065" lon="9.529062779686976"><ele>573.0</ele><time>2026-04-19T09:04:55Z</time></trkpt><trkpt lat="44.38829095671758" lon="9.528947938085807"><ele>573.0</ele><time>2026-04-19T09:04:56Z</time></trkpt><trkpt lat="44.3881937542796" lon="9.528838797667097"><ele>573.0</ele><time>2026-04-19T09:04:57Z</time></trkpt><trkpt lat="44.38810269850358" lon="9.528734513095653"><ele>573.0</ele><time>2026-04-19T09:04:58Z</time></trkpt><trkpt lat="44.388033449871465" lon="9.52864706444013"><ele>573.0</ele><time>2026-04-19T09:04:59Z</time></trkpt><trkpt lat="44.38795360308179" lon="9.528539600766605"><ele>573.0</ele><time>2026-04-19T09:05:00Z</time></trkpt><trkpt lat="44.38791413260856" lon="9.528412569965596"><ele>571.75</ele><time>2026-04-19T09:05:01Z</time></trkpt><trkpt lat="44.38789798256301" lon="9.528258323032748"><ele>570.5</ele><time>2026-04-19T09:05:02Z</time></trkpt><trkpt lat="44.387891182394824" lon="9.52810155854465"><ele>569.25</ele><time>2026-04-19T09:05:03Z</time></trkpt><trkpt lat="44.38788198352722" lon="9.527925411498085"><ele>568.0</ele><time>2026-04-19T09:05:04Z</time></trkpt><trkpt lat="44.3878820240089" lon="9.527750335902875"><ele>568.0</ele><time>2026-04-19T09:05:05Z</time></trkpt><trkpt lat="44.38789971172267" lon="9.527613394774951"><ele>568.0</ele><time>2026-04-19T09:05:06Z</time></trkpt><trkpt lat="44.38794744383419" lon="9.527498050458401"><ele>568.0</ele><time>2026-04-19T09:05:07Z</time></trkpt><trkpt lat="44.38802217748738" lon="9.527397356325332"><ele>568.0</ele><time>2026-04-19T09:05:08Z</time></trkpt><trkpt lat="44.38811251743924" lon="9.527308770970569"><ele>568.0</ele><time>2026-04-19T09:05:09Z</time></trkpt><trkpt lat="44.38822408140708" lon="9.527221752355409"><ele>572.25</ele><time>2026-04-19T09:05:10Z</time></trkpt><trkpt lat="44.38833613592106" lon="9.527134826072153"><ele>576.5</ele><time>2026-04-19T09:05:11Z</time></trkpt><trkpt lat="44.38839353135086" lon="9.526936489999875"><ele>580.75</ele><time>2026-04-19T09:05:12Z</time></trkpt><trkpt lat="44.3884632924988" lon="9.526778133670499"><ele>585.0</ele><time>2026-04-19T09:05:13Z</time></trkpt><trkpt lat="44.388531867738514" lon="9.526614410191588"><ele>585.25</ele><time>2026-04-19T09:05:14Z</time></trkpt><trkpt lat="44.38857861133377" lon="9.526458098038148"><ele>585.5</ele><time>2026-04-19T09:05:15Z</time></trkpt><trkpt lat="44.38858716144836" lon="9.52630540125584"><ele>585.75</ele><time>2026-04-19T09:05:16Z</time></trkpt><trkpt lat="44.38855526151035" lon="9.52614044345687"><ele>586.0</ele><time>2026-04-19T09:05:17Z</time></trkpt><trkpt lat="44.38850787461011" lon="9.525988713534186"><ele>589.75</ele><time>2026-04-19T09:05:18Z</time></trkpt><trkpt lat="44.38844591301369" lon="9.525862163867597"><ele>593.5</ele><time>2026-04-19T09:05:19Z</time></trkpt><trkpt lat="44.38835114482673" lon="9.525770722699237"><ele>597.25</ele><time>2026-04-19T09:05:20Z</time></trkpt><trkpt lat="44.388226410123565" lon="9.52571359745766"><ele>601.0</ele><time>2026-04-19T09:05:21Z</time></trkpt><trkpt lat="44.38811408584705" lon="9.525721414979843"><ele>601.0</ele><time>2026-04-19T09:05:22Z</time></trkpt><trkpt lat="44.38801187310601" lon="9.525742174619266"><ele>601.0</ele><time>2026-04-19T09:05:23Z</time></trkpt><trkpt lat="44.38794326221277" lon="9.5258828048408"><ele>601.0</ele><time>2026-04-19T09:05:24Z</time></trkpt><trkpt lat="44.387888186750565" lon="9.526108932131855"><ele>601.0</ele><time>2026-04-19T09:05:25Z</time></trkpt><trkpt lat="44.387865164745904" lon="9.526274012352511"><ele>598.0</ele><time>2026-04-19T09:05:26Z</time></trkpt><trkpt lat="44.38780678644758" lon="9.526382828672375"><ele>595.0</ele><time>2026-04-19T09:05:27Z</time></trkpt><trkpt lat="44.38772483187481" lon="9.526440069674559"><ele>592.0</ele><time>2026-04-19T09:05:28Z</time></trkpt><trkpt lat="44.3876210636695" lon="9.526519643767667"><ele>589.0</ele><time>2026-04-19T09:05:29Z</time></trkpt><trkpt lat="44.38754017895062" lon="9.526556862478788"><ele>586.0</ele><time>2026-04-19T09:05:30Z</time></trkpt><trkpt lat="44.387451357447965" lon="9.526567070642255"><ele>586.0</ele><time>2026-04-19T09:05:31Z</time></trkpt><trkpt lat="44.387325675087475" lon="9.526557803685002"><ele>586.0</ele><time>2026-04-19T09:05:32Z</time></trkpt><trkpt lat="44.38719548714806" lon="9.52653587241535"><ele>586.0</ele><time>2026-04-19T09:05:33Z</time></trkpt><trkpt lat="44.38707116856809" lon="9.526493024298054"><ele>586.0</ele><time>2026-04-19T09:05:34Z</time></trkpt><trkpt lat="44.38696594746946" lon="9.526423203619709"><ele>589.8</ele><time>2026-04-19T09:05:35Z</time></trkpt><trkpt lat="44.38688692312756" lon="9.526391310638198"><ele>593.6</ele><time>2026-04-19T09:05:36Z</time></trkpt><trkpt lat="44.386808916344556" lon="9.526397485474618"><ele>597.4</ele><time>2026-04-19T09:05:37Z</time></trkpt><trkpt lat="44.38674356321077" lon="9.526513910253694"><ele>601.2</ele><time>2026-04-19T09:05:38Z</time></trkpt><trkpt lat="44.38670230553818" lon="9.526662293530693"><ele>605.0</ele><time>2026-04-19T09:05:39Z</time></trkpt><trkpt lat="44.38665514267481" lon="9.526800077015684"><ele>605.0</ele><time>2026-04-19T09:05:40Z</time></trkpt><trkpt lat="44.38656806364774" lon="9.526911718682586"><ele>605.0</ele><time>2026-04-19T09:05:41Z</time></trkpt><trkpt lat="44.38647412983517" lon="9.52698559938648"><ele>605.0</ele><time>2026-04-19T09:05:42Z</time></trkpt><trkpt lat="44.38638391660492" lon="9.527068090042862"><ele>605.0</ele><time>2026-04-19T09:05:43Z</time></trkpt><trkpt lat="44.38629983478712" lon="9.527131002380116"><ele>605.0</ele><time>2026-04-19T09:05:44Z</time></trkpt><trkpt lat="44.38622044963587" lon="9.52713537415489"><ele>604.8</ele><time>2026-04-19T09:05:45Z</time></trkpt><trkpt lat="44.38615763835301" lon="9.527051204217774"><ele>604.6</ele><time>2026-04-19T09:05:46Z</time></trkpt><trkpt lat="44.3861539204281" lon="9.52692048495391"><ele>604.4</ele><time>2026-04-19T09:05:47Z</time></trkpt><trkpt lat="44.38610498385617" lon="9.526768935840815"><ele>604.2</ele><time>2026-04-19T09:05:48Z</time></trkpt><trkpt lat="44.38600369426954" lon="9.526645977796518"><ele>604.0</ele><time>2026-04-19T09:05:49Z</time></trkpt><trkpt lat="44.38588821103773" lon="9.526529775741382"><ele>604.0</ele><time>2026-04-19T09:05:50Z</time></trkpt><trkpt lat="44.38574192261978" lon="9.526386038568154"><ele>604.0</ele><time>2026-04-19T09:05:51Z</time></trkpt><trkpt lat="44.38564847855872" lon="9.52628610761816"><ele>604.0</ele><time>2026-04-19T09:05:52Z</time></trkpt><trkpt lat="44.38559051947699" lon="9.526171209869139"><ele>604.0</ele><time>2026-04-19T09:05:53Z</time></trkpt><trkpt lat="44.385528912874754" lon="9.526025080712353"><ele>603.25</ele><time>2026-04-19T09:05:54Z</time></trkpt><trkpt lat="44.38547300266256" lon="9.525858122901644"><ele>602.5</ele><time>2026-04-19T09:05:55Z</time></trkpt><trkpt lat="44.3853750644535" lon="9.52570598097493"><ele>601.75</ele><time>2026-04-19T09:05:56Z</time></trkpt><trkpt lat="44.3852533361703" lon="9.525630670651392"><ele>601.0</ele><time>2026-04-19T09:05:57Z</time></trkpt><trkpt lat="44.38520128219676" lon="9.525497213692907"><ele>604.0</ele><time>2026-04-19T09:05:58Z</time></trkpt><trkpt lat="44.38520334525913" lon="9.52534686407753"><ele>607.0</ele><time>2026-04-19T09:05:59Z</time></trkpt><trkpt lat="44.38520444870523" lon="9.525150988966042"><ele>610.0</ele><time>2026-04-19T09:06:00Z</time></trkpt><trkpt lat="44.385182957433784" lon="9.5249441506163"><ele>613.0</ele><time>2026-04-19T09:06:01Z</time></trkpt><trkpt lat="44.38515170805221" lon="9.524755387224163"><ele>613.0</ele><time>2026-04-19T09:06:02Z</time></trkpt><trkpt lat="44.3851320194208" lon="9.524572220077953"><ele>613.0</ele><time>2026-04-19T09:06:03Z</time></trkpt><trkpt lat="44.385097540382226" lon="9.524415613145525"><ele>613.0</ele><time>2026-04-19T09:06:04Z</time></trkpt><trkpt lat="44.38504274446876" lon="9.524293305005276"><ele>613.0</ele><time>2026-04-19T09:06:05Z</time></trkpt><trkpt lat="44.38495182716878" lon="9.524229325608912"><ele>610.75</ele><time>2026-04-19T09:06:06Z</time></trkpt><trkpt lat="44.38482699692759" lon="9.524235034825782"><ele>608.5</ele><time>2026-04-19T09:06:07Z</time></trkpt><trkpt lat="44.38470200301895" lon="9.524292501243345"><ele>606.25</ele><time>2026-04-19T09:06:08Z</time></trkpt><trkpt lat="44.38460543802378" lon="9.524304866949993"><ele>604.0</ele><time>2026-04-19T09:06:09Z</time></trkpt><trkpt lat="44.384533749702626" lon="9.524192502772877"><ele>604.0</ele><time>2026-04-19T09:06:10Z</time></trkpt><trkpt lat="44.38448832657843" lon="9.52406161710907"><ele>604.0</ele><time>2026-04-19T09:06:11Z</time></trkpt><trkpt lat="44.38444766318133" lon="9.523922444416643"><ele>604.0</ele><time>2026-04-19T09:06:12Z</time></trkpt><trkpt lat="44.384469271615046" lon="9.523789397767093"><ele>604.0</ele><time>2026-04-19T09:06:13Z</time></trkpt><trkpt lat="44.384517128621354" lon="9.523654098530669"><ele>604.0</ele><time>2026-04-19T09:06:14Z</time></trkpt><trkpt lat="44.38458116811371" lon="9.523531256485581"><ele>603.75</ele><time>2026-04-19T09:06:15Z</time></trkpt><trkpt lat="44.384676693867014" lon="9.523447243404963"><ele>603.5</ele><time>2026-04-19T09:06:16Z</time></trkpt><trkpt lat="44.38478512986254" lon="9.523367518524502"><ele>603.25</ele><time>2026-04-19T09:06:17Z</time></trkpt><trkpt lat="44.384901535406016" lon="9.523274979474326"><ele>603.0</ele><time>2026-04-19T09:06:18Z</time></trkpt><trkpt lat="44.38500493566548" lon="9.523147858304325"><ele>604.3333333333334</ele><time>2026-04-19T09:06:19Z</time></trkpt><trkpt lat="44.3851085190274" lon="9.523000505231433"><ele>605.6666666666667</ele><time>2026-04-19T09:06:20Z</time></trkpt><trkpt lat="44.385190982143" lon="9.522808995146361"><ele>607.0</ele><time>2026-04-19T09:06:20.999Z</time></trkpt><trkpt lat="44.38530157389633" lon="9.522653412293096"><ele>607.0</ele><time>2026-04-19T09:06:21.999Z</time></trkpt><trkpt lat="44.38540777789609" lon="9.522512964766669"><ele>607.0</ele><time>2026-04-19T09:06:22.999Z</time></trkpt><trkpt lat="44.38551382722264" lon="9.522412295899203"><ele>607.0</ele><time>2026-04-19T09:06:23.999Z</time></trkpt><trkpt lat="44.38563028114407" lon="9.522360725000093"><ele>607.0</ele><time>2026-04-19T09:06:24.999Z</time></trkpt><trkpt lat="44.38574141285914" lon="9.522271046733055"><ele>611.0</ele><time>2026-04-19T09:06:25.999Z</time></trkpt><trkpt lat="44.38584570062341" lon="9.522145149107953"><ele>615.0</ele><time>2026-04-19T09:06:26.999Z</time></trkpt><trkpt lat="44.38593199561572" lon="9.521966124662532"><ele>619.0</ele><time>2026-04-19T09:06:27.999Z</time></trkpt><trkpt lat="44.386023495265874" lon="9.521798873890202"><ele>623.0</ele><time>2026-04-19T09:06:28.999Z</time></trkpt><trkpt lat="44.38607435515968" lon="9.521625553774888"><ele>623.0</ele><time>2026-04-19T09:06:29.999Z</time></trkpt><trkpt lat="44.386113594551695" lon="9.521479029317423"><ele>623.0</ele><time>2026-04-19T09:06:30.999Z</time></trkpt><trkpt lat="44.3861544981389" lon="9.521365273365296"><ele>623.0</ele><time>2026-04-19T09:06:31.999Z</time></trkpt><trkpt lat="44.386271277284756" lon="9.521341192420135"><ele>623.0</ele><time>2026-04-19T09:06:33.999Z</time></trkpt><trkpt lat="44.386365700605154" lon="9.52133441746247"><ele>623.0</ele><time>2026-04-19T09:06:34.999Z</time></trkpt><trkpt lat="44.38647267807596" lon="9.521278511792868"><ele>629.5</ele><time>2026-04-19T09:06:35.999Z</time></trkpt><trkpt lat="44.38656238171388" lon="9.521170897160214"><ele>636.0</ele><time>2026-04-19T09:06:36.999Z</time></trkpt><trkpt lat="44.38660398613768" lon="9.521037359308453"><ele>642.5</ele><time>2026-04-19T09:06:37.999Z</time></trkpt><trkpt lat="44.38658583494538" lon="9.520895111491877"><ele>649.0</ele><time>2026-04-19T09:06:38.999Z</time></trkpt><trkpt lat="44.38648855323542" lon="9.520776433581563"><ele>649.0</ele><time>2026-04-19T09:06:39.999Z</time></trkpt><trkpt lat="44.386386780655826" lon="9.52071758602159"><ele>649.0</ele><time>2026-04-19T09:06:40.999Z</time></trkpt><trkpt lat="44.38633354281336" lon="9.520608720228573"><ele>649.0</ele><time>2026-04-19T09:06:41.999Z</time></trkpt><trkpt lat="44.386334609745866" lon="9.520493551937907"><ele>649.0</ele><time>2026-04-19T09:06:42.999Z</time></trkpt><trkpt lat="44.38633513629987" lon="9.520327223182589"><ele>649.0</ele><time>2026-04-19T09:06:43.999Z</time></trkpt><trkpt lat="44.38631331607662" lon="9.520141929222184"><ele>651.75</ele><time>2026-04-19T09:06:44.999Z</time></trkpt><trkpt lat="44.38629483860303" lon="9.519954592786885"><ele>654.5</ele><time>2026-04-19T09:06:45.999Z</time></trkpt><trkpt lat="44.38624978364804" lon="9.51977699490372"><ele>657.25</ele><time>2026-04-19T09:06:46.999Z</time></trkpt><trkpt lat="44.386209769708884" lon="9.519620492574026"><ele>660.0</ele><time>2026-04-19T09:06:47.999Z</time></trkpt><trkpt lat="44.386165316011905" lon="9.519502291795192"><ele>660.0</ele><time>2026-04-19T09:06:48.999Z</time></trkpt><trkpt lat="44.38611118388898" lon="9.5194054328217"><ele>660.0</ele><time>2026-04-19T09:06:49.999Z</time></trkpt><trkpt lat="44.385986034791685" lon="9.519420326042397"><ele>660.0</ele><time>2026-04-19T09:06:50.999Z</time></trkpt><trkpt lat="44.385868222402586" lon="9.519534839934966"><ele>660.0</ele><time>2026-04-19T09:06:51.999Z</time></trkpt><trkpt lat="44.385764144939905" lon="9.519648446952834"><ele>652.0</ele><time>2026-04-19T09:06:52.999Z</time></trkpt><trkpt lat="44.38563815768962" lon="9.519707645691792"><ele>644.0</ele><time>2026-04-19T09:06:53.999Z</time></trkpt><trkpt lat="44.3855306389122" lon="9.519729945537385"><ele>636.0</ele><time>2026-04-19T09:06:54.999Z</time></trkpt><trkpt lat="44.38542320941239" lon="9.519725985628007"><ele>628.0</ele><time>2026-04-19T09:06:55.999Z</time></trkpt><trkpt lat="44.38530759089857" lon="9.519668955676407"><ele>627.5</ele><time>2026-04-19T09:06:56.999Z</time></trkpt><trkpt lat="44.38518195428192" lon="9.519627272879212"><ele>627.0</ele><time>2026-04-19T09:06:57.999Z</time></trkpt><trkpt lat="44.38506740372419" lon="9.519592306712761"><ele>626.5</ele><time>2026-04-19T09:06:58.999Z</time></trkpt><trkpt lat="44.384975680204455" lon="9.519521148980196"><ele>626.0</ele><time>2026-04-19T09:06:59.999Z</time></trkpt><trkpt lat="44.384804584691885" lon="9.519510085636792"><ele>628.3333333333333</ele><time>2026-04-19T09:07:00.999Z</time></trkpt><trkpt lat="44.3846849369149" lon="9.519553184777108"><ele>630.6666666666666</ele><time>2026-04-19T09:07:01.999Z</time></trkpt><trkpt lat="44.38458674198484" lon="9.519535585642426"><ele>633.0</ele><time>2026-04-19T09:07:02.999Z</time></trkpt><trkpt lat="44.38450579272563" lon="9.519516180945022"><ele>635.3333333333334</ele><time>2026-04-19T09:07:03.999Z</time></trkpt><trkpt lat="44.38446075757057" lon="9.519441815628088"><ele>637.6666666666667</ele><time>2026-04-19T09:07:04.999Z</time></trkpt><trkpt lat="44.38439503705136" lon="9.519393652422272"><ele>640.0</ele><time>2026-04-19T09:07:05.999Z</time></trkpt><trkpt lat="44.384329244808775" lon="9.519357862647313"><ele>640.0</ele><time>2026-04-19T09:07:06.999Z</time></trkpt><trkpt lat="44.38426901203133" lon="9.519324635026162"><ele>640.0</ele><time>2026-04-19T09:07:07.999Z</time></trkpt><trkpt lat="44.3842085467433" lon="9.519281160278112"><ele>640.0</ele><time>2026-04-19T09:07:08.999Z</time></trkpt><trkpt lat="44.38415382515951" lon="9.519229252228993"><ele>640.0</ele><time>2026-04-19T09:07:09.999Z</time></trkpt><trkpt lat="44.38410308466634" lon="9.519115060549462"><ele>640.0</ele><time>2026-04-19T09:07:11.999Z</time></trkpt><trkpt lat="44.38419489013902" lon="9.518957032755752"><ele>640.0</ele><time>2026-04-19T09:07:13.999Z</time></trkpt><trkpt lat="44.384294208092484" lon="9.51891983491668"><ele>640.0</ele><time>2026-04-19T09:07:14.999Z</time></trkpt><trkpt lat="44.38436861649506" lon="9.51883780461124"><ele>640.0</ele><time>2026-04-19T09:07:15.999Z</time></trkpt><trkpt lat="44.38442951155483" lon="9.518745561484899"><ele>640.0</ele><time>2026-04-19T09:07:16.999Z</time></trkpt><trkpt lat="44.38449536517779" lon="9.518650516198198"><ele>640.0</ele><time>2026-04-19T09:07:17.999Z</time></trkpt><trkpt lat="44.38455602510891" lon="9.518505199287226"><ele>640.0</ele><time>2026-04-19T09:07:18.999Z</time></trkpt><trkpt lat="44.38462798893826" lon="9.51835404724145"><ele>643.25</ele><time>2026-04-19T09:07:19.999Z</time></trkpt><trkpt lat="44.38471288608305" lon="9.518214340659553"><ele>646.5</ele><time>2026-04-19T09:07:20.999Z</time></trkpt><trkpt lat="44.3847723854397" lon="9.518084791197754"><ele>649.75</ele><time>2026-04-19T09:07:21.999Z</time></trkpt><trkpt lat="44.38480164405347" lon="9.517939412715474"><ele>653.0</ele><time>2026-04-19T09:07:22.999Z</time></trkpt><trkpt lat="44.384744854221175" lon="9.517775418609501"><ele>653.0</ele><time>2026-04-19T09:07:23.999Z</time></trkpt><trkpt lat="44.384680378289" lon="9.51764277570189"><ele>653.0</ele><time>2026-04-19T09:07:24.999Z</time></trkpt><trkpt lat="44.38466736792304" lon="9.517511238211815"><ele>653.0</ele><time>2026-04-19T09:07:25.999Z</time></trkpt><trkpt lat="44.384679617105654" lon="9.517413014268133"><ele>653.0</ele><time>2026-04-19T09:07:26.999Z</time></trkpt><trkpt lat="44.38478197789265" lon="9.517274117879223"><ele>653.0</ele><time>2026-04-19T09:07:28.999Z</time></trkpt><trkpt lat="44.38487388296194" lon="9.517253199092998"><ele>653.0</ele><time>2026-04-19T09:07:29.999Z</time></trkpt><trkpt lat="44.384971414941795" lon="9.517351523370289"><ele>653.0</ele><time>2026-04-19T09:07:30.999Z</time></trkpt><trkpt lat="44.38506748057533" lon="9.517350677057399"><ele>653.0</ele><time>2026-04-19T09:07:31.999Z</time></trkpt><trkpt lat="44.38517695346739" lon="9.517246527806838"><ele>653.0</ele><time>2026-04-19T09:07:32.999Z</time></trkpt><trkpt lat="44.38528466745865" lon="9.517142715428399"><ele>650.8</ele><time>2026-04-19T09:07:33.999Z</time></trkpt><trkpt lat="44.38537550138996" lon="9.517045115288504"><ele>648.5999999999999</ele><time>2026-04-19T09:07:34.999Z</time></trkpt><trkpt lat="44.3854311962198" lon="9.516968953535844"><ele>646.4000000000001</ele><time>2026-04-19T09:07:35.999Z</time></trkpt><trkpt lat="44.38548068595365" lon="9.516848814262376"><ele>644.2</ele><time>2026-04-19T09:07:36.999Z</time></trkpt><trkpt lat="44.385462152421084" lon="9.516711978311024"><ele>642.0</ele><time>2026-04-19T09:07:37.999Z</time></trkpt><trkpt lat="44.38533961291903" lon="9.516596341425183"><ele>642.0</ele><time>2026-04-19T09:07:38.999Z</time></trkpt><trkpt lat="44.385239507540014" lon="9.516470789767954"><ele>642.0</ele><time>2026-04-19T09:07:39.999Z</time></trkpt><trkpt lat="44.38517702094007" lon="9.516332852602401"><ele>642.0</ele><time>2026-04-19T09:07:40.999Z</time></trkpt><trkpt lat="44.38510952716159" lon="9.516190427392532"><ele>642.0</ele><time>2026-04-19T09:07:41.999Z</time></trkpt><trkpt lat="44.385022779093006" lon="9.516046863547396"><ele>640.0</ele><time>2026-04-19T09:07:42.999Z</time></trkpt><trkpt lat="44.38488800594841" lon="9.515963020522733"><ele>638.0</ele><time>2026-04-19T09:07:43.999Z</time></trkpt><trkpt lat="44.38475532041726" lon="9.51585784298232"><ele>636.0</ele><time>2026-04-19T09:07:44.999Z</time></trkpt><trkpt lat="44.384650201760614" lon="9.515766329655976"><ele>634.0</ele><time>2026-04-19T09:07:45.999Z</time></trkpt><trkpt lat="44.38452950520683" lon="9.515649292233933"><ele>634.0</ele><time>2026-04-19T09:07:46.999Z</time></trkpt><trkpt lat="44.38444636930451" lon="9.515550800544817"><ele>634.0</ele><time>2026-04-19T09:07:47.999Z</time></trkpt><trkpt lat="44.38438275331939" lon="9.515459347274792"><ele>634.0</ele><time>2026-04-19T09:07:48.999Z</time></trkpt><trkpt lat="44.38432490402703" lon="9.515342397263769"><ele>634.0</ele><time>2026-04-19T09:07:49.999Z</time></trkpt><trkpt lat="44.384299813386036" lon="9.515209652670757"><ele>634.0</ele><time>2026-04-19T09:07:50.999Z</time></trkpt><trkpt lat="44.38429274008751" lon="9.515081029199333"><ele>638.6</ele><time>2026-04-19T09:07:51.999Z</time></trkpt><trkpt lat="44.38432885684999" lon="9.51498123645051"><ele>643.2</ele><time>2026-04-19T09:07:52.999Z</time></trkpt><trkpt lat="44.38434548522781" lon="9.5148734374828"><ele>647.8000000000001</ele><time>2026-04-19T09:07:53.999Z</time></trkpt><trkpt lat="44.384332671486796" lon="9.514757592084155"><ele>652.4</ele><time>2026-04-19T09:07:54.999Z</time></trkpt><trkpt lat="44.384227092781046" lon="9.514660100717183"><ele>657.0</ele><time>2026-04-19T09:07:55.999Z</time></trkpt><trkpt lat="44.384098116204036" lon="9.514623870287998"><ele>657.0</ele><time>2026-04-19T09:07:56.999Z</time></trkpt><trkpt lat="44.38398829918393" lon="9.514571097278155"><ele>657.0</ele><time>2026-04-19T09:07:57.999Z</time></trkpt><trkpt lat="44.38389397622223" lon="9.514578792097547"><ele>657.0</ele><time>2026-04-19T09:07:58.999Z</time></trkpt><trkpt lat="44.38381397216438" lon="9.514640338113084"><ele>657.0</ele><time>2026-04-19T09:07:59.999Z</time></trkpt><trkpt lat="44.383783081316324" lon="9.514831075110582"><ele>657.0</ele><time>2026-04-19T09:08:00.999Z</time></trkpt><trkpt lat="44.38375036541277" lon="9.514989992771236"><ele>656.4000000000001</ele><time>2026-04-19T09:08:01.999Z</time></trkpt><trkpt lat="44.38366030811208" lon="9.51506515111148"><ele>655.8000000000001</ele><time>2026-04-19T09:08:02.999Z</time></trkpt><trkpt lat="44.38358500045151" lon="9.515134952334266"><ele>655.2</ele><time>2026-04-19T09:08:03.999Z</time></trkpt><trkpt lat="44.383522980501674" lon="9.51518916303178"><ele>654.6</ele><time>2026-04-19T09:08:04.999Z</time></trkpt><trkpt lat="44.38343083086678" lon="9.515208678101214"><ele>654.0</ele><time>2026-04-19T09:08:05.999Z</time></trkpt><trkpt lat="44.383348887368854" lon="9.515157928217748"><ele>654.0</ele><time>2026-04-19T09:08:06.999Z</time></trkpt><trkpt lat="44.38326738536743" lon="9.515087136074184"><ele>654.0</ele><time>2026-04-19T09:08:07.999Z</time></trkpt><trkpt lat="44.383219156813404" lon="9.514974363809616"><ele>654.0</ele><time>2026-04-19T09:08:08.999Z</time></trkpt><trkpt lat="44.383174450252035" lon="9.514858905638537"><ele>654.0</ele><time>2026-04-19T09:08:09.999Z</time></trkpt><trkpt lat="44.38311794668659" lon="9.514729936268076"><ele>654.0</ele><time>2026-04-19T09:08:10.999Z</time></trkpt><trkpt lat="44.383074372582165" lon="9.514584076963693"><ele>651.75</ele><time>2026-04-19T09:08:11.999Z</time></trkpt><trkpt lat="44.382997486475034" lon="9.514451876892537"><ele>649.5</ele><time>2026-04-19T09:08:12.999Z</time></trkpt><trkpt lat="44.382903302214004" lon="9.514326395801751"><ele>647.25</ele><time>2026-04-19T09:08:13.999Z</time></trkpt><trkpt lat="44.38285090633267" lon="9.514194872318988"><ele>645.0</ele><time>2026-04-19T09:08:14.999Z</time></trkpt><trkpt lat="44.38284027378995" lon="9.514054731154546"><ele>645.0</ele><time>2026-04-19T09:08:15.999Z</time></trkpt><trkpt lat="44.382827337705656" lon="9.51386028787541"><ele>645.0</ele><time>2026-04-19T09:08:16.999Z</time></trkpt><trkpt lat="44.38282024696601" lon="9.513652503245137"><ele>645.0</ele><time>2026-04-19T09:08:17.999Z</time></trkpt><trkpt lat="44.38282953532161" lon="9.513437180365488"><ele>645.0</ele><time>2026-04-19T09:08:18.999Z</time></trkpt><trkpt lat="44.38281154200349" lon="9.51323775274197"><ele>647.0</ele><time>2026-04-19T09:08:19.999Z</time></trkpt><trkpt lat="44.382742620647406" lon="9.513072821108638"><ele>649.0</ele><time>2026-04-19T09:08:20.999Z</time></trkpt><trkpt lat="44.382707442430636" lon="9.51290233879693"><ele>651.0</ele><time>2026-04-19T09:08:21.999Z</time></trkpt><trkpt lat="44.38266086261011" lon="9.512744515111185"><ele>653.0</ele><time>2026-04-19T09:08:22.999Z</time></trkpt><trkpt lat="44.382558927892816" lon="9.512650455612832"><ele>652.25</ele><time>2026-04-19T09:08:23.999Z</time></trkpt><trkpt lat="44.38243757886685" lon="9.512618363717426"><ele>651.5</ele><time>2026-04-19T09:08:24.999Z</time></trkpt><trkpt lat="44.38231849655465" lon="9.512640296528335"><ele>650.75</ele><time>2026-04-19T09:08:25.999Z</time></trkpt><trkpt lat="44.38221664593922" lon="9.51260286106855"><ele>650.0</ele><time>2026-04-19T09:08:26.999Z</time></trkpt><trkpt lat="44.3821184623322" lon="9.512525386037181"><ele>650.0</ele><time>2026-04-19T09:08:27.999Z</time></trkpt><trkpt lat="44.38204016183622" lon="9.512403475879683"><ele>650.0</ele><time>2026-04-19T09:08:28.999Z</time></trkpt><trkpt lat="44.38201226880374" lon="9.512265902674374"><ele>650.0</ele><time>2026-04-19T09:08:29.999Z</time></trkpt><trkpt lat="44.38200906418728" lon="9.512127822515092"><ele>650.0</ele><time>2026-04-19T09:08:30.999Z</time></trkpt><trkpt lat="44.38199781678944" lon="9.512021302641461"><ele>650.0</ele><time>2026-04-19T09:08:31.999Z</time></trkpt><trkpt lat="44.381981800035305" lon="9.511885455522728"><ele>658.5</ele><time>2026-04-19T09:08:32.999Z</time></trkpt><trkpt lat="44.38193834170382" lon="9.511748829254955"><ele>667.0</ele><time>2026-04-19T09:08:33.999Z</time></trkpt><trkpt lat="44.381842167026946" lon="9.51167681390629"><ele>675.5</ele><time>2026-04-19T09:08:34.999Z</time></trkpt><trkpt lat="44.38170079463551" lon="9.511727881728081"><ele>684.0</ele><time>2026-04-19T09:08:35.999Z</time></trkpt><trkpt lat="44.381561772745414" lon="9.511780624230875"><ele>684.0</ele><time>2026-04-19T09:08:36.999Z</time></trkpt><trkpt lat="44.381441952804856" lon="9.511868464377027"><ele>684.0</ele><time>2026-04-19T09:08:37.999Z</time></trkpt><trkpt lat="44.38136235958393" lon="9.511928216131192"><ele>684.0</ele><time>2026-04-19T09:08:38.999Z</time></trkpt><trkpt lat="44.381281054021635" lon="9.511949341379482"><ele>684.0</ele><time>2026-04-19T09:08:39.999Z</time></trkpt><trkpt lat="44.381195398254235" lon="9.511918710719822"><ele>684.0</ele><time>2026-04-19T09:08:40.999Z</time></trkpt><trkpt lat="44.381101172057505" lon="9.511849281459597"><ele>683.75</ele><time>2026-04-19T09:08:41.999Z</time></trkpt><trkpt lat="44.3809745914883" lon="9.511789490742688"><ele>683.5</ele><time>2026-04-19T09:08:42.999Z</time></trkpt><trkpt lat="44.38085472330462" lon="9.511742778921576"><ele>683.25</ele><time>2026-04-19T09:08:43.999Z</time></trkpt><trkpt lat="44.380754183650645" lon="9.511679296838492"><ele>683.0</ele><time>2026-04-19T09:08:44.999Z</time></trkpt><trkpt lat="44.380666024352394" lon="9.511589352326668"><ele>683.0</ele><time>2026-04-19T09:08:45.999Z</time></trkpt><trkpt lat="44.380567557856004" lon="9.511468632484698"><ele>683.0</ele><time>2026-04-19T09:08:46.999Z</time></trkpt><trkpt lat="44.38043687194764" lon="9.51138570242119"><ele>683.0</ele><time>2026-04-19T09:08:47.999Z</time></trkpt><trkpt lat="44.38031518789867" lon="9.511332862164366"><ele>683.0</ele><time>2026-04-19T09:08:48.999Z</time></trkpt><trkpt lat="44.38021611712044" lon="9.511283583443912"><ele>679.2</ele><time>2026-04-19T09:08:49.999Z</time></trkpt><trkpt lat="44.380148877642426" lon="9.511162969120594"><ele>675.4</ele><time>2026-04-19T09:08:51.999Z</time></trkpt><trkpt lat="44.38014906059031" lon="9.51107160763524"><ele>671.6</ele><time>2026-04-19T09:08:52.999Z</time></trkpt><trkpt lat="44.38021608676351" lon="9.51094073236228"><ele>667.8000000000001</ele><time>2026-04-19T09:08:53.999Z</time></trkpt><trkpt lat="44.38026152476944" lon="9.510794663729001"><ele>664.0</ele><time>2026-04-19T09:08:54.999Z</time></trkpt><trkpt lat="44.38033028639409" lon="9.510639695608285"><ele>664.0</ele><time>2026-04-19T09:08:55.999Z</time></trkpt><trkpt lat="44.380398781576325" lon="9.510468520291543"><ele>664.0</ele><time>2026-04-19T09:08:56.999Z</time></trkpt><trkpt lat="44.38045134089239" lon="9.510286848570512"><ele>664.0</ele><time>2026-04-19T09:08:57.999Z</time></trkpt><trkpt lat="44.380478411360194" lon="9.510104598915836"><ele>664.0</ele><time>2026-04-19T09:08:58.999Z</time></trkpt><trkpt lat="44.380426828137495" lon="9.509897574627576"><ele>664.75</ele><time>2026-04-19T09:08:59.999Z</time></trkpt><trkpt lat="44.38036099609013" lon="9.509702993494288"><ele>665.5</ele><time>2026-04-19T09:09:00.999Z</time></trkpt><trkpt lat="44.38028863110651" lon="9.509517626052393"><ele>666.25</ele><time>2026-04-19T09:09:01.999Z</time></trkpt><trkpt lat="44.380201512938754" lon="9.509378223546662"><ele>667.0</ele><time>2026-04-19T09:09:02.999Z</time></trkpt><trkpt lat="44.38007577867546" lon="9.509275427758089"><ele>674.6666666666667</ele><time>2026-04-19T09:09:03.999Z</time></trkpt><trkpt lat="44.37992984457397" lon="9.50919304981966"><ele>682.3333333333334</ele><time>2026-04-19T09:09:04.999Z</time></trkpt><trkpt lat="44.379807099508" lon="9.509055901978801"><ele>690.0</ele><time>2026-04-19T09:09:05.999Z</time></trkpt><trkpt lat="44.3796926087422" lon="9.508948706615428"><ele>686.25</ele><time>2026-04-19T09:09:06.999Z</time></trkpt><trkpt lat="44.37957022960316" lon="9.50889551267386"><ele>682.5</ele><time>2026-04-19T09:09:07.999Z</time></trkpt><trkpt lat="44.37943809142477" lon="9.50888645779235"><ele>678.75</ele><time>2026-04-19T09:09:08.999Z</time></trkpt><trkpt lat="44.37931255238163" lon="9.508928432715914"><ele>675.0</ele><time>2026-04-19T09:09:09.999Z</time></trkpt><trkpt lat="44.379201956849954" lon="9.508950112533757"><ele>675.0</ele><time>2026-04-19T09:09:10.999Z</time></trkpt><trkpt lat="44.37911215301902" lon="9.508941589383028"><ele>675.0</ele><time>2026-04-19T09:09:11.999Z</time></trkpt><trkpt lat="44.379044158969606" lon="9.508903934742479"><ele>675.0</ele><time>2026-04-19T09:09:12.999Z</time></trkpt><trkpt lat="44.378989805670706" lon="9.508828844928862"><ele>675.0</ele><time>2026-04-19T09:09:13.999Z</time></trkpt><trkpt lat="44.37900684795138" lon="9.50867591717356"><ele>675.0</ele><time>2026-04-19T09:09:14.999Z</time></trkpt><trkpt lat="44.37899037420168" lon="9.508504731952627"><ele>675.75</ele><time>2026-04-19T09:09:15.999Z</time></trkpt><trkpt lat="44.37897129282023" lon="9.508321065628579"><ele>676.5</ele><time>2026-04-19T09:09:16.999Z</time></trkpt><trkpt lat="44.378893830523246" lon="9.508158715492703"><ele>677.25</ele><time>2026-04-19T09:09:17.999Z</time></trkpt><trkpt lat="44.37883073113166" lon="9.508006157331275"><ele>678.0</ele><time>2026-04-19T09:09:18.999Z</time></trkpt><trkpt lat="44.37878557740315" lon="9.507861519402654"><ele>678.0</ele><time>2026-04-19T09:09:19.999Z</time></trkpt><trkpt lat="44.37871132604681" lon="9.507765684029783"><ele>678.0</ele><time>2026-04-19T09:09:20.999Z</time></trkpt><trkpt lat="44.37878608846253" lon="9.50761327466972"><ele>678.0</ele><time>2026-04-19T09:09:21.999Z</time></trkpt><trkpt lat="44.378840081222535" lon="9.50753540209599"><ele>678.0</ele><time>2026-04-19T09:09:22.999Z</time></trkpt><trkpt lat="44.378935908112545" lon="9.50748884710432"><ele>678.0</ele><time>2026-04-19T09:09:23.999Z</time></trkpt><trkpt lat="44.379052908573165" lon="9.50750351086811"><ele>680.25</ele><time>2026-04-19T09:09:24.999Z</time></trkpt><trkpt lat="44.37917890965165" lon="9.507548183488902"><ele>682.5</ele><time>2026-04-19T09:09:25.999Z</time></trkpt><trkpt lat="44.37932620696731" lon="9.507611198499488"><ele>684.75</ele><time>2026-04-19T09:09:26.999Z</time></trkpt><trkpt lat="44.37947527839934" lon="9.507651956212685"><ele>687.0</ele><time>2026-04-19T09:09:27.999Z</time></trkpt><trkpt lat="44.37963287081313" lon="9.50766457839772"><ele>691.6666666666666</ele><time>2026-04-19T09:09:28.999Z</time></trkpt><trkpt lat="44.37979996035063" lon="9.507670699763354"><ele>696.3333333333333</ele><time>2026-04-19T09:09:29.999Z</time></trkpt><trkpt lat="44.37997088135009" lon="9.507678751956874"><ele>701.0</ele><time>2026-04-19T09:09:30.999Z</time></trkpt><trkpt lat="44.38012485319372" lon="9.507685343608212"><ele>701.0</ele><time>2026-04-19T09:09:31.999Z</time></trkpt><trkpt lat="44.38025986999079" lon="9.507699594621386"><ele>701.0</ele><time>2026-04-19T09:09:32.999Z</time></trkpt><trkpt lat="44.38038689851541" lon="9.507708169284577"><ele>701.0</ele><time>2026-04-19T09:09:33.999Z</time></trkpt><trkpt lat="44.380484771744456" lon="9.507688046307788"><ele>701.0</ele><time>2026-04-19T09:09:34.999Z</time></trkpt><trkpt lat="44.38056230327445" lon="9.507597940259771"><ele>704.5</ele><time>2026-04-19T09:09:35.999Z</time></trkpt><trkpt lat="44.380603250106056" lon="9.507466803326674"><ele>708.0</ele><time>2026-04-19T09:09:36.999Z</time></trkpt><trkpt lat="44.38059684801065" lon="9.507301309215999"><ele>711.5</ele><time>2026-04-19T09:09:37.999Z</time></trkpt><trkpt lat="44.3805553622787" lon="9.50712795276616"><ele>715.0</ele><time>2026-04-19T09:09:38.999Z</time></trkpt><trkpt lat="44.38047902346912" lon="9.506965075580753"><ele>707.25</ele><time>2026-04-19T09:09:39.999Z</time></trkpt><trkpt lat="44.38039293429861" lon="9.506837660084537"><ele>699.5</ele><time>2026-04-19T09:09:40.999Z</time></trkpt><trkpt lat="44.380324754509374" lon="9.50673577233265"><ele>691.75</ele><time>2026-04-19T09:09:41.999Z</time></trkpt><trkpt lat="44.38030714621215" lon="9.50659517319522"><ele>684.0</ele><time>2026-04-19T09:09:42.999Z</time></trkpt><trkpt lat="44.38035456451143" lon="9.50642913762373"><ele>684.0</ele><time>2026-04-19T09:09:43.999Z</time></trkpt><trkpt lat="44.3804004357037" lon="9.506253398604931"><ele>684.0</ele><time>2026-04-19T09:09:44.999Z</time></trkpt><trkpt lat="44.380435799182045" lon="9.506065134922695"><ele>684.0</ele><time>2026-04-19T09:09:45.999Z</time></trkpt><trkpt lat="44.38041832656473" lon="9.505885779139838"><ele>684.0</ele><time>2026-04-19T09:09:46.999Z</time></trkpt><trkpt lat="44.38042083762338" lon="9.505724085624117"><ele>683.0</ele><time>2026-04-19T09:09:47.999Z</time></trkpt><trkpt lat="44.380428855688656" lon="9.505579777985272"><ele>682.0</ele><time>2026-04-19T09:09:48.999Z</time></trkpt><trkpt lat="44.380485688767365" lon="9.505478371344953"><ele>681.0</ele><time>2026-04-19T09:09:49.999Z</time></trkpt><trkpt lat="44.380558201142755" lon="9.50538482501465"><ele>680.0</ele><time>2026-04-19T09:09:50.999Z</time></trkpt><trkpt lat="44.3806579433486" lon="9.505305596145169"><ele>679.0</ele><time>2026-04-19T09:09:51.999Z</time></trkpt><trkpt lat="44.38077972995402" lon="9.505291116513206"><ele>684.25</ele><time>2026-04-19T09:09:52.999Z</time></trkpt><trkpt lat="44.380904914700196" lon="9.505288783414459"><ele>689.5</ele><time>2026-04-19T09:09:53.999Z</time></trkpt><trkpt lat="44.38100353581058" lon="9.505330730594993"><ele>694.75</ele><time>2026-04-19T09:09:54.999Z</time></trkpt><trkpt lat="44.38109270443894" lon="9.505413667825279"><ele>700.0</ele><time>2026-04-19T09:09:55.999Z</time></trkpt><trkpt lat="44.3811525106901" lon="9.505557909227415"><ele>703.25</ele><time>2026-04-19T09:09:56.999Z</time></trkpt><trkpt lat="44.381183417294224" lon="9.505723360806092"><ele>706.5</ele><time>2026-04-19T09:09:57.999Z</time></trkpt><trkpt lat="44.38123210708044" lon="9.505863360394676"><ele>709.75</ele><time>2026-04-19T09:09:58.999Z</time></trkpt><trkpt lat="44.381291929999406" lon="9.505993941945622"><ele>713.0</ele><time>2026-04-19T09:09:59.999Z</time></trkpt><trkpt lat="44.38142479534434" lon="9.506033408559288"><ele>713.0</ele><time>2026-04-19T09:10:00.999Z</time></trkpt><trkpt lat="44.38156292379249" lon="9.506047984987232"><ele>713.0</ele><time>2026-04-19T09:10:01.999Z</time></trkpt><trkpt lat="44.381691486331626" lon="9.506006331552932"><ele>713.0</ele><time>2026-04-19T09:10:02.999Z</time></trkpt><trkpt lat="44.38180374741612" lon="9.505912765065657"><ele>713.0</ele><time>2026-04-19T09:10:03.999Z</time></trkpt><trkpt lat="44.3819368957837" lon="9.505845248419485"><ele>713.0</ele><time>2026-04-19T09:10:04.999Z</time></trkpt><trkpt lat="44.38207917249722" lon="9.505804580406203"><ele>713.0</ele><time>2026-04-19T09:10:05.999Z</time></trkpt><trkpt lat="44.38222420645943" lon="9.505745771544557"><ele>713.0</ele><time>2026-04-19T09:10:06.999Z</time></trkpt><trkpt lat="44.38236499119485" lon="9.505732974303726"><ele>713.0</ele><time>2026-04-19T09:10:07.999Z</time></trkpt><trkpt lat="44.38249317574481" lon="9.505785712157754"><ele>715.0</ele><time>2026-04-19T09:10:08.999Z</time></trkpt><trkpt lat="44.38260304257127" lon="9.505785797272468"><ele>717.0</ele><time>2026-04-19T09:10:09.999Z</time></trkpt><trkpt lat="44.38270672460692" lon="9.50570254071473"><ele>719.0</ele><time>2026-04-19T09:10:10.999Z</time></trkpt><trkpt lat="44.382768852215044" lon="9.505511757169067"><ele>721.0</ele><time>2026-04-19T09:10:11.999Z</time></trkpt><trkpt lat="44.38284985970385" lon="9.505376658203101"><ele>719.75</ele><time>2026-04-19T09:10:12.999Z</time></trkpt><trkpt lat="44.38296124162593" lon="9.505309504354978"><ele>718.5</ele><time>2026-04-19T09:10:13.999Z</time></trkpt><trkpt lat="44.38308452630319" lon="9.50523650790124"><ele>717.25</ele><time>2026-04-19T09:10:14.999Z</time></trkpt><trkpt lat="44.38322266859657" lon="9.50515648249858"><ele>716.0</ele><time>2026-04-19T09:10:15.999Z</time></trkpt><trkpt lat="44.38335914668956" lon="9.505080568290285"><ele>716.0</ele><time>2026-04-19T09:10:16.999Z</time></trkpt><trkpt lat="44.383490891012926" lon="9.505008765464344"><ele>716.0</ele><time>2026-04-19T09:10:17.999Z</time></trkpt><trkpt lat="44.38360219099759" lon="9.504944612175493"><ele>716.0</ele><time>2026-04-19T09:10:18.999Z</time></trkpt><trkpt lat="44.38370296526697" lon="9.504869104004838"><ele>716.0</ele><time>2026-04-19T09:10:19.999Z</time></trkpt><trkpt lat="44.38376187409169" lon="9.504696448406667"><ele>718.75</ele><time>2026-04-19T09:10:20.999Z</time></trkpt><trkpt lat="44.38380347639388" lon="9.50451384281265"><ele>721.5</ele><time>2026-04-19T09:10:21.999Z</time></trkpt><trkpt lat="44.383853416723" lon="9.504338272387853"><ele>724.25</ele><time>2026-04-19T09:10:22.999Z</time></trkpt><trkpt lat="44.38390115583001" lon="9.504170470719982"><ele>727.0</ele><time>2026-04-19T09:10:23.999Z</time></trkpt><trkpt lat="44.383994929024084" lon="9.504018636332063"><ele>727.0</ele><time>2026-04-19T09:10:24.999Z</time></trkpt><trkpt lat="44.38409381397111" lon="9.503877929403494"><ele>727.0</ele><time>2026-04-19T09:10:25.999Z</time></trkpt><trkpt lat="44.38415881421578" lon="9.503696290271147"><ele>727.0</ele><time>2026-04-19T09:10:26.999Z</time></trkpt><trkpt lat="44.38423187002797" lon="9.503525194126555"><ele>727.0</ele><time>2026-04-19T09:10:27.999Z</time></trkpt><trkpt lat="44.38428597131305" lon="9.50336290623938"><ele>723.25</ele><time>2026-04-19T09:10:28.999Z</time></trkpt><trkpt lat="44.38428967239497" lon="9.503170060696945"><ele>719.5</ele><time>2026-04-19T09:10:29.999Z</time></trkpt><trkpt lat="44.38429654811346" lon="9.503007442105844"><ele>715.75</ele><time>2026-04-19T09:10:30.999Z</time></trkpt><trkpt lat="44.384314745723906" lon="9.502878382920132"><ele>712.0</ele><time>2026-04-19T09:10:31.999Z</time></trkpt><trkpt lat="44.38440664690604" lon="9.502802759848986"><ele>710.5</ele><time>2026-04-19T09:10:32.999Z</time></trkpt><trkpt lat="44.38449383509254" lon="9.502690808092195"><ele>709.0</ele><time>2026-04-19T09:10:33.999Z</time></trkpt><trkpt lat="44.3846070041243" lon="9.502565677581604"><ele>707.5</ele><time>2026-04-19T09:10:34.999Z</time></trkpt><trkpt lat="44.38471091769538" lon="9.502481005152038"><ele>706.0</ele><time>2026-04-19T09:10:35.999Z</time></trkpt><trkpt lat="44.38484052030508" lon="9.502450582165897"><ele>711.0</ele><time>2026-04-19T09:10:36.999Z</time></trkpt><trkpt lat="44.38498935247631" lon="9.502440480663713"><ele>716.0</ele><time>2026-04-19T09:10:37.999Z</time></trkpt><trkpt lat="44.385157728759076" lon="9.50242768547851"><ele>721.0</ele><time>2026-04-19T09:10:38.999Z</time></trkpt><trkpt lat="44.38532656158678" lon="9.502414855541055"><ele>721.0</ele><time>2026-04-19T09:10:39.999Z</time></trkpt><trkpt lat="44.38548403007666" lon="9.502402892289693"><ele>721.0</ele><time>2026-04-19T09:10:40.999Z</time></trkpt><trkpt lat="44.38563513531738" lon="9.502368744312493"><ele>721.0</ele><time>2026-04-19T09:10:41.999Z</time></trkpt><trkpt lat="44.38574402227197" lon="9.502370236572645"><ele>721.0</ele><time>2026-04-19T09:10:42.999Z</time></trkpt><trkpt lat="44.385869007382" lon="9.502353145051247"><ele>720.5</ele><time>2026-04-19T09:10:43.999Z</time></trkpt><trkpt lat="44.38598825530743" lon="9.502324714987166"><ele>720.0</ele><time>2026-04-19T09:10:44.999Z</time></trkpt><trkpt lat="44.386099196333234" lon="9.502310050051838"><ele>719.5</ele><time>2026-04-19T09:10:45.999Z</time></trkpt><trkpt lat="44.38615452721444" lon="9.502170329635849"><ele>719.0</ele><time>2026-04-19T09:10:46.999Z</time></trkpt><trkpt lat="44.38618851492249" lon="9.502031945010774"><ele>719.0</ele><time>2026-04-19T09:10:47.999Z</time></trkpt><trkpt lat="44.38619669534098" lon="9.501869188798823"><ele>719.0</ele><time>2026-04-19T09:10:48.999Z</time></trkpt><trkpt lat="44.386185021599395" lon="9.501698738888308"><ele>719.0</ele><time>2026-04-19T09:10:49.999Z</time></trkpt><trkpt lat="44.38616246935148" lon="9.501500642964443"><ele>719.0</ele><time>2026-04-19T09:10:51Z</time></trkpt><trkpt lat="44.38613804362964" lon="9.501296541618903"><ele>718.0</ele><time>2026-04-19T09:10:52Z</time></trkpt><trkpt lat="44.38610027928754" lon="9.501125950960054"><ele>717.0</ele><time>2026-04-19T09:10:53Z</time></trkpt><trkpt lat="44.38607940932459" lon="9.50096168271376"><ele>716.0</ele><time>2026-04-19T09:10:54Z</time></trkpt><trkpt lat="44.38608040866636" lon="9.500819830511197"><ele>715.0</ele><time>2026-04-19T09:10:55Z</time></trkpt><trkpt lat="44.38610657301789" lon="9.500705704580316"><ele>714.0</ele><time>2026-04-19T09:10:56Z</time></trkpt><trkpt lat="44.386163895337944" lon="9.500593114193876"><ele>714.0</ele><time>2026-04-19T09:10:57Z</time></trkpt><trkpt lat="44.386244451387505" lon="9.500485421150854"><ele>714.0</ele><time>2026-04-19T09:10:58Z</time></trkpt><trkpt lat="44.38634385567511" lon="9.50037769018534"><ele>714.0</ele><time>2026-04-19T09:10:59Z</time></trkpt><trkpt lat="44.38644331831038" lon="9.500244816262306"><ele>714.0</ele><time>2026-04-19T09:11:00Z</time></trkpt><trkpt lat="44.38653039387697" lon="9.500096149894727"><ele>716.6666666666666</ele><time>2026-04-19T09:11:01Z</time></trkpt><trkpt lat="44.38659445824709" lon="9.499907210586063"><ele>719.3333333333333</ele><time>2026-04-19T09:11:02Z</time></trkpt><trkpt lat="44.38663681957808" lon="9.49968840272905"><ele>722.0</ele><time>2026-04-19T09:11:03Z</time></trkpt><trkpt lat="44.38666661931955" lon="9.49945468502068"><ele>722.0</ele><time>2026-04-19T09:11:04Z</time></trkpt><trkpt lat="44.386706524510764" lon="9.499245516593335"><ele>722.0</ele><time>2026-04-19T09:11:05Z</time></trkpt><trkpt lat="44.3867433435377" lon="9.499075260040867"><ele>722.0</ele><time>2026-04-19T09:11:06Z</time></trkpt><trkpt lat="44.38676500265696" lon="9.498939044088457"><ele>722.0</ele><time>2026-04-19T09:11:07Z</time></trkpt><trkpt lat="44.38674060293097" lon="9.498816331733861"><ele>722.5</ele><time>2026-04-19T09:11:08Z</time></trkpt><trkpt lat="44.38665331994768" lon="9.49868477459547"><ele>723.0</ele><time>2026-04-19T09:11:09Z</time></trkpt><trkpt lat="44.386539792707666" lon="9.498547760628844"><ele>723.5</ele><time>2026-04-19T09:11:10Z</time></trkpt><trkpt lat="44.38644386258641" lon="9.498431746122773"><ele>724.0</ele><time>2026-04-19T09:11:11Z</time></trkpt><trkpt lat="44.38638205162089" lon="9.498297958469909"><ele>724.0</ele><time>2026-04-19T09:11:12Z</time></trkpt><trkpt lat="44.38635908538928" lon="9.49815804122685"><ele>724.0</ele><time>2026-04-19T09:11:13Z</time></trkpt><trkpt lat="44.38635406449288" lon="9.49791188640833"><ele>724.0</ele><time>2026-04-19T09:11:14Z</time></trkpt><trkpt lat="44.386330665263955" lon="9.497702009406163"><ele>724.0</ele><time>2026-04-19T09:11:15Z</time></trkpt><trkpt lat="44.38629317222671" lon="9.497476839054498"><ele>721.25</ele><time>2026-04-19T09:11:16Z</time></trkpt><trkpt lat="44.386269384704086" lon="9.497287500169348"><ele>718.5</ele><time>2026-04-19T09:11:17Z</time></trkpt><trkpt lat="44.38628108147159" lon="9.497185494102785"><ele>715.75</ele><time>2026-04-19T09:11:18Z</time></trkpt><trkpt lat="44.38630946576713" lon="9.497035165459923"><ele>713.0</ele><time>2026-04-19T09:11:19Z</time></trkpt><trkpt lat="44.38640698802731" lon="9.496907267811949"><ele>713.0</ele><time>2026-04-19T09:11:20Z</time></trkpt><trkpt lat="44.38650118280548" lon="9.496790904466234"><ele>713.0</ele><time>2026-04-19T09:11:21Z</time></trkpt><trkpt lat="44.386610557056336" lon="9.496703446766842"><ele>713.0</ele><time>2026-04-19T09:11:22Z</time></trkpt><trkpt lat="44.386723386622826" lon="9.49667377826925"><ele>713.0</ele><time>2026-04-19T09:11:23Z</time></trkpt><trkpt lat="44.38683153768182" lon="9.496698506878877"><ele>713.0</ele><time>2026-04-19T09:11:24Z</time></trkpt><trkpt lat="44.386930832911766" lon="9.496740486875012"><ele>713.0</ele><time>2026-04-19T09:11:25Z</time></trkpt><trkpt lat="44.387005891971825" lon="9.49672084381587"><ele>713.0</ele><time>2026-04-19T09:11:26Z</time></trkpt><trkpt lat="44.38705936960217" lon="9.496560142577888"><ele>713.0</ele><time>2026-04-19T09:11:27Z</time></trkpt><trkpt lat="44.38708989025674" lon="9.496351197533881"><ele>706.3333333333333</ele><time>2026-04-19T09:11:28Z</time></trkpt><trkpt lat="44.38709989418635" lon="9.496135959907939"><ele>699.6666666666666</ele><time>2026-04-19T09:11:29Z</time></trkpt><trkpt lat="44.3870953161183" lon="9.49592768573842"><ele>693.0</ele><time>2026-04-19T09:11:30Z</time></trkpt><trkpt lat="44.38710710097146" lon="9.49568274994007"><ele>693.0</ele><time>2026-04-19T09:11:31Z</time></trkpt><trkpt lat="44.38710382075083" lon="9.49547255844509"><ele>693.0</ele><time>2026-04-19T09:11:32Z</time></trkpt><trkpt lat="44.38715047324736" lon="9.495265757681766"><ele>693.0</ele><time>2026-04-19T09:11:33Z</time></trkpt><trkpt lat="44.3871985435585" lon="9.495065900971227"><ele>691.5</ele><time>2026-04-19T09:11:33.999Z</time></trkpt><trkpt lat="44.387171374530865" lon="9.494847950026971"><ele>690.0</ele><time>2026-04-19T09:11:34.999Z</time></trkpt><trkpt lat="44.38712212485839" lon="9.49467683323505"><ele>688.5</ele><time>2026-04-19T09:11:35.999Z</time></trkpt><trkpt lat="44.3870832788978" lon="9.494511144078919"><ele>687.0</ele><time>2026-04-19T09:11:36.999Z</time></trkpt><trkpt lat="44.38707252342483" lon="9.494364396304762"><ele>685.25</ele><time>2026-04-19T09:11:37.999Z</time></trkpt><trkpt lat="44.38707554010668" lon="9.49420735088663"><ele>683.5</ele><time>2026-04-19T09:11:38.999Z</time></trkpt><trkpt lat="44.38710382132697" lon="9.494048889671303"><ele>681.75</ele><time>2026-04-19T09:11:39.999Z</time></trkpt><trkpt lat="44.387165928431266" lon="9.49388276560351"><ele>680.0</ele><time>2026-04-19T09:11:40.999Z</time></trkpt><trkpt lat="44.38724939514893" lon="9.493699573205257"><ele>686.25</ele><time>2026-04-19T09:11:41.999Z</time></trkpt><trkpt lat="44.38732914203863" lon="9.49352851677512"><ele>692.5</ele><time>2026-04-19T09:11:42.999Z</time></trkpt><trkpt lat="44.387400369648226" lon="9.493391903217242"><ele>698.75</ele><time>2026-04-19T09:11:43.999Z</time></trkpt><trkpt lat="44.387486732540246" lon="9.49328419300581"><ele>705.0</ele><time>2026-04-19T09:11:44.999Z</time></trkpt><trkpt lat="44.38760081651227" lon="9.493228444124837"><ele>705.0</ele><time>2026-04-19T09:11:45.999Z</time></trkpt><trkpt lat="44.3877219704775" lon="9.493188078430359"><ele>705.0</ele><time>2026-04-19T09:11:46.999Z</time></trkpt><trkpt lat="44.38783667436146" lon="9.493169889939521"><ele>705.0</ele><time>2026-04-19T09:11:47.999Z</time></trkpt><trkpt lat="44.38794188451598" lon="9.493147681301108"><ele>705.0</ele><time>2026-04-19T09:11:48.999Z</time></trkpt><trkpt lat="44.38802074953265" lon="9.4930953656614"><ele>705.0</ele><time>2026-04-19T09:11:49.999Z</time></trkpt><trkpt lat="44.38806792437645" lon="9.492992706786247"><ele>702.75</ele><time>2026-04-19T09:11:50.999Z</time></trkpt><trkpt lat="44.388060880597074" lon="9.49285769589232"><ele>700.5</ele><time>2026-04-19T09:11:51.999Z</time></trkpt><trkpt lat="44.38800109322647" lon="9.492723171116952"><ele>698.25</ele><time>2026-04-19T09:11:52.999Z</time></trkpt><trkpt lat="44.38790896086657" lon="9.49259778328082"><ele>696.0</ele><time>2026-04-19T09:11:53.999Z</time></trkpt><trkpt lat="44.38780949095716" lon="9.492474109135374"><ele>696.0</ele><time>2026-04-19T09:11:54.999Z</time></trkpt><trkpt lat="44.387704132070425" lon="9.492309468368246"><ele>696.0</ele><time>2026-04-19T09:11:55.999Z</time></trkpt><trkpt lat="44.38761607179153" lon="9.492147989670563"><ele>696.0</ele><time>2026-04-19T09:11:56.999Z</time></trkpt><trkpt lat="44.38753570650537" lon="9.49197831145611"><ele>696.0</ele><time>2026-04-19T09:11:57.999Z</time></trkpt><trkpt lat="44.38745950568052" lon="9.491808304476791"><ele>696.5999999999999</ele><time>2026-04-19T09:11:58.999Z</time></trkpt><trkpt lat="44.38741254603747" lon="9.491662840294843"><ele>697.2</ele><time>2026-04-19T09:11:59.999Z</time></trkpt><trkpt lat="44.38740380356439" lon="9.49155886847821"><ele>697.8</ele><time>2026-04-19T09:12:00.999Z</time></trkpt><trkpt lat="44.38745919017223" lon="9.491441512874193"><ele>698.4000000000001</ele><time>2026-04-19T09:12:01.999Z</time></trkpt><trkpt lat="44.38754657812591" lon="9.491388159914848"><ele>699.0</ele><time>2026-04-19T09:12:02.999Z</time></trkpt><trkpt lat="44.387648467241036" lon="9.491352900998624"><ele>699.0</ele><time>2026-04-19T09:12:03.999Z</time></trkpt><trkpt lat="44.38775626647071" lon="9.49129932565026"><ele>699.0</ele><time>2026-04-19T09:12:04.999Z</time></trkpt><trkpt lat="44.387840126481926" lon="9.49119729021395"><ele>699.0</ele><time>2026-04-19T09:12:05.999Z</time></trkpt><trkpt lat="44.38787744372751" lon="9.491018557184507"><ele>699.0</ele><time>2026-04-19T09:12:06.999Z</time></trkpt><trkpt lat="44.38788483670977" lon="9.490836306355313"><ele>696.4000000000001</ele><time>2026-04-19T09:12:07.999Z</time></trkpt><trkpt lat="44.387923171667886" lon="9.490699771471164"><ele>693.8</ele><time>2026-04-19T09:12:08.999Z</time></trkpt><trkpt lat="44.38800347705715" lon="9.490582373697919"><ele>691.2</ele><time>2026-04-19T09:12:09.999Z</time></trkpt><trkpt lat="44.38802213597322" lon="9.490496053765217"><ele>688.5999999999999</ele><time>2026-04-19T09:12:10.999Z</time></trkpt><trkpt lat="44.387985491579244" lon="9.49035111203883"><ele>686.0</ele><time>2026-04-19T09:12:11.999Z</time></trkpt><trkpt lat="44.38790553586879" lon="9.490224667867002"><ele>685.75</ele><time>2026-04-19T09:12:12.999Z</time></trkpt><trkpt lat="44.38778564073956" lon="9.490155794291727"><ele>685.5</ele><time>2026-04-19T09:12:13.999Z</time></trkpt><trkpt lat="44.3876896658782" lon="9.490079069643738"><ele>685.25</ele><time>2026-04-19T09:12:14.999Z</time></trkpt><trkpt lat="44.387626436702945" lon="9.489946962473187"><ele>685.0</ele><time>2026-04-19T09:12:15.999Z</time></trkpt><trkpt lat="44.387596992217325" lon="9.489792757878083"><ele>685.0</ele><time>2026-04-19T09:12:16.999Z</time></trkpt><trkpt lat="44.387601654777654" lon="9.489644473983606"><ele>685.0</ele><time>2026-04-19T09:12:17.999Z</time></trkpt><trkpt lat="44.387661476252596" lon="9.48951029284501"><ele>685.0</ele><time>2026-04-19T09:12:18.999Z</time></trkpt><trkpt lat="44.38771541567986" lon="9.489339272373511"><ele>685.0</ele><time>2026-04-19T09:12:19.999Z</time></trkpt><trkpt lat="44.387772630242324" lon="9.489142493722479"><ele>686.0</ele><time>2026-04-19T09:12:20.999Z</time></trkpt><trkpt lat="44.387804079730024" lon="9.488934164069887"><ele>687.0</ele><time>2026-04-19T09:12:21.999Z</time></trkpt><trkpt lat="44.38783333823944" lon="9.488728140030723"><ele>688.0</ele><time>2026-04-19T09:12:22.999Z</time></trkpt><trkpt lat="44.38788733250846" lon="9.488519744748457"><ele>688.0</ele><time>2026-04-19T09:12:23.999Z</time></trkpt><trkpt lat="44.38794089906152" lon="9.488328253978878"><ele>688.0</ele><time>2026-04-19T09:12:24.999Z</time></trkpt><trkpt lat="44.38794209592556" lon="9.488150997566507"><ele>688.0</ele><time>2026-04-19T09:12:25.999Z</time></trkpt><trkpt lat="44.387926345700116" lon="9.487947303608191"><ele>688.0</ele><time>2026-04-19T09:12:26.999Z</time></trkpt><trkpt lat="44.38793474175517" lon="9.487791731850201"><ele>689.75</ele><time>2026-04-19T09:12:27.999Z</time></trkpt><trkpt lat="44.387998872156494" lon="9.487658087291704"><ele>691.5</ele><time>2026-04-19T09:12:28.999Z</time></trkpt><trkpt lat="44.388086472797106" lon="9.487531264860166"><ele>693.25</ele><time>2026-04-19T09:12:29.999Z</time></trkpt><trkpt lat="44.388188484314036" lon="9.487401555459078"><ele>695.0</ele><time>2026-04-19T09:12:30.999Z</time></trkpt><trkpt lat="44.388270131638734" lon="9.487285737518997"><ele>695.2</ele><time>2026-04-19T09:12:31.999Z</time></trkpt><trkpt lat="44.38834207535002" lon="9.487177913846887"><ele>695.4</ele><time>2026-04-19T09:12:32.999Z</time></trkpt><trkpt lat="44.388421092480975" lon="9.487089198837989"><ele>695.5999999999999</ele><time>2026-04-19T09:12:33.999Z</time></trkpt><trkpt lat="44.38850658301185" lon="9.486983799695482"><ele>695.8</ele><time>2026-04-19T09:12:34.999Z</time></trkpt><trkpt lat="44.38856501498613" lon="9.486879787962602"><ele>696.0</ele><time>2026-04-19T09:12:35.999Z</time></trkpt><trkpt lat="44.38858708854334" lon="9.486762901141907"><ele>696.0</ele><time>2026-04-19T09:12:36.999Z</time></trkpt><trkpt lat="44.38855964004257" lon="9.486651444815477"><ele>696.0</ele><time>2026-04-19T09:12:37.999Z</time></trkpt><trkpt lat="44.388492093910706" lon="9.486589222483813"><ele>696.0</ele><time>2026-04-19T09:12:38.999Z</time></trkpt><trkpt lat="44.388405991156596" lon="9.486563924723065"><ele>696.0</ele><time>2026-04-19T09:12:39.999Z</time></trkpt><trkpt lat="44.38828104059099" lon="9.486573654862926"><ele>696.0</ele><time>2026-04-19T09:12:40.999Z</time></trkpt><trkpt lat="44.38815881965156" lon="9.486583955891064"><ele>696.0</ele><time>2026-04-19T09:12:41.999Z</time></trkpt><trkpt lat="44.388040237323914" lon="9.486597290927627"><ele>696.0</ele><time>2026-04-19T09:12:42.999Z</time></trkpt><trkpt lat="44.38791041437339" lon="9.486602215851947"><ele>696.0</ele><time>2026-04-19T09:12:43.999Z</time></trkpt><trkpt lat="44.38779270688042" lon="9.486581924196251"><ele>696.0</ele><time>2026-04-19T09:12:44.999Z</time></trkpt><trkpt lat="44.38769730888215" lon="9.486544799951542"><ele>698.25</ele><time>2026-04-19T09:12:45.999Z</time></trkpt><trkpt lat="44.38759824127844" lon="9.486532423195829"><ele>700.5</ele><time>2026-04-19T09:12:46.999Z</time></trkpt><trkpt lat="44.38749689545813" lon="9.486586684158995"><ele>702.75</ele><time>2026-04-19T09:12:47.999Z</time></trkpt><trkpt lat="44.38742228398865" lon="9.486723027854055"><ele>705.0</ele><time>2026-04-19T09:12:48.999Z</time></trkpt><trkpt lat="44.387401409786285" lon="9.486896785529371"><ele>702.5</ele><time>2026-04-19T09:12:49.999Z</time></trkpt><trkpt lat="44.38740854307994" lon="9.487098566885084"><ele>700.0</ele><time>2026-04-19T09:12:50.999Z</time></trkpt><trkpt lat="44.38739076169697" lon="9.487293560339545"><ele>697.5</ele><time>2026-04-19T09:12:51.999Z</time></trkpt><trkpt lat="44.387328838966184" lon="9.487483155905547"><ele>695.0</ele><time>2026-04-19T09:12:52.999Z</time></trkpt><trkpt lat="44.387244589772266" lon="9.487656996917947"><ele>699.5</ele><time>2026-04-19T09:12:53.999Z</time></trkpt><trkpt lat="44.38717512023363" lon="9.487806693448185"><ele>704.0</ele><time>2026-04-19T09:12:54.999Z</time></trkpt><trkpt lat="44.38711097972646" lon="9.487948686351187"><ele>708.5</ele><time>2026-04-19T09:12:55.999Z</time></trkpt><trkpt lat="44.38704838882646" lon="9.488076696940904"><ele>713.0</ele><time>2026-04-19T09:12:57Z</time></trkpt><trkpt lat="44.38695693692857" lon="9.488172860868572"><ele>713.0</ele><time>2026-04-19T09:12:58Z</time></trkpt><trkpt lat="44.38683826840759" lon="9.488253843600697"><ele>713.0</ele><time>2026-04-19T09:12:59Z</time></trkpt><trkpt lat="44.386711827182566" lon="9.488348765305487"><ele>713.0</ele><time>2026-04-19T09:13:00Z</time></trkpt><trkpt lat="44.38660313785984" lon="9.488472100998878"><ele>713.0</ele><time>2026-04-19T09:13:01Z</time></trkpt><trkpt lat="44.38650235552949" lon="9.488622484122756"><ele>708.25</ele><time>2026-04-19T09:13:02Z</time></trkpt><trkpt lat="44.38639781745637" lon="9.488791038826811"><ele>703.5</ele><time>2026-04-19T09:13:03Z</time></trkpt><trkpt lat="44.386300713613394" lon="9.488934854059679"><ele>698.75</ele><time>2026-04-19T09:13:04Z</time></trkpt><trkpt lat="44.38622930911559" lon="9.489086642617785"><ele>694.0</ele><time>2026-04-19T09:13:05Z</time></trkpt><trkpt lat="44.38618768645731" lon="9.489251172157466"><ele>698.6</ele><time>2026-04-19T09:13:06Z</time></trkpt><trkpt lat="44.386212564019246" lon="9.489408943318663"><ele>703.2</ele><time>2026-04-19T09:13:07Z</time></trkpt><trkpt lat="44.38626651064657" lon="9.489568662757977"><ele>707.8000000000001</ele><time>2026-04-19T09:13:08Z</time></trkpt><trkpt lat="44.386294796439465" lon="9.489708098894903"><ele>712.4000000000001</ele><time>2026-04-19T09:13:09Z</time></trkpt><trkpt lat="44.386260791642336" lon="9.489823686096837"><ele>717.0</ele><time>2026-04-19T09:13:10Z</time></trkpt><trkpt lat="44.38618885889196" lon="9.489952246427059"><ele>717.0</ele><time>2026-04-19T09:13:11Z</time></trkpt><trkpt lat="44.38610721256466" lon="9.490076025710959"><ele>717.0</ele><time>2026-04-19T09:13:12Z</time></trkpt><trkpt lat="44.38599101968386" lon="9.49017761759015"><ele>717.0</ele><time>2026-04-19T09:13:13Z</time></trkpt><trkpt lat="44.38585330775068" lon="9.490251591538865"><ele>717.0</ele><time>2026-04-19T09:13:14Z</time></trkpt><trkpt lat="44.385709585513446" lon="9.490289137889663"><ele>717.0</ele><time>2026-04-19T09:13:15Z</time></trkpt><trkpt lat="44.385555781036764" lon="9.490315307106322"><ele>717.0</ele><time>2026-04-19T09:13:16Z</time></trkpt><trkpt lat="44.385392178924505" lon="9.490310001167936"><ele>717.0</ele><time>2026-04-19T09:13:17Z</time></trkpt><trkpt lat="44.38524229573239" lon="9.490275965217263"><ele>721.5</ele><time>2026-04-19T09:13:18Z</time></trkpt><trkpt lat="44.38509921455244" lon="9.490245876705247"><ele>726.0</ele><time>2026-04-19T09:13:19Z</time></trkpt><trkpt lat="44.384953414929875" lon="9.490250819311083"><ele>730.5</ele><time>2026-04-19T09:13:20Z</time></trkpt><trkpt lat="44.38481135675108" lon="9.490291068236287"><ele>735.0</ele><time>2026-04-19T09:13:21Z</time></trkpt><trkpt lat="44.3846790411273" lon="9.4903472945144"><ele>736.25</ele><time>2026-04-19T09:13:22Z</time></trkpt><trkpt lat="44.384567241535635" lon="9.490418567674004"><ele>737.5</ele><time>2026-04-19T09:13:23Z</time></trkpt><trkpt lat="44.384478515582714" lon="9.490516626785508"><ele>738.75</ele><time>2026-04-19T09:13:24Z</time></trkpt><trkpt lat="44.38441948106298" lon="9.490668876020946"><ele>740.0</ele><time>2026-04-19T09:13:25Z</time></trkpt><trkpt lat="44.38439387055895" lon="9.490857490053232"><ele>740.0</ele><time>2026-04-19T09:13:26Z</time></trkpt><trkpt lat="44.3843747887019" lon="9.491069399151456"><ele>740.0</ele><time>2026-04-19T09:13:27Z</time></trkpt><trkpt lat="44.38434530280157" lon="9.491279702765938"><ele>740.0</ele><time>2026-04-19T09:13:28Z</time></trkpt><trkpt lat="44.38431829769255" lon="9.491485918966017"><ele>738.25</ele><time>2026-04-19T09:13:29Z</time></trkpt><trkpt lat="44.3842896840544" lon="9.491688422367394"><ele>736.5</ele><time>2026-04-19T09:13:30Z</time></trkpt><trkpt lat="44.38423888566795" lon="9.49188115442475"><ele>734.75</ele><time>2026-04-19T09:13:31Z</time></trkpt><trkpt lat="44.38416967654302" lon="9.492041878280897"><ele>733.0</ele><time>2026-04-19T09:13:32Z</time></trkpt><trkpt lat="44.384089495037315" lon="9.492151739774693"><ele>732.25</ele><time>2026-04-19T09:13:33Z</time></trkpt><trkpt lat="44.38398724827567" lon="9.492230057476975"><ele>731.5</ele><time>2026-04-19T09:13:34Z</time></trkpt><trkpt lat="44.38385506998436" lon="9.492289159687013"><ele>730.75</ele><time>2026-04-19T09:13:35Z</time></trkpt><trkpt lat="44.38369760003395" lon="9.492348083418882"><ele>730.0</ele><time>2026-04-19T09:13:36Z</time></trkpt><trkpt lat="44.38354135248866" lon="9.492412744587458"><ele>730.0</ele><time>2026-04-19T09:13:37Z</time></trkpt><trkpt lat="44.38338304230728" lon="9.49245159574444"><ele>730.0</ele><time>2026-04-19T09:13:38Z</time></trkpt><trkpt lat="44.38321632308101" lon="9.49246669730981"><ele>730.0</ele><time>2026-04-19T09:13:39Z</time></trkpt><trkpt lat="44.383063276885345" lon="9.49251473740019"><ele>736.0</ele><time>2026-04-19T09:13:40Z</time></trkpt><trkpt lat="44.382947016078894" lon="9.492629679293039"><ele>742.0</ele><time>2026-04-19T09:13:41Z</time></trkpt><trkpt lat="44.38286706781182" lon="9.492769131209505"><ele>748.0</ele><time>2026-04-19T09:13:42Z</time></trkpt><trkpt lat="44.38276712447073" lon="9.492839761498935"><ele>754.0</ele><time>2026-04-19T09:13:43Z</time></trkpt><trkpt lat="44.3826469988168" lon="9.492834439301573"><ele>754.0</ele><time>2026-04-19T09:13:44Z</time></trkpt><trkpt lat="44.382535718211855" lon="9.49279576168617"><ele>754.0</ele><time>2026-04-19T09:13:45Z</time></trkpt><trkpt lat="44.38245151570456" lon="9.492784149409081"><ele>754.0</ele><time>2026-04-19T09:13:46Z</time></trkpt><trkpt lat="44.38240755604488" lon="9.492863408300057"><ele>754.0</ele><time>2026-04-19T09:13:47Z</time></trkpt><trkpt lat="44.38239955956017" lon="9.493019939427006"><ele>754.0</ele><time>2026-04-19T09:13:48Z</time></trkpt><trkpt lat="44.382432769243664" lon="9.493174663140133"><ele>749.8000000000001</ele><time>2026-04-19T09:13:49Z</time></trkpt><trkpt lat="44.38248572310402" lon="9.493322294450575"><ele>745.6</ele><time>2026-04-19T09:13:50Z</time></trkpt><trkpt lat="44.382534616235986" lon="9.493431142753769"><ele>741.4</ele><time>2026-04-19T09:13:51Z</time></trkpt><trkpt lat="44.38251012148905" lon="9.493561908782693"><ele>737.2</ele><time>2026-04-19T09:13:52Z</time></trkpt><trkpt lat="44.38245287404534" lon="9.49369967397929"><ele>733.0</ele><time>2026-04-19T09:13:53Z</time></trkpt><trkpt lat="44.3824231686373" lon="9.493885342669723"><ele>734.0</ele><time>2026-04-19T09:13:54Z</time></trkpt><trkpt lat="44.38241557374192" lon="9.494032146779857"><ele>735.0</ele><time>2026-04-19T09:13:55Z</time></trkpt><trkpt lat="44.382368913077904" lon="9.494167756878463"><ele>736.0</ele><time>2026-04-19T09:13:55.999Z</time></trkpt><trkpt lat="44.38229020053683" lon="9.494233297787238"><ele>737.0</ele><time>2026-04-19T09:13:56.999Z</time></trkpt><trkpt lat="44.3821835210882" lon="9.494235133198098"><ele>738.0</ele><time>2026-04-19T09:13:57.999Z</time></trkpt><trkpt lat="44.38207324867605" lon="9.4941685137691"><ele>738.0</ele><time>2026-04-19T09:13:58.999Z</time></trkpt><trkpt lat="44.38195907619345" lon="9.494089746462938"><ele>738.0</ele><time>2026-04-19T09:13:59.999Z</time></trkpt><trkpt lat="44.38183725737168" lon="9.494014330304074"><ele>738.0</ele><time>2026-04-19T09:14:00.999Z</time></trkpt><trkpt lat="44.38173383544945" lon="9.493904378345004"><ele>738.0</ele><time>2026-04-19T09:14:01.999Z</time></trkpt><trkpt lat="44.381646325132465" lon="9.49380834126172"><ele>738.0</ele><time>2026-04-19T09:14:02.999Z</time></trkpt><trkpt lat="44.381559684763914" lon="9.493766678913257"><ele>738.0</ele><time>2026-04-19T09:14:03.999Z</time></trkpt><trkpt lat="44.38146448768873" lon="9.493797974707553"><ele>738.0</ele><time>2026-04-19T09:14:04.999Z</time></trkpt><trkpt lat="44.381339392571704" lon="9.493871882881692"><ele>738.0</ele><time>2026-04-19T09:14:05.999Z</time></trkpt><trkpt lat="44.38121781235181" lon="9.493937118142611"><ele>741.25</ele><time>2026-04-19T09:14:06.999Z</time></trkpt><trkpt lat="44.38109715327405" lon="9.493981488310535"><ele>744.5</ele><time>2026-04-19T09:14:07.999Z</time></trkpt><trkpt lat="44.38100824078909" lon="9.494099153331621"><ele>747.75</ele><time>2026-04-19T09:14:08.999Z</time></trkpt><trkpt lat="44.380960953785625" lon="9.494246259194593"><ele>751.0</ele><time>2026-04-19T09:14:09.999Z</time></trkpt><trkpt lat="44.38094194829595" lon="9.494394835919756"><ele>751.0</ele><time>2026-04-19T09:14:10.999Z</time></trkpt><trkpt lat="44.380893195418864" lon="9.49449266538631"><ele>751.0</ele><time>2026-04-19T09:14:11.999Z</time></trkpt><trkpt lat="44.380806520906624" lon="9.494515886337162"><ele>751.0</ele><time>2026-04-19T09:14:12.999Z</time></trkpt><trkpt lat="44.380692533515024" lon="9.494500143334205"><ele>751.0</ele><time>2026-04-19T09:14:13.999Z</time></trkpt><trkpt lat="44.380580556676875" lon="9.494422096541248"><ele>751.0</ele><time>2026-04-19T09:14:14.999Z</time></trkpt><trkpt lat="44.38047417287819" lon="9.49430500467144"><ele>751.25</ele><time>2026-04-19T09:14:15.999Z</time></trkpt><trkpt lat="44.380380512964734" lon="9.494167716662831"><ele>751.5</ele><time>2026-04-19T09:14:16.999Z</time></trkpt><trkpt lat="44.38026548852605" lon="9.494065922066962"><ele>751.75</ele><time>2026-04-19T09:14:17.999Z</time></trkpt><trkpt lat="44.38013195306028" lon="9.494027403786069"><ele>752.0</ele><time>2026-04-19T09:14:18.999Z</time></trkpt><trkpt lat="44.37998425595343" lon="9.494013049649357"><ele>752.0</ele><time>2026-04-19T09:14:19.999Z</time></trkpt><trkpt lat="44.37983847909357" lon="9.494007168870532"><ele>752.0</ele><time>2026-04-19T09:14:20.999Z</time></trkpt><trkpt lat="44.379688960172594" lon="9.494027491997931"><ele>752.0</ele><time>2026-04-19T09:14:21.999Z</time></trkpt><trkpt lat="44.37955262355934" lon="9.49409142878303"><ele>752.0</ele><time>2026-04-19T09:14:22.999Z</time></trkpt><trkpt lat="44.379420912126854" lon="9.494140877390715"><ele>752.5</ele><time>2026-04-19T09:14:23.999Z</time></trkpt><trkpt lat="44.37933735897747" lon="9.494188887991617"><ele>753.0</ele><time>2026-04-19T09:14:24.999Z</time></trkpt><trkpt lat="44.379250282799504" lon="9.494247588851133"><ele>753.5</ele><time>2026-04-19T09:14:25.999Z</time></trkpt><trkpt lat="44.37925122090004" lon="9.49454861356278"><ele>754.0</ele><time>2026-04-19T09:14:26.999Z</time></trkpt><trkpt lat="44.37922656355092" lon="9.494767215406103"><ele>754.0</ele><time>2026-04-19T09:14:27.999Z</time></trkpt><trkpt lat="44.37921853423684" lon="9.494952049389719"><ele>754.0</ele><time>2026-04-19T09:14:28.999Z</time></trkpt><trkpt lat="44.37919887362769" lon="9.495126444761"><ele>754.0</ele><time>2026-04-19T09:14:29.999Z</time></trkpt><trkpt lat="44.37914333738619" lon="9.495272248678447"><ele>754.0</ele><time>2026-04-19T09:14:30.999Z</time></trkpt><trkpt lat="44.379057505372494" lon="9.49535814146898"><ele>754.0</ele><time>2026-04-19T09:14:31.999Z</time></trkpt><trkpt lat="44.378946352200145" lon="9.495410052716442"><ele>754.0</ele><time>2026-04-19T09:14:32.999Z</time></trkpt><trkpt lat="44.378817843506035" lon="9.495420434233893"><ele>754.0</ele><time>2026-04-19T09:14:33.999Z</time></trkpt><trkpt lat="44.37870596988206" lon="9.495500754375675"><ele>754.0</ele><time>2026-04-19T09:14:34.999Z</time></trkpt><trkpt lat="44.37863539190221" lon="9.495654062246048"><ele>755.25</ele><time>2026-04-19T09:14:35.999Z</time></trkpt><trkpt lat="44.378548165735296" lon="9.495807946750393"><ele>756.5</ele><time>2026-04-19T09:14:36.999Z</time></trkpt><trkpt lat="44.378462854178096" lon="9.495927959393637"><ele>757.75</ele><time>2026-04-19T09:14:37.999Z</time></trkpt><trkpt lat="44.37839148074167" lon="9.496038941317062"><ele>759.0</ele><time>2026-04-19T09:14:38.999Z</time></trkpt><trkpt lat="44.378303584165366" lon="9.496100791206718"><ele>759.0</ele><time>2026-04-19T09:14:39.999Z</time></trkpt><trkpt lat="44.378208484477256" lon="9.496079696747787"><ele>759.0</ele><time>2026-04-19T09:14:40.999Z</time></trkpt><trkpt lat="44.37813925638901" lon="9.495987930857703"><ele>759.0</ele><time>2026-04-19T09:14:41.999Z</time></trkpt><trkpt lat="44.37805607728401" lon="9.495858846604726"><ele>759.0</ele><time>2026-04-19T09:14:42.999Z</time></trkpt><trkpt lat="44.37798803346075" lon="9.495726612238114"><ele>759.0</ele><time>2026-04-19T09:14:43.999Z</time></trkpt><trkpt lat="44.37789835015523" lon="9.49558885441055"><ele>759.5</ele><time>2026-04-19T09:14:44.999Z</time></trkpt><trkpt lat="44.377771908983654" lon="9.495536218294555"><ele>760.0</ele><time>2026-04-19T09:14:45.999Z</time></trkpt><trkpt lat="44.37762110719517" lon="9.495521980041646"><ele>760.5</ele><time>2026-04-19T09:14:46.999Z</time></trkpt><trkpt lat="44.377485765344154" lon="9.495488430715849"><ele>761.0</ele><time>2026-04-19T09:14:47.999Z</time></trkpt><trkpt lat="44.37736530436394" lon="9.495413823590233"><ele>762.5</ele><time>2026-04-19T09:14:48.999Z</time></trkpt><trkpt lat="44.37724699386511" lon="9.495347597817679"><ele>764.0</ele><time>2026-04-19T09:14:49.999Z</time></trkpt><trkpt lat="44.37713518610576" lon="9.495337745080953"><ele>765.5</ele><time>2026-04-19T09:14:50.999Z</time></trkpt><trkpt lat="44.377018266058634" lon="9.495376976964678"><ele>767.0</ele><time>2026-04-19T09:14:51.999Z</time></trkpt><trkpt lat="44.3769551357184" lon="9.495523295767386"><ele>767.0</ele><time>2026-04-19T09:14:52.999Z</time></trkpt><trkpt lat="44.376894416541916" lon="9.495599576226386"><ele>767.0</ele><time>2026-04-19T09:14:53.999Z</time></trkpt><trkpt lat="44.37680117157566" lon="9.495621515372248"><ele>767.0</ele><time>2026-04-19T09:14:54.999Z</time></trkpt><trkpt lat="44.376677840709206" lon="9.49558583551153"><ele>767.0</ele><time>2026-04-19T09:14:55.999Z</time></trkpt><trkpt lat="44.37657829334625" lon="9.49550260163142"><ele>767.0</ele><time>2026-04-19T09:14:56.999Z</time></trkpt><trkpt lat="44.37647406245526" lon="9.495444759553216"><ele>767.0</ele><time>2026-04-19T09:14:57.999Z</time></trkpt><trkpt lat="44.376369031150254" lon="9.495477379930689"><ele>767.0</ele><time>2026-04-19T09:14:58.999Z</time></trkpt><trkpt lat="44.37627390414918" lon="9.49556296649045"><ele>767.0</ele><time>2026-04-19T09:14:59.999Z</time></trkpt><trkpt lat="44.37619122249815" lon="9.495696452398327"><ele>767.0</ele><time>2026-04-19T09:15:00.999Z</time></trkpt><trkpt lat="44.37610707832026" lon="9.495775166570093"><ele>767.0</ele><time>2026-04-19T09:15:01.999Z</time></trkpt><trkpt lat="44.37603556731244" lon="9.495852392216579"><ele>767.0</ele><time>2026-04-19T09:15:03Z</time></trkpt><trkpt lat="44.37595809239698" lon="9.495909938959711"><ele>767.0</ele><time>2026-04-19T09:15:04Z</time></trkpt><trkpt lat="44.37588756515366" lon="9.495883590045803"><ele>767.0</ele><time>2026-04-19T09:15:05Z</time></trkpt><trkpt lat="44.375820699127" lon="9.495816423585236"><ele>767.0</ele><time>2026-04-19T09:15:06Z</time></trkpt><trkpt lat="44.37576165901531" lon="9.495706724200387"><ele>767.0</ele><time>2026-04-19T09:15:07Z</time></trkpt><trkpt lat="44.37574773057575" lon="9.495561090292155"><ele>767.0</ele><time>2026-04-19T09:15:08Z</time></trkpt><trkpt lat="44.37574108735277" lon="9.495399725653835"><ele>771.6666666666666</ele><time>2026-04-19T09:15:09Z</time></trkpt><trkpt lat="44.375744546685404" lon="9.495239599607991"><ele>776.3333333333333</ele><time>2026-04-19T09:15:10Z</time></trkpt><trkpt lat="44.37572180776832" lon="9.495097903364409"><ele>781.0</ele><time>2026-04-19T09:15:11Z</time></trkpt><trkpt lat="44.37571198364002" lon="9.494992391276579"><ele>785.6666666666666</ele><time>2026-04-19T09:15:12Z</time></trkpt><trkpt lat="44.375673518430375" lon="9.49491018916981"><ele>790.3333333333334</ele><time>2026-04-19T09:15:13Z</time></trkpt><trkpt lat="44.3756380975839" lon="9.49481624875554"><ele>795.0</ele><time>2026-04-19T09:15:14Z</time></trkpt><trkpt lat="44.375592216727085" lon="9.494726054413544"><ele>795.0</ele><time>2026-04-19T09:15:15Z</time></trkpt><trkpt lat="44.37555480526361" lon="9.494620659625303"><ele>795.0</ele><time>2026-04-19T09:15:16Z</time></trkpt><trkpt lat="44.37547896720511" lon="9.494541597534573"><ele>795.0</ele><time>2026-04-19T09:15:17Z</time></trkpt><trkpt lat="44.37538839251682" lon="9.4944902399353"><ele>795.0</ele><time>2026-04-19T09:15:18Z</time></trkpt><trkpt lat="44.37527284720923" lon="9.494519719880259"><ele>795.0</ele><time>2026-04-19T09:15:19Z</time></trkpt><trkpt lat="44.375167351492514" lon="9.49454451212261"><ele>792.4</ele><time>2026-04-19T09:15:20Z</time></trkpt><trkpt lat="44.375061101658225" lon="9.49458297150412"><ele>789.8</ele><time>2026-04-19T09:15:21Z</time></trkpt><trkpt lat="44.37495913832572" lon="9.49460748503996"><ele>787.2</ele><time>2026-04-19T09:15:22Z</time></trkpt><trkpt lat="44.374860426613" lon="9.494610989559606"><ele>784.6</ele><time>2026-04-19T09:15:23Z</time></trkpt><trkpt lat="44.37476225568326" lon="9.494616191913016"><ele>782.0</ele><time>2026-04-19T09:15:24Z</time></trkpt><trkpt lat="44.37467208266208" lon="9.494617804720054"><ele>782.0</ele><time>2026-04-19T09:15:25Z</time></trkpt><trkpt lat="44.37456463924341" lon="9.494607674297377"><ele>782.0</ele><time>2026-04-19T09:15:26Z</time></trkpt><trkpt lat="44.37447270482966" lon="9.4945482722721"><ele>782.0</ele><time>2026-04-19T09:15:27Z</time></trkpt><trkpt lat="44.37439891929333" lon="9.49441472534607"><ele>782.0</ele><time>2026-04-19T09:15:28Z</time></trkpt><trkpt lat="44.37427221770291" lon="9.494362743454861"><ele>788.75</ele><time>2026-04-19T09:15:29Z</time></trkpt><trkpt lat="44.374139396020574" lon="9.494355120088104"><ele>795.5</ele><time>2026-04-19T09:15:30Z</time></trkpt><trkpt lat="44.37402245292214" lon="9.494325934319704"><ele>802.25</ele><time>2026-04-19T09:15:31Z</time></trkpt><trkpt lat="44.37390529444178" lon="9.49433839150439"><ele>809.0</ele><time>2026-04-19T09:15:32Z</time></trkpt><trkpt lat="44.37380718817407" lon="9.494283906581247"><ele>809.0</ele><time>2026-04-19T09:15:33Z</time></trkpt><trkpt lat="44.37372572043582" lon="9.494219167633347"><ele>809.0</ele><time>2026-04-19T09:15:34Z</time></trkpt><trkpt lat="44.37365201259864" lon="9.494126512891395"><ele>809.0</ele><time>2026-04-19T09:15:35Z</time></trkpt><trkpt lat="44.37356546455481" lon="9.494060290508063"><ele>809.0</ele><time>2026-04-19T09:15:36Z</time></trkpt><trkpt lat="44.37347432876243" lon="9.49403134521345"><ele>809.0</ele><time>2026-04-19T09:15:37Z</time></trkpt><trkpt lat="44.37336853437909" lon="9.494110864736683"><ele>809.0</ele><time>2026-04-19T09:15:38Z</time></trkpt><trkpt lat="44.37325514239511" lon="9.494120751814734"><ele>809.0</ele><time>2026-04-19T09:15:39Z</time></trkpt><trkpt lat="44.373148814547335" lon="9.494070391598823"><ele>809.0</ele><time>2026-04-19T09:15:40Z</time></trkpt><trkpt lat="44.37306284775857" lon="9.494000536437499"><ele>809.0</ele><time>2026-04-19T09:15:41Z</time></trkpt><trkpt lat="44.37300260717112" lon="9.493900550596594"><ele>809.0</ele><time>2026-04-19T09:15:42Z</time></trkpt><trkpt lat="44.37292078568484" lon="9.493802338304505"><ele>815.0</ele><time>2026-04-19T09:15:43Z</time></trkpt><trkpt lat="44.37284295919358" lon="9.493710241746859"><ele>821.0</ele><time>2026-04-19T09:15:44Z</time></trkpt><trkpt lat="44.3727528195175" lon="9.493646163435505"><ele>827.0</ele><time>2026-04-19T09:15:45Z</time></trkpt><trkpt lat="44.37260218231378" lon="9.493569825027025"><ele>833.0</ele><time>2026-04-19T09:15:46Z</time></trkpt><trkpt lat="44.372452314695934" lon="9.49351179636116"><ele>833.0</ele><time>2026-04-19T09:15:47Z</time></trkpt><trkpt lat="44.372312474108696" lon="9.49348302578943"><ele>833.0</ele><time>2026-04-19T09:15:48Z</time></trkpt><trkpt lat="44.37217393277718" lon="9.493479735693757"><ele>833.0</ele><time>2026-04-19T09:15:49Z</time></trkpt><trkpt lat="44.37205434761089" lon="9.49355803481108"><ele>833.0</ele><time>2026-04-19T09:15:50Z</time></trkpt><trkpt lat="44.37195222464702" lon="9.493680748793548"><ele>834.2</ele><time>2026-04-19T09:15:51Z</time></trkpt><trkpt lat="44.371876703275795" lon="9.493708277558751"><ele>835.4</ele><time>2026-04-19T09:15:52Z</time></trkpt><trkpt lat="44.37180477680233" lon="9.493679872960074"><ele>836.6</ele><time>2026-04-19T09:15:53Z</time></trkpt><trkpt lat="44.371725919231565" lon="9.493609669373896"><ele>837.8000000000001</ele><time>2026-04-19T09:15:54Z</time></trkpt><trkpt lat="44.37161510405785" lon="9.49356862741053"><ele>839.0</ele><time>2026-04-19T09:15:55Z</time></trkpt><trkpt lat="44.37147946256999" lon="9.49359017546649"><ele>836.75</ele><time>2026-04-19T09:15:56Z</time></trkpt><trkpt lat="44.37134143259397" lon="9.493612662636945"><ele>834.5</ele><time>2026-04-19T09:15:57Z</time></trkpt><trkpt lat="44.371221117947734" lon="9.493669548489034"><ele>832.25</ele><time>2026-04-19T09:15:58Z</time></trkpt><trkpt lat="44.37112217434611" lon="9.493775293330316"><ele>830.0</ele><time>2026-04-19T09:15:59Z</time></trkpt><trkpt lat="44.37107420440532" lon="9.493942364870474"><ele>830.0</ele><time>2026-04-19T09:16:00Z</time></trkpt><trkpt lat="44.37101086476037" lon="9.494087735400665"><ele>830.0</ele><time>2026-04-19T09:16:01Z</time></trkpt><trkpt lat="44.370934204539815" lon="9.494234094014704"><ele>830.0</ele><time>2026-04-19T09:16:02Z</time></trkpt><trkpt lat="44.37081815238238" lon="9.494281001954134"><ele>830.0</ele><time>2026-04-19T09:16:03Z</time></trkpt><trkpt lat="44.37073250503479" lon="9.494332214785537"><ele>830.0</ele><time>2026-04-19T09:16:04Z</time></trkpt><trkpt lat="44.370668988200016" lon="9.49439380848138"><ele>830.0</ele><time>2026-04-19T09:16:05Z</time></trkpt><trkpt lat="44.37059249823924" lon="9.494323638737015"><ele>830.0</ele><time>2026-04-19T09:16:06Z</time></trkpt><trkpt lat="44.3705251043615" lon="9.494207124192275"><ele>830.0</ele><time>2026-04-19T09:16:07Z</time></trkpt><trkpt lat="44.37045809368039" lon="9.494060927621254"><ele>830.0</ele><time>2026-04-19T09:16:08Z</time></trkpt><trkpt lat="44.3704139940622" lon="9.493862651453894"><ele>831.3333333333334</ele><time>2026-04-19T09:16:09Z</time></trkpt><trkpt lat="44.370363141811" lon="9.493700528195784"><ele>832.6666666666667</ele><time>2026-04-19T09:16:09.999Z</time></trkpt><trkpt lat="44.370235483980245" lon="9.493536595974774"><ele>834.0</ele><time>2026-04-19T09:16:10.999Z</time></trkpt><trkpt lat="44.370147436479634" lon="9.493347339138028"><ele>834.0</ele><time>2026-04-19T09:16:11.999Z</time></trkpt><trkpt lat="44.370053129443185" lon="9.493212114526202"><ele>834.0</ele><time>2026-04-19T09:16:12.999Z</time></trkpt><trkpt lat="44.36993098846455" lon="9.493147426123084"><ele>834.0</ele><time>2026-04-19T09:16:13.999Z</time></trkpt><trkpt lat="44.36986195138829" lon="9.49305033152699"><ele>834.0</ele><time>2026-04-19T09:16:14.999Z</time></trkpt><trkpt lat="44.369858069259045" lon="9.492897333499696"><ele>840.5</ele><time>2026-04-19T09:16:15.999Z</time></trkpt><trkpt lat="44.369872835988545" lon="9.492718239334195"><ele>847.0</ele><time>2026-04-19T09:16:16.999Z</time></trkpt><trkpt lat="44.369862717487536" lon="9.492529881772873"><ele>853.5</ele><time>2026-04-19T09:16:17.999Z</time></trkpt><trkpt lat="44.36983454663059" lon="9.492392134918841"><ele>860.0</ele><time>2026-04-19T09:16:18.999Z</time></trkpt><trkpt lat="44.369723628384605" lon="9.492342149667307"><ele>859.2</ele><time>2026-04-19T09:16:19.999Z</time></trkpt><trkpt lat="44.36964144625406" lon="9.492358682233851"><ele>858.4</ele><time>2026-04-19T09:16:20.999Z</time></trkpt><trkpt lat="44.369560004869186" lon="9.492322107430779"><ele>857.5999999999999</ele><time>2026-04-19T09:16:21.999Z</time></trkpt><trkpt lat="44.36945011820097" lon="9.492214801334518"><ele>856.8</ele><time>2026-04-19T09:16:22.999Z</time></trkpt><trkpt lat="44.369384922629" lon="9.492070791112155"><ele>856.0</ele><time>2026-04-19T09:16:23.999Z</time></trkpt><trkpt lat="44.36931956480115" lon="9.491871038158482"><ele>856.0</ele><time>2026-04-19T09:16:24.999Z</time></trkpt><trkpt lat="44.36929476947386" lon="9.491702928555641"><ele>855.9999999999999</ele><time>2026-04-19T09:16:25.999Z</time></trkpt><trkpt lat="44.36927552949059" lon="9.491559745615659"><ele>855.9999999999999</ele><time>2026-04-19T09:16:26.999Z</time></trkpt><trkpt lat="44.36918610639894" lon="9.491499083903003"><ele>856.0</ele><time>2026-04-19T09:16:27.999Z</time></trkpt><trkpt lat="44.369105921266765" lon="9.4914902114116"><ele>856.0</ele><time>2026-04-19T09:16:28.999Z</time></trkpt><trkpt lat="44.36898060149772" lon="9.491495918067994"><ele>856.75</ele><time>2026-04-19T09:16:29.999Z</time></trkpt><trkpt lat="44.36882648499984" lon="9.491454366803842"><ele>857.5</ele><time>2026-04-19T09:16:30.999Z</time></trkpt><trkpt lat="44.36869605070266" lon="9.491439658544964"><ele>858.25</ele><time>2026-04-19T09:16:31.999Z</time></trkpt><trkpt lat="44.368573486642134" lon="9.491502136229293"><ele>859.0</ele><time>2026-04-19T09:16:32.999Z</time></trkpt><trkpt lat="44.368446807483934" lon="9.49158881342337"><ele>859.0</ele><time>2026-04-19T09:16:33.999Z</time></trkpt><trkpt lat="44.368348756066965" lon="9.491728678583232"><ele>859.0</ele><time>2026-04-19T09:16:34.999Z</time></trkpt><trkpt lat="44.36826443683784" lon="9.491860530055407"><ele>859.0</ele><time>2026-04-19T09:16:35.999Z</time></trkpt><trkpt lat="44.36817366014669" lon="9.491953520845453"><ele>859.0</ele><time>2026-04-19T09:16:36.999Z</time></trkpt><trkpt lat="44.3680885901918" lon="9.491975036573958"><ele>859.8000000000001</ele><time>2026-04-19T09:16:37.999Z</time></trkpt><trkpt lat="44.36798047181027" lon="9.492002282062392"><ele>860.6000000000001</ele><time>2026-04-19T09:16:38.999Z</time></trkpt><trkpt lat="44.367882343267446" lon="9.492020749361856"><ele>861.4</ele><time>2026-04-19T09:16:39.999Z</time></trkpt><trkpt lat="44.36781681234251" lon="9.492017113543682"><ele>862.2</ele><time>2026-04-19T09:16:40.999Z</time></trkpt><trkpt lat="44.36776346141461" lon="9.491857564113436"><ele>863.0</ele><time>2026-04-19T09:16:41.999Z</time></trkpt><trkpt lat="44.36767269245613" lon="9.49171817866911"><ele>863.0</ele><time>2026-04-19T09:16:42.999Z</time></trkpt><trkpt lat="44.36756465212588" lon="9.49157336156002"><ele>863.0</ele><time>2026-04-19T09:16:43.999Z</time></trkpt><trkpt lat="44.3674354961022" lon="9.491423829840137"><ele>863.0</ele><time>2026-04-19T09:16:44.999Z</time></trkpt><trkpt lat="44.367311775764264" lon="9.491277110175972"><ele>865.75</ele><time>2026-04-19T09:16:45.999Z</time></trkpt><trkpt lat="44.367191031933274" lon="9.49112380842849"><ele>868.5</ele><time>2026-04-19T09:16:46.999Z</time></trkpt><trkpt lat="44.367077409778595" lon="9.491004341201425"><ele>871.25</ele><time>2026-04-19T09:16:47.999Z</time></trkpt><trkpt lat="44.36697419631854" lon="9.490873065500777"><ele>874.0</ele><time>2026-04-19T09:16:48.999Z</time></trkpt><trkpt lat="44.366856861429106" lon="9.490752789858695"><ele>874.0</ele><time>2026-04-19T09:16:49.999Z</time></trkpt><trkpt lat="44.36672692051923" lon="9.490647993718428"><ele>874.0</ele><time>2026-04-19T09:16:50.999Z</time></trkpt><trkpt lat="44.36659514842874" lon="9.490547162264843"><ele>874.0</ele><time>2026-04-19T09:16:51.999Z</time></trkpt><trkpt lat="44.36646443854022" lon="9.49044810323413"><ele>874.0</ele><time>2026-04-19T09:16:52.999Z</time></trkpt><trkpt lat="44.36633296639075" lon="9.490367263931697"><ele>878.25</ele><time>2026-04-19T09:16:53.999Z</time></trkpt><trkpt lat="44.36620940999092" lon="9.490303339331005"><ele>882.5</ele><time>2026-04-19T09:16:54.999Z</time></trkpt><trkpt lat="44.366112189620615" lon="9.490211786540508"><ele>886.75</ele><time>2026-04-19T09:16:55.999Z</time></trkpt><trkpt lat="44.36600606408244" lon="9.490139186135334"><ele>891.0</ele><time>2026-04-19T09:16:56.999Z</time></trkpt><trkpt lat="44.36587972814041" lon="9.490092405632968"><ele>891.0</ele><time>2026-04-19T09:16:57.999Z</time></trkpt><trkpt lat="44.36575028555029" lon="9.490047977867485"><ele>890.9999999999999</ele><time>2026-04-19T09:16:58.999Z</time></trkpt><trkpt lat="44.36562970801417" lon="9.490043817872095"><ele>890.9999999999999</ele><time>2026-04-19T09:16:59.999Z</time></trkpt><trkpt lat="44.365531826872036" lon="9.490019493510633"><ele>891.0</ele><time>2026-04-19T09:17:00.999Z</time></trkpt><trkpt lat="44.365448528829326" lon="9.48999559283918"><ele>891.0</ele><time>2026-04-19T09:17:01.999Z</time></trkpt><trkpt lat="44.36540725438802" lon="9.48988344455563"><ele>891.0</ele><time>2026-04-19T09:17:02.999Z</time></trkpt><trkpt lat="44.36541029683971" lon="9.489756509000594"><ele>890.9999999999999</ele><time>2026-04-19T09:17:03.999Z</time></trkpt><trkpt lat="44.36538803867881" lon="9.48962332976475"><ele>890.9999999999999</ele><time>2026-04-19T09:17:04.999Z</time></trkpt><trkpt lat="44.36535020949326" lon="9.489498510406854"><ele>891.0</ele><time>2026-04-19T09:17:05.999Z</time></trkpt><trkpt lat="44.36530920599837" lon="9.48937549948194"><ele>891.0</ele><time>2026-04-19T09:17:06.999Z</time></trkpt><trkpt lat="44.365250969208276" lon="9.48924853327692"><ele>891.0</ele><time>2026-04-19T09:17:07.999Z</time></trkpt><trkpt lat="44.36520090386504" lon="9.489090000809261"><ele>891.0</ele><time>2026-04-19T09:17:09Z</time></trkpt><trkpt lat="44.365128141298406" lon="9.488939533320858"><ele>891.0</ele><time>2026-04-19T09:17:10Z</time></trkpt><trkpt lat="44.36505460422285" lon="9.488761371076063"><ele>891.0</ele><time>2026-04-19T09:17:11Z</time></trkpt><trkpt lat="44.364980272033876" lon="9.488557166821005"><ele>888.6666666666667</ele><time>2026-04-19T09:17:12Z</time></trkpt><trkpt lat="44.364900707815075" lon="9.488371390201193"><ele>886.3333333333334</ele><time>2026-04-19T09:17:13Z</time></trkpt><trkpt lat="44.364807679788655" lon="9.488217372620001"><ele>884.0</ele><time>2026-04-19T09:17:14Z</time></trkpt><trkpt lat="44.364675478760915" lon="9.488082670857189"><ele>883.0</ele><time>2026-04-19T09:17:15Z</time></trkpt><trkpt lat="44.364543328234085" lon="9.48797167794811"><ele>882.0</ele><time>2026-04-19T09:17:16Z</time></trkpt><trkpt lat="44.36443914426222" lon="9.487800114452877"><ele>881.0</ele><time>2026-04-19T09:17:17Z</time></trkpt><trkpt lat="44.36433928227087" lon="9.487608987202718"><ele>881.0</ele><time>2026-04-19T09:17:18Z</time></trkpt><trkpt lat="44.36423747322753" lon="9.487415363847658"><ele>881.0</ele><time>2026-04-19T09:17:19Z</time></trkpt><trkpt lat="44.36414070608425" lon="9.487232178916482"><ele>881.0</ele><time>2026-04-19T09:17:20Z</time></trkpt><trkpt lat="44.36407547903149" lon="9.487021845206177"><ele>876.0</ele><time>2026-04-19T09:17:21Z</time></trkpt><trkpt lat="44.3640661637913" lon="9.486788211384265"><ele>871.0</ele><time>2026-04-19T09:17:22Z</time></trkpt><trkpt lat="44.36405510530419" lon="9.48656174745687"><ele>866.0</ele><time>2026-04-19T09:17:23Z</time></trkpt><trkpt lat="44.36403468518569" lon="9.486353050233191"><ele>867.75</ele><time>2026-04-19T09:17:24Z</time></trkpt><trkpt lat="44.36402995238279" lon="9.486194121570518"><ele>869.5</ele><time>2026-04-19T09:17:25Z</time></trkpt><trkpt lat="44.36400234318075" lon="9.48602928930864"><ele>871.25</ele><time>2026-04-19T09:17:26Z</time></trkpt><trkpt lat="44.363920388818435" lon="9.48586443355181"><ele>873.0</ele><time>2026-04-19T09:17:27Z</time></trkpt><trkpt lat="44.36382394852883" lon="9.485699673140541"><ele>873.0</ele><time>2026-04-19T09:17:28Z</time></trkpt><trkpt lat="44.36373681782897" lon="9.485545921501515"><ele>873.0</ele><time>2026-04-19T09:17:29Z</time></trkpt><trkpt lat="44.363701258809094" lon="9.48535873485831"><ele>873.0</ele><time>2026-04-19T09:17:30Z</time></trkpt><trkpt lat="44.3636643674395" lon="9.485149618057001"><ele>873.0</ele><time>2026-04-19T09:17:31Z</time></trkpt><trkpt lat="44.363640872368165" lon="9.48489900062785"><ele>871.0</ele><time>2026-04-19T09:17:32Z</time></trkpt><trkpt lat="44.36361331222855" lon="9.484645764158806"><ele>869.0</ele><time>2026-04-19T09:17:33Z</time></trkpt><trkpt lat="44.363568334726594" lon="9.484393470287307"><ele>867.0</ele><time>2026-04-19T09:17:34Z</time></trkpt><trkpt lat="44.36354703341876" lon="9.484160025465453"><ele>865.6666666666667</ele><time>2026-04-19T09:17:35Z</time></trkpt><trkpt lat="44.36353164439986" lon="9.483925569756616"><ele>864.3333333333334</ele><time>2026-04-19T09:17:36Z</time></trkpt><trkpt lat="44.36356871972957" lon="9.483699752000573"><ele>863.0</ele><time>2026-04-19T09:17:37Z</time></trkpt><trkpt lat="44.36357994112647" lon="9.48345277253511"><ele>860.6666666666667</ele><time>2026-04-19T09:17:38Z</time></trkpt><trkpt lat="44.36356876446433" lon="9.483232983622713"><ele>858.3333333333333</ele><time>2026-04-19T09:17:39Z</time></trkpt><trkpt lat="44.363533234534174" lon="9.48301288744116"><ele>856.0</ele><time>2026-04-19T09:17:40Z</time></trkpt><trkpt lat="44.36349117899162" lon="9.482781555897962"><ele>852.0</ele><time>2026-04-19T09:17:41Z</time></trkpt><trkpt lat="44.36343015377305" lon="9.482552889040173"><ele>848.0</ele><time>2026-04-19T09:17:42Z</time></trkpt><trkpt lat="44.363373075329896" lon="9.482306161453348"><ele>844.0</ele><time>2026-04-19T09:17:43Z</time></trkpt><trkpt lat="44.36330374071588" lon="9.482064262023476"><ele>842.3333333333333</ele><time>2026-04-19T09:17:44Z</time></trkpt><trkpt lat="44.363224986575666" lon="9.48182444045879"><ele>840.6666666666667</ele><time>2026-04-19T09:17:45Z</time></trkpt><trkpt lat="44.36317422134966" lon="9.48156731367763"><ele>839.0</ele><time>2026-04-19T09:17:46Z</time></trkpt><trkpt lat="44.3631549951228" lon="9.481303899281137"><ele>836.6666666666667</ele><time>2026-04-19T09:17:47Z</time></trkpt><trkpt lat="44.363114614270636" lon="9.48105698433546"><ele>834.3333333333333</ele><time>2026-04-19T09:17:48Z</time></trkpt><trkpt lat="44.36309335004955" lon="9.48083577556435"><ele>832.0</ele><time>2026-04-19T09:17:49Z</time></trkpt><trkpt lat="44.36307118346279" lon="9.480652084386449"><ele>832.0</ele><time>2026-04-19T09:17:50Z</time></trkpt><trkpt lat="44.36306972655366" lon="9.48048395756778"><ele>832.0</ele><time>2026-04-19T09:17:51Z</time></trkpt><trkpt lat="44.36305397230599" lon="9.480336193702328"><ele>832.0</ele><time>2026-04-19T09:17:52Z</time></trkpt><trkpt lat="44.36302960155369" lon="9.480216788240996"><ele>832.0</ele><time>2026-04-19T09:17:53Z</time></trkpt><trkpt lat="44.36302823320917" lon="9.48010267800991"><ele>832.0</ele><time>2026-04-19T09:17:54Z</time></trkpt><trkpt lat="44.363028520342034" lon="9.47998631308577"><ele>831.9999999999999</ele><time>2026-04-19T09:17:55Z</time></trkpt><trkpt lat="44.36302723523477" lon="9.479873186742116"><ele>832.0</ele><time>2026-04-19T09:17:56Z</time></trkpt><trkpt lat="44.36302637442934" lon="9.4797819763835"><ele>832.0</ele><time>2026-04-19T09:17:57Z</time></trkpt><trkpt lat="44.363041282472906" lon="9.479623921055836"><ele>832.0</ele><time>2026-04-19T09:17:59Z</time></trkpt><trkpt lat="44.36305641609638" lon="9.4795278492619"><ele>831.9999999999999</ele><time>2026-04-19T09:18:00Z</time></trkpt><trkpt lat="44.36309302329954" lon="9.479395992904616"><ele>832.0</ele><time>2026-04-19T09:18:02Z</time></trkpt><trkpt lat="44.36312899704349" lon="9.479285551525102"><ele>832.0</ele><time>2026-04-19T09:18:05Z</time></trkpt><trkpt lat="44.36314120986198" lon="9.479164570136975"><ele>832.0</ele><time>2026-04-19T09:20:23.999Z</time></trkpt><trkpt lat="44.36314827959362" lon="9.479065947342521"><ele>832.0</ele><time>2026-04-19T09:20:24.999Z</time></trkpt><trkpt lat="44.36317988996744" lon="9.478961454078842"><ele>832.0</ele><time>2026-04-19T09:20:25.999Z</time></trkpt><trkpt lat="44.363246040421586" lon="9.478851423806995"><ele>832.0</ele><time>2026-04-19T09:20:26.999Z</time></trkpt><trkpt lat="44.36331724078611" lon="9.478720538976685"><ele>829.25</ele><time>2026-04-19T09:20:27.999Z</time></trkpt><trkpt lat="44.36340072165597" lon="9.478572483827836"><ele>826.5</ele><time>2026-04-19T09:20:28.999Z</time></trkpt><trkpt lat="44.363487349069395" lon="9.478431964819828"><ele>823.75</ele><time>2026-04-19T09:20:29.999Z</time></trkpt><trkpt lat="44.363581481728744" lon="9.478299300772713"><ele>821.0</ele><time>2026-04-19T09:20:30.999Z</time></trkpt><trkpt lat="44.363677393622496" lon="9.478168312057974"><ele>821.0</ele><time>2026-04-19T09:20:31.999Z</time></trkpt><trkpt lat="44.36377417221907" lon="9.478041111163412"><ele>821.0</ele><time>2026-04-19T09:20:32.999Z</time></trkpt><trkpt lat="44.36385434736257" lon="9.47791711837303"><ele>821.0</ele><time>2026-04-19T09:20:33.999Z</time></trkpt><trkpt lat="44.36388940121362" lon="9.477735850457716"><ele>821.0</ele><time>2026-04-19T09:20:34.999Z</time></trkpt><trkpt lat="44.3639149727435" lon="9.47753486963708"><ele>822.25</ele><time>2026-04-19T09:20:35.999Z</time></trkpt><trkpt lat="44.36393828420696" lon="9.477353721754675"><ele>823.5</ele><time>2026-04-19T09:20:36.999Z</time></trkpt><trkpt lat="44.363998246205874" lon="9.477186502806466"><ele>824.75</ele><time>2026-04-19T09:20:37.999Z</time></trkpt><trkpt lat="44.3640594891739" lon="9.477024423580838"><ele>826.0</ele><time>2026-04-19T09:20:38.999Z</time></trkpt><trkpt lat="44.364133430210025" lon="9.476879631770043"><ele>820.25</ele><time>2026-04-19T09:20:39.999Z</time></trkpt><trkpt lat="44.364216549095914" lon="9.476754442384445"><ele>814.5</ele><time>2026-04-19T09:20:40.999Z</time></trkpt><trkpt lat="44.364329574876706" lon="9.476665767256204"><ele>808.75</ele><time>2026-04-19T09:20:41.999Z</time></trkpt><trkpt lat="44.364453129520015" lon="9.476570619321656"><ele>803.0</ele><time>2026-04-19T09:20:42.999Z</time></trkpt><trkpt lat="44.36456986620747" lon="9.476464107656163"><ele>803.0</ele><time>2026-04-19T09:20:43.999Z</time></trkpt><trkpt lat="44.36468059632616" lon="9.476354151994384"><ele>803.0</ele><time>2026-04-19T09:20:44.999Z</time></trkpt><trkpt lat="44.36478216340507" lon="9.476251491405966"><ele>803.0</ele><time>2026-04-19T09:20:45.999Z</time></trkpt><trkpt lat="44.36490652064828" lon="9.476202652143513"><ele>803.0</ele><time>2026-04-19T09:20:46.999Z</time></trkpt><trkpt lat="44.36501368407026" lon="9.476091484494436"><ele>801.3333333333334</ele><time>2026-04-19T09:20:47.999Z</time></trkpt><trkpt lat="44.36512972806203" lon="9.475954014738944"><ele>799.6666666666667</ele><time>2026-04-19T09:20:48.999Z</time></trkpt><trkpt lat="44.36524994746795" lon="9.475779826997567"><ele>798.0</ele><time>2026-04-19T09:20:49.999Z</time></trkpt><trkpt lat="44.365391300154805" lon="9.475621911034084"><ele>798.0</ele><time>2026-04-19T09:20:50.999Z</time></trkpt><trkpt lat="44.36552304696694" lon="9.475458914816839"><ele>798.0</ele><time>2026-04-19T09:20:51.999Z</time></trkpt><trkpt lat="44.36562243165083" lon="9.475302780918545"><ele>798.0</ele><time>2026-04-19T09:20:52.999Z</time></trkpt><trkpt lat="44.36573838562941" lon="9.475203215916414"><ele>796.0</ele><time>2026-04-19T09:20:53.999Z</time></trkpt><trkpt lat="44.365848510924806" lon="9.475117113083439"><ele>794.0</ele><time>2026-04-19T09:20:54.999Z</time></trkpt><trkpt lat="44.365966542509476" lon="9.475049580963688"><ele>792.0</ele><time>2026-04-19T09:20:55.999Z</time></trkpt><trkpt lat="44.36609060626085" lon="9.474999083209621"><ele>790.0</ele><time>2026-04-19T09:20:56.999Z</time></trkpt><trkpt lat="44.366226716637634" lon="9.474956423608717"><ele>791.0</ele><time>2026-04-19T09:20:57.999Z</time></trkpt><trkpt lat="44.36636978778359" lon="9.474937507507732"><ele>792.0</ele><time>2026-04-19T09:20:58.999Z</time></trkpt><trkpt lat="44.36650633987069" lon="9.474882377509234"><ele>793.0</ele><time>2026-04-19T09:20:59.999Z</time></trkpt><trkpt lat="44.36664287050619" lon="9.474780285102895"><ele>794.0</ele><time>2026-04-19T09:21:00.999Z</time></trkpt><trkpt lat="44.36678293396955" lon="9.474660510021012"><ele>791.25</ele><time>2026-04-19T09:21:01.999Z</time></trkpt><trkpt lat="44.36691818897608" lon="9.474588248025329"><ele>788.5</ele><time>2026-04-19T09:21:02.999Z</time></trkpt><trkpt lat="44.36703366566704" lon="9.474502126713237"><ele>785.75</ele><time>2026-04-19T09:21:03.999Z</time></trkpt><trkpt lat="44.36714689884845" lon="9.474427036317378"><ele>783.0</ele><time>2026-04-19T09:21:04.999Z</time></trkpt><trkpt lat="44.367265057083934" lon="9.474353486133216"><ele>783.0</ele><time>2026-04-19T09:21:05.999Z</time></trkpt><trkpt lat="44.36737361376006" lon="9.474290331751066"><ele>783.0</ele><time>2026-04-19T09:21:06.999Z</time></trkpt><trkpt lat="44.36745282678138" lon="9.474219352887152"><ele>783.0</ele><time>2026-04-19T09:21:07.999Z</time></trkpt><trkpt lat="44.36751973596055" lon="9.474136407816722"><ele>783.0</ele><time>2026-04-19T09:21:08.999Z</time></trkpt><trkpt lat="44.36753594641887" lon="9.474037476255806"><ele>783.0</ele><time>2026-04-19T09:21:09.999Z</time></trkpt><trkpt lat="44.367508486686" lon="9.473924516844052"><ele>783.0</ele><time>2026-04-19T09:21:10.999Z</time></trkpt><trkpt lat="44.36743423620741" lon="9.473874825011514"><ele>783.0</ele><time>2026-04-19T09:21:11.999Z</time></trkpt><trkpt lat="44.367340197862625" lon="9.47386752455972"><ele>783.0</ele><time>2026-04-19T09:21:12.999Z</time></trkpt><trkpt lat="44.36721251514584" lon="9.47385017862308"><ele>783.0</ele><time>2026-04-19T09:21:13.999Z</time></trkpt><trkpt lat="44.367078459512" lon="9.473803764347549"><ele>783.0</ele><time>2026-04-19T09:21:14.999Z</time></trkpt><trkpt lat="44.366946345005715" lon="9.473758427801776"><ele>781.8</ele><time>2026-04-19T09:21:15.999Z</time></trkpt><trkpt lat="44.36682831993558" lon="9.473739796324073"><ele>780.5999999999999</ele><time>2026-04-19T09:21:16.999Z</time></trkpt><trkpt lat="44.3667250612284" lon="9.473805116822362"><ele>779.4000000000001</ele><time>2026-04-19T09:21:17.999Z</time></trkpt><trkpt lat="44.366647558160786" lon="9.473865348965445"><ele>778.2</ele><time>2026-04-19T09:21:18.999Z</time></trkpt><trkpt lat="44.36653613244188" lon="9.473791270789214"><ele>777.0</ele><time>2026-04-19T09:21:22Z</time></trkpt><trkpt lat="44.36653328359528" lon="9.473680480436316"><ele>771.75</ele><time>2026-04-19T09:21:23Z</time></trkpt><trkpt lat="44.36659413254851" lon="9.47360352057227"><ele>766.5</ele><time>2026-04-19T09:21:24Z</time></trkpt><trkpt lat="44.36671461055158" lon="9.473581603022884"><ele>761.25</ele><time>2026-04-19T09:21:25Z</time></trkpt><trkpt lat="44.36684531635047" lon="9.47351617144692"><ele>756.0</ele><time>2026-04-19T09:21:26Z</time></trkpt><trkpt lat="44.366959076269836" lon="9.473421088735998"><ele>756.0</ele><time>2026-04-19T09:21:27Z</time></trkpt><trkpt lat="44.36709055407137" lon="9.473310534216914"><ele>756.0</ele><time>2026-04-19T09:21:28Z</time></trkpt><trkpt lat="44.36721582137829" lon="9.473231115328884"><ele>756.0</ele><time>2026-04-19T09:21:29Z</time></trkpt><trkpt lat="44.36734490668864" lon="9.473158624532143"><ele>756.0</ele><time>2026-04-19T09:21:30Z</time></trkpt><trkpt lat="44.367465003530924" lon="9.473062132029511"><ele>754.8</ele><time>2026-04-19T09:21:31Z</time></trkpt><trkpt lat="44.3675689551542" lon="9.472943717848704"><ele>753.5999999999999</ele><time>2026-04-19T09:21:32Z</time></trkpt><trkpt lat="44.367645423830204" lon="9.472789601344044"><ele>752.4</ele><time>2026-04-19T09:21:33Z</time></trkpt><trkpt lat="44.367692130032346" lon="9.47267783787589"><ele>751.2</ele><time>2026-04-19T09:21:34Z</time></trkpt><trkpt lat="44.36772833612288" lon="9.472586207926907"><ele>750.0</ele><time>2026-04-19T09:21:35Z</time></trkpt><trkpt lat="44.36774474739675" lon="9.472456656789333"><ele>750.0</ele><time>2026-04-19T09:21:36Z</time></trkpt><trkpt lat="44.36768680041978" lon="9.472406984209604"><ele>750.0</ele><time>2026-04-19T09:21:37Z</time></trkpt><trkpt lat="44.367610820349846" lon="9.472427242621968"><ele>750.0</ele><time>2026-04-19T09:21:38Z</time></trkpt><trkpt lat="44.367567936885564" lon="9.47250985687566"><ele>750.0</ele><time>2026-04-19T09:21:39Z</time></trkpt><trkpt lat="44.36753267800619" lon="9.472655776425391"><ele>750.0</ele><time>2026-04-19T09:21:40Z</time></trkpt><trkpt lat="44.367453908056326" lon="9.472747510116019"><ele>750.0</ele><time>2026-04-19T09:21:41Z</time></trkpt><trkpt lat="44.36733098052389" lon="9.47279756171455"><ele>750.0</ele><time>2026-04-19T09:21:42Z</time></trkpt><trkpt lat="44.36719875860803" lon="9.472820430727891"><ele>750.0</ele><time>2026-04-19T09:21:43Z</time></trkpt><trkpt lat="44.36705679155599" lon="9.472840092439341"><ele>750.0</ele><time>2026-04-19T09:21:44Z</time></trkpt><trkpt lat="44.36692707345005" lon="9.472909758496115"><ele>750.0</ele><time>2026-04-19T09:21:45Z</time></trkpt><trkpt lat="44.36680904530092" lon="9.473014275112082"><ele>751.5</ele><time>2026-04-19T09:21:46Z</time></trkpt><trkpt lat="44.36668295585235" lon="9.47307776072516"><ele>753.0</ele><time>2026-04-19T09:21:47Z</time></trkpt><trkpt lat="44.366561155094885" lon="9.473158779112927"><ele>754.5</ele><time>2026-04-19T09:21:48Z</time></trkpt><trkpt lat="44.36644729498011" lon="9.47324301318658"><ele>756.0</ele><time>2026-04-19T09:21:49Z</time></trkpt><trkpt lat="44.36635605087606" lon="9.473326969860846"><ele>756.0</ele><time>2026-04-19T09:21:50Z</time></trkpt><trkpt lat="44.3662800586597" lon="9.473395138192885"><ele>756.0</ele><time>2026-04-19T09:21:51Z</time></trkpt><trkpt lat="44.366190081545575" lon="9.473419117732448"><ele>756.0</ele><time>2026-04-19T09:21:53Z</time></trkpt><trkpt lat="44.366187783807256" lon="9.473328378230107"><ele>756.0</ele><time>2026-04-19T09:21:54Z</time></trkpt><trkpt lat="44.36626763298223" lon="9.473234173584096"><ele>756.0</ele><time>2026-04-19T09:21:55Z</time></trkpt><trkpt lat="44.366376640228566" lon="9.473169458453711"><ele>756.0</ele><time>2026-04-19T09:21:56Z</time></trkpt><trkpt lat="44.366459626877244" lon="9.473087478629072"><ele>756.0</ele><time>2026-04-19T09:21:57Z</time></trkpt><trkpt lat="44.36654690015167" lon="9.472968736000045"><ele>756.0</ele><time>2026-04-19T09:21:58Z</time></trkpt><trkpt lat="44.36666431864916" lon="9.472839748966654"><ele>756.0</ele><time>2026-04-19T09:21:59Z</time></trkpt><trkpt lat="44.36677388071309" lon="9.472705938575624"><ele>749.25</ele><time>2026-04-19T09:22:00Z</time></trkpt><trkpt lat="44.36687789576078" lon="9.472563282704888"><ele>742.5</ele><time>2026-04-19T09:22:01Z</time></trkpt><trkpt lat="44.36698303093505" lon="9.472423895587417"><ele>735.75</ele><time>2026-04-19T09:22:02Z</time></trkpt><trkpt lat="44.367071696434344" lon="9.472278503545237"><ele>729.0</ele><time>2026-04-19T09:22:03Z</time></trkpt><trkpt lat="44.367142716658435" lon="9.472147136254156"><ele>727.75</ele><time>2026-04-19T09:22:04Z</time></trkpt><trkpt lat="44.367262454804305" lon="9.472049030831931"><ele>726.5</ele><time>2026-04-19T09:22:05Z</time></trkpt><trkpt lat="44.36738806216419" lon="9.471977218038072"><ele>725.25</ele><time>2026-04-19T09:22:06Z</time></trkpt><trkpt lat="44.36750450219102" lon="9.47188612042455"><ele>724.0</ele><time>2026-04-19T09:22:07Z</time></trkpt><trkpt lat="44.36764506329018" lon="9.471794924546822"><ele>724.0</ele><time>2026-04-19T09:22:08Z</time></trkpt><trkpt lat="44.36775942419341" lon="9.471656942993624"><ele>724.0</ele><time>2026-04-19T09:22:09Z</time></trkpt><trkpt lat="44.36784294024627" lon="9.471480070947829"><ele>724.0</ele><time>2026-04-19T09:22:10Z</time></trkpt><trkpt lat="44.36789043130006" lon="9.471279821691695"><ele>724.25</ele><time>2026-04-19T09:22:11Z</time></trkpt><trkpt lat="44.3679095597052" lon="9.471086374317636"><ele>724.5</ele><time>2026-04-19T09:22:12Z</time></trkpt><trkpt lat="44.36795547124119" lon="9.470894117940025"><ele>724.75</ele><time>2026-04-19T09:22:13Z</time></trkpt><trkpt lat="44.36799067110523" lon="9.47073108031327"><ele>725.0</ele><time>2026-04-19T09:22:14Z</time></trkpt><trkpt lat="44.36804637594158" lon="9.470553058979675"><ele>721.6666666666666</ele><time>2026-04-19T09:22:15Z</time></trkpt><trkpt lat="44.36808646889729" lon="9.470423708194893"><ele>718.3333333333333</ele><time>2026-04-19T09:22:16Z</time></trkpt><trkpt lat="44.36814567969007" lon="9.470317839617872"><ele>715.0</ele><time>2026-04-19T09:22:17Z</time></trkpt><trkpt lat="44.36818964416892" lon="9.470230375544787"><ele>711.6666666666666</ele><time>2026-04-19T09:22:18Z</time></trkpt><trkpt lat="44.36825980943582" lon="9.4702143262367"><ele>708.3333333333334</ele><time>2026-04-19T09:22:19Z</time></trkpt><trkpt lat="44.36832153125603" lon="9.47026548471632"><ele>705.0</ele><time>2026-04-19T09:22:20Z</time></trkpt><trkpt lat="44.368382721791875" lon="9.470304912092255"><ele>705.0</ele><time>2026-04-19T09:22:21Z</time></trkpt><trkpt lat="44.36850804719497" lon="9.470302521483486"><ele>705.0</ele><time>2026-04-19T09:22:23Z</time></trkpt><trkpt lat="44.36857359254786" lon="9.47023916556055"><ele>705.0</ele><time>2026-04-19T09:22:24Z</time></trkpt><trkpt lat="44.368612155402694" lon="9.470149740853847"><ele>705.0</ele><time>2026-04-19T09:22:25Z</time></trkpt><trkpt lat="44.36861305125391" lon="9.470027655834189"><ele>705.0</ele><time>2026-04-19T09:22:26Z</time></trkpt><trkpt lat="44.368557373443416" lon="9.469920576309473"><ele>705.0</ele><time>2026-04-19T09:22:26.999Z</time></trkpt><trkpt lat="44.36845830569285" lon="9.46986707156408"><ele>705.0</ele><time>2026-04-19T09:22:27.999Z</time></trkpt><trkpt lat="44.368352507007515" lon="9.469910099835307"><ele>705.0</ele><time>2026-04-19T09:22:28.999Z</time></trkpt><trkpt lat="44.36825847967266" lon="9.469955491711552"><ele>705.0</ele><time>2026-04-19T09:22:29.999Z</time></trkpt><trkpt lat="44.368172920464" lon="9.46998606801523"><ele>705.0</ele><time>2026-04-19T09:22:30.999Z</time></trkpt><trkpt lat="44.36810635903727" lon="9.470067622422558"><ele>703.5</ele><time>2026-04-19T09:22:31.999Z</time></trkpt><trkpt lat="44.36802049600862" lon="9.470157193082901"><ele>702.0</ele><time>2026-04-19T09:22:32.999Z</time></trkpt><trkpt lat="44.367916765698006" lon="9.470271350727252"><ele>700.5</ele><time>2026-04-19T09:22:33.999Z</time></trkpt><trkpt lat="44.36783554214829" lon="9.470404928621017"><ele>699.0</ele><time>2026-04-19T09:22:34.999Z</time></trkpt><trkpt lat="44.367729110465135" lon="9.47054377307962"><ele>699.0</ele><time>2026-04-19T09:22:35.999Z</time></trkpt><trkpt lat="44.367655102838384" lon="9.4706493789052"><ele>699.0</ele><time>2026-04-19T09:22:36.999Z</time></trkpt><trkpt lat="44.36756977695126" lon="9.470786823468378"><ele>699.0</ele><time>2026-04-19T09:22:37.999Z</time></trkpt><trkpt lat="44.36746636750172" lon="9.470951190334569"><ele>699.0</ele><time>2026-04-19T09:22:38.999Z</time></trkpt><trkpt lat="44.36735045265181" lon="9.471096327627194"><ele>699.0</ele><time>2026-04-19T09:22:39.999Z</time></trkpt><trkpt lat="44.367210594955104" lon="9.471215641016709"><ele>699.0</ele><time>2026-04-19T09:22:40.999Z</time></trkpt><trkpt lat="44.367057847281046" lon="9.471319082187625"><ele>699.0</ele><time>2026-04-19T09:22:41.999Z</time></trkpt><trkpt lat="44.36692477929933" lon="9.471435658309911"><ele>699.0</ele><time>2026-04-19T09:22:42.999Z</time></trkpt><trkpt lat="44.36679720882082" lon="9.471559430934846"><ele>699.0</ele><time>2026-04-19T09:22:43.999Z</time></trkpt><trkpt lat="44.36667159715911" lon="9.471657403714655"><ele>699.0</ele><time>2026-04-19T09:22:44.999Z</time></trkpt><trkpt lat="44.366534132655985" lon="9.471704366506698"><ele>699.0</ele><time>2026-04-19T09:22:45.999Z</time></trkpt><trkpt lat="44.366396467110555" lon="9.471732732666611"><ele>695.0</ele><time>2026-04-19T09:22:46.999Z</time></trkpt><trkpt lat="44.366255928407156" lon="9.471762615551691"><ele>691.0</ele><time>2026-04-19T09:22:47.999Z</time></trkpt><trkpt lat="44.36611668983733" lon="9.471801629978387"><ele>687.0</ele><time>2026-04-19T09:22:48.999Z</time></trkpt><trkpt lat="44.36597419685536" lon="9.471858394546635"><ele>683.0</ele><time>2026-04-19T09:22:49.999Z</time></trkpt><trkpt lat="44.36584808536377" lon="9.471906466154413"><ele>683.0</ele><time>2026-04-19T09:22:50.999Z</time></trkpt><trkpt lat="44.36574217997794" lon="9.47199109062069"><ele>683.0</ele><time>2026-04-19T09:22:51.999Z</time></trkpt><trkpt lat="44.365666906600566" lon="9.472126147119369"><ele>683.0</ele><time>2026-04-19T09:22:52.999Z</time></trkpt><trkpt lat="44.36558319916506" lon="9.472242714853781"><ele>683.0</ele><time>2026-04-19T09:22:53.999Z</time></trkpt><trkpt lat="44.365464319162676" lon="9.472234211280853"><ele>681.25</ele><time>2026-04-19T09:22:54.999Z</time></trkpt><trkpt lat="44.36536600017994" lon="9.472184559286053"><ele>679.5</ele><time>2026-04-19T09:22:55.999Z</time></trkpt><trkpt lat="44.36524836343174" lon="9.472118998670544"><ele>677.75</ele><time>2026-04-19T09:22:56.999Z</time></trkpt><trkpt lat="44.36510290288395" lon="9.472058636401085"><ele>676.0</ele><time>2026-04-19T09:22:57.999Z</time></trkpt><trkpt lat="44.36496694002105" lon="9.471998202647521"><ele>676.0</ele><time>2026-04-19T09:22:58.999Z</time></trkpt><trkpt lat="44.36486842829345" lon="9.471931384475859"><ele>676.0</ele><time>2026-04-19T09:22:59.999Z</time></trkpt><trkpt lat="44.364788606240815" lon="9.47183594967631"><ele>676.0</ele><time>2026-04-19T09:23:00.999Z</time></trkpt><trkpt lat="44.36477669177128" lon="9.471690509483839"><ele>676.0</ele><time>2026-04-19T09:23:01.999Z</time></trkpt><trkpt lat="44.364806705745195" lon="9.471553337367594"><ele>676.0</ele><time>2026-04-19T09:23:02.999Z</time></trkpt><trkpt lat="44.364767638343885" lon="9.471463136541027"><ele>676.0</ele><time>2026-04-19T09:23:03.999Z</time></trkpt><trkpt lat="44.36469766874281" lon="9.47132511798651"><ele>676.0</ele><time>2026-04-19T09:23:04.999Z</time></trkpt><trkpt lat="44.36464084784161" lon="9.471284185661531"><ele>676.0</ele><time>2026-04-19T09:23:05.999Z</time></trkpt><trkpt lat="44.3645585727965" lon="9.471278440640434"><ele>676.0</ele><time>2026-04-19T09:23:06.999Z</time></trkpt><trkpt lat="44.36445644450474" lon="9.471337120723208"><ele>676.0</ele><time>2026-04-19T09:23:07.999Z</time></trkpt><trkpt lat="44.36433790523619" lon="9.471428828813066"><ele>677.75</ele><time>2026-04-19T09:23:08.999Z</time></trkpt><trkpt lat="44.3642328973544" lon="9.471373053855574"><ele>679.5</ele><time>2026-04-19T09:23:09.999Z</time></trkpt><trkpt lat="44.36414201928042" lon="9.471307660903465"><ele>681.25</ele><time>2026-04-19T09:23:10.999Z</time></trkpt><trkpt lat="44.36400977249469" lon="9.471229025889087"><ele>683.0</ele><time>2026-04-19T09:23:11.999Z</time></trkpt><trkpt lat="44.36386330996534" lon="9.471168801486106"><ele>676.25</ele><time>2026-04-19T09:23:12.999Z</time></trkpt><trkpt lat="44.36371885017174" lon="9.471083772956744"><ele>669.5</ele><time>2026-04-19T09:23:13.999Z</time></trkpt><trkpt lat="44.36358947568389" lon="9.471012285302079"><ele>662.75</ele><time>2026-04-19T09:23:14.999Z</time></trkpt><trkpt lat="44.36346516440679" lon="9.470942580359173"><ele>656.0</ele><time>2026-04-19T09:23:15.999Z</time></trkpt><trkpt lat="44.363353833483444" lon="9.470903198022004"><ele>656.0</ele><time>2026-04-19T09:23:16.999Z</time></trkpt><trkpt lat="44.363249461029234" lon="9.470938860169419"><ele>656.0</ele><time>2026-04-19T09:23:17.999Z</time></trkpt><trkpt lat="44.36314465562753" lon="9.47104499033612"><ele>656.0</ele><time>2026-04-19T09:23:18.999Z</time></trkpt><trkpt lat="44.36302281630725" lon="9.47117188567459"><ele>656.0</ele><time>2026-04-19T09:23:19.999Z</time></trkpt><trkpt lat="44.36292366561925" lon="9.471285198042445"><ele>657.1999999999999</ele><time>2026-04-19T09:23:20.999Z</time></trkpt><trkpt lat="44.362840014607414" lon="9.47138885631735"><ele>658.4</ele><time>2026-04-19T09:23:21.999Z</time></trkpt><trkpt lat="44.362819060091795" lon="9.471531159153168"><ele>659.6</ele><time>2026-04-19T09:23:22.999Z</time></trkpt><trkpt lat="44.36281910831942" lon="9.471708841353198"><ele>660.8</ele><time>2026-04-19T09:23:23.999Z</time></trkpt><trkpt lat="44.362803618409025" lon="9.471839955576847"><ele>662.0</ele><time>2026-04-19T09:23:24.999Z</time></trkpt><trkpt lat="44.362649571187895" lon="9.471827995002508"><ele>662.0</ele><time>2026-04-19T09:23:27Z</time></trkpt><trkpt lat="44.36255255653651" lon="9.471774197108735"><ele>662.0</ele><time>2026-04-19T09:23:28Z</time></trkpt><trkpt lat="44.36244729465469" lon="9.47172698342485"><ele>662.0</ele><time>2026-04-19T09:23:29Z</time></trkpt><trkpt lat="44.362367801177186" lon="9.47167263229014"><ele>662.0</ele><time>2026-04-19T09:23:30Z</time></trkpt><trkpt lat="44.36231689452545" lon="9.471562926265568"><ele>662.0</ele><time>2026-04-19T09:23:31Z</time></trkpt><trkpt lat="44.36232649566318" lon="9.47137448764051"><ele>662.5</ele><time>2026-04-19T09:23:32Z</time></trkpt><trkpt lat="44.36235333190617" lon="9.471194377847231"><ele>663.0</ele><time>2026-04-19T09:23:33Z</time></trkpt><trkpt lat="44.36231483229256" lon="9.47100541848821"><ele>663.5</ele><time>2026-04-19T09:23:34Z</time></trkpt><trkpt lat="44.362248977981466" lon="9.47081698228333"><ele>664.0</ele><time>2026-04-19T09:23:35Z</time></trkpt><trkpt lat="44.36216538310094" lon="9.470647759214708"><ele>664.0</ele><time>2026-04-19T09:23:36Z</time></trkpt><trkpt lat="44.36204201780694" lon="9.470471282839481"><ele>664.0</ele><time>2026-04-19T09:23:37Z</time></trkpt><trkpt lat="44.361978053694415" lon="9.470340974904525"><ele>664.0</ele><time>2026-04-19T09:23:38Z</time></trkpt><trkpt lat="44.361925536256656" lon="9.470223735558275"><ele>664.0</ele><time>2026-04-19T09:23:39Z</time></trkpt><trkpt lat="44.3619560256339" lon="9.47009759732421"><ele>660.0</ele><time>2026-04-19T09:23:40Z</time></trkpt><trkpt lat="44.361935496190775" lon="9.469908504381426"><ele>656.0</ele><time>2026-04-19T09:23:41Z</time></trkpt><trkpt lat="44.361905546956166" lon="9.469789297899739"><ele>652.0</ele><time>2026-04-19T09:23:42Z</time></trkpt><trkpt lat="44.36183373501098" lon="9.469687874526855"><ele>648.0</ele><time>2026-04-19T09:23:43Z</time></trkpt><trkpt lat="44.36175086039156" lon="9.469594417339696"><ele>644.0</ele><time>2026-04-19T09:23:44Z</time></trkpt><trkpt lat="44.36162854833666" lon="9.46950178233248"><ele>641.0</ele><time>2026-04-19T09:23:45Z</time></trkpt><trkpt lat="44.361521215567414" lon="9.46949502214979"><ele>638.0</ele><time>2026-04-19T09:23:46Z</time></trkpt><trkpt lat="44.36142689794489" lon="9.469418801697639"><ele>635.0</ele><time>2026-04-19T09:23:48Z</time></trkpt><trkpt lat="44.36142091527388" lon="9.469277500161816"><ele>632.0</ele><time>2026-04-19T09:23:49Z</time></trkpt><trkpt lat="44.36142625424022" lon="9.469108816396599"><ele>629.0</ele><time>2026-04-19T09:23:50Z</time></trkpt><trkpt lat="44.361439129968645" lon="9.468941921542045"><ele>629.0</ele><time>2026-04-19T09:23:51Z</time></trkpt><trkpt lat="44.36146578962063" lon="9.468811929111839"><ele>629.0</ele><time>2026-04-19T09:23:52Z</time></trkpt><trkpt lat="44.361556943763716" lon="9.468749654302634"><ele>629.0</ele><time>2026-04-19T09:23:53Z</time></trkpt><trkpt lat="44.36168690241866" lon="9.468731408848727"><ele>629.0</ele><time>2026-04-19T09:23:54Z</time></trkpt><trkpt lat="44.36180997558629" lon="9.468756440232738"><ele>629.0</ele><time>2026-04-19T09:23:55Z</time></trkpt><trkpt lat="44.36191632464165" lon="9.468822512827474"><ele>629.0</ele><time>2026-04-19T09:23:56Z</time></trkpt><trkpt lat="44.36200394152794" lon="9.468912722628634"><ele>629.0</ele><time>2026-04-19T09:23:57Z</time></trkpt><trkpt lat="44.36205949721065" lon="9.469065032515696"><ele>629.0</ele><time>2026-04-19T09:23:58Z</time></trkpt><trkpt lat="44.362153396717645" lon="9.469186365620594"><ele>628.4</ele><time>2026-04-19T09:23:59Z</time></trkpt><trkpt lat="44.36223624686753" lon="9.469314029250487"><ele>627.8</ele><time>2026-04-19T09:24:00Z</time></trkpt><trkpt lat="44.362328455621295" lon="9.4694339058283"><ele>627.2</ele><time>2026-04-19T09:24:01Z</time></trkpt><trkpt lat="44.36237933853115" lon="9.46952329653827"><ele>626.6</ele><time>2026-04-19T09:24:02Z</time></trkpt><trkpt lat="44.36239784370757" lon="9.469635680947471"><ele>626.0</ele><time>2026-04-19T09:24:03Z</time></trkpt><trkpt lat="44.362416197956165" lon="9.469770766312896"><ele>626.0</ele><time>2026-04-19T09:24:04Z</time></trkpt><trkpt lat="44.36244429683594" lon="9.469891631551565"><ele>626.0</ele><time>2026-04-19T09:24:05Z</time></trkpt><trkpt lat="44.36249313277406" lon="9.470013918788496"><ele>626.0</ele><time>2026-04-19T09:24:07Z</time></trkpt><trkpt lat="44.36256444013921" lon="9.470042946254193"><ele>626.0</ele><time>2026-04-19T09:24:08Z</time></trkpt><trkpt lat="44.36264969858351" lon="9.469997671449075"><ele>626.0</ele><time>2026-04-19T09:24:09Z</time></trkpt><trkpt lat="44.36272148012537" lon="9.469880183920122"><ele>626.0</ele><time>2026-04-19T09:24:10Z</time></trkpt><trkpt lat="44.36278906320035" lon="9.469717559320529"><ele>626.0</ele><time>2026-04-19T09:24:11Z</time></trkpt><trkpt lat="44.362867863414145" lon="9.469590984960034"><ele>626.0</ele><time>2026-04-19T09:24:12Z</time></trkpt><trkpt lat="44.36291986731969" lon="9.469479110537929"><ele>626.0</ele><time>2026-04-19T09:24:13Z</time></trkpt><trkpt lat="44.362973756253346" lon="9.469391106217383"><ele>626.0</ele><time>2026-04-19T09:24:14Z</time></trkpt><trkpt lat="44.36304244897982" lon="9.469337695911692"><ele>622.75</ele><time>2026-04-19T09:24:15Z</time></trkpt><trkpt lat="44.3631367182726" lon="9.469280529503884"><ele>619.5</ele><time>2026-04-19T09:24:16Z</time></trkpt><trkpt lat="44.3632467826177" lon="9.469206175662157"><ele>616.25</ele><time>2026-04-19T09:24:17Z</time></trkpt><trkpt lat="44.36335704650798" lon="9.469118013692935"><ele>613.0</ele><time>2026-04-19T09:24:18Z</time></trkpt><trkpt lat="44.36345536943457" lon="9.469012069567148"><ele>613.0</ele><time>2026-04-19T09:24:19Z</time></trkpt><trkpt lat="44.36355321776782" lon="9.468876933211398"><ele>613.0</ele><time>2026-04-19T09:24:20Z</time></trkpt><trkpt lat="44.363653259786034" lon="9.468714129105068"><ele>613.0</ele><time>2026-04-19T09:24:21Z</time></trkpt><trkpt lat="44.363749532294285" lon="9.468510147360758"><ele>612.25</ele><time>2026-04-19T09:24:22Z</time></trkpt><trkpt lat="44.3638667554708" lon="9.468345008415241"><ele>611.5</ele><time>2026-04-19T09:24:22.999Z</time></trkpt><trkpt lat="44.36394792222177" lon="9.468184644806918"><ele>610.75</ele><time>2026-04-19T09:24:23.999Z</time></trkpt><trkpt lat="44.36403716296412" lon="9.468039902007384"><ele>610.0</ele><time>2026-04-19T09:24:24.999Z</time></trkpt><trkpt lat="44.3641349160156" lon="9.467911772297109"><ele>607.0</ele><time>2026-04-19T09:24:25.999Z</time></trkpt><trkpt lat="44.36422110718811" lon="9.46776726916105"><ele>604.0</ele><time>2026-04-19T09:24:26.999Z</time></trkpt><trkpt lat="44.36428982993516" lon="9.467615698305748"><ele>601.0</ele><time>2026-04-19T09:24:27.999Z</time></trkpt><trkpt lat="44.3643770729426" lon="9.467480743144236"><ele>598.0</ele><time>2026-04-19T09:24:28.999Z</time></trkpt><trkpt lat="44.364456890438575" lon="9.467337048550752"><ele>598.0</ele><time>2026-04-19T09:24:29.999Z</time></trkpt><trkpt lat="44.36455498554569" lon="9.467188012869865"><ele>598.0</ele><time>2026-04-19T09:24:30.999Z</time></trkpt><trkpt lat="44.36464364905184" lon="9.46703193494629"><ele>598.0</ele><time>2026-04-19T09:24:31.999Z</time></trkpt><trkpt lat="44.36472995351507" lon="9.466884116355018"><ele>598.0</ele><time>2026-04-19T09:24:32.999Z</time></trkpt><trkpt lat="44.36481162427749" lon="9.466748334196605"><ele>598.25</ele><time>2026-04-19T09:24:33.999Z</time></trkpt><trkpt lat="44.36490128246834" lon="9.466622325078726"><ele>598.5</ele><time>2026-04-19T09:24:34.999Z</time></trkpt><trkpt lat="44.36500086212175" lon="9.46650724561363"><ele>598.75</ele><time>2026-04-19T09:24:35.999Z</time></trkpt><trkpt lat="44.36510466699962" lon="9.466420331218869"><ele>599.0</ele><time>2026-04-19T09:24:36.999Z</time></trkpt><trkpt lat="44.36521153504285" lon="9.466357413782813"><ele>599.0</ele><time>2026-04-19T09:24:37.999Z</time></trkpt><trkpt lat="44.36532117348718" lon="9.46631703541762"><ele>599.0</ele><time>2026-04-19T09:24:38.999Z</time></trkpt><trkpt lat="44.36543994850707" lon="9.466300870009157"><ele>599.0</ele><time>2026-04-19T09:24:39.999Z</time></trkpt><trkpt lat="44.36555519917439" lon="9.466304063785877"><ele>599.0</ele><time>2026-04-19T09:24:40.999Z</time></trkpt><trkpt lat="44.3656709334835" lon="9.466301328705534"><ele>598.5</ele><time>2026-04-19T09:24:41.999Z</time></trkpt><trkpt lat="44.365803783547136" lon="9.466329090304065"><ele>598.0</ele><time>2026-04-19T09:24:42.999Z</time></trkpt><trkpt lat="44.36594765926904" lon="9.466349335940244"><ele>597.5</ele><time>2026-04-19T09:24:43.999Z</time></trkpt><trkpt lat="44.3661046569643" lon="9.466373044575285"><ele>597.0</ele><time>2026-04-19T09:24:44.999Z</time></trkpt><trkpt lat="44.36627842755349" lon="9.466401455817273"><ele>597.6666666666666</ele><time>2026-04-19T09:24:45.999Z</time></trkpt><trkpt lat="44.36645894616374" lon="9.466423832291303"><ele>598.3333333333333</ele><time>2026-04-19T09:24:46.999Z</time></trkpt><trkpt lat="44.36665624542335" lon="9.466447423354564"><ele>599.0</ele><time>2026-04-19T09:24:47.999Z</time></trkpt><trkpt lat="44.36685539677767" lon="9.466478136873011"><ele>599.0</ele><time>2026-04-19T09:24:48.999Z</time></trkpt><trkpt lat="44.36704665224437" lon="9.46650422781299"><ele>599.0</ele><time>2026-04-19T09:24:49.999Z</time></trkpt><trkpt lat="44.367245338198515" lon="9.466529466613876"><ele>599.0</ele><time>2026-04-19T09:24:50.999Z</time></trkpt><trkpt lat="44.36743888140465" lon="9.46656411707423"><ele>599.3333333333333</ele><time>2026-04-19T09:24:51.999Z</time></trkpt><trkpt lat="44.36762408308302" lon="9.46659172373828"><ele>599.6666666666666</ele><time>2026-04-19T09:24:52.999Z</time></trkpt><trkpt lat="44.36780085677456" lon="9.466625684668479"><ele>600.0</ele><time>2026-04-19T09:24:53.999Z</time></trkpt><trkpt lat="44.36796811622284" lon="9.46664948460893"><ele>598.0</ele><time>2026-04-19T09:24:54.999Z</time></trkpt><trkpt lat="44.36811920692657" lon="9.466672080889381"><ele>596.0</ele><time>2026-04-19T09:24:55.999Z</time></trkpt><trkpt lat="44.368264649298986" lon="9.46669540560277"><ele>594.0</ele><time>2026-04-19T09:24:56.999Z</time></trkpt><trkpt lat="44.36840110425968" lon="9.46671065809711"><ele>592.0</ele><time>2026-04-19T09:24:57.999Z</time></trkpt><trkpt lat="44.36853701477173" lon="9.466708234290282"><ele>592.0</ele><time>2026-04-19T09:24:58.999Z</time></trkpt><trkpt lat="44.36867386181706" lon="9.466670069869481"><ele>592.0</ele><time>2026-04-19T09:24:59.999Z</time></trkpt><trkpt lat="44.36880645632577" lon="9.466600759381107"><ele>592.0</ele><time>2026-04-19T09:25:00.999Z</time></trkpt><trkpt lat="44.36893032943115" lon="9.466477334790703"><ele>592.0</ele><time>2026-04-19T09:25:01.999Z</time></trkpt><trkpt lat="44.369033881787104" lon="9.466316969455175"><ele>591.5</ele><time>2026-04-19T09:25:02.999Z</time></trkpt><trkpt lat="44.36911532575312" lon="9.46615785364616"><ele>591.0</ele><time>2026-04-19T09:25:03.999Z</time></trkpt><trkpt lat="44.36916647415338" lon="9.46597807439543"><ele>590.5</ele><time>2026-04-19T09:25:04.999Z</time></trkpt><trkpt lat="44.369190381205776" lon="9.46579076813492"><ele>590.0</ele><time>2026-04-19T09:25:05.999Z</time></trkpt><trkpt lat="44.369167304084854" lon="9.465598129269804"><ele>588.0</ele><time>2026-04-19T09:25:06.999Z</time></trkpt><trkpt lat="44.36913563748035" lon="9.465400412259907"><ele>586.0</ele><time>2026-04-19T09:25:07.999Z</time></trkpt><trkpt lat="44.36901263627155" lon="9.465229584319943"><ele>584.0</ele><time>2026-04-19T09:25:08.999Z</time></trkpt><trkpt lat="44.36888872272172" lon="9.465079174444552"><ele>579.25</ele><time>2026-04-19T09:25:09.999Z</time></trkpt><trkpt lat="44.36878918691867" lon="9.464932615767916"><ele>574.5</ele><time>2026-04-19T09:25:10.999Z</time></trkpt><trkpt lat="44.36870821484763" lon="9.464794081317999"><ele>569.75</ele><time>2026-04-19T09:25:11.999Z</time></trkpt><trkpt lat="44.36864713053894" lon="9.464656845047818"><ele>565.0</ele><time>2026-04-19T09:25:12.999Z</time></trkpt><trkpt lat="44.36861485916167" lon="9.464497954551282"><ele>562.75</ele><time>2026-04-19T09:25:13.999Z</time></trkpt><trkpt lat="44.368614247234774" lon="9.464307518774943"><ele>560.5</ele><time>2026-04-19T09:25:14.999Z</time></trkpt><trkpt lat="44.3686615439679" lon="9.46412607883296"><ele>558.25</ele><time>2026-04-19T09:25:15.999Z</time></trkpt><trkpt lat="44.3687357350659" lon="9.4639535320191"><ele>556.0</ele><time>2026-04-19T09:25:16.999Z</time></trkpt><trkpt lat="44.3688543452235" lon="9.463827220817931"><ele>556.0</ele><time>2026-04-19T09:25:17.999Z</time></trkpt><trkpt lat="44.3689815042435" lon="9.463756953541978"><ele>556.0</ele><time>2026-04-19T09:25:18.999Z</time></trkpt><trkpt lat="44.36912881975745" lon="9.463749007152764"><ele>556.0</ele><time>2026-04-19T09:25:19.999Z</time></trkpt><trkpt lat="44.36925096926531" lon="9.463776647280513"><ele>556.0</ele><time>2026-04-19T09:25:20.999Z</time></trkpt><trkpt lat="44.36935526163183" lon="9.46386370837591"><ele>563.3333333333334</ele><time>2026-04-19T09:25:21.999Z</time></trkpt><trkpt lat="44.36946577692729" lon="9.464001707474083"><ele>570.6666666666666</ele><time>2026-04-19T09:25:22.999Z</time></trkpt><trkpt lat="44.36957531341496" lon="9.46419411209228"><ele>578.0</ele><time>2026-04-19T09:25:23.999Z</time></trkpt><trkpt lat="44.3696771488422" lon="9.464365481274088"><ele>575.5</ele><time>2026-04-19T09:25:24.999Z</time></trkpt><trkpt lat="44.36976418213601" lon="9.464484125638021"><ele>573.0</ele><time>2026-04-19T09:25:25.999Z</time></trkpt><trkpt lat="44.36986985857305" lon="9.464532073664257"><ele>570.5</ele><time>2026-04-19T09:25:26.999Z</time></trkpt><trkpt lat="44.370000492054416" lon="9.464513532876529"><ele>568.0</ele><time>2026-04-19T09:25:27.999Z</time></trkpt><trkpt lat="44.37015541739697" lon="9.464413866621948"><ele>568.0</ele><time>2026-04-19T09:25:28.999Z</time></trkpt><trkpt lat="44.37028934884654" lon="9.464290172496934"><ele>568.0</ele><time>2026-04-19T09:25:29.999Z</time></trkpt><trkpt lat="44.37041066023506" lon="9.464176478084664"><ele>568.0</ele><time>2026-04-19T09:25:31Z</time></trkpt><trkpt lat="44.37053449730709" lon="9.4639774451798"><ele>572.0</ele><time>2026-04-19T09:25:32Z</time></trkpt><trkpt lat="44.37066198062246" lon="9.463815655687236"><ele>576.0</ele><time>2026-04-19T09:25:33Z</time></trkpt><trkpt lat="44.37078086265734" lon="9.463668318901805"><ele>580.0</ele><time>2026-04-19T09:25:34Z</time></trkpt><trkpt lat="44.370914269613706" lon="9.463498764957222"><ele>571.6666666666667</ele><time>2026-04-19T09:25:35Z</time></trkpt><trkpt lat="44.37108686899458" lon="9.463300276182283"><ele>563.3333333333334</ele><time>2026-04-19T09:25:36Z</time></trkpt><trkpt lat="44.37117746095978" lon="9.463160721078797"><ele>555.0</ele><time>2026-04-19T09:25:37Z</time></trkpt><trkpt lat="44.371281780639094" lon="9.463021183719361"><ele>559.6666666666666</ele><time>2026-04-19T09:25:38Z</time></trkpt><trkpt lat="44.37136976632048" lon="9.462867106082467"><ele>564.3333333333333</ele><time>2026-04-19T09:25:39Z</time></trkpt><trkpt lat="44.37141394406366" lon="9.462677104137736"><ele>569.0</ele><time>2026-04-19T09:25:40Z</time></trkpt><trkpt lat="44.371361333054814" lon="9.462440298182635"><ele>557.3333333333333</ele><time>2026-04-19T09:25:41Z</time></trkpt><trkpt lat="44.37133509655089" lon="9.462198210018997"><ele>545.6666666666666</ele><time>2026-04-19T09:25:42Z</time></trkpt><trkpt lat="44.37132798923574" lon="9.461970424306207"><ele>534.0</ele><time>2026-04-19T09:25:43Z</time></trkpt><trkpt lat="44.37132457005679" lon="9.461739848838084"><ele>531.25</ele><time>2026-04-19T09:25:44Z</time></trkpt><trkpt lat="44.371337160895855" lon="9.461524366275711"><ele>528.5</ele><time>2026-04-19T09:25:45Z</time></trkpt><trkpt lat="44.371345127676264" lon="9.461311390038297"><ele>525.75</ele><time>2026-04-19T09:25:46Z</time></trkpt><trkpt lat="44.371322802607146" lon="9.461126984674985"><ele>523.0</ele><time>2026-04-19T09:25:47Z</time></trkpt><trkpt lat="44.37128545890532" lon="9.460902594166507"><ele>522.0</ele><time>2026-04-19T09:25:48Z</time></trkpt><trkpt lat="44.37124738606044" lon="9.460709096117405"><ele>521.0</ele><time>2026-04-19T09:25:49Z</time></trkpt><trkpt lat="44.37126029329033" lon="9.460516520234755"><ele>520.0</ele><time>2026-04-19T09:25:50Z</time></trkpt><trkpt lat="44.37129024874853" lon="9.460296488024886"><ele>519.0</ele><time>2026-04-19T09:25:51Z</time></trkpt><trkpt lat="44.37132389857349" lon="9.460152687044133"><ele>526.5</ele><time>2026-04-19T09:25:52Z</time></trkpt><trkpt lat="44.37139333591967" lon="9.460006708331008"><ele>534.0</ele><time>2026-04-19T09:25:53Z</time></trkpt><trkpt lat="44.3715072320724" lon="9.459894022856322"><ele>541.5</ele><time>2026-04-19T09:25:54Z</time></trkpt><trkpt lat="44.371643290151034" lon="9.459829994401922"><ele>549.0</ele><time>2026-04-19T09:25:55Z</time></trkpt><trkpt lat="44.37178347157678" lon="9.459742987684725"><ele>549.0</ele><time>2026-04-19T09:25:56Z</time></trkpt><trkpt lat="44.37193582941662" lon="9.459658634903263"><ele>549.0</ele><time>2026-04-19T09:25:57Z</time></trkpt><trkpt lat="44.37209343874418" lon="9.459598409831127"><ele>549.0</ele><time>2026-04-19T09:25:58Z</time></trkpt><trkpt lat="44.37224207596764" lon="9.45958576321288"><ele>541.6666666666666</ele><time>2026-04-19T09:25:59Z</time></trkpt><trkpt lat="44.37240453892121" lon="9.45958446465785"><ele>534.3333333333333</ele><time>2026-04-19T09:26:00Z</time></trkpt><trkpt lat="44.37258607589018" lon="9.459592832052769"><ele>527.0</ele><time>2026-04-19T09:26:01Z</time></trkpt><trkpt lat="44.37275318463956" lon="9.459594166953694"><ele>527.0</ele><time>2026-04-19T09:26:02Z</time></trkpt><trkpt lat="44.37291612961713" lon="9.459614053950155"><ele>527.0</ele><time>2026-04-19T09:26:03Z</time></trkpt><trkpt lat="44.373076998997284" lon="9.459637739508032"><ele>527.0</ele><time>2026-04-19T09:26:04Z</time></trkpt><trkpt lat="44.3732294672803" lon="9.459657959347407"><ele>527.0</ele><time>2026-04-19T09:26:05Z</time></trkpt><trkpt lat="44.37336798681594" lon="9.459671978683705"><ele>527.0</ele><time>2026-04-19T09:26:06Z</time></trkpt><trkpt lat="44.37349045130737" lon="9.45967439552961"><ele>527.0</ele><time>2026-04-19T09:26:07Z</time></trkpt><trkpt lat="44.37358597658465" lon="9.459584609083105"><ele>527.0</ele><time>2026-04-19T09:26:08Z</time></trkpt><trkpt lat="44.373654517146804" lon="9.459420806700399"><ele>527.0</ele><time>2026-04-19T09:26:09Z</time></trkpt><trkpt lat="44.373661222475825" lon="9.45917716088839"><ele>527.0</ele><time>2026-04-19T09:26:10Z</time></trkpt><trkpt lat="44.373632552261256" lon="9.458921386895165"><ele>527.0</ele><time>2026-04-19T09:26:11Z</time></trkpt><trkpt lat="44.373637470800645" lon="9.458708613587635"><ele>524.0</ele><time>2026-04-19T09:26:12Z</time></trkpt><trkpt lat="44.37363923405008" lon="9.458546642449509"><ele>521.0</ele><time>2026-04-19T09:26:13Z</time></trkpt><trkpt lat="44.37364528033293" lon="9.458357949518444"><ele>518.0</ele><time>2026-04-19T09:26:14Z</time></trkpt><trkpt lat="44.37364058502689" lon="9.458144055159671"><ele>515.0</ele><time>2026-04-19T09:26:15Z</time></trkpt><trkpt lat="44.37367187670021" lon="9.457954671707045"><ele>515.75</ele><time>2026-04-19T09:26:16Z</time></trkpt><trkpt lat="44.37370453083951" lon="9.457779472065859"><ele>516.5</ele><time>2026-04-19T09:26:17Z</time></trkpt><trkpt lat="44.37378151539301" lon="9.457677688284072"><ele>517.25</ele><time>2026-04-19T09:26:18Z</time></trkpt><trkpt lat="44.373900313025" lon="9.457585110790877"><ele>518.0</ele><time>2026-04-19T09:26:19Z</time></trkpt><trkpt lat="44.37401130515733" lon="9.457468818597297"><ele>518.0</ele><time>2026-04-19T09:26:20Z</time></trkpt><trkpt lat="44.37410987756976" lon="9.457368289792225"><ele>518.0</ele><time>2026-04-19T09:26:21Z</time></trkpt><trkpt lat="44.37415021167462" lon="9.457215656724618"><ele>518.0</ele><time>2026-04-19T09:26:22Z</time></trkpt><trkpt lat="44.374130585296456" lon="9.457046246829513"><ele>518.0</ele><time>2026-04-19T09:26:23Z</time></trkpt><trkpt lat="44.37405501284698" lon="9.456904802301949"><ele>515.0</ele><time>2026-04-19T09:26:24Z</time></trkpt><trkpt lat="44.373933092331036" lon="9.45682815105073"><ele>512.0</ele><time>2026-04-19T09:26:25Z</time></trkpt><trkpt lat="44.373799324695966" lon="9.45683485608068"><ele>509.0</ele><time>2026-04-19T09:26:26Z</time></trkpt><trkpt lat="44.373654228785185" lon="9.456915722528661"><ele>506.0</ele><time>2026-04-19T09:26:27Z</time></trkpt><trkpt lat="44.373537090013734" lon="9.457047357246577"><ele>507.0</ele><time>2026-04-19T09:26:28Z</time></trkpt><trkpt lat="44.373459995317475" lon="9.457237398167578"><ele>508.0</ele><time>2026-04-19T09:26:29Z</time></trkpt><trkpt lat="44.373414624668634" lon="9.457457509674585"><ele>509.0</ele><time>2026-04-19T09:26:30Z</time></trkpt><trkpt lat="44.37334955348613" lon="9.457641995499985"><ele>509.0</ele><time>2026-04-19T09:26:30.999Z</time></trkpt><trkpt lat="44.37325613589105" lon="9.457775583054078"><ele>509.0</ele><time>2026-04-19T09:26:31.999Z</time></trkpt><trkpt lat="44.373142204778695" lon="9.457886164242643"><ele>509.0</ele><time>2026-04-19T09:26:32.999Z</time></trkpt><trkpt lat="44.37301965094535" lon="9.457955146231143"><ele>509.0</ele><time>2026-04-19T09:26:33.999Z</time></trkpt><trkpt lat="44.37291203078508" lon="9.457969315013997"><ele>503.5</ele><time>2026-04-19T09:26:34.999Z</time></trkpt><trkpt lat="44.37281382693668" lon="9.457896471014813"><ele>498.0</ele><time>2026-04-19T09:26:35.999Z</time></trkpt><trkpt lat="44.37273679226523" lon="9.457771025331896"><ele>492.5</ele><time>2026-04-19T09:26:36.999Z</time></trkpt><trkpt lat="44.37270302476739" lon="9.457633267228134"><ele>487.0</ele><time>2026-04-19T09:26:37.999Z</time></trkpt><trkpt lat="44.37272964069131" lon="9.457469322219728"><ele>487.0</ele><time>2026-04-19T09:26:38.999Z</time></trkpt><trkpt lat="44.372795129113186" lon="9.45733557075996"><ele>487.0</ele><time>2026-04-19T09:26:39.999Z</time></trkpt><trkpt lat="44.37290971161834" lon="9.457264929511114"><ele>487.0</ele><time>2026-04-19T09:26:40.999Z</time></trkpt><trkpt lat="44.37301277627836" lon="9.457181844748643"><ele>487.0</ele><time>2026-04-19T09:26:41.999Z</time></trkpt><trkpt lat="44.37307595946963" lon="9.457067681281904"><ele>487.25</ele><time>2026-04-19T09:26:42.999Z</time></trkpt><trkpt lat="44.37307563094017" lon="9.456908815821356"><ele>487.5</ele><time>2026-04-19T09:26:43.999Z</time></trkpt><trkpt lat="44.372993735757355" lon="9.456769205289522"><ele>487.75</ele><time>2026-04-19T09:26:44.999Z</time></trkpt><trkpt lat="44.37287131144253" lon="9.456720261793466"><ele>488.0</ele><time>2026-04-19T09:26:45.999Z</time></trkpt><trkpt lat="44.37274644351093" lon="9.45676614846115"><ele>488.0</ele><time>2026-04-19T09:26:46.999Z</time></trkpt><trkpt lat="44.37266091099698" lon="9.456902671125176"><ele>488.0</ele><time>2026-04-19T09:26:47.999Z</time></trkpt><trkpt lat="44.3726226496196" lon="9.457101324551834"><ele>488.0</ele><time>2026-04-19T09:26:48.999Z</time></trkpt><trkpt lat="44.372565613383046" lon="9.457326199618581"><ele>488.0</ele><time>2026-04-19T09:26:49.999Z</time></trkpt><trkpt lat="44.37247537654837" lon="9.45755204710283"><ele>487.75</ele><time>2026-04-19T09:26:50.999Z</time></trkpt><trkpt lat="44.372420135887694" lon="9.457771670957491"><ele>487.5</ele><time>2026-04-19T09:26:51.999Z</time></trkpt><trkpt lat="44.37236217209818" lon="9.457945179798248"><ele>487.25</ele><time>2026-04-19T09:26:52.999Z</time></trkpt><trkpt lat="44.372306090045804" lon="9.458093328851534"><ele>487.0</ele><time>2026-04-19T09:26:53.999Z</time></trkpt><trkpt lat="44.37221546319409" lon="9.458193099740935"><ele>486.0</ele><time>2026-04-19T09:26:54.999Z</time></trkpt><trkpt lat="44.37211102047962" lon="9.458236772020944"><ele>485.0</ele><time>2026-04-19T09:26:55.999Z</time></trkpt><trkpt lat="44.37198947903657" lon="9.458238290661559"><ele>484.0</ele><time>2026-04-19T09:26:56.999Z</time></trkpt><trkpt lat="44.37185758176704" lon="9.458207798827575"><ele>483.0</ele><time>2026-04-19T09:26:57.999Z</time></trkpt><trkpt lat="44.371740108055576" lon="9.458141385953398"><ele>483.0</ele><time>2026-04-19T09:26:58.999Z</time></trkpt><trkpt lat="44.37165680272372" lon="9.457994268197556"><ele>483.0</ele><time>2026-04-19T09:26:59.999Z</time></trkpt><trkpt lat="44.37156490769803" lon="9.457801715864374"><ele>483.0</ele><time>2026-04-19T09:27:00.999Z</time></trkpt><trkpt lat="44.37146846593921" lon="9.457623530733049"><ele>482.25</ele><time>2026-04-19T09:27:01.999Z</time></trkpt><trkpt lat="44.37138276498888" lon="9.457440552217998"><ele>481.5</ele><time>2026-04-19T09:27:02.999Z</time></trkpt><trkpt lat="44.37134572935705" lon="9.457319940933388"><ele>480.75</ele><time>2026-04-19T09:27:03.999Z</time></trkpt><trkpt lat="44.3713365988089" lon="9.457145413201774"><ele>480.0</ele><time>2026-04-19T09:27:04.999Z</time></trkpt><trkpt lat="44.371363970691284" lon="9.456952160852188"><ele>480.0</ele><time>2026-04-19T09:27:05.999Z</time></trkpt><trkpt lat="44.371410670090974" lon="9.456756055383188"><ele>480.0</ele><time>2026-04-19T09:27:06.999Z</time></trkpt><trkpt lat="44.37144646108047" lon="9.456576574369333"><ele>480.0</ele><time>2026-04-19T09:27:07.999Z</time></trkpt><trkpt lat="44.37144998304878" lon="9.456417580207765"><ele>480.0</ele><time>2026-04-19T09:27:08.999Z</time></trkpt><trkpt lat="44.37139624642452" lon="9.456273397306507"><ele>479.0</ele><time>2026-04-19T09:27:09.999Z</time></trkpt><trkpt lat="44.3712837425975" lon="9.456143185420169"><ele>478.0</ele><time>2026-04-19T09:27:10.999Z</time></trkpt><trkpt lat="44.37113273882105" lon="9.456035887994812"><ele>477.0</ele><time>2026-04-19T09:27:11.999Z</time></trkpt><trkpt lat="44.370988748910726" lon="9.455931527610876"><ele>477.0</ele><time>2026-04-19T09:27:12.999Z</time></trkpt><trkpt lat="44.3708546480048" lon="9.45582843125443"><ele>477.0</ele><time>2026-04-19T09:27:13.999Z</time></trkpt><trkpt lat="44.37070556888197" lon="9.455725099525198"><ele>477.0</ele><time>2026-04-19T09:27:14.999Z</time></trkpt><trkpt lat="44.37055677186488" lon="9.455630161444192"><ele>474.5</ele><time>2026-04-19T09:27:15.999Z</time></trkpt><trkpt lat="44.370415717512444" lon="9.455555491884104"><ele>472.0</ele><time>2026-04-19T09:27:16.999Z</time></trkpt><trkpt lat="44.3702792777058" lon="9.455489716610053"><ele>469.5</ele><time>2026-04-19T09:27:17.999Z</time></trkpt><trkpt lat="44.37014997812302" lon="9.455453601362185"><ele>467.0</ele><time>2026-04-19T09:27:18.999Z</time></trkpt><trkpt lat="44.370036957938616" lon="9.455494130607022"><ele>467.0</ele><time>2026-04-19T09:27:19.999Z</time></trkpt><trkpt lat="44.36993094751943" lon="9.455599372634765"><ele>467.0</ele><time>2026-04-19T09:27:20.999Z</time></trkpt><trkpt lat="44.369818740379955" lon="9.4556584404165"><ele>467.0</ele><time>2026-04-19T09:27:21.999Z</time></trkpt><trkpt lat="44.369677880414855" lon="9.455656237529421"><ele>467.0</ele><time>2026-04-19T09:27:22.999Z</time></trkpt><trkpt lat="44.36952431164366" lon="9.455618402389176"><ele>466.0</ele><time>2026-04-19T09:27:23.999Z</time></trkpt><trkpt lat="44.3693761087586" lon="9.45560750941877"><ele>465.0</ele><time>2026-04-19T09:27:24.999Z</time></trkpt><trkpt lat="44.36923828636812" lon="9.455650473345644"><ele>464.0</ele><time>2026-04-19T09:27:25.999Z</time></trkpt><trkpt lat="44.369094978504585" lon="9.455748766070611"><ele>463.0</ele><time>2026-04-19T09:27:26.999Z</time></trkpt><trkpt lat="44.36895500862799" lon="9.455872635588966"><ele>462.33333333333337</ele><time>2026-04-19T09:27:27.999Z</time></trkpt><trkpt lat="44.36883668129798" lon="9.456016853922323"><ele>461.66666666666663</ele><time>2026-04-19T09:27:28.999Z</time></trkpt><trkpt lat="44.36873985700741" lon="9.456174534282512"><ele>461.0</ele><time>2026-04-19T09:27:29.999Z</time></trkpt><trkpt lat="44.36864819516152" lon="9.456339395124827"><ele>459.20000000000005</ele><time>2026-04-19T09:27:30.999Z</time></trkpt><trkpt lat="44.368545234404756" lon="9.456468028013036"><ele>457.40000000000003</ele><time>2026-04-19T09:27:31.999Z</time></trkpt><trkpt lat="44.36845599229381" lon="9.456587117564874"><ele>455.6</ele><time>2026-04-19T09:27:32.999Z</time></trkpt><trkpt lat="44.36837458675153" lon="9.456650873265101"><ele>453.8</ele><time>2026-04-19T09:27:33.999Z</time></trkpt><trkpt lat="44.368295324198236" lon="9.456650150064085"><ele>452.0</ele><time>2026-04-19T09:27:34.999Z</time></trkpt><trkpt lat="44.36822156065814" lon="9.456535888753754"><ele>452.0</ele><time>2026-04-19T09:27:36Z</time></trkpt><trkpt lat="44.36820437078447" lon="9.456367520568788"><ele>452.0</ele><time>2026-04-19T09:27:37Z</time></trkpt><trkpt lat="44.368240831735406" lon="9.456228136419087"><ele>452.0</ele><time>2026-04-19T09:27:38Z</time></trkpt><trkpt lat="44.36836247214305" lon="9.456160876181933"><ele>452.0</ele><time>2026-04-19T09:27:39Z</time></trkpt><trkpt lat="44.368469754898875" lon="9.456042030767446"><ele>454.25</ele><time>2026-04-19T09:27:40Z</time></trkpt><trkpt lat="44.36860588491937" lon="9.455928444512066"><ele>456.5</ele><time>2026-04-19T09:27:41Z</time></trkpt><trkpt lat="44.36870914506027" lon="9.455812069434641"><ele>458.75</ele><time>2026-04-19T09:27:42Z</time></trkpt><trkpt lat="44.36876571861891" lon="9.455699485817565"><ele>461.0</ele><time>2026-04-19T09:27:43Z</time></trkpt><trkpt lat="44.368749504221334" lon="9.455556088808212"><ele>461.0</ele><time>2026-04-19T09:27:44Z</time></trkpt><trkpt lat="44.36868766863592" lon="9.455402036498544"><ele>461.0</ele><time>2026-04-19T09:27:45Z</time></trkpt><trkpt lat="44.36857652663401" lon="9.455339415920903"><ele>461.0</ele><time>2026-04-19T09:27:46Z</time></trkpt><trkpt lat="44.36844925240551" lon="9.455352045155632"><ele>461.0</ele><time>2026-04-19T09:27:47Z</time></trkpt><trkpt lat="44.368337385970456" lon="9.455491957842652"><ele>461.0</ele><time>2026-04-19T09:27:48Z</time></trkpt><trkpt lat="44.368275638173166" lon="9.455700557150575"><ele>461.0</ele><time>2026-04-19T09:27:49Z</time></trkpt><trkpt lat="44.3681903003139" lon="9.455920038535163"><ele>461.0</ele><time>2026-04-19T09:27:50Z</time></trkpt><trkpt lat="44.368118719172294" lon="9.456128524524278"><ele>458.75</ele><time>2026-04-19T09:27:51Z</time></trkpt><trkpt lat="44.36804633396766" lon="9.456314798257932"><ele>456.5</ele><time>2026-04-19T09:27:52Z</time></trkpt><trkpt lat="44.367970404432825" lon="9.456491642396898"><ele>454.25</ele><time>2026-04-19T09:27:53Z</time></trkpt><trkpt lat="44.36789485001642" lon="9.456666241481663"><ele>452.0</ele><time>2026-04-19T09:27:54Z</time></trkpt><trkpt lat="44.36782072285035" lon="9.456837291930407"><ele>449.6</ele><time>2026-04-19T09:27:55Z</time></trkpt><trkpt lat="44.36775652816294" lon="9.456993514235828"><ele>447.20000000000005</ele><time>2026-04-19T09:27:56Z</time></trkpt><trkpt lat="44.367693268680135" lon="9.457127664241694"><ele>444.8</ele><time>2026-04-19T09:27:57Z</time></trkpt><trkpt lat="44.3676013871231" lon="9.457200712419743"><ele>442.4</ele><time>2026-04-19T09:27:58Z</time></trkpt><trkpt lat="44.3675055448816" lon="9.457224573144282"><ele>440.0</ele><time>2026-04-19T09:27:59Z</time></trkpt><trkpt lat="44.36740183297557" lon="9.457177293296585"><ele>440.0</ele><time>2026-04-19T09:28:00Z</time></trkpt><trkpt lat="44.36733166058911" lon="9.457076112209982"><ele>440.0</ele><time>2026-04-19T09:28:01Z</time></trkpt><trkpt lat="44.36729766212634" lon="9.456945284177632"><ele>440.0</ele><time>2026-04-19T09:28:02Z</time></trkpt><trkpt lat="44.367322787458974" lon="9.456809359829887"><ele>440.0</ele><time>2026-04-19T09:28:03Z</time></trkpt><trkpt lat="44.36738776867309" lon="9.456693613179702"><ele>440.0</ele><time>2026-04-19T09:28:04Z</time></trkpt><trkpt lat="44.367515854690865" lon="9.456686755358994"><ele>440.0</ele><time>2026-04-19T09:28:05Z</time></trkpt><trkpt lat="44.36764571931805" lon="9.456682701047677"><ele>440.0</ele><time>2026-04-19T09:28:06Z</time></trkpt><trkpt lat="44.36775126709879" lon="9.456649588261868"><ele>440.0</ele><time>2026-04-19T09:28:07Z</time></trkpt><trkpt lat="44.36781675242061" lon="9.456516396884446"><ele>440.0</ele><time>2026-04-19T09:28:08Z</time></trkpt><trkpt lat="44.36782736412956" lon="9.456358639413192"><ele>443.75</ele><time>2026-04-19T09:28:09Z</time></trkpt><trkpt lat="44.36776153533633" lon="9.456209251880821"><ele>447.5</ele><time>2026-04-19T09:28:10Z</time></trkpt><trkpt lat="44.36763238815378" lon="9.456133657284992"><ele>451.25</ele><time>2026-04-19T09:28:11Z</time></trkpt><trkpt lat="44.36747198062773" lon="9.456122661370815"><ele>455.0</ele><time>2026-04-19T09:28:12Z</time></trkpt><trkpt lat="44.36731658906886" lon="9.456085599929793"><ele>448.75</ele><time>2026-04-19T09:28:13Z</time></trkpt><trkpt lat="44.36718814029159" lon="9.456005909770326"><ele>442.5</ele><time>2026-04-19T09:28:14Z</time></trkpt><trkpt lat="44.36706462251086" lon="9.455936102741475"><ele>436.25</ele><time>2026-04-19T09:28:15Z</time></trkpt><trkpt lat="44.366891921689145" lon="9.455892699182236"><ele>430.0</ele><time>2026-04-19T09:28:16Z</time></trkpt><trkpt lat="44.36674908524035" lon="9.455866864519882"><ele>430.0</ele><time>2026-04-19T09:28:17Z</time></trkpt><trkpt lat="44.36667066906469" lon="9.455822080593565"><ele>430.0</ele><time>2026-04-19T09:28:18Z</time></trkpt><trkpt lat="44.36655792938721" lon="9.455704576127387"><ele>430.0</ele><time>2026-04-19T09:28:19Z</time></trkpt><trkpt lat="44.366413290848975" lon="9.455533653214916"><ele>430.0</ele><time>2026-04-19T09:28:20Z</time></trkpt><trkpt lat="44.36631403653678" lon="9.45542736174697"><ele>428.0</ele><time>2026-04-19T09:28:21Z</time></trkpt><trkpt lat="44.36620144507568" lon="9.455297303600311"><ele>426.0</ele><time>2026-04-19T09:28:22Z</time></trkpt><trkpt lat="44.36609382120058" lon="9.455153580204954"><ele>424.0</ele><time>2026-04-19T09:28:23Z</time></trkpt><trkpt lat="44.365991441286766" lon="9.455021462686654"><ele>422.0</ele><time>2026-04-19T09:28:24Z</time></trkpt><trkpt lat="44.36579818509776" lon="9.454897709202564"><ele>422.0</ele><time>2026-04-19T09:28:25Z</time></trkpt><trkpt lat="44.3656632260398" lon="9.454793534254236"><ele>422.0</ele><time>2026-04-19T09:28:26Z</time></trkpt><trkpt lat="44.36553677775722" lon="9.454714907853067"><ele>422.0</ele><time>2026-04-19T09:28:27Z</time></trkpt><trkpt lat="44.36541142368709" lon="9.454736826826512"><ele>422.0</ele><time>2026-04-19T09:28:28Z</time></trkpt><trkpt lat="44.36526089315959" lon="9.454800087919589"><ele>417.3333333333333</ele><time>2026-04-19T09:28:29Z</time></trkpt><trkpt lat="44.36511986823268" lon="9.454928678100119"><ele>412.66666666666663</ele><time>2026-04-19T09:28:30Z</time></trkpt><trkpt lat="44.364989106447815" lon="9.45504033635929"><ele>408.0</ele><time>2026-04-19T09:28:31Z</time></trkpt><trkpt lat="44.36486629792939" lon="9.455135280538155"><ele>408.0</ele><time>2026-04-19T09:28:32Z</time></trkpt><trkpt lat="44.36472630513964" lon="9.455152716026022"><ele>408.0</ele><time>2026-04-19T09:28:33Z</time></trkpt><trkpt lat="44.3645832232158" lon="9.455141329754179"><ele>408.0</ele><time>2026-04-19T09:28:34Z</time></trkpt><trkpt lat="44.36443631123025" lon="9.455149765090763"><ele>408.0</ele><time>2026-04-19T09:28:35Z</time></trkpt><trkpt lat="44.36426201535613" lon="9.455122022664474"><ele>407.0</ele><time>2026-04-19T09:28:36Z</time></trkpt><trkpt lat="44.364104330132506" lon="9.455156416376681"><ele>406.0</ele><time>2026-04-19T09:28:37Z</time></trkpt><trkpt lat="44.3639650744981" lon="9.455208900834592"><ele>405.0</ele><time>2026-04-19T09:28:38Z</time></trkpt><trkpt lat="44.36382355782288" lon="9.455238089478383"><ele>404.0</ele><time>2026-04-19T09:28:39Z</time></trkpt><trkpt lat="44.36367810282164" lon="9.455345235893654"><ele>405.25</ele><time>2026-04-19T09:28:39.999Z</time></trkpt><trkpt lat="44.36357117569882" lon="9.455510721061936"><ele>406.5</ele><time>2026-04-19T09:28:40.999Z</time></trkpt><trkpt lat="44.36346012105359" lon="9.455618267739847"><ele>407.75</ele><time>2026-04-19T09:28:41.999Z</time></trkpt><trkpt lat="44.36334602729792" lon="9.455614933144979"><ele>409.0</ele><time>2026-04-19T09:28:42.999Z</time></trkpt><trkpt lat="44.36323469536691" lon="9.455569553721181"><ele>409.0</ele><time>2026-04-19T09:28:43.999Z</time></trkpt><trkpt lat="44.363113489896094" lon="9.455492771391574"><ele>409.0</ele><time>2026-04-19T09:28:44.999Z</time></trkpt><trkpt lat="44.36297692800472" lon="9.455432008149248"><ele>409.0</ele><time>2026-04-19T09:28:45.999Z</time></trkpt><trkpt lat="44.362835988744514" lon="9.455399578494374"><ele>409.0</ele><time>2026-04-19T09:28:46.999Z</time></trkpt><trkpt lat="44.36267168841402" lon="9.455432679745972"><ele>405.0</ele><time>2026-04-19T09:28:47.999Z</time></trkpt><trkpt lat="44.36253339995649" lon="9.455601441002095"><ele>401.0</ele><time>2026-04-19T09:28:48.999Z</time></trkpt><trkpt lat="44.362403960859986" lon="9.455784524976663"><ele>397.0</ele><time>2026-04-19T09:28:49.999Z</time></trkpt><trkpt lat="44.36228132744544" lon="9.455945794880693"><ele>397.33333333333337</ele><time>2026-04-19T09:28:50.999Z</time></trkpt><trkpt lat="44.362122040509234" lon="9.45607623171386"><ele>397.66666666666663</ele><time>2026-04-19T09:28:51.999Z</time></trkpt><trkpt lat="44.36195825753035" lon="9.456206057707755"><ele>398.0</ele><time>2026-04-19T09:28:52.999Z</time></trkpt><trkpt lat="44.36181627233579" lon="9.456322126938701"><ele>398.0</ele><time>2026-04-19T09:28:53.999Z</time></trkpt><trkpt lat="44.361681188937574" lon="9.456432473734592"><ele>398.0</ele><time>2026-04-19T09:28:54.999Z</time></trkpt><trkpt lat="44.361540494408885" lon="9.456528281241267"><ele>398.0</ele><time>2026-04-19T09:28:55.999Z</time></trkpt><trkpt lat="44.36142077131064" lon="9.45655677952942"><ele>398.0</ele><time>2026-04-19T09:28:56.999Z</time></trkpt><trkpt lat="44.36126927351045" lon="9.45657129031573"><ele>398.5</ele><time>2026-04-19T09:28:57.999Z</time></trkpt><trkpt lat="44.36113717888237" lon="9.456568721170454"><ele>399.0</ele><time>2026-04-19T09:28:58.999Z</time></trkpt><trkpt lat="44.36104407610481" lon="9.456521686806758"><ele>399.5</ele><time>2026-04-19T09:28:59.999Z</time></trkpt><trkpt lat="44.360893952762474" lon="9.45641656056789"><ele>400.0</ele><time>2026-04-19T09:29:00.999Z</time></trkpt><trkpt lat="44.36073145924478" lon="9.456265232087041"><ele>396.0</ele><time>2026-04-19T09:29:01.999Z</time></trkpt><trkpt lat="44.36060638952632" lon="9.456120835290255"><ele>392.0</ele><time>2026-04-19T09:29:02.999Z</time></trkpt><trkpt lat="44.36048461942176" lon="9.456006867352542"><ele>388.0</ele><time>2026-04-19T09:29:03.999Z</time></trkpt><trkpt lat="44.360375919403175" lon="9.455910413450463"><ele>384.0</ele><time>2026-04-19T09:29:04.999Z</time></trkpt><trkpt lat="44.360253098970745" lon="9.455873057052091"><ele>383.75</ele><time>2026-04-19T09:29:05.999Z</time></trkpt><trkpt lat="44.360124727418906" lon="9.455880443925997"><ele>383.5</ele><time>2026-04-19T09:29:06.999Z</time></trkpt><trkpt lat="44.35998037282069" lon="9.455936065547789"><ele>383.25</ele><time>2026-04-19T09:29:07.999Z</time></trkpt><trkpt lat="44.35985553521804" lon="9.456026004767299"><ele>383.0</ele><time>2026-04-19T09:29:08.999Z</time></trkpt><trkpt lat="44.35972328524296" lon="9.456098925699285"><ele>381.5</ele><time>2026-04-19T09:29:09.999Z</time></trkpt><trkpt lat="44.35958066872042" lon="9.456231699168168"><ele>380.0</ele><time>2026-04-19T09:29:10.999Z</time></trkpt><trkpt lat="44.359457816750535" lon="9.456344028567095"><ele>378.5</ele><time>2026-04-19T09:29:11.999Z</time></trkpt><trkpt lat="44.35933562879076" lon="9.456404979408779"><ele>377.0</ele><time>2026-04-19T09:29:12.999Z</time></trkpt><trkpt lat="44.35921536067873" lon="9.456441051636395"><ele>376.20000000000005</ele><time>2026-04-19T09:29:13.999Z</time></trkpt><trkpt lat="44.359099582785554" lon="9.456425131413724"><ele>375.4</ele><time>2026-04-19T09:29:14.999Z</time></trkpt><trkpt lat="44.35900838453203" lon="9.45641405484835"><ele>374.6</ele><time>2026-04-19T09:29:15.999Z</time></trkpt><trkpt lat="44.3588760522106" lon="9.45636483706325"><ele>373.79999999999995</ele><time>2026-04-19T09:29:16.999Z</time></trkpt><trkpt lat="44.358812466775795" lon="9.456258243039871"><ele>373.0</ele><time>2026-04-19T09:29:17.999Z</time></trkpt><trkpt lat="44.35884465338867" lon="9.456133338140619"><ele>373.0</ele><time>2026-04-19T09:29:18.999Z</time></trkpt><trkpt lat="44.35878041074843" lon="9.45592959913175"><ele>373.0</ele><time>2026-04-19T09:29:19.999Z</time></trkpt><trkpt lat="44.358680635044465" lon="9.455754827889153"><ele>373.0</ele><time>2026-04-19T09:29:20.999Z</time></trkpt><trkpt lat="44.35848148243429" lon="9.45553835726406"><ele>373.0</ele><time>2026-04-19T09:29:21.999Z</time></trkpt><trkpt lat="44.3583743304259" lon="9.455511065726359"><ele>373.0</ele><time>2026-04-19T09:29:22.999Z</time></trkpt><trkpt lat="44.35824669930431" lon="9.455585007083815"><ele>373.0</ele><time>2026-04-19T09:29:23.999Z</time></trkpt><trkpt lat="44.35814380780181" lon="9.455737029858858"><ele>373.0</ele><time>2026-04-19T09:29:24.999Z</time></trkpt><trkpt lat="44.35805355050195" lon="9.45594341849752"><ele>370.66666666666663</ele><time>2026-04-19T09:29:25.999Z</time></trkpt><trkpt lat="44.357925829633764" lon="9.456101729089255"><ele>368.3333333333333</ele><time>2026-04-19T09:29:26.999Z</time></trkpt><trkpt lat="44.35780584014743" lon="9.45621848547723"><ele>366.0</ele><time>2026-04-19T09:29:27.999Z</time></trkpt><trkpt lat="44.35766791738183" lon="9.456258598912113"><ele>366.0</ele><time>2026-04-19T09:29:28.999Z</time></trkpt><trkpt lat="44.35752106931062" lon="9.456243164178671"><ele>366.0</ele><time>2026-04-19T09:29:29.999Z</time></trkpt><trkpt lat="44.35737933909193" lon="9.456204174437596"><ele>366.0</ele><time>2026-04-19T09:29:30.999Z</time></trkpt><trkpt lat="44.35727639034606" lon="9.456090089110626"><ele>366.0</ele><time>2026-04-19T09:29:31.999Z</time></trkpt><trkpt lat="44.357171681201706" lon="9.455925826688848"><ele>366.0</ele><time>2026-04-19T09:29:32.999Z</time></trkpt><trkpt lat="44.3570752049548" lon="9.455776978149764"><ele>366.0</ele><time>2026-04-19T09:29:33.999Z</time></trkpt><trkpt lat="44.35696909395798" lon="9.455645350753636"><ele>366.0</ele><time>2026-04-19T09:29:34.999Z</time></trkpt><trkpt lat="44.356850842630095" lon="9.455553121178754"><ele>366.0</ele><time>2026-04-19T09:29:35.999Z</time></trkpt><trkpt lat="44.35672979248246" lon="9.45550564394151"><ele>366.0</ele><time>2026-04-19T09:29:36.999Z</time></trkpt><trkpt lat="44.356586060215974" lon="9.455495516876338"><ele>366.0</ele><time>2026-04-19T09:29:37.999Z</time></trkpt><trkpt lat="44.35644230061322" lon="9.45553248456894"><ele>366.0</ele><time>2026-04-19T09:29:38.999Z</time></trkpt><trkpt lat="44.35629325530075" lon="9.455592603798138"><ele>366.0</ele><time>2026-04-19T09:29:39.999Z</time></trkpt><trkpt lat="44.35614476945358" lon="9.455698700081662"><ele>360.6666666666667</ele><time>2026-04-19T09:29:41Z</time></trkpt><trkpt lat="44.35597580290507" lon="9.455815381846113"><ele>355.33333333333337</ele><time>2026-04-19T09:29:42Z</time></trkpt><trkpt lat="44.355813954433536" lon="9.455898480156824"><ele>350.0</ele><time>2026-04-19T09:29:43Z</time></trkpt><trkpt lat="44.355677190213754" lon="9.455986425625188"><ele>350.0</ele><time>2026-04-19T09:29:44Z</time></trkpt><trkpt lat="44.35555595537674" lon="9.456101149053241"><ele>350.0</ele><time>2026-04-19T09:29:45Z</time></trkpt><trkpt lat="44.35546686401063" lon="9.456242556974509"><ele>350.0</ele><time>2026-04-19T09:29:46Z</time></trkpt><trkpt lat="44.35540694622375" lon="9.45637743393147"><ele>350.0</ele><time>2026-04-19T09:29:47Z</time></trkpt><trkpt lat="44.35540831962617" lon="9.456515882196022"><ele>351.0</ele><time>2026-04-19T09:29:48Z</time></trkpt><trkpt lat="44.35544049358544" lon="9.45664665083182"><ele>352.0</ele><time>2026-04-19T09:29:49Z</time></trkpt><trkpt lat="44.355507016006364" lon="9.456786437386832"><ele>353.0</ele><time>2026-04-19T09:29:50Z</time></trkpt><trkpt lat="44.35565108355887" lon="9.456858304313219"><ele>354.0</ele><time>2026-04-19T09:29:51Z</time></trkpt><trkpt lat="44.355795313509454" lon="9.456933099531748"><ele>354.0</ele><time>2026-04-19T09:29:52Z</time></trkpt><trkpt lat="44.35592497712324" lon="9.457071875479397"><ele>354.0</ele><time>2026-04-19T09:29:53Z</time></trkpt><trkpt lat="44.35600011781851" lon="9.457243687097247"><ele>354.0</ele><time>2026-04-19T09:29:54Z</time></trkpt><trkpt lat="44.35606759036085" lon="9.457398776024096"><ele>354.0</ele><time>2026-04-19T09:29:55Z</time></trkpt><trkpt lat="44.35613672654829" lon="9.457559996642626"><ele>349.5</ele><time>2026-04-19T09:29:56Z</time></trkpt><trkpt lat="44.35619285935709" lon="9.457714650968803"><ele>345.0</ele><time>2026-04-19T09:29:57Z</time></trkpt><trkpt lat="44.35621628729697" lon="9.457875950845303"><ele>340.5</ele><time>2026-04-19T09:29:58Z</time></trkpt><trkpt lat="44.35621065581406" lon="9.458071060940236"><ele>336.0</ele><time>2026-04-19T09:29:59Z</time></trkpt><trkpt lat="44.35619778930773" lon="9.458279490812757"><ele>338.0</ele><time>2026-04-19T09:30:00Z</time></trkpt><trkpt lat="44.35620002585964" lon="9.458477031822358"><ele>340.0</ele><time>2026-04-19T09:30:01Z</time></trkpt><trkpt lat="44.35616150997083" lon="9.45865390124606"><ele>342.0</ele><time>2026-04-19T09:30:02Z</time></trkpt><trkpt lat="44.3561086296421" lon="9.458807463168096"><ele>344.0</ele><time>2026-04-19T09:30:03Z</time></trkpt><trkpt lat="44.3560074104835" lon="9.458938902971019"><ele>344.0</ele><time>2026-04-19T09:30:04Z</time></trkpt><trkpt lat="44.355905622118186" lon="9.459006810413408"><ele>344.0</ele><time>2026-04-19T09:30:05Z</time></trkpt><trkpt lat="44.35585328876899" lon="9.459063695169755"><ele>344.0</ele><time>2026-04-19T09:30:06Z</time></trkpt><trkpt lat="44.35579636077209" lon="9.459115121421474"><ele>344.0</ele><time>2026-04-19T09:30:12Z</time></trkpt><trkpt lat="44.35566258791215" lon="9.45919359610959"><ele>344.0</ele><time>2026-04-19T09:30:16Z</time></trkpt><trkpt lat="44.35556336575406" lon="9.459236880859253"><ele>343.2</ele><time>2026-04-19T09:30:17Z</time></trkpt><trkpt lat="44.35547167883829" lon="9.459218024183299"><ele>342.4</ele><time>2026-04-19T09:30:18Z</time></trkpt><trkpt lat="44.3553734856792" lon="9.459170615751058"><ele>341.6</ele><time>2026-04-19T09:30:19Z</time></trkpt><trkpt lat="44.35527531302326" lon="9.459103787170642"><ele>340.8</ele><time>2026-04-19T09:30:20Z</time></trkpt><trkpt lat="44.355173168760366" lon="9.45902466939668"><ele>340.0</ele><time>2026-04-19T09:30:21Z</time></trkpt><trkpt lat="44.35504733794259" lon="9.45895341892133"><ele>340.0</ele><time>2026-04-19T09:30:22Z</time></trkpt><trkpt lat="44.3549255351169" lon="9.458839951384604"><ele>340.0</ele><time>2026-04-19T09:30:23Z</time></trkpt><trkpt lat="44.35479213350116" lon="9.45871004746431"><ele>340.0</ele><time>2026-04-19T09:30:24Z</time></trkpt><trkpt lat="44.354668874358865" lon="9.458577755331218"><ele>333.25</ele><time>2026-04-19T09:30:25Z</time></trkpt><trkpt lat="44.35454512163843" lon="9.458456182639303"><ele>326.5</ele><time>2026-04-19T09:30:26Z</time></trkpt><trkpt lat="44.35443064800818" lon="9.458332716024143"><ele>319.75</ele><time>2026-04-19T09:30:27Z</time></trkpt><trkpt lat="44.35429086793681" lon="9.45827302853895"><ele>313.0</ele><time>2026-04-19T09:30:28Z</time></trkpt><trkpt lat="44.354137846121205" lon="9.45830583751323"><ele>313.0</ele><time>2026-04-19T09:30:29Z</time></trkpt><trkpt lat="44.35400272331546" lon="9.458318995558379"><ele>313.0</ele><time>2026-04-19T09:30:30Z</time></trkpt><trkpt lat="44.35390675729067" lon="9.458411911718049"><ele>313.0</ele><time>2026-04-19T09:30:31Z</time></trkpt><trkpt lat="44.35381269813068" lon="9.458515593087297"><ele>313.0</ele><time>2026-04-19T09:30:32Z</time></trkpt><trkpt lat="44.3537584580225" lon="9.458676795679764"><ele>309.0</ele><time>2026-04-19T09:30:33Z</time></trkpt><trkpt lat="44.353721631470954" lon="9.458871237201583"><ele>305.0</ele><time>2026-04-19T09:30:34Z</time></trkpt><trkpt lat="44.353708860325334" lon="9.459096346716821"><ele>301.0</ele><time>2026-04-19T09:30:35Z</time></trkpt><trkpt lat="44.35368353899894" lon="9.45932093647305"><ele>301.0</ele><time>2026-04-19T09:30:36Z</time></trkpt><trkpt lat="44.353630042424186" lon="9.459508987486982"><ele>301.0</ele><time>2026-04-19T09:30:37Z</time></trkpt><trkpt lat="44.35357775849056" lon="9.459678479807659"><ele>301.0</ele><time>2026-04-19T09:30:38Z</time></trkpt><trkpt lat="44.3535396692657" lon="9.459873671478418"><ele>301.0</ele><time>2026-04-19T09:30:39Z</time></trkpt><trkpt lat="44.35353407713888" lon="9.460067414255253"><ele>303.25</ele><time>2026-04-19T09:30:40Z</time></trkpt><trkpt lat="44.353507562201514" lon="9.46023167302417"><ele>305.5</ele><time>2026-04-19T09:30:41Z</time></trkpt><trkpt lat="44.353447221136896" lon="9.460361272725393"><ele>307.75</ele><time>2026-04-19T09:30:42Z</time></trkpt><trkpt lat="44.35335200359801" lon="9.460449989859969"><ele>310.0</ele><time>2026-04-19T09:30:43Z</time></trkpt><trkpt lat="44.35323027272039" lon="9.460586294332392"><ele>315.25</ele><time>2026-04-19T09:30:44Z</time></trkpt><trkpt lat="44.35312629389866" lon="9.460708468586613"><ele>320.5</ele><time>2026-04-19T09:30:45Z</time></trkpt><trkpt lat="44.35301978560147" lon="9.460785299799527"><ele>325.75</ele><time>2026-04-19T09:30:46Z</time></trkpt><trkpt lat="44.35291256033584" lon="9.460796521810224"><ele>331.0</ele><time>2026-04-19T09:30:47Z</time></trkpt><trkpt lat="44.35281582329408" lon="9.460752498047679"><ele>331.0</ele><time>2026-04-19T09:30:48Z</time></trkpt><trkpt lat="44.352667221121024" lon="9.460633109157557"><ele>331.0</ele><time>2026-04-19T09:30:49Z</time></trkpt><trkpt lat="44.352575961365936" lon="9.460465576076388"><ele>331.0</ele><time>2026-04-19T09:30:50Z</time></trkpt><trkpt lat="44.352508737643944" lon="9.460269993349012"><ele>323.5</ele><time>2026-04-19T09:30:51Z</time></trkpt><trkpt lat="44.352494490639856" lon="9.460081568531338"><ele>316.0</ele><time>2026-04-19T09:30:52Z</time></trkpt><trkpt lat="44.35248743969354" lon="9.459870576385361"><ele>308.5</ele><time>2026-04-19T09:30:53Z</time></trkpt><trkpt lat="44.3524646647823" lon="9.45966818985229"><ele>301.0</ele><time>2026-04-19T09:30:54Z</time></trkpt><trkpt lat="44.35244466041463" lon="9.459507841483047"><ele>298.75</ele><time>2026-04-19T09:30:54.999Z</time></trkpt><trkpt lat="44.35235110375997" lon="9.459370750693207"><ele>296.5</ele><time>2026-04-19T09:30:55.999Z</time></trkpt><trkpt lat="44.352229875089904" lon="9.459242025507388"><ele>294.25</ele><time>2026-04-19T09:30:56.999Z</time></trkpt><trkpt lat="44.35211121189335" lon="9.459194796860446"><ele>292.0</ele><time>2026-04-19T09:30:57.999Z</time></trkpt><trkpt lat="44.35199919215597" lon="9.459265080319362"><ele>291.75</ele><time>2026-04-19T09:30:58.999Z</time></trkpt><trkpt lat="44.35193171744322" lon="9.45939857544636"><ele>291.5</ele><time>2026-04-19T09:30:59.999Z</time></trkpt><trkpt lat="44.35189764052615" lon="9.459585625270934"><ele>291.25</ele><time>2026-04-19T09:31:00.999Z</time></trkpt><trkpt lat="44.35183639487686" lon="9.45973370994533"><ele>291.0</ele><time>2026-04-19T09:31:01.999Z</time></trkpt><trkpt lat="44.35169459646859" lon="9.459733480745129"><ele>296.3333333333333</ele><time>2026-04-19T09:31:02.999Z</time></trkpt><trkpt lat="44.35153972528597" lon="9.459741343615583"><ele>301.66666666666663</ele><time>2026-04-19T09:31:03.999Z</time></trkpt><trkpt lat="44.35135532826387" lon="9.459780874166581"><ele>307.0</ele><time>2026-04-19T09:31:04.999Z</time></trkpt><trkpt lat="44.3512111390294" lon="9.459795774567858"><ele>307.5</ele><time>2026-04-19T09:31:05.999Z</time></trkpt><trkpt lat="44.351049378008526" lon="9.459819826053256"><ele>308.0</ele><time>2026-04-19T09:31:06.999Z</time></trkpt><trkpt lat="44.350907710297825" lon="9.459835626193232"><ele>308.5</ele><time>2026-04-19T09:31:07.999Z</time></trkpt><trkpt lat="44.35077217260841" lon="9.4598099818308"><ele>309.0</ele><time>2026-04-19T09:31:08.999Z</time></trkpt><trkpt lat="44.35064273012918" lon="9.459761591300897"><ele>307.0</ele><time>2026-04-19T09:31:09.999Z</time></trkpt><trkpt lat="44.35053854278997" lon="9.459679107957179"><ele>305.0</ele><time>2026-04-19T09:31:10.999Z</time></trkpt><trkpt lat="44.35043894886205" lon="9.459556523879984"><ele>303.0</ele><time>2026-04-19T09:31:11.999Z</time></trkpt><trkpt lat="44.350388230519435" lon="9.459374725262215"><ele>301.0</ele><time>2026-04-19T09:31:12.999Z</time></trkpt><trkpt lat="44.350350976724215" lon="9.459190055063589"><ele>301.0</ele><time>2026-04-19T09:31:13.999Z</time></trkpt><trkpt lat="44.35033053493872" lon="9.459008116255275"><ele>301.0</ele><time>2026-04-19T09:31:14.999Z</time></trkpt><trkpt lat="44.35028364319232" lon="9.458856943057755"><ele>301.0</ele><time>2026-04-19T09:31:15.999Z</time></trkpt><trkpt lat="44.35022606082395" lon="9.458724773468909"><ele>301.0</ele><time>2026-04-19T09:31:16.999Z</time></trkpt><trkpt lat="44.35011095274044" lon="9.458630478037492"><ele>293.66666666666663</ele><time>2026-04-19T09:31:17.999Z</time></trkpt><trkpt lat="44.34995110693797" lon="9.458585353635854"><ele>286.3333333333333</ele><time>2026-04-19T09:31:18.999Z</time></trkpt><trkpt lat="44.349775262857065" lon="9.45854814927335"><ele>279.0</ele><time>2026-04-19T09:31:19.999Z</time></trkpt><trkpt lat="44.34959813842101" lon="9.458536807162815"><ele>276.6666666666667</ele><time>2026-04-19T09:31:20.999Z</time></trkpt><trkpt lat="44.3494204905573" lon="9.45854365575389"><ele>274.33333333333337</ele><time>2026-04-19T09:31:21.999Z</time></trkpt><trkpt lat="44.349255386776925" lon="9.458567774117178"><ele>272.0</ele><time>2026-04-19T09:31:22.999Z</time></trkpt><trkpt lat="44.3491053447776" lon="9.458614440681393"><ele>272.0</ele><time>2026-04-19T09:31:23.999Z</time></trkpt><trkpt lat="44.348965377354645" lon="9.458720854458265"><ele>272.0</ele><time>2026-04-19T09:31:24.999Z</time></trkpt><trkpt lat="44.34883489770372" lon="9.458877957237116"><ele>272.0</ele><time>2026-04-19T09:31:25.999Z</time></trkpt><trkpt lat="44.348677121759515" lon="9.458999154565817"><ele>272.33333333333337</ele><time>2026-04-19T09:31:26.999Z</time></trkpt><trkpt lat="44.348515467499894" lon="9.45906151837859"><ele>272.6666666666667</ele><time>2026-04-19T09:31:27.999Z</time></trkpt><trkpt lat="44.348365216636104" lon="9.459197164262214"><ele>273.0</ele><time>2026-04-19T09:31:28.999Z</time></trkpt><trkpt lat="44.34822518450212" lon="9.45925468007682"><ele>273.0</ele><time>2026-04-19T09:31:29.999Z</time></trkpt><trkpt lat="44.34809310400192" lon="9.459279227797365"><ele>273.0</ele><time>2026-04-19T09:31:30.999Z</time></trkpt><trkpt lat="44.34796830021097" lon="9.459255513152488"><ele>273.0</ele><time>2026-04-19T09:31:31.999Z</time></trkpt><trkpt lat="44.34786543461828" lon="9.459180917800667"><ele>273.0</ele><time>2026-04-19T09:31:32.999Z</time></trkpt><trkpt lat="44.34777110173501" lon="9.459051089019407"><ele>270.0</ele><time>2026-04-19T09:31:33.999Z</time></trkpt><trkpt lat="44.3476435144054" lon="9.459013147460926"><ele>267.0</ele><time>2026-04-19T09:31:34.999Z</time></trkpt><trkpt lat="44.347518688782216" lon="9.459083227226525"><ele>264.0</ele><time>2026-04-19T09:31:35.999Z</time></trkpt><trkpt lat="44.347425993232555" lon="9.45914403982504"><ele>261.0</ele><time>2026-04-19T09:31:36.999Z</time></trkpt><trkpt lat="44.34730189157346" lon="9.459346829696587"><ele>261.0</ele><time>2026-04-19T09:31:37.999Z</time></trkpt><trkpt lat="44.34724908645593" lon="9.459479514045434"><ele>261.0</ele><time>2026-04-19T09:31:38.999Z</time></trkpt><trkpt lat="44.34713113646195" lon="9.459505726103727"><ele>261.0</ele><time>2026-04-19T09:31:39.999Z</time></trkpt><trkpt lat="44.3469689510813" lon="9.459451745556883"><ele>261.0</ele><time>2026-04-19T09:31:40.999Z</time></trkpt><trkpt lat="44.346791050204374" lon="9.459391572986188"><ele>259.0</ele><time>2026-04-19T09:31:41.999Z</time></trkpt><trkpt lat="44.34660217435828" lon="9.45936467888533"><ele>257.0</ele><time>2026-04-19T09:31:42.999Z</time></trkpt><trkpt lat="44.34646631472695" lon="9.45937376388679"><ele>255.0</ele><time>2026-04-19T09:31:43.999Z</time></trkpt><trkpt lat="44.3463315223568" lon="9.459354442672963"><ele>259.3333333333333</ele><time>2026-04-19T09:31:44.999Z</time></trkpt><trkpt lat="44.346249540224264" lon="9.459252651301599"><ele>263.66666666666663</ele><time>2026-04-19T09:31:45.999Z</time></trkpt><trkpt lat="44.346152828921504" lon="9.459085055349183"><ele>268.0</ele><time>2026-04-19T09:31:47Z</time></trkpt><trkpt lat="44.34600045357033" lon="9.458884020830236"><ele>261.66666666666663</ele><time>2026-04-19T09:31:48Z</time></trkpt><trkpt lat="44.34583284672789" lon="9.458744495308293"><ele>255.33333333333331</ele><time>2026-04-19T09:31:49Z</time></trkpt><trkpt lat="44.34568360594875" lon="9.45855375528422"><ele>249.0</ele><time>2026-04-19T09:31:50Z</time></trkpt><trkpt lat="44.34553527438263" lon="9.458387586385467"><ele>248.25</ele><time>2026-04-19T09:31:51Z</time></trkpt><trkpt lat="44.34540998093998" lon="9.458250464524346"><ele>247.5</ele><time>2026-04-19T09:31:52Z</time></trkpt><trkpt lat="44.34530031361695" lon="9.458131878090482"><ele>246.75</ele><time>2026-04-19T09:31:53Z</time></trkpt><trkpt lat="44.345220131009384" lon="9.458012890553038"><ele>246.0</ele><time>2026-04-19T09:31:54Z</time></trkpt><trkpt lat="44.345159623205795" lon="9.45788439000604"><ele>245.75</ele><time>2026-04-19T09:31:55Z</time></trkpt><trkpt lat="44.345139833009725" lon="9.45771033827434"><ele>245.5</ele><time>2026-04-19T09:31:56Z</time></trkpt><trkpt lat="44.34511249475437" lon="9.457532965275265"><ele>245.25</ele><time>2026-04-19T09:31:57Z</time></trkpt><trkpt lat="44.34507378029776" lon="9.457332270752099"><ele>245.0</ele><time>2026-04-19T09:31:58Z</time></trkpt><trkpt lat="44.34501332096237" lon="9.45716090747535"><ele>243.25</ele><time>2026-04-19T09:31:59Z</time></trkpt><trkpt lat="44.34494857903222" lon="9.457021145024317"><ele>241.5</ele><time>2026-04-19T09:32:00Z</time></trkpt><trkpt lat="44.3447984132572" lon="9.456958211023437"><ele>239.75</ele><time>2026-04-19T09:32:01Z</time></trkpt><trkpt lat="44.34468133711598" lon="9.456845303569683"><ele>238.0</ele><time>2026-04-19T09:32:02Z</time></trkpt><trkpt lat="44.34456741895806" lon="9.456741966428844"><ele>237.0</ele><time>2026-04-19T09:32:03Z</time></trkpt><trkpt lat="44.34446616865068" lon="9.456637647975478"><ele>236.0</ele><time>2026-04-19T09:32:04Z</time></trkpt><trkpt lat="44.344369134665676" lon="9.456522894140154"><ele>235.0</ele><time>2026-04-19T09:32:05Z</time></trkpt><trkpt lat="44.344340511124095" lon="9.45633864440389"><ele>234.0</ele><time>2026-04-19T09:32:06Z</time></trkpt><trkpt lat="44.34430406301454" lon="9.45617712446604"><ele>234.0</ele><time>2026-04-19T09:32:07Z</time></trkpt><trkpt lat="44.344263344607704" lon="9.456038637062179"><ele>233.99999999999997</ele><time>2026-04-19T09:32:08Z</time></trkpt><trkpt lat="44.3442044505819" lon="9.455915056721313"><ele>233.99999999999997</ele><time>2026-04-19T09:32:09Z</time></trkpt><trkpt lat="44.344098232194284" lon="9.455862422985156"><ele>234.0</ele><time>2026-04-19T09:32:10Z</time></trkpt><trkpt lat="44.34397835241581" lon="9.455894132552283"><ele>234.0</ele><time>2026-04-19T09:32:11Z</time></trkpt><trkpt lat="44.343849845279166" lon="9.455990000453179"><ele>235.0</ele><time>2026-04-19T09:32:12Z</time></trkpt><trkpt lat="44.343731798587065" lon="9.456111506618436"><ele>236.0</ele><time>2026-04-19T09:32:13Z</time></trkpt><trkpt lat="44.34358741694482" lon="9.456101924417409"><ele>237.0</ele><time>2026-04-19T09:32:14Z</time></trkpt><trkpt lat="44.34346534759672" lon="9.456038922435516"><ele>238.0</ele><time>2026-04-19T09:32:15Z</time></trkpt><trkpt lat="44.34335156176376" lon="9.45591279025112"><ele>238.0</ele><time>2026-04-19T09:32:16Z</time></trkpt><trkpt lat="44.343235072878905" lon="9.455724725636218"><ele>238.0</ele><time>2026-04-19T09:32:17Z</time></trkpt><trkpt lat="44.34310785597815" lon="9.455521448732505"><ele>238.0</ele><time>2026-04-19T09:32:18Z</time></trkpt><trkpt lat="44.34299442388433" lon="9.455342550688824"><ele>241.33333333333331</ele><time>2026-04-19T09:32:19Z</time></trkpt><trkpt lat="44.342879407844386" lon="9.455161583639297"><ele>244.66666666666669</ele><time>2026-04-19T09:32:20Z</time></trkpt><trkpt lat="44.34277303126823" lon="9.454979109058824"><ele>248.0</ele><time>2026-04-19T09:32:21Z</time></trkpt><trkpt lat="44.34266913646744" lon="9.45479950324066"><ele>240.0</ele><time>2026-04-19T09:32:22Z</time></trkpt><trkpt lat="44.34258157763094" lon="9.454605465765736"><ele>232.0</ele><time>2026-04-19T09:32:23Z</time></trkpt><trkpt lat="44.342490494569034" lon="9.454435369227074"><ele>224.0</ele><time>2026-04-19T09:32:24Z</time></trkpt><trkpt lat="44.342373059579835" lon="9.454293152950244"><ele>224.0</ele><time>2026-04-19T09:32:25Z</time></trkpt><trkpt lat="44.34225450404758" lon="9.454191745280657"><ele>224.0</ele><time>2026-04-19T09:32:26Z</time></trkpt><trkpt lat="44.34210234064464" lon="9.454103505748384"><ele>224.0</ele><time>2026-04-19T09:32:27Z</time></trkpt><trkpt lat="44.34195508307875" lon="9.454040534100386"><ele>223.5</ele><time>2026-04-19T09:32:28Z</time></trkpt><trkpt lat="44.341821437733905" lon="9.453985566696701"><ele>223.0</ele><time>2026-04-19T09:32:29Z</time></trkpt><trkpt lat="44.34172153465864" lon="9.453887349535023"><ele>222.5</ele><time>2026-04-19T09:32:30Z</time></trkpt><trkpt lat="44.34166196890026" lon="9.453743490159987"><ele>222.0</ele><time>2026-04-19T09:32:31Z</time></trkpt><trkpt lat="44.34166522035923" lon="9.453565465844127"><ele>222.0</ele><time>2026-04-19T09:32:32Z</time></trkpt><trkpt lat="44.34165042623448" lon="9.453346868887238"><ele>222.0</ele><time>2026-04-19T09:32:33Z</time></trkpt><trkpt lat="44.34160041136342" lon="9.45316816526996"><ele>222.0</ele><time>2026-04-19T09:32:34Z</time></trkpt><trkpt lat="44.341511855344415" lon="9.4529903989442"><ele>222.0</ele><time>2026-04-19T09:32:35Z</time></trkpt><trkpt lat="44.34140629930137" lon="9.452823085908182"><ele>226.0</ele><time>2026-04-19T09:32:36Z</time></trkpt><trkpt lat="44.34129756839362" lon="9.452647396688475"><ele>230.0</ele><time>2026-04-19T09:32:37Z</time></trkpt><trkpt lat="44.341202803208965" lon="9.45248226451748"><ele>234.0</ele><time>2026-04-19T09:32:38Z</time></trkpt><trkpt lat="44.34114317524938" lon="9.452286117594634"><ele>234.0</ele><time>2026-04-19T09:32:39Z</time></trkpt><trkpt lat="44.341052597734816" lon="9.452141866226704"><ele>234.0</ele><time>2026-04-19T09:32:40Z</time></trkpt><trkpt lat="44.340989231876556" lon="9.451982595180006"><ele>234.0</ele><time>2026-04-19T09:32:41Z</time></trkpt><trkpt lat="44.3409723187245" lon="9.451797117917708"><ele>234.0</ele><time>2026-04-19T09:32:42Z</time></trkpt><trkpt lat="44.340980670868966" lon="9.451596763678097"><ele>231.5</ele><time>2026-04-19T09:32:43Z</time></trkpt><trkpt lat="44.34097028845489" lon="9.451387346534416"><ele>229.0</ele><time>2026-04-19T09:32:44Z</time></trkpt><trkpt lat="44.34093333445122" lon="9.451193177571101"><ele>226.5</ele><time>2026-04-19T09:32:45Z</time></trkpt><trkpt lat="44.34084650392198" lon="9.451038120280304"><ele>224.0</ele><time>2026-04-19T09:32:46Z</time></trkpt><trkpt lat="44.34071985554143" lon="9.450918303188622"><ele>223.0</ele><time>2026-04-19T09:32:47Z</time></trkpt><trkpt lat="44.34057568762265" lon="9.450824331491633"><ele>222.0</ele><time>2026-04-19T09:32:48Z</time></trkpt><trkpt lat="44.34047523839517" lon="9.450688411639982"><ele>221.0</ele><time>2026-04-19T09:32:49Z</time></trkpt><trkpt lat="44.34037962824356" lon="9.450576045015621"><ele>220.0</ele><time>2026-04-19T09:32:50Z</time></trkpt><trkpt lat="44.340324947096434" lon="9.450374311554912"><ele>220.0</ele><time>2026-04-19T09:32:51Z</time></trkpt><trkpt lat="44.34027572538491" lon="9.450140346184071"><ele>220.0</ele><time>2026-04-19T09:32:52Z</time></trkpt><trkpt lat="44.34022161805338" lon="9.449918978696264"><ele>220.0</ele><time>2026-04-19T09:32:53Z</time></trkpt><trkpt lat="44.340152013404634" lon="9.449709875858122"><ele>217.33333333333331</ele><time>2026-04-19T09:32:54Z</time></trkpt><trkpt lat="44.34007123637669" lon="9.449516781218751"><ele>214.66666666666669</ele><time>2026-04-19T09:32:55Z</time></trkpt><trkpt lat="44.33998435265074" lon="9.449307578023882"><ele>212.0</ele><time>2026-04-19T09:32:56Z</time></trkpt><trkpt lat="44.33990160204644" lon="9.449113824034725"><ele>212.0</ele><time>2026-04-19T09:32:57Z</time></trkpt><trkpt lat="44.33983143139698" lon="9.448928274054056"><ele>212.0</ele><time>2026-04-19T09:32:58Z</time></trkpt><trkpt lat="44.33976721118241" lon="9.448744685612628"><ele>212.0</ele><time>2026-04-19T09:32:59Z</time></trkpt><trkpt lat="44.339687088148544" lon="9.44858467289197"><ele>212.0</ele><time>2026-04-19T09:33:00Z</time></trkpt><trkpt lat="44.33956651078347" lon="9.448466843353279"><ele>213.66666666666669</ele><time>2026-04-19T09:33:01Z</time></trkpt><trkpt lat="44.33940671420777" lon="9.448409879601666"><ele>215.33333333333331</ele><time>2026-04-19T09:33:02Z</time></trkpt><trkpt lat="44.33926281653452" lon="9.448292451642851"><ele>217.0</ele><time>2026-04-19T09:33:03Z</time></trkpt><trkpt lat="44.33914364289143" lon="9.448157249329462"><ele>217.0</ele><time>2026-04-19T09:33:04Z</time></trkpt><trkpt lat="44.339019500883765" lon="9.448003500385346"><ele>217.0</ele><time>2026-04-19T09:33:05Z</time></trkpt><trkpt lat="44.33889022969928" lon="9.447853109660349"><ele>217.0</ele><time>2026-04-19T09:33:06Z</time></trkpt><trkpt lat="44.33875495477729" lon="9.44774380329462"><ele>215.5</ele><time>2026-04-19T09:33:07Z</time></trkpt><trkpt lat="44.338632233340846" lon="9.447634771526019"><ele>214.0</ele><time>2026-04-19T09:33:08Z</time></trkpt><trkpt lat="44.338514963408" lon="9.447555069545333"><ele>212.5</ele><time>2026-04-19T09:33:09Z</time></trkpt><trkpt lat="44.338414684759826" lon="9.447464266441102"><ele>211.0</ele><time>2026-04-19T09:33:10Z</time></trkpt><trkpt lat="44.338302051848544" lon="9.447410305940807"><ele>211.0</ele><time>2026-04-19T09:33:10.999Z</time></trkpt><trkpt lat="44.338196844622" lon="9.447357607047168"><ele>211.0</ele><time>2026-04-19T09:33:11.999Z</time></trkpt><trkpt lat="44.33809831532535" lon="9.447264595606855"><ele>211.0</ele><time>2026-04-19T09:33:12.999Z</time></trkpt><trkpt lat="44.33804611441592" lon="9.447114881100589"><ele>211.0</ele><time>2026-04-19T09:33:13.999Z</time></trkpt><trkpt lat="44.33795194041693" lon="9.446959572541866"><ele>213.5</ele><time>2026-04-19T09:33:14.999Z</time></trkpt><trkpt lat="44.33784691320228" lon="9.446828640157044"><ele>216.0</ele><time>2026-04-19T09:33:15.999Z</time></trkpt><trkpt lat="44.337760046814076" lon="9.446676041074397"><ele>218.5</ele><time>2026-04-19T09:33:16.999Z</time></trkpt><trkpt lat="44.33769376080512" lon="9.446502462896966"><ele>221.0</ele><time>2026-04-19T09:33:17.999Z</time></trkpt><trkpt lat="44.33761678489645" lon="9.44630729797027"><ele>213.33333333333334</ele><time>2026-04-19T09:33:18.999Z</time></trkpt><trkpt lat="44.3375270626242" lon="9.44613286105048"><ele>205.66666666666669</ele><time>2026-04-19T09:33:19.999Z</time></trkpt><trkpt lat="44.33746737566929" lon="9.445934730127755"><ele>198.0</ele><time>2026-04-19T09:33:20.999Z</time></trkpt><trkpt lat="44.33742294404424" lon="9.44570114855605"><ele>198.0</ele><time>2026-04-19T09:33:21.999Z</time></trkpt><trkpt lat="44.33739101211899" lon="9.445474191995478"><ele>198.0</ele><time>2026-04-19T09:33:22.999Z</time></trkpt><trkpt lat="44.33735916484402" lon="9.445262190409297"><ele>198.0</ele><time>2026-04-19T09:33:23.999Z</time></trkpt><trkpt lat="44.33733916317507" lon="9.445058866836574"><ele>198.25</ele><time>2026-04-19T09:33:24.999Z</time></trkpt><trkpt lat="44.337300718306714" lon="9.444867879978492"><ele>198.5</ele><time>2026-04-19T09:33:25.999Z</time></trkpt><trkpt lat="44.33723944928999" lon="9.444679757962245"><ele>198.75</ele><time>2026-04-19T09:33:26.999Z</time></trkpt><trkpt lat="44.33715690596414" lon="9.444503699398712"><ele>199.0</ele><time>2026-04-19T09:33:27.999Z</time></trkpt><trkpt lat="44.337055888516275" lon="9.444351709810215"><ele>199.0</ele><time>2026-04-19T09:33:28.999Z</time></trkpt><trkpt lat="44.33693352494831" lon="9.444210143700747"><ele>199.0</ele><time>2026-04-19T09:33:29.999Z</time></trkpt><trkpt lat="44.336798476375655" lon="9.444078664609751"><ele>199.0</ele><time>2026-04-19T09:33:30.999Z</time></trkpt><trkpt lat="44.336666448143035" lon="9.443920727692369"><ele>199.0</ele><time>2026-04-19T09:33:31.999Z</time></trkpt><trkpt lat="44.33652702268567" lon="9.443793350367658"><ele>199.0</ele><time>2026-04-19T09:33:32.999Z</time></trkpt><trkpt lat="44.33640594315553" lon="9.443648676173343"><ele>199.0</ele><time>2026-04-19T09:33:33.999Z</time></trkpt><trkpt lat="44.33630812694499" lon="9.443488390264347"><ele>199.0</ele><time>2026-04-19T09:33:34.999Z</time></trkpt><trkpt lat="44.336219185259466" lon="9.443316076109001"><ele>199.0</ele><time>2026-04-19T09:33:35.999Z</time></trkpt><trkpt lat="44.3361389685942" lon="9.443127868759785"><ele>199.0</ele><time>2026-04-19T09:33:36.999Z</time></trkpt><trkpt lat="44.33604904797454" lon="9.442953488194744"><ele>195.0</ele><time>2026-04-19T09:33:37.999Z</time></trkpt><trkpt lat="44.335954208435496" lon="9.44279088677355"><ele>191.0</ele><time>2026-04-19T09:33:38.999Z</time></trkpt><trkpt lat="44.33590686458084" lon="9.442586418660333"><ele>187.0</ele><time>2026-04-19T09:33:39.999Z</time></trkpt><trkpt lat="44.33587416400437" lon="9.442355308711507"><ele>185.66666666666669</ele><time>2026-04-19T09:33:40.999Z</time></trkpt><trkpt lat="44.3358137413115" lon="9.442125297389916"><ele>184.33333333333334</ele><time>2026-04-19T09:33:41.999Z</time></trkpt><trkpt lat="44.33577046955999" lon="9.441881201028927"><ele>183.0</ele><time>2026-04-19T09:33:42.999Z</time></trkpt><trkpt lat="44.33571211319281" lon="9.441641869585712"><ele>183.0</ele><time>2026-04-19T09:33:43.999Z</time></trkpt><trkpt lat="44.33565075518558" lon="9.441404966559299"><ele>183.0</ele><time>2026-04-19T09:33:44.999Z</time></trkpt><trkpt lat="44.3355873732631" lon="9.441155819634714"><ele>183.0</ele><time>2026-04-19T09:33:45.999Z</time></trkpt><trkpt lat="44.33552356661872" lon="9.440909577216281"><ele>189.0</ele><time>2026-04-19T09:33:46.999Z</time></trkpt><trkpt lat="44.335455526083535" lon="9.440661021736295"><ele>195.0</ele><time>2026-04-19T09:33:47.999Z</time></trkpt><trkpt lat="44.335381429649395" lon="9.440409966726808"><ele>201.0</ele><time>2026-04-19T09:33:48.999Z</time></trkpt><trkpt lat="44.33530100343066" lon="9.440168340303517"><ele>201.0</ele><time>2026-04-19T09:33:49.999Z</time></trkpt><trkpt lat="44.335215105488516" lon="9.439929286347047"><ele>201.0</ele><time>2026-04-19T09:33:50.999Z</time></trkpt><trkpt lat="44.33514011711614" lon="9.43970725714245"><ele>201.0</ele><time>2026-04-19T09:33:51.999Z</time></trkpt><trkpt lat="44.335097701634595" lon="9.439464044485675"><ele>197.0</ele><time>2026-04-19T09:33:53Z</time></trkpt><trkpt lat="44.335048392909876" lon="9.439224927758495"><ele>193.0</ele><time>2026-04-19T09:33:54Z</time></trkpt><trkpt lat="44.33497622349277" lon="9.438981046580594"><ele>189.0</ele><time>2026-04-19T09:33:55Z</time></trkpt><trkpt lat="44.33493035165145" lon="9.43873977841139"><ele>186.33333333333334</ele><time>2026-04-19T09:33:56Z</time></trkpt><trkpt lat="44.334889957015655" lon="9.438484804991077"><ele>183.66666666666669</ele><time>2026-04-19T09:33:57Z</time></trkpt><trkpt lat="44.334903208134435" lon="9.438244710218665"><ele>181.0</ele><time>2026-04-19T09:33:58Z</time></trkpt><trkpt lat="44.33491535373488" lon="9.43799365363764"><ele>178.0</ele><time>2026-04-19T09:33:59Z</time></trkpt><trkpt lat="44.334977230342055" lon="9.437758044678558"><ele>175.0</ele><time>2026-04-19T09:34:00Z</time></trkpt><trkpt lat="44.33504507850598" lon="9.437532022883595"><ele>172.0</ele><time>2026-04-19T09:34:01Z</time></trkpt><trkpt lat="44.3351159555818" lon="9.437309916499714"><ele>172.0</ele><time>2026-04-19T09:34:02Z</time></trkpt><trkpt lat="44.33517028033829" lon="9.437094782389028"><ele>172.0</ele><time>2026-04-19T09:34:03Z</time></trkpt><trkpt lat="44.33520815331905" lon="9.436878385929344"><ele>172.0</ele><time>2026-04-19T09:34:04Z</time></trkpt><trkpt lat="44.33522582742314" lon="9.436661741768019"><ele>172.0</ele><time>2026-04-19T09:34:05Z</time></trkpt><trkpt lat="44.3352115341794" lon="9.436454269652602"><ele>172.0</ele><time>2026-04-19T09:34:06Z</time></trkpt><trkpt lat="44.33520814733118" lon="9.436245444151728"><ele>172.0</ele><time>2026-04-19T09:34:07Z</time></trkpt><trkpt lat="44.335196880810024" lon="9.43605114460737"><ele>172.0</ele><time>2026-04-19T09:34:08Z</time></trkpt><trkpt lat="44.3351999295285" lon="9.435872103613736"><ele>173.25</ele><time>2026-04-19T09:34:09Z</time></trkpt><trkpt lat="44.335249132696056" lon="9.435721155552587"><ele>174.5</ele><time>2026-04-19T09:34:10Z</time></trkpt><trkpt lat="44.33534821315288" lon="9.4356311986575"><ele>175.75</ele><time>2026-04-19T09:34:11Z</time></trkpt><trkpt lat="44.335434995149114" lon="9.43548397291625"><ele>177.0</ele><time>2026-04-19T09:34:12Z</time></trkpt><trkpt lat="44.335524097889035" lon="9.435373449820496"><ele>177.0</ele><time>2026-04-19T09:34:13Z</time></trkpt><trkpt lat="44.33556834094073" lon="9.435216820313391"><ele>177.0</ele><time>2026-04-19T09:34:14Z</time></trkpt><trkpt lat="44.33561063886944" lon="9.435073033125056"><ele>177.0</ele><time>2026-04-19T09:34:15Z</time></trkpt><trkpt lat="44.33556219839677" lon="9.434925359678665"><ele>177.0</ele><time>2026-04-19T09:34:16Z</time></trkpt><trkpt lat="44.33548276467868" lon="9.434828308998355"><ele>177.0</ele><time>2026-04-19T09:34:17Z</time></trkpt><trkpt lat="44.33537096791551" lon="9.43478950711122"><ele>177.0</ele><time>2026-04-19T09:34:18Z</time></trkpt><trkpt lat="44.33524717249221" lon="9.434803149354572"><ele>177.0</ele><time>2026-04-19T09:34:19Z</time></trkpt><trkpt lat="44.33510997885513" lon="9.434860250246087"><ele>177.0</ele><time>2026-04-19T09:34:20Z</time></trkpt><trkpt lat="44.33497062065137" lon="9.434902802037241"><ele>177.0</ele><time>2026-04-19T09:34:21Z</time></trkpt><trkpt lat="44.334848123584536" lon="9.434880435109497"><ele>177.0</ele><time>2026-04-19T09:34:22Z</time></trkpt><trkpt lat="44.33477460280081" lon="9.434765887538452"><ele>177.0</ele><time>2026-04-19T09:34:23Z</time></trkpt><trkpt lat="44.334690324296616" lon="9.434600107518984"><ele>177.0</ele><time>2026-04-19T09:34:24Z</time></trkpt><trkpt lat="44.3345750733279" lon="9.434448253328002"><ele>178.5</ele><time>2026-04-19T09:34:25Z</time></trkpt><trkpt lat="44.334507691450284" lon="9.434269317126292"><ele>180.0</ele><time>2026-04-19T09:34:26Z</time></trkpt><trkpt lat="44.3344927509374" lon="9.434132715622486"><ele>181.5</ele><time>2026-04-19T09:34:27Z</time></trkpt><trkpt lat="44.33452118598741" lon="9.433959294731192"><ele>183.0</ele><time>2026-04-19T09:34:28Z</time></trkpt><trkpt lat="44.33457454739387" lon="9.433759283147525"><ele>183.0</ele><time>2026-04-19T09:34:29Z</time></trkpt><trkpt lat="44.33463480777159" lon="9.433596034394869"><ele>183.0</ele><time>2026-04-19T09:34:30Z</time></trkpt><trkpt lat="44.33474218928568" lon="9.43350010348676"><ele>183.0</ele><time>2026-04-19T09:34:31Z</time></trkpt><trkpt lat="44.3348822917218" lon="9.43339882159149"><ele>183.0</ele><time>2026-04-19T09:34:32Z</time></trkpt><trkpt lat="44.3350277867843" lon="9.433297252672572"><ele>177.75</ele><time>2026-04-19T09:34:33Z</time></trkpt><trkpt lat="44.33516242818689" lon="9.433231475405174"><ele>172.5</ele><time>2026-04-19T09:34:34Z</time></trkpt><trkpt lat="44.3352759546342" lon="9.43316703713907"><ele>167.25</ele><time>2026-04-19T09:34:35Z</time></trkpt><trkpt lat="44.33535780472796" lon="9.433095550154226"><ele>162.0</ele><time>2026-04-19T09:34:36Z</time></trkpt><trkpt lat="44.33538086312428" lon="9.43297368744176"><ele>159.0</ele><time>2026-04-19T09:34:37Z</time></trkpt><trkpt lat="44.33534928048892" lon="9.432843537707276"><ele>156.0</ele><time>2026-04-19T09:34:38Z</time></trkpt><trkpt lat="44.335239430838534" lon="9.43277248128497"><ele>153.0</ele><time>2026-04-19T09:34:39Z</time></trkpt><trkpt lat="44.33511172995968" lon="9.43269196254154"><ele>150.0</ele><time>2026-04-19T09:34:40Z</time></trkpt><trkpt lat="44.33495955825406" lon="9.432591373667522"><ele>150.0</ele><time>2026-04-19T09:34:41Z</time></trkpt><trkpt lat="44.33482117173293" lon="9.432438190666426"><ele>150.0</ele><time>2026-04-19T09:34:42Z</time></trkpt><trkpt lat="44.33470670341497" lon="9.432265621248051"><ele>150.0</ele><time>2026-04-19T09:34:43Z</time></trkpt><trkpt lat="44.33459217919557" lon="9.432093123845808"><ele>153.33333333333334</ele><time>2026-04-19T09:34:44Z</time></trkpt><trkpt lat="44.334477912552266" lon="9.43193341951088"><ele>156.66666666666669</ele><time>2026-04-19T09:34:45Z</time></trkpt><trkpt lat="44.33435273239766" lon="9.431790600299243"><ele>160.0</ele><time>2026-04-19T09:34:46Z</time></trkpt><trkpt lat="44.33422312577426" lon="9.431665900006603"><ele>160.0</ele><time>2026-04-19T09:34:47Z</time></trkpt><trkpt lat="44.33409330764193" lon="9.431576412738057"><ele>160.0</ele><time>2026-04-19T09:34:48Z</time></trkpt><trkpt lat="44.33400945561914" lon="9.431449977409903"><ele>160.0</ele><time>2026-04-19T09:34:49Z</time></trkpt><trkpt lat="44.33399104587513" lon="9.431300086082997"><ele>160.0</ele><time>2026-04-19T09:34:50Z</time></trkpt><trkpt lat="44.33396981030224" lon="9.431123858739001"><ele>163.66666666666669</ele><time>2026-04-19T09:34:51Z</time></trkpt><trkpt lat="44.33393784238505" lon="9.430920158329553"><ele>167.33333333333334</ele><time>2026-04-19T09:34:52Z</time></trkpt><trkpt lat="44.33388092549934" lon="9.430720937123864"><ele>171.0</ele><time>2026-04-19T09:34:53Z</time></trkpt><trkpt lat="44.33380879551637" lon="9.430523137399224"><ele>164.66666666666666</ele><time>2026-04-19T09:34:54Z</time></trkpt><trkpt lat="44.333685500527736" lon="9.430344293123692"><ele>158.33333333333331</ele><time>2026-04-19T09:34:55Z</time></trkpt><trkpt lat="44.33356748719018" lon="9.43019025163973"><ele>152.0</ele><time>2026-04-19T09:34:56Z</time></trkpt><trkpt lat="44.333471107670015" lon="9.430029359603303"><ele>152.0</ele><time>2026-04-19T09:34:57Z</time></trkpt><trkpt lat="44.33337763943387" lon="9.429890152162736"><ele>152.0</ele><time>2026-04-19T09:34:58Z</time></trkpt><trkpt lat="44.33333086539166" lon="9.429696697281678"><ele>152.0</ele><time>2026-04-19T09:34:59Z</time></trkpt><trkpt lat="44.33330953753715" lon="9.429458088675997"><ele>150.33333333333331</ele><time>2026-04-19T09:35:00Z</time></trkpt><trkpt lat="44.33327304458148" lon="9.429216347107328"><ele>148.66666666666666</ele><time>2026-04-19T09:35:01Z</time></trkpt><trkpt lat="44.3332047186092" lon="9.428992388325529"><ele>147.0</ele><time>2026-04-19T09:35:02Z</time></trkpt><trkpt lat="44.333109453192336" lon="9.428784224427892"><ele>153.0</ele><time>2026-04-19T09:35:03Z</time></trkpt><trkpt lat="44.33302102156579" lon="9.428563052140849"><ele>159.0</ele><time>2026-04-19T09:35:04Z</time></trkpt><trkpt lat="44.33293223078989" lon="9.428339933639895"><ele>165.0</ele><time>2026-04-19T09:35:05Z</time></trkpt><trkpt lat="44.33283769991798" lon="9.428108529595407"><ele>160.33333333333334</ele><time>2026-04-19T09:35:06Z</time></trkpt><trkpt lat="44.33274546088042" lon="9.427880805033782"><ele>155.66666666666669</ele><time>2026-04-19T09:35:07Z</time></trkpt><trkpt lat="44.332662285491516" lon="9.42766874898307"><ele>151.0</ele><time>2026-04-19T09:35:08Z</time></trkpt><trkpt lat="44.33257351110743" lon="9.427465469109945"><ele>151.0</ele><time>2026-04-19T09:35:09Z</time></trkpt><trkpt lat="44.33249447428834" lon="9.427271567884477"><ele>151.0</ele><time>2026-04-19T09:35:10Z</time></trkpt><trkpt lat="44.33242102576355" lon="9.427100031558872"><ele>151.0</ele><time>2026-04-19T09:35:11Z</time></trkpt><trkpt lat="44.33233022265616" lon="9.426955502008678"><ele>151.0</ele><time>2026-04-19T09:35:12Z</time></trkpt><trkpt lat="44.33219220750441" lon="9.42684173079199"><ele>151.66666666666669</ele><time>2026-04-19T09:35:13Z</time></trkpt><trkpt lat="44.33204560167122" lon="9.426754227584834"><ele>152.33333333333334</ele><time>2026-04-19T09:35:14Z</time></trkpt><trkpt lat="44.331915220740974" lon="9.426662120761605"><ele>153.0</ele><time>2026-04-19T09:35:15Z</time></trkpt><trkpt lat="44.331832960074294" lon="9.426496517376677"><ele>153.0</ele><time>2026-04-19T09:35:16Z</time></trkpt><trkpt lat="44.331751083210996" lon="9.42631789092614"><ele>153.0</ele><time>2026-04-19T09:35:17Z</time></trkpt><trkpt lat="44.33166244314869" lon="9.426166956275999"><ele>153.0</ele><time>2026-04-19T09:35:18Z</time></trkpt><trkpt lat="44.331560697901594" lon="9.426058131697625"><ele>153.0</ele><time>2026-04-19T09:35:19Z</time></trkpt><trkpt lat="44.33144906706051" lon="9.426014469174184"><ele>149.5</ele><time>2026-04-19T09:35:20Z</time></trkpt><trkpt lat="44.331334261671444" lon="9.426006003565654"><ele>146.0</ele><time>2026-04-19T09:35:21Z</time></trkpt><trkpt lat="44.33123482611472" lon="9.425947234952819"><ele>142.5</ele><time>2026-04-19T09:35:22Z</time></trkpt><trkpt lat="44.33117966598399" lon="9.425806423296697"><ele>139.0</ele><time>2026-04-19T09:35:23Z</time></trkpt><trkpt lat="44.33108196074423" lon="9.425718777443041"><ele>139.0</ele><time>2026-04-19T09:35:23.999Z</time></trkpt><trkpt lat="44.33103633146745" lon="9.425591450935451"><ele>139.0</ele><time>2026-04-19T09:35:24.999Z</time></trkpt><trkpt lat="44.330992796224564" lon="9.42545561966816"><ele>139.0</ele><time>2026-04-19T09:35:25.999Z</time></trkpt><trkpt lat="44.33093774878475" lon="9.425320469528751"><ele>139.0</ele><time>2026-04-19T09:35:26.999Z</time></trkpt><trkpt lat="44.33088967151218" lon="9.42519542622419"><ele>139.0</ele><time>2026-04-19T09:35:27.999Z</time></trkpt><trkpt lat="44.33085214535215" lon="9.42507918125207"><ele>136.6</ele><time>2026-04-19T09:35:28.999Z</time></trkpt><trkpt lat="44.33081618480899" lon="9.42496001780475"><ele>134.2</ele><time>2026-04-19T09:35:29.999Z</time></trkpt><trkpt lat="44.33084770206038" lon="9.424824483674493"><ele>131.79999999999998</ele><time>2026-04-19T09:35:30.999Z</time></trkpt><trkpt lat="44.33089136974088" lon="9.42470144969108"><ele>129.4</ele><time>2026-04-19T09:35:31.999Z</time></trkpt><trkpt lat="44.33095893351587" lon="9.424561891852656"><ele>127.0</ele><time>2026-04-19T09:35:32.999Z</time></trkpt><trkpt lat="44.33103819133148" lon="9.424396158676787"><ele>126.33333333333334</ele><time>2026-04-19T09:35:33.999Z</time></trkpt><trkpt lat="44.33111302191269" lon="9.424213408712399"><ele>125.66666666666666</ele><time>2026-04-19T09:35:34.999Z</time></trkpt><trkpt lat="44.331153167940634" lon="9.423999525164184"><ele>125.0</ele><time>2026-04-19T09:35:35.999Z</time></trkpt><trkpt lat="44.33121425003444" lon="9.42381520628909"><ele>124.75</ele><time>2026-04-19T09:35:36.999Z</time></trkpt><trkpt lat="44.331294789271176" lon="9.4236461421438"><ele>124.5</ele><time>2026-04-19T09:35:37.999Z</time></trkpt><trkpt lat="44.33136223614709" lon="9.423466997612447"><ele>124.25</ele><time>2026-04-19T09:35:38.999Z</time></trkpt><trkpt lat="44.33143256492106" lon="9.423280197843894"><ele>124.0</ele><time>2026-04-19T09:35:39.999Z</time></trkpt><trkpt lat="44.33150140361036" lon="9.423097356200879"><ele>125.5</ele><time>2026-04-19T09:35:40.999Z</time></trkpt><trkpt lat="44.331565269094476" lon="9.422927723624253"><ele>127.0</ele><time>2026-04-19T09:35:41.999Z</time></trkpt><trkpt lat="44.33162495598608" lon="9.422769189884711"><ele>128.5</ele><time>2026-04-19T09:35:42.999Z</time></trkpt><trkpt lat="44.33168133353396" lon="9.422619905386023"><ele>130.0</ele><time>2026-04-19T09:35:43.999Z</time></trkpt><trkpt lat="44.331737512285386" lon="9.422470525987398"><ele>130.0</ele><time>2026-04-19T09:35:44.999Z</time></trkpt><trkpt lat="44.33178126045379" lon="9.422303485174641"><ele>130.0</ele><time>2026-04-19T09:35:45.999Z</time></trkpt><trkpt lat="44.33184429266585" lon="9.422154394646823"><ele>130.0</ele><time>2026-04-19T09:35:46.999Z</time></trkpt><trkpt lat="44.33189610973567" lon="9.422002691990363"><ele>130.0</ele><time>2026-04-19T09:35:47.999Z</time></trkpt><trkpt lat="44.33195042922868" lon="9.42186418919968"><ele>128.6</ele><time>2026-04-19T09:35:48.999Z</time></trkpt><trkpt lat="44.33199976850479" lon="9.421730069370652"><ele>127.2</ele><time>2026-04-19T09:35:49.999Z</time></trkpt><trkpt lat="44.332043160890706" lon="9.421601761267357"><ele>125.80000000000001</ele><time>2026-04-19T09:35:50.999Z</time></trkpt><trkpt lat="44.332068577088634" lon="9.421453279216985"><ele>124.4</ele><time>2026-04-19T09:35:51.999Z</time></trkpt><trkpt lat="44.33205833394602" lon="9.421274825088203"><ele>123.0</ele><time>2026-04-19T09:35:52.999Z</time></trkpt><trkpt lat="44.33202417270722" lon="9.421101917780966"><ele>123.0</ele><time>2026-04-19T09:35:53.999Z</time></trkpt><trkpt lat="44.33196992340236" lon="9.420963522175292"><ele>123.0</ele><time>2026-04-19T09:35:54.999Z</time></trkpt><trkpt lat="44.33188915760455" lon="9.420840711870092"><ele>123.0</ele><time>2026-04-19T09:35:55.999Z</time></trkpt><trkpt lat="44.33180446154489" lon="9.420732582800602"><ele>123.0</ele><time>2026-04-19T09:35:56.999Z</time></trkpt><trkpt lat="44.33172968852617" lon="9.420623113562328"><ele>123.0</ele><time>2026-04-19T09:35:57.999Z</time></trkpt><trkpt lat="44.33166887376103" lon="9.420515340409292"><ele>123.00000000000001</ele><time>2026-04-19T09:35:59Z</time></trkpt><trkpt lat="44.33163149597288" lon="9.420400515273295"><ele>123.00000000000001</ele><time>2026-04-19T09:36:00Z</time></trkpt><trkpt lat="44.33165137862319" lon="9.420277091218756"><ele>123.0</ele><time>2026-04-19T09:36:01Z</time></trkpt><trkpt lat="44.33168353527336" lon="9.420167153551523"><ele>123.0</ele><time>2026-04-19T09:36:02Z</time></trkpt><trkpt lat="44.33175019658412" lon="9.420042560910193"><ele>123.25</ele><time>2026-04-19T09:36:03Z</time></trkpt><trkpt lat="44.331820875361956" lon="9.419891142616393"><ele>123.5</ele><time>2026-04-19T09:36:04Z</time></trkpt><trkpt lat="44.331901776082525" lon="9.419763562173376"><ele>123.75</ele><time>2026-04-19T09:36:05Z</time></trkpt><trkpt lat="44.331979540380914" lon="9.419626757177564"><ele>124.0</ele><time>2026-04-19T09:36:06Z</time></trkpt><trkpt lat="44.33206322233269" lon="9.419476993007988"><ele>123.0</ele><time>2026-04-19T09:36:07Z</time></trkpt><trkpt lat="44.332147681649005" lon="9.419326143588666"><ele>122.0</ele><time>2026-04-19T09:36:08Z</time></trkpt><trkpt lat="44.33221235552534" lon="9.419172978110732"><ele>121.0</ele><time>2026-04-19T09:36:09Z</time></trkpt><trkpt lat="44.33225468306994" lon="9.419001102146137"><ele>120.0</ele><time>2026-04-19T09:36:10Z</time></trkpt><trkpt lat="44.332276677607396" lon="9.418831373014571"><ele>122.5</ele><time>2026-04-19T09:36:11Z</time></trkpt><trkpt lat="44.332300081290285" lon="9.418661707510884"><ele>125.0</ele><time>2026-04-19T09:36:12Z</time></trkpt><trkpt lat="44.332347992817404" lon="9.418494410187268"><ele>127.5</ele><time>2026-04-19T09:36:13Z</time></trkpt><trkpt lat="44.332407467730015" lon="9.418320780667226"><ele>130.0</ele><time>2026-04-19T09:36:14Z</time></trkpt><trkpt lat="44.33248262022992" lon="9.418153444182767"><ele>130.0</ele><time>2026-04-19T09:36:15Z</time></trkpt><trkpt lat="44.33258593417626" lon="9.417998878676473"><ele>130.0</ele><time>2026-04-19T09:36:16Z</time></trkpt><trkpt lat="44.332698365087076" lon="9.417871935757999"><ele>130.0</ele><time>2026-04-19T09:36:17Z</time></trkpt><trkpt lat="44.332804463444745" lon="9.417755501480087"><ele>130.0</ele><time>2026-04-19T09:36:18Z</time></trkpt><trkpt lat="44.33288830139346" lon="9.417624509860884"><ele>129.0</ele><time>2026-04-19T09:36:19Z</time></trkpt><trkpt lat="44.332964465240295" lon="9.417494100021226"><ele>128.0</ele><time>2026-04-19T09:36:20Z</time></trkpt><trkpt lat="44.3330318605748" lon="9.417352090508738"><ele>127.0</ele><time>2026-04-19T09:36:21Z</time></trkpt><trkpt lat="44.33310458235481" lon="9.417207004590232"><ele>126.0</ele><time>2026-04-19T09:36:22Z</time></trkpt><trkpt lat="44.33317297478748" lon="9.417057081238188"><ele>126.0</ele><time>2026-04-19T09:36:23Z</time></trkpt><trkpt lat="44.33321755679217" lon="9.41689395699447"><ele>126.0</ele><time>2026-04-19T09:36:24Z</time></trkpt><trkpt lat="44.33323454114273" lon="9.41671452493346"><ele>126.0</ele><time>2026-04-19T09:36:25Z</time></trkpt><trkpt lat="44.33324193459443" lon="9.41654211448441"><ele>126.0</ele><time>2026-04-19T09:36:26Z</time></trkpt><trkpt lat="44.3332708616389" lon="9.416385884928358"><ele>124.0</ele><time>2026-04-19T09:36:27Z</time></trkpt><trkpt lat="44.333254514722206" lon="9.416241628616552"><ele>122.0</ele><time>2026-04-19T09:36:28Z</time></trkpt><trkpt lat="44.33325542762769" lon="9.416107676737663"><ele>120.0</ele><time>2026-04-19T09:36:29Z</time></trkpt><trkpt lat="44.333276455196554" lon="9.41599115970973"><ele>118.0</ele><time>2026-04-19T09:36:30Z</time></trkpt><trkpt lat="44.33333881241323" lon="9.41590213809884"><ele>116.0</ele><time>2026-04-19T09:36:31Z</time></trkpt><trkpt lat="44.33343337294202" lon="9.415858514376414"><ele>116.0</ele><time>2026-04-19T09:36:32Z</time></trkpt><trkpt lat="44.33353771720486" lon="9.41590665609469"><ele>116.0</ele><time>2026-04-19T09:36:33Z</time></trkpt><trkpt lat="44.33365927635144" lon="9.415971026958266"><ele>116.0</ele><time>2026-04-19T09:36:34Z</time></trkpt><trkpt lat="44.333815168881834" lon="9.416048122727036"><ele>116.0</ele><time>2026-04-19T09:36:35Z</time></trkpt><trkpt lat="44.333992291899165" lon="9.416126205863941"><ele>115.0</ele><time>2026-04-19T09:36:36Z</time></trkpt><trkpt lat="44.33418772148307" lon="9.416184132451647"><ele>114.0</ele><time>2026-04-19T09:36:37Z</time></trkpt><trkpt lat="44.33439271794766" lon="9.41615367888362"><ele>113.0</ele><time>2026-04-19T09:36:38Z</time></trkpt><trkpt lat="44.334593134454344" lon="9.416106678964185"><ele>112.33333333333333</ele><time>2026-04-19T09:36:39Z</time></trkpt><trkpt lat="44.33478126439987" lon="9.416052523292272"><ele>111.66666666666666</ele><time>2026-04-19T09:36:40Z</time></trkpt><trkpt lat="44.33497031123168" lon="9.416060195206628"><ele>111.0</ele><time>2026-04-19T09:36:41Z</time></trkpt><trkpt lat="44.335151036455294" lon="9.416059866952537"><ele>111.0</ele><time>2026-04-19T09:36:42Z</time></trkpt><trkpt lat="44.33530539270534" lon="9.416043045716046"><ele>111.0</ele><time>2026-04-19T09:36:43Z</time></trkpt><trkpt lat="44.33545232463609" lon="9.41604714569699"><ele>111.0</ele><time>2026-04-19T09:36:44Z</time></trkpt><trkpt lat="44.33558723335331" lon="9.416005673151457"><ele>111.0</ele><time>2026-04-19T09:36:45Z</time></trkpt><trkpt lat="44.33570635786626" lon="9.415885104731482"><ele>112.75</ele><time>2026-04-19T09:36:46Z</time></trkpt><trkpt lat="44.33580864358578" lon="9.415713027274533"><ele>114.5</ele><time>2026-04-19T09:36:47Z</time></trkpt><trkpt lat="44.33588639471381" lon="9.415546163685503"><ele>116.25</ele><time>2026-04-19T09:36:48Z</time></trkpt><trkpt lat="44.335928221961055" lon="9.415380235053076"><ele>118.0</ele><time>2026-04-19T09:36:49Z</time></trkpt><trkpt lat="44.33592674656039" lon="9.415185017466374"><ele>118.0</ele><time>2026-04-19T09:36:50Z</time></trkpt><trkpt lat="44.33588212484585" lon="9.41498660228379"><ele>118.0</ele><time>2026-04-19T09:36:51Z</time></trkpt><trkpt lat="44.33581705520462" lon="9.414788499672607"><ele>118.0</ele><time>2026-04-19T09:36:52Z</time></trkpt><trkpt lat="44.335778122859885" lon="9.41458079747431"><ele>116.0</ele><time>2026-04-19T09:36:53Z</time></trkpt><trkpt lat="44.33573459202762" lon="9.414400511034666"><ele>114.0</ele><time>2026-04-19T09:36:54Z</time></trkpt><trkpt lat="44.3356782183149" lon="9.41422972806808"><ele>112.0</ele><time>2026-04-19T09:36:55Z</time></trkpt><trkpt lat="44.33561998377048" lon="9.4140370717947"><ele>110.0</ele><time>2026-04-19T09:36:56Z</time></trkpt><trkpt lat="44.33551578709578" lon="9.413862952668858"><ele>108.66666666666666</ele><time>2026-04-19T09:36:57Z</time></trkpt><trkpt lat="44.33539421044296" lon="9.413702040536046"><ele>107.33333333333334</ele><time>2026-04-19T09:36:58Z</time></trkpt><trkpt lat="44.33528740707499" lon="9.413531971015887"><ele>106.0</ele><time>2026-04-19T09:36:59Z</time></trkpt><trkpt lat="44.33521491540511" lon="9.413361434213746"><ele>106.0</ele><time>2026-04-19T09:37:00Z</time></trkpt><trkpt lat="44.33516752709075" lon="9.413206433551437"><ele>106.0</ele><time>2026-04-19T09:37:01Z</time></trkpt><trkpt lat="44.335151862505825" lon="9.413035491216107"><ele>106.0</ele><time>2026-04-19T09:37:02Z</time></trkpt><trkpt lat="44.335177519796126" lon="9.41286725706957"><ele>106.0</ele><time>2026-04-19T09:37:03Z</time></trkpt><trkpt lat="44.335257396419365" lon="9.412765802254016"><ele>105.75</ele><time>2026-04-19T09:37:04Z</time></trkpt><trkpt lat="44.33534718483096" lon="9.412709128663165"><ele>105.5</ele><time>2026-04-19T09:37:05Z</time></trkpt><trkpt lat="44.335451111950086" lon="9.412652484011339"><ele>105.25</ele><time>2026-04-19T09:37:06Z</time></trkpt><trkpt lat="44.335572712892386" lon="9.412563600442715"><ele>105.0</ele><time>2026-04-19T09:37:07Z</time></trkpt><trkpt lat="44.33571325100862" lon="9.412493794760618"><ele>103.0</ele><time>2026-04-19T09:37:08Z</time></trkpt><trkpt lat="44.33585902007239" lon="9.412402310371606"><ele>101.0</ele><time>2026-04-19T09:37:09Z</time></trkpt><trkpt lat="44.33600203905807" lon="9.41227839734604"><ele>99.0</ele><time>2026-04-19T09:37:10Z</time></trkpt><trkpt lat="44.33614886913195" lon="9.412126391343508"><ele>99.0</ele><time>2026-04-19T09:37:11Z</time></trkpt><trkpt lat="44.336319663903645" lon="9.412051161846305"><ele>99.0</ele><time>2026-04-19T09:37:12Z</time></trkpt><trkpt lat="44.336480698841655" lon="9.411962552583123"><ele>99.0</ele><time>2026-04-19T09:37:13Z</time></trkpt><trkpt lat="44.336637269816464" lon="9.41183930017161"><ele>100.0</ele><time>2026-04-19T09:37:14Z</time></trkpt><trkpt lat="44.33679423763983" lon="9.411712360459362"><ele>101.0</ele><time>2026-04-19T09:37:15Z</time></trkpt><trkpt lat="44.33695226988321" lon="9.411597404194401"><ele>102.0</ele><time>2026-04-19T09:37:16Z</time></trkpt><trkpt lat="44.33709330369728" lon="9.411473500575514"><ele>101.0</ele><time>2026-04-19T09:37:17Z</time></trkpt><trkpt lat="44.337227662291454" lon="9.411331715925737"><ele>100.0</ele><time>2026-04-19T09:37:18Z</time></trkpt><trkpt lat="44.337374870402726" lon="9.41123660847852"><ele>99.0</ele><time>2026-04-19T09:37:19Z</time></trkpt><trkpt lat="44.337529730049596" lon="9.41116079593276"><ele>99.0</ele><time>2026-04-19T09:37:20Z</time></trkpt><trkpt lat="44.33768926861499" lon="9.411100446003488"><ele>99.0</ele><time>2026-04-19T09:37:21Z</time></trkpt><trkpt lat="44.33786101111322" lon="9.4110419696683"><ele>99.0</ele><time>2026-04-19T09:37:22Z</time></trkpt><trkpt lat="44.33803499372543" lon="9.410979796670496"><ele>100.0</ele><time>2026-04-19T09:37:23Z</time></trkpt><trkpt lat="44.338225516523416" lon="9.410916143737149"><ele>101.0</ele><time>2026-04-19T09:37:24Z</time></trkpt><trkpt lat="44.33842217415756" lon="9.410845388313309"><ele>102.0</ele><time>2026-04-19T09:37:25Z</time></trkpt><trkpt lat="44.33862104737315" lon="9.410774935888735"><ele>102.0</ele><time>2026-04-19T09:37:26Z</time></trkpt><trkpt lat="44.338822268249544" lon="9.410733760793603"><ele>102.0</ele><time>2026-04-19T09:37:27Z</time></trkpt><trkpt lat="44.339003941765334" lon="9.410657621597643"><ele>102.0</ele><time>2026-04-19T09:37:28Z</time></trkpt><trkpt lat="44.33917909764844" lon="9.410606293824967"><ele>103.33333333333334</ele><time>2026-04-19T09:37:29Z</time></trkpt><trkpt lat="44.339339265430674" lon="9.410556324228741"><ele>104.66666666666667</ele><time>2026-04-19T09:37:30Z</time></trkpt><trkpt lat="44.33948963372794" lon="9.41048591999107"><ele>106.0</ele><time>2026-04-19T09:37:31Z</time></trkpt><trkpt lat="44.33962886970551" lon="9.410400446130076"><ele>105.0</ele><time>2026-04-19T09:37:32Z</time></trkpt><trkpt lat="44.33977595477061" lon="9.410303531261512"><ele>104.0</ele><time>2026-04-19T09:37:33Z</time></trkpt><trkpt lat="44.339924580792925" lon="9.410200240165102"><ele>103.0</ele><time>2026-04-19T09:37:34Z</time></trkpt><trkpt lat="44.340064928841535" lon="9.410106646703552"><ele>103.0</ele><time>2026-04-19T09:37:35Z</time></trkpt><trkpt lat="44.340196237553876" lon="9.410021705795996"><ele>103.0</ele><time>2026-04-19T09:37:36Z</time></trkpt><trkpt lat="44.3403071890868" lon="9.409899181668694"><ele>103.0</ele><time>2026-04-19T09:37:37Z</time></trkpt><trkpt lat="44.34039695207397" lon="9.409716976535064"><ele>103.0</ele><time>2026-04-19T09:37:38Z</time></trkpt><trkpt lat="44.340482198685976" lon="9.409501783646613"><ele>106.0</ele><time>2026-04-19T09:37:39Z</time></trkpt><trkpt lat="44.34056887364455" lon="9.409293098389096"><ele>109.0</ele><time>2026-04-19T09:37:39.999Z</time></trkpt><trkpt lat="44.34064718296259" lon="9.409095705047914"><ele>112.0</ele><time>2026-04-19T09:37:40.999Z</time></trkpt><trkpt lat="44.340713171808694" lon="9.408887346377545"><ele>110.33333333333334</ele><time>2026-04-19T09:37:41.999Z</time></trkpt><trkpt lat="44.34074305978491" lon="9.408659854363547"><ele>108.66666666666666</ele><time>2026-04-19T09:37:42.999Z</time></trkpt><trkpt lat="44.34074390127097" lon="9.408411576528863"><ele>107.0</ele><time>2026-04-19T09:37:43.999Z</time></trkpt><trkpt lat="44.34072037995845" lon="9.408156232777502"><ele>108.33333333333333</ele><time>2026-04-19T09:37:44.999Z</time></trkpt><trkpt lat="44.340672780424995" lon="9.407902749249425"><ele>109.66666666666666</ele><time>2026-04-19T09:37:45.999Z</time></trkpt><trkpt lat="44.34060242737072" lon="9.407655177813709"><ele>111.0</ele><time>2026-04-19T09:37:46.999Z</time></trkpt><trkpt lat="44.34051774493654" lon="9.40740828943714"><ele>103.0</ele><time>2026-04-19T09:37:47.999Z</time></trkpt><trkpt lat="44.340419722633186" lon="9.407153958892051"><ele>95.0</ele><time>2026-04-19T09:37:48.999Z</time></trkpt><trkpt lat="44.340337250159926" lon="9.406918620019553"><ele>87.0</ele><time>2026-04-19T09:37:49.999Z</time></trkpt><trkpt lat="44.340255775388684" lon="9.406690198875566"><ele>87.0</ele><time>2026-04-19T09:37:50.999Z</time></trkpt><trkpt lat="44.340191850155044" lon="9.40648943572595"><ele>87.0</ele><time>2026-04-19T09:37:51.999Z</time></trkpt><trkpt lat="44.3401460574597" lon="9.406284120229003"><ele>87.0</ele><time>2026-04-19T09:37:52.999Z</time></trkpt><trkpt lat="44.34015654862595" lon="9.406103381122067"><ele>87.0</ele><time>2026-04-19T09:37:53.999Z</time></trkpt><trkpt lat="44.34021368759345" lon="9.405912543313157"><ele>86.33333333333333</ele><time>2026-04-19T09:37:54.999Z</time></trkpt><trkpt lat="44.34030803034023" lon="9.405722587685542"><ele>85.66666666666666</ele><time>2026-04-19T09:37:55.999Z</time></trkpt><trkpt lat="44.3403540451085" lon="9.405507229337973"><ele>85.0</ele><time>2026-04-19T09:37:56.999Z</time></trkpt><trkpt lat="44.34036040661093" lon="9.40529142511412"><ele>83.75</ele><time>2026-04-19T09:37:57.999Z</time></trkpt><trkpt lat="44.34035492683933" lon="9.405075251955894"><ele>82.5</ele><time>2026-04-19T09:37:58.999Z</time></trkpt><trkpt lat="44.34041536092553" lon="9.404890155509205"><ele>81.25</ele><time>2026-04-19T09:37:59.999Z</time></trkpt><trkpt lat="44.34051061743839" lon="9.404743513659279"><ele>80.0</ele><time>2026-04-19T09:38:00.999Z</time></trkpt><trkpt lat="44.34065101294029" lon="9.404656451569773"><ele>78.66666666666667</ele><time>2026-04-19T09:38:01.999Z</time></trkpt><trkpt lat="44.34080919700569" lon="9.40459061651779"><ele>77.33333333333333</ele><time>2026-04-19T09:38:02.999Z</time></trkpt><trkpt lat="44.34096051466041" lon="9.404519310561522"><ele>76.0</ele><time>2026-04-19T09:38:03.999Z</time></trkpt><trkpt lat="44.34112170641906" lon="9.404490055373852"><ele>76.0</ele><time>2026-04-19T09:38:05Z</time></trkpt><trkpt lat="44.341277641565966" lon="9.404421190664763"><ele>76.0</ele><time>2026-04-19T09:38:06Z</time></trkpt><trkpt lat="44.34141709948023" lon="9.404383813214952"><ele>76.0</ele><time>2026-04-19T09:38:07Z</time></trkpt><trkpt lat="44.34155937289933" lon="9.404284936249583"><ele>76.0</ele><time>2026-04-19T09:38:08Z</time></trkpt><trkpt lat="44.341681543836955" lon="9.404154565215881"><ele>76.0</ele><time>2026-04-19T09:38:09Z</time></trkpt><trkpt lat="44.341772360297405" lon="9.403987933687976"><ele>76.0</ele><time>2026-04-19T09:38:10Z</time></trkpt><trkpt lat="44.34187892842956" lon="9.403828135730524"><ele>76.0</ele><time>2026-04-19T09:38:11Z</time></trkpt><trkpt lat="44.34198273890896" lon="9.40369236135781"><ele>76.0</ele><time>2026-04-19T09:38:12Z</time></trkpt><trkpt lat="44.342082338994494" lon="9.403565730453009"><ele>76.0</ele><time>2026-04-19T09:38:13Z</time></trkpt><trkpt lat="44.34216272292569" lon="9.403434039064678"><ele>76.0</ele><time>2026-04-19T09:38:14Z</time></trkpt><trkpt lat="44.34220011242519" lon="9.403290604534128"><ele>76.0</ele><time>2026-04-19T09:38:15Z</time></trkpt><trkpt lat="44.34217226783707" lon="9.403128445400544"><ele>76.0</ele><time>2026-04-19T09:38:16Z</time></trkpt><trkpt lat="44.34211162066802" lon="9.402935748169503"><ele>76.0</ele><time>2026-04-19T09:38:17Z</time></trkpt><trkpt lat="44.342041562676805" lon="9.402722388031592"><ele>76.0</ele><time>2026-04-19T09:38:18Z</time></trkpt><trkpt lat="44.34198798228465" lon="9.402525068511364"><ele>76.0</ele><time>2026-04-19T09:38:19Z</time></trkpt><trkpt lat="44.3419380541287" lon="9.40235300611073"><ele>76.0</ele><time>2026-04-19T09:38:20Z</time></trkpt><trkpt lat="44.3418392802457" lon="9.402151349684226"><ele>76.0</ele><time>2026-04-19T09:38:21Z</time></trkpt><trkpt lat="44.341680083115754" lon="9.401978363590104"><ele>78.33333333333333</ele><time>2026-04-19T09:38:22Z</time></trkpt><trkpt lat="44.3415541753387" lon="9.401798902886911"><ele>80.66666666666667</ele><time>2026-04-19T09:38:23Z</time></trkpt><trkpt lat="44.341430405725355" lon="9.40166469502874"><ele>83.0</ele><time>2026-04-19T09:38:24Z</time></trkpt><trkpt lat="44.341306245038005" lon="9.401528408355638"><ele>79.5</ele><time>2026-04-19T09:38:25Z</time></trkpt><trkpt lat="44.34119519790779" lon="9.401366479641862"><ele>76.0</ele><time>2026-04-19T09:38:26Z</time></trkpt><trkpt lat="44.341214324550855" lon="9.401193522548677"><ele>72.5</ele><time>2026-04-19T09:38:28Z</time></trkpt><trkpt lat="44.34124622980748" lon="9.401060043935463"><ele>69.0</ele><time>2026-04-19T09:38:29Z</time></trkpt><trkpt lat="44.3413126080569" lon="9.400912511866863"><ele>71.25</ele><time>2026-04-19T09:38:30Z</time></trkpt><trkpt lat="44.34140896131008" lon="9.4008055277218"><ele>73.5</ele><time>2026-04-19T09:38:31Z</time></trkpt><trkpt lat="44.34148919883433" lon="9.400753578698884"><ele>75.75</ele><time>2026-04-19T09:38:32Z</time></trkpt><trkpt lat="44.34162021132412" lon="9.400714669528261"><ele>78.0</ele><time>2026-04-19T09:38:33Z</time></trkpt><trkpt lat="44.341762064475354" lon="9.400705832372704"><ele>78.0</ele><time>2026-04-19T09:38:34Z</time></trkpt><trkpt lat="44.3419232594377" lon="9.400714429775292"><ele>78.0</ele><time>2026-04-19T09:38:35Z</time></trkpt><trkpt lat="44.342065455957034" lon="9.40072072517559"><ele>78.0</ele><time>2026-04-19T09:38:36Z</time></trkpt><trkpt lat="44.34220543161379" lon="9.400705194864651"><ele>78.0</ele><time>2026-04-19T09:38:37Z</time></trkpt><trkpt lat="44.342334671873246" lon="9.400737571661347"><ele>79.0</ele><time>2026-04-19T09:38:38Z</time></trkpt><trkpt lat="44.34246464903042" lon="9.400770266522583"><ele>80.0</ele><time>2026-04-19T09:38:39Z</time></trkpt><trkpt lat="44.34258997461754" lon="9.400795257405168"><ele>81.0</ele><time>2026-04-19T09:38:40Z</time></trkpt><trkpt lat="44.342687461168744" lon="9.400772930257304"><ele>82.0</ele><time>2026-04-19T09:38:41Z</time></trkpt><trkpt lat="44.34276512047573" lon="9.400756418653813"><ele>83.0</ele><time>2026-04-19T09:38:42Z</time></trkpt><trkpt lat="44.342841903117105" lon="9.400736728794666"><ele>83.0</ele><time>2026-04-19T09:38:43Z</time></trkpt><trkpt lat="44.34291278786933" lon="9.400755990438237"><ele>83.0</ele><time>2026-04-19T09:38:44Z</time></trkpt><trkpt lat="44.34305004269317" lon="9.400753878216191"><ele>83.0</ele><time>2026-04-19T09:38:46Z</time></trkpt><trkpt lat="44.34312438918899" lon="9.400748099030515"><ele>83.0</ele><time>2026-04-19T09:38:47Z</time></trkpt><trkpt lat="44.34320455745918" lon="9.400716012638794"><ele>83.0</ele><time>2026-04-19T09:38:48Z</time></trkpt><trkpt lat="44.343298779937925" lon="9.400644328969259"><ele>83.2</ele><time>2026-04-19T09:38:49Z</time></trkpt><trkpt lat="44.34338100217443" lon="9.400566937533553"><ele>83.4</ele><time>2026-04-19T09:38:50Z</time></trkpt><trkpt lat="44.343476678833625" lon="9.400493578729488"><ele>83.60000000000001</ele><time>2026-04-19T09:38:51Z</time></trkpt><trkpt lat="44.34357235189737" lon="9.400373510651967"><ele>83.80000000000001</ele><time>2026-04-19T09:38:52Z</time></trkpt><trkpt lat="44.34364556797781" lon="9.400272456667063"><ele>84.0</ele><time>2026-04-19T09:38:53Z</time></trkpt><trkpt lat="44.343702410283434" lon="9.400190935957363"><ele>81.0</ele><time>2026-04-19T09:38:54Z</time></trkpt><trkpt lat="44.34375789506232" lon="9.400105941090219"><ele>78.0</ele><time>2026-04-19T09:38:55Z</time></trkpt><trkpt lat="44.343796981905754" lon="9.400011408745755"><ele>75.0</ele><time>2026-04-19T09:38:56Z</time></trkpt><trkpt lat="44.343869801612804" lon="9.399935532076684"><ele>72.0</ele><time>2026-04-19T09:38:57Z</time></trkpt><trkpt lat="44.34392946698715" lon="9.399850422899377"><ele>69.0</ele><time>2026-04-19T09:38:58Z</time></trkpt><trkpt lat="44.34399193128097" lon="9.399761728396586"><ele>66.0</ele><time>2026-04-19T09:38:59Z</time></trkpt><trkpt lat="44.344056808283945" lon="9.399679340645136"><ele>65.0</ele><time>2026-04-19T09:39:00Z</time></trkpt><trkpt lat="44.34411964971957" lon="9.399620349936487"><ele>63.99999999999999</ele><time>2026-04-19T09:39:01Z</time></trkpt><trkpt lat="44.34418353489965" lon="9.399575096915974"><ele>62.99999999999999</ele><time>2026-04-19T09:39:02Z</time></trkpt><trkpt lat="44.344255825357315" lon="9.399528647576556"><ele>62.0</ele><time>2026-04-19T09:39:03Z</time></trkpt><trkpt lat="44.34436655118536" lon="9.399453175666057"><ele>61.0</ele><time>2026-04-19T09:39:04Z</time></trkpt><trkpt lat="44.344480414529684" lon="9.399351602976935"><ele>61.0</ele><time>2026-04-19T09:39:05Z</time></trkpt><trkpt lat="44.344556423320626" lon="9.399246338091046"><ele>60.99999999999999</ele><time>2026-04-19T09:39:06Z</time></trkpt><trkpt lat="44.34463553791327" lon="9.399172958705972"><ele>60.99999999999999</ele><time>2026-04-19T09:39:07Z</time></trkpt><trkpt lat="44.344693751825645" lon="9.399085477085315"><ele>61.0</ele><time>2026-04-19T09:39:08Z</time></trkpt><trkpt lat="44.34470575146667" lon="9.3989644231315"><ele>61.0</ele><time>2026-04-19T09:39:09Z</time></trkpt><trkpt lat="44.3446874795037" lon="9.398823317857227"><ele>61.5</ele><time>2026-04-19T09:39:10Z</time></trkpt><trkpt lat="44.34464334318203" lon="9.398666850077541"><ele>62.0</ele><time>2026-04-19T09:39:11Z</time></trkpt><trkpt lat="44.34459859899235" lon="9.398508675006127"><ele>62.5</ele><time>2026-04-19T09:39:12Z</time></trkpt><trkpt lat="44.3445360633139" lon="9.39834044019899"><ele>63.0</ele><time>2026-04-19T09:39:13Z</time></trkpt><trkpt lat="44.34445697654762" lon="9.398202357084516"><ele>63.0</ele><time>2026-04-19T09:39:14Z</time></trkpt><trkpt lat="44.344374476556034" lon="9.398080626474814"><ele>63.0</ele><time>2026-04-19T09:39:15Z</time></trkpt><trkpt lat="44.34428418972379" lon="9.397951181593"><ele>63.0</ele><time>2026-04-19T09:39:16Z</time></trkpt><trkpt lat="44.344168265845184" lon="9.3978472397343"><ele>63.0</ele><time>2026-04-19T09:39:17Z</time></trkpt><trkpt lat="44.34402286617487" lon="9.397794641305657"><ele>62.5</ele><time>2026-04-19T09:39:18Z</time></trkpt><trkpt lat="44.34389032518819" lon="9.397732989736685"><ele>62.0</ele><time>2026-04-19T09:39:19Z</time></trkpt><trkpt lat="44.34378535748064" lon="9.397611034571591"><ele>61.5</ele><time>2026-04-19T09:39:20Z</time></trkpt><trkpt lat="44.34368807463296" lon="9.397489982087732"><ele>61.0</ele><time>2026-04-19T09:39:21Z</time></trkpt><trkpt lat="44.34363038488636" lon="9.397333578225732"><ele>60.0</ele><time>2026-04-19T09:39:22Z</time></trkpt><trkpt lat="44.34358642414304" lon="9.397157477294156"><ele>59.0</ele><time>2026-04-19T09:39:23Z</time></trkpt><trkpt lat="44.34355596302634" lon="9.396967525564298"><ele>58.0</ele><time>2026-04-19T09:39:24Z</time></trkpt><trkpt lat="44.34355587463803" lon="9.396767165028287"><ele>57.0</ele><time>2026-04-19T09:39:25Z</time></trkpt><trkpt lat="44.34360403572884" lon="9.396583890293435"><ele>57.0</ele><time>2026-04-19T09:39:26Z</time></trkpt><trkpt lat="44.34367482754858" lon="9.396405243748866"><ele>57.0</ele><time>2026-04-19T09:39:27Z</time></trkpt><trkpt lat="44.34377913937385" lon="9.396248700899243"><ele>57.0</ele><time>2026-04-19T09:39:28Z</time></trkpt><trkpt lat="44.343881136759656" lon="9.39612037343926"><ele>57.0</ele><time>2026-04-19T09:39:29Z</time></trkpt><trkpt lat="44.34398476464786" lon="9.396009373556701"><ele>57.75</ele><time>2026-04-19T09:39:30Z</time></trkpt><trkpt lat="44.34409469200834" lon="9.395893821583355"><ele>58.5</ele><time>2026-04-19T09:39:31Z</time></trkpt><trkpt lat="44.34420415304155" lon="9.395780934288814"><ele>59.25</ele><time>2026-04-19T09:39:32Z</time></trkpt><trkpt lat="44.34430695147186" lon="9.395658593296057"><ele>60.0</ele><time>2026-04-19T09:39:33Z</time></trkpt><trkpt lat="44.344423194371096" lon="9.395541359459214"><ele>59.0</ele><time>2026-04-19T09:39:34Z</time></trkpt><trkpt lat="44.34454479248618" lon="9.395413251094586"><ele>58.0</ele><time>2026-04-19T09:39:35Z</time></trkpt><trkpt lat="44.344672695892804" lon="9.395272700383256"><ele>57.0</ele><time>2026-04-19T09:39:36Z</time></trkpt><trkpt lat="44.34480504797789" lon="9.395125783805234"><ele>57.0</ele><time>2026-04-19T09:39:37Z</time></trkpt><trkpt lat="44.34495129633439" lon="9.394972411628924"><ele>57.0</ele><time>2026-04-19T09:39:38Z</time></trkpt><trkpt lat="44.345098967195774" lon="9.394817153989429"><ele>57.0</ele><time>2026-04-19T09:39:39Z</time></trkpt><trkpt lat="44.34525011132269" lon="9.394658699062166"><ele>56.66666666666667</ele><time>2026-04-19T09:39:40Z</time></trkpt><trkpt lat="44.34539285202902" lon="9.394506014554208"><ele>56.333333333333336</ele><time>2026-04-19T09:39:41Z</time></trkpt><trkpt lat="44.345529798163824" lon="9.394356671115816"><ele>56.0</ele><time>2026-04-19T09:39:42Z</time></trkpt><trkpt lat="44.34565229228269" lon="9.394187993695262"><ele>56.0</ele><time>2026-04-19T09:39:43Z</time></trkpt><trkpt lat="44.34575133965845" lon="9.39398027069104"><ele>56.0</ele><time>2026-04-19T09:39:43.999Z</time></trkpt><trkpt lat="44.34581387077165" lon="9.393724929233333"><ele>56.0</ele><time>2026-04-19T09:39:44.999Z</time></trkpt><trkpt lat="44.345846207625755" lon="9.393448571365601"><ele>56.0</ele><time>2026-04-19T09:39:45.999Z</time></trkpt><trkpt lat="44.34584311659585" lon="9.39316386007426"><ele>56.0</ele><time>2026-04-19T09:39:46.999Z</time></trkpt><trkpt lat="44.34580497812673" lon="9.392897595437676"><ele>56.0</ele><time>2026-04-19T09:39:47.999Z</time></trkpt><trkpt lat="44.345764331838645" lon="9.392640268172489"><ele>56.0</ele><time>2026-04-19T09:39:48.999Z</time></trkpt><trkpt lat="44.34573452906912" lon="9.392376376598214"><ele>56.0</ele><time>2026-04-19T09:39:49.999Z</time></trkpt><trkpt lat="44.34573515956651" lon="9.39212018096167"><ele>56.0</ele><time>2026-04-19T09:39:50.999Z</time></trkpt><trkpt lat="44.34573059171396" lon="9.391894937312781"><ele>55.66666666666667</ele><time>2026-04-19T09:39:51.999Z</time></trkpt><trkpt lat="44.34575597404056" lon="9.391680941288378"><ele>55.33333333333333</ele><time>2026-04-19T09:39:52.999Z</time></trkpt><trkpt lat="44.345833316317645" lon="9.391496776286932"><ele>55.0</ele><time>2026-04-19T09:39:53.999Z</time></trkpt><trkpt lat="44.345950201299615" lon="9.39132573974696"><ele>55.0</ele><time>2026-04-19T09:39:54.999Z</time></trkpt><trkpt lat="44.34610831143559" lon="9.391189061245916"><ele>55.0</ele><time>2026-04-19T09:39:55.999Z</time></trkpt><trkpt lat="44.34630423043466" lon="9.391090131580913"><ele>55.0</ele><time>2026-04-19T09:39:56.999Z</time></trkpt><trkpt lat="44.346510221872386" lon="9.39096225857251"><ele>57.0</ele><time>2026-04-19T09:39:57.999Z</time></trkpt><trkpt lat="44.3466975219972" lon="9.390871195269344"><ele>59.0</ele><time>2026-04-19T09:39:58.999Z</time></trkpt><trkpt lat="44.34686060543418" lon="9.390738193365035"><ele>61.0</ele><time>2026-04-19T09:39:59.999Z</time></trkpt><trkpt lat="44.34698928902438" lon="9.39056280758009"><ele>58.33333333333333</ele><time>2026-04-19T09:40:00.999Z</time></trkpt><trkpt lat="44.34709953518772" lon="9.39034864026528"><ele>55.66666666666667</ele><time>2026-04-19T09:40:01.999Z</time></trkpt><trkpt lat="44.3471941237408" lon="9.390153704534177"><ele>53.0</ele><time>2026-04-19T09:40:02.999Z</time></trkpt><trkpt lat="44.34726933270921" lon="9.389954203364296"><ele>59.66666666666667</ele><time>2026-04-19T09:40:03.999Z</time></trkpt><trkpt lat="44.34732275396274" lon="9.389741966969012"><ele>66.33333333333333</ele><time>2026-04-19T09:40:04.999Z</time></trkpt><trkpt lat="44.347348529845" lon="9.389507115958367"><ele>73.0</ele><time>2026-04-19T09:40:05.998Z</time></trkpt><trkpt lat="44.34733042747726" lon="9.38926856502888"><ele>73.25</ele><time>2026-04-19T09:40:06.998Z</time></trkpt><trkpt lat="44.347288063892414" lon="9.389059139993433"><ele>73.5</ele><time>2026-04-19T09:40:07.998Z</time></trkpt><trkpt lat="44.3472656692164" lon="9.388873441880934"><ele>73.75</ele><time>2026-04-19T09:40:08.998Z</time></trkpt><trkpt lat="44.34732389316557" lon="9.388726306698093"><ele>74.0</ele><time>2026-04-19T09:40:09.998Z</time></trkpt><trkpt lat="44.34737093114822" lon="9.38856018972248"><ele>71.0</ele><time>2026-04-19T09:40:10.999Z</time></trkpt><trkpt lat="44.34744165569179" lon="9.388409514943618"><ele>68.0</ele><time>2026-04-19T09:40:11.999Z</time></trkpt><trkpt lat="44.347544153937704" lon="9.388262002937779"><ele>65.0</ele><time>2026-04-19T09:40:12.999Z</time></trkpt><trkpt lat="44.34767829834006" lon="9.388018251606498"><ele>60.66666666666667</ele><time>2026-04-19T09:40:13.999Z</time></trkpt><trkpt lat="44.34781443320642" lon="9.387758545479313"><ele>56.33333333333333</ele><time>2026-04-19T09:40:14.999Z</time></trkpt><trkpt lat="44.347921049142904" lon="9.38749458796032"><ele>52.0</ele><time>2026-04-19T09:40:15.999Z</time></trkpt><trkpt lat="44.34804269773799" lon="9.38726471225758"><ele>51.0</ele><time>2026-04-19T09:40:16.999Z</time></trkpt><trkpt lat="44.348146497209925" lon="9.387043192855923"><ele>50.0</ele><time>2026-04-19T09:40:17.999Z</time></trkpt><trkpt lat="44.3482473563464" lon="9.386850211927744"><ele>49.0</ele><time>2026-04-19T09:40:18.999Z</time></trkpt><trkpt lat="44.348365829320585" lon="9.386683240380524"><ele>49.0</ele><time>2026-04-19T09:40:19.999Z</time></trkpt><trkpt lat="44.34846254959036" lon="9.386493263999288"><ele>49.0</ele><time>2026-04-19T09:40:20.999Z</time></trkpt><trkpt lat="44.348541046318246" lon="9.386290934631933"><ele>49.0</ele><time>2026-04-19T09:40:21.999Z</time></trkpt><trkpt lat="44.34860461157465" lon="9.386089591151665"><ele>48.5</ele><time>2026-04-19T09:40:22.999Z</time></trkpt><trkpt lat="44.34865836599682" lon="9.385894730955469"><ele>48.0</ele><time>2026-04-19T09:40:23.999Z</time></trkpt><trkpt lat="44.34869471411407" lon="9.38570423402706"><ele>47.5</ele><time>2026-04-19T09:40:24.999Z</time></trkpt><trkpt lat="44.34870109910759" lon="9.385511661363246"><ele>47.0</ele><time>2026-04-19T09:40:25.999Z</time></trkpt><trkpt lat="44.34868368422584" lon="9.385302098130884"><ele>47.0</ele><time>2026-04-19T09:40:26.999Z</time></trkpt><trkpt lat="44.348632309725275" lon="9.38506838136298"><ele>47.0</ele><time>2026-04-19T09:40:27.999Z</time></trkpt><trkpt lat="44.348556669662166" lon="9.384817691590817"><ele>47.0</ele><time>2026-04-19T09:40:28.999Z</time></trkpt><trkpt lat="44.34853215489106" lon="9.384504562136025"><ele>46.33333333333333</ele><time>2026-04-19T09:40:29.999Z</time></trkpt><trkpt lat="44.348484163592104" lon="9.384200682583705"><ele>45.666666666666664</ele><time>2026-04-19T09:40:30.999Z</time></trkpt><trkpt lat="44.348419769531795" lon="9.383914581909812"><ele>45.0</ele><time>2026-04-19T09:40:31.999Z</time></trkpt><trkpt lat="44.34836061494403" lon="9.383631020349704"><ele>45.0</ele><time>2026-04-19T09:40:32.999Z</time></trkpt><trkpt lat="44.34830614814202" lon="9.383343745630173"><ele>45.0</ele><time>2026-04-19T09:40:33.999Z</time></trkpt><trkpt lat="44.34825274211755" lon="9.383055363482864"><ele>45.0</ele><time>2026-04-19T09:40:34.999Z</time></trkpt><trkpt lat="44.34819714584133" lon="9.382751905398326"><ele>43.0</ele><time>2026-04-19T09:40:35.999Z</time></trkpt><trkpt lat="44.3481380790792" lon="9.382438006427288"><ele>41.0</ele><time>2026-04-19T09:40:36.999Z</time></trkpt><trkpt lat="44.34808500674713" lon="9.382133215771468"><ele>43.33333333333333</ele><time>2026-04-19T09:40:37.999Z</time></trkpt><trkpt lat="44.3480346778428" lon="9.381858221924938"><ele>45.666666666666664</ele><time>2026-04-19T09:40:38.999Z</time></trkpt><trkpt lat="44.34798287975899" lon="9.381609461146597"><ele>48.0</ele><time>2026-04-19T09:40:39.999Z</time></trkpt><trkpt lat="44.3479343596283" lon="9.381375185605885"><ele>45.666666666666664</ele><time>2026-04-19T09:40:40.999Z</time></trkpt><trkpt lat="44.34788551786301" lon="9.381143232885263"><ele>43.33333333333333</ele><time>2026-04-19T09:40:41.999Z</time></trkpt><trkpt lat="44.34782518882967" lon="9.380938279961487"><ele>41.0</ele><time>2026-04-19T09:40:42.999Z</time></trkpt><trkpt lat="44.347723990384964" lon="9.380727130238824"><ele>41.0</ele><time>2026-04-19T09:40:43.999Z</time></trkpt><trkpt lat="44.34759535765803" lon="9.380567299992853"><ele>41.0</ele><time>2026-04-19T09:40:44.999Z</time></trkpt><trkpt lat="44.34743987287489" lon="9.380413317362162"><ele>41.0</ele><time>2026-04-19T09:40:45.999Z</time></trkpt><trkpt lat="44.347328489672115" lon="9.380210983638426"><ele>42.666666666666664</ele><time>2026-04-19T09:40:46.999Z</time></trkpt><trkpt lat="44.34723092526833" lon="9.380033015587601"><ele>44.333333333333336</ele><time>2026-04-19T09:40:47.999Z</time></trkpt><trkpt lat="44.34713951147853" lon="9.37985608595469"><ele>46.0</ele><time>2026-04-19T09:40:48.999Z</time></trkpt><trkpt lat="44.347066120766314" lon="9.379695197498538"><ele>43.599999999999994</ele><time>2026-04-19T09:40:49.999Z</time></trkpt><trkpt lat="44.34701665988749" lon="9.379548466619944"><ele>41.199999999999996</ele><time>2026-04-19T09:40:50.999Z</time></trkpt><trkpt lat="44.346999882974515" lon="9.37940284598439"><ele>38.8</ele><time>2026-04-19T09:40:51.999Z</time></trkpt><trkpt lat="44.34700182062197" lon="9.379260667362594"><ele>36.4</ele><time>2026-04-19T09:40:52.999Z</time></trkpt><trkpt lat="44.34710101155377" lon="9.379191670665023"><ele>34.0</ele><time>2026-04-19T09:40:53.999Z</time></trkpt><trkpt lat="44.34718931764844" lon="9.379083514421048"><ele>34.0</ele><time>2026-04-19T09:40:54.999Z</time></trkpt><trkpt lat="44.3473024266349" lon="9.37897312308873"><ele>34.0</ele><time>2026-04-19T09:40:55.999Z</time></trkpt><trkpt lat="44.3474169986172" lon="9.378835840993599"><ele>34.0</ele><time>2026-04-19T09:40:56.999Z</time></trkpt><trkpt lat="44.34755753303351" lon="9.37870601274154"><ele>34.0</ele><time>2026-04-19T09:40:57.999Z</time></trkpt><trkpt lat="44.34771421637269" lon="9.378571754938205"><ele>34.0</ele><time>2026-04-19T09:40:58.999Z</time></trkpt><trkpt lat="44.347869168834556" lon="9.37839217967197"><ele>34.0</ele><time>2026-04-19T09:40:59.999Z</time></trkpt><trkpt lat="44.34804629698327" lon="9.378227424636098"><ele>33.0</ele><time>2026-04-19T09:41:00.999Z</time></trkpt><trkpt lat="44.34820685607976" lon="9.378059913000202"><ele>32.0</ele><time>2026-04-19T09:41:01.999Z</time></trkpt><trkpt lat="44.348349904547156" lon="9.377913081377061"><ele>31.0</ele><time>2026-04-19T09:41:02.999Z</time></trkpt><trkpt lat="44.348497037241955" lon="9.377765503852173"><ele>31.0</ele><time>2026-04-19T09:41:03.999Z</time></trkpt><trkpt lat="44.348626402348025" lon="9.377610329519813"><ele>31.0</ele><time>2026-04-19T09:41:04.999Z</time></trkpt><trkpt lat="44.34876356742237" lon="9.37748147123835"><ele>31.0</ele><time>2026-04-19T09:41:05.999Z</time></trkpt><trkpt lat="44.348880484665074" lon="9.377381195407164"><ele>30.6</ele><time>2026-04-19T09:41:06.999Z</time></trkpt><trkpt lat="44.34895207937841" lon="9.377297694666742"><ele>30.200000000000003</ele><time>2026-04-19T09:41:07.999Z</time></trkpt><trkpt lat="44.349043508644066" lon="9.377186798903525"><ele>29.799999999999997</ele><time>2026-04-19T09:41:09.999Z</time></trkpt><trkpt lat="44.34911319876892" lon="9.37711168689389"><ele>29.4</ele><time>2026-04-19T09:41:10.999Z</time></trkpt><trkpt lat="44.3491880598521" lon="9.377026767364173"><ele>29.0</ele><time>2026-04-19T09:41:11.999Z</time></trkpt><trkpt lat="44.349287447416536" lon="9.376950193858644"><ele>29.0</ele><time>2026-04-19T09:41:12.999Z</time></trkpt><trkpt lat="44.34937200275209" lon="9.376818685541313"><ele>29.0</ele><time>2026-04-19T09:41:13.999Z</time></trkpt><trkpt lat="44.34944277157297" lon="9.376688173854042"><ele>29.0</ele><time>2026-04-19T09:41:14.999Z</time></trkpt><trkpt lat="44.349463809974324" lon="9.37653738109231"><ele>29.0</ele><time>2026-04-19T09:41:15.999Z</time></trkpt><trkpt lat="44.349419716488065" lon="9.376381287948574"><ele>34.0</ele><time>2026-04-19T09:41:16.999Z</time></trkpt><trkpt lat="44.34933093402668" lon="9.376216084295104"><ele>39.0</ele><time>2026-04-19T09:41:17.999Z</time></trkpt><trkpt lat="44.34922740714513" lon="9.376043624254226"><ele>44.0</ele><time>2026-04-19T09:41:18.999Z</time></trkpt><trkpt lat="44.349115572515586" lon="9.375839677608761"><ele>44.0</ele><time>2026-04-19T09:41:19.999Z</time></trkpt><trkpt lat="44.34899219102994" lon="9.375644088373571"><ele>44.0</ele><time>2026-04-19T09:41:20.999Z</time></trkpt><trkpt lat="44.34885987271004" lon="9.37545751114005"><ele>44.0</ele><time>2026-04-19T09:41:21.999Z</time></trkpt><trkpt lat="44.348740542700426" lon="9.37528627843637"><ele>41.0</ele><time>2026-04-19T09:41:22.999Z</time></trkpt><trkpt lat="44.348632118924314" lon="9.375131276717529"><ele>38.0</ele><time>2026-04-19T09:41:23.999Z</time></trkpt><trkpt lat="44.34854878324126" lon="9.374995826295613"><ele>35.0</ele><time>2026-04-19T09:41:24.999Z</time></trkpt><trkpt lat="44.3485440273704" lon="9.374827086696452"><ele>32.0</ele><time>2026-04-19T09:41:25.999Z</time></trkpt><trkpt lat="44.34856760799543" lon="9.374663470631626"><ele>31.0</ele><time>2026-04-19T09:41:26.999Z</time></trkpt><trkpt lat="44.34861885070361" lon="9.374445592655292"><ele>30.0</ele><time>2026-04-19T09:41:27.999Z</time></trkpt><trkpt lat="44.34866001017832" lon="9.3741876648331"><ele>29.0</ele><time>2026-04-19T09:41:28.999Z</time></trkpt><trkpt lat="44.3487274151799" lon="9.37393078161317"><ele>30.666666666666664</ele><time>2026-04-19T09:41:29.999Z</time></trkpt><trkpt lat="44.34877684860976" lon="9.373689777655883"><ele>32.333333333333336</ele><time>2026-04-19T09:41:30.999Z</time></trkpt><trkpt lat="44.348785839127146" lon="9.37345979346845"><ele>34.0</ele><time>2026-04-19T09:41:31.999Z</time></trkpt><trkpt lat="44.34875350965349" lon="9.373226971121644"><ele>35.66666666666667</ele><time>2026-04-19T09:41:32.999Z</time></trkpt><trkpt lat="44.34872136429116" lon="9.372959292504984"><ele>37.333333333333336</ele><time>2026-04-19T09:41:33.999Z</time></trkpt><trkpt lat="44.34869553678658" lon="9.372683343598062"><ele>39.0</ele><time>2026-04-19T09:41:34.999Z</time></trkpt><trkpt lat="44.34865899425735" lon="9.372428558968378"><ele>37.333333333333336</ele><time>2026-04-19T09:41:35.999Z</time></trkpt><trkpt lat="44.348584468779315" lon="9.372177000038771"><ele>35.66666666666667</ele><time>2026-04-19T09:41:36.999Z</time></trkpt><trkpt lat="44.34852060171185" lon="9.371895350927916"><ele>34.0</ele><time>2026-04-19T09:41:37.999Z</time></trkpt><trkpt lat="44.348480722882215" lon="9.371607103096"><ele>32.333333333333336</ele><time>2026-04-19T09:41:38.999Z</time></trkpt><trkpt lat="44.34847131057107" lon="9.371294902455604"><ele>30.666666666666664</ele><time>2026-04-19T09:41:39.999Z</time></trkpt><trkpt lat="44.34849506755568" lon="9.3710004224019"><ele>29.0</ele><time>2026-04-19T09:41:40.999Z</time></trkpt><trkpt lat="44.34853539712284" lon="9.370729523659937"><ele>29.0</ele><time>2026-04-19T09:41:41.999Z</time></trkpt><trkpt lat="44.34859841308691" lon="9.370452408145658"><ele>29.0</ele><time>2026-04-19T09:41:42.999Z</time></trkpt><trkpt lat="44.34868600393624" lon="9.37020214659657"><ele>29.0</ele><time>2026-04-19T09:41:43.999Z</time></trkpt><trkpt lat="44.348770354246646" lon="9.369906184326577"><ele>26.333333333333332</ele><time>2026-04-19T09:41:44.999Z</time></trkpt><trkpt lat="44.34889296484427" lon="9.369651522415092"><ele>23.666666666666664</ele><time>2026-04-19T09:41:45.999Z</time></trkpt><trkpt lat="44.34902144904825" lon="9.36939919315148"><ele>21.0</ele><time>2026-04-19T09:41:46.999Z</time></trkpt><trkpt lat="44.34913445213635" lon="9.369169703276734"><ele>21.0</ele><time>2026-04-19T09:41:47.999Z</time></trkpt><trkpt lat="44.34922306112946" lon="9.368939206752904"><ele>21.0</ele><time>2026-04-19T09:41:48.999Z</time></trkpt><trkpt lat="44.34928914703693" lon="9.368694021366874"><ele>21.0</ele><time>2026-04-19T09:41:49.999Z</time></trkpt><trkpt lat="44.34931309051397" lon="9.368457243900204"><ele>20.666666666666668</ele><time>2026-04-19T09:41:50.999Z</time></trkpt><trkpt lat="44.34929989177278" lon="9.368221347416457"><ele>20.333333333333336</ele><time>2026-04-19T09:41:51.999Z</time></trkpt><trkpt lat="44.34924717232485" lon="9.367986682046533"><ele>20.0</ele><time>2026-04-19T09:41:52.999Z</time></trkpt><trkpt lat="44.3491682461507" lon="9.367748991177663"><ele>20.666666666666668</ele><time>2026-04-19T09:41:53.999Z</time></trkpt><trkpt lat="44.349048092056236" lon="9.367538543116536"><ele>21.333333333333332</ele><time>2026-04-19T09:41:54.999Z</time></trkpt><trkpt lat="44.34888831657005" lon="9.36737210188427"><ele>22.0</ele><time>2026-04-19T09:41:55.999Z</time></trkpt><trkpt lat="44.34869763307216" lon="9.367218194459923"><ele>18.5</ele><time>2026-04-19T09:41:56.999Z</time></trkpt><trkpt lat="44.34850080129371" lon="9.36703831543861"><ele>15.0</ele><time>2026-04-19T09:41:57.999Z</time></trkpt><trkpt lat="44.34830683537943" lon="9.366863074669018"><ele>15.0</ele><time>2026-04-19T09:41:58.999Z</time></trkpt><trkpt lat="44.34811255551498" lon="9.366716373852354"><ele>15.0</ele><time>2026-04-19T09:41:59.999Z</time></trkpt><trkpt lat="44.34794389206866" lon="9.36655153533035"><ele>15.0</ele><time>2026-04-19T09:42:00.999Z</time></trkpt><trkpt lat="44.347769818146915" lon="9.366393653840596"><ele>15.0</ele><time>2026-04-19T09:42:01.999Z</time></trkpt><trkpt lat="44.34758805577977" lon="9.366236331149327"><ele>15.0</ele><time>2026-04-19T09:42:02.999Z</time></trkpt><trkpt lat="44.34740250157216" lon="9.366077476955438"><ele>15.0</ele><time>2026-04-19T09:42:03.999Z</time></trkpt><trkpt lat="44.347223057641855" lon="9.365916438396235"><ele>16.333333333333332</ele><time>2026-04-19T09:42:04.999Z</time></trkpt><trkpt lat="44.34705951599811" lon="9.365769270044607"><ele>17.666666666666664</ele><time>2026-04-19T09:42:05.999Z</time></trkpt><trkpt lat="44.346909197751486" lon="9.365638372268776"><ele>19.0</ele><time>2026-04-19T09:42:06.999Z</time></trkpt><trkpt lat="44.346788577009654" lon="9.365488877595043"><ele>19.0</ele><time>2026-04-19T09:42:07.999Z</time></trkpt><trkpt lat="44.34668131442822" lon="9.365339871187809"><ele>19.0</ele><time>2026-04-19T09:42:08.999Z</time></trkpt><trkpt lat="44.34659345336751" lon="9.365156047988071"><ele>19.0</ele><time>2026-04-19T09:42:09.999Z</time></trkpt><trkpt lat="44.34650869833513" lon="9.36495294483285"><ele>19.0</ele><time>2026-04-19T09:42:10.999Z</time></trkpt><trkpt lat="44.34644638224247" lon="9.36472194417197"><ele>19.0</ele><time>2026-04-19T09:42:11.999Z</time></trkpt><trkpt lat="44.34640950433592" lon="9.364511674223818"><ele>19.0</ele><time>2026-04-19T09:42:12.999Z</time></trkpt><trkpt lat="44.34638247500193" lon="9.364343402501913"><ele>20.166666666666664</ele><time>2026-04-19T09:42:13.998Z</time></trkpt><trkpt lat="44.34635988531802" lon="9.364217220621173"><ele>21.333333333333332</ele><time>2026-04-19T09:42:14.998Z</time></trkpt><trkpt lat="44.34634177212427" lon="9.364123299864868"><ele>22.5</ele><time>2026-04-19T09:42:15.998Z</time></trkpt><trkpt lat="44.34632928762594" lon="9.36401205932136"><ele>23.666666666666664</ele><time>2026-04-19T09:42:17.999Z</time></trkpt><trkpt lat="44.34634717837341" lon="9.363844507060847"><ele>24.833333333333332</ele><time>2026-04-19T09:42:19.999Z</time></trkpt><trkpt lat="44.346323022218336" lon="9.363737305847003"><ele>26.0</ele><time>2026-04-19T09:42:20.999Z</time></trkpt><trkpt lat="44.34625070564696" lon="9.36361974621197"><ele>26.0</ele><time>2026-04-19T09:42:21.999Z</time></trkpt><trkpt lat="44.346153394930084" lon="9.363496275036947"><ele>26.0</ele><time>2026-04-19T09:42:22.999Z</time></trkpt><trkpt lat="44.34608157957511" lon="9.363326835677173"><ele>26.0</ele><time>2026-04-19T09:42:23.999Z</time></trkpt><trkpt lat="44.34602982433956" lon="9.363114466211211"><ele>26.0</ele><time>2026-04-19T09:42:24.999Z</time></trkpt><trkpt lat="44.3459741817833" lon="9.362874414668324"><ele>23.0</ele><time>2026-04-19T09:42:25.999Z</time></trkpt><trkpt lat="44.34590268239421" lon="9.36262879401917"><ele>20.0</ele><time>2026-04-19T09:42:26.999Z</time></trkpt><trkpt lat="44.34582766608037" lon="9.362386437675543"><ele>17.0</ele><time>2026-04-19T09:42:27.999Z</time></trkpt><trkpt lat="44.34575456671008" lon="9.36215433158938"><ele>17.0</ele><time>2026-04-19T09:42:28.999Z</time></trkpt><trkpt lat="44.345708048298555" lon="9.3619807452915"><ele>17.0</ele><time>2026-04-19T09:42:29.999Z</time></trkpt><trkpt lat="44.345654559694175" lon="9.361808494235348"><ele>17.0</ele><time>2026-04-19T09:42:30.999Z</time></trkpt><trkpt lat="44.34560907422011" lon="9.361602265820656"><ele>17.0</ele><time>2026-04-19T09:42:31.999Z</time></trkpt><trkpt lat="44.345553221450764" lon="9.36138275627614"><ele>16.75</ele><time>2026-04-19T09:42:32.999Z</time></trkpt><trkpt lat="44.345491166803136" lon="9.361179280764514"><ele>16.5</ele><time>2026-04-19T09:42:33.999Z</time></trkpt><trkpt lat="44.34544372659362" lon="9.360997706908888"><ele>16.25</ele><time>2026-04-19T09:42:34.999Z</time></trkpt><trkpt lat="44.3453721848688" lon="9.360822502445773"><ele>16.0</ele><time>2026-04-19T09:42:35.999Z</time></trkpt><trkpt lat="44.345276947757576" lon="9.360651347830562"><ele>15.333333333333332</ele><time>2026-04-19T09:42:36.999Z</time></trkpt><trkpt lat="44.34516264623123" lon="9.360478916069926"><ele>14.666666666666668</ele><time>2026-04-19T09:42:37.999Z</time></trkpt><trkpt lat="44.34503635763639" lon="9.360307994539252"><ele>14.0</ele><time>2026-04-19T09:42:38.999Z</time></trkpt><trkpt lat="44.34490268757964" lon="9.360147302013257"><ele>14.0</ele><time>2026-04-19T09:42:39.999Z</time></trkpt><trkpt lat="44.34476328720629" lon="9.359990128687828"><ele>14.0</ele><time>2026-04-19T09:42:40.999Z</time></trkpt><trkpt lat="44.344635068735094" lon="9.359838552762037"><ele>14.0</ele><time>2026-04-19T09:42:41.999Z</time></trkpt><trkpt lat="44.34449530584038" lon="9.359680514545985"><ele>14.666666666666668</ele><time>2026-04-19T09:42:42.999Z</time></trkpt><trkpt lat="44.34436170806863" lon="9.359524604693252"><ele>15.333333333333332</ele><time>2026-04-19T09:42:43.999Z</time></trkpt><trkpt lat="44.34422171533293" lon="9.359362305852269"><ele>16.0</ele><time>2026-04-19T09:42:44.999Z</time></trkpt><trkpt lat="44.34409098355539" lon="9.359213540082001"><ele>16.0</ele><time>2026-04-19T09:42:45.999Z</time></trkpt><trkpt lat="44.34395621584232" lon="9.359061360524715"><ele>16.0</ele><time>2026-04-19T09:42:46.999Z</time></trkpt><trkpt lat="44.34381861820306" lon="9.358908065937865"><ele>16.0</ele><time>2026-04-19T09:42:47.999Z</time></trkpt><trkpt lat="44.343676893613775" lon="9.358747965193817"><ele>15.333333333333332</ele><time>2026-04-19T09:42:48.999Z</time></trkpt><trkpt lat="44.343533529706185" lon="9.358582075815496"><ele>14.666666666666668</ele><time>2026-04-19T09:42:49.999Z</time></trkpt><trkpt lat="44.343396096906744" lon="9.358398087217251"><ele>14.0</ele><time>2026-04-19T09:42:50.999Z</time></trkpt><trkpt lat="44.3432320444129" lon="9.358238461713238"><ele>14.0</ele><time>2026-04-19T09:42:51.999Z</time></trkpt><trkpt lat="44.34309938075325" lon="9.358055825902795"><ele>14.0</ele><time>2026-04-19T09:42:52.999Z</time></trkpt><trkpt lat="44.34295083176912" lon="9.357915448225247"><ele>14.0</ele><time>2026-04-19T09:42:53.999Z</time></trkpt><trkpt lat="44.34281325254172" lon="9.35776595852847"><ele>15.0</ele><time>2026-04-19T09:42:54.999Z</time></trkpt><trkpt lat="44.34267898276132" lon="9.357618542872085"><ele>16.0</ele><time>2026-04-19T09:42:55.999Z</time></trkpt><trkpt lat="44.34255393011861" lon="9.357477274728975"><ele>17.0</ele><time>2026-04-19T09:42:56.999Z</time></trkpt><trkpt lat="44.34243788486942" lon="9.357334153450276"><ele>15.666666666666668</ele><time>2026-04-19T09:42:57.999Z</time></trkpt><trkpt lat="44.34234234247629" lon="9.35715344485604"><ele>14.333333333333332</ele><time>2026-04-19T09:42:58.999Z</time></trkpt><trkpt lat="44.34223050097581" lon="9.35696880538836"><ele>13.0</ele><time>2026-04-19T09:42:59.999Z</time></trkpt><trkpt lat="44.34212641259606" lon="9.356768161902036"><ele>13.333333333333332</ele><time>2026-04-19T09:43:00.999Z</time></trkpt><trkpt lat="44.34203069096701" lon="9.356586062419801"><ele>13.666666666666668</ele><time>2026-04-19T09:43:01.999Z</time></trkpt><trkpt lat="44.341923233999516" lon="9.356422949575707"><ele>14.0</ele><time>2026-04-19T09:43:02.999Z</time></trkpt><trkpt lat="44.34180495387083" lon="9.356270612873175"><ele>14.0</ele><time>2026-04-19T09:43:03.999Z</time></trkpt><trkpt lat="44.34168900537267" lon="9.35611406209666"><ele>14.0</ele><time>2026-04-19T09:43:04.999Z</time></trkpt><trkpt lat="44.34158298023255" lon="9.355975679567473"><ele>14.0</ele><time>2026-04-19T09:43:05.999Z</time></trkpt><trkpt lat="44.341479120158766" lon="9.355835371323133"><ele>14.333333333333334</ele><time>2026-04-19T09:43:06.999Z</time></trkpt><trkpt lat="44.341372551495596" lon="9.355698323924214"><ele>14.666666666666668</ele><time>2026-04-19T09:43:07.999Z</time></trkpt><trkpt lat="44.34127193775903" lon="9.355545355560201"><ele>15.0</ele><time>2026-04-19T09:43:08.999Z</time></trkpt><trkpt lat="44.34113721269624" lon="9.355424767422134"><ele>15.0</ele><time>2026-04-19T09:43:09.999Z</time></trkpt><trkpt lat="44.34101041928908" lon="9.35529731310221"><ele>15.0</ele><time>2026-04-19T09:43:10.999Z</time></trkpt><trkpt lat="44.34087856645751" lon="9.35518411753435"><ele>15.0</ele><time>2026-04-19T09:43:11.999Z</time></trkpt><trkpt lat="44.340742518920145" lon="9.355051871057633"><ele>15.0</ele><time>2026-04-19T09:43:12.999Z</time></trkpt><trkpt lat="44.340578913661695" lon="9.354940190214991"><ele>15.0</ele><time>2026-04-19T09:43:13.999Z</time></trkpt><trkpt lat="44.34040747866307" lon="9.354831440794694"><ele>15.0</ele><time>2026-04-19T09:43:14.999Z</time></trkpt><trkpt lat="44.34023731975291" lon="9.354725841005584"><ele>14.0</ele><time>2026-04-19T09:43:15.999Z</time></trkpt><trkpt lat="44.34007122224419" lon="9.354623603231097"><ele>13.0</ele><time>2026-04-19T09:43:16.999Z</time></trkpt><trkpt lat="44.33992120996003" lon="9.354530874434408"><ele>12.0</ele><time>2026-04-19T09:43:17.999Z</time></trkpt><trkpt lat="44.33976484010547" lon="9.354453590306662"><ele>12.0</ele><time>2026-04-19T09:43:18.999Z</time></trkpt><trkpt lat="44.33962015838971" lon="9.354360700977566"><ele>12.0</ele><time>2026-04-19T09:43:19.999Z</time></trkpt><trkpt lat="44.339492696127444" lon="9.354255057526972"><ele>12.0</ele><time>2026-04-19T09:43:20.999Z</time></trkpt><trkpt lat="44.339360021133906" lon="9.354171126754752"><ele>12.0</ele><time>2026-04-19T09:43:21.999Z</time></trkpt><trkpt lat="44.339233328400674" lon="9.354091446807196"><ele>12.0</ele><time>2026-04-19T09:43:22.999Z</time></trkpt><trkpt lat="44.33911473024228" lon="9.354037634190325"><ele>12.0</ele><time>2026-04-19T09:43:23.999Z</time></trkpt><trkpt lat="44.33900618226611" lon="9.35396397080476"><ele>12.0</ele><time>2026-04-19T09:43:24.999Z</time></trkpt><trkpt lat="44.3389010717327" lon="9.353896775934524"><ele>12.25</ele><time>2026-04-19T09:43:25.999Z</time></trkpt><trkpt lat="44.33878516385878" lon="9.353829244348322"><ele>12.5</ele><time>2026-04-19T09:43:26.999Z</time></trkpt><trkpt lat="44.33866741402653" lon="9.353760043439179"><ele>12.75</ele><time>2026-04-19T09:43:27.999Z</time></trkpt><trkpt lat="44.33854576779946" lon="9.35369332912666"><ele>13.0</ele><time>2026-04-19T09:43:28.999Z</time></trkpt><trkpt lat="44.3384287294784" lon="9.35362483124713"><ele>13.0</ele><time>2026-04-19T09:43:29.999Z</time></trkpt><trkpt lat="44.33831446430079" lon="9.353552420276474"><ele>13.0</ele><time>2026-04-19T09:43:30.999Z</time></trkpt><trkpt lat="44.33819189141316" lon="9.353472200153869"><ele>13.0</ele><time>2026-04-19T09:43:31.999Z</time></trkpt><trkpt lat="44.33807962848793" lon="9.353398379079184"><ele>13.0</ele><time>2026-04-19T09:43:32.999Z</time></trkpt><trkpt lat="44.33797225587834" lon="9.353293084156517"><ele>13.0</ele><time>2026-04-19T09:43:33.999Z</time></trkpt><trkpt lat="44.33785565062758" lon="9.35321962154072"><ele>13.0</ele><time>2026-04-19T09:43:34.999Z</time></trkpt><trkpt lat="44.3377479021724" lon="9.35315173872889"><ele>13.0</ele><time>2026-04-19T09:43:35.999Z</time></trkpt><trkpt lat="44.33764156446697" lon="9.353084517056917"><ele>13.0</ele><time>2026-04-19T09:43:36.999Z</time></trkpt><trkpt lat="44.33754199414033" lon="9.353021274698465"><ele>13.0</ele><time>2026-04-19T09:43:37.999Z</time></trkpt><trkpt lat="44.337435552522265" lon="9.352953667972903"><ele>13.0</ele><time>2026-04-19T09:43:38.999Z</time></trkpt><trkpt lat="44.337318737987324" lon="9.352879472862767"><ele>13.0</ele><time>2026-04-19T09:43:39.999Z</time></trkpt><trkpt lat="44.33721985027398" lon="9.352816664108502"><ele>13.0</ele><time>2026-04-19T09:43:40.999Z</time></trkpt><trkpt lat="44.33710476649056" lon="9.352743568299537"><ele>13.0</ele><time>2026-04-19T09:43:41.999Z</time></trkpt><trkpt lat="44.336986412023215" lon="9.352668625730573"><ele>13.0</ele><time>2026-04-19T09:43:42.999Z</time></trkpt><trkpt lat="44.336859975338996" lon="9.352588757046378"><ele>13.0</ele><time>2026-04-19T09:43:43.999Z</time></trkpt><trkpt lat="44.3367381676848" lon="9.352511812495331"><ele>13.0</ele><time>2026-04-19T09:43:44.999Z</time></trkpt><trkpt lat="44.33660838070121" lon="9.352429827474136"><ele>13.0</ele><time>2026-04-19T09:43:45.999Z</time></trkpt><trkpt lat="44.336471285418604" lon="9.352343225908971"><ele>13.0</ele><time>2026-04-19T09:43:46.999Z</time></trkpt><trkpt lat="44.33634953769961" lon="9.35226631918677"><ele>13.0</ele><time>2026-04-19T09:43:47.999Z</time></trkpt><trkpt lat="44.33621358309461" lon="9.352177531092787"><ele>13.0</ele><time>2026-04-19T09:43:48.999Z</time></trkpt><trkpt lat="44.33606821009008" lon="9.35208283728786"><ele>13.0</ele><time>2026-04-19T09:43:49.999Z</time></trkpt><trkpt lat="44.335914319875464" lon="9.351985128540958"><ele>13.0</ele><time>2026-04-19T09:43:50.999Z</time></trkpt><trkpt lat="44.33576288640231" lon="9.351888761787125"><ele>13.0</ele><time>2026-04-19T09:43:51.999Z</time></trkpt><trkpt lat="44.33562794495707" lon="9.35180289061253"><ele>13.0</ele><time>2026-04-19T09:43:52.999Z</time></trkpt><trkpt lat="44.33550503182017" lon="9.351725554594088"><ele>13.0</ele><time>2026-04-19T09:43:53.999Z</time></trkpt><trkpt lat="44.33538113844335" lon="9.351648189733579"><ele>13.0</ele><time>2026-04-19T09:43:54.999Z</time></trkpt><trkpt lat="44.33524487592748" lon="9.351589056560018"><ele>13.0</ele><time>2026-04-19T09:43:55.999Z</time></trkpt><trkpt lat="44.33511382975838" lon="9.351500579674584"><ele>13.0</ele><time>2026-04-19T09:43:56.999Z</time></trkpt><trkpt lat="44.335003802610416" lon="9.351423834618176"><ele>13.0</ele><time>2026-04-19T09:43:57.999Z</time></trkpt><trkpt lat="44.33491099035773" lon="9.3513703637116"><ele>13.0</ele><time>2026-04-19T09:43:58.999Z</time></trkpt><trkpt lat="44.33482561475208" lon="9.351312368970351"><ele>13.0</ele><time>2026-04-19T09:43:59.999Z</time></trkpt><trkpt lat="44.3347375153336" lon="9.351251595007083"><ele>13.0</ele><time>2026-04-19T09:44:00.999Z</time></trkpt><trkpt lat="44.33464044436687" lon="9.351202330708812"><ele>12.8</ele><time>2026-04-19T09:44:01.999Z</time></trkpt><trkpt lat="44.33457255977245" lon="9.351170657131496"><ele>12.600000000000001</ele><time>2026-04-19T09:44:02.999Z</time></trkpt><trkpt lat="44.33449810198735" lon="9.351135656695156"><ele>12.399999999999999</ele><time>2026-04-19T09:44:03.999Z</time></trkpt><trkpt lat="44.33441080089423" lon="9.351100931329547"><ele>12.2</ele><time>2026-04-19T09:44:04.999Z</time></trkpt><trkpt lat="44.334313131815854" lon="9.351063247725616"><ele>12.0</ele><time>2026-04-19T09:44:05.999Z</time></trkpt><trkpt lat="44.334208473196476" lon="9.3510285368896"><ele>12.0</ele><time>2026-04-19T09:44:06.999Z</time></trkpt><trkpt lat="44.33409574864243" lon="9.350993138378998"><ele>12.0</ele><time>2026-04-19T09:44:07.999Z</time></trkpt><trkpt lat="44.333979016539644" lon="9.35095995066911"><ele>12.0</ele><time>2026-04-19T09:44:08.999Z</time></trkpt><trkpt lat="44.333858969919774" lon="9.350936375807775"><ele>12.0</ele><time>2026-04-19T09:44:09.999Z</time></trkpt><trkpt lat="44.333757860429365" lon="9.350915002495833"><ele>12.0</ele><time>2026-04-19T09:44:10.999Z</time></trkpt><trkpt lat="44.33366092869963" lon="9.350898907523872"><ele>12.0</ele><time>2026-04-19T09:44:11.999Z</time></trkpt><trkpt lat="44.333558787850265" lon="9.350876180094767"><ele>12.0</ele><time>2026-04-19T09:44:12.999Z</time></trkpt><trkpt lat="44.3334434755681" lon="9.350851963337524"><ele>12.0</ele><time>2026-04-19T09:44:13.999Z</time></trkpt><trkpt lat="44.333352780729" lon="9.350842522660542"><ele>12.0</ele><time>2026-04-19T09:44:14.999Z</time></trkpt><trkpt lat="44.33328673998618" lon="9.350843940189256"><ele>12.0</ele><time>2026-04-19T09:44:15.999Z</time></trkpt><trkpt lat="44.33321741167096" lon="9.350830835130429"><ele>12.0</ele><time>2026-04-19T09:44:17.999Z</time></trkpt><trkpt lat="44.333155061472304" lon="9.350852043739703"><ele>12.0</ele><time>2026-04-19T09:44:24.999Z</time></trkpt><trkpt lat="44.333078344362384" lon="9.350537809606303"><ele>12.0</ele><time>2026-04-19T09:44:26.999Z</time></trkpt><trkpt lat="44.33304683070251" lon="9.350372580490276"><ele>11.75</ele><time>2026-04-19T09:44:27.999Z</time></trkpt><trkpt lat="44.33301655550305" lon="9.350182807602144"><ele>11.5</ele><time>2026-04-19T09:44:28.999Z</time></trkpt><trkpt lat="44.332964291711235" lon="9.34999080273218"><ele>11.25</ele><time>2026-04-19T09:44:29.999Z</time></trkpt><trkpt lat="44.33294357853636" lon="9.349794501615147"><ele>11.0</ele><time>2026-04-19T09:44:30.999Z</time></trkpt><trkpt lat="44.33294150026855" lon="9.349621192278166"><ele>10.5</ele><time>2026-04-19T09:44:31.999Z</time></trkpt><trkpt lat="44.33295118947577" lon="9.349459993762691"><ele>10.0</ele><time>2026-04-19T09:44:32.999Z</time></trkpt><trkpt lat="44.33296777970845" lon="9.349299099622966"><ele>9.5</ele><time>2026-04-19T09:44:33.999Z</time></trkpt><trkpt lat="44.332983605392236" lon="9.349130372526155"><ele>9.0</ele><time>2026-04-19T09:44:34.999Z</time></trkpt><trkpt lat="44.333003771613384" lon="9.348926113886575"><ele>8.333333333333334</ele><time>2026-04-19T09:44:35.999Z</time></trkpt><trkpt lat="44.333030772817835" lon="9.348699836445924"><ele>7.666666666666667</ele><time>2026-04-19T09:44:36.999Z</time></trkpt><trkpt lat="44.33308092299031" lon="9.348489176278806"><ele>7.0</ele><time>2026-04-19T09:44:37.999Z</time></trkpt><trkpt lat="44.333134278761136" lon="9.348295253085453"><ele>7.0</ele><time>2026-04-19T09:44:38.999Z</time></trkpt><trkpt lat="44.333188173257085" lon="9.3481017204284"><ele>7.0</ele><time>2026-04-19T09:44:39.999Z</time></trkpt><trkpt lat="44.33322571594595" lon="9.347898038928363"><ele>7.0</ele><time>2026-04-19T09:44:40.999Z</time></trkpt><trkpt lat="44.333268149175176" lon="9.34767646774716"><ele>7.666666666666667</ele><time>2026-04-19T09:44:41.999Z</time></trkpt><trkpt lat="44.33330539581374" lon="9.347452048321244"><ele>8.333333333333334</ele><time>2026-04-19T09:44:42.999Z</time></trkpt><trkpt lat="44.33335064209051" lon="9.347234542824436"><ele>9.0</ele><time>2026-04-19T09:44:43.999Z</time></trkpt><trkpt lat="44.33338826762635" lon="9.347024596470412"><ele>9.25</ele><time>2026-04-19T09:44:44.999Z</time></trkpt><trkpt lat="44.33344571145598" lon="9.346829424810954"><ele>9.5</ele><time>2026-04-19T09:44:45.999Z</time></trkpt><trkpt lat="44.33348644423978" lon="9.346636750525889"><ele>9.75</ele><time>2026-04-19T09:44:46.999Z</time></trkpt><trkpt lat="44.333519622271275" lon="9.346463093439612"><ele>10.0</ele><time>2026-04-19T09:44:47.999Z</time></trkpt><trkpt lat="44.33354610830484" lon="9.346325219649092"><ele>10.666666666666668</ele><time>2026-04-19T09:44:48.999Z</time></trkpt><trkpt lat="44.33355232980744" lon="9.346202556469153"><ele>11.333333333333334</ele><time>2026-04-19T09:44:49.999Z</time></trkpt><trkpt lat="44.333576687186735" lon="9.346100328973874"><ele>12.0</ele><time>2026-04-19T09:44:50.999Z</time></trkpt><trkpt lat="44.33359178006299" lon="9.346008469800466"><ele>12.666666666666668</ele><time>2026-04-19T09:44:51.999Z</time></trkpt><trkpt lat="44.33362246404509" lon="9.345922272832885"><ele>13.333333333333334</ele><time>2026-04-19T09:44:52.999Z</time></trkpt><trkpt lat="44.3336115568605" lon="9.345831175383282"><ele>14.0</ele><time>2026-04-19T09:44:54.999Z</time></trkpt><trkpt lat="44.33365362873197" lon="9.345707091359845"><ele>15.5</ele><time>2026-04-19T09:44:57.999Z</time></trkpt><trkpt lat="44.333643826108855" lon="9.34554248835238"><ele>17.0</ele><time>2026-04-19T09:44:59.999Z</time></trkpt><trkpt lat="44.33351884274148" lon="9.345478638349418"><ele>18.5</ele><time>2026-04-19T09:45:00.999Z</time></trkpt><trkpt lat="44.33335219120917" lon="9.34547190758567"><ele>20.0</ele><time>2026-04-19T09:45:01.999Z</time></trkpt><trkpt lat="44.333220983083095" lon="9.345490353091584"><ele>20.0</ele><time>2026-04-19T09:45:02.999Z</time></trkpt><trkpt lat="44.333096551993115" lon="9.345516442446995"><ele>20.0</ele><time>2026-04-19T09:45:03.999Z</time></trkpt><trkpt lat="44.332972591887355" lon="9.34554027983474"><ele>20.0</ele><time>2026-04-19T09:45:04.999Z</time></trkpt><trkpt lat="44.332854284910866" lon="9.345556558605871"><ele>20.0</ele><time>2026-04-19T09:45:05.999Z</time></trkpt><trkpt lat="44.33271943958703" lon="9.34558548091813"><ele>17.333333333333336</ele><time>2026-04-19T09:45:06.999Z</time></trkpt><trkpt lat="44.332557167268575" lon="9.3455863621937"><ele>14.666666666666668</ele><time>2026-04-19T09:45:07.999Z</time></trkpt><trkpt lat="44.332404401414294" lon="9.345582664917385"><ele>12.0</ele><time>2026-04-19T09:45:08.999Z</time></trkpt><trkpt lat="44.33223427367074" lon="9.34554985315727"><ele>17.0</ele><time>2026-04-19T09:45:09.999Z</time></trkpt><trkpt lat="44.33206057515737" lon="9.345515917219377"><ele>22.0</ele><time>2026-04-19T09:45:10.999Z</time></trkpt><trkpt lat="44.33189715625908" lon="9.345464537182632"><ele>27.0</ele><time>2026-04-19T09:45:11.999Z</time></trkpt><trkpt lat="44.331726230970865" lon="9.345442096530283"><ele>27.0</ele><time>2026-04-19T09:45:12.999Z</time></trkpt><trkpt lat="44.331558841531454" lon="9.345453035340862"><ele>27.0</ele><time>2026-04-19T09:45:13.999Z</time></trkpt><trkpt lat="44.331381357957234" lon="9.345471063482522"><ele>27.0</ele><time>2026-04-19T09:45:14.999Z</time></trkpt><trkpt lat="44.331209978921784" lon="9.345472089150224"><ele>27.333333333333336</ele><time>2026-04-19T09:45:15.999Z</time></trkpt><trkpt lat="44.33104073839456" lon="9.345445467473143"><ele>27.666666666666668</ele><time>2026-04-19T09:45:16.999Z</time></trkpt><trkpt lat="44.3308847027084" lon="9.34540834799827"><ele>28.0</ele><time>2026-04-19T09:45:17.999Z</time></trkpt><trkpt lat="44.33075381207808" lon="9.34539420505449"><ele>28.0</ele><time>2026-04-19T09:45:18.999Z</time></trkpt><trkpt lat="44.330643112195936" lon="9.345404845164861"><ele>27.999999999999996</ele><time>2026-04-19T09:45:19.999Z</time></trkpt><trkpt lat="44.33055223909585" lon="9.345445320648295"><ele>27.999999999999996</ele><time>2026-04-19T09:45:20.999Z</time></trkpt><trkpt lat="44.33047607969372" lon="9.345472286075367"><ele>28.0</ele><time>2026-04-19T09:45:21.999Z</time></trkpt><trkpt lat="44.33039997061052" lon="9.34548318566584"><ele>28.0</ele><time>2026-04-19T09:45:22.999Z</time></trkpt><trkpt lat="44.33030830913835" lon="9.34548137145467"><ele>27.0</ele><time>2026-04-19T09:45:23.999Z</time></trkpt><trkpt lat="44.3302088358466" lon="9.345468752026385"><ele>25.999999999999996</ele><time>2026-04-19T09:45:24.999Z</time></trkpt><trkpt lat="44.330101610459955" lon="9.345445905078963"><ele>25.0</ele><time>2026-04-19T09:45:25.999Z</time></trkpt><trkpt lat="44.33000784347706" lon="9.345422839873256"><ele>24.0</ele><time>2026-04-19T09:45:26.999Z</time></trkpt><trkpt lat="44.3299161303689" lon="9.34540392744023"><ele>23.0</ele><time>2026-04-19T09:45:27.999Z</time></trkpt><trkpt lat="44.32981811520063" lon="9.34539646349469"><ele>23.0</ele><time>2026-04-19T09:45:28.999Z</time></trkpt><trkpt lat="44.3297266087243" lon="9.34539406521065"><ele>23.0</ele><time>2026-04-19T09:45:29.999Z</time></trkpt><trkpt lat="44.329639065332685" lon="9.345403079458846"><ele>23.0</ele><time>2026-04-19T09:45:30.999Z</time></trkpt><trkpt lat="44.32956033191175" lon="9.345424257624307"><ele>23.0</ele><time>2026-04-19T09:45:31.999Z</time></trkpt><trkpt lat="44.329475189652065" lon="9.345449215681466"><ele>23.0</ele><time>2026-04-19T09:45:32.999Z</time></trkpt><trkpt lat="44.32938385006308" lon="9.34547805711717"><ele>23.0</ele><time>2026-04-19T09:45:33.999Z</time></trkpt><trkpt lat="44.32928621989085" lon="9.345512456593008"><ele>20.799999999999997</ele><time>2026-04-19T09:45:34.999Z</time></trkpt><trkpt lat="44.32917934021552" lon="9.34556212509642"><ele>18.599999999999998</ele><time>2026-04-19T09:45:35.999Z</time></trkpt><trkpt lat="44.329072361362144" lon="9.34561978872387"><ele>16.4</ele><time>2026-04-19T09:45:36.999Z</time></trkpt><trkpt lat="44.32899281263862" lon="9.345683547744201"><ele>14.2</ele><time>2026-04-19T09:45:37.999Z</time></trkpt><trkpt lat="44.328916760423574" lon="9.345732914979182"><ele>12.0</ele><time>2026-04-19T09:45:38.999Z</time></trkpt><trkpt lat="44.32879327286174" lon="9.345836501747575"><ele>12.0</ele><time>2026-04-19T09:45:39.999Z</time></trkpt><trkpt lat="44.32870518467179" lon="9.345867762673452"><ele>12.0</ele><time>2026-04-19T09:45:40.999Z</time></trkpt><trkpt lat="44.328619793120566" lon="9.345887902606226"><ele>12.0</ele><time>2026-04-19T09:45:41.999Z</time></trkpt><trkpt lat="44.328540732498965" lon="9.34587105676814"><ele>12.0</ele><time>2026-04-19T09:45:42.999Z</time></trkpt><trkpt lat="44.32844169643684" lon="9.345889702759463"><ele>12.0</ele><time>2026-04-19T09:45:43.999Z</time></trkpt><trkpt lat="44.3283474563573" lon="9.345875958621962"><ele>12.0</ele><time>2026-04-19T09:45:44.999Z</time></trkpt><trkpt lat="44.32826136993108" lon="9.345870436449694"><ele>12.0</ele><time>2026-04-19T09:45:45.999Z</time></trkpt><trkpt lat="44.328196860352264" lon="9.345867712627577"><ele>12.0</ele><time>2026-04-19T09:45:46.999Z</time></trkpt><trkpt lat="44.32809290370084" lon="9.345862240111268"><ele>12.0</ele><time>2026-04-19T09:45:48.999Z</time></trkpt><trkpt lat="44.32802507606799" lon="9.345861943656221"><ele>12.0</ele><time>2026-04-19T09:45:49.999Z</time></trkpt><trkpt lat="44.32794662418318" lon="9.345859241937227"><ele>12.0</ele><time>2026-04-19T09:45:50.999Z</time></trkpt><trkpt lat="44.32785426533515" lon="9.345855356149332"><ele>11.8</ele><time>2026-04-19T09:45:51.999Z</time></trkpt><trkpt lat="44.32775427717901" lon="9.34584771300197"><ele>11.6</ele><time>2026-04-19T09:45:52.999Z</time></trkpt><trkpt lat="44.327661439973184" lon="9.34584588543113"><ele>11.4</ele><time>2026-04-19T09:45:53.999Z</time></trkpt><trkpt lat="44.32755573563055" lon="9.345836252078325"><ele>11.200000000000001</ele><time>2026-04-19T09:45:54.999Z</time></trkpt><trkpt lat="44.327444926724496" lon="9.345835124554828"><ele>11.0</ele><time>2026-04-19T09:45:55.999Z</time></trkpt><trkpt lat="44.327330440639074" lon="9.345829031454143"><ele>11.0</ele><time>2026-04-19T09:45:56.999Z</time></trkpt><trkpt lat="44.32723173082343" lon="9.345820453860282"><ele>11.0</ele><time>2026-04-19T09:45:57.999Z</time></trkpt><trkpt lat="44.32715060286272" lon="9.34579855161927"><ele>11.0</ele><time>2026-04-19T09:45:58.999Z</time></trkpt><trkpt lat="44.32707102800241" lon="9.345740410456429"><ele>11.0</ele><time>2026-04-19T09:46:00.999Z</time></trkpt><trkpt lat="44.32713286457214" lon="9.345662820126076"><ele>11.0</ele><time>2026-04-19T09:46:03.999Z</time></trkpt><trkpt lat="44.32715362092065" lon="9.345568274358744"><ele>11.0</ele><time>2026-04-19T09:46:07.999Z</time></trkpt><trkpt lat="44.32716016436826" lon="9.345464061969498"><ele>18.0</ele><time>2026-04-19T09:46:55.999Z</time></trkpt><trkpt lat="44.32719381051244" lon="9.345385209712989"><ele>18.0</ele><time>2026-04-19T09:46:57.999Z</time></trkpt><trkpt lat="44.3272757169867" lon="9.345394264102003"><ele>21.0</ele><time>2026-04-19T09:46:59.999Z</time></trkpt></trkseg><trkseg><trkpt lat="44.32725405975914" lon="9.345276328825271"><ele>20.400000000000002</ele><time>2026-04-19T10:05:42Z</time></trkpt><trkpt lat="44.32717113818363" lon="9.345333785969139"><ele>19.8</ele><time>2026-04-19T10:05:44Z</time></trkpt><trkpt lat="44.32712660596099" lon="9.345429915642033"><ele>19.200000000000003</ele><time>2026-04-19T10:05:46Z</time></trkpt><trkpt lat="44.32710231468898" lon="9.345569373415163"><ele>18.6</ele><time>2026-04-19T10:05:49Z</time></trkpt><trkpt lat="44.32707849154944" lon="9.345667629432883"><ele>18.0</ele><time>2026-04-19T10:05:51Z</time></trkpt><trkpt lat="44.32717531801797" lon="9.345840889547087"><ele>16.833333333333332</ele><time>2026-04-19T10:05:58Z</time></trkpt><trkpt lat="44.327245102004106" lon="9.345843181971858"><ele>15.666666666666666</ele><time>2026-04-19T10:05:59Z</time></trkpt><trkpt lat="44.32731109174108" lon="9.345850168387447"><ele>14.5</ele><time>2026-04-19T10:06:00Z</time></trkpt><trkpt lat="44.32738662016338" lon="9.345859646362715"><ele>13.333333333333332</ele><time>2026-04-19T10:06:01Z</time></trkpt><trkpt lat="44.32747255216193" lon="9.34586259871996"><ele>12.166666666666666</ele><time>2026-04-19T10:06:02Z</time></trkpt><trkpt lat="44.32756555706405" lon="9.345866271772776"><ele>11.0</ele><time>2026-04-19T10:06:03Z</time></trkpt><trkpt lat="44.327655709155636" lon="9.345867867837917"><ele>11.0</ele><time>2026-04-19T10:06:04Z</time></trkpt><trkpt lat="44.327754216760795" lon="9.3458655139399"><ele>11.0</ele><time>2026-04-19T10:06:05Z</time></trkpt><trkpt lat="44.32784746175562" lon="9.345888937650374"><ele>11.0</ele><time>2026-04-19T10:06:06Z</time></trkpt><trkpt lat="44.32794929931434" lon="9.345892007800442"><ele>11.0</ele><time>2026-04-19T10:06:07Z</time></trkpt><trkpt lat="44.32804924850318" lon="9.345878562514974"><ele>11.0</ele><time>2026-04-19T10:06:08Z</time></trkpt><trkpt lat="44.32815600682038" lon="9.345890810948967"><ele>11.200000000000001</ele><time>2026-04-19T10:06:09Z</time></trkpt><trkpt lat="44.32826325443595" lon="9.345900404013335"><ele>11.4</ele><time>2026-04-19T10:06:10Z</time></trkpt><trkpt lat="44.328370384556465" lon="9.345906015865854"><ele>11.6</ele><time>2026-04-19T10:06:11Z</time></trkpt><trkpt lat="44.328480003822506" lon="9.345910904128823"><ele>11.8</ele><time>2026-04-19T10:06:12Z</time></trkpt><trkpt lat="44.32859582385454" lon="9.345904454864613"><ele>12.0</ele><time>2026-04-19T10:06:13Z</time></trkpt><trkpt lat="44.32870479927415" lon="9.345902844759621"><ele>12.0</ele><time>2026-04-19T10:06:14Z</time></trkpt><trkpt lat="44.32881331622948" lon="9.345825909501839"><ele>12.0</ele><time>2026-04-19T10:06:15Z</time></trkpt><trkpt lat="44.328920999447575" lon="9.345781340965265"><ele>12.0</ele><time>2026-04-19T10:06:16Z</time></trkpt><trkpt lat="44.32902218965902" lon="9.345716157033285"><ele>12.0</ele><time>2026-04-19T10:06:17Z</time></trkpt><trkpt lat="44.32911941956453" lon="9.345638941304612"><ele>11.4</ele><time>2026-04-19T10:06:18Z</time></trkpt><trkpt lat="44.32922304370208" lon="9.345582645791527"><ele>10.799999999999999</ele><time>2026-04-19T10:06:19Z</time></trkpt><trkpt lat="44.329327002256" lon="9.345531456093145"><ele>10.2</ele><time>2026-04-19T10:06:20Z</time></trkpt><trkpt lat="44.32943582290962" lon="9.345490723519276"><ele>9.6</ele><time>2026-04-19T10:06:21Z</time></trkpt><trkpt lat="44.32954414145869" lon="9.345465257355414"><ele>9.0</ele><time>2026-04-19T10:06:22Z</time></trkpt><trkpt lat="44.32965691215774" lon="9.345446290009809"><ele>12.5</ele><time>2026-04-19T10:06:23Z</time></trkpt><trkpt lat="44.32976799698845" lon="9.345443228425053"><ele>16.0</ele><time>2026-04-19T10:06:24Z</time></trkpt><trkpt lat="44.32988226996882" lon="9.345451983971696"><ele>19.5</ele><time>2026-04-19T10:06:25Z</time></trkpt><trkpt lat="44.33000031408463" lon="9.345468808546798"><ele>23.0</ele><time>2026-04-19T10:06:26Z</time></trkpt><trkpt lat="44.33011838130871" lon="9.345486051806947"><ele>23.0</ele><time>2026-04-19T10:06:27Z</time></trkpt><trkpt lat="44.33023677767377" lon="9.345505181314726"><ele>23.0</ele><time>2026-04-19T10:06:28Z</time></trkpt><trkpt lat="44.33035595595984" lon="9.345515082187935"><ele>23.0</ele><time>2026-04-19T10:06:29Z</time></trkpt><trkpt lat="44.330476463481546" lon="9.345509038501449"><ele>23.0</ele><time>2026-04-19T10:06:30Z</time></trkpt><trkpt lat="44.33059954412701" lon="9.345479558793624"><ele>24.25</ele><time>2026-04-19T10:06:31Z</time></trkpt><trkpt lat="44.33072542631114" lon="9.345445957200136"><ele>25.5</ele><time>2026-04-19T10:06:32Z</time></trkpt><trkpt lat="44.330853430129835" lon="9.345433284705171"><ele>26.75</ele><time>2026-04-19T10:06:33Z</time></trkpt><trkpt lat="44.33098031907736" lon="9.34545774066083"><ele>28.0</ele><time>2026-04-19T10:06:34Z</time></trkpt><trkpt lat="44.331095808349325" lon="9.3454848992323"><ele>28.0</ele><time>2026-04-19T10:06:35Z</time></trkpt><trkpt lat="44.33121771400263" lon="9.345496456656903"><ele>27.999999999999996</ele><time>2026-04-19T10:06:36Z</time></trkpt><trkpt lat="44.331329157681196" lon="9.345503580323076"><ele>27.999999999999996</ele><time>2026-04-19T10:06:37Z</time></trkpt><trkpt lat="44.33143238783543" lon="9.345522233659437"><ele>28.0</ele><time>2026-04-19T10:06:38Z</time></trkpt><trkpt lat="44.33152819068518" lon="9.345523382580907"><ele>28.0</ele><time>2026-04-19T10:06:39Z</time></trkpt><trkpt lat="44.33162057271234" lon="9.345485668589173"><ele>27.833333333333336</ele><time>2026-04-19T10:06:40Z</time></trkpt><trkpt lat="44.331696262362115" lon="9.345478003371817"><ele>27.666666666666668</ele><time>2026-04-19T10:06:41Z</time></trkpt><trkpt lat="44.33178269017637" lon="9.34547531683708"><ele>27.5</ele><time>2026-04-19T10:06:43Z</time></trkpt><trkpt lat="44.33189056575703" lon="9.34548791350544"><ele>27.333333333333336</ele><time>2026-04-19T10:06:45Z</time></trkpt><trkpt lat="44.33197247532388" lon="9.345516190978888"><ele>27.166666666666668</ele><time>2026-04-19T10:06:46Z</time></trkpt><trkpt lat="44.33205317018258" lon="9.345545028368546"><ele>27.0</ele><time>2026-04-19T10:06:47Z</time></trkpt><trkpt lat="44.332134576185815" lon="9.345567204599586"><ele>24.5</ele><time>2026-04-19T10:06:48Z</time></trkpt><trkpt lat="44.33220776993736" lon="9.345581581208146"><ele>22.0</ele><time>2026-04-19T10:06:49Z</time></trkpt><trkpt lat="44.3322748925162" lon="9.345592895139921"><ele>19.5</ele><time>2026-04-19T10:06:50Z</time></trkpt><trkpt lat="44.332387585130256" lon="9.345621770741566"><ele>17.0</ele><time>2026-04-19T10:06:52Z</time></trkpt><trkpt lat="44.33248959619306" lon="9.345658744242012"><ele>14.5</ele><time>2026-04-19T10:06:54Z</time></trkpt><trkpt lat="44.33256774891653" lon="9.34565194302396"><ele>12.0</ele><time>2026-04-19T10:06:56.999Z</time></trkpt><trkpt lat="44.33268569770447" lon="9.345617057118233"><ele>12.0</ele><time>2026-04-19T10:07:57Z</time></trkpt><trkpt lat="44.33276306998719" lon="9.345591885385545"><ele>12.0</ele><time>2026-04-19T10:07:58Z</time></trkpt><trkpt lat="44.33284677130293" lon="9.345598972233963"><ele>12.0</ele><time>2026-04-19T10:07:59Z</time></trkpt><trkpt lat="44.332923274060455" lon="9.345565476231489"><ele>12.0</ele><time>2026-04-19T10:08:00Z</time></trkpt><trkpt lat="44.332999247635485" lon="9.345554217485782"><ele>12.0</ele><time>2026-04-19T10:08:01Z</time></trkpt><trkpt lat="44.33306734814356" lon="9.34554383178258"><ele>12.0</ele><time>2026-04-19T10:08:02Z</time></trkpt><trkpt lat="44.33314465894766" lon="9.345537555805222"><ele>12.399999999999999</ele><time>2026-04-19T10:08:03Z</time></trkpt><trkpt lat="44.33322845082949" lon="9.345525721792534"><ele>12.799999999999999</ele><time>2026-04-19T10:08:04Z</time></trkpt><trkpt lat="44.33332454446074" lon="9.345549916886618"><ele>13.2</ele><time>2026-04-19T10:08:05Z</time></trkpt><trkpt lat="44.33342073414594" lon="9.345577082950268"><ele>13.6</ele><time>2026-04-19T10:08:06Z</time></trkpt><trkpt lat="44.33350189790881" lon="9.345618252051363"><ele>14.0</ele><time>2026-04-19T10:08:07Z</time></trkpt><trkpt lat="44.33357230927222" lon="9.345697580672583"><ele>14.000000000000002</ele><time>2026-04-19T10:08:08Z</time></trkpt><trkpt lat="44.333639931751776" lon="9.34573093427056"><ele>14.0</ele><time>2026-04-19T10:08:09Z</time></trkpt><trkpt lat="44.33374328461126" lon="9.345714674870644"><ele>14.0</ele><time>2026-04-19T10:08:11Z</time></trkpt><trkpt lat="44.333819849346725" lon="9.345732015892848"><ele>14.0</ele><time>2026-04-19T10:08:13Z</time></trkpt><trkpt lat="44.333914308342464" lon="9.345784649448076"><ele>14.000000000000002</ele><time>2026-04-19T10:08:15Z</time></trkpt><trkpt lat="44.333983018044535" lon="9.345830954509067"><ele>14.0</ele><time>2026-04-19T10:08:16Z</time></trkpt><trkpt lat="44.334072530284665" lon="9.345886666214033"><ele>13.799999999999999</ele><time>2026-04-19T10:08:17Z</time></trkpt><trkpt lat="44.33416631903522" lon="9.345972142689906"><ele>13.599999999999998</ele><time>2026-04-19T10:08:18Z</time></trkpt><trkpt lat="44.33426604968542" lon="9.346026985326182"><ele>13.4</ele><time>2026-04-19T10:08:19Z</time></trkpt><trkpt lat="44.334359506792644" lon="9.346075889849523"><ele>13.2</ele><time>2026-04-19T10:08:20Z</time></trkpt><trkpt lat="44.334462345518475" lon="9.346130522839545"><ele>13.0</ele><time>2026-04-19T10:08:21Z</time></trkpt><trkpt lat="44.33457380633333" lon="9.34616815872902"><ele>13.0</ele><time>2026-04-19T10:08:21.999Z</time></trkpt><trkpt lat="44.334684690451446" lon="9.346252895009941"><ele>13.0</ele><time>2026-04-19T10:08:22.999Z</time></trkpt><trkpt lat="44.33481142691071" lon="9.346294501583667"><ele>13.0</ele><time>2026-04-19T10:08:23.999Z</time></trkpt><trkpt lat="44.334934031266286" lon="9.346370573512303"><ele>13.0</ele><time>2026-04-19T10:08:24.999Z</time></trkpt><trkpt lat="44.33504977821338" lon="9.346455577468651"><ele>12.5</ele><time>2026-04-19T10:08:25.999Z</time></trkpt><trkpt lat="44.33513905622083" lon="9.346550484908054"><ele>12.0</ele><time>2026-04-19T10:08:26.999Z</time></trkpt><trkpt lat="44.335200485440076" lon="9.346703271378011"><ele>11.5</ele><time>2026-04-19T10:08:27.999Z</time></trkpt><trkpt lat="44.33527821204699" lon="9.346843822862743"><ele>11.0</ele><time>2026-04-19T10:08:28.999Z</time></trkpt><trkpt lat="44.335359268310896" lon="9.346964689862151"><ele>11.0</ele><time>2026-04-19T10:08:29.999Z</time></trkpt><trkpt lat="44.33541585785844" lon="9.347072260919028"><ele>11.0</ele><time>2026-04-19T10:08:30.999Z</time></trkpt><trkpt lat="44.33546801741455" lon="9.347166025705675"><ele>11.0</ele><time>2026-04-19T10:08:31.999Z</time></trkpt><trkpt lat="44.33552259734254" lon="9.347247410081634"><ele>11.0</ele><time>2026-04-19T10:08:32.999Z</time></trkpt><trkpt lat="44.33558818220527" lon="9.347337821504107"><ele>11.0</ele><time>2026-04-19T10:08:33.999Z</time></trkpt><trkpt lat="44.33566252726826" lon="9.347432070474877"><ele>11.200000000000001</ele><time>2026-04-19T10:08:34.999Z</time></trkpt><trkpt lat="44.33574320027045" lon="9.347509682834968"><ele>11.4</ele><time>2026-04-19T10:08:35.999Z</time></trkpt><trkpt lat="44.33581605390138" lon="9.347562987218359"><ele>11.6</ele><time>2026-04-19T10:08:36.999Z</time></trkpt><trkpt lat="44.33590061188387" lon="9.347615257110176"><ele>11.8</ele><time>2026-04-19T10:08:37.999Z</time></trkpt><trkpt lat="44.33599197006376" lon="9.347674204968738"><ele>12.0</ele><time>2026-04-19T10:08:38.999Z</time></trkpt><trkpt lat="44.33609135929774" lon="9.347736997700727"><ele>12.0</ele><time>2026-04-19T10:08:39.999Z</time></trkpt><trkpt lat="44.33618698870424" lon="9.347796292251125"><ele>12.0</ele><time>2026-04-19T10:08:40.999Z</time></trkpt><trkpt lat="44.33627224624291" lon="9.347849571083032"><ele>12.0</ele><time>2026-04-19T10:08:41.999Z</time></trkpt><trkpt lat="44.33635533060283" lon="9.347903350773276"><ele>12.0</ele><time>2026-04-19T10:08:42.999Z</time></trkpt><trkpt lat="44.33642643917039" lon="9.347952812430954"><ele>12.0</ele><time>2026-04-19T10:08:43.999Z</time></trkpt><trkpt lat="44.336498587906725" lon="9.347998437322275"><ele>12.0</ele><time>2026-04-19T10:08:44.999Z</time></trkpt><trkpt lat="44.3365823865807" lon="9.348040501234033"><ele>12.0</ele><time>2026-04-19T10:08:45.999Z</time></trkpt><trkpt lat="44.33667941293818" lon="9.348094909917673"><ele>12.0</ele><time>2026-04-19T10:08:46.999Z</time></trkpt><trkpt lat="44.336789226243944" lon="9.348160344056582"><ele>12.0</ele><time>2026-04-19T10:08:47.999Z</time></trkpt><trkpt lat="44.33689986644411" lon="9.348233755880358"><ele>12.0</ele><time>2026-04-19T10:08:48.999Z</time></trkpt><trkpt lat="44.3370237263885" lon="9.348314929264138"><ele>12.0</ele><time>2026-04-19T10:08:49.999Z</time></trkpt><trkpt lat="44.337145429495884" lon="9.348418853362773"><ele>12.0</ele><time>2026-04-19T10:08:50.999Z</time></trkpt><trkpt lat="44.33727607816173" lon="9.348481283041401"><ele>12.0</ele><time>2026-04-19T10:08:51.999Z</time></trkpt><trkpt lat="44.337386838522505" lon="9.348556569569865"><ele>12.0</ele><time>2026-04-19T10:08:52.999Z</time></trkpt><trkpt lat="44.33750113056709" lon="9.348599209319909"><ele>13.75</ele><time>2026-04-19T10:08:53.999Z</time></trkpt><trkpt lat="44.33763060148174" lon="9.348608114380161"><ele>15.5</ele><time>2026-04-19T10:08:54.999Z</time></trkpt><trkpt lat="44.33776128003943" lon="9.34861153192661"><ele>17.25</ele><time>2026-04-19T10:08:55.999Z</time></trkpt><trkpt lat="44.33789419563989" lon="9.348625245126637"><ele>19.0</ele><time>2026-04-19T10:08:56.999Z</time></trkpt><trkpt lat="44.33803878445494" lon="9.348672945011296"><ele>20.666666666666664</ele><time>2026-04-19T10:08:57.999Z</time></trkpt><trkpt lat="44.33819479202633" lon="9.348660284638186"><ele>22.333333333333332</ele><time>2026-04-19T10:08:58.999Z</time></trkpt><trkpt lat="44.338352467609774" lon="9.348689844019761"><ele>24.0</ele><time>2026-04-19T10:08:59.999Z</time></trkpt><trkpt lat="44.33850394943737" lon="9.348737122697468"><ele>24.0</ele><time>2026-04-19T10:09:00.999Z</time></trkpt><trkpt lat="44.3386657444951" lon="9.348791495767564"><ele>24.0</ele><time>2026-04-19T10:09:01.999Z</time></trkpt><trkpt lat="44.33882435744272" lon="9.348843101766523"><ele>24.0</ele><time>2026-04-19T10:09:02.999Z</time></trkpt><trkpt lat="44.33899145967176" lon="9.348889834976745"><ele>21.0</ele><time>2026-04-19T10:09:03.999Z</time></trkpt><trkpt lat="44.339159423538646" lon="9.348933646940585"><ele>18.0</ele><time>2026-04-19T10:09:04.999Z</time></trkpt><trkpt lat="44.3393351626919" lon="9.348968761259519"><ele>15.0</ele><time>2026-04-19T10:09:05.999Z</time></trkpt><trkpt lat="44.33950405493618" lon="9.349006697528615"><ele>15.0</ele><time>2026-04-19T10:09:06.999Z</time></trkpt><trkpt lat="44.33966562782357" lon="9.349038465985306"><ele>15.0</ele><time>2026-04-19T10:09:07.999Z</time></trkpt><trkpt lat="44.33980550208072" lon="9.349091540574946"><ele>15.0</ele><time>2026-04-19T10:09:08.999Z</time></trkpt><trkpt lat="44.33994537333836" lon="9.349180709155279"><ele>16.333333333333332</ele><time>2026-04-19T10:09:09.999Z</time></trkpt><trkpt lat="44.34005418739945" lon="9.349324061398143"><ele>17.666666666666664</ele><time>2026-04-19T10:09:10.999Z</time></trkpt><trkpt lat="44.340177701493104" lon="9.349435891676864"><ele>19.0</ele><time>2026-04-19T10:09:11.999Z</time></trkpt><trkpt lat="44.34029310770863" lon="9.349585066939595"><ele>19.333333333333332</ele><time>2026-04-19T10:09:12.999Z</time></trkpt><trkpt lat="44.34040361420207" lon="9.349731615563659"><ele>19.666666666666668</ele><time>2026-04-19T10:09:13.999Z</time></trkpt><trkpt lat="44.34051823531514" lon="9.34987139933301"><ele>20.0</ele><time>2026-04-19T10:09:14.999Z</time></trkpt><trkpt lat="44.34064301308254" lon="9.349994663561954"><ele>20.0</ele><time>2026-04-19T10:09:15.999Z</time></trkpt><trkpt lat="44.34078564547296" lon="9.350094875957772"><ele>20.0</ele><time>2026-04-19T10:09:16.999Z</time></trkpt><trkpt lat="44.34092675148294" lon="9.350160664317428"><ele>20.0</ele><time>2026-04-19T10:09:17.999Z</time></trkpt><trkpt lat="44.34105633822343" lon="9.350221589985148"><ele>20.0</ele><time>2026-04-19T10:09:18.999Z</time></trkpt><trkpt lat="44.34117062410106" lon="9.350272043902896"><ele>20.0</ele><time>2026-04-19T10:09:19.999Z</time></trkpt><trkpt lat="44.341273946965345" lon="9.350277456609343"><ele>20.0</ele><time>2026-04-19T10:09:20.999Z</time></trkpt><trkpt lat="44.34136155274128" lon="9.350206146216003"><ele>20.0</ele><time>2026-04-19T10:09:21.999Z</time></trkpt><trkpt lat="44.341424900244284" lon="9.350096365820868"><ele>20.0</ele><time>2026-04-19T10:09:22.999Z</time></trkpt><trkpt lat="44.34145406831581" lon="9.349969405305025"><ele>20.0</ele><time>2026-04-19T10:09:23.999Z</time></trkpt><trkpt lat="44.34145510723703" lon="9.349830134011754"><ele>21.0</ele><time>2026-04-19T10:09:24.999Z</time></trkpt><trkpt lat="44.34142821796922" lon="9.349691222390009"><ele>22.0</ele><time>2026-04-19T10:09:25.999Z</time></trkpt><trkpt lat="44.341407059073596" lon="9.349525924143402"><ele>23.0</ele><time>2026-04-19T10:09:26.999Z</time></trkpt><trkpt lat="44.341376383094946" lon="9.34937035911135"><ele>24.0</ele><time>2026-04-19T10:09:27.999Z</time></trkpt><trkpt lat="44.34134888169917" lon="9.349235512917181"><ele>25.0</ele><time>2026-04-19T10:09:28.999Z</time></trkpt><trkpt lat="44.34132662297502" lon="9.349126706115372"><ele>26.500000000000004</ele><time>2026-04-19T10:09:29.999Z</time></trkpt><trkpt lat="44.3413081484502" lon="9.349030003890753"><ele>28.0</ele><time>2026-04-19T10:09:30.999Z</time></trkpt><trkpt lat="44.34128947731151" lon="9.34885664467572"><ele>29.5</ele><time>2026-04-19T10:09:32.999Z</time></trkpt><trkpt lat="44.34132567899278" lon="9.348765789800197"><ele>31.0</ele><time>2026-04-19T10:09:33.999Z</time></trkpt><trkpt lat="44.341399614903814" lon="9.348699445233418"><ele>32.5</ele><time>2026-04-19T10:09:34.999Z</time></trkpt><trkpt lat="44.34147210810665" lon="9.3486620818908"><ele>34.0</ele><time>2026-04-19T10:09:35.999Z</time></trkpt><trkpt lat="44.34155647016602" lon="9.34869630111208"><ele>34.6</ele><time>2026-04-19T10:09:36.999Z</time></trkpt><trkpt lat="44.341635474107555" lon="9.348773220341638"><ele>35.2</ele><time>2026-04-19T10:09:37.999Z</time></trkpt><trkpt lat="44.341686228803944" lon="9.348910987939513"><ele>35.800000000000004</ele><time>2026-04-19T10:09:38.999Z</time></trkpt><trkpt lat="44.34171389013203" lon="9.34905632546024"><ele>36.4</ele><time>2026-04-19T10:09:39.999Z</time></trkpt><trkpt lat="44.34176351294853" lon="9.34918572376733"><ele>37.0</ele><time>2026-04-19T10:09:40.999Z</time></trkpt><trkpt lat="44.341840446305305" lon="9.349303197975841"><ele>35.75</ele><time>2026-04-19T10:09:41.999Z</time></trkpt><trkpt lat="44.341928748014695" lon="9.349411142854818"><ele>34.5</ele><time>2026-04-19T10:09:42.999Z</time></trkpt><trkpt lat="44.34202504829369" lon="9.349505923206596"><ele>33.25</ele><time>2026-04-19T10:09:43.999Z</time></trkpt><trkpt lat="44.34214193662402" lon="9.349622517682922"><ele>32.0</ele><time>2026-04-19T10:09:44.999Z</time></trkpt><trkpt lat="44.34226794029629" lon="9.349769800537464"><ele>32.0</ele><time>2026-04-19T10:09:45.999Z</time></trkpt><trkpt lat="44.342366149781355" lon="9.34990044622381"><ele>32.0</ele><time>2026-04-19T10:09:46.999Z</time></trkpt><trkpt lat="44.34245673633592" lon="9.349999403804038"><ele>32.0</ele><time>2026-04-19T10:09:47.999Z</time></trkpt><trkpt lat="44.3425467337039" lon="9.35008762896763"><ele>32.0</ele><time>2026-04-19T10:09:48.999Z</time></trkpt><trkpt lat="44.342634862180425" lon="9.350153124739885"><ele>32.0</ele><time>2026-04-19T10:09:49.999Z</time></trkpt><trkpt lat="44.34273864329563" lon="9.350172243005456"><ele>32.0</ele><time>2026-04-19T10:09:50.999Z</time></trkpt><trkpt lat="44.34284889897056" lon="9.350162165415627"><ele>32.0</ele><time>2026-04-19T10:09:51.999Z</time></trkpt><trkpt lat="44.34295062490385" lon="9.350124055310797"><ele>32.0</ele><time>2026-04-19T10:09:52.999Z</time></trkpt><trkpt lat="44.34305238978995" lon="9.350079022628844"><ele>32.0</ele><time>2026-04-19T10:09:53.999Z</time></trkpt><trkpt lat="44.343181406349494" lon="9.350047283701654"><ele>34.0</ele><time>2026-04-19T10:09:54.999Z</time></trkpt><trkpt lat="44.34325249363698" lon="9.350004952415388"><ele>36.0</ele><time>2026-04-19T10:09:55.999Z</time></trkpt><trkpt lat="44.34336766724783" lon="9.34995517660205"><ele>38.0</ele><time>2026-04-19T10:09:56.999Z</time></trkpt><trkpt lat="44.34350296730506" lon="9.349910884849885"><ele>40.0</ele><time>2026-04-19T10:09:57.999Z</time></trkpt><trkpt lat="44.343666782457525" lon="9.349846794451675"><ele>40.0</ele><time>2026-04-19T10:09:58.999Z</time></trkpt><trkpt lat="44.34382520581597" lon="9.349789106435074"><ele>40.0</ele><time>2026-04-19T10:09:59.999Z</time></trkpt><trkpt lat="44.34395096073619" lon="9.349744162754885"><ele>40.0</ele><time>2026-04-19T10:10:00.999Z</time></trkpt><trkpt lat="44.344063056088714" lon="9.34971452433398"><ele>40.0</ele><time>2026-04-19T10:10:01.999Z</time></trkpt><trkpt lat="44.344164633077895" lon="9.349677750608857"><ele>38.8</ele><time>2026-04-19T10:10:02.999Z</time></trkpt><trkpt lat="44.344268620045185" lon="9.349639296970341"><ele>37.6</ele><time>2026-04-19T10:10:03.999Z</time></trkpt><trkpt lat="44.344369735471744" lon="9.349601017577184"><ele>36.4</ele><time>2026-04-19T10:10:04.999Z</time></trkpt><trkpt lat="44.344442118044206" lon="9.349573615575922"><ele>35.2</ele><time>2026-04-19T10:10:05.999Z</time></trkpt><trkpt lat="44.34454814477664" lon="9.34950801722022"><ele>34.0</ele><time>2026-04-19T10:10:07.999Z</time></trkpt><trkpt lat="44.34465704093255" lon="9.349480007034945"><ele>32.75</ele><time>2026-04-19T10:10:08.999Z</time></trkpt><trkpt lat="44.34476666421506" lon="9.349381302543783"><ele>31.5</ele><time>2026-04-19T10:10:09.999Z</time></trkpt><trkpt lat="44.344859140000665" lon="9.349304767584927"><ele>30.25</ele><time>2026-04-19T10:10:10.999Z</time></trkpt><trkpt lat="44.34493907339937" lon="9.349223582436549"><ele>29.0</ele><time>2026-04-19T10:10:11.999Z</time></trkpt><trkpt lat="44.345045375500185" lon="9.349102133842807"><ele>29.0</ele><time>2026-04-19T10:10:12.999Z</time></trkpt><trkpt lat="44.345137115302144" lon="9.348998365737572"><ele>29.0</ele><time>2026-04-19T10:10:13.999Z</time></trkpt><trkpt lat="44.345231650425184" lon="9.348891330799129"><ele>29.0</ele><time>2026-04-19T10:10:14.999Z</time></trkpt><trkpt lat="44.34530629704478" lon="9.34875546879061"><ele>29.0</ele><time>2026-04-19T10:10:15.999Z</time></trkpt><trkpt lat="44.34540110733559" lon="9.348685520096609"><ele>30.333333333333332</ele><time>2026-04-19T10:10:16.999Z</time></trkpt><trkpt lat="44.345475940515726" lon="9.348663283151545"><ele>31.666666666666664</ele><time>2026-04-19T10:10:17.999Z</time></trkpt><trkpt lat="44.34554928251843" lon="9.348556780430629"><ele>33.0</ele><time>2026-04-19T10:10:19.999Z</time></trkpt><trkpt lat="44.34560003420124" lon="9.34850324579268"><ele>34.333333333333336</ele><time>2026-04-19T10:10:20.999Z</time></trkpt><trkpt lat="44.34567626366203" lon="9.348485364936268"><ele>35.66666666666667</ele><time>2026-04-19T10:10:21.999Z</time></trkpt><trkpt lat="44.34576234760229" lon="9.348449977212873"><ele>37.0</ele><time>2026-04-19T10:10:22.999Z</time></trkpt><trkpt lat="44.34585672077548" lon="9.348420605590201"><ele>33.6</ele><time>2026-04-19T10:10:23.999Z</time></trkpt><trkpt lat="44.34595484478382" lon="9.348396723210207"><ele>30.200000000000003</ele><time>2026-04-19T10:10:24.999Z</time></trkpt><trkpt lat="44.34604444900124" lon="9.348375038799816"><ele>26.8</ele><time>2026-04-19T10:10:25.999Z</time></trkpt><trkpt lat="44.34612813838116" lon="9.34835439229114"><ele>23.4</ele><time>2026-04-19T10:10:26.999Z</time></trkpt><trkpt lat="44.346210491816954" lon="9.348333991953293"><ele>20.0</ele><time>2026-04-19T10:10:27.999Z</time></trkpt><trkpt lat="44.346301173194455" lon="9.348311528625533"><ele>20.0</ele><time>2026-04-19T10:10:28.999Z</time></trkpt><trkpt lat="44.346387585551014" lon="9.348290122848992"><ele>20.0</ele><time>2026-04-19T10:10:29.999Z</time></trkpt><trkpt lat="44.34647436713105" lon="9.348268625587117"><ele>20.0</ele><time>2026-04-19T10:10:30.999Z</time></trkpt><trkpt lat="44.346568784468815" lon="9.348245236834073"><ele>20.0</ele><time>2026-04-19T10:10:31.999Z</time></trkpt><trkpt lat="44.34666663249064" lon="9.3482208347539"><ele>20.0</ele><time>2026-04-19T10:10:32.999Z</time></trkpt><trkpt lat="44.34675225689956" lon="9.348199790443353"><ele>20.0</ele><time>2026-04-19T10:10:33.999Z</time></trkpt><trkpt lat="44.34682789741851" lon="9.348181996702516"><ele>20.0</ele><time>2026-04-19T10:10:34.999Z</time></trkpt><trkpt lat="44.34689964621436" lon="9.34816570120133"><ele>20.0</ele><time>2026-04-19T10:10:35.999Z</time></trkpt><trkpt lat="44.346989818010506" lon="9.34814603780389"><ele>20.0</ele><time>2026-04-19T10:10:36.999Z</time></trkpt><trkpt lat="44.34708418542596" lon="9.348105018185993"><ele>20.0</ele><time>2026-04-19T10:10:37.999Z</time></trkpt><trkpt lat="44.34717926337298" lon="9.348091861013515"><ele>20.0</ele><time>2026-04-19T10:10:38.999Z</time></trkpt><trkpt lat="44.347265950772375" lon="9.348071157865794"><ele>20.333333333333336</ele><time>2026-04-19T10:10:39.999Z</time></trkpt><trkpt lat="44.34734785715998" lon="9.348055973998402"><ele>20.666666666666668</ele><time>2026-04-19T10:10:40.999Z</time></trkpt><trkpt lat="44.347427139074576" lon="9.348059897535654"><ele>21.0</ele><time>2026-04-19T10:10:41.999Z</time></trkpt><trkpt lat="44.34751362799406" lon="9.348041078277774"><ele>21.333333333333332</ele><time>2026-04-19T10:10:42.999Z</time></trkpt><trkpt lat="44.347601778948246" lon="9.348002999731106"><ele>21.666666666666664</ele><time>2026-04-19T10:10:43.999Z</time></trkpt><trkpt lat="44.34769715673794" lon="9.347982893900411"><ele>22.0</ele><time>2026-04-19T10:10:44.999Z</time></trkpt><trkpt lat="44.347786468514165" lon="9.347959085999255"><ele>22.0</ele><time>2026-04-19T10:10:45.999Z</time></trkpt><trkpt lat="44.34787732981135" lon="9.34793471549026"><ele>22.0</ele><time>2026-04-19T10:10:46.999Z</time></trkpt><trkpt lat="44.347976976455705" lon="9.347909117734057"><ele>22.0</ele><time>2026-04-19T10:10:47.999Z</time></trkpt><trkpt lat="44.34808136015697" lon="9.347904403671775"><ele>22.0</ele><time>2026-04-19T10:10:48.999Z</time></trkpt><trkpt lat="44.3481753309822" lon="9.347879943639112"><ele>22.0</ele><time>2026-04-19T10:10:49.999Z</time></trkpt><trkpt lat="44.348246101634516" lon="9.347859372627275"><ele>22.200000000000003</ele><time>2026-04-19T10:10:50.999Z</time></trkpt><trkpt lat="44.34833743766489" lon="9.34783168641282"><ele>22.4</ele><time>2026-04-19T10:10:51.999Z</time></trkpt><trkpt lat="44.348449727707376" lon="9.347796354004872"><ele>22.6</ele><time>2026-04-19T10:10:52.999Z</time></trkpt><trkpt lat="44.34856453561401" lon="9.347760462571841"><ele>22.799999999999997</ele><time>2026-04-19T10:10:53.999Z</time></trkpt><trkpt lat="44.348672296649596" lon="9.347727028236424"><ele>23.0</ele><time>2026-04-19T10:10:54.999Z</time></trkpt><trkpt lat="44.348785326005704" lon="9.347693443057173"><ele>22.799999999999997</ele><time>2026-04-19T10:10:55.999Z</time></trkpt><trkpt lat="44.3489079682425" lon="9.347659885998869"><ele>22.6</ele><time>2026-04-19T10:10:56.999Z</time></trkpt><trkpt lat="44.34901635895248" lon="9.347633858114257"><ele>22.4</ele><time>2026-04-19T10:10:57.999Z</time></trkpt><trkpt lat="44.34911638129083" lon="9.347609085621501"><ele>22.200000000000003</ele><time>2026-04-19T10:10:58.999Z</time></trkpt><trkpt lat="44.34918898013908" lon="9.347567611075556"><ele>22.0</ele><time>2026-04-19T10:10:59.999Z</time></trkpt><trkpt lat="44.349273374801236" lon="9.34754768041194"><ele>22.0</ele><time>2026-04-19T10:11:00.999Z</time></trkpt><trkpt lat="44.349365732894604" lon="9.34754732869011"><ele>22.0</ele><time>2026-04-19T10:11:01.999Z</time></trkpt><trkpt lat="44.34944743114402" lon="9.347506268762707"><ele>22.0</ele><time>2026-04-19T10:11:02.999Z</time></trkpt><trkpt lat="44.34952237787318" lon="9.34748602027044"><ele>22.0</ele><time>2026-04-19T10:11:03.999Z</time></trkpt><trkpt lat="44.34959478970794" lon="9.347461851111598"><ele>22.0</ele><time>2026-04-19T10:11:04.999Z</time></trkpt><trkpt lat="44.349672851863794" lon="9.34741628295886"><ele>22.0</ele><time>2026-04-19T10:11:05.999Z</time></trkpt><trkpt lat="44.34973721504489" lon="9.347331198111988"><ele>23.0</ele><time>2026-04-19T10:11:06.999Z</time></trkpt><trkpt lat="44.34979360013617" lon="9.34721050706887"><ele>24.0</ele><time>2026-04-19T10:11:07.999Z</time></trkpt><trkpt lat="44.34982895830287" lon="9.347088521211399"><ele>25.000000000000004</ele><time>2026-04-19T10:11:08.999Z</time></trkpt><trkpt lat="44.34985995358936" lon="9.347006512029045"><ele>26.0</ele><time>2026-04-19T10:11:09.999Z</time></trkpt><trkpt lat="44.34986952072552" lon="9.346911538765715"><ele>27.0</ele><time>2026-04-19T10:11:10.999Z</time></trkpt><trkpt lat="44.34988526231805" lon="9.346746945972738"><ele>27.0</ele><time>2026-04-19T10:11:12.999Z</time></trkpt><trkpt lat="44.349893125497" lon="9.346653409172932"><ele>27.0</ele><time>2026-04-19T10:11:13.999Z</time></trkpt><trkpt lat="44.349901773264044" lon="9.346554791487666"><ele>27.0</ele><time>2026-04-19T10:11:14.999Z</time></trkpt><trkpt lat="44.349911235124985" lon="9.346446091289858"><ele>27.0</ele><time>2026-04-19T10:11:15.999Z</time></trkpt><trkpt lat="44.34992312273929" lon="9.346309523363606"><ele>27.0</ele><time>2026-04-19T10:11:16.999Z</time></trkpt><trkpt lat="44.34993647731984" lon="9.346156105260784"><ele>27.0</ele><time>2026-04-19T10:11:17.999Z</time></trkpt><trkpt lat="44.34994807513941" lon="9.346020018958018"><ele>27.0</ele><time>2026-04-19T10:11:18.999Z</time></trkpt><trkpt lat="44.34995926456231" lon="9.34588974626982"><ele>27.0</ele><time>2026-04-19T10:11:19.999Z</time></trkpt><trkpt lat="44.34996731736796" lon="9.345795991320637"><ele>27.0</ele><time>2026-04-19T10:11:20.999Z</time></trkpt><trkpt lat="44.34997711723575" lon="9.345681896907704"><ele>27.0</ele><time>2026-04-19T10:11:22.999Z</time></trkpt><trkpt lat="44.3499890879717" lon="9.345542527922445"><ele>27.0</ele><time>2026-04-19T10:11:25.999Z</time></trkpt><trkpt lat="44.349998300063255" lon="9.345435276286041"><ele>27.0</ele><time>2026-04-19T10:11:27.999Z</time></trkpt><trkpt lat="44.35001438585535" lon="9.345247919836549"><ele>27.0</ele><time>2026-04-19T10:11:29.999Z</time></trkpt><trkpt lat="44.35002259656684" lon="9.345152255229847"><ele>27.0</ele><time>2026-04-19T10:11:30.999Z</time></trkpt><trkpt lat="44.35003176844253" lon="9.345045391892672"><ele>27.0</ele><time>2026-04-19T10:11:31.999Z</time></trkpt><trkpt lat="44.350040859757016" lon="9.344939467337912"><ele>27.0</ele><time>2026-04-19T10:11:32.999Z</time></trkpt><trkpt lat="44.35004970521792" lon="9.344836407156228"><ele>27.0</ele><time>2026-04-19T10:11:33.999Z</time></trkpt><trkpt lat="44.35005815958783" lon="9.344737903685438"><ele>27.0</ele><time>2026-04-19T10:11:34.999Z</time></trkpt><trkpt lat="44.35006712996144" lon="9.344633388182634"><ele>27.0</ele><time>2026-04-19T10:11:35.999Z</time></trkpt><trkpt lat="44.35007650003017" lon="9.344524215744316"><ele>27.0</ele><time>2026-04-19T10:11:36.999Z</time></trkpt><trkpt lat="44.35008537057058" lon="9.344420863353134"><ele>27.0</ele><time>2026-04-19T10:11:37.998Z</time></trkpt><trkpt lat="44.35009389743509" lon="9.344321515496697"><ele>27.0</ele><time>2026-04-19T10:11:38.998Z</time></trkpt><trkpt lat="44.35010425501418" lon="9.344202550939178"><ele>27.0</ele><time>2026-04-19T10:11:39.998Z</time></trkpt><trkpt lat="44.35010143663366" lon="9.344066266471183"><ele>27.0</ele><time>2026-04-19T10:11:40.998Z</time></trkpt><trkpt lat="44.35011830924408" lon="9.343960296842655"><ele>27.0</ele><time>2026-04-19T10:11:41.998Z</time></trkpt><trkpt lat="44.35013406768108" lon="9.34384908525989"><ele>27.0</ele><time>2026-04-19T10:11:42.998Z</time></trkpt><trkpt lat="44.35015951026622" lon="9.34372780213125"><ele>27.0</ele><time>2026-04-19T10:11:43.998Z</time></trkpt><trkpt lat="44.35018698326758" lon="9.343629115183912"><ele>27.0</ele><time>2026-04-19T10:11:44.998Z</time></trkpt><trkpt lat="44.350217041846754" lon="9.343550213614886"><ele>27.0</ele><time>2026-04-19T10:11:45.998Z</time></trkpt><trkpt lat="44.35025759795862" lon="9.343423329917897"><ele>27.0</ele><time>2026-04-19T10:11:47.998Z</time></trkpt><trkpt lat="44.350291527909114" lon="9.343270017517918"><ele>27.0</ele><time>2026-04-19T10:11:49.998Z</time></trkpt><trkpt lat="44.350298737593825" lon="9.343169195956907"><ele>27.0</ele><time>2026-04-19T10:11:50.999Z</time></trkpt><trkpt lat="44.35035946181744" lon="9.34307519187214"><ele>27.000000000000004</ele><time>2026-04-19T10:11:51.999Z</time></trkpt><trkpt lat="44.350448209005364" lon="9.342986390094255"><ele>27.000000000000004</ele><time>2026-04-19T10:11:52.999Z</time></trkpt><trkpt lat="44.350542702428946" lon="9.342927969966466"><ele>27.0</ele><time>2026-04-19T10:11:53.999Z</time></trkpt><trkpt lat="44.350636865460004" lon="9.34287976904758"><ele>27.0</ele><time>2026-04-19T10:11:54.999Z</time></trkpt><trkpt lat="44.35074061810919" lon="9.342848021549829"><ele>26.8</ele><time>2026-04-19T10:11:55.998Z</time></trkpt><trkpt lat="44.350849745997145" lon="9.342833772862841"><ele>26.6</ele><time>2026-04-19T10:11:56.998Z</time></trkpt><trkpt lat="44.35096049577497" lon="9.342848613406325"><ele>26.400000000000002</ele><time>2026-04-19T10:11:57.998Z</time></trkpt><trkpt lat="44.351066142059" lon="9.342883055214546"><ele>26.200000000000003</ele><time>2026-04-19T10:11:58.998Z</time></trkpt><trkpt lat="44.351167696425335" lon="9.342942282612345"><ele>26.0</ele><time>2026-04-19T10:11:59.998Z</time></trkpt><trkpt lat="44.351267241125804" lon="9.343007072822354"><ele>26.200000000000003</ele><time>2026-04-19T10:12:00.998Z</time></trkpt><trkpt lat="44.35135433861028" lon="9.343072359342202"><ele>26.400000000000002</ele><time>2026-04-19T10:12:01.998Z</time></trkpt><trkpt lat="44.351433830125" lon="9.343128999078273"><ele>26.6</ele><time>2026-04-19T10:12:02.998Z</time></trkpt><trkpt lat="44.351507897520776" lon="9.343175447906"><ele>26.8</ele><time>2026-04-19T10:12:03.998Z</time></trkpt><trkpt lat="44.351588735348535" lon="9.343224759018884"><ele>27.0</ele><time>2026-04-19T10:12:04.998Z</time></trkpt><trkpt lat="44.351679114116244" lon="9.343284875573401"><ele>27.0</ele><time>2026-04-19T10:12:05.998Z</time></trkpt><trkpt lat="44.3517740497809" lon="9.343354435113405"><ele>27.000000000000004</ele><time>2026-04-19T10:12:06.998Z</time></trkpt><trkpt lat="44.35185895949996" lon="9.343421467560328"><ele>27.000000000000004</ele><time>2026-04-19T10:12:07.998Z</time></trkpt><trkpt lat="44.35193041509849" lon="9.343498253439877"><ele>27.0</ele><time>2026-04-19T10:12:08.998Z</time></trkpt><trkpt lat="44.35198632172876" lon="9.343581320054106"><ele>27.0</ele><time>2026-04-19T10:12:09.998Z</time></trkpt><trkpt lat="44.352030081536434" lon="9.343680033257643"><ele>27.0</ele><time>2026-04-19T10:12:10.998Z</time></trkpt><trkpt lat="44.35208779738383" lon="9.343792338871484"><ele>27.0</ele><time>2026-04-19T10:12:11.998Z</time></trkpt><trkpt lat="44.35216561433748" lon="9.343920432209831"><ele>27.0</ele><time>2026-04-19T10:12:12.998Z</time></trkpt><trkpt lat="44.352233806239354" lon="9.344067035396913"><ele>27.0</ele><time>2026-04-19T10:12:13.998Z</time></trkpt><trkpt lat="44.35227175084455" lon="9.344273325176957"><ele>26.666666666666664</ele><time>2026-04-19T10:12:14.998Z</time></trkpt><trkpt lat="44.35228297055867" lon="9.344496087300111"><ele>26.333333333333332</ele><time>2026-04-19T10:12:15.998Z</time></trkpt><trkpt lat="44.35231180129564" lon="9.344732192706271"><ele>26.0</ele><time>2026-04-19T10:12:16.998Z</time></trkpt><trkpt lat="44.35236039387901" lon="9.344980512914944"><ele>28.333333333333332</ele><time>2026-04-19T10:12:17.998Z</time></trkpt><trkpt lat="44.352423262616945" lon="9.345186129118598"><ele>30.666666666666664</ele><time>2026-04-19T10:12:18.998Z</time></trkpt><trkpt lat="44.35252089054475" lon="9.345374833372968"><ele>33.0</ele><time>2026-04-19T10:12:19.998Z</time></trkpt><trkpt lat="44.35263987642859" lon="9.345559961006677"><ele>40.0</ele><time>2026-04-19T10:12:20.998Z</time></trkpt><trkpt lat="44.3527547340325" lon="9.345770025096964"><ele>47.0</ele><time>2026-04-19T10:12:21.998Z</time></trkpt><trkpt lat="44.35284531912181" lon="9.346016136409707"><ele>54.0</ele><time>2026-04-19T10:12:22.998Z</time></trkpt><trkpt lat="44.35292152139336" lon="9.34627064034767"><ele>49.333333333333336</ele><time>2026-04-19T10:12:23.998Z</time></trkpt><trkpt lat="44.35299689388179" lon="9.346501852463586"><ele>44.66666666666667</ele><time>2026-04-19T10:12:24.998Z</time></trkpt><trkpt lat="44.35307224525262" lon="9.346708080085989"><ele>40.0</ele><time>2026-04-19T10:12:25.998Z</time></trkpt><trkpt lat="44.35315569896902" lon="9.346908950002165"><ele>40.0</ele><time>2026-04-19T10:12:26.998Z</time></trkpt><trkpt lat="44.35326491134973" lon="9.347106564685301"><ele>40.0</ele><time>2026-04-19T10:12:27.998Z</time></trkpt><trkpt lat="44.353403632410426" lon="9.347296567647984"><ele>40.0</ele><time>2026-04-19T10:12:28.998Z</time></trkpt><trkpt lat="44.35353882951967" lon="9.34750851415413"><ele>42.0</ele><time>2026-04-19T10:12:29.998Z</time></trkpt><trkpt lat="44.35367709529273" lon="9.347740038072322"><ele>44.0</ele><time>2026-04-19T10:12:30.998Z</time></trkpt><trkpt lat="44.35381619538967" lon="9.347967130548636"><ele>46.0</ele><time>2026-04-19T10:12:31.998Z</time></trkpt><trkpt lat="44.35394419989542" lon="9.348179025365532"><ele>46.0</ele><time>2026-04-19T10:12:32.998Z</time></trkpt><trkpt lat="44.35407019591958" lon="9.348388633357956"><ele>46.0</ele><time>2026-04-19T10:12:33.998Z</time></trkpt><trkpt lat="44.35420643555373" lon="9.348612555879635"><ele>46.0</ele><time>2026-04-19T10:12:34.998Z</time></trkpt><trkpt lat="44.354342132165606" lon="9.348830783057847"><ele>45.333333333333336</ele><time>2026-04-19T10:12:35.998Z</time></trkpt><trkpt lat="44.35450019602713" lon="9.349029510619875"><ele>44.666666666666664</ele><time>2026-04-19T10:12:36.998Z</time></trkpt><trkpt lat="44.354675633947274" lon="9.349197186799756"><ele>44.0</ele><time>2026-04-19T10:12:37.998Z</time></trkpt><trkpt lat="44.3548517946851" lon="9.349322598752376"><ele>44.0</ele><time>2026-04-19T10:12:38.998Z</time></trkpt><trkpt lat="44.35500709353634" lon="9.349439233687056"><ele>44.0</ele><time>2026-04-19T10:12:39.998Z</time></trkpt><trkpt lat="44.355152512117435" lon="9.34954978159801"><ele>44.0</ele><time>2026-04-19T10:12:40.998Z</time></trkpt><trkpt lat="44.35531350397725" lon="9.349658672509019"><ele>46.0</ele><time>2026-04-19T10:12:41.998Z</time></trkpt><trkpt lat="44.35547560584576" lon="9.349779381778918"><ele>48.0</ele><time>2026-04-19T10:12:42.998Z</time></trkpt><trkpt lat="44.35564201422062" lon="9.349889998402775"><ele>50.0</ele><time>2026-04-19T10:12:43.998Z</time></trkpt><trkpt lat="44.35582115560859" lon="9.349976488579054"><ele>50.0</ele><time>2026-04-19T10:12:44.998Z</time></trkpt><trkpt lat="44.355997839932485" lon="9.350091975492374"><ele>50.0</ele><time>2026-04-19T10:12:45.998Z</time></trkpt><trkpt lat="44.35617930230679" lon="9.350199212353125"><ele>50.0</ele><time>2026-04-19T10:12:46.998Z</time></trkpt><trkpt lat="44.35635727608955" lon="9.350287944466226"><ele>52.0</ele><time>2026-04-19T10:12:47.998Z</time></trkpt><trkpt lat="44.356549541236184" lon="9.350407211093748"><ele>54.0</ele><time>2026-04-19T10:12:48.998Z</time></trkpt><trkpt lat="44.3567404645805" lon="9.350504336920508"><ele>56.0</ele><time>2026-04-19T10:12:49.998Z</time></trkpt><trkpt lat="44.35692244900995" lon="9.350572577193093"><ele>56.0</ele><time>2026-04-19T10:12:50.998Z</time></trkpt><trkpt lat="44.35712321229351" lon="9.350566946195912"><ele>56.0</ele><time>2026-04-19T10:12:51.998Z</time></trkpt><trkpt lat="44.35732777476313" lon="9.350503329104916"><ele>56.0</ele><time>2026-04-19T10:12:52.998Z</time></trkpt><trkpt lat="44.35753095680782" lon="9.350423015296126"><ele>49.333333333333336</ele><time>2026-04-19T10:12:53.998Z</time></trkpt><trkpt lat="44.35772796674858" lon="9.35035493581132"><ele>42.66666666666667</ele><time>2026-04-19T10:12:54.998Z</time></trkpt><trkpt lat="44.357911565435565" lon="9.350304622842991"><ele>36.0</ele><time>2026-04-19T10:12:55.998Z</time></trkpt><trkpt lat="44.3580908435705" lon="9.350320411503606"><ele>36.0</ele><time>2026-04-19T10:12:56.998Z</time></trkpt><trkpt lat="44.35826122104718" lon="9.350324454114745"><ele>36.0</ele><time>2026-04-19T10:12:57.998Z</time></trkpt><trkpt lat="44.35843725460459" lon="9.35041117000182"><ele>36.0</ele><time>2026-04-19T10:12:58.998Z</time></trkpt><trkpt lat="44.35859086184895" lon="9.350548735838995"><ele>36.0</ele><time>2026-04-19T10:12:59.998Z</time></trkpt><trkpt lat="44.35874125796943" lon="9.350732277602797"><ele>36.0</ele><time>2026-04-19T10:13:00.998Z</time></trkpt><trkpt lat="44.35885377332107" lon="9.350942442971464"><ele>36.0</ele><time>2026-04-19T10:13:01.998Z</time></trkpt><trkpt lat="44.3589513057585" lon="9.351190338888745"><ele>37.333333333333336</ele><time>2026-04-19T10:13:02.998Z</time></trkpt><trkpt lat="44.35904710524796" lon="9.351442929702321"><ele>38.66666666666667</ele><time>2026-04-19T10:13:03.998Z</time></trkpt><trkpt lat="44.35915682876775" lon="9.351688231421756"><ele>40.0</ele><time>2026-04-19T10:13:04.998Z</time></trkpt><trkpt lat="44.359278187368" lon="9.35192423690048"><ele>40.0</ele><time>2026-04-19T10:13:05.998Z</time></trkpt><trkpt lat="44.35941419590547" lon="9.352132170972036"><ele>40.0</ele><time>2026-04-19T10:13:06.998Z</time></trkpt><trkpt lat="44.35955162843977" lon="9.352335795021068"><ele>40.0</ele><time>2026-04-19T10:13:07.998Z</time></trkpt><trkpt lat="44.35969996821541" lon="9.352518990262729"><ele>40.0</ele><time>2026-04-19T10:13:08.998Z</time></trkpt><trkpt lat="44.35986598682343" lon="9.352694849537782"><ele>40.0</ele><time>2026-04-19T10:13:09.998Z</time></trkpt><trkpt lat="44.36002535640428" lon="9.352873461730937"><ele>40.0</ele><time>2026-04-19T10:13:10.998Z</time></trkpt><trkpt lat="44.36017555707093" lon="9.353055627395632"><ele>39.66666666666667</ele><time>2026-04-19T10:13:11.998Z</time></trkpt><trkpt lat="44.36031568639123" lon="9.353235062260119"><ele>39.333333333333336</ele><time>2026-04-19T10:13:12.998Z</time></trkpt><trkpt lat="44.36045025456771" lon="9.353440958049472"><ele>39.0</ele><time>2026-04-19T10:13:13.998Z</time></trkpt><trkpt lat="44.360562971082366" lon="9.35367062954514"><ele>42.66666666666667</ele><time>2026-04-19T10:13:14.998Z</time></trkpt><trkpt lat="44.360646977891655" lon="9.353937657370881"><ele>46.333333333333336</ele><time>2026-04-19T10:13:15.998Z</time></trkpt><trkpt lat="44.36072451762149" lon="9.354196502480598"><ele>50.0</ele><time>2026-04-19T10:13:16.998Z</time></trkpt><trkpt lat="44.3608060125902" lon="9.354452557445834"><ele>50.0</ele><time>2026-04-19T10:13:17.998Z</time></trkpt><trkpt lat="44.36089317806" lon="9.354702102288126"><ele>50.0</ele><time>2026-04-19T10:13:18.998Z</time></trkpt><trkpt lat="44.36098453881971" lon="9.354946218926381"><ele>50.0</ele><time>2026-04-19T10:13:19.998Z</time></trkpt><trkpt lat="44.36109144351959" lon="9.355182526546985"><ele>49.0</ele><time>2026-04-19T10:13:20.998Z</time></trkpt><trkpt lat="44.36121227517091" lon="9.35539347085752"><ele>48.0</ele><time>2026-04-19T10:13:21.998Z</time></trkpt><trkpt lat="44.36133593087914" lon="9.355616922912171"><ele>47.0</ele><time>2026-04-19T10:13:22.998Z</time></trkpt><trkpt lat="44.36143110295302" lon="9.355867255407276"><ele>47.0</ele><time>2026-04-19T10:13:23.998Z</time></trkpt><trkpt lat="44.36149434412917" lon="9.356145411568644"><ele>47.0</ele><time>2026-04-19T10:13:24.998Z</time></trkpt><trkpt lat="44.361544629136446" lon="9.356429131537274"><ele>47.0</ele><time>2026-04-19T10:13:25.998Z</time></trkpt><trkpt lat="44.36160379509381" lon="9.35669358441335"><ele>50.666666666666664</ele><time>2026-04-19T10:13:26.998Z</time></trkpt><trkpt lat="44.36168106963767" lon="9.3569289738139"><ele>54.33333333333333</ele><time>2026-04-19T10:13:27.998Z</time></trkpt><trkpt lat="44.361797728483616" lon="9.357128433947409"><ele>58.0</ele><time>2026-04-19T10:13:28.998Z</time></trkpt><trkpt lat="44.36196013259938" lon="9.357282591252952"><ele>59.666666666666664</ele><time>2026-04-19T10:13:29.998Z</time></trkpt><trkpt lat="44.362150195485164" lon="9.357358280816962"><ele>61.33333333333333</ele><time>2026-04-19T10:13:30.998Z</time></trkpt><trkpt lat="44.36236334015661" lon="9.357358311138547"><ele>63.0</ele><time>2026-04-19T10:13:31.998Z</time></trkpt><trkpt lat="44.36260675618136" lon="9.357380706239715"><ele>63.0</ele><time>2026-04-19T10:13:32.998Z</time></trkpt><trkpt lat="44.362778192784674" lon="9.357393743206096"><ele>63.0</ele><time>2026-04-19T10:13:33.998Z</time></trkpt><trkpt lat="44.36296384380219" lon="9.357401831388708"><ele>63.0</ele><time>2026-04-19T10:13:34.998Z</time></trkpt><trkpt lat="44.3631571981008" lon="9.357426878279158"><ele>58.0</ele><time>2026-04-19T10:13:35.998Z</time></trkpt><trkpt lat="44.363365513442076" lon="9.357441109528663"><ele>53.0</ele><time>2026-04-19T10:13:36.998Z</time></trkpt><trkpt lat="44.363576987840844" lon="9.357464130127239"><ele>48.0</ele><time>2026-04-19T10:13:37.998Z</time></trkpt><trkpt lat="44.36380446353235" lon="9.35748812854707"><ele>47.0</ele><time>2026-04-19T10:13:38.998Z</time></trkpt><trkpt lat="44.364040824982546" lon="9.357510139859267"><ele>46.0</ele><time>2026-04-19T10:13:39.998Z</time></trkpt><trkpt lat="44.36426192139065" lon="9.357536638530195"><ele>46.0</ele><time>2026-04-19T10:13:40.998Z</time></trkpt><trkpt lat="44.36447581245573" lon="9.357556089125696"><ele>46.0</ele><time>2026-04-19T10:13:41.998Z</time></trkpt><trkpt lat="44.36467573929848" lon="9.357588536135566"><ele>46.0</ele><time>2026-04-19T10:13:42.998Z</time></trkpt><trkpt lat="44.36487754393917" lon="9.357609455668038"><ele>48.0</ele><time>2026-04-19T10:13:43.998Z</time></trkpt><trkpt lat="44.36507969430613" lon="9.357626212511748"><ele>50.0</ele><time>2026-04-19T10:13:44.997Z</time></trkpt><trkpt lat="44.365300541410576" lon="9.357657465050764"><ele>52.0</ele><time>2026-04-19T10:13:45.997Z</time></trkpt><trkpt lat="44.365468407155426" lon="9.357661675010373"><ele>53.33333333333333</ele><time>2026-04-19T10:13:46.998Z</time></trkpt><trkpt lat="44.36565977832293" lon="9.357674934123619"><ele>54.66666666666667</ele><time>2026-04-19T10:13:47.998Z</time></trkpt><trkpt lat="44.36584468450686" lon="9.357690600906842"><ele>56.0</ele><time>2026-04-19T10:13:48.998Z</time></trkpt><trkpt lat="44.366029602094905" lon="9.357648398476492"><ele>56.0</ele><time>2026-04-19T10:13:49.998Z</time></trkpt><trkpt lat="44.36620465703019" lon="9.357523976896934"><ele>56.0</ele><time>2026-04-19T10:13:50.998Z</time></trkpt><trkpt lat="44.36637085085478" lon="9.357344928194472"><ele>56.0</ele><time>2026-04-19T10:13:51.998Z</time></trkpt><trkpt lat="44.36654287885725" lon="9.357181491700542"><ele>56.333333333333336</ele><time>2026-04-19T10:13:52.998Z</time></trkpt><trkpt lat="44.3667416131644" lon="9.357073698944435"><ele>56.66666666666667</ele><time>2026-04-19T10:13:53.998Z</time></trkpt><trkpt lat="44.366929547766446" lon="9.356973533766714"><ele>57.0</ele><time>2026-04-19T10:13:54.998Z</time></trkpt><trkpt lat="44.36715143872332" lon="9.356880501103907"><ele>61.0</ele><time>2026-04-19T10:13:55.998Z</time></trkpt><trkpt lat="44.36735825788489" lon="9.356812482542065"><ele>65.0</ele><time>2026-04-19T10:13:56.998Z</time></trkpt><trkpt lat="44.36755356031294" lon="9.356788307817881"><ele>69.0</ele><time>2026-04-19T10:13:57.998Z</time></trkpt><trkpt lat="44.36775246854492" lon="9.35677341881421"><ele>69.0</ele><time>2026-04-19T10:13:58.998Z</time></trkpt><trkpt lat="44.36795804814273" lon="9.356754262781035"><ele>69.0</ele><time>2026-04-19T10:13:59.998Z</time></trkpt><trkpt lat="44.36815539339615" lon="9.356673916630735"><ele>69.0</ele><time>2026-04-19T10:14:00.998Z</time></trkpt><trkpt lat="44.36832622341791" lon="9.35654860991659"><ele>69.33333333333333</ele><time>2026-04-19T10:14:01.998Z</time></trkpt><trkpt lat="44.36847192291751" lon="9.356412773861365"><ele>69.66666666666666</ele><time>2026-04-19T10:14:02.998Z</time></trkpt><trkpt lat="44.36858275926521" lon="9.356259852729766"><ele>70.0</ele><time>2026-04-19T10:14:03.998Z</time></trkpt><trkpt lat="44.36868157184353" lon="9.35611995240525"><ele>70.0</ele><time>2026-04-19T10:14:04.998Z</time></trkpt><trkpt lat="44.36879117089044" lon="9.356051200247741"><ele>70.0</ele><time>2026-04-19T10:14:05.998Z</time></trkpt><trkpt lat="44.368922145988186" lon="9.356113394533368"><ele>70.0</ele><time>2026-04-19T10:14:06.998Z</time></trkpt><trkpt lat="44.369083027911515" lon="9.35618205295698"><ele>70.0</ele><time>2026-04-19T10:14:07.998Z</time></trkpt><trkpt lat="44.36925327067475" lon="9.356318914694475"><ele>76.66666666666666</ele><time>2026-04-19T10:14:08.998Z</time></trkpt><trkpt lat="44.369458223576196" lon="9.356415730447049"><ele>83.33333333333333</ele><time>2026-04-19T10:14:09.998Z</time></trkpt><trkpt lat="44.369661632008984" lon="9.356532367486917"><ele>90.0</ele><time>2026-04-19T10:14:10.998Z</time></trkpt><trkpt lat="44.369829920151346" lon="9.356616844515159"><ele>90.0</ele><time>2026-04-19T10:14:11.998Z</time></trkpt><trkpt lat="44.370028371535476" lon="9.356665708821795"><ele>90.0</ele><time>2026-04-19T10:14:12.998Z</time></trkpt><trkpt lat="44.370176471390096" lon="9.35667066260575"><ele>90.0</ele><time>2026-04-19T10:14:13.998Z</time></trkpt><trkpt lat="44.370338015746405" lon="9.356694137078108"><ele>90.0</ele><time>2026-04-19T10:14:14.998Z</time></trkpt><trkpt lat="44.37048608099869" lon="9.356750771701416"><ele>90.0</ele><time>2026-04-19T10:14:15.998Z</time></trkpt><trkpt lat="44.37060413512641" lon="9.356825062833154"><ele>90.0</ele><time>2026-04-19T10:14:16.998Z</time></trkpt><trkpt lat="44.3706939941591" lon="9.356951957284945"><ele>90.0</ele><time>2026-04-19T10:14:17.998Z</time></trkpt><trkpt lat="44.37077475856229" lon="9.357135670725715"><ele>90.75</ele><time>2026-04-19T10:14:18.998Z</time></trkpt><trkpt lat="44.37085348262268" lon="9.357304017019734"><ele>91.5</ele><time>2026-04-19T10:14:19.998Z</time></trkpt><trkpt lat="44.370918156990065" lon="9.35747450959875"><ele>92.25</ele><time>2026-04-19T10:14:20.998Z</time></trkpt><trkpt lat="44.37096720128767" lon="9.35763799752029"><ele>93.0</ele><time>2026-04-19T10:14:21.998Z</time></trkpt><trkpt lat="44.370980900520976" lon="9.357817328433576"><ele>93.0</ele><time>2026-04-19T10:14:22.998Z</time></trkpt><trkpt lat="44.37096859768472" lon="9.357997202711582"><ele>93.0</ele><time>2026-04-19T10:14:23.998Z</time></trkpt><trkpt lat="44.37094087212263" lon="9.358183250404416"><ele>93.0</ele><time>2026-04-19T10:14:24.998Z</time></trkpt><trkpt lat="44.37090952898951" lon="9.358368112451721"><ele>93.0</ele><time>2026-04-19T10:14:25.998Z</time></trkpt><trkpt lat="44.37087796083869" lon="9.358533982764868"><ele>95.0</ele><time>2026-04-19T10:14:26.998Z</time></trkpt><trkpt lat="44.3708438394565" lon="9.358695970139411"><ele>97.0</ele><time>2026-04-19T10:14:27.998Z</time></trkpt><trkpt lat="44.37081520442823" lon="9.358856265516858"><ele>99.0</ele><time>2026-04-19T10:14:28.998Z</time></trkpt><trkpt lat="44.37081977578001" lon="9.359022645431628"><ele>101.0</ele><time>2026-04-19T10:14:29.998Z</time></trkpt><trkpt lat="44.37086975942171" lon="9.359208845002655"><ele>102.75</ele><time>2026-04-19T10:14:30.998Z</time></trkpt><trkpt lat="44.37093700173386" lon="9.359385009645186"><ele>104.5</ele><time>2026-04-19T10:14:31.998Z</time></trkpt><trkpt lat="44.370994997917265" lon="9.359545468292684"><ele>106.25</ele><time>2026-04-19T10:14:32.998Z</time></trkpt><trkpt lat="44.371037781653186" lon="9.359702989975698"><ele>108.0</ele><time>2026-04-19T10:14:33.998Z</time></trkpt><trkpt lat="44.371066807919554" lon="9.359866277171687"><ele>109.2</ele><time>2026-04-19T10:14:34.998Z</time></trkpt><trkpt lat="44.371081677365545" lon="9.360024790201017"><ele>110.4</ele><time>2026-04-19T10:14:35.998Z</time></trkpt><trkpt lat="44.371076488828976" lon="9.36018757689696"><ele>111.60000000000001</ele><time>2026-04-19T10:14:36.998Z</time></trkpt><trkpt lat="44.371082197631985" lon="9.36034093776797"><ele>112.80000000000001</ele><time>2026-04-19T10:14:37.998Z</time></trkpt><trkpt lat="44.37111547111925" lon="9.360480315530666"><ele>114.0</ele><time>2026-04-19T10:14:38.998Z</time></trkpt><trkpt lat="44.37116499454007" lon="9.360592945374927"><ele>118.25</ele><time>2026-04-19T10:14:39.998Z</time></trkpt><trkpt lat="44.371241318697216" lon="9.360676655624514"><ele>122.5</ele><time>2026-04-19T10:14:40.998Z</time></trkpt><trkpt lat="44.37133940266609" lon="9.360733508919875"><ele>126.75</ele><time>2026-04-19T10:14:41.998Z</time></trkpt><trkpt lat="44.3714685139959" lon="9.360763293205471"><ele>131.0</ele><time>2026-04-19T10:14:42.998Z</time></trkpt><trkpt lat="44.37162254635757" lon="9.360769554290549"><ele>119.0</ele><time>2026-04-19T10:14:43.998Z</time></trkpt><trkpt lat="44.37180531446035" lon="9.360773934461871"><ele>107.0</ele><time>2026-04-19T10:14:44.998Z</time></trkpt><trkpt lat="44.37200489810826" lon="9.360813879214877"><ele>95.0</ele><time>2026-04-19T10:14:45.998Z</time></trkpt><trkpt lat="44.37220142416636" lon="9.36084815253543"><ele>91.0</ele><time>2026-04-19T10:14:46.998Z</time></trkpt><trkpt lat="44.37239843033125" lon="9.360848635943867"><ele>87.0</ele><time>2026-04-19T10:14:47.998Z</time></trkpt><trkpt lat="44.372616396682076" lon="9.360824677142169"><ele>83.0</ele><time>2026-04-19T10:14:48.998Z</time></trkpt><trkpt lat="44.37283842957606" lon="9.360808336726805"><ele>80.33333333333334</ele><time>2026-04-19T10:14:49.998Z</time></trkpt><trkpt lat="44.373033682723815" lon="9.360804511972484"><ele>77.66666666666667</ele><time>2026-04-19T10:14:50.998Z</time></trkpt><trkpt lat="44.37321057726478" lon="9.360802941427862"><ele>75.0</ele><time>2026-04-19T10:14:51.998Z</time></trkpt><trkpt lat="44.37338183457754" lon="9.360794364937588"><ele>75.0</ele><time>2026-04-19T10:14:52.998Z</time></trkpt><trkpt lat="44.373523841388405" lon="9.360811523107685"><ele>75.0</ele><time>2026-04-19T10:14:53.998Z</time></trkpt><trkpt lat="44.37364171513158" lon="9.360841404534847"><ele>75.0</ele><time>2026-04-19T10:14:54.998Z</time></trkpt><trkpt lat="44.373721664492386" lon="9.36093981952438"><ele>75.0</ele><time>2026-04-19T10:14:55.998Z</time></trkpt><trkpt lat="44.373758330759976" lon="9.36108027348765"><ele>75.0</ele><time>2026-04-19T10:14:56.998Z</time></trkpt><trkpt lat="44.373717229490815" lon="9.361219092654617"><ele>75.0</ele><time>2026-04-19T10:14:57.998Z</time></trkpt><trkpt lat="44.37363191411651" lon="9.361497643608574"><ele>75.0</ele><time>2026-04-19T10:14:58.998Z</time></trkpt><trkpt lat="44.373568594342586" lon="9.36170656093893"><ele>81.33333333333333</ele><time>2026-04-19T10:14:59.998Z</time></trkpt><trkpt lat="44.37350388893128" lon="9.361921144266796"><ele>87.66666666666666</ele><time>2026-04-19T10:15:00.998Z</time></trkpt><trkpt lat="44.37343665323735" lon="9.362115244530411"><ele>94.0</ele><time>2026-04-19T10:15:01.998Z</time></trkpt><trkpt lat="44.37338352035461" lon="9.362297252082366"><ele>95.0</ele><time>2026-04-19T10:15:02.998Z</time></trkpt><trkpt lat="44.373366603777434" lon="9.362479048906776"><ele>96.0</ele><time>2026-04-19T10:15:03.998Z</time></trkpt><trkpt lat="44.37341570367657" lon="9.36266618768652"><ele>97.0</ele><time>2026-04-19T10:15:04.998Z</time></trkpt><trkpt lat="44.373532876169314" lon="9.362812543565935"><ele>98.0</ele><time>2026-04-19T10:15:05.998Z</time></trkpt><trkpt lat="44.373694306369806" lon="9.362902892347005"><ele>95.33333333333333</ele><time>2026-04-19T10:15:06.998Z</time></trkpt><trkpt lat="44.37387198636078" lon="9.362932521828759"><ele>92.66666666666666</ele><time>2026-04-19T10:15:07.998Z</time></trkpt><trkpt lat="44.374018261317524" lon="9.363031298713455"><ele>90.0</ele><time>2026-04-19T10:15:08.998Z</time></trkpt><trkpt lat="44.374141239634405" lon="9.363183494782593"><ele>90.0</ele><time>2026-04-19T10:15:09.998Z</time></trkpt><trkpt lat="44.374281228029496" lon="9.363335194791157"><ele>90.0</ele><time>2026-04-19T10:15:10.998Z</time></trkpt><trkpt lat="44.37440522181448" lon="9.36344800998445"><ele>90.0</ele><time>2026-04-19T10:15:11.998Z</time></trkpt><trkpt lat="44.37450549399569" lon="9.363558609605965"><ele>90.0</ele><time>2026-04-19T10:15:12.998Z</time></trkpt><trkpt lat="44.37455693074196" lon="9.363725191805187"><ele>90.0</ele><time>2026-04-19T10:15:13.998Z</time></trkpt><trkpt lat="44.374561917752025" lon="9.363901278112985"><ele>90.0</ele><time>2026-04-19T10:15:14.998Z</time></trkpt><trkpt lat="44.374584308841676" lon="9.364105431710527"><ele>90.0</ele><time>2026-04-19T10:15:15.998Z</time></trkpt><trkpt lat="44.37464269100979" lon="9.364260407646979"><ele>86.66666666666667</ele><time>2026-04-19T10:15:16.998Z</time></trkpt><trkpt lat="44.37476188367378" lon="9.364414284976913"><ele>83.33333333333334</ele><time>2026-04-19T10:15:17.998Z</time></trkpt><trkpt lat="44.37494133747973" lon="9.364508726962281"><ele>80.0</ele><time>2026-04-19T10:15:18.998Z</time></trkpt><trkpt lat="44.375082452414496" lon="9.36459920017077"><ele>88.33333333333334</ele><time>2026-04-19T10:15:19.998Z</time></trkpt><trkpt lat="44.37521574357984" lon="9.364740807418462"><ele>96.66666666666667</ele><time>2026-04-19T10:15:20.998Z</time></trkpt><trkpt lat="44.37534805916131" lon="9.364874188434623"><ele>105.0</ele><time>2026-04-19T10:15:21.998Z</time></trkpt><trkpt lat="44.37544819653356" lon="9.365021651905616"><ele>99.0</ele><time>2026-04-19T10:15:22.998Z</time></trkpt><trkpt lat="44.37552303934665" lon="9.365197138036073"><ele>93.0</ele><time>2026-04-19T10:15:23.998Z</time></trkpt><trkpt lat="44.37559105940535" lon="9.365418463488632"><ele>87.0</ele><time>2026-04-19T10:15:24.998Z</time></trkpt><trkpt lat="44.375657529471034" lon="9.365638069002783"><ele>87.0</ele><time>2026-04-19T10:15:25.998Z</time></trkpt><trkpt lat="44.3757150996095" lon="9.365831628186594"><ele>87.0</ele><time>2026-04-19T10:15:26.998Z</time></trkpt><trkpt lat="44.37584421132727" lon="9.365982538415304"><ele>87.0</ele><time>2026-04-19T10:15:27.998Z</time></trkpt><trkpt lat="44.376024279849375" lon="9.366077827979588"><ele>87.0</ele><time>2026-04-19T10:15:28.998Z</time></trkpt><trkpt lat="44.37620307353503" lon="9.36618328264593"><ele>87.0</ele><time>2026-04-19T10:15:29.998Z</time></trkpt><trkpt lat="44.37635724721714" lon="9.36633866783125"><ele>87.0</ele><time>2026-04-19T10:15:30.998Z</time></trkpt><trkpt lat="44.37648950521058" lon="9.366528567222648"><ele>84.33333333333333</ele><time>2026-04-19T10:15:31.998Z</time></trkpt><trkpt lat="44.37662505905396" lon="9.366724505161761"><ele>81.66666666666666</ele><time>2026-04-19T10:15:32.998Z</time></trkpt><trkpt lat="44.376776679039175" lon="9.366912340337997"><ele>79.0</ele><time>2026-04-19T10:15:33.998Z</time></trkpt><trkpt lat="44.37694768910171" lon="9.367084648336201"><ele>77.0</ele><time>2026-04-19T10:15:34.998Z</time></trkpt><trkpt lat="44.37713011791831" lon="9.367257195875995"><ele>75.0</ele><time>2026-04-19T10:15:35.998Z</time></trkpt><trkpt lat="44.377306738338575" lon="9.367437533881011"><ele>73.0</ele><time>2026-04-19T10:15:36.998Z</time></trkpt><trkpt lat="44.37747645731401" lon="9.367623148190251"><ele>73.0</ele><time>2026-04-19T10:15:37.998Z</time></trkpt><trkpt lat="44.377624151884966" lon="9.367839742132812"><ele>73.0</ele><time>2026-04-19T10:15:38.998Z</time></trkpt><trkpt lat="44.377760398023554" lon="9.368099969213787"><ele>73.0</ele><time>2026-04-19T10:15:39.998Z</time></trkpt><trkpt lat="44.37787447463276" lon="9.368358303846021"><ele>69.5</ele><time>2026-04-19T10:15:40.998Z</time></trkpt><trkpt lat="44.37802906185208" lon="9.368585100532053"><ele>66.0</ele><time>2026-04-19T10:15:41.998Z</time></trkpt><trkpt lat="44.37819517855355" lon="9.36880510488789"><ele>74.0</ele><time>2026-04-19T10:15:42.998Z</time></trkpt><trkpt lat="44.37834741026767" lon="9.369040931825861"><ele>82.0</ele><time>2026-04-19T10:15:43.998Z</time></trkpt><trkpt lat="44.37849680070482" lon="9.369282259928186"><ele>82.0</ele><time>2026-04-19T10:15:44.998Z</time></trkpt><trkpt lat="44.37864360148675" lon="9.369519946579661"><ele>82.0</ele><time>2026-04-19T10:15:45.998Z</time></trkpt><trkpt lat="44.378795498599494" lon="9.369747848001335"><ele>82.0</ele><time>2026-04-19T10:15:46.998Z</time></trkpt><trkpt lat="44.3789464230306" lon="9.369964797246135"><ele>80.33333333333333</ele><time>2026-04-19T10:15:47.998Z</time></trkpt><trkpt lat="44.3790963968256" lon="9.370180696045294"><ele>78.66666666666667</ele><time>2026-04-19T10:15:48.999Z</time></trkpt><trkpt lat="44.37924183357081" lon="9.370394641979663"><ele>77.0</ele><time>2026-04-19T10:15:49.999Z</time></trkpt><trkpt lat="44.37939370021598" lon="9.370610480533008"><ele>76.66666666666667</ele><time>2026-04-19T10:15:50.999Z</time></trkpt><trkpt lat="44.37954546789527" lon="9.370825611869975"><ele>76.33333333333333</ele><time>2026-04-19T10:15:51.999Z</time></trkpt><trkpt lat="44.379706818371005" lon="9.371042990484595"><ele>76.0</ele><time>2026-04-19T10:15:52.999Z</time></trkpt><trkpt lat="44.379872156842794" lon="9.371257516018014"><ele>83.0</ele><time>2026-04-19T10:15:53.999Z</time></trkpt><trkpt lat="44.380041650252764" lon="9.371474866161625"><ele>90.0</ele><time>2026-04-19T10:15:54.999Z</time></trkpt><trkpt lat="44.38021161448664" lon="9.371693497866048"><ele>90.0</ele><time>2026-04-19T10:15:55.999Z</time></trkpt><trkpt lat="44.38038206137721" lon="9.371923667543072"><ele>90.0</ele><time>2026-04-19T10:15:56.999Z</time></trkpt><trkpt lat="44.38054305518524" lon="9.372151625417889"><ele>83.0</ele><time>2026-04-19T10:15:57.999Z</time></trkpt><trkpt lat="44.38070838124838" lon="9.372377797903868"><ele>76.0</ele><time>2026-04-19T10:15:58.999Z</time></trkpt><trkpt lat="44.38087143232581" lon="9.372602560303946"><ele>76.0</ele><time>2026-04-19T10:15:59.999Z</time></trkpt><trkpt lat="44.38102047548815" lon="9.37281201253977"><ele>76.0</ele><time>2026-04-19T10:16:00.999Z</time></trkpt><trkpt lat="44.381160726762914" lon="9.373019745767794"><ele>76.0</ele><time>2026-04-19T10:16:01.999Z</time></trkpt><trkpt lat="44.381253330761986" lon="9.373242818724547"><ele>77.0</ele><time>2026-04-19T10:16:02.999Z</time></trkpt><trkpt lat="44.38132429886627" lon="9.373480168904353"><ele>78.0</ele><time>2026-04-19T10:16:03.999Z</time></trkpt><trkpt lat="44.381398644061335" lon="9.373744552599286"><ele>79.0</ele><time>2026-04-19T10:16:04.999Z</time></trkpt><trkpt lat="44.3814782872527" lon="9.373989432731252"><ele>79.0</ele><time>2026-04-19T10:16:05.999Z</time></trkpt><trkpt lat="44.381573831777814" lon="9.374222924143263"><ele>79.0</ele><time>2026-04-19T10:16:06.999Z</time></trkpt><trkpt lat="44.38166948466486" lon="9.374431052297725"><ele>79.0</ele><time>2026-04-19T10:16:07.999Z</time></trkpt><trkpt lat="44.38175068257244" lon="9.374616033592266"><ele>82.75</ele><time>2026-04-19T10:16:08.999Z</time></trkpt><trkpt lat="44.3818200273406" lon="9.37479594148953"><ele>86.5</ele><time>2026-04-19T10:16:09.999Z</time></trkpt><trkpt lat="44.38186794498213" lon="9.37497964328668"><ele>90.25</ele><time>2026-04-19T10:16:10.999Z</time></trkpt><trkpt lat="44.38189754539903" lon="9.375152345466852"><ele>94.0</ele><time>2026-04-19T10:16:11.999Z</time></trkpt><trkpt lat="44.381934458998195" lon="9.375327608752398"><ele>94.0</ele><time>2026-04-19T10:16:12.999Z</time></trkpt><trkpt lat="44.38197497909005" lon="9.37548844921301"><ele>94.0</ele><time>2026-04-19T10:16:13.999Z</time></trkpt><trkpt lat="44.38204357785824" lon="9.375634324780375"><ele>94.0</ele><time>2026-04-19T10:16:14.999Z</time></trkpt><trkpt lat="44.382153579660134" lon="9.375771641745972"><ele>94.0</ele><time>2026-04-19T10:16:15.999Z</time></trkpt><trkpt lat="44.38229735725737" lon="9.375905970596413"><ele>89.33333333333333</ele><time>2026-04-19T10:16:16.999Z</time></trkpt><trkpt lat="44.38244688916521" lon="9.376062375615357"><ele>84.66666666666667</ele><time>2026-04-19T10:16:17.999Z</time></trkpt><trkpt lat="44.38259085314869" lon="9.376227216003668"><ele>80.0</ele><time>2026-04-19T10:16:18.999Z</time></trkpt><trkpt lat="44.382728552386816" lon="9.376390938212944"><ele>80.0</ele><time>2026-04-19T10:16:19.999Z</time></trkpt><trkpt lat="44.38285615404667" lon="9.37653399864106"><ele>80.0</ele><time>2026-04-19T10:16:20.999Z</time></trkpt><trkpt lat="44.38296673318772" lon="9.376667324500776"><ele>80.0</ele><time>2026-04-19T10:16:21.999Z</time></trkpt><trkpt lat="44.383084074467774" lon="9.37680330208472"><ele>80.0</ele><time>2026-04-19T10:16:22.999Z</time></trkpt><trkpt lat="44.383211905430805" lon="9.37695442938737"><ele>80.0</ele><time>2026-04-19T10:16:23.999Z</time></trkpt><trkpt lat="44.383343856035665" lon="9.377113176998229"><ele>80.0</ele><time>2026-04-19T10:16:24.999Z</time></trkpt><trkpt lat="44.38349316697751" lon="9.377273149940438"><ele>80.66666666666667</ele><time>2026-04-19T10:16:25.999Z</time></trkpt><trkpt lat="44.383643070707386" lon="9.377450099798663"><ele>81.33333333333333</ele><time>2026-04-19T10:16:26.999Z</time></trkpt><trkpt lat="44.383774806222036" lon="9.37761684719839"><ele>82.0</ele><time>2026-04-19T10:16:27.999Z</time></trkpt><trkpt lat="44.38389972486356" lon="9.37777192398497"><ele>82.0</ele><time>2026-04-19T10:16:28.999Z</time></trkpt><trkpt lat="44.384015573319225" lon="9.37791808145249"><ele>82.0</ele><time>2026-04-19T10:16:29.999Z</time></trkpt><trkpt lat="44.384126403631804" lon="9.378048576436685"><ele>82.0</ele><time>2026-04-19T10:16:30.999Z</time></trkpt><trkpt lat="44.38424081830089" lon="9.378162183787909"><ele>82.0</ele><time>2026-04-19T10:16:31.999Z</time></trkpt><trkpt lat="44.38435722496193" lon="9.378247442957477"><ele>82.0</ele><time>2026-04-19T10:16:32.999Z</time></trkpt><trkpt lat="44.38448154502132" lon="9.378293577040475"><ele>82.0</ele><time>2026-04-19T10:16:33.999Z</time></trkpt><trkpt lat="44.38460325858028" lon="9.378327726314414"><ele>82.0</ele><time>2026-04-19T10:16:34.999Z</time></trkpt><trkpt lat="44.384713072587914" lon="9.378369832690987"><ele>82.0</ele><time>2026-04-19T10:16:35.999Z</time></trkpt><trkpt lat="44.38481667938373" lon="9.37842005480873"><ele>82.0</ele><time>2026-04-19T10:16:36.999Z</time></trkpt><trkpt lat="44.38491177261729" lon="9.378456932042143"><ele>82.0</ele><time>2026-04-19T10:16:37.999Z</time></trkpt><trkpt lat="44.38499719997182" lon="9.378485591928927"><ele>82.0</ele><time>2026-04-19T10:16:38.999Z</time></trkpt><trkpt lat="44.38507610433637" lon="9.378514688414377"><ele>82.0</ele><time>2026-04-19T10:16:39.999Z</time></trkpt><trkpt lat="44.385149430797675" lon="9.378540837678834"><ele>82.0</ele><time>2026-04-19T10:16:40.999Z</time></trkpt><trkpt lat="44.38523410235175" lon="9.378570149456094"><ele>82.0</ele><time>2026-04-19T10:16:41.999Z</time></trkpt><trkpt lat="44.385300649411" lon="9.378603521844907"><ele>82.0</ele><time>2026-04-19T10:16:42.999Z</time></trkpt><trkpt lat="44.385403056817474" lon="9.378630956848216"><ele>82.0</ele><time>2026-04-19T10:16:44.999Z</time></trkpt><trkpt lat="44.38548598968551" lon="9.378663985994368"><ele>82.0</ele><time>2026-04-19T10:16:45.999Z</time></trkpt><trkpt lat="44.38559712125633" lon="9.37870803612112"><ele>82.0</ele><time>2026-04-19T10:16:46.999Z</time></trkpt><trkpt lat="44.38571356083126" lon="9.378758826883638"><ele>82.0</ele><time>2026-04-19T10:16:47.999Z</time></trkpt><trkpt lat="44.38584285786957" lon="9.378835866154402"><ele>83.66666666666666</ele><time>2026-04-19T10:16:48.999Z</time></trkpt><trkpt lat="44.38597463966927" lon="9.37893033045873"><ele>85.33333333333333</ele><time>2026-04-19T10:16:49.999Z</time></trkpt><trkpt lat="44.38611862363245" lon="9.379035382409455"><ele>87.0</ele><time>2026-04-19T10:16:50.999Z</time></trkpt><trkpt lat="44.38626756732993" lon="9.37914438994111"><ele>85.66666666666667</ele><time>2026-04-19T10:16:51.999Z</time></trkpt><trkpt lat="44.38641547834125" lon="9.379249424368972"><ele>84.33333333333334</ele><time>2026-04-19T10:16:52.999Z</time></trkpt><trkpt lat="44.3865536657485" lon="9.379363717836023"><ele>83.0</ele><time>2026-04-19T10:16:53.999Z</time></trkpt><trkpt lat="44.38667439527167" lon="9.379494667158843"><ele>83.0</ele><time>2026-04-19T10:16:54.999Z</time></trkpt><trkpt lat="44.386771518729034" lon="9.379663835425509"><ele>83.0</ele><time>2026-04-19T10:16:55.999Z</time></trkpt><trkpt lat="44.386856170554665" lon="9.379856348135466"><ele>83.0</ele><time>2026-04-19T10:16:56.999Z</time></trkpt><trkpt lat="44.386935537623614" lon="9.380058750126839"><ele>81.33333333333334</ele><time>2026-04-19T10:16:57.999Z</time></trkpt><trkpt lat="44.38703103713079" lon="9.38024700547188"><ele>79.66666666666667</ele><time>2026-04-19T10:16:58.999Z</time></trkpt><trkpt lat="44.38715596348538" lon="9.380411436319552"><ele>78.0</ele><time>2026-04-19T10:16:59.999Z</time></trkpt><trkpt lat="44.387304201831476" lon="9.380514369420283"><ele>82.0</ele><time>2026-04-19T10:17:00.999Z</time></trkpt><trkpt lat="44.38744901333507" lon="9.380579374077799"><ele>86.0</ele><time>2026-04-19T10:17:01.999Z</time></trkpt><trkpt lat="44.38757479325941" lon="9.380636152201015"><ele>90.0</ele><time>2026-04-19T10:17:02.999Z</time></trkpt><trkpt lat="44.38769605025491" lon="9.38069284148318"><ele>94.0</ele><time>2026-04-19T10:17:03.999Z</time></trkpt><trkpt lat="44.38782989275326" lon="9.380715577477693"><ele>94.0</ele><time>2026-04-19T10:17:04.999Z</time></trkpt><trkpt lat="44.38796715585999" lon="9.380711227706694"><ele>94.0</ele><time>2026-04-19T10:17:05.999Z</time></trkpt><trkpt lat="44.38810339776505" lon="9.380707864111152"><ele>94.0</ele><time>2026-04-19T10:17:06.999Z</time></trkpt><trkpt lat="44.38824055079479" lon="9.380689791153403"><ele>94.0</ele><time>2026-04-19T10:17:07.999Z</time></trkpt><trkpt lat="44.388388393202845" lon="9.380637765623657"><ele>94.0</ele><time>2026-04-19T10:17:08.999Z</time></trkpt><trkpt lat="44.38852231333987" lon="9.38056016090422"><ele>94.0</ele><time>2026-04-19T10:17:09.999Z</time></trkpt><trkpt lat="44.38864807279652" lon="9.380481866596678"><ele>94.0</ele><time>2026-04-19T10:17:10.999Z</time></trkpt><trkpt lat="44.38876845199895" lon="9.380400294868634"><ele>94.0</ele><time>2026-04-19T10:17:11.999Z</time></trkpt><trkpt lat="44.38889104452345" lon="9.380299188267715"><ele>94.0</ele><time>2026-04-19T10:17:12.999Z</time></trkpt><trkpt lat="44.389023201505765" lon="9.380181391910147"><ele>94.0</ele><time>2026-04-19T10:17:13.999Z</time></trkpt><trkpt lat="44.3891621404179" lon="9.380044331423221"><ele>94.0</ele><time>2026-04-19T10:17:14.999Z</time></trkpt><trkpt lat="44.389322223370485" lon="9.379933408725964"><ele>94.0</ele><time>2026-04-19T10:17:15.999Z</time></trkpt><trkpt lat="44.38947013415921" lon="9.379789241986138"><ele>94.0</ele><time>2026-04-19T10:17:16.999Z</time></trkpt><trkpt lat="44.389621910022804" lon="9.37962385797409"><ele>94.0</ele><time>2026-04-19T10:17:17.999Z</time></trkpt><trkpt lat="44.3897850022253" lon="9.379446058573206"><ele>94.66666666666666</ele><time>2026-04-19T10:17:18.999Z</time></trkpt><trkpt lat="44.3899578150711" lon="9.379257993963284"><ele>95.33333333333333</ele><time>2026-04-19T10:17:19.999Z</time></trkpt><trkpt lat="44.39013967314079" lon="9.379061885508218"><ele>96.0</ele><time>2026-04-19T10:17:20.999Z</time></trkpt><trkpt lat="44.39031086782183" lon="9.378877276024538"><ele>95.0</ele><time>2026-04-19T10:17:21.999Z</time></trkpt><trkpt lat="44.39046890751768" lon="9.378706217215916"><ele>94.0</ele><time>2026-04-19T10:17:22.999Z</time></trkpt><trkpt lat="44.39060920718309" lon="9.378524970262422"><ele>93.0</ele><time>2026-04-19T10:17:23.999Z</time></trkpt><trkpt lat="44.390762530572026" lon="9.378386641164116"><ele>94.5</ele><time>2026-04-19T10:17:24.999Z</time></trkpt><trkpt lat="44.390893806988" lon="9.378243228332542"><ele>96.0</ele><time>2026-04-19T10:17:25.999Z</time></trkpt><trkpt lat="44.39101042827907" lon="9.378122467197912"><ele>97.5</ele><time>2026-04-19T10:17:26.999Z</time></trkpt><trkpt lat="44.39112803793525" lon="9.378027082511629"><ele>99.0</ele><time>2026-04-19T10:17:27.999Z</time></trkpt><trkpt lat="44.39124527722437" lon="9.378026710325159"><ele>99.0</ele><time>2026-04-19T10:17:28.999Z</time></trkpt><trkpt lat="44.39136841642835" lon="9.378084244592953"><ele>99.0</ele><time>2026-04-19T10:17:29.999Z</time></trkpt><trkpt lat="44.391487935140674" lon="9.37819802755424"><ele>99.0</ele><time>2026-04-19T10:17:30.999Z</time></trkpt><trkpt lat="44.39159944826735" lon="9.37829993009691"><ele>99.0</ele><time>2026-04-19T10:17:31.999Z</time></trkpt><trkpt lat="44.39168409110385" lon="9.37839410502436"><ele>99.0</ele><time>2026-04-19T10:17:32.999Z</time></trkpt><trkpt lat="44.39174137416788" lon="9.378453483494445"><ele>99.0</ele><time>2026-04-19T10:17:33.999Z</time></trkpt><trkpt lat="44.391823798855036" lon="9.378569876270701"><ele>99.0</ele><time>2026-04-19T10:17:35.999Z</time></trkpt><trkpt lat="44.391857502942" lon="9.37865578110928"><ele>99.0</ele><time>2026-04-19T10:17:36.999Z</time></trkpt><trkpt lat="44.391920056931475" lon="9.378825605669501"><ele>99.0</ele><time>2026-04-19T10:17:38.999Z</time></trkpt><trkpt lat="44.391981837593036" lon="9.378918925628815"><ele>99.75</ele><time>2026-04-19T10:17:39.999Z</time></trkpt><trkpt lat="44.39208477511685" lon="9.378960318596466"><ele>100.5</ele><time>2026-04-19T10:17:40.999Z</time></trkpt><trkpt lat="44.39220312361236" lon="9.378974051810046"><ele>101.25</ele><time>2026-04-19T10:17:41.999Z</time></trkpt><trkpt lat="44.392349868321105" lon="9.378978906674313"><ele>102.0</ele><time>2026-04-19T10:17:42.999Z</time></trkpt><trkpt lat="44.3925029680384" lon="9.378952122175349"><ele>102.0</ele><time>2026-04-19T10:17:43.999Z</time></trkpt><trkpt lat="44.39266048748542" lon="9.378921396657237"><ele>102.0</ele><time>2026-04-19T10:17:44.999Z</time></trkpt><trkpt lat="44.392823518024976" lon="9.378914070004198"><ele>102.0</ele><time>2026-04-19T10:17:45.999Z</time></trkpt><trkpt lat="44.392948521541996" lon="9.378909721136289"><ele>102.0</ele><time>2026-04-19T10:17:46.999Z</time></trkpt><trkpt lat="44.39309696414314" lon="9.378899315061787"><ele>103.75</ele><time>2026-04-19T10:17:47.999Z</time></trkpt><trkpt lat="44.39323917147766" lon="9.37886250622215"><ele>105.5</ele><time>2026-04-19T10:17:48.999Z</time></trkpt><trkpt lat="44.39337573366811" lon="9.3788606227905"><ele>107.25</ele><time>2026-04-19T10:17:49.999Z</time></trkpt><trkpt lat="44.393497146879334" lon="9.378917255952611"><ele>109.0</ele><time>2026-04-19T10:17:50.999Z</time></trkpt><trkpt lat="44.393637926384656" lon="9.378963425882144"><ele>109.0</ele><time>2026-04-19T10:17:51.999Z</time></trkpt><trkpt lat="44.39379064731574" lon="9.37900332823007"><ele>109.0</ele><time>2026-04-19T10:17:52.999Z</time></trkpt><trkpt lat="44.39392565311637" lon="9.379059635324632"><ele>109.0</ele><time>2026-04-19T10:17:54Z</time></trkpt><trkpt lat="44.394070689992354" lon="9.379101516700736"><ele>109.0</ele><time>2026-04-19T10:17:55Z</time></trkpt><trkpt lat="44.39423932252651" lon="9.379152344882291"><ele>108.33333333333334</ele><time>2026-04-19T10:17:56Z</time></trkpt><trkpt lat="44.39442164057736" lon="9.379220493063553"><ele>107.66666666666666</ele><time>2026-04-19T10:17:57Z</time></trkpt><trkpt lat="44.39460870523916" lon="9.379289594248307"><ele>107.0</ele><time>2026-04-19T10:17:58Z</time></trkpt><trkpt lat="44.394791814159134" lon="9.379356312450286"><ele>107.0</ele><time>2026-04-19T10:17:59Z</time></trkpt><trkpt lat="44.394981315013695" lon="9.379407460263351"><ele>107.0</ele><time>2026-04-19T10:18:00Z</time></trkpt><trkpt lat="44.39519051709356" lon="9.37943502662346"><ele>107.0</ele><time>2026-04-19T10:18:01Z</time></trkpt><trkpt lat="44.39538556432627" lon="9.379452324984095"><ele>105.66666666666666</ele><time>2026-04-19T10:18:02Z</time></trkpt><trkpt lat="44.39555566671814" lon="9.379476670619335"><ele>104.33333333333334</ele><time>2026-04-19T10:18:03Z</time></trkpt><trkpt lat="44.39571531896878" lon="9.379520849712506"><ele>103.0</ele><time>2026-04-19T10:18:04Z</time></trkpt><trkpt lat="44.39585172503423" lon="9.379609367072058"><ele>106.75</ele><time>2026-04-19T10:18:05Z</time></trkpt><trkpt lat="44.395966168693164" lon="9.379725382347743"><ele>110.5</ele><time>2026-04-19T10:18:06Z</time></trkpt><trkpt lat="44.39605832656138" lon="9.379876186835412"><ele>114.25</ele><time>2026-04-19T10:18:07Z</time></trkpt><trkpt lat="44.39614104658444" lon="9.380060411112087"><ele>118.0</ele><time>2026-04-19T10:18:08Z</time></trkpt><trkpt lat="44.39619212032836" lon="9.380236060109077"><ele>118.0</ele><time>2026-04-19T10:18:09Z</time></trkpt><trkpt lat="44.396289510033874" lon="9.380352493317423"><ele>118.0</ele><time>2026-04-19T10:18:10Z</time></trkpt><trkpt lat="44.396406698059735" lon="9.380380346107799"><ele>118.0</ele><time>2026-04-19T10:18:11Z</time></trkpt><trkpt lat="44.39652813131589" lon="9.380353949702485"><ele>118.0</ele><time>2026-04-19T10:18:12Z</time></trkpt><trkpt lat="44.396647200987545" lon="9.3802537470148"><ele>113.33333333333334</ele><time>2026-04-19T10:18:13Z</time></trkpt><trkpt lat="44.39677508981199" lon="9.380094131001535"><ele>108.66666666666666</ele><time>2026-04-19T10:18:14Z</time></trkpt><trkpt lat="44.39691974517412" lon="9.379954201633003"><ele>104.0</ele><time>2026-04-19T10:18:15Z</time></trkpt><trkpt lat="44.39707380756402" lon="9.379818673468977"><ele>105.0</ele><time>2026-04-19T10:18:16Z</time></trkpt><trkpt lat="44.39721581179735" lon="9.379751054098497"><ele>106.0</ele><time>2026-04-19T10:18:17Z</time></trkpt><trkpt lat="44.39735394690779" lon="9.379726857550654"><ele>107.0</ele><time>2026-04-19T10:18:18Z</time></trkpt><trkpt lat="44.39750707441054" lon="9.379762471516733"><ele>108.0</ele><time>2026-04-19T10:18:19Z</time></trkpt><trkpt lat="44.39767341992311" lon="9.379852283946466"><ele>108.0</ele><time>2026-04-19T10:18:20Z</time></trkpt><trkpt lat="44.39780503983371" lon="9.379997372110683"><ele>108.0</ele><time>2026-04-19T10:18:21Z</time></trkpt><trkpt lat="44.3979416081878" lon="9.3801493056131"><ele>108.0</ele><time>2026-04-19T10:18:22Z</time></trkpt><trkpt lat="44.39808690420723" lon="9.380306044201648"><ele>108.33333333333334</ele><time>2026-04-19T10:18:23Z</time></trkpt><trkpt lat="44.39823451770168" lon="9.380455276763838"><ele>108.66666666666667</ele><time>2026-04-19T10:18:24Z</time></trkpt><trkpt lat="44.39837983721563" lon="9.380612264089738"><ele>109.0</ele><time>2026-04-19T10:18:25Z</time></trkpt><trkpt lat="44.39854774960214" lon="9.380735622753967"><ele>109.0</ele><time>2026-04-19T10:18:26Z</time></trkpt><trkpt lat="44.39873039482997" lon="9.380838001204848"><ele>109.0</ele><time>2026-04-19T10:18:27Z</time></trkpt><trkpt lat="44.398918552448606" lon="9.38092424445607"><ele>109.0</ele><time>2026-04-19T10:18:28Z</time></trkpt><trkpt lat="44.39911724252685" lon="9.381003046127223"><ele>111.66666666666667</ele><time>2026-04-19T10:18:29Z</time></trkpt><trkpt lat="44.39931839681982" lon="9.381091658583594"><ele>114.33333333333334</ele><time>2026-04-19T10:18:30Z</time></trkpt><trkpt lat="44.399524584614305" lon="9.381175400516854"><ele>117.0</ele><time>2026-04-19T10:18:31Z</time></trkpt><trkpt lat="44.39972874965287" lon="9.381269554833267"><ele>116.0</ele><time>2026-04-19T10:18:32Z</time></trkpt><trkpt lat="44.39993362460972" lon="9.381351278216766"><ele>115.0</ele><time>2026-04-19T10:18:33Z</time></trkpt><trkpt lat="44.400134536657134" lon="9.381437671694771"><ele>114.0</ele><time>2026-04-19T10:18:34Z</time></trkpt><trkpt lat="44.40033528210134" lon="9.381525216263277"><ele>117.66666666666666</ele><time>2026-04-19T10:18:35Z</time></trkpt><trkpt lat="44.400532696894835" lon="9.381606215974784"><ele>121.33333333333333</ele><time>2026-04-19T10:18:36Z</time></trkpt><trkpt lat="44.40073075495168" lon="9.38168860731352"><ele>125.0</ele><time>2026-04-19T10:18:37Z</time></trkpt><trkpt lat="44.40092714484171" lon="9.381763637951375"><ele>125.0</ele><time>2026-04-19T10:18:38Z</time></trkpt><trkpt lat="44.40112269298479" lon="9.381818624211101"><ele>125.0</ele><time>2026-04-19T10:18:39Z</time></trkpt><trkpt lat="44.40131190861608" lon="9.381747570590314"><ele>125.0</ele><time>2026-04-19T10:18:40Z</time></trkpt><trkpt lat="44.40148970662984" lon="9.38167411977623"><ele>127.33333333333333</ele><time>2026-04-19T10:18:41Z</time></trkpt><trkpt lat="44.40164398605071" lon="9.381778290611658"><ele>129.66666666666666</ele><time>2026-04-19T10:18:42Z</time></trkpt><trkpt lat="44.40183404873552" lon="9.381866162322792"><ele>132.0</ele><time>2026-04-19T10:18:43Z</time></trkpt><trkpt lat="44.40201396449329" lon="9.381932747435645"><ele>140.0</ele><time>2026-04-19T10:18:44Z</time></trkpt><trkpt lat="44.40220969478969" lon="9.381934836386765"><ele>148.0</ele><time>2026-04-19T10:18:45Z</time></trkpt><trkpt lat="44.402417896409915" lon="9.381995450152994"><ele>156.0</ele><time>2026-04-19T10:18:46Z</time></trkpt><trkpt lat="44.40261599799003" lon="9.382138513443941"><ele>155.66666666666666</ele><time>2026-04-19T10:18:47Z</time></trkpt><trkpt lat="44.402787219522935" lon="9.382359179302613"><ele>155.33333333333331</ele><time>2026-04-19T10:18:48Z</time></trkpt><trkpt lat="44.402942930072435" lon="9.382547887292487"><ele>155.0</ele><time>2026-04-19T10:18:49Z</time></trkpt><trkpt lat="44.40308872937114" lon="9.382722603833717"><ele>155.0</ele><time>2026-04-19T10:18:50Z</time></trkpt><trkpt lat="44.40321693834582" lon="9.382877096308277"><ele>155.0</ele><time>2026-04-19T10:18:51Z</time></trkpt><trkpt lat="44.40332968937036" lon="9.38302133931823"><ele>155.0</ele><time>2026-04-19T10:18:52Z</time></trkpt><trkpt lat="44.403417470333515" lon="9.383168804011751"><ele>148.0</ele><time>2026-04-19T10:18:53Z</time></trkpt><trkpt lat="44.40349138040185" lon="9.383328704143967"><ele>141.0</ele><time>2026-04-19T10:18:54Z</time></trkpt><trkpt lat="44.40355016247392" lon="9.383503856966913"><ele>134.0</ele><time>2026-04-19T10:18:55Z</time></trkpt><trkpt lat="44.40361874267038" lon="9.383698000191687"><ele>127.0</ele><time>2026-04-19T10:18:56Z</time></trkpt><trkpt lat="44.40368707419982" lon="9.383867087606072"><ele>124.0</ele><time>2026-04-19T10:18:57Z</time></trkpt><trkpt lat="44.40374810505517" lon="9.384037525867791"><ele>121.0</ele><time>2026-04-19T10:18:58Z</time></trkpt><trkpt lat="44.40382538494742" lon="9.38420240810988"><ele>118.0</ele><time>2026-04-19T10:18:59Z</time></trkpt><trkpt lat="44.40392890879897" lon="9.384351469069488"><ele>115.0</ele><time>2026-04-19T10:19:00Z</time></trkpt><trkpt lat="44.40405150524532" lon="9.384484112808288"><ele>116.75</ele><time>2026-04-19T10:19:01Z</time></trkpt><trkpt lat="44.404160101236336" lon="9.384597659520699"><ele>118.5</ele><time>2026-04-19T10:19:02Z</time></trkpt><trkpt lat="44.40424984138901" lon="9.38470052827039"><ele>120.25</ele><time>2026-04-19T10:19:03Z</time></trkpt><trkpt lat="44.40433430188852" lon="9.384788253070344"><ele>122.0</ele><time>2026-04-19T10:19:04Z</time></trkpt><trkpt lat="44.40443316300623" lon="9.38489081338101"><ele>122.0</ele><time>2026-04-19T10:19:05Z</time></trkpt><trkpt lat="44.40455935292413" lon="9.384993089937286"><ele>122.0</ele><time>2026-04-19T10:19:06Z</time></trkpt><trkpt lat="44.40472635386289" lon="9.385079963184136"><ele>122.0</ele><time>2026-04-19T10:19:07Z</time></trkpt><trkpt lat="44.40490430606278" lon="9.385191888799843"><ele>128.0</ele><time>2026-04-19T10:19:08Z</time></trkpt><trkpt lat="44.4050894208621" lon="9.385281166741194"><ele>134.0</ele><time>2026-04-19T10:19:09Z</time></trkpt><trkpt lat="44.40527714091023" lon="9.385371703119127"><ele>140.0</ele><time>2026-04-19T10:19:10Z</time></trkpt><trkpt lat="44.4054542083612" lon="9.3854570997841"><ele>133.66666666666666</ele><time>2026-04-19T10:19:11Z</time></trkpt><trkpt lat="44.405620165319306" lon="9.385538016392832"><ele>127.33333333333334</ele><time>2026-04-19T10:19:12Z</time></trkpt><trkpt lat="44.40576768283078" lon="9.385638512239076"><ele>121.0</ele><time>2026-04-19T10:19:13Z</time></trkpt><trkpt lat="44.40587508979561" lon="9.385804946248703"><ele>121.0</ele><time>2026-04-19T10:19:14Z</time></trkpt><trkpt lat="44.405974529285906" lon="9.386025185318015"><ele>121.0</ele><time>2026-04-19T10:19:15Z</time></trkpt><trkpt lat="44.40607163943698" lon="9.386256041071483"><ele>121.0</ele><time>2026-04-19T10:19:16Z</time></trkpt><trkpt lat="44.406152497701996" lon="9.386451667621383"><ele>121.33333333333334</ele><time>2026-04-19T10:19:17Z</time></trkpt><trkpt lat="44.40627439825407" lon="9.386591290750834"><ele>121.66666666666666</ele><time>2026-04-19T10:19:18Z</time></trkpt><trkpt lat="44.40643507829502" lon="9.386698810884193"><ele>122.0</ele><time>2026-04-19T10:19:19Z</time></trkpt><trkpt lat="44.40660848316269" lon="9.386749613840669"><ele>123.66666666666666</ele><time>2026-04-19T10:19:20Z</time></trkpt><trkpt lat="44.40678008384747" lon="9.386756017705798"><ele>125.33333333333334</ele><time>2026-04-19T10:19:21Z</time></trkpt><trkpt lat="44.40692950972719" lon="9.386761421075121"><ele>127.0</ele><time>2026-04-19T10:19:22Z</time></trkpt><trkpt lat="44.40707429697189" lon="9.386776892292426"><ele>127.66666666666667</ele><time>2026-04-19T10:19:23Z</time></trkpt><trkpt lat="44.407224870015135" lon="9.386815326967852"><ele>128.33333333333334</ele><time>2026-04-19T10:19:24Z</time></trkpt><trkpt lat="44.40736382244315" lon="9.386908507337026"><ele>129.0</ele><time>2026-04-19T10:19:25Z</time></trkpt><trkpt lat="44.40750503929549" lon="9.386996734313012"><ele>129.0</ele><time>2026-04-19T10:19:26Z</time></trkpt><trkpt lat="44.407650670923154" lon="9.38712646475392"><ele>129.0</ele><time>2026-04-19T10:19:27Z</time></trkpt><trkpt lat="44.407799055483665" lon="9.387287485808576"><ele>129.0</ele><time>2026-04-19T10:19:28Z</time></trkpt><trkpt lat="44.40796556540314" lon="9.387438173708711"><ele>132.66666666666666</ele><time>2026-04-19T10:19:29Z</time></trkpt><trkpt lat="44.40813340437598" lon="9.387593448274512"><ele>136.33333333333331</ele><time>2026-04-19T10:19:30Z</time></trkpt><trkpt lat="44.4083126564724" lon="9.3877428585953"><ele>140.0</ele><time>2026-04-19T10:19:31Z</time></trkpt><trkpt lat="44.408484011017926" lon="9.387915166525662"><ele>137.33333333333331</ele><time>2026-04-19T10:19:32Z</time></trkpt><trkpt lat="44.40864779991494" lon="9.388053966303529"><ele>134.66666666666666</ele><time>2026-04-19T10:19:33Z</time></trkpt><trkpt lat="44.408826944476324" lon="9.388137284778555"><ele>132.0</ele><time>2026-04-19T10:19:34Z</time></trkpt><trkpt lat="44.409028466757164" lon="9.388162114438966"><ele>132.0</ele><time>2026-04-19T10:19:35Z</time></trkpt><trkpt lat="44.40923484948621" lon="9.388148229477189"><ele>132.0</ele><time>2026-04-19T10:19:36Z</time></trkpt><trkpt lat="44.40943663959397" lon="9.388139827838636"><ele>132.0</ele><time>2026-04-19T10:19:37Z</time></trkpt><trkpt lat="44.409639787085695" lon="9.388173272319216"><ele>136.0</ele><time>2026-04-19T10:19:38Z</time></trkpt><trkpt lat="44.40984639228623" lon="9.388170825555788"><ele>140.0</ele><time>2026-04-19T10:19:39Z</time></trkpt><trkpt lat="44.410050171242446" lon="9.388204116067326"><ele>144.0</ele><time>2026-04-19T10:19:40Z</time></trkpt><trkpt lat="44.410228309838594" lon="9.388274969022385"><ele>144.0</ele><time>2026-04-19T10:19:41Z</time></trkpt><trkpt lat="44.41038763712519" lon="9.388300045357974"><ele>144.0</ele><time>2026-04-19T10:19:42Z</time></trkpt><trkpt lat="44.41052152224413" lon="9.388360992491595"><ele>144.0</ele><time>2026-04-19T10:19:43Z</time></trkpt><trkpt lat="44.41064116400465" lon="9.388412023636146"><ele>144.0</ele><time>2026-04-19T10:19:44Z</time></trkpt><trkpt lat="44.41076351060859" lon="9.388441253125949"><ele>145.5</ele><time>2026-04-19T10:19:45Z</time></trkpt><trkpt lat="44.41088933911637" lon="9.388461337218882"><ele>147.0</ele><time>2026-04-19T10:19:46Z</time></trkpt><trkpt lat="44.411012425627625" lon="9.388485419154847"><ele>148.5</ele><time>2026-04-19T10:19:47Z</time></trkpt><trkpt lat="44.41113496114203" lon="9.388504626844046"><ele>150.0</ele><time>2026-04-19T10:19:48Z</time></trkpt><trkpt lat="44.41125444124072" lon="9.388509535600594"><ele>150.0</ele><time>2026-04-19T10:19:49Z</time></trkpt><trkpt lat="44.41137559079127" lon="9.388510076152386"><ele>150.0</ele><time>2026-04-19T10:19:50Z</time></trkpt><trkpt lat="44.4114945834921" lon="9.388502039891568"><ele>150.0</ele><time>2026-04-19T10:19:51Z</time></trkpt><trkpt lat="44.4116204581169" lon="9.388478807035193"><ele>150.0</ele><time>2026-04-19T10:19:52Z</time></trkpt><trkpt lat="44.41174669070181" lon="9.388399554219315"><ele>150.0</ele><time>2026-04-19T10:19:53Z</time></trkpt><trkpt lat="44.4118543387658" lon="9.388290188816955"><ele>150.0</ele><time>2026-04-19T10:19:54Z</time></trkpt><trkpt lat="44.41194518732177" lon="9.388218535516334"><ele>150.0</ele><time>2026-04-19T10:19:55Z</time></trkpt><trkpt lat="44.41202518184667" lon="9.388136092822768"><ele>150.0</ele><time>2026-04-19T10:19:56Z</time></trkpt><trkpt lat="44.412109574132465" lon="9.388046486850953"><ele>150.0</ele><time>2026-04-19T10:19:57Z</time></trkpt><trkpt lat="44.41219431177722" lon="9.387961882302747"><ele>155.6</ele><time>2026-04-19T10:19:58Z</time></trkpt><trkpt lat="44.41227535008609" lon="9.387889560510505"><ele>161.2</ele><time>2026-04-19T10:19:59Z</time></trkpt><trkpt lat="44.41235211330092" lon="9.387816957828674"><ele>166.8</ele><time>2026-04-19T10:20:00Z</time></trkpt><trkpt lat="44.41242331560113" lon="9.387743373301042"><ele>172.4</ele><time>2026-04-19T10:20:01Z</time></trkpt><trkpt lat="44.41249731583775" lon="9.387662402849134"><ele>178.0</ele><time>2026-04-19T10:20:02Z</time></trkpt><trkpt lat="44.41258006582854" lon="9.38757899451935"><ele>178.0</ele><time>2026-04-19T10:20:03Z</time></trkpt><trkpt lat="44.412678106540355" lon="9.38753393202949"><ele>178.0</ele><time>2026-04-19T10:20:04Z</time></trkpt><trkpt lat="44.41276734009046" lon="9.387525340660492"><ele>178.0</ele><time>2026-04-19T10:20:05Z</time></trkpt><trkpt lat="44.412865008305" lon="9.38756190628123"><ele>178.0</ele><time>2026-04-19T10:20:06Z</time></trkpt><trkpt lat="44.41297356298418" lon="9.387596656670851"><ele>178.0</ele><time>2026-04-19T10:20:07Z</time></trkpt><trkpt lat="44.413068959495135" lon="9.387680198561922"><ele>178.75</ele><time>2026-04-19T10:20:08Z</time></trkpt><trkpt lat="44.41316431586951" lon="9.387772674304934"><ele>179.5</ele><time>2026-04-19T10:20:09Z</time></trkpt><trkpt lat="44.413266596428514" lon="9.387882557877594"><ele>180.25</ele><time>2026-04-19T10:20:10Z</time></trkpt><trkpt lat="44.41338943449485" lon="9.388032071325192"><ele>181.0</ele><time>2026-04-19T10:20:11Z</time></trkpt><trkpt lat="44.41354706736607" lon="9.38821890589672"><ele>172.0</ele><time>2026-04-19T10:20:12Z</time></trkpt><trkpt lat="44.41370417659793" lon="9.388377971418347"><ele>163.0</ele><time>2026-04-19T10:20:13Z</time></trkpt><trkpt lat="44.413845947160254" lon="9.388557746460364"><ele>154.0</ele><time>2026-04-19T10:20:14Z</time></trkpt><trkpt lat="44.41398125179103" lon="9.388740605951385"><ele>150.66666666666669</ele><time>2026-04-19T10:20:15Z</time></trkpt><trkpt lat="44.414109006048314" lon="9.38890999869735"><ele>147.33333333333334</ele><time>2026-04-19T10:20:16Z</time></trkpt><trkpt lat="44.41424231543615" lon="9.389057434881947"><ele>144.0</ele><time>2026-04-19T10:20:17Z</time></trkpt><trkpt lat="44.41438278450935" lon="9.389174711229847"><ele>144.0</ele><time>2026-04-19T10:20:18Z</time></trkpt><trkpt lat="44.41453992488944" lon="9.389235559760694"><ele>144.0</ele><time>2026-04-19T10:20:19Z</time></trkpt><trkpt lat="44.414704605636175" lon="9.38924323432905"><ele>144.0</ele><time>2026-04-19T10:20:20Z</time></trkpt><trkpt lat="44.41488458367072" lon="9.389250292222192"><ele>144.0</ele><time>2026-04-19T10:20:21Z</time></trkpt><trkpt lat="44.415068246141374" lon="9.389282185524308"><ele>144.0</ele><time>2026-04-19T10:20:22Z</time></trkpt><trkpt lat="44.41524777140143" lon="9.389325670421348"><ele>144.0</ele><time>2026-04-19T10:20:23Z</time></trkpt><trkpt lat="44.415422717186196" lon="9.389364478464124"><ele>144.66666666666666</ele><time>2026-04-19T10:20:24Z</time></trkpt><trkpt lat="44.41559394645207" lon="9.389398865451142"><ele>145.33333333333331</ele><time>2026-04-19T10:20:25Z</time></trkpt><trkpt lat="44.41575872854103" lon="9.38942999808239"><ele>146.0</ele><time>2026-04-19T10:20:26Z</time></trkpt><trkpt lat="44.415931179015054" lon="9.389459703807182"><ele>146.0</ele><time>2026-04-19T10:20:27Z</time></trkpt><trkpt lat="44.41609342279447" lon="9.389503842215333"><ele>146.0</ele><time>2026-04-19T10:20:28Z</time></trkpt><trkpt lat="44.41624653790235" lon="9.389579123776768"><ele>146.0</ele><time>2026-04-19T10:20:29Z</time></trkpt><trkpt lat="44.4163902129328" lon="9.389701240090734"><ele>149.33333333333331</ele><time>2026-04-19T10:20:30Z</time></trkpt><trkpt lat="44.41652387889393" lon="9.389840902626354"><ele>152.66666666666666</ele><time>2026-04-19T10:20:31Z</time></trkpt><trkpt lat="44.41666358028334" lon="9.389976634523173"><ele>156.0</ele><time>2026-04-19T10:20:32Z</time></trkpt><trkpt lat="44.41680880805953" lon="9.390110767949622"><ele>156.0</ele><time>2026-04-19T10:20:33Z</time></trkpt><trkpt lat="44.41695990671453" lon="9.390237370803648"><ele>156.0</ele><time>2026-04-19T10:20:34Z</time></trkpt><trkpt lat="44.41712744556082" lon="9.390332666734574"><ele>156.0</ele><time>2026-04-19T10:20:35Z</time></trkpt><trkpt lat="44.417306459456334" lon="9.39036302465809"><ele>153.33333333333334</ele><time>2026-04-19T10:20:36Z</time></trkpt><trkpt lat="44.41750709994849" lon="9.390327962255764"><ele>150.66666666666669</ele><time>2026-04-19T10:20:37Z</time></trkpt><trkpt lat="44.41769859116033" lon="9.390267303295639"><ele>148.0</ele><time>2026-04-19T10:20:38Z</time></trkpt><trkpt lat="44.41789953529481" lon="9.390221488718101"><ele>150.0</ele><time>2026-04-19T10:20:39Z</time></trkpt><trkpt lat="44.418104811089904" lon="9.390186946490672"><ele>152.0</ele><time>2026-04-19T10:20:40Z</time></trkpt><trkpt lat="44.418308094640814" lon="9.390154610861403"><ele>154.0</ele><time>2026-04-19T10:20:41Z</time></trkpt><trkpt lat="44.41851958667267" lon="9.390111464929392"><ele>154.0</ele><time>2026-04-19T10:20:42Z</time></trkpt><trkpt lat="44.41873791289807" lon="9.390061046011006"><ele>154.0</ele><time>2026-04-19T10:20:43Z</time></trkpt><trkpt lat="44.41894255842307" lon="9.389991655066902"><ele>154.0</ele><time>2026-04-19T10:20:44Z</time></trkpt><trkpt lat="44.41913666437667" lon="9.38993688918762"><ele>156.33333333333334</ele><time>2026-04-19T10:20:45Z</time></trkpt><trkpt lat="44.41931003899389" lon="9.38989020690869"><ele>158.66666666666666</ele><time>2026-04-19T10:20:46Z</time></trkpt><trkpt lat="44.419469468504445" lon="9.389849845661196"><ele>161.0</ele><time>2026-04-19T10:20:47Z</time></trkpt><trkpt lat="44.41962384503701" lon="9.389820891360634"><ele>162.25</ele><time>2026-04-19T10:20:48Z</time></trkpt><trkpt lat="44.419768599412016" lon="9.389815602942893"><ele>163.5</ele><time>2026-04-19T10:20:49Z</time></trkpt><trkpt lat="44.41989704245191" lon="9.389814874778715"><ele>164.75</ele><time>2026-04-19T10:20:50Z</time></trkpt><trkpt lat="44.42000751843393" lon="9.38979151411965"><ele>166.0</ele><time>2026-04-19T10:20:51Z</time></trkpt><trkpt lat="44.420093627351285" lon="9.389726228521226"><ele>163.60000000000002</ele><time>2026-04-19T10:20:52Z</time></trkpt><trkpt lat="44.42015460331995" lon="9.389632155971249"><ele>161.20000000000002</ele><time>2026-04-19T10:20:53Z</time></trkpt><trkpt lat="44.42019032258559" lon="9.38948964874051"><ele>158.8</ele><time>2026-04-19T10:20:54Z</time></trkpt><trkpt lat="44.42019966327607" lon="9.389327105357326"><ele>156.4</ele><time>2026-04-19T10:20:55Z</time></trkpt><trkpt lat="44.4201992407057" lon="9.389169142120283"><ele>154.0</ele><time>2026-04-19T10:20:56Z</time></trkpt><trkpt lat="44.42020144753982" lon="9.389005152457171"><ele>154.0</ele><time>2026-04-19T10:20:57Z</time></trkpt><trkpt lat="44.42021517768391" lon="9.388864788066186"><ele>154.0</ele><time>2026-04-19T10:20:58Z</time></trkpt><trkpt lat="44.42024926071937" lon="9.38873196576006"><ele>154.0</ele><time>2026-04-19T10:20:59Z</time></trkpt><trkpt lat="44.420294780885726" lon="9.388594879578843"><ele>154.0</ele><time>2026-04-19T10:21:00Z</time></trkpt><trkpt lat="44.42034297675617" lon="9.388458915139159"><ele>154.0</ele><time>2026-04-19T10:21:01Z</time></trkpt><trkpt lat="44.420422886462795" lon="9.388353550978612"><ele>155.75</ele><time>2026-04-19T10:21:02Z</time></trkpt><trkpt lat="44.4204979465665" lon="9.388224977093822"><ele>157.5</ele><time>2026-04-19T10:21:03Z</time></trkpt><trkpt lat="44.42056651816403" lon="9.3880964449601"><ele>159.25</ele><time>2026-04-19T10:21:04Z</time></trkpt><trkpt lat="44.420630950148976" lon="9.387974104145954"><ele>161.0</ele><time>2026-04-19T10:21:05Z</time></trkpt><trkpt lat="44.42069934745273" lon="9.387848460811794"><ele>161.0</ele><time>2026-04-19T10:21:06Z</time></trkpt><trkpt lat="44.42077063619485" lon="9.387728199940398"><ele>161.0</ele><time>2026-04-19T10:21:07Z</time></trkpt><trkpt lat="44.42083653435684" lon="9.387621385913333"><ele>161.0</ele><time>2026-04-19T10:21:08Z</time></trkpt><trkpt lat="44.420907612076256" lon="9.387553653193875"><ele>161.0</ele><time>2026-04-19T10:21:09Z</time></trkpt><trkpt lat="44.42098639556334" lon="9.387513228587613"><ele>161.0</ele><time>2026-04-19T10:21:10Z</time></trkpt><trkpt lat="44.421075709331355" lon="9.387514440221192"><ele>161.0</ele><time>2026-04-19T10:21:11Z</time></trkpt><trkpt lat="44.421162270887244" lon="9.387507650502922"><ele>161.0</ele><time>2026-04-19T10:21:12Z</time></trkpt><trkpt lat="44.42125840240948" lon="9.387484414028751"><ele>161.0</ele><time>2026-04-19T10:21:13Z</time></trkpt><trkpt lat="44.421359121850564" lon="9.387463814411845"><ele>161.0</ele><time>2026-04-19T10:21:14Z</time></trkpt><trkpt lat="44.42146296806146" lon="9.387446859302791"><ele>161.0</ele><time>2026-04-19T10:21:15Z</time></trkpt><trkpt lat="44.42156833647581" lon="9.387431778536403"><ele>162.0</ele><time>2026-04-19T10:21:16Z</time></trkpt><trkpt lat="44.42168313468214" lon="9.38738520423612"><ele>163.0</ele><time>2026-04-19T10:21:17Z</time></trkpt><trkpt lat="44.42181325372285" lon="9.387305940499227"><ele>164.0</ele><time>2026-04-19T10:21:18Z</time></trkpt><trkpt lat="44.421929973078655" lon="9.387289833345596"><ele>165.0</ele><time>2026-04-19T10:21:19Z</time></trkpt><trkpt lat="44.42202063601586" lon="9.387233709866642"><ele>165.4</ele><time>2026-04-19T10:21:20Z</time></trkpt><trkpt lat="44.422119006787014" lon="9.38717190512708"><ele>165.8</ele><time>2026-04-19T10:21:21Z</time></trkpt><trkpt lat="44.42222526116736" lon="9.387098963608128"><ele>166.2</ele><time>2026-04-19T10:21:22Z</time></trkpt><trkpt lat="44.422329855518655" lon="9.38708051620992"><ele>166.6</ele><time>2026-04-19T10:21:23Z</time></trkpt><trkpt lat="44.4224437488726" lon="9.387065944405201"><ele>167.0</ele><time>2026-04-19T10:21:24Z</time></trkpt><trkpt lat="44.42257231620961" lon="9.387023282409801"><ele>167.25</ele><time>2026-04-19T10:21:25Z</time></trkpt><trkpt lat="44.42268738493053" lon="9.386934657498033"><ele>167.5</ele><time>2026-04-19T10:21:26Z</time></trkpt><trkpt lat="44.42277422175566" lon="9.386792048413858"><ele>167.75</ele><time>2026-04-19T10:21:27Z</time></trkpt><trkpt lat="44.42285577380802" lon="9.386643511624607"><ele>168.0</ele><time>2026-04-19T10:21:28Z</time></trkpt><trkpt lat="44.42294314615361" lon="9.386506776884895"><ele>169.5</ele><time>2026-04-19T10:21:29Z</time></trkpt><trkpt lat="44.42303703853917" lon="9.386382648401833"><ele>171.0</ele><time>2026-04-19T10:21:30Z</time></trkpt><trkpt lat="44.42312717118978" lon="9.386249900708778"><ele>172.5</ele><time>2026-04-19T10:21:31Z</time></trkpt><trkpt lat="44.42321867902672" lon="9.386105060579789"><ele>174.0</ele><time>2026-04-19T10:21:32Z</time></trkpt><trkpt lat="44.42331550462534" lon="9.38595264307669"><ele>174.0</ele><time>2026-04-19T10:21:33Z</time></trkpt><trkpt lat="44.42341553637923" lon="9.385798217938675"><ele>174.0</ele><time>2026-04-19T10:21:34Z</time></trkpt><trkpt lat="44.42352370314176" lon="9.385642543971077"><ele>174.0</ele><time>2026-04-19T10:21:35Z</time></trkpt><trkpt lat="44.42363858799918" lon="9.385493674493306"><ele>173.33333333333334</ele><time>2026-04-19T10:21:36Z</time></trkpt><trkpt lat="44.4237666465531" lon="9.385331181995411"><ele>172.66666666666669</ele><time>2026-04-19T10:21:37Z</time></trkpt><trkpt lat="44.423893810515025" lon="9.385178211457326"><ele>172.0</ele><time>2026-04-19T10:21:38Z</time></trkpt><trkpt lat="44.42400095992294" lon="9.385015149826803"><ele>172.0</ele><time>2026-04-19T10:21:39Z</time></trkpt><trkpt lat="44.42410467744856" lon="9.384888320944707"><ele>172.0</ele><time>2026-04-19T10:21:40Z</time></trkpt><trkpt lat="44.424206528802856" lon="9.384763372632973"><ele>172.0</ele><time>2026-04-19T10:21:41Z</time></trkpt><trkpt lat="44.42429906447036" lon="9.384647678345914"><ele>172.0</ele><time>2026-04-19T10:21:42Z</time></trkpt><trkpt lat="44.42439742831545" lon="9.384580043549212"><ele>172.0</ele><time>2026-04-19T10:21:43Z</time></trkpt><trkpt lat="44.42446940730807" lon="9.384500181379261"><ele>172.0</ele><time>2026-04-19T10:21:44Z</time></trkpt><trkpt lat="44.424550476607195" lon="9.384456103371054"><ele>172.0</ele><time>2026-04-19T10:21:45Z</time></trkpt><trkpt lat="44.42464445662264" lon="9.384412191502214"><ele>172.0</ele><time>2026-04-19T10:21:46Z</time></trkpt><trkpt lat="44.42473901102788" lon="9.384366509745043"><ele>172.0</ele><time>2026-04-19T10:21:47Z</time></trkpt><trkpt lat="44.42483247840216" lon="9.384337738744735"><ele>175.5</ele><time>2026-04-19T10:21:49Z</time></trkpt><trkpt lat="44.42489785339437" lon="9.384346739762096"><ele>179.0</ele><time>2026-04-19T10:21:52Z</time></trkpt><trkpt lat="44.42495082975134" lon="9.384295162267508"><ele>182.5</ele><time>2026-04-19T10:22:49Z</time></trkpt><trkpt lat="44.42499113888532" lon="9.384199297990607"><ele>186.0</ele><time>2026-04-19T10:22:57Z</time></trkpt><trkpt lat="44.425090113765364" lon="9.384103724532379"><ele>189.49999999999997</ele><time>2026-04-19T10:22:59Z</time></trkpt><trkpt lat="44.425154662025044" lon="9.384045612090489"><ele>193.0</ele><time>2026-04-19T10:23:00Z</time></trkpt><trkpt lat="44.4252219249705" lon="9.383983522913908"><ele>193.0</ele><time>2026-04-19T10:23:01Z</time></trkpt><trkpt lat="44.42529480870969" lon="9.383885810306323"><ele>193.0</ele><time>2026-04-19T10:23:02Z</time></trkpt><trkpt lat="44.425393673191316" lon="9.383808058868548"><ele>193.0</ele><time>2026-04-19T10:23:03Z</time></trkpt><trkpt lat="44.42547166636921" lon="9.383675360107345"><ele>193.0</ele><time>2026-04-19T10:23:04Z</time></trkpt><trkpt lat="44.42552343835835" lon="9.383502947041968"><ele>195.33333333333331</ele><time>2026-04-19T10:23:05Z</time></trkpt><trkpt lat="44.425601734231236" lon="9.38333075335337"><ele>197.66666666666669</ele><time>2026-04-19T10:23:06Z</time></trkpt><trkpt lat="44.42567668642246" lon="9.38313897426631"><ele>200.0</ele><time>2026-04-19T10:23:07Z</time></trkpt><trkpt lat="44.42575533595574" lon="9.382935904826288"><ele>200.0</ele><time>2026-04-19T10:23:08Z</time></trkpt><trkpt lat="44.42582866417814" lon="9.382746996726393"><ele>200.0</ele><time>2026-04-19T10:23:09Z</time></trkpt><trkpt lat="44.42590077932276" lon="9.382562975283731"><ele>200.0</ele><time>2026-04-19T10:23:10Z</time></trkpt><trkpt lat="44.4259662994422" lon="9.382404197862941"><ele>200.0</ele><time>2026-04-19T10:23:11Z</time></trkpt><trkpt lat="44.42602801720654" lon="9.382262829260833"><ele>196.5</ele><time>2026-04-19T10:23:12Z</time></trkpt><trkpt lat="44.42613838911735" lon="9.38216633028745"><ele>193.0</ele><time>2026-04-19T10:23:13Z</time></trkpt><trkpt lat="44.426260199668896" lon="9.382063515114359"><ele>189.5</ele><time>2026-04-19T10:23:14Z</time></trkpt><trkpt lat="44.42636265442337" lon="9.38190530593579"><ele>186.0</ele><time>2026-04-19T10:23:15Z</time></trkpt><trkpt lat="44.42646754792494" lon="9.381729479949371"><ele>191.0</ele><time>2026-04-19T10:23:16Z</time></trkpt><trkpt lat="44.42658280603375" lon="9.381539983778678"><ele>196.0</ele><time>2026-04-19T10:23:17Z</time></trkpt><trkpt lat="44.42671837638089" lon="9.381356082047212"><ele>201.0</ele><time>2026-04-19T10:23:18Z</time></trkpt><trkpt lat="44.42686686590451" lon="9.381181074273437"><ele>201.0</ele><time>2026-04-19T10:23:19Z</time></trkpt><trkpt lat="44.427010053824596" lon="9.38103316463719"><ele>201.0</ele><time>2026-04-19T10:23:20Z</time></trkpt><trkpt lat="44.42714329977701" lon="9.380851782558798"><ele>201.0</ele><time>2026-04-19T10:23:21Z</time></trkpt><trkpt lat="44.42727652484259" lon="9.3806563794128"><ele>207.33333333333331</ele><time>2026-04-19T10:23:22Z</time></trkpt><trkpt lat="44.427391467513914" lon="9.380419249698807"><ele>213.66666666666666</ele><time>2026-04-19T10:23:23Z</time></trkpt><trkpt lat="44.427496301515056" lon="9.380155791160107"><ele>220.0</ele><time>2026-04-19T10:23:24Z</time></trkpt><trkpt lat="44.42760322018731" lon="9.379893562916696"><ele>216.33333333333331</ele><time>2026-04-19T10:23:25Z</time></trkpt><trkpt lat="44.427696479396445" lon="9.379663535233604"><ele>212.66666666666669</ele><time>2026-04-19T10:23:26Z</time></trkpt><trkpt lat="44.42776928012831" lon="9.379452189576467"><ele>209.0</ele><time>2026-04-19T10:23:27Z</time></trkpt><trkpt lat="44.427843860645694" lon="9.379280965166547"><ele>209.0</ele><time>2026-04-19T10:23:28Z</time></trkpt><trkpt lat="44.42791619918227" lon="9.379131658049992"><ele>209.0</ele><time>2026-04-19T10:23:29Z</time></trkpt><trkpt lat="44.42801478508175" lon="9.379019052592623"><ele>209.0</ele><time>2026-04-19T10:23:30Z</time></trkpt><trkpt lat="44.428128716720934" lon="9.378882020844916"><ele>209.0</ele><time>2026-04-19T10:23:31Z</time></trkpt><trkpt lat="44.42822347310772" lon="9.378704452059754"><ele>215.5</ele><time>2026-04-19T10:23:32Z</time></trkpt><trkpt lat="44.428279984494885" lon="9.37848922618078"><ele>222.0</ele><time>2026-04-19T10:23:33Z</time></trkpt><trkpt lat="44.42835754685496" lon="9.378313373610283"><ele>228.5</ele><time>2026-04-19T10:23:34Z</time></trkpt><trkpt lat="44.428440115381264" lon="9.378193071608859"><ele>235.0</ele><time>2026-04-19T10:23:35Z</time></trkpt><trkpt lat="44.428536123500734" lon="9.378087771943267"><ele>228.0</ele><time>2026-04-19T10:23:36Z</time></trkpt><trkpt lat="44.428636402927" lon="9.377983289494447"><ele>221.0</ele><time>2026-04-19T10:23:37Z</time></trkpt><trkpt lat="44.42872035373392" lon="9.377847801688734"><ele>214.0</ele><time>2026-04-19T10:23:38Z</time></trkpt><trkpt lat="44.42880786420378" lon="9.377703453148493"><ele>207.0</ele><time>2026-04-19T10:23:39Z</time></trkpt><trkpt lat="44.428889668178705" lon="9.37753157428985"><ele>219.25</ele><time>2026-04-19T10:23:40Z</time></trkpt><trkpt lat="44.42896283117545" lon="9.377354856915195"><ele>231.5</ele><time>2026-04-19T10:23:41Z</time></trkpt><trkpt lat="44.42901653112761" lon="9.377199531121192"><ele>243.75</ele><time>2026-04-19T10:23:42Z</time></trkpt><trkpt lat="44.42904925543467" lon="9.377039138596551"><ele>256.0</ele><time>2026-04-19T10:23:43Z</time></trkpt><trkpt lat="44.42906110196237" lon="9.376868814486597"><ele>256.0</ele><time>2026-04-19T10:23:44Z</time></trkpt><trkpt lat="44.42906194501741" lon="9.376703571999014"><ele>256.0</ele><time>2026-04-19T10:23:45Z</time></trkpt><trkpt lat="44.429074163390254" lon="9.376535553497442"><ele>256.0</ele><time>2026-04-19T10:23:46Z</time></trkpt><trkpt lat="44.42909174071738" lon="9.376364860904868"><ele>256.0</ele><time>2026-04-19T10:23:47Z</time></trkpt><trkpt lat="44.42910887596466" lon="9.376198796026411"><ele>252.60000000000002</ele><time>2026-04-19T10:23:48Z</time></trkpt><trkpt lat="44.42913137220035" lon="9.376029292794904"><ele>249.20000000000002</ele><time>2026-04-19T10:23:49Z</time></trkpt><trkpt lat="44.42917146993985" lon="9.375888083365275"><ele>245.79999999999998</ele><time>2026-04-19T10:23:50Z</time></trkpt><trkpt lat="44.42919583385231" lon="9.375763467297812"><ele>242.39999999999998</ele><time>2026-04-19T10:23:51Z</time></trkpt><trkpt lat="44.42922818009073" lon="9.375657652598235"><ele>239.0</ele><time>2026-04-19T10:23:52Z</time></trkpt><trkpt lat="44.42927944013201" lon="9.375569330720062"><ele>239.0</ele><time>2026-04-19T10:23:53Z</time></trkpt><trkpt lat="44.429352649439835" lon="9.375538022712785"><ele>238.99999999999997</ele><time>2026-04-19T10:23:54Z</time></trkpt><trkpt lat="44.42943206507934" lon="9.375551232873262"><ele>238.99999999999997</ele><time>2026-04-19T10:23:55Z</time></trkpt><trkpt lat="44.429531797272794" lon="9.37559999266624"><ele>239.0</ele><time>2026-04-19T10:23:56Z</time></trkpt><trkpt lat="44.429654637766" lon="9.375619300818864"><ele>239.0</ele><time>2026-04-19T10:23:57Z</time></trkpt><trkpt lat="44.42977722771216" lon="9.375645019915604"><ele>238.5</ele><time>2026-04-19T10:23:58Z</time></trkpt><trkpt lat="44.42990677417059" lon="9.375632234296445"><ele>238.0</ele><time>2026-04-19T10:23:59Z</time></trkpt><trkpt lat="44.430047825079605" lon="9.375571503395832"><ele>237.5</ele><time>2026-04-19T10:24:00Z</time></trkpt><trkpt lat="44.430132918322734" lon="9.375464841975987"><ele>237.0</ele><time>2026-04-19T10:24:01Z</time></trkpt><trkpt lat="44.430222348351" lon="9.37532719177095"><ele>237.0</ele><time>2026-04-19T10:24:02Z</time></trkpt><trkpt lat="44.43033443583957" lon="9.375179629971154"><ele>237.0</ele><time>2026-04-19T10:24:03Z</time></trkpt><trkpt lat="44.43044157513073" lon="9.375046546605654"><ele>237.0</ele><time>2026-04-19T10:24:04Z</time></trkpt><trkpt lat="44.43053560629953" lon="9.37492709681474"><ele>237.0</ele><time>2026-04-19T10:24:05Z</time></trkpt><trkpt lat="44.430604084410994" lon="9.374811352569958"><ele>245.5</ele><time>2026-04-19T10:24:06Z</time></trkpt><trkpt lat="44.430642038030044" lon="9.374671355347646"><ele>254.0</ele><time>2026-04-19T10:24:07Z</time></trkpt><trkpt lat="44.43066573173948" lon="9.374502407376145"><ele>262.5</ele><time>2026-04-19T10:24:08Z</time></trkpt><trkpt lat="44.43068260083813" lon="9.37430255305731"><ele>271.0</ele><time>2026-04-19T10:24:09Z</time></trkpt><trkpt lat="44.43074265426037" lon="9.374103577706066"><ele>271.0</ele><time>2026-04-19T10:24:10Z</time></trkpt><trkpt lat="44.43081423101624" lon="9.373894625446933"><ele>271.0</ele><time>2026-04-19T10:24:11Z</time></trkpt><trkpt lat="44.43087826027251" lon="9.373707139084415"><ele>271.0</ele><time>2026-04-19T10:24:12Z</time></trkpt><trkpt lat="44.43094173153524" lon="9.373521286735148"><ele>266.0</ele><time>2026-04-19T10:24:13Z</time></trkpt><trkpt lat="44.431007830353295" lon="9.37333715269197"><ele>261.0</ele><time>2026-04-19T10:24:14Z</time></trkpt><trkpt lat="44.43108725955767" lon="9.373167261841528"><ele>256.0</ele><time>2026-04-19T10:24:15Z</time></trkpt><trkpt lat="44.431172589093016" lon="9.372996516959336"><ele>251.0</ele><time>2026-04-19T10:24:16Z</time></trkpt><trkpt lat="44.43126465790451" lon="9.372800280471559"><ele>256.0</ele><time>2026-04-19T10:24:17Z</time></trkpt><trkpt lat="44.431362244949696" lon="9.372557502025296"><ele>261.0</ele><time>2026-04-19T10:24:18Z</time></trkpt><trkpt lat="44.431444811359185" lon="9.372323278190215"><ele>266.0</ele><time>2026-04-19T10:24:19Z</time></trkpt><trkpt lat="44.431513288194935" lon="9.372126534209782"><ele>266.0</ele><time>2026-04-19T10:24:20Z</time></trkpt><trkpt lat="44.43157005748964" lon="9.371963428167644"><ele>266.0</ele><time>2026-04-19T10:24:21Z</time></trkpt><trkpt lat="44.431619180072225" lon="9.371822291963527"><ele>266.0</ele><time>2026-04-19T10:24:22Z</time></trkpt><trkpt lat="44.431663400670814" lon="9.37169523967145"><ele>266.0</ele><time>2026-04-19T10:24:23Z</time></trkpt><trkpt lat="44.43171046581244" lon="9.371575340778195"><ele>266.0</ele><time>2026-04-19T10:24:24Z</time></trkpt><trkpt lat="44.4317724797566" lon="9.371469581892693"><ele>266.0</ele><time>2026-04-19T10:24:25Z</time></trkpt><trkpt lat="44.431846933035835" lon="9.371367985981406"><ele>266.0</ele><time>2026-04-19T10:24:26Z</time></trkpt><trkpt lat="44.431961740491445" lon="9.371365150398706"><ele>266.0</ele><time>2026-04-19T10:24:27Z</time></trkpt><trkpt lat="44.43207396993755" lon="9.371371598427583"><ele>266.0</ele><time>2026-04-19T10:24:28Z</time></trkpt><trkpt lat="44.432202146487924" lon="9.37138002453219"><ele>273.33333333333337</ele><time>2026-04-19T10:24:29Z</time></trkpt><trkpt lat="44.43235015487674" lon="9.371367606790681"><ele>280.6666666666667</ele><time>2026-04-19T10:24:30Z</time></trkpt><trkpt lat="44.432520343580805" lon="9.371380366144491"><ele>288.0</ele><time>2026-04-19T10:24:31Z</time></trkpt><trkpt lat="44.43269635544939" lon="9.371402935685952"><ele>288.0</ele><time>2026-04-19T10:24:32Z</time></trkpt><trkpt lat="44.43285769955569" lon="9.371425516363837"><ele>288.0</ele><time>2026-04-19T10:24:33Z</time></trkpt><trkpt lat="44.432996621932475" lon="9.37141050056121"><ele>288.0</ele><time>2026-04-19T10:24:34Z</time></trkpt><trkpt lat="44.43311064920245" lon="9.37133844416649"><ele>288.0</ele><time>2026-04-19T10:24:35Z</time></trkpt><trkpt lat="44.43321553949251" lon="9.37119298070662"><ele>285.3333333333333</ele><time>2026-04-19T10:24:36Z</time></trkpt><trkpt lat="44.433338897155295" lon="9.371057192617412"><ele>282.66666666666663</ele><time>2026-04-19T10:24:37Z</time></trkpt><trkpt lat="44.43346932363477" lon="9.370916300466927"><ele>280.0</ele><time>2026-04-19T10:24:38Z</time></trkpt><trkpt lat="44.43359537507504" lon="9.370779621239398"><ele>280.0</ele><time>2026-04-19T10:24:39Z</time></trkpt><trkpt lat="44.43369286380689" lon="9.37063654009697"><ele>280.0</ele><time>2026-04-19T10:24:40Z</time></trkpt><trkpt lat="44.43379241711465" lon="9.370539510810215"><ele>280.0</ele><time>2026-04-19T10:24:41Z</time></trkpt><trkpt lat="44.43387636167381" lon="9.37046649193131"><ele>280.0</ele><time>2026-04-19T10:24:42Z</time></trkpt><trkpt lat="44.43395505367841" lon="9.370437530749381"><ele>280.0</ele><time>2026-04-19T10:24:43Z</time></trkpt><trkpt lat="44.4340410499418" lon="9.370476461551407"><ele>284.75</ele><time>2026-04-19T10:24:44Z</time></trkpt><trkpt lat="44.43413081596066" lon="9.370548663813414"><ele>289.5</ele><time>2026-04-19T10:24:45Z</time></trkpt><trkpt lat="44.434251055434125" lon="9.37061108503702"><ele>294.25</ele><time>2026-04-19T10:24:46Z</time></trkpt><trkpt lat="44.434363042179925" lon="9.370694601259219"><ele>299.0</ele><time>2026-04-19T10:24:47Z</time></trkpt><trkpt lat="44.43444385021822" lon="9.370763690562645"><ele>299.0</ele><time>2026-04-19T10:24:48Z</time></trkpt><trkpt lat="44.434528315964364" lon="9.37081022772523"><ele>299.0</ele><time>2026-04-19T10:24:49Z</time></trkpt><trkpt lat="44.43459933833345" lon="9.370825836316838"><ele>299.0</ele><time>2026-04-19T10:24:50Z</time></trkpt><trkpt lat="44.434671464556935" lon="9.370840261376339"><ele>299.0</ele><time>2026-04-19T10:24:51Z</time></trkpt><trkpt lat="44.43474998542864" lon="9.37079220613437"><ele>299.0</ele><time>2026-04-19T10:24:52Z</time></trkpt><trkpt lat="44.43478374805674" lon="9.370691784974118"><ele>299.0</ele><time>2026-04-19T10:24:53Z</time></trkpt><trkpt lat="44.43479508128162" lon="9.370525527872507"><ele>301.0</ele><time>2026-04-19T10:24:54Z</time></trkpt><trkpt lat="44.434795447792816" lon="9.37033017817296"><ele>303.0</ele><time>2026-04-19T10:24:55Z</time></trkpt><trkpt lat="44.43479544779102" lon="9.37009977008217"><ele>305.0</ele><time>2026-04-19T10:24:56Z</time></trkpt><trkpt lat="44.43479787389745" lon="9.369855013924564"><ele>304.0</ele><time>2026-04-19T10:24:57Z</time></trkpt><trkpt lat="44.4348045487222" lon="9.369629796412688"><ele>303.0</ele><time>2026-04-19T10:24:58Z</time></trkpt><trkpt lat="44.434841464294905" lon="9.369419740854223"><ele>302.0</ele><time>2026-04-19T10:24:59Z</time></trkpt><trkpt lat="44.434923469428945" lon="9.369229373794186"><ele>302.0</ele><time>2026-04-19T10:25:00Z</time></trkpt><trkpt lat="44.43497137649307" lon="9.36902260857362"><ele>302.0</ele><time>2026-04-19T10:25:01Z</time></trkpt><trkpt lat="44.43504389260805" lon="9.368864732496572"><ele>302.0</ele><time>2026-04-19T10:25:02Z</time></trkpt><trkpt lat="44.43510387299356" lon="9.368728816910046"><ele>302.0</ele><time>2026-04-19T10:25:03Z</time></trkpt><trkpt lat="44.43517612143189" lon="9.36860607351712"><ele>303.75</ele><time>2026-04-19T10:25:04Z</time></trkpt><trkpt lat="44.4352650805966" lon="9.3684922907589"><ele>305.5</ele><time>2026-04-19T10:25:05Z</time></trkpt><trkpt lat="44.435368627173325" lon="9.368403620815728"><ele>307.25</ele><time>2026-04-19T10:25:06Z</time></trkpt><trkpt lat="44.43548282882791" lon="9.368328329105454"><ele>309.0</ele><time>2026-04-19T10:25:07Z</time></trkpt><trkpt lat="44.43560385539039" lon="9.368275613059005"><ele>309.0</ele><time>2026-04-19T10:25:08Z</time></trkpt><trkpt lat="44.43572490082309" lon="9.368212443964541"><ele>309.0</ele><time>2026-04-19T10:25:09Z</time></trkpt><trkpt lat="44.43584942125597" lon="9.368173520180058"><ele>309.0</ele><time>2026-04-19T10:25:10Z</time></trkpt><trkpt lat="44.4359650380527" lon="9.368129139667204"><ele>309.0</ele><time>2026-04-19T10:25:11Z</time></trkpt><trkpt lat="44.43606668796507" lon="9.368068189576912"><ele>310.0</ele><time>2026-04-19T10:25:12Z</time></trkpt><trkpt lat="44.43613846270787" lon="9.36797092318695"><ele>311.0</ele><time>2026-04-19T10:25:13Z</time></trkpt><trkpt lat="44.43618780879397" lon="9.367842803959505"><ele>312.0</ele><time>2026-04-19T10:25:14Z</time></trkpt><trkpt lat="44.43623435432328" lon="9.367717402109168"><ele>313.0</ele><time>2026-04-19T10:25:15Z</time></trkpt><trkpt lat="44.43630897805756" lon="9.367650165957398"><ele>314.0</ele><time>2026-04-19T10:25:16Z</time></trkpt><trkpt lat="44.436381144280205" lon="9.367582843717193"><ele>314.0</ele><time>2026-04-19T10:25:17Z</time></trkpt><trkpt lat="44.43651647586557" lon="9.367551750864694"><ele>314.0</ele><time>2026-04-19T10:25:18Z</time></trkpt><trkpt lat="44.43667183671849" lon="9.367483612359283"><ele>314.0</ele><time>2026-04-19T10:25:19Z</time></trkpt><trkpt lat="44.43685061955712" lon="9.367407749955733"><ele>314.0</ele><time>2026-04-19T10:25:20Z</time></trkpt><trkpt lat="44.437058854365326" lon="9.367334007928854"><ele>314.0</ele><time>2026-04-19T10:25:21Z</time></trkpt><trkpt lat="44.43723647886203" lon="9.367262281583857"><ele>314.0</ele><time>2026-04-19T10:25:22Z</time></trkpt><trkpt lat="44.437414075789164" lon="9.367173557591324"><ele>313.6666666666667</ele><time>2026-04-19T10:25:23Z</time></trkpt><trkpt lat="44.43762188382505" lon="9.36705390190553"><ele>313.3333333333333</ele><time>2026-04-19T10:25:24Z</time></trkpt><trkpt lat="44.437813176941475" lon="9.366899760774647"><ele>313.0</ele><time>2026-04-19T10:25:25Z</time></trkpt><trkpt lat="44.43800374949532" lon="9.366739680150525"><ele>318.0</ele><time>2026-04-19T10:25:26Z</time></trkpt><trkpt lat="44.43818072164958" lon="9.366598867291529"><ele>323.0</ele><time>2026-04-19T10:25:27Z</time></trkpt><trkpt lat="44.4383001528623" lon="9.366481430413828"><ele>328.0</ele><time>2026-04-19T10:25:28Z</time></trkpt><trkpt lat="44.43839806581072" lon="9.366395514044058"><ele>328.0</ele><time>2026-04-19T10:25:29Z</time></trkpt><trkpt lat="44.438481612556856" lon="9.36635311963566"><ele>328.0</ele><time>2026-04-19T10:25:30Z</time></trkpt><trkpt lat="44.43856213745212" lon="9.366373833624845"><ele>328.0</ele><time>2026-04-19T10:25:31Z</time></trkpt><trkpt lat="44.438669591675875" lon="9.366435257682005"><ele>328.0</ele><time>2026-04-19T10:25:32Z</time></trkpt><trkpt lat="44.43879803155104" lon="9.366479327133028"><ele>328.0</ele><time>2026-04-19T10:25:33Z</time></trkpt><trkpt lat="44.4389395835542" lon="9.36648467398176"><ele>325.0</ele><time>2026-04-19T10:25:34Z</time></trkpt><trkpt lat="44.43910103850533" lon="9.366440217499438"><ele>322.0</ele><time>2026-04-19T10:25:35Z</time></trkpt><trkpt lat="44.43926288121409" lon="9.366362541679987"><ele>319.0</ele><time>2026-04-19T10:25:36Z</time></trkpt><trkpt lat="44.43942369226003" lon="9.36624385333676"><ele>319.0</ele><time>2026-04-19T10:25:37Z</time></trkpt><trkpt lat="44.43956331948049" lon="9.366091998588733"><ele>319.0</ele><time>2026-04-19T10:25:38Z</time></trkpt><trkpt lat="44.4397171840628" lon="9.365941404347488"><ele>319.0</ele><time>2026-04-19T10:25:39Z</time></trkpt><trkpt lat="44.43987037580781" lon="9.365779283142295"><ele>318.66666666666663</ele><time>2026-04-19T10:25:40Z</time></trkpt><trkpt lat="44.44003654676357" lon="9.36562897390797"><ele>318.3333333333333</ele><time>2026-04-19T10:25:41Z</time></trkpt><trkpt lat="44.4401968260028" lon="9.365505043078148"><ele>318.0</ele><time>2026-04-19T10:25:42Z</time></trkpt><trkpt lat="44.44033578708113" lon="9.365412732282369"><ele>318.0</ele><time>2026-04-19T10:25:43Z</time></trkpt><trkpt lat="44.440440488943075" lon="9.365340339739152"><ele>318.0</ele><time>2026-04-19T10:25:44Z</time></trkpt><trkpt lat="44.44053857879333" lon="9.365310567408072"><ele>318.0</ele><time>2026-04-19T10:25:45Z</time></trkpt><trkpt lat="44.440643287277446" lon="9.365337156608309"><ele>318.0</ele><time>2026-04-19T10:25:46Z</time></trkpt><trkpt lat="44.440741841198346" lon="9.365415373482467"><ele>318.0</ele><time>2026-04-19T10:25:47Z</time></trkpt><trkpt lat="44.44086572278922" lon="9.365440001013859"><ele>324.25</ele><time>2026-04-19T10:25:48Z</time></trkpt><trkpt lat="44.44096410979084" lon="9.36537515165937"><ele>330.5</ele><time>2026-04-19T10:25:49Z</time></trkpt><trkpt lat="44.44104509623668" lon="9.365217328158256"><ele>336.75</ele><time>2026-04-19T10:25:50Z</time></trkpt><trkpt lat="44.44114285882894" lon="9.365037857724369"><ele>343.0</ele><time>2026-04-19T10:25:51Z</time></trkpt><trkpt lat="44.44122046642992" lon="9.36487495151065"><ele>343.0</ele><time>2026-04-19T10:25:52Z</time></trkpt><trkpt lat="44.44130951106814" lon="9.364688219401993"><ele>343.0</ele><time>2026-04-19T10:25:53Z</time></trkpt><trkpt lat="44.441405594445285" lon="9.364511724616976"><ele>343.0</ele><time>2026-04-19T10:25:54Z</time></trkpt><trkpt lat="44.44151751127734" lon="9.364382595800386"><ele>343.0</ele><time>2026-04-19T10:25:55Z</time></trkpt><trkpt lat="44.441643999338034" lon="9.364348175089013"><ele>343.0</ele><time>2026-04-19T10:25:56Z</time></trkpt><trkpt lat="44.44174677368888" lon="9.3642831227903"><ele>343.0</ele><time>2026-04-19T10:25:57Z</time></trkpt><trkpt lat="44.441821296946195" lon="9.364170796186091"><ele>343.0</ele><time>2026-04-19T10:25:58Z</time></trkpt><trkpt lat="44.441841567017306" lon="9.363992660235624"><ele>343.0</ele><time>2026-04-19T10:25:59Z</time></trkpt><trkpt lat="44.44191032993829" lon="9.363870906324841"><ele>343.0</ele><time>2026-04-19T10:26:00Z</time></trkpt><trkpt lat="44.44201399033937" lon="9.36379813211797"><ele>343.0</ele><time>2026-04-19T10:26:01Z</time></trkpt><trkpt lat="44.44214019779985" lon="9.363785082694786"><ele>343.0</ele><time>2026-04-19T10:26:02Z</time></trkpt><trkpt lat="44.44227326039342" lon="9.363843217866942"><ele>347.66666666666663</ele><time>2026-04-19T10:26:03Z</time></trkpt><trkpt lat="44.44242751225238" lon="9.363886694486943"><ele>352.3333333333333</ele><time>2026-04-19T10:26:04Z</time></trkpt><trkpt lat="44.4425989840886" lon="9.363927655161477"><ele>357.0</ele><time>2026-04-19T10:26:05Z</time></trkpt><trkpt lat="44.44278572231924" lon="9.363928830106897"><ele>359.0</ele><time>2026-04-19T10:26:06Z</time></trkpt><trkpt lat="44.442988931113035" lon="9.363914124316201"><ele>361.0</ele><time>2026-04-19T10:26:07Z</time></trkpt><trkpt lat="44.443167209034186" lon="9.36390714794452"><ele>363.0</ele><time>2026-04-19T10:26:08Z</time></trkpt><trkpt lat="44.4433014891645" lon="9.363897488437258"><ele>363.0</ele><time>2026-04-19T10:26:09Z</time></trkpt><trkpt lat="44.44341143795196" lon="9.363912305180689"><ele>363.0</ele><time>2026-04-19T10:26:10Z</time></trkpt><trkpt lat="44.443506618978375" lon="9.36397935219107"><ele>363.0</ele><time>2026-04-19T10:26:11Z</time></trkpt><trkpt lat="44.443602138778395" lon="9.364125291999624"><ele>363.0</ele><time>2026-04-19T10:26:12Z</time></trkpt><trkpt lat="44.44368917146468" lon="9.364266845371649"><ele>362.0</ele><time>2026-04-19T10:26:13Z</time></trkpt><trkpt lat="44.44379854612224" lon="9.364393714636382"><ele>361.0</ele><time>2026-04-19T10:26:14Z</time></trkpt><trkpt lat="44.4439304754616" lon="9.364465489987507"><ele>360.0</ele><time>2026-04-19T10:26:15Z</time></trkpt><trkpt lat="44.44407815390225" lon="9.364486411373656"><ele>359.0</ele><time>2026-04-19T10:26:15.999Z</time></trkpt><trkpt lat="44.44423938558882" lon="9.364463507061638"><ele>359.0</ele><time>2026-04-19T10:26:16.999Z</time></trkpt><trkpt lat="44.44436688838586" lon="9.364510545392093"><ele>359.0</ele><time>2026-04-19T10:26:17.999Z</time></trkpt><trkpt lat="44.4444691246233" lon="9.36458169054031"><ele>359.0</ele><time>2026-04-19T10:26:18.999Z</time></trkpt><trkpt lat="44.44457306848318" lon="9.36460228641085"><ele>359.0</ele><time>2026-04-19T10:26:19.999Z</time></trkpt><trkpt lat="44.44467352497912" lon="9.3645237805838"><ele>361.25</ele><time>2026-04-19T10:26:20.999Z</time></trkpt><trkpt lat="44.44476192249801" lon="9.364371084988855"><ele>363.5</ele><time>2026-04-19T10:26:21.999Z</time></trkpt><trkpt lat="44.44486406702673" lon="9.364248279178856"><ele>365.75</ele><time>2026-04-19T10:26:22.999Z</time></trkpt><trkpt lat="44.44498659585325" lon="9.364166400273982"><ele>368.0</ele><time>2026-04-19T10:26:23.999Z</time></trkpt><trkpt lat="44.4451459444935" lon="9.36412476716371"><ele>368.0</ele><time>2026-04-19T10:26:24.999Z</time></trkpt><trkpt lat="44.44529351987217" lon="9.364167614465824"><ele>368.0</ele><time>2026-04-19T10:26:25.999Z</time></trkpt><trkpt lat="44.445467766328996" lon="9.364221370060548"><ele>368.0</ele><time>2026-04-19T10:26:26.999Z</time></trkpt><trkpt lat="44.4456560689704" lon="9.36430120897361"><ele>366.6666666666667</ele><time>2026-04-19T10:26:27.999Z</time></trkpt><trkpt lat="44.445859106914575" lon="9.364342900771597"><ele>365.3333333333333</ele><time>2026-04-19T10:26:28.999Z</time></trkpt><trkpt lat="44.44609067157598" lon="9.364391677190973"><ele>364.0</ele><time>2026-04-19T10:26:29.999Z</time></trkpt><trkpt lat="44.44630526590996" lon="9.364438566523493"><ele>364.0</ele><time>2026-04-19T10:26:30.999Z</time></trkpt><trkpt lat="44.446523662865594" lon="9.364511576755822"><ele>364.0</ele><time>2026-04-19T10:26:31.999Z</time></trkpt><trkpt lat="44.446738167863664" lon="9.364583268763687"><ele>364.0</ele><time>2026-04-19T10:26:32.999Z</time></trkpt><trkpt lat="44.446933406320774" lon="9.364648706037594"><ele>374.3333333333333</ele><time>2026-04-19T10:26:33.999Z</time></trkpt><trkpt lat="44.447106089870765" lon="9.364720744597617"><ele>384.66666666666663</ele><time>2026-04-19T10:26:34.999Z</time></trkpt><trkpt lat="44.447262985924006" lon="9.36480551328801"><ele>395.0</ele><time>2026-04-19T10:26:35.999Z</time></trkpt><trkpt lat="44.44740801463487" lon="9.364879122092244"><ele>395.0</ele><time>2026-04-19T10:26:36.999Z</time></trkpt><trkpt lat="44.44755832952684" lon="9.364918146319267"><ele>395.0</ele><time>2026-04-19T10:26:37.999Z</time></trkpt><trkpt lat="44.44771192426942" lon="9.364904690809148"><ele>395.0</ele><time>2026-04-19T10:26:38.999Z</time></trkpt><trkpt lat="44.44786527190554" lon="9.364858457509685"><ele>394.5</ele><time>2026-04-19T10:26:39.999Z</time></trkpt><trkpt lat="44.448005061995495" lon="9.364850436914661"><ele>394.0</ele><time>2026-04-19T10:26:40.999Z</time></trkpt><trkpt lat="44.448134117780114" lon="9.364947134502819"><ele>393.5</ele><time>2026-04-19T10:26:42Z</time></trkpt><trkpt lat="44.44828180811609" lon="9.365031009064419"><ele>393.0</ele><time>2026-04-19T10:26:43Z</time></trkpt><trkpt lat="44.44843382631528" lon="9.365104568195084"><ele>393.0</ele><time>2026-04-19T10:26:44Z</time></trkpt><trkpt lat="44.44857843775378" lon="9.365119198279814"><ele>393.0</ele><time>2026-04-19T10:26:45Z</time></trkpt><trkpt lat="44.448693893619925" lon="9.365194719001156"><ele>393.0</ele><time>2026-04-19T10:26:46Z</time></trkpt><trkpt lat="44.44880363885487" lon="9.365257822369893"><ele>393.0</ele><time>2026-04-19T10:26:47Z</time></trkpt><trkpt lat="44.44890637299714" lon="9.36529016097602"><ele>395.0</ele><time>2026-04-19T10:26:48Z</time></trkpt><trkpt lat="44.44900730396266" lon="9.365256830181773"><ele>397.0</ele><time>2026-04-19T10:26:49Z</time></trkpt><trkpt lat="44.449097072312036" lon="9.365160170712945"><ele>399.0</ele><time>2026-04-19T10:26:50Z</time></trkpt><trkpt lat="44.449157182584464" lon="9.365017530519287"><ele>401.0</ele><time>2026-04-19T10:26:51Z</time></trkpt><trkpt lat="44.4491620352432" lon="9.364856518126794"><ele>401.0</ele><time>2026-04-19T10:26:52Z</time></trkpt><trkpt lat="44.449104553702696" lon="9.364717384215092"><ele>401.0</ele><time>2026-04-19T10:26:53Z</time></trkpt><trkpt lat="44.44900124540491" lon="9.36460815820193"><ele>401.0</ele><time>2026-04-19T10:26:54Z</time></trkpt><trkpt lat="44.44890468841553" lon="9.364511006074274"><ele>401.0</ele><time>2026-04-19T10:26:55Z</time></trkpt><trkpt lat="44.448882499799694" lon="9.364356713248968"><ele>399.0</ele><time>2026-04-19T10:26:56Z</time></trkpt><trkpt lat="44.44889592837947" lon="9.364206604453111"><ele>397.0</ele><time>2026-04-19T10:26:57Z</time></trkpt><trkpt lat="44.44894174649663" lon="9.364056374881827"><ele>395.0</ele><time>2026-04-19T10:26:58Z</time></trkpt><trkpt lat="44.449051740950445" lon="9.36395989354235"><ele>393.0</ele><time>2026-04-19T10:26:59Z</time></trkpt><trkpt lat="44.449191401356025" lon="9.363868489942403"><ele>391.33333333333337</ele><time>2026-04-19T10:27:00Z</time></trkpt><trkpt lat="44.449342725785925" lon="9.36379416440884"><ele>389.6666666666667</ele><time>2026-04-19T10:27:01Z</time></trkpt><trkpt lat="44.449512050941316" lon="9.363737476664161"><ele>388.0</ele><time>2026-04-19T10:27:02Z</time></trkpt><trkpt lat="44.44965582443785" lon="9.363739226754644"><ele>392.75</ele><time>2026-04-19T10:27:03Z</time></trkpt><trkpt lat="44.44976471030229" lon="9.363670099146796"><ele>397.5</ele><time>2026-04-19T10:27:04Z</time></trkpt><trkpt lat="44.449840544148984" lon="9.363523137377628"><ele>402.25</ele><time>2026-04-19T10:27:05Z</time></trkpt><trkpt lat="44.44989372230622" lon="9.363317520126284"><ele>407.0</ele><time>2026-04-19T10:27:06Z</time></trkpt><trkpt lat="44.44988504958265" lon="9.363097943029773"><ele>406.25</ele><time>2026-04-19T10:27:07Z</time></trkpt><trkpt lat="44.4498232087536" lon="9.362890113988763"><ele>405.5</ele><time>2026-04-19T10:27:08Z</time></trkpt><trkpt lat="44.44980754467259" lon="9.362699907752347"><ele>404.75</ele><time>2026-04-19T10:27:09Z</time></trkpt><trkpt lat="44.44981064747181" lon="9.362546758548884"><ele>404.0</ele><time>2026-04-19T10:27:10Z</time></trkpt><trkpt lat="44.44987083421932" lon="9.362406131906281"><ele>404.0</ele><time>2026-04-19T10:27:11Z</time></trkpt><trkpt lat="44.44998163852135" lon="9.362316615671977"><ele>404.0</ele><time>2026-04-19T10:27:12Z</time></trkpt><trkpt lat="44.45011953977754" lon="9.362295858709444"><ele>404.0</ele><time>2026-04-19T10:27:13Z</time></trkpt><trkpt lat="44.45028364982938" lon="9.36227117271617"><ele>404.0</ele><time>2026-04-19T10:27:14Z</time></trkpt><trkpt lat="44.450450271317514" lon="9.362248502944759"><ele>406.5</ele><time>2026-04-19T10:27:15Z</time></trkpt><trkpt lat="44.45058844437147" lon="9.362237155206467"><ele>409.0</ele><time>2026-04-19T10:27:16Z</time></trkpt><trkpt lat="44.450719912099174" lon="9.362200367345604"><ele>411.5</ele><time>2026-04-19T10:27:17Z</time></trkpt><trkpt lat="44.45078185558454" lon="9.362107811808785"><ele>414.0</ele><time>2026-04-19T10:27:18Z</time></trkpt><trkpt lat="44.450846691036794" lon="9.361958374800295"><ele>414.0</ele><time>2026-04-19T10:27:19Z</time></trkpt><trkpt lat="44.45085289945731" lon="9.361717948610877"><ele>414.0</ele><time>2026-04-19T10:27:20Z</time></trkpt><trkpt lat="44.450842386427446" lon="9.361518141002051"><ele>414.0</ele><time>2026-04-19T10:27:21Z</time></trkpt><trkpt lat="44.4508386316679" lon="9.361372410646114"><ele>414.0</ele><time>2026-04-19T10:27:22Z</time></trkpt><trkpt lat="44.45088767983823" lon="9.361230674239723"><ele>411.75</ele><time>2026-04-19T10:27:23Z</time></trkpt><trkpt lat="44.45097027228593" lon="9.361100624816935"><ele>409.5</ele><time>2026-04-19T10:27:24Z</time></trkpt><trkpt lat="44.45105568126686" lon="9.360931200225286"><ele>407.25</ele><time>2026-04-19T10:27:25Z</time></trkpt><trkpt lat="44.45114293862451" lon="9.360756631309133"><ele>405.0</ele><time>2026-04-19T10:27:26Z</time></trkpt><trkpt lat="44.451237170265976" lon="9.360579033939914"><ele>408.66666666666663</ele><time>2026-04-19T10:27:27Z</time></trkpt><trkpt lat="44.45135073329063" lon="9.360442165255122"><ele>412.3333333333333</ele><time>2026-04-19T10:27:28Z</time></trkpt><trkpt lat="44.451489536165326" lon="9.360327442716482"><ele>416.0</ele><time>2026-04-19T10:27:29Z</time></trkpt><trkpt lat="44.45163804025311" lon="9.36020049142001"><ele>416.0</ele><time>2026-04-19T10:27:30Z</time></trkpt><trkpt lat="44.45174919099483" lon="9.360113694918589"><ele>416.0</ele><time>2026-04-19T10:27:31Z</time></trkpt><trkpt lat="44.451847220379896" lon="9.360051537562981"><ele>416.0</ele><time>2026-04-19T10:27:32Z</time></trkpt><trkpt lat="44.45193900883454" lon="9.360067070245737"><ele>416.0</ele><time>2026-04-19T10:27:33Z</time></trkpt><trkpt lat="44.452014773234694" lon="9.360131081787879"><ele>416.0</ele><time>2026-04-19T10:27:34Z</time></trkpt><trkpt lat="44.452076392753675" lon="9.36026513361154"><ele>416.0</ele><time>2026-04-19T10:27:35Z</time></trkpt><trkpt lat="44.452166315853596" lon="9.360408806645088"><ele>416.0</ele><time>2026-04-19T10:27:36Z</time></trkpt><trkpt lat="44.45223064894403" lon="9.360585052757159"><ele>416.0</ele><time>2026-04-19T10:27:37Z</time></trkpt><trkpt lat="44.452326986384996" lon="9.360718117382074"><ele>416.0</ele><time>2026-04-19T10:27:38Z</time></trkpt><trkpt lat="44.4524504111662" lon="9.360771653957489"><ele>420.0</ele><time>2026-04-19T10:27:39Z</time></trkpt><trkpt lat="44.45258556181658" lon="9.360726604926597"><ele>424.0</ele><time>2026-04-19T10:27:40Z</time></trkpt><trkpt lat="44.452703636542175" lon="9.360646234954658"><ele>428.0</ele><time>2026-04-19T10:27:41Z</time></trkpt><trkpt lat="44.45280648981342" lon="9.360653638722185"><ele>432.0</ele><time>2026-04-19T10:27:42Z</time></trkpt><trkpt lat="44.45288515339393" lon="9.36077152955801"><ele>432.0</ele><time>2026-04-19T10:27:43Z</time></trkpt><trkpt lat="44.45289900508158" lon="9.360943458987546"><ele>432.0</ele><time>2026-04-19T10:27:44Z</time></trkpt><trkpt lat="44.45279547693655" lon="9.361077046693053"><ele>432.0</ele><time>2026-04-19T10:27:45Z</time></trkpt><trkpt lat="44.45269864000985" lon="9.36115995694009"><ele>432.0</ele><time>2026-04-19T10:27:46Z</time></trkpt><trkpt lat="44.4525806218584" lon="9.361111471974567"><ele>432.0</ele><time>2026-04-19T10:27:47Z</time></trkpt><trkpt lat="44.45245251212878" lon="9.361031269853099"><ele>432.0</ele><time>2026-04-19T10:27:48Z</time></trkpt><trkpt lat="44.452324888220865" lon="9.360913962046538"><ele>432.0</ele><time>2026-04-19T10:27:49Z</time></trkpt><trkpt lat="44.45219160180811" lon="9.36084674369121"><ele>432.0</ele><time>2026-04-19T10:27:50Z</time></trkpt><trkpt lat="44.45205374085971" lon="9.360822190022814"><ele>430.0</ele><time>2026-04-19T10:27:51Z</time></trkpt><trkpt lat="44.45190818002215" lon="9.360891228747173"><ele>428.0</ele><time>2026-04-19T10:27:52Z</time></trkpt><trkpt lat="44.451770640870336" lon="9.361017169285507"><ele>426.0</ele><time>2026-04-19T10:27:53Z</time></trkpt><trkpt lat="44.45164460632849" lon="9.361180249902564"><ele>429.0</ele><time>2026-04-19T10:27:54Z</time></trkpt><trkpt lat="44.45154398368205" lon="9.361386982397555"><ele>432.0</ele><time>2026-04-19T10:27:55Z</time></trkpt><trkpt lat="44.45147025983927" lon="9.361631192812336"><ele>435.0</ele><time>2026-04-19T10:27:56Z</time></trkpt><trkpt lat="44.45139534259237" lon="9.361823764897839"><ele>435.0</ele><time>2026-04-19T10:27:57Z</time></trkpt><trkpt lat="44.451296105211085" lon="9.361961360459233"><ele>435.0</ele><time>2026-04-19T10:27:58Z</time></trkpt><trkpt lat="44.451202001037586" lon="9.362074851994166"><ele>435.0</ele><time>2026-04-19T10:27:59Z</time></trkpt><trkpt lat="44.451145914995486" lon="9.362204336381216"><ele>435.0</ele><time>2026-04-19T10:28:00Z</time></trkpt><trkpt lat="44.45115061746204" lon="9.362348958435128"><ele>437.0</ele><time>2026-04-19T10:28:01Z</time></trkpt><trkpt lat="44.45123949131664" lon="9.362470212139224"><ele>439.0</ele><time>2026-04-19T10:28:02Z</time></trkpt><trkpt lat="44.45135530016807" lon="9.362549995464747"><ele>441.0</ele><time>2026-04-19T10:28:03Z</time></trkpt><trkpt lat="44.4515013889212" lon="9.362511140956736"><ele>443.0</ele><time>2026-04-19T10:28:04Z</time></trkpt><trkpt lat="44.451607721206216" lon="9.362352887669156"><ele>440.3333333333333</ele><time>2026-04-19T10:28:05Z</time></trkpt><trkpt lat="44.451663174874014" lon="9.362130566945961"><ele>437.66666666666663</ele><time>2026-04-19T10:28:06Z</time></trkpt><trkpt lat="44.45170270871543" lon="9.361910759459318"><ele>435.0</ele><time>2026-04-19T10:28:07Z</time></trkpt><trkpt lat="44.45178092643031" lon="9.36176399593044"><ele>435.0</ele><time>2026-04-19T10:28:08Z</time></trkpt><trkpt lat="44.45189538660652" lon="9.361664929947855"><ele>435.0</ele><time>2026-04-19T10:28:09Z</time></trkpt><trkpt lat="44.45202974553163" lon="9.361578652565779"><ele>435.0</ele><time>2026-04-19T10:28:10Z</time></trkpt><trkpt lat="44.45217159180862" lon="9.361481476200805"><ele>435.0</ele><time>2026-04-19T10:28:11Z</time></trkpt><trkpt lat="44.452300327340396" lon="9.361420397596364"><ele>438.5</ele><time>2026-04-19T10:28:12Z</time></trkpt><trkpt lat="44.45242040107363" lon="9.36140420547048"><ele>442.0</ele><time>2026-04-19T10:28:13Z</time></trkpt><trkpt lat="44.452543943459766" lon="9.361483250606629"><ele>445.5</ele><time>2026-04-19T10:28:14Z</time></trkpt><trkpt lat="44.45264703552952" lon="9.361567508598995"><ele>449.0</ele><time>2026-04-19T10:28:15Z</time></trkpt><trkpt lat="44.45276928424581" lon="9.36161031721961"><ele>449.0</ele><time>2026-04-19T10:28:16Z</time></trkpt><trkpt lat="44.45287907401666" lon="9.361639187441579"><ele>449.0</ele><time>2026-04-19T10:28:17Z</time></trkpt><trkpt lat="44.45297694164515" lon="9.36156714206263"><ele>449.0</ele><time>2026-04-19T10:28:18Z</time></trkpt><trkpt lat="44.453061766018415" lon="9.361414482261042"><ele>449.0</ele><time>2026-04-19T10:28:19Z</time></trkpt><trkpt lat="44.45315435187912" lon="9.361243205462294"><ele>450.2</ele><time>2026-04-19T10:28:20Z</time></trkpt><trkpt lat="44.453256101016436" lon="9.361187932954126"><ele>451.4</ele><time>2026-04-19T10:28:21Z</time></trkpt><trkpt lat="44.45337171376033" lon="9.361175940268593"><ele>452.6</ele><time>2026-04-19T10:28:21.999Z</time></trkpt><trkpt lat="44.453452594698" lon="9.361254378707383"><ele>453.8</ele><time>2026-04-19T10:28:22.999Z</time></trkpt><trkpt lat="44.45350197038774" lon="9.36139089199648"><ele>455.0</ele><time>2026-04-19T10:28:23.999Z</time></trkpt><trkpt lat="44.45356291278732" lon="9.361560548320844"><ele>455.0</ele><time>2026-04-19T10:28:24.999Z</time></trkpt><trkpt lat="44.4536527357258" lon="9.361730092167672"><ele>455.0</ele><time>2026-04-19T10:28:25.999Z</time></trkpt><trkpt lat="44.453760394085734" lon="9.361892231856244"><ele>455.0</ele><time>2026-04-19T10:28:26.999Z</time></trkpt><trkpt lat="44.45389827950549" lon="9.36204104939515"><ele>454.0</ele><time>2026-04-19T10:28:27.999Z</time></trkpt><trkpt lat="44.45408012822013" lon="9.362167060842685"><ele>453.0</ele><time>2026-04-19T10:28:28.999Z</time></trkpt><trkpt lat="44.454268717726166" lon="9.362306352808247"><ele>452.0</ele><time>2026-04-19T10:28:29.999Z</time></trkpt><trkpt lat="44.4544870738842" lon="9.362388781046599"><ele>455.3333333333333</ele><time>2026-04-19T10:28:30.999Z</time></trkpt><trkpt lat="44.45471159901972" lon="9.36242841865403"><ele>458.66666666666663</ele><time>2026-04-19T10:28:31.999Z</time></trkpt><trkpt lat="44.45490149545228" lon="9.362441074402753"><ele>462.0</ele><time>2026-04-19T10:28:32.999Z</time></trkpt><trkpt lat="44.45507579990257" lon="9.362462168697371"><ele>462.0</ele><time>2026-04-19T10:28:33.999Z</time></trkpt><trkpt lat="44.455222760016696" lon="9.362550290600646"><ele>462.0</ele><time>2026-04-19T10:28:34.999Z</time></trkpt><trkpt lat="44.45532676002077" lon="9.362681365086068"><ele>462.0</ele><time>2026-04-19T10:28:35.999Z</time></trkpt><trkpt lat="44.45539557792131" lon="9.362853823407741"><ele>462.0</ele><time>2026-04-19T10:28:37Z</time></trkpt><trkpt lat="44.45548337966342" lon="9.363065205546311"><ele>462.66666666666663</ele><time>2026-04-19T10:28:38Z</time></trkpt><trkpt lat="44.455579460932086" lon="9.36329708077595"><ele>463.3333333333333</ele><time>2026-04-19T10:28:39Z</time></trkpt><trkpt lat="44.45568507206676" lon="9.363552253046251"><ele>464.0</ele><time>2026-04-19T10:28:40Z</time></trkpt><trkpt lat="44.45579113650582" lon="9.363805160667454"><ele>466.25</ele><time>2026-04-19T10:28:41Z</time></trkpt><trkpt lat="44.45588220280327" lon="9.363994111402318"><ele>468.5</ele><time>2026-04-19T10:28:42Z</time></trkpt><trkpt lat="44.455916082419996" lon="9.36415444730681"><ele>470.75</ele><time>2026-04-19T10:28:43Z</time></trkpt><trkpt lat="44.45592250918102" lon="9.364283001108742"><ele>473.0</ele><time>2026-04-19T10:28:44Z</time></trkpt><trkpt lat="44.45587012141578" lon="9.364390379823861"><ele>473.0</ele><time>2026-04-19T10:28:45Z</time></trkpt><trkpt lat="44.45578573973425" lon="9.364431074285864"><ele>472.99999999999994</ele><time>2026-04-19T10:28:46Z</time></trkpt><trkpt lat="44.45569655668574" lon="9.364422126805845"><ele>472.99999999999994</ele><time>2026-04-19T10:28:47Z</time></trkpt><trkpt lat="44.455605869288746" lon="9.364344637007033"><ele>473.0</ele><time>2026-04-19T10:28:48Z</time></trkpt><trkpt lat="44.45555975319733" lon="9.364257765378117"><ele>473.0</ele><time>2026-04-19T10:28:49Z</time></trkpt><trkpt lat="44.45551861762758" lon="9.363975716809557"><ele>474.0</ele><time>2026-04-19T10:28:50Z</time></trkpt><trkpt lat="44.45546000718391" lon="9.363800509198192"><ele>475.0</ele><time>2026-04-19T10:28:51Z</time></trkpt><trkpt lat="44.455411394056426" lon="9.363584648420805"><ele>476.0</ele><time>2026-04-19T10:28:52Z</time></trkpt><trkpt lat="44.45535822488422" lon="9.36335715832933"><ele>476.0</ele><time>2026-04-19T10:28:53Z</time></trkpt><trkpt lat="44.45528855458711" lon="9.363172527641124"><ele>476.0</ele><time>2026-04-19T10:28:54Z</time></trkpt><trkpt lat="44.45520568454652" lon="9.363029984760031"><ele>476.0</ele><time>2026-04-19T10:28:55Z</time></trkpt><trkpt lat="44.45512797708913" lon="9.362924371326553"><ele>476.0</ele><time>2026-04-19T10:28:56Z</time></trkpt><trkpt lat="44.45505926385143" lon="9.36288985254097"><ele>476.0</ele><time>2026-04-19T10:28:57Z</time></trkpt><trkpt lat="44.45494659751426" lon="9.362882403187953"><ele>476.0</ele><time>2026-04-19T10:28:58Z</time></trkpt><trkpt lat="44.45485698366247" lon="9.362957407621954"><ele>476.0</ele><time>2026-04-19T10:28:59Z</time></trkpt><trkpt lat="44.45478405815043" lon="9.36311175055704"><ele>476.0</ele><time>2026-04-19T10:29:00Z</time></trkpt><trkpt lat="44.45469596572564" lon="9.363316924009466"><ele>475.20000000000005</ele><time>2026-04-19T10:29:01Z</time></trkpt><trkpt lat="44.454599996831426" lon="9.363467760737926"><ele>474.40000000000003</ele><time>2026-04-19T10:29:02Z</time></trkpt><trkpt lat="44.45451455323545" lon="9.36359178547862"><ele>473.6</ele><time>2026-04-19T10:29:03Z</time></trkpt><trkpt lat="44.454470230055584" lon="9.363692919100975"><ele>472.8</ele><time>2026-04-19T10:29:04Z</time></trkpt><trkpt lat="44.454417399391055" lon="9.363769765104141"><ele>472.0</ele><time>2026-04-19T10:29:05Z</time></trkpt><trkpt lat="44.45433986143782" lon="9.363866027685914"><ele>474.75</ele><time>2026-04-19T10:29:06Z</time></trkpt><trkpt lat="44.45427896463597" lon="9.36397071546038"><ele>477.5</ele><time>2026-04-19T10:29:07Z</time></trkpt><trkpt lat="44.454217086846775" lon="9.364097600749805"><ele>480.25</ele><time>2026-04-19T10:29:08Z</time></trkpt><trkpt lat="44.45414741753846" lon="9.364248764800287"><ele>483.0</ele><time>2026-04-19T10:29:09Z</time></trkpt><trkpt lat="44.45413262933421" lon="9.364414209799083"><ele>483.0</ele><time>2026-04-19T10:29:10Z</time></trkpt><trkpt lat="44.454127644855284" lon="9.364601373366085"><ele>483.0</ele><time>2026-04-19T10:29:11Z</time></trkpt><trkpt lat="44.454145952308416" lon="9.364782317061945"><ele>483.0</ele><time>2026-04-19T10:29:12Z</time></trkpt><trkpt lat="44.45413306944057" lon="9.364927494376321"><ele>483.0</ele><time>2026-04-19T10:29:13Z</time></trkpt><trkpt lat="44.4541122223354" lon="9.365039200951216"><ele>483.0</ele><time>2026-04-19T10:29:14Z</time></trkpt><trkpt lat="44.454077067187725" lon="9.365149308084897"><ele>482.99999999999994</ele><time>2026-04-19T10:29:15Z</time></trkpt><trkpt lat="44.453990706336434" lon="9.365199598452397"><ele>482.99999999999994</ele><time>2026-04-19T10:29:16Z</time></trkpt><trkpt lat="44.453900110558386" lon="9.365213246523032"><ele>483.0</ele><time>2026-04-19T10:29:17Z</time></trkpt><trkpt lat="44.45380382435536" lon="9.365218419134365"><ele>483.0</ele><time>2026-04-19T10:29:18Z</time></trkpt><trkpt lat="44.45369281809898" lon="9.365227993368489"><ele>483.0</ele><time>2026-04-19T10:29:19Z</time></trkpt><trkpt lat="44.453585228636335" lon="9.365261125339519"><ele>482.99999999999994</ele><time>2026-04-19T10:29:20Z</time></trkpt><trkpt lat="44.45350195783496" lon="9.365286927973157"><ele>482.99999999999994</ele><time>2026-04-19T10:29:21Z</time></trkpt><trkpt lat="44.45343806414141" lon="9.36535744829936"><ele>483.0</ele><time>2026-04-19T10:29:22Z</time></trkpt><trkpt lat="44.4534137564807" lon="9.365490403620097"><ele>483.0</ele><time>2026-04-19T10:29:23Z</time></trkpt><trkpt lat="44.453434896980596" lon="9.365642587576676"><ele>484.0</ele><time>2026-04-19T10:29:24Z</time></trkpt><trkpt lat="44.453482616782175" lon="9.365782094966152"><ele>485.0</ele><time>2026-04-19T10:29:25Z</time></trkpt><trkpt lat="44.45353224372702" lon="9.36587946413952"><ele>486.0</ele><time>2026-04-19T10:29:26Z</time></trkpt><trkpt lat="44.45358365016885" lon="9.36595464297991"><ele>487.0</ele><time>2026-04-19T10:29:27Z</time></trkpt><trkpt lat="44.45363368938411" lon="9.366016366643807"><ele>488.0</ele><time>2026-04-19T10:29:28Z</time></trkpt><trkpt lat="44.453691936830396" lon="9.36607760691204"><ele>489.0</ele><time>2026-04-19T10:29:29Z</time></trkpt><trkpt lat="44.45378072985481" lon="9.366120360350436"><ele>492.0</ele><time>2026-04-19T10:29:30Z</time></trkpt><trkpt lat="44.45389077714417" lon="9.366100690811649"><ele>495.0</ele><time>2026-04-19T10:29:31Z</time></trkpt><trkpt lat="44.45400738760954" lon="9.36599415349361"><ele>498.0</ele><time>2026-04-19T10:29:32Z</time></trkpt><trkpt lat="44.454104566629034" lon="9.365842299872627"><ele>501.0</ele><time>2026-04-19T10:29:33Z</time></trkpt><trkpt lat="44.45421647589519" lon="9.365669049177932"><ele>499.75</ele><time>2026-04-19T10:29:34Z</time></trkpt><trkpt lat="44.45433836631027" lon="9.365493589735117"><ele>498.5</ele><time>2026-04-19T10:29:35Z</time></trkpt><trkpt lat="44.45443440536909" lon="9.365343205441535"><ele>497.25</ele><time>2026-04-19T10:29:36Z</time></trkpt><trkpt lat="44.45448338439246" lon="9.365187760819559"><ele>496.0</ele><time>2026-04-19T10:29:37Z</time></trkpt><trkpt lat="44.45450434878165" lon="9.36501841186167"><ele>496.0</ele><time>2026-04-19T10:29:38Z</time></trkpt><trkpt lat="44.454543167382454" lon="9.364888670851172"><ele>496.0</ele><time>2026-04-19T10:29:39Z</time></trkpt><trkpt lat="44.4546395034287" lon="9.36485832823918"><ele>496.0</ele><time>2026-04-19T10:29:40Z</time></trkpt><trkpt lat="44.454735412330166" lon="9.36490373794217"><ele>496.0</ele><time>2026-04-19T10:29:41Z</time></trkpt><trkpt lat="44.4548409767143" lon="9.364971423936938"><ele>496.0</ele><time>2026-04-19T10:29:42Z</time></trkpt><trkpt lat="44.45495202606702" lon="9.365077405911663"><ele>498.6666666666667</ele><time>2026-04-19T10:29:43Z</time></trkpt><trkpt lat="44.45503400198547" lon="9.365229922615839"><ele>501.33333333333337</ele><time>2026-04-19T10:29:44Z</time></trkpt><trkpt lat="44.45513193464004" lon="9.365407442696506"><ele>504.0</ele><time>2026-04-19T10:29:45Z</time></trkpt><trkpt lat="44.4552316111981" lon="9.36559078056265"><ele>502.66666666666663</ele><time>2026-04-19T10:29:46Z</time></trkpt><trkpt lat="44.45535794363022" lon="9.365779412367255"><ele>501.3333333333333</ele><time>2026-04-19T10:29:47Z</time></trkpt><trkpt lat="44.45547126963242" lon="9.366001966209843"><ele>500.0</ele><time>2026-04-19T10:29:48Z</time></trkpt><trkpt lat="44.45559879476944" lon="9.366222619810031"><ele>505.66666666666663</ele><time>2026-04-19T10:29:49Z</time></trkpt><trkpt lat="44.455721833838794" lon="9.366430523990047"><ele>511.33333333333337</ele><time>2026-04-19T10:29:50Z</time></trkpt><trkpt lat="44.4557975124865" lon="9.366631579849088"><ele>517.0</ele><time>2026-04-19T10:29:51Z</time></trkpt><trkpt lat="44.45585358987324" lon="9.366830141569656"><ele>517.0</ele><time>2026-04-19T10:29:52Z</time></trkpt><trkpt lat="44.45590844903353" lon="9.367053743290983"><ele>517.0</ele><time>2026-04-19T10:29:53Z</time></trkpt><trkpt lat="44.45595889621776" lon="9.367293143091695"><ele>517.0</ele><time>2026-04-19T10:29:54Z</time></trkpt><trkpt lat="44.45601839708704" lon="9.367499400920444"><ele>516.25</ele><time>2026-04-19T10:29:55Z</time></trkpt><trkpt lat="44.45608523710166" lon="9.36766168956597"><ele>515.5</ele><time>2026-04-19T10:29:56Z</time></trkpt><trkpt lat="44.456201659180714" lon="9.367751692757743"><ele>514.75</ele><time>2026-04-19T10:29:57Z</time></trkpt><trkpt lat="44.456345898042166" lon="9.367785688986656"><ele>514.0</ele><time>2026-04-19T10:29:58Z</time></trkpt><trkpt lat="44.45650485602413" lon="9.367758120793107"><ele>514.0</ele><time>2026-04-19T10:29:59Z</time></trkpt><trkpt lat="44.4566449808021" lon="9.367677401069493"><ele>514.0</ele><time>2026-04-19T10:30:00Z</time></trkpt><trkpt lat="44.45675021943948" lon="9.367620387501418"><ele>514.0</ele><time>2026-04-19T10:30:01Z</time></trkpt><trkpt lat="44.45686827462739" lon="9.367609330369833"><ele>514.0</ele><time>2026-04-19T10:30:02Z</time></trkpt><trkpt lat="44.45695907910668" lon="9.367668653424515"><ele>514.0</ele><time>2026-04-19T10:30:03Z</time></trkpt><trkpt lat="44.457071562529634" lon="9.367790825726948"><ele>514.0</ele><time>2026-04-19T10:30:04Z</time></trkpt><trkpt lat="44.45719575628646" lon="9.367903808403376"><ele>514.0</ele><time>2026-04-19T10:30:05Z</time></trkpt><trkpt lat="44.45732413032186" lon="9.367997997276401"><ele>514.0</ele><time>2026-04-19T10:30:06Z</time></trkpt><trkpt lat="44.45745355286647" lon="9.368033981769821"><ele>514.6</ele><time>2026-04-19T10:30:07Z</time></trkpt><trkpt lat="44.45758090485244" lon="9.367972909397174"><ele>515.2</ele><time>2026-04-19T10:30:08Z</time></trkpt><trkpt lat="44.457690541493754" lon="9.367899691294665"><ele>515.8000000000001</ele><time>2026-04-19T10:30:09Z</time></trkpt><trkpt lat="44.45777306088612" lon="9.367951817537637"><ele>516.4</ele><time>2026-04-19T10:30:10Z</time></trkpt><trkpt lat="44.457835992476944" lon="9.36803766356121"><ele>517.0</ele><time>2026-04-19T10:30:11Z</time></trkpt><trkpt lat="44.457941232262705" lon="9.36818435950705"><ele>524.3333333333334</ele><time>2026-04-19T10:30:12Z</time></trkpt><trkpt lat="44.45808616393778" lon="9.368275140332642"><ele>531.6666666666666</ele><time>2026-04-19T10:30:13Z</time></trkpt><trkpt lat="44.45825837817416" lon="9.368264721852105"><ele>539.0</ele><time>2026-04-19T10:30:14Z</time></trkpt><trkpt lat="44.458402245949955" lon="9.368257342738321"><ele>539.0</ele><time>2026-04-19T10:30:15Z</time></trkpt><trkpt lat="44.45851420822933" lon="9.368297868394446"><ele>539.0</ele><time>2026-04-19T10:30:16Z</time></trkpt><trkpt lat="44.45868044436517" lon="9.368461991116167"><ele>539.0</ele><time>2026-04-19T10:30:17Z</time></trkpt><trkpt lat="44.4588249594885" lon="9.368597747114823"><ele>540.75</ele><time>2026-04-19T10:30:18Z</time></trkpt><trkpt lat="44.45896164458023" lon="9.368710192174591"><ele>542.5</ele><time>2026-04-19T10:30:19Z</time></trkpt><trkpt lat="44.45907436072237" lon="9.368824920765416"><ele>544.25</ele><time>2026-04-19T10:30:20Z</time></trkpt><trkpt lat="44.45914080792081" lon="9.36883992616465"><ele>546.0</ele><time>2026-04-19T10:30:21Z</time></trkpt><trkpt lat="44.459249072369396" lon="9.368766216153164"><ele>546.0</ele><time>2026-04-19T10:30:22Z</time></trkpt><trkpt lat="44.459324501928144" lon="9.368610704360286"><ele>546.0</ele><time>2026-04-19T10:30:23Z</time></trkpt><trkpt lat="44.45935186037746" lon="9.368404936406158"><ele>546.0</ele><time>2026-04-19T10:30:24Z</time></trkpt><trkpt lat="44.459329157720134" lon="9.368246183775453"><ele>546.0</ele><time>2026-04-19T10:30:25Z</time></trkpt><trkpt lat="44.459272547571054" lon="9.368040421601481"><ele>547.0</ele><time>2026-04-19T10:30:26Z</time></trkpt><trkpt lat="44.45920488814" lon="9.367798781791322"><ele>548.0</ele><time>2026-04-19T10:30:27Z</time></trkpt><trkpt lat="44.459123943584586" lon="9.367507001956886"><ele>549.0</ele><time>2026-04-19T10:30:28Z</time></trkpt><trkpt lat="44.45909441922222" lon="9.36725644980769"><ele>549.6666666666666</ele><time>2026-04-19T10:30:29Z</time></trkpt><trkpt lat="44.45909976613922" lon="9.366970491134076"><ele>550.3333333333333</ele><time>2026-04-19T10:30:30Z</time></trkpt><trkpt lat="44.45910196453742" lon="9.366718588415813"><ele>551.0</ele><time>2026-04-19T10:30:31Z</time></trkpt><trkpt lat="44.459071543560164" lon="9.366477486758653"><ele>550.0</ele><time>2026-04-19T10:30:32Z</time></trkpt><trkpt lat="44.459010920552785" lon="9.366244583726807"><ele>549.0</ele><time>2026-04-19T10:30:33Z</time></trkpt><trkpt lat="44.45893353211882" lon="9.366033844423244"><ele>548.0</ele><time>2026-04-19T10:30:34Z</time></trkpt><trkpt lat="44.45885458870775" lon="9.36587818662429"><ele>548.0</ele><time>2026-04-19T10:30:35Z</time></trkpt><trkpt lat="44.45879267337757" lon="9.365775615836471"><ele>548.0</ele><time>2026-04-19T10:30:36Z</time></trkpt><trkpt lat="44.45876669389938" lon="9.365652747746049"><ele>548.0</ele><time>2026-04-19T10:30:37Z</time></trkpt><trkpt lat="44.45881179884779" lon="9.365506836606599"><ele>548.0</ele><time>2026-04-19T10:30:38Z</time></trkpt><trkpt lat="44.458887735298546" lon="9.365423999459846"><ele>548.0</ele><time>2026-04-19T10:30:39Z</time></trkpt><trkpt lat="44.45898873682386" lon="9.365397281208528"><ele>548.0</ele><time>2026-04-19T10:30:40Z</time></trkpt><trkpt lat="44.459067224493324" lon="9.365510650841768"><ele>548.0</ele><time>2026-04-19T10:30:41Z</time></trkpt><trkpt lat="44.45917683207104" lon="9.365624733722242"><ele>548.0</ele><time>2026-04-19T10:30:42Z</time></trkpt><trkpt lat="44.459288689120484" lon="9.365720761058073"><ele>548.0</ele><time>2026-04-19T10:30:43Z</time></trkpt><trkpt lat="44.45940831789779" lon="9.36584611233276"><ele>548.0</ele><time>2026-04-19T10:30:44Z</time></trkpt><trkpt lat="44.459562548932716" lon="9.365985055658648"><ele>548.0</ele><time>2026-04-19T10:30:45Z</time></trkpt><trkpt lat="44.45971755641521" lon="9.366108824270597"><ele>548.0</ele><time>2026-04-19T10:30:46Z</time></trkpt><trkpt lat="44.45987596708834" lon="9.366157317124797"><ele>549.3333333333333</ele><time>2026-04-19T10:30:47Z</time></trkpt><trkpt lat="44.460046535874284" lon="9.366170814680403"><ele>550.6666666666666</ele><time>2026-04-19T10:30:48Z</time></trkpt><trkpt lat="44.4602090564065" lon="9.366220191053877"><ele>552.0</ele><time>2026-04-19T10:30:49Z</time></trkpt><trkpt lat="44.46042372571529" lon="9.36628376005"><ele>560.3333333333334</ele><time>2026-04-19T10:30:50Z</time></trkpt><trkpt lat="44.46058798275259" lon="9.366367045761198"><ele>568.6666666666667</ele><time>2026-04-19T10:30:51Z</time></trkpt><trkpt lat="44.46074753049624" lon="9.366482710093614"><ele>577.0</ele><time>2026-04-19T10:30:52Z</time></trkpt><trkpt lat="44.4608957877827" lon="9.366554588703984"><ele>577.0</ele><time>2026-04-19T10:30:53Z</time></trkpt><trkpt lat="44.461048269602045" lon="9.366594358012009"><ele>577.0</ele><time>2026-04-19T10:30:54Z</time></trkpt><trkpt lat="44.46121276557583" lon="9.366557393021033"><ele>577.0</ele><time>2026-04-19T10:30:55Z</time></trkpt><trkpt lat="44.46137988953845" lon="9.366530891828353"><ele>576.3333333333334</ele><time>2026-04-19T10:30:56Z</time></trkpt><trkpt lat="44.46155179409988" lon="9.366508790096754"><ele>575.6666666666666</ele><time>2026-04-19T10:30:57Z</time></trkpt><trkpt lat="44.461718285151804" lon="9.36647772367211"><ele>575.0</ele><time>2026-04-19T10:30:58Z</time></trkpt><trkpt lat="44.46188250600367" lon="9.366414734923932"><ele>572.3333333333333</ele><time>2026-04-19T10:30:59Z</time></trkpt><trkpt lat="44.46203729086202" lon="9.366338130513444"><ele>569.6666666666666</ele><time>2026-04-19T10:31:00Z</time></trkpt><trkpt lat="44.4621809107697" lon="9.366266427273926"><ele>567.0</ele><time>2026-04-19T10:31:01Z</time></trkpt><trkpt lat="44.462328356345154" lon="9.366187498773543"><ele>567.0</ele><time>2026-04-19T10:31:02Z</time></trkpt><trkpt lat="44.462472974263235" lon="9.366105598280026"><ele>567.0</ele><time>2026-04-19T10:31:03Z</time></trkpt><trkpt lat="44.46261984288092" lon="9.36602158962483"><ele>567.0</ele><time>2026-04-19T10:31:04Z</time></trkpt><trkpt lat="44.46276471356663" lon="9.365931903697044"><ele>567.0</ele><time>2026-04-19T10:31:05Z</time></trkpt><trkpt lat="44.46287708243645" lon="9.365779533884698"><ele>567.0</ele><time>2026-04-19T10:31:06Z</time></trkpt><trkpt lat="44.462957988709015" lon="9.365611598425637"><ele>567.0</ele><time>2026-04-19T10:31:07Z</time></trkpt><trkpt lat="44.46302715729838" lon="9.365516427385474"><ele>567.0</ele><time>2026-04-19T10:31:08Z</time></trkpt><trkpt lat="44.463122761456454" lon="9.36548415562171"><ele>564.5</ele><time>2026-04-19T10:31:09Z</time></trkpt><trkpt lat="44.46322887185388" lon="9.365511555448643"><ele>562.0</ele><time>2026-04-19T10:31:10Z</time></trkpt><trkpt lat="44.46336567675205" lon="9.365530369148221"><ele>559.5</ele><time>2026-04-19T10:31:11Z</time></trkpt><trkpt lat="44.46350946629524" lon="9.365569092138198"><ele>557.0</ele><time>2026-04-19T10:31:12Z</time></trkpt><trkpt lat="44.463627857456146" lon="9.365577662810324"><ele>562.75</ele><time>2026-04-19T10:31:13Z</time></trkpt><trkpt lat="44.46373493269775" lon="9.365549718364143"><ele>568.5</ele><time>2026-04-19T10:31:14Z</time></trkpt><trkpt lat="44.46384645740057" lon="9.365452343105535"><ele>574.25</ele><time>2026-04-19T10:31:15Z</time></trkpt><trkpt lat="44.46393725362191" lon="9.365286984522438"><ele>580.0</ele><time>2026-04-19T10:31:16Z</time></trkpt><trkpt lat="44.46404513704899" lon="9.365120327545474"><ele>580.0</ele><time>2026-04-19T10:31:17Z</time></trkpt><trkpt lat="44.4641379192088" lon="9.364963446712931"><ele>580.0</ele><time>2026-04-19T10:31:18Z</time></trkpt><trkpt lat="44.464230188788456" lon="9.364807722800979"><ele>580.0</ele><time>2026-04-19T10:31:19Z</time></trkpt><trkpt lat="44.464333107775225" lon="9.364638999847298"><ele>580.0</ele><time>2026-04-19T10:31:20Z</time></trkpt><trkpt lat="44.46439715093197" lon="9.364498474718227"><ele>580.25</ele><time>2026-04-19T10:31:21Z</time></trkpt><trkpt lat="44.464502426207474" lon="9.364459155781644"><ele>580.5</ele><time>2026-04-19T10:31:22Z</time></trkpt><trkpt lat="44.46461298114851" lon="9.364430606898033"><ele>580.75</ele><time>2026-04-19T10:31:23Z</time></trkpt><trkpt lat="44.464748256490104" lon="9.364457412983928"><ele>581.0</ele><time>2026-04-19T10:31:24Z</time></trkpt><trkpt lat="44.46490823477969" lon="9.364454553934504"><ele>581.0</ele><time>2026-04-19T10:31:25Z</time></trkpt><trkpt lat="44.46509150893101" lon="9.364427340883003"><ele>581.0</ele><time>2026-04-19T10:31:26Z</time></trkpt><trkpt lat="44.465275773485466" lon="9.364385920289816"><ele>581.0</ele><time>2026-04-19T10:31:27Z</time></trkpt><trkpt lat="44.46544035572765" lon="9.364363832541605"><ele>582.0</ele><time>2026-04-19T10:31:28Z</time></trkpt><trkpt lat="44.46559042419123" lon="9.364366669014892"><ele>583.0</ele><time>2026-04-19T10:31:29Z</time></trkpt><trkpt lat="44.46573343161763" lon="9.364397244042136"><ele>584.0</ele><time>2026-04-19T10:31:30Z</time></trkpt><trkpt lat="44.4658613937666" lon="9.364437137471612"><ele>585.0</ele><time>2026-04-19T10:31:31Z</time></trkpt><trkpt lat="44.46598197793268" lon="9.364471384323814"><ele>585.0</ele><time>2026-04-19T10:31:32Z</time></trkpt><trkpt lat="44.466104336993965" lon="9.364527620322203"><ele>585.0</ele><time>2026-04-19T10:31:33Z</time></trkpt><trkpt lat="44.466231542769414" lon="9.364608606500797"><ele>585.0</ele><time>2026-04-19T10:31:34Z</time></trkpt><trkpt lat="44.466368387914116" lon="9.364678300851795"><ele>585.0</ele><time>2026-04-19T10:31:35Z</time></trkpt><trkpt lat="44.46649343868874" lon="9.364741429848515"><ele>589.2</ele><time>2026-04-19T10:31:36Z</time></trkpt><trkpt lat="44.46660476344856" lon="9.364793933002975"><ele>593.4</ele><time>2026-04-19T10:31:37Z</time></trkpt><trkpt lat="44.46670242535596" lon="9.364851716904138"><ele>597.6</ele><time>2026-04-19T10:31:38Z</time></trkpt><trkpt lat="44.46679474166969" lon="9.36489929666277"><ele>601.8</ele><time>2026-04-19T10:31:39Z</time></trkpt><trkpt lat="44.46686885759688" lon="9.364941833596896"><ele>606.0</ele><time>2026-04-19T10:31:40Z</time></trkpt><trkpt lat="44.466942320106206" lon="9.36496131750227"><ele>606.0</ele><time>2026-04-19T10:31:41Z</time></trkpt><trkpt lat="44.46703410348153" lon="9.364962423635014"><ele>606.0</ele><time>2026-04-19T10:31:42Z</time></trkpt><trkpt lat="44.467143567970204" lon="9.3648756815511"><ele>606.0</ele><time>2026-04-19T10:31:43Z</time></trkpt><trkpt lat="44.46724255067966" lon="9.364718959846984"><ele>606.0</ele><time>2026-04-19T10:31:44Z</time></trkpt><trkpt lat="44.46735761346026" lon="9.364552761059949"><ele>603.8</ele><time>2026-04-19T10:31:45Z</time></trkpt><trkpt lat="44.467448179044446" lon="9.36443715201453"><ele>601.6</ele><time>2026-04-19T10:31:46Z</time></trkpt><trkpt lat="44.46752633531596" lon="9.364380811541011"><ele>599.4</ele><time>2026-04-19T10:31:47Z</time></trkpt><trkpt lat="44.467592933132416" lon="9.364371907903678"><ele>597.2</ele><time>2026-04-19T10:31:48Z</time></trkpt><trkpt lat="44.467699850578995" lon="9.364458410040584"><ele>595.0</ele><time>2026-04-19T10:31:49Z</time></trkpt><trkpt lat="44.46776690628855" lon="9.364637648342686"><ele>597.0</ele><time>2026-04-19T10:31:50Z</time></trkpt><trkpt lat="44.46772735352879" lon="9.364803350220162"><ele>599.0</ele><time>2026-04-19T10:31:51Z</time></trkpt><trkpt lat="44.46762467348485" lon="9.36490909439473"><ele>601.0</ele><time>2026-04-19T10:31:52Z</time></trkpt><trkpt lat="44.46749472231536" lon="9.364997823696518"><ele>603.0</ele><time>2026-04-19T10:31:53Z</time></trkpt><trkpt lat="44.46732597386181" lon="9.365049446942072"><ele>603.0</ele><time>2026-04-19T10:31:54Z</time></trkpt><trkpt lat="44.46715647787647" lon="9.365125385733558"><ele>603.0</ele><time>2026-04-19T10:31:55Z</time></trkpt><trkpt lat="44.46698255959838" lon="9.365196818400062"><ele>603.0</ele><time>2026-04-19T10:31:56Z</time></trkpt><trkpt lat="44.466857192388474" lon="9.36514793530281"><ele>604.0</ele><time>2026-04-19T10:31:57Z</time></trkpt><trkpt lat="44.46669079763167" lon="9.365093690156693"><ele>605.0</ele><time>2026-04-19T10:31:58Z</time></trkpt><trkpt lat="44.46649535189382" lon="9.365056588288608"><ele>606.0</ele><time>2026-04-19T10:31:59Z</time></trkpt><trkpt lat="44.4662906204119" lon="9.364985848780284"><ele>606.3333333333334</ele><time>2026-04-19T10:32:00Z</time></trkpt><trkpt lat="44.46609118405894" lon="9.364936687345951"><ele>606.6666666666667</ele><time>2026-04-19T10:32:01Z</time></trkpt><trkpt lat="44.465896404606234" lon="9.364886922357305"><ele>607.0</ele><time>2026-04-19T10:32:02Z</time></trkpt><trkpt lat="44.46575648949639" lon="9.364835551145237"><ele>607.0</ele><time>2026-04-19T10:32:03Z</time></trkpt><trkpt lat="44.46565770829764" lon="9.364836374153775"><ele>607.0</ele><time>2026-04-19T10:32:04Z</time></trkpt><trkpt lat="44.46557399019225" lon="9.364898707113095"><ele>607.0</ele><time>2026-04-19T10:32:05Z</time></trkpt><trkpt lat="44.46550530240443" lon="9.36501726904436"><ele>607.0</ele><time>2026-04-19T10:32:06Z</time></trkpt><trkpt lat="44.46547796944923" lon="9.365195652933227"><ele>607.0</ele><time>2026-04-19T10:32:07Z</time></trkpt><trkpt lat="44.46548311949967" lon="9.365389370689899"><ele>607.5</ele><time>2026-04-19T10:32:08Z</time></trkpt><trkpt lat="44.465519516443656" lon="9.365596495764551"><ele>608.0</ele><time>2026-04-19T10:32:09Z</time></trkpt><trkpt lat="44.46553340537969" lon="9.365762871488768"><ele>608.5</ele><time>2026-04-19T10:32:10Z</time></trkpt><trkpt lat="44.46551283014615" lon="9.365947840367529"><ele>609.0</ele><time>2026-04-19T10:32:11Z</time></trkpt><trkpt lat="44.46538974349103" lon="9.36606147394937"><ele>609.0</ele><time>2026-04-19T10:32:12Z</time></trkpt><trkpt lat="44.46530927196957" lon="9.36620308134307"><ele>609.0</ele><time>2026-04-19T10:32:13Z</time></trkpt><trkpt lat="44.46528939176013" lon="9.366333100673367"><ele>609.0</ele><time>2026-04-19T10:32:14Z</time></trkpt><trkpt lat="44.46530113866295" lon="9.366510223359873"><ele>609.0</ele><time>2026-04-19T10:32:15Z</time></trkpt><trkpt lat="44.46534778604313" lon="9.366694649825872"><ele>611.0</ele><time>2026-04-19T10:32:16Z</time></trkpt><trkpt lat="44.46538513558035" lon="9.366862056879414"><ele>613.0</ele><time>2026-04-19T10:32:17Z</time></trkpt><trkpt lat="44.46536600809458" lon="9.366998179857513"><ele>615.0</ele><time>2026-04-19T10:32:18Z</time></trkpt><trkpt lat="44.465271419810655" lon="9.367070742635"><ele>617.0</ele><time>2026-04-19T10:32:19Z</time></trkpt><trkpt lat="44.46520099619503" lon="9.367130622706991"><ele>619.0</ele><time>2026-04-19T10:32:20Z</time></trkpt><trkpt lat="44.46509465140121" lon="9.366986619437592"><ele>619.0</ele><time>2026-04-19T10:32:21Z</time></trkpt><trkpt lat="44.46502516786151" lon="9.36687923170976"><ele>619.0</ele><time>2026-04-19T10:32:22Z</time></trkpt><trkpt lat="44.46497356419753" lon="9.366732243622357"><ele>619.0</ele><time>2026-04-19T10:32:23Z</time></trkpt><trkpt lat="44.46489166589682" lon="9.366639109176406"><ele>619.0</ele><time>2026-04-19T10:32:24Z</time></trkpt><trkpt lat="44.46478183563512" lon="9.366615581566112"><ele>619.0</ele><time>2026-04-19T10:32:25Z</time></trkpt><trkpt lat="44.464668878088126" lon="9.366683983534354"><ele>620.75</ele><time>2026-04-19T10:32:26Z</time></trkpt><trkpt lat="44.46459255875535" lon="9.366826399822965"><ele>622.5</ele><time>2026-04-19T10:32:27Z</time></trkpt><trkpt lat="44.46460708082407" lon="9.36701543780231"><ele>624.25</ele><time>2026-04-19T10:32:28Z</time></trkpt><trkpt lat="44.464685191512395" lon="9.367197208277817"><ele>626.0</ele><time>2026-04-19T10:32:29Z</time></trkpt><trkpt lat="44.46478162689143" lon="9.367349898234163"><ele>626.0</ele><time>2026-04-19T10:32:30Z</time></trkpt><trkpt lat="44.46488160745907" lon="9.367498773516395"><ele>626.0</ele><time>2026-04-19T10:32:31Z</time></trkpt><trkpt lat="44.4649946001257" lon="9.367663319104217"><ele>626.0</ele><time>2026-04-19T10:32:32Z</time></trkpt><trkpt lat="44.46514461427593" lon="9.367808928287877"><ele>626.0</ele><time>2026-04-19T10:32:33Z</time></trkpt><trkpt lat="44.465295140080464" lon="9.367899281693958"><ele>626.0</ele><time>2026-04-19T10:32:34.001Z</time></trkpt><trkpt lat="44.46543413260641" lon="9.367936774239043"><ele>626.0</ele><time>2026-04-19T10:32:35.001Z</time></trkpt><trkpt lat="44.46556116835271" lon="9.36789980123224"><ele>626.0</ele><time>2026-04-19T10:32:36.001Z</time></trkpt><trkpt lat="44.46569464333977" lon="9.367819648957958"><ele>626.5</ele><time>2026-04-19T10:32:37.001Z</time></trkpt><trkpt lat="44.46582102103644" lon="9.367717347419813"><ele>627.0</ele><time>2026-04-19T10:32:38.001Z</time></trkpt><trkpt lat="44.46593164087089" lon="9.367594033756227"><ele>627.5</ele><time>2026-04-19T10:32:39.001Z</time></trkpt><trkpt lat="44.46600246324644" lon="9.367390828597008"><ele>628.0</ele><time>2026-04-19T10:32:40.001Z</time></trkpt><trkpt lat="44.46602655972045" lon="9.367147243293456"><ele>628.0</ele><time>2026-04-19T10:32:41.001Z</time></trkpt><trkpt lat="44.4660501585494" lon="9.366887792659579"><ele>628.0</ele><time>2026-04-19T10:32:42.001Z</time></trkpt><trkpt lat="44.4661407950831" lon="9.36668893968695"><ele>628.0</ele><time>2026-04-19T10:32:43.001Z</time></trkpt><trkpt lat="44.46622780619637" lon="9.366478699671832"><ele>627.25</ele><time>2026-04-19T10:32:44.001Z</time></trkpt><trkpt lat="44.46632258893687" lon="9.366284806370457"><ele>626.5</ele><time>2026-04-19T10:32:45.001Z</time></trkpt><trkpt lat="44.46643858858287" lon="9.366154234894637"><ele>625.75</ele><time>2026-04-19T10:32:46.001Z</time></trkpt><trkpt lat="44.46653379169577" lon="9.366068484179843"><ele>625.0</ele><time>2026-04-19T10:32:47.001Z</time></trkpt><trkpt lat="44.46662066840513" lon="9.365996354435765"><ele>625.0</ele><time>2026-04-19T10:32:48.001Z</time></trkpt><trkpt lat="44.4666964036711" lon="9.36596316639792"><ele>625.0</ele><time>2026-04-19T10:32:49.001Z</time></trkpt><trkpt lat="44.466773553785224" lon="9.365986810203875"><ele>625.0</ele><time>2026-04-19T10:32:50.001Z</time></trkpt><trkpt lat="44.4668432393812" lon="9.366067710615033"><ele>625.0</ele><time>2026-04-19T10:32:51.001Z</time></trkpt><trkpt lat="44.46691600894075" lon="9.36616676841683"><ele>625.0</ele><time>2026-04-19T10:32:52.001Z</time></trkpt><trkpt lat="44.466879121608855" lon="9.36633651974244"><ele>629.0</ele><time>2026-04-19T10:32:53.001Z</time></trkpt><trkpt lat="44.46680191102228" lon="9.366457355332583"><ele>633.0</ele><time>2026-04-19T10:32:54.001Z</time></trkpt><trkpt lat="44.46668215536934" lon="9.36650497696956"><ele>637.0</ele><time>2026-04-19T10:32:55.001Z</time></trkpt><trkpt lat="44.46656033245948" lon="9.366568342085618"><ele>641.0</ele><time>2026-04-19T10:32:56.001Z</time></trkpt><trkpt lat="44.46643580478802" lon="9.36666409272172"><ele>641.0</ele><time>2026-04-19T10:32:57.001Z</time></trkpt><trkpt lat="44.466335002368645" lon="9.366770940212948"><ele>641.0</ele><time>2026-04-19T10:32:58.001Z</time></trkpt><trkpt lat="44.46625823252571" lon="9.366970322687859"><ele>641.0</ele><time>2026-04-19T10:32:59.001Z</time></trkpt><trkpt lat="44.46621427906628" lon="9.367184087094863"><ele>641.0</ele><time>2026-04-19T10:33:00.001Z</time></trkpt><trkpt lat="44.46618520162533" lon="9.367416925776295"><ele>640.3333333333333</ele><time>2026-04-19T10:33:01.001Z</time></trkpt><trkpt lat="44.46615721099665" lon="9.367640509752848"><ele>639.6666666666666</ele><time>2026-04-19T10:33:02.001Z</time></trkpt><trkpt lat="44.46614253496945" lon="9.367886419400378"><ele>639.0</ele><time>2026-04-19T10:33:03.001Z</time></trkpt><trkpt lat="44.466125472410205" lon="9.368110099776183"><ele>641.0</ele><time>2026-04-19T10:33:04.001Z</time></trkpt><trkpt lat="44.46610136564733" lon="9.368304216089188"><ele>643.0</ele><time>2026-04-19T10:33:05.001Z</time></trkpt><trkpt lat="44.46606798976271" lon="9.368486543708622"><ele>645.0</ele><time>2026-04-19T10:33:06.001Z</time></trkpt><trkpt lat="44.46598780987883" lon="9.368622186600888"><ele>647.0</ele><time>2026-04-19T10:33:07.001Z</time></trkpt><trkpt lat="44.46588090600834" lon="9.368741453332156"><ele>646.5</ele><time>2026-04-19T10:33:08.001Z</time></trkpt><trkpt lat="44.46577294602965" lon="9.3688814582283"><ele>646.0</ele><time>2026-04-19T10:33:09.001Z</time></trkpt><trkpt lat="44.465647535434286" lon="9.368995453858567"><ele>645.5</ele><time>2026-04-19T10:33:10.001Z</time></trkpt><trkpt lat="44.465531663974865" lon="9.369073965653294"><ele>645.0</ele><time>2026-04-19T10:33:11.001Z</time></trkpt><trkpt lat="44.46541845815378" lon="9.369109376945778"><ele>645.0</ele><time>2026-04-19T10:33:12.001Z</time></trkpt><trkpt lat="44.46533040562391" lon="9.369163152912018"><ele>645.0</ele><time>2026-04-19T10:33:13.001Z</time></trkpt><trkpt lat="44.465285367345395" lon="9.369306691267415"><ele>645.0</ele><time>2026-04-19T10:33:14.001Z</time></trkpt><trkpt lat="44.46530400038952" lon="9.369483538826087"><ele>645.0</ele><time>2026-04-19T10:33:15.001Z</time></trkpt><trkpt lat="44.465357388380355" lon="9.369656983749971"><ele>649.25</ele><time>2026-04-19T10:33:16.001Z</time></trkpt><trkpt lat="44.46536177232438" lon="9.369838451184613"><ele>653.5</ele><time>2026-04-19T10:33:17.001Z</time></trkpt><trkpt lat="44.46532782881106" lon="9.37000657494708"><ele>657.75</ele><time>2026-04-19T10:33:18.001Z</time></trkpt><trkpt lat="44.46527397860743" lon="9.370164319298805"><ele>662.0</ele><time>2026-04-19T10:33:19.001Z</time></trkpt><trkpt lat="44.46520680966645" lon="9.370277142065689"><ele>662.0</ele><time>2026-04-19T10:33:20.001Z</time></trkpt><trkpt lat="44.46512208796759" lon="9.370347412406986"><ele>662.0</ele><time>2026-04-19T10:33:21.001Z</time></trkpt><trkpt lat="44.46501463168072" lon="9.370257054361984"><ele>662.0</ele><time>2026-04-19T10:33:22.001Z</time></trkpt><trkpt lat="44.46489522438132" lon="9.370204916987865"><ele>662.0</ele><time>2026-04-19T10:33:23.001Z</time></trkpt><trkpt lat="44.46480777347192" lon="9.37003124890849"><ele>662.0</ele><time>2026-04-19T10:33:24.001Z</time></trkpt><trkpt lat="44.464712302432844" lon="9.369902125804114"><ele>662.0</ele><time>2026-04-19T10:33:25.001Z</time></trkpt><trkpt lat="44.46463271035404" lon="9.369801168291955"><ele>662.0</ele><time>2026-04-19T10:33:26.001Z</time></trkpt><trkpt lat="44.46450728971055" lon="9.369789522524508"><ele>662.0</ele><time>2026-04-19T10:33:27.001Z</time></trkpt><trkpt lat="44.464373451693966" lon="9.369858758080458"><ele>661.0</ele><time>2026-04-19T10:33:28.001Z</time></trkpt><trkpt lat="44.46423201921482" lon="9.369962366278209"><ele>660.0</ele><time>2026-04-19T10:33:29.001Z</time></trkpt><trkpt lat="44.46409071670581" lon="9.370047036535638"><ele>659.0</ele><time>2026-04-19T10:33:30.001Z</time></trkpt><trkpt lat="44.463941081134976" lon="9.37011026148698"><ele>659.0</ele><time>2026-04-19T10:33:31.001Z</time></trkpt><trkpt lat="44.46379451372194" lon="9.370118431751553"><ele>659.0</ele><time>2026-04-19T10:33:32.001Z</time></trkpt><trkpt lat="44.46368153400858" lon="9.370173600520717"><ele>659.0</ele><time>2026-04-19T10:33:33.001Z</time></trkpt><trkpt lat="44.4635916145853" lon="9.370192808932368"><ele>659.0</ele><time>2026-04-19T10:33:34.001Z</time></trkpt><trkpt lat="44.4635205073714" lon="9.370280151818287"><ele>661.75</ele><time>2026-04-19T10:33:35.001Z</time></trkpt><trkpt lat="44.4635039498641" lon="9.370447489367663"><ele>664.5</ele><time>2026-04-19T10:33:36.001Z</time></trkpt><trkpt lat="44.46356822561955" lon="9.370604153884802"><ele>667.25</ele><time>2026-04-19T10:33:37.001Z</time></trkpt><trkpt lat="44.4636712902009" lon="9.37071256484456"><ele>670.0</ele><time>2026-04-19T10:33:38.001Z</time></trkpt><trkpt lat="44.46377884084817" lon="9.37070220789242"><ele>672.25</ele><time>2026-04-19T10:33:39.001Z</time></trkpt><trkpt lat="44.463910110527934" lon="9.370620346387375"><ele>674.5</ele><time>2026-04-19T10:33:40.001Z</time></trkpt><trkpt lat="44.4639957878461" lon="9.370497931595523"><ele>676.75</ele><time>2026-04-19T10:33:41.001Z</time></trkpt><trkpt lat="44.46407270209082" lon="9.370313703656796"><ele>679.0</ele><time>2026-04-19T10:33:42.001Z</time></trkpt><trkpt lat="44.46418597778448" lon="9.370241403336538"><ele>674.75</ele><time>2026-04-19T10:33:43.001Z</time></trkpt><trkpt lat="44.464310578694146" lon="9.370200867484208"><ele>670.5</ele><time>2026-04-19T10:33:44.001Z</time></trkpt><trkpt lat="44.464450728919836" lon="9.37018630936116"><ele>666.25</ele><time>2026-04-19T10:33:45.001Z</time></trkpt><trkpt lat="44.46457995857463" lon="9.370212324689216"><ele>662.0</ele><time>2026-04-19T10:33:46.001Z</time></trkpt><trkpt lat="44.464651945169464" lon="9.370279112166232"><ele>662.0</ele><time>2026-04-19T10:33:47.001Z</time></trkpt><trkpt lat="44.46471320400343" lon="9.370430843022723"><ele>662.0</ele><time>2026-04-19T10:33:48.001Z</time></trkpt><trkpt lat="44.464718987902955" lon="9.370587642852025"><ele>662.0</ele><time>2026-04-19T10:33:49.001Z</time></trkpt><trkpt lat="44.46472992581351" lon="9.370757480602956"><ele>662.0</ele><time>2026-04-19T10:33:50.001Z</time></trkpt><trkpt lat="44.46475109149191" lon="9.370970682178426"><ele>665.0</ele><time>2026-04-19T10:33:51.001Z</time></trkpt><trkpt lat="44.4647534609404" lon="9.371131548004067"><ele>668.0</ele><time>2026-04-19T10:33:52.001Z</time></trkpt><trkpt lat="44.46487932264646" lon="9.371270324605725"><ele>671.0</ele><time>2026-04-19T10:33:53.001Z</time></trkpt><trkpt lat="44.46503274770232" lon="9.371354284568497"><ele>674.0</ele><time>2026-04-19T10:33:54.001Z</time></trkpt><trkpt lat="44.46517350202758" lon="9.37142686850407"><ele>674.0</ele><time>2026-04-19T10:33:55.001Z</time></trkpt><trkpt lat="44.46530845695864" lon="9.371449568741834"><ele>674.0</ele><time>2026-04-19T10:33:56.001Z</time></trkpt><trkpt lat="44.4653994060329" lon="9.371339520929116"><ele>674.0</ele><time>2026-04-19T10:33:57.001Z</time></trkpt><trkpt lat="44.46548745284215" lon="9.371197473340263"><ele>674.0</ele><time>2026-04-19T10:33:58.001Z</time></trkpt><trkpt lat="44.46549782118784" lon="9.37099865680535"><ele>674.6666666666666</ele><time>2026-04-19T10:33:59.001Z</time></trkpt><trkpt lat="44.46547010073306" lon="9.370781034843317"><ele>675.3333333333334</ele><time>2026-04-19T10:34:00.001Z</time></trkpt><trkpt lat="44.465463150026736" lon="9.370560252768238"><ele>676.0</ele><time>2026-04-19T10:34:01.001Z</time></trkpt><trkpt lat="44.46553215823411" lon="9.370329714312609"><ele>676.0</ele><time>2026-04-19T10:34:02.001Z</time></trkpt><trkpt lat="44.46557865335171" lon="9.370109409087918"><ele>676.0</ele><time>2026-04-19T10:34:03.001Z</time></trkpt><trkpt lat="44.46563577615667" lon="9.369926021956745"><ele>676.0</ele><time>2026-04-19T10:34:04.001Z</time></trkpt><trkpt lat="44.465705196092905" lon="9.369782839656535"><ele>676.0</ele><time>2026-04-19T10:34:05.001Z</time></trkpt><trkpt lat="44.46580226149868" lon="9.36972506865623"><ele>675.75</ele><time>2026-04-19T10:34:06.001Z</time></trkpt><trkpt lat="44.46592436918283" lon="9.369680402100062"><ele>675.5</ele><time>2026-04-19T10:34:07.001Z</time></trkpt><trkpt lat="44.46606327789662" lon="9.369639671339678"><ele>675.25</ele><time>2026-04-19T10:34:08.001Z</time></trkpt><trkpt lat="44.466205604820544" lon="9.369639982666305"><ele>675.0</ele><time>2026-04-19T10:34:09.001Z</time></trkpt><trkpt lat="44.466377056435675" lon="9.369662949014495"><ele>678.3333333333334</ele><time>2026-04-19T10:34:10.001Z</time></trkpt><trkpt lat="44.46655103508646" lon="9.3697182225776"><ele>681.6666666666667</ele><time>2026-04-19T10:34:11.001Z</time></trkpt><trkpt lat="44.4667393293379" lon="9.369773666451335"><ele>685.0</ele><time>2026-04-19T10:34:12.001Z</time></trkpt><trkpt lat="44.466911137594856" lon="9.36978232044373"><ele>685.0</ele><time>2026-04-19T10:34:13.001Z</time></trkpt><trkpt lat="44.467032277799426" lon="9.369752063506334"><ele>685.0</ele><time>2026-04-19T10:34:14.001Z</time></trkpt><trkpt lat="44.467183922726285" lon="9.369637188119402"><ele>685.0</ele><time>2026-04-19T10:34:15.001Z</time></trkpt><trkpt lat="44.4672989563131" lon="9.369434630341694"><ele>683.6666666666667</ele><time>2026-04-19T10:34:16.001Z</time></trkpt><trkpt lat="44.46742267980861" lon="9.36926011959414"><ele>682.3333333333334</ele><time>2026-04-19T10:34:17.001Z</time></trkpt><trkpt lat="44.4675581276648" lon="9.36923599440962"><ele>681.0</ele><time>2026-04-19T10:34:18.001Z</time></trkpt><trkpt lat="44.46773713957438" lon="9.369172827016248"><ele>681.0</ele><time>2026-04-19T10:34:19.001Z</time></trkpt><trkpt lat="44.46791192800618" lon="9.369105979274776"><ele>681.0</ele><time>2026-04-19T10:34:20.001Z</time></trkpt><trkpt lat="44.468084764343224" lon="9.369000604351667"><ele>681.0</ele><time>2026-04-19T10:34:21.001Z</time></trkpt><trkpt lat="44.46825977318624" lon="9.368889292937636"><ele>680.3333333333334</ele><time>2026-04-19T10:34:22.001Z</time></trkpt><trkpt lat="44.46842797701271" lon="9.36875158346066"><ele>679.6666666666667</ele><time>2026-04-19T10:34:23.001Z</time></trkpt><trkpt lat="44.468604316030174" lon="9.368699841924425"><ele>679.0</ele><time>2026-04-19T10:34:24.001Z</time></trkpt><trkpt lat="44.46878520079347" lon="9.36864098705879"><ele>681.6666666666667</ele><time>2026-04-19T10:34:25.001Z</time></trkpt><trkpt lat="44.46897428164454" lon="9.368586447616345"><ele>684.3333333333334</ele><time>2026-04-19T10:34:26.001Z</time></trkpt><trkpt lat="44.46916404014502" lon="9.368544826870743"><ele>687.0</ele><time>2026-04-19T10:34:27.001Z</time></trkpt><trkpt lat="44.46935559930019" lon="9.368516782153032"><ele>687.0</ele><time>2026-04-19T10:34:28.001Z</time></trkpt><trkpt lat="44.46954087175141" lon="9.368503841184578"><ele>687.0</ele><time>2026-04-19T10:34:29.001Z</time></trkpt><trkpt lat="44.46971783994698" lon="9.368518269231664"><ele>687.0</ele><time>2026-04-19T10:34:30.001Z</time></trkpt><trkpt lat="44.46990206351252" lon="9.368523211160703"><ele>688.6666666666666</ele><time>2026-04-19T10:34:31.001Z</time></trkpt><trkpt lat="44.47007278563621" lon="9.36856180352051"><ele>690.3333333333333</ele><time>2026-04-19T10:34:32.001Z</time></trkpt><trkpt lat="44.470228023326044" lon="9.368596401391516"><ele>692.0</ele><time>2026-04-19T10:34:33.001Z</time></trkpt><trkpt lat="44.47037581880839" lon="9.36858391203922"><ele>697.3333333333333</ele><time>2026-04-19T10:34:34.001Z</time></trkpt><trkpt lat="44.470521390105546" lon="9.368493030214731"><ele>702.6666666666666</ele><time>2026-04-19T10:34:35.001Z</time></trkpt><trkpt lat="44.47064693122293" lon="9.368346228973365"><ele>708.0</ele><time>2026-04-19T10:34:36.001Z</time></trkpt><trkpt lat="44.470746966400206" lon="9.36815142457379"><ele>703.0</ele><time>2026-04-19T10:34:37.001Z</time></trkpt><trkpt lat="44.47086367572928" lon="9.367987324893624"><ele>698.0</ele><time>2026-04-19T10:34:38.001Z</time></trkpt><trkpt lat="44.47099430332135" lon="9.36785174110661"><ele>693.0</ele><time>2026-04-19T10:34:39.001Z</time></trkpt><trkpt lat="44.471133385278" lon="9.367806878165414"><ele>695.6666666666666</ele><time>2026-04-19T10:34:40.001Z</time></trkpt><trkpt lat="44.4713064970009" lon="9.367823857023787"><ele>698.3333333333333</ele><time>2026-04-19T10:34:41.001Z</time></trkpt><trkpt lat="44.47145775397797" lon="9.367811645951944"><ele>701.0</ele><time>2026-04-19T10:34:42.001Z</time></trkpt><trkpt lat="44.47158466021317" lon="9.367811297113496"><ele>701.0</ele><time>2026-04-19T10:34:43.001Z</time></trkpt><trkpt lat="44.471703808236676" lon="9.367743185790637"><ele>701.0</ele><time>2026-04-19T10:34:44.001Z</time></trkpt><trkpt lat="44.471827162307164" lon="9.36761968124011"><ele>701.0</ele><time>2026-04-19T10:34:45.001Z</time></trkpt><trkpt lat="44.471921232392575" lon="9.367444537558343"><ele>701.0</ele><time>2026-04-19T10:34:46.001Z</time></trkpt><trkpt lat="44.471973244752604" lon="9.367240697584306"><ele>702.3333333333333</ele><time>2026-04-19T10:34:47.001Z</time></trkpt><trkpt lat="44.47198554969081" lon="9.367010635215808"><ele>703.6666666666666</ele><time>2026-04-19T10:34:48.001Z</time></trkpt><trkpt lat="44.47201445453604" lon="9.366782263121635"><ele>705.0</ele><time>2026-04-19T10:34:49.001Z</time></trkpt><trkpt lat="44.47202427346667" lon="9.366520092517526"><ele>705.6666666666666</ele><time>2026-04-19T10:34:50.001Z</time></trkpt><trkpt lat="44.47204648542746" lon="9.366230466312265"><ele>706.3333333333333</ele><time>2026-04-19T10:34:51.001Z</time></trkpt><trkpt lat="44.4720697280334" lon="9.365953086353061"><ele>707.0</ele><time>2026-04-19T10:34:52.001Z</time></trkpt><trkpt lat="44.47208959400803" lon="9.365725594755878"><ele>709.3333333333333</ele><time>2026-04-19T10:34:53.001Z</time></trkpt><trkpt lat="44.472110465049695" lon="9.365457740450843"><ele>711.6666666666666</ele><time>2026-04-19T10:34:54.001Z</time></trkpt><trkpt lat="44.47213395231658" lon="9.365204700804657"><ele>714.0</ele><time>2026-04-19T10:34:55.001Z</time></trkpt><trkpt lat="44.47217001539893" lon="9.364985738792736"><ele>714.0</ele><time>2026-04-19T10:34:56.001Z</time></trkpt><trkpt lat="44.47223990117477" lon="9.364820843593762"><ele>714.0</ele><time>2026-04-19T10:34:57.001Z</time></trkpt><trkpt lat="44.47233714375813" lon="9.364691917879211"><ele>714.0</ele><time>2026-04-19T10:34:58.001Z</time></trkpt><trkpt lat="44.47245339720589" lon="9.36459832792822"><ele>714.0</ele><time>2026-04-19T10:34:59.001Z</time></trkpt><trkpt lat="44.472591540789594" lon="9.364540652205397"><ele>711.5</ele><time>2026-04-19T10:35:00.001Z</time></trkpt><trkpt lat="44.47273297524603" lon="9.36450455123384"><ele>709.0</ele><time>2026-04-19T10:35:01.001Z</time></trkpt><trkpt lat="44.47288243311758" lon="9.364542191821263"><ele>706.5</ele><time>2026-04-19T10:35:02.001Z</time></trkpt><trkpt lat="44.473026333197" lon="9.364520641888706"><ele>704.0</ele><time>2026-04-19T10:35:03.001Z</time></trkpt><trkpt lat="44.473136423717946" lon="9.364476588962958"><ele>709.0</ele><time>2026-04-19T10:35:04.001Z</time></trkpt><trkpt lat="44.47321568077047" lon="9.364367820003123"><ele>714.0</ele><time>2026-04-19T10:35:05.001Z</time></trkpt><trkpt lat="44.473251662244465" lon="9.364187479868784"><ele>719.0</ele><time>2026-04-19T10:35:06.001Z</time></trkpt><trkpt lat="44.473216322322706" lon="9.363975840310415"><ele>724.0</ele><time>2026-04-19T10:35:07.001Z</time></trkpt><trkpt lat="44.47316197569643" lon="9.363782265674597"><ele>725.6666666666667</ele><time>2026-04-19T10:35:08.001Z</time></trkpt><trkpt lat="44.473145516686515" lon="9.363557721907451"><ele>727.3333333333334</ele><time>2026-04-19T10:35:09.001Z</time></trkpt><trkpt lat="44.47312007138038" lon="9.363352228581439"><ele>729.0</ele><time>2026-04-19T10:35:10.001Z</time></trkpt><trkpt lat="44.4730857194647" lon="9.363119865755896"><ele>732.0</ele><time>2026-04-19T10:35:11.001Z</time></trkpt><trkpt lat="44.47304607757584" lon="9.362859123406462"><ele>735.0</ele><time>2026-04-19T10:35:12.001Z</time></trkpt><trkpt lat="44.47302217556309" lon="9.362603611778955"><ele>738.0</ele><time>2026-04-19T10:35:13.001Z</time></trkpt><trkpt lat="44.47294950345458" lon="9.36234683903545"><ele>731.6666666666666</ele><time>2026-04-19T10:35:14.001Z</time></trkpt><trkpt lat="44.472880522691504" lon="9.362113665828936"><ele>725.3333333333333</ele><time>2026-04-19T10:35:15.001Z</time></trkpt><trkpt lat="44.47278973280369" lon="9.3619061492925"><ele>719.0</ele><time>2026-04-19T10:35:16.001Z</time></trkpt><trkpt lat="44.472675872185654" lon="9.361737888008266"><ele>719.0</ele><time>2026-04-19T10:35:17.001Z</time></trkpt><trkpt lat="44.47255439939885" lon="9.361558726884697"><ele>719.0</ele><time>2026-04-19T10:35:18.001Z</time></trkpt><trkpt lat="44.472462228482115" lon="9.361366781570938"><ele>719.0</ele><time>2026-04-19T10:35:19.001Z</time></trkpt><trkpt lat="44.47235952599209" lon="9.361212480100901"><ele>717.5</ele><time>2026-04-19T10:35:20.001Z</time></trkpt><trkpt lat="44.472236375438264" lon="9.361122200987774"><ele>716.0</ele><time>2026-04-19T10:35:21.001Z</time></trkpt><trkpt lat="44.47210344220645" lon="9.361071554118137"><ele>714.5</ele><time>2026-04-19T10:35:22.001Z</time></trkpt><trkpt lat="44.47198906025491" lon="9.361013102767489"><ele>713.0</ele><time>2026-04-19T10:35:23.001Z</time></trkpt><trkpt lat="44.47190029375701" lon="9.360918921110153"><ele>713.0</ele><time>2026-04-19T10:35:24.001Z</time></trkpt><trkpt lat="44.471836094796856" lon="9.36079157977433"><ele>713.0</ele><time>2026-04-19T10:35:25.001Z</time></trkpt><trkpt lat="44.47177337174186" lon="9.3606184001534"><ele>713.0</ele><time>2026-04-19T10:35:26.001Z</time></trkpt><trkpt lat="44.47169774709693" lon="9.36045291073647"><ele>713.0</ele><time>2026-04-19T10:35:27.001Z</time></trkpt><trkpt lat="44.47158234840948" lon="9.36032219110366"><ele>715.6666666666666</ele><time>2026-04-19T10:35:28.001Z</time></trkpt><trkpt lat="44.47145414967852" lon="9.36022326846187"><ele>718.3333333333334</ele><time>2026-04-19T10:35:29.001Z</time></trkpt><trkpt lat="44.47130843923931" lon="9.360155820521914"><ele>721.0</ele><time>2026-04-19T10:35:30.001Z</time></trkpt><trkpt lat="44.47117532943969" lon="9.36004292715631"><ele>721.0</ele><time>2026-04-19T10:35:31.001Z</time></trkpt><trkpt lat="44.4710599388554" lon="9.359962536092295"><ele>721.0</ele><time>2026-04-19T10:35:32.001Z</time></trkpt><trkpt lat="44.47096127103979" lon="9.359880467973413"><ele>721.0</ele><time>2026-04-19T10:35:33.001Z</time></trkpt><trkpt lat="44.47090922556915" lon="9.359782370886972"><ele>721.0</ele><time>2026-04-19T10:35:34.001Z</time></trkpt><trkpt lat="44.470896383368135" lon="9.359676333996235"><ele>721.0</ele><time>2026-04-19T10:35:35.001Z</time></trkpt><trkpt lat="44.470930855528856" lon="9.359571209300073"><ele>721.5</ele><time>2026-04-19T10:35:36.001Z</time></trkpt><trkpt lat="44.47095526701552" lon="9.359446395834947"><ele>722.0</ele><time>2026-04-19T10:35:37.001Z</time></trkpt><trkpt lat="44.47096486887507" lon="9.359329672514235"><ele>722.5</ele><time>2026-04-19T10:35:38.001Z</time></trkpt><trkpt lat="44.47098664766775" lon="9.359124482318872"><ele>723.0</ele><time>2026-04-19T10:35:39.001Z</time></trkpt><trkpt lat="44.47096872150761" lon="9.358936106857591"><ele>725.6666666666666</ele><time>2026-04-19T10:35:40.001Z</time></trkpt><trkpt lat="44.470929681006815" lon="9.3587261709286"><ele>728.3333333333333</ele><time>2026-04-19T10:35:41.001Z</time></trkpt><trkpt lat="44.47095113149253" lon="9.358498161026025"><ele>731.0</ele><time>2026-04-19T10:35:42.001Z</time></trkpt><trkpt lat="44.47096289348634" lon="9.358286236246817"><ele>731.0</ele><time>2026-04-19T10:35:43.001Z</time></trkpt><trkpt lat="44.47098283457983" lon="9.358165786515276"><ele>731.0</ele><time>2026-04-19T10:35:44.001Z</time></trkpt><trkpt lat="44.4709282659935" lon="9.358044958097334"><ele>731.0</ele><time>2026-04-19T10:35:45.001Z</time></trkpt><trkpt lat="44.47081654680689" lon="9.357967193398519"><ele>731.0</ele><time>2026-04-19T10:35:46.001Z</time></trkpt><trkpt lat="44.47067123930094" lon="9.358007172183415"><ele>731.0</ele><time>2026-04-19T10:35:47.001Z</time></trkpt><trkpt lat="44.47056042091666" lon="9.35804471379785"><ele>731.0</ele><time>2026-04-19T10:35:48.001Z</time></trkpt><trkpt lat="44.470440366039284" lon="9.358031807717618"><ele>731.0</ele><time>2026-04-19T10:35:49.001Z</time></trkpt><trkpt lat="44.47037648622042" lon="9.357876421155078"><ele>731.0</ele><time>2026-04-19T10:35:50.001Z</time></trkpt><trkpt lat="44.47037345847348" lon="9.35768361189354"><ele>731.0</ele><time>2026-04-19T10:35:51.001Z</time></trkpt><trkpt lat="44.47039320688144" lon="9.357499445623807"><ele>731.0</ele><time>2026-04-19T10:35:52.001Z</time></trkpt><trkpt lat="44.4704397300204" lon="9.357274582709515"><ele>731.0</ele><time>2026-04-19T10:35:53.001Z</time></trkpt><trkpt lat="44.470546468167534" lon="9.35718794955463"><ele>731.0</ele><time>2026-04-19T10:35:54.001Z</time></trkpt><trkpt lat="44.47066253153677" lon="9.357081281065392"><ele>731.0</ele><time>2026-04-19T10:35:55.001Z</time></trkpt><trkpt lat="44.47078247073844" lon="9.356954304827429"><ele>731.0</ele><time>2026-04-19T10:35:56.001Z</time></trkpt><trkpt lat="44.47090767197903" lon="9.356826695810955"><ele>731.0</ele><time>2026-04-19T10:35:57.001Z</time></trkpt><trkpt lat="44.47102793085337" lon="9.356668248135486"><ele>731.0</ele><time>2026-04-19T10:35:58.001Z</time></trkpt><trkpt lat="44.471130415357955" lon="9.3565285394962"><ele>731.0</ele><time>2026-04-19T10:35:59.001Z</time></trkpt><trkpt lat="44.47121338907366" lon="9.356422250456028"><ele>731.0</ele><time>2026-04-19T10:36:00.001Z</time></trkpt><trkpt lat="44.47129981728267" lon="9.35628322110545"><ele>731.0</ele><time>2026-04-19T10:36:01.001Z</time></trkpt><trkpt lat="44.47134188253031" lon="9.356150378233641"><ele>733.0</ele><time>2026-04-19T10:36:02.001Z</time></trkpt><trkpt lat="44.47135434245644" lon="9.355988746092263"><ele>735.0</ele><time>2026-04-19T10:36:03.001Z</time></trkpt><trkpt lat="44.47133405725694" lon="9.35583307823203"><ele>737.0</ele><time>2026-04-19T10:36:04.001Z</time></trkpt><trkpt lat="44.47129196685621" lon="9.35568749320887"><ele>739.0</ele><time>2026-04-19T10:36:05.001Z</time></trkpt><trkpt lat="44.47122308273655" lon="9.355572695719319"><ele>741.0</ele><time>2026-04-19T10:36:06.001Z</time></trkpt><trkpt lat="44.471123411035535" lon="9.355549699580614"><ele>741.0</ele><time>2026-04-19T10:36:07.001Z</time></trkpt><trkpt lat="44.47099510448107" lon="9.355551453576151"><ele>741.0</ele><time>2026-04-19T10:36:08.001Z</time></trkpt><trkpt lat="44.47087897953978" lon="9.35563840477981"><ele>741.0</ele><time>2026-04-19T10:36:09.001Z</time></trkpt><trkpt lat="44.47077686999616" lon="9.355689055718415"><ele>741.0</ele><time>2026-04-19T10:36:10.001Z</time></trkpt><trkpt lat="44.470706260188706" lon="9.3555967458419"><ele>741.0</ele><time>2026-04-19T10:36:11.001Z</time></trkpt><trkpt lat="44.4705863632592" lon="9.355543785571564"><ele>741.0</ele><time>2026-04-19T10:36:12.001Z</time></trkpt><trkpt lat="44.47044199496401" lon="9.355496498262214"><ele>741.0</ele><time>2026-04-19T10:36:13.001Z</time></trkpt><trkpt lat="44.47029531198238" lon="9.355402974990252"><ele>741.0</ele><time>2026-04-19T10:36:14.001Z</time></trkpt><trkpt lat="44.470120488171304" lon="9.355295241049745"><ele>752.0</ele><time>2026-04-19T10:36:15.001Z</time></trkpt><trkpt lat="44.46993585668164" lon="9.355223879300093"><ele>763.0</ele><time>2026-04-19T10:36:16.001Z</time></trkpt><trkpt lat="44.46978105390301" lon="9.355178642205741"><ele>774.0</ele><time>2026-04-19T10:36:17.001Z</time></trkpt><trkpt lat="44.46966195051036" lon="9.355087199464991"><ele>771.75</ele><time>2026-04-19T10:36:18.001Z</time></trkpt><trkpt lat="44.46954184086277" lon="9.355010072039763"><ele>769.5</ele><time>2026-04-19T10:36:19.001Z</time></trkpt><trkpt lat="44.469440621992845" lon="9.354982712939906"><ele>767.25</ele><time>2026-04-19T10:36:20.001Z</time></trkpt><trkpt lat="44.46930516382447" lon="9.35507278042951"><ele>765.0</ele><time>2026-04-19T10:36:21.001Z</time></trkpt><trkpt lat="44.469197677322455" lon="9.355101199406748"><ele>765.0</ele><time>2026-04-19T10:36:22.001Z</time></trkpt><trkpt lat="44.4690651778606" lon="9.35513261177444"><ele>765.0</ele><time>2026-04-19T10:36:23.001Z</time></trkpt><trkpt lat="44.46887446388492" lon="9.355188201655412"><ele>765.0</ele><time>2026-04-19T10:36:24.001Z</time></trkpt><trkpt lat="44.468687290800744" lon="9.355241149182456"><ele>761.0</ele><time>2026-04-19T10:36:25.001Z</time></trkpt><trkpt lat="44.46847911807743" lon="9.355236188633631"><ele>757.0</ele><time>2026-04-19T10:36:26.001Z</time></trkpt><trkpt lat="44.46826930895549" lon="9.355221982868166"><ele>753.0</ele><time>2026-04-19T10:36:27.001Z</time></trkpt><trkpt lat="44.468084080351694" lon="9.355221567382305"><ele>753.0</ele><time>2026-04-19T10:36:28.001Z</time></trkpt><trkpt lat="44.46794945430646" lon="9.355196726280257"><ele>753.0</ele><time>2026-04-19T10:36:29.001Z</time></trkpt><trkpt lat="44.46786092511684" lon="9.35518129624824"><ele>753.0</ele><time>2026-04-19T10:36:30.001Z</time></trkpt><trkpt lat="44.467817258881865" lon="9.355116112157026"><ele>753.0</ele><time>2026-04-19T10:36:31.001Z</time></trkpt><trkpt lat="44.46780976436723" lon="9.355002854928271"><ele>753.0</ele><time>2026-04-19T10:36:32.001Z</time></trkpt><trkpt lat="44.467838246494644" lon="9.35490106417328"><ele>753.0</ele><time>2026-04-19T10:36:33.001Z</time></trkpt><trkpt lat="44.46789536725782" lon="9.354801954510313"><ele>753.0</ele><time>2026-04-19T10:36:34.001Z</time></trkpt><trkpt lat="44.46799228922676" lon="9.35475094821635"><ele>753.0</ele><time>2026-04-19T10:36:35.001Z</time></trkpt><trkpt lat="44.468106525795584" lon="9.35467257148197"><ele>753.0</ele><time>2026-04-19T10:36:36.001Z</time></trkpt><trkpt lat="44.46824659470832" lon="9.3545106993159"><ele>753.0</ele><time>2026-04-19T10:36:37.001Z</time></trkpt><trkpt lat="44.46837994954777" lon="9.35435877333465"><ele>753.0</ele><time>2026-04-19T10:36:38.001Z</time></trkpt><trkpt lat="44.468548318443986" lon="9.3542235496787"><ele>753.0</ele><time>2026-04-19T10:36:39.001Z</time></trkpt><trkpt lat="44.46872033987942" lon="9.354092979073036"><ele>753.0</ele><time>2026-04-19T10:36:40.001Z</time></trkpt><trkpt lat="44.46889952517314" lon="9.353947301705524"><ele>752.3333333333334</ele><time>2026-04-19T10:36:41.001Z</time></trkpt><trkpt lat="44.46904998267883" lon="9.353747225742111"><ele>751.6666666666667</ele><time>2026-04-19T10:36:42.001Z</time></trkpt><trkpt lat="44.46917322326316" lon="9.353548259335257"><ele>751.0</ele><time>2026-04-19T10:36:43.001Z</time></trkpt><trkpt lat="44.46930521068986" lon="9.353440917505681"><ele>751.0</ele><time>2026-04-19T10:36:44.001Z</time></trkpt><trkpt lat="44.469444835063946" lon="9.353394869753489"><ele>751.0</ele><time>2026-04-19T10:36:45.001Z</time></trkpt><trkpt lat="44.469636438672936" lon="9.353325036784899"><ele>751.0</ele><time>2026-04-19T10:36:46.002Z</time></trkpt><trkpt lat="44.46982514621737" lon="9.35325622177393"><ele>754.0</ele><time>2026-04-19T10:36:47.002Z</time></trkpt><trkpt lat="44.46999311099061" lon="9.353172313520737"><ele>757.0</ele><time>2026-04-19T10:36:48.002Z</time></trkpt><trkpt lat="44.47013726528668" lon="9.353027913320087"><ele>760.0</ele><time>2026-04-19T10:36:49.002Z</time></trkpt><trkpt lat="44.47025959493999" lon="9.352859374318966"><ele>760.0</ele><time>2026-04-19T10:36:50.002Z</time></trkpt><trkpt lat="44.470351954009345" lon="9.352652968209085"><ele>760.0</ele><time>2026-04-19T10:36:51.002Z</time></trkpt><trkpt lat="44.470429318232085" lon="9.352446537978553"><ele>760.0</ele><time>2026-04-19T10:36:52.002Z</time></trkpt><trkpt lat="44.470487868881634" lon="9.352260623695985"><ele>759.0</ele><time>2026-04-19T10:36:53.002Z</time></trkpt><trkpt lat="44.470497279067196" lon="9.352069731035288"><ele>758.0</ele><time>2026-04-19T10:36:54.002Z</time></trkpt><trkpt lat="44.470457383808615" lon="9.35186240234199"><ele>757.0</ele><time>2026-04-19T10:36:55.002Z</time></trkpt><trkpt lat="44.47039554015997" lon="9.351663184994804"><ele>756.0</ele><time>2026-04-19T10:36:56.001Z</time></trkpt><trkpt lat="44.47035817060761" lon="9.351468197972505"><ele>754.75</ele><time>2026-04-19T10:36:57.001Z</time></trkpt><trkpt lat="44.470354599326384" lon="9.351274279050342"><ele>753.5</ele><time>2026-04-19T10:36:58.001Z</time></trkpt><trkpt lat="44.47038521111404" lon="9.351089713905766"><ele>752.25</ele><time>2026-04-19T10:36:59.001Z</time></trkpt><trkpt lat="44.470452587770076" lon="9.350910073716669"><ele>751.0</ele><time>2026-04-19T10:37:00.001Z</time></trkpt><trkpt lat="44.47052573336793" lon="9.35070735508339"><ele>760.3333333333334</ele><time>2026-04-19T10:37:01.001Z</time></trkpt><trkpt lat="44.47060081527084" lon="9.350499270083244"><ele>769.6666666666667</ele><time>2026-04-19T10:37:02.001Z</time></trkpt><trkpt lat="44.4706765124162" lon="9.350276337393138"><ele>779.0</ele><time>2026-04-19T10:37:03.001Z</time></trkpt><trkpt lat="44.4707285291382" lon="9.35003354009191"><ele>779.0</ele><time>2026-04-19T10:37:04.001Z</time></trkpt><trkpt lat="44.4707711928712" lon="9.34979491106831"><ele>779.0</ele><time>2026-04-19T10:37:05.001Z</time></trkpt><trkpt lat="44.47086147142311" lon="9.34959066398164"><ele>779.0</ele><time>2026-04-19T10:37:06.001Z</time></trkpt><trkpt lat="44.470934975752726" lon="9.349387042991834"><ele>778.6666666666667</ele><time>2026-04-19T10:37:07.001Z</time></trkpt><trkpt lat="44.470981663005226" lon="9.349172555868199"><ele>778.3333333333333</ele><time>2026-04-19T10:37:08.001Z</time></trkpt><trkpt lat="44.471018988709794" lon="9.348956554807524"><ele>778.0</ele><time>2026-04-19T10:37:09.001Z</time></trkpt><trkpt lat="44.47102766742391" lon="9.348754825921338"><ele>778.0</ele><time>2026-04-19T10:37:10.001Z</time></trkpt><trkpt lat="44.47102692904458" lon="9.348601047786849"><ele>778.0</ele><time>2026-04-19T10:37:11.001Z</time></trkpt><trkpt lat="44.47102388775952" lon="9.348462339538768"><ele>778.0</ele><time>2026-04-19T10:37:12.001Z</time></trkpt><trkpt lat="44.47101760931335" lon="9.348310345570868"><ele>778.0</ele><time>2026-04-19T10:37:13.001Z</time></trkpt><trkpt lat="44.47098482881319" lon="9.3481282520442"><ele>779.75</ele><time>2026-04-19T10:37:14.001Z</time></trkpt><trkpt lat="44.470921928699" lon="9.347971501199211"><ele>781.5</ele><time>2026-04-19T10:37:15.001Z</time></trkpt><trkpt lat="44.47089699379522" lon="9.347806301924424"><ele>783.25</ele><time>2026-04-19T10:37:16.001Z</time></trkpt><trkpt lat="44.47092648597891" lon="9.347638753522167"><ele>785.0</ele><time>2026-04-19T10:37:17.001Z</time></trkpt><trkpt lat="44.47092944792603" lon="9.347424283273634"><ele>787.6666666666667</ele><time>2026-04-19T10:37:18.001Z</time></trkpt><trkpt lat="44.470916403149765" lon="9.347200028573672"><ele>790.3333333333333</ele><time>2026-04-19T10:37:19.001Z</time></trkpt><trkpt lat="44.47085989950637" lon="9.346967393684219"><ele>793.0</ele><time>2026-04-19T10:37:20.001Z</time></trkpt><trkpt lat="44.4708009154339" lon="9.346715886060036"><ele>793.0</ele><time>2026-04-19T10:37:21.001Z</time></trkpt><trkpt lat="44.470727818944894" lon="9.34644760955505"><ele>793.0</ele><time>2026-04-19T10:37:22.001Z</time></trkpt><trkpt lat="44.470634306261594" lon="9.346179865320778"><ele>793.0</ele><time>2026-04-19T10:37:23.001Z</time></trkpt><trkpt lat="44.47054172585093" lon="9.345925391736358"><ele>790.6666666666666</ele><time>2026-04-19T10:37:24.001Z</time></trkpt><trkpt lat="44.470433400402555" lon="9.345721578329703"><ele>788.3333333333333</ele><time>2026-04-19T10:37:25.001Z</time></trkpt><trkpt lat="44.470329148288066" lon="9.345544184971136"><ele>786.0</ele><time>2026-04-19T10:37:26.001Z</time></trkpt><trkpt lat="44.47025673873043" lon="9.345373968523615"><ele>791.5</ele><time>2026-04-19T10:37:27.001Z</time></trkpt><trkpt lat="44.47016753913828" lon="9.345271171712174"><ele>797.0</ele><time>2026-04-19T10:37:28.001Z</time></trkpt><trkpt lat="44.470066405906245" lon="9.345222076729181"><ele>802.5</ele><time>2026-04-19T10:37:29.001Z</time></trkpt><trkpt lat="44.46993554059161" lon="9.345261172366383"><ele>808.0</ele><time>2026-04-19T10:37:30.001Z</time></trkpt><trkpt lat="44.46979874323831" lon="9.345349889212383"><ele>808.0</ele><time>2026-04-19T10:37:31.001Z</time></trkpt><trkpt lat="44.469684386449764" lon="9.345421297589407"><ele>808.0</ele><time>2026-04-19T10:37:32.001Z</time></trkpt><trkpt lat="44.46958590400748" lon="9.34546591030561"><ele>808.0</ele><time>2026-04-19T10:37:33.001Z</time></trkpt><trkpt lat="44.469489768071526" lon="9.345439291317277"><ele>808.0</ele><time>2026-04-19T10:37:34.001Z</time></trkpt><trkpt lat="44.469440353801005" lon="9.3453072740644"><ele>808.0</ele><time>2026-04-19T10:37:35.001Z</time></trkpt><trkpt lat="44.46944510280036" lon="9.345151256666908"><ele>801.75</ele><time>2026-04-19T10:37:36.001Z</time></trkpt><trkpt lat="44.469472877483405" lon="9.344971753629446"><ele>795.5</ele><time>2026-04-19T10:37:37.001Z</time></trkpt><trkpt lat="44.4694962976797" lon="9.344799102608647"><ele>789.25</ele><time>2026-04-19T10:37:38.001Z</time></trkpt><trkpt lat="44.46953665562693" lon="9.344596933508342"><ele>783.0</ele><time>2026-04-19T10:37:39.001Z</time></trkpt><trkpt lat="44.46959054325874" lon="9.344401661955416"><ele>789.25</ele><time>2026-04-19T10:37:40.001Z</time></trkpt><trkpt lat="44.46967497024785" lon="9.344245151938408"><ele>795.5</ele><time>2026-04-19T10:37:41.001Z</time></trkpt><trkpt lat="44.46979960565799" lon="9.344135577345702"><ele>801.75</ele><time>2026-04-19T10:37:42.001Z</time></trkpt><trkpt lat="44.469908832810056" lon="9.343983749149647"><ele>808.0</ele><time>2026-04-19T10:37:43.001Z</time></trkpt><trkpt lat="44.46998553862784" lon="9.343798172169604"><ele>808.0</ele><time>2026-04-19T10:37:44.001Z</time></trkpt><trkpt lat="44.47007355403674" lon="9.343591268575942"><ele>808.0</ele><time>2026-04-19T10:37:45.001Z</time></trkpt><trkpt lat="44.470134984830004" lon="9.343425903691676"><ele>808.0</ele><time>2026-04-19T10:37:46.001Z</time></trkpt><trkpt lat="44.470180085803406" lon="9.343277815517956"><ele>808.0</ele><time>2026-04-19T10:37:47.001Z</time></trkpt><trkpt lat="44.47012903302832" lon="9.343117055178887"><ele>809.25</ele><time>2026-04-19T10:37:48.001Z</time></trkpt><trkpt lat="44.470044845329475" lon="9.342984219134495"><ele>810.5</ele><time>2026-04-19T10:37:49.001Z</time></trkpt><trkpt lat="44.46999912895442" lon="9.342818659328067"><ele>811.75</ele><time>2026-04-19T10:37:50.001Z</time></trkpt><trkpt lat="44.469985423569426" lon="9.342643446849342"><ele>813.0</ele><time>2026-04-19T10:37:51.001Z</time></trkpt><trkpt lat="44.470016983905225" lon="9.342470904856455"><ele>813.0</ele><time>2026-04-19T10:37:52.001Z</time></trkpt><trkpt lat="44.470036948585886" lon="9.342291564085277"><ele>813.0</ele><time>2026-04-19T10:37:53.001Z</time></trkpt><trkpt lat="44.47001735745938" lon="9.342137737184885"><ele>813.0</ele><time>2026-04-19T10:37:54.001Z</time></trkpt><trkpt lat="44.469905097770855" lon="9.342029492008049"><ele>813.0</ele><time>2026-04-19T10:37:55.001Z</time></trkpt><trkpt lat="44.46975941202137" lon="9.341961705277338"><ele>810.5</ele><time>2026-04-19T10:37:56.001Z</time></trkpt><trkpt lat="44.46965075406659" lon="9.34182509522952"><ele>808.0</ele><time>2026-04-19T10:37:57.001Z</time></trkpt><trkpt lat="44.469545170862304" lon="9.341682122919702"><ele>805.5</ele><time>2026-04-19T10:37:58.001Z</time></trkpt><trkpt lat="44.46946107378746" lon="9.341567492481088"><ele>803.0</ele><time>2026-04-19T10:37:59.001Z</time></trkpt><trkpt lat="44.46941274138794" lon="9.341457082557865"><ele>806.5999999999999</ele><time>2026-04-19T10:38:00.001Z</time></trkpt><trkpt lat="44.46941489014797" lon="9.341337720318643"><ele>810.1999999999999</ele><time>2026-04-19T10:38:01.001Z</time></trkpt><trkpt lat="44.469477792504456" lon="9.341215975778303"><ele>813.8</ele><time>2026-04-19T10:38:02.001Z</time></trkpt><trkpt lat="44.46955610845006" lon="9.341058672794146"><ele>817.4</ele><time>2026-04-19T10:38:03.001Z</time></trkpt><trkpt lat="44.46958315946875" lon="9.340900409262495"><ele>821.0</ele><time>2026-04-19T10:38:04.001Z</time></trkpt><trkpt lat="44.46950378145359" lon="9.340741483368092"><ele>821.0</ele><time>2026-04-19T10:38:05.001Z</time></trkpt><trkpt lat="44.46939622887817" lon="9.340628567091937"><ele>821.0</ele><time>2026-04-19T10:38:06.001Z</time></trkpt><trkpt lat="44.469254662888275" lon="9.340616087552391"><ele>821.0</ele><time>2026-04-19T10:38:07.001Z</time></trkpt><trkpt lat="44.46910684422936" lon="9.340644087208105"><ele>821.0</ele><time>2026-04-19T10:38:08.001Z</time></trkpt><trkpt lat="44.468999453035124" lon="9.340576530005837"><ele>823.75</ele><time>2026-04-19T10:38:09.001Z</time></trkpt><trkpt lat="44.46891264082694" lon="9.340478539916845"><ele>826.5</ele><time>2026-04-19T10:38:10.001Z</time></trkpt><trkpt lat="44.46880447758743" lon="9.340375591812174"><ele>829.25</ele><time>2026-04-19T10:38:11.001Z</time></trkpt><trkpt lat="44.468681796136174" lon="9.340286394339113"><ele>832.0</ele><time>2026-04-19T10:38:12.001Z</time></trkpt><trkpt lat="44.46854789968608" lon="9.34025628841715"><ele>832.0</ele><time>2026-04-19T10:38:13.001Z</time></trkpt><trkpt lat="44.4684422225779" lon="9.340318160836437"><ele>832.0</ele><time>2026-04-19T10:38:14.001Z</time></trkpt><trkpt lat="44.46832553029475" lon="9.340406373630834"><ele>832.0</ele><time>2026-04-19T10:38:15.001Z</time></trkpt><trkpt lat="44.468205338999624" lon="9.340452553910325"><ele>832.0</ele><time>2026-04-19T10:38:16.001Z</time></trkpt><trkpt lat="44.46808895336549" lon="9.340400926824497"><ele>832.0</ele><time>2026-04-19T10:38:17.001Z</time></trkpt><trkpt lat="44.46798982264589" lon="9.340261049831415"><ele>832.0</ele><time>2026-04-19T10:38:18.001Z</time></trkpt><trkpt lat="44.46790165979467" lon="9.340163862908858"><ele>832.0</ele><time>2026-04-19T10:38:19.001Z</time></trkpt><trkpt lat="44.46777848434217" lon="9.340167626912155"><ele>832.0</ele><time>2026-04-19T10:38:20.001Z</time></trkpt><trkpt lat="44.46766056981605" lon="9.34026954606853"><ele>832.25</ele><time>2026-04-19T10:38:21.001Z</time></trkpt><trkpt lat="44.46755762798495" lon="9.34040015552171"><ele>832.5</ele><time>2026-04-19T10:38:22.001Z</time></trkpt><trkpt lat="44.46743876859063" lon="9.340434872099557"><ele>832.75</ele><time>2026-04-19T10:38:23.001Z</time></trkpt><trkpt lat="44.467315792215395" lon="9.340362225588489"><ele>833.0</ele><time>2026-04-19T10:38:24.001Z</time></trkpt><trkpt lat="44.46718929020978" lon="9.340260573218757"><ele>834.6666666666667</ele><time>2026-04-19T10:38:25.001Z</time></trkpt><trkpt lat="44.467045681646695" lon="9.340149798739057"><ele>836.3333333333333</ele><time>2026-04-19T10:38:26.001Z</time></trkpt><trkpt lat="44.466905318577275" lon="9.340067808717192"><ele>838.0</ele><time>2026-04-19T10:38:27.001Z</time></trkpt><trkpt lat="44.466742210232816" lon="9.340050116036492"><ele>838.0</ele><time>2026-04-19T10:38:28.001Z</time></trkpt><trkpt lat="44.46659369673619" lon="9.34011479881297"><ele>838.0</ele><time>2026-04-19T10:38:29.001Z</time></trkpt><trkpt lat="44.46644880216892" lon="9.340229321477707"><ele>838.0</ele><time>2026-04-19T10:38:30.001Z</time></trkpt><trkpt lat="44.466301677314476" lon="9.340298145368422"><ele>838.5</ele><time>2026-04-19T10:38:31.001Z</time></trkpt><trkpt lat="44.46618469899641" lon="9.340330679878708"><ele>839.0</ele><time>2026-04-19T10:38:32.001Z</time></trkpt><trkpt lat="44.46606503423719" lon="9.34029460889302"><ele>839.5</ele><time>2026-04-19T10:38:33.001Z</time></trkpt><trkpt lat="44.465940683630905" lon="9.34019426903646"><ele>840.0</ele><time>2026-04-19T10:38:34.001Z</time></trkpt><trkpt lat="44.46581296109697" lon="9.340089751909282"><ele>840.0</ele><time>2026-04-19T10:38:35.001Z</time></trkpt><trkpt lat="44.465687560794954" lon="9.339975439056936"><ele>840.0</ele><time>2026-04-19T10:38:36.001Z</time></trkpt><trkpt lat="44.465553123914994" lon="9.339889261206654"><ele>840.0</ele><time>2026-04-19T10:38:37.001Z</time></trkpt><trkpt lat="44.4653964292661" lon="9.339915467036683"><ele>838.0</ele><time>2026-04-19T10:38:38.001Z</time></trkpt><trkpt lat="44.465253839235146" lon="9.339983733491872"><ele>836.0</ele><time>2026-04-19T10:38:39.001Z</time></trkpt><trkpt lat="44.46512830478829" lon="9.340015698240311"><ele>834.0</ele><time>2026-04-19T10:38:40.001Z</time></trkpt><trkpt lat="44.46502548905874" lon="9.339907976736358"><ele>832.0</ele><time>2026-04-19T10:38:41.001Z</time></trkpt><trkpt lat="44.46493726893993" lon="9.339734551039776"><ele>837.75</ele><time>2026-04-19T10:38:42.001Z</time></trkpt><trkpt lat="44.46484565066876" lon="9.33965276087218"><ele>843.5</ele><time>2026-04-19T10:38:43.001Z</time></trkpt><trkpt lat="44.46473324174116" lon="9.339622669270938"><ele>849.25</ele><time>2026-04-19T10:38:44.001Z</time></trkpt><trkpt lat="44.46461837509948" lon="9.339658702693349"><ele>855.0</ele><time>2026-04-19T10:38:45.001Z</time></trkpt><trkpt lat="44.464523269106174" lon="9.33979297152631"><ele>855.0</ele><time>2026-04-19T10:38:46.001Z</time></trkpt><trkpt lat="44.46445043303532" lon="9.339993374830568"><ele>855.0</ele><time>2026-04-19T10:38:47.001Z</time></trkpt><trkpt lat="44.46438490880554" lon="9.340169586648278"><ele>855.0</ele><time>2026-04-19T10:38:48.001Z</time></trkpt><trkpt lat="44.46429945182409" lon="9.340290061338473"><ele>855.0</ele><time>2026-04-19T10:38:49.001Z</time></trkpt><trkpt lat="44.46414752099651" lon="9.340402012893751"><ele>855.0</ele><time>2026-04-19T10:38:50.001Z</time></trkpt><trkpt lat="44.46397307559861" lon="9.34047304276945"><ele>855.0</ele><time>2026-04-19T10:38:51.001Z</time></trkpt><trkpt lat="44.46381802973371" lon="9.34059816611238"><ele>855.0</ele><time>2026-04-19T10:38:52.001Z</time></trkpt><trkpt lat="44.463688343409366" lon="9.340741779112708"><ele>854.6666666666667</ele><time>2026-04-19T10:38:53.001Z</time></trkpt><trkpt lat="44.46355390329922" lon="9.340924206809198"><ele>854.3333333333334</ele><time>2026-04-19T10:38:54.001Z</time></trkpt><trkpt lat="44.463418447478375" lon="9.341103207812886"><ele>854.0</ele><time>2026-04-19T10:38:55.001Z</time></trkpt><trkpt lat="44.46330051453279" lon="9.341279191155252"><ele>850.0</ele><time>2026-04-19T10:38:56.001Z</time></trkpt><trkpt lat="44.463198887540564" lon="9.341435847357642"><ele>846.0</ele><time>2026-04-19T10:38:57.001Z</time></trkpt><trkpt lat="44.463093165706496" lon="9.34156154036489"><ele>842.0</ele><time>2026-04-19T10:38:58.001Z</time></trkpt><trkpt lat="44.46297276353817" lon="9.34162144062857"><ele>838.0</ele><time>2026-04-19T10:38:59.001Z</time></trkpt><trkpt lat="44.462837222431325" lon="9.341584183340844"><ele>838.0</ele><time>2026-04-19T10:39:00.001Z</time></trkpt><trkpt lat="44.46270858115378" lon="9.341501863626705"><ele>838.0</ele><time>2026-04-19T10:39:01.001Z</time></trkpt><trkpt lat="44.46256892305677" lon="9.341496370539524"><ele>838.0</ele><time>2026-04-19T10:39:02.001Z</time></trkpt><trkpt lat="44.46243039537614" lon="9.34148604271991"><ele>838.0</ele><time>2026-04-19T10:39:03.001Z</time></trkpt><trkpt lat="44.4623313140707" lon="9.341444334884747"><ele>840.5999999999999</ele><time>2026-04-19T10:39:04.001Z</time></trkpt><trkpt lat="44.46227507611966" lon="9.341363435933983"><ele>843.1999999999999</ele><time>2026-04-19T10:39:05.001Z</time></trkpt><trkpt lat="44.46227460105498" lon="9.341244569052865"><ele>845.8</ele><time>2026-04-19T10:39:06.001Z</time></trkpt><trkpt lat="44.46230049070747" lon="9.341091994014091"><ele>848.4</ele><time>2026-04-19T10:39:07.001Z</time></trkpt><trkpt lat="44.462395302125955" lon="9.34097804825986"><ele>851.0</ele><time>2026-04-19T10:39:08.001Z</time></trkpt><trkpt lat="44.462508322351745" lon="9.340835945697572"><ele>851.0</ele><time>2026-04-19T10:39:09.001Z</time></trkpt><trkpt lat="44.462609894326796" lon="9.340685221438294"><ele>851.0</ele><time>2026-04-19T10:39:10.001Z</time></trkpt><trkpt lat="44.46272232038087" lon="9.34053619227348"><ele>851.0</ele><time>2026-04-19T10:39:11.001Z</time></trkpt><trkpt lat="44.46286063270862" lon="9.340383978088349"><ele>854.3333333333334</ele><time>2026-04-19T10:39:12.001Z</time></trkpt><trkpt lat="44.46299700224608" lon="9.340216907043526"><ele>857.6666666666667</ele><time>2026-04-19T10:39:13.001Z</time></trkpt><trkpt lat="44.4631148427745" lon="9.340046612951397"><ele>861.0</ele><time>2026-04-19T10:39:14.001Z</time></trkpt><trkpt lat="44.4632044687442" lon="9.33984154913136"><ele>860.3333333333333</ele><time>2026-04-19T10:39:15.001Z</time></trkpt><trkpt lat="44.46324505538538" lon="9.339597665773486"><ele>859.6666666666666</ele><time>2026-04-19T10:39:16.001Z</time></trkpt><trkpt lat="44.46326942467415" lon="9.33933732382497"><ele>859.0</ele><time>2026-04-19T10:39:17.001Z</time></trkpt><trkpt lat="44.46332312952448" lon="9.339099746712964"><ele>859.0</ele><time>2026-04-19T10:39:18.001Z</time></trkpt><trkpt lat="44.46340981581203" lon="9.338897788265072"><ele>859.0</ele><time>2026-04-19T10:39:19.001Z</time></trkpt><trkpt lat="44.463469927322606" lon="9.338684686926387"><ele>859.0</ele><time>2026-04-19T10:39:20.001Z</time></trkpt><trkpt lat="44.46350899848348" lon="9.338449448217782"><ele>857.6666666666666</ele><time>2026-04-19T10:39:21.001Z</time></trkpt><trkpt lat="44.463502733853375" lon="9.338212197242303"><ele>856.3333333333333</ele><time>2026-04-19T10:39:22.001Z</time></trkpt><trkpt lat="44.46348355242311" lon="9.337999480472524"><ele>855.0</ele><time>2026-04-19T10:39:23.001Z</time></trkpt><trkpt lat="44.46353647633284" lon="9.337820477453153"><ele>855.0</ele><time>2026-04-19T10:39:24.001Z</time></trkpt><trkpt lat="44.46359410309279" lon="9.337639092097486"><ele>855.0</ele><time>2026-04-19T10:39:25.001Z</time></trkpt><trkpt lat="44.4636396632847" lon="9.33745632901469"><ele>855.0</ele><time>2026-04-19T10:39:26.001Z</time></trkpt><trkpt lat="44.46365748732293" lon="9.33726157234751"><ele>855.0</ele><time>2026-04-19T10:39:27.001Z</time></trkpt><trkpt lat="44.46359606016111" lon="9.337052351738592"><ele>863.3333333333333</ele><time>2026-04-19T10:39:28.001Z</time></trkpt><trkpt lat="44.46348729448365" lon="9.33686871209703"><ele>871.6666666666666</ele><time>2026-04-19T10:39:29.001Z</time></trkpt><trkpt lat="44.46335152502304" lon="9.336713111874852"><ele>880.0</ele><time>2026-04-19T10:39:30.001Z</time></trkpt><trkpt lat="44.46320108020203" lon="9.336569710327682"><ele>880.0</ele><time>2026-04-19T10:39:31.001Z</time></trkpt><trkpt lat="44.46305357373111" lon="9.336446423203284"><ele>880.0</ele><time>2026-04-19T10:39:32.001Z</time></trkpt><trkpt lat="44.46291424069387" lon="9.336348766363198"><ele>880.0</ele><time>2026-04-19T10:39:33.001Z</time></trkpt><trkpt lat="44.4627957909331" lon="9.336261650603614"><ele>876.5</ele><time>2026-04-19T10:39:34.001Z</time></trkpt><trkpt lat="44.462720651619655" lon="9.336122532827867"><ele>873.0</ele><time>2026-04-19T10:39:35.001Z</time></trkpt><trkpt lat="44.46267910319531" lon="9.335999408638575"><ele>869.5</ele><time>2026-04-19T10:39:36.001Z</time></trkpt><trkpt lat="44.46261724061186" lon="9.335853924043688"><ele>866.0</ele><time>2026-04-19T10:39:37.001Z</time></trkpt><trkpt lat="44.462583288882925" lon="9.335702327631568"><ele>866.0</ele><time>2026-04-19T10:39:38.001Z</time></trkpt><trkpt lat="44.462566375987784" lon="9.335610262731636"><ele>865.9999999999999</ele><time>2026-04-19T10:39:39.001Z</time></trkpt><trkpt lat="44.46259784062599" lon="9.335483282511005"><ele>865.9999999999999</ele><time>2026-04-19T10:39:40.001Z</time></trkpt><trkpt lat="44.46267563342975" lon="9.335359747380869"><ele>866.0</ele><time>2026-04-19T10:39:41.001Z</time></trkpt><trkpt lat="44.462735146654815" lon="9.335226868397301"><ele>866.0</ele><time>2026-04-19T10:39:42.001Z</time></trkpt><trkpt lat="44.46280152508565" lon="9.335121898269037"><ele>869.0000000000001</ele><time>2026-04-19T10:39:44.001Z</time></trkpt><trkpt lat="44.46284089181014" lon="9.33504328821766"><ele>872.0</ele><time>2026-04-19T10:39:46.001Z</time></trkpt><trkpt lat="44.46287753041953" lon="9.334965783010011"><ele>875.0</ele><time>2026-04-19T10:39:50.001Z</time></trkpt><trkpt lat="44.46290733323651" lon="9.334859980935132"><ele>878.0</ele><time>2026-04-19T10:41:46Z</time></trkpt><trkpt lat="44.462944902315755" lon="9.334781858667046"><ele>881.0000000000001</ele><time>2026-04-19T10:41:47Z</time></trkpt><trkpt lat="44.462977127714694" lon="9.334667540281508"><ele>884.0</ele><time>2026-04-19T10:41:48Z</time></trkpt><trkpt lat="44.46301478753314" lon="9.334542772795997"><ele>884.0</ele><time>2026-04-19T10:41:49Z</time></trkpt><trkpt lat="44.463058227053146" lon="9.334424694348865"><ele>884.0000000000001</ele><time>2026-04-19T10:41:50Z</time></trkpt><trkpt lat="44.46309983426806" lon="9.334285466522914"><ele>884.0000000000001</ele><time>2026-04-19T10:41:51Z</time></trkpt><trkpt lat="44.463141625676016" lon="9.33413900160582"><ele>884.0</ele><time>2026-04-19T10:41:52Z</time></trkpt><trkpt lat="44.46318723697678" lon="9.33398110115999"><ele>884.0</ele><time>2026-04-19T10:41:53Z</time></trkpt><trkpt lat="44.463218613168415" lon="9.333806626130569"><ele>882.0</ele><time>2026-04-19T10:41:54Z</time></trkpt><trkpt lat="44.463218595219224" lon="9.333620722065797"><ele>880.0</ele><time>2026-04-19T10:41:55Z</time></trkpt><trkpt lat="44.46319202472911" lon="9.3334267197631"><ele>878.0</ele><time>2026-04-19T10:41:56Z</time></trkpt><trkpt lat="44.46315916410143" lon="9.333247863421311"><ele>876.0</ele><time>2026-04-19T10:41:57Z</time></trkpt><trkpt lat="44.46314031186019" lon="9.333076341795707"><ele>873.5</ele><time>2026-04-19T10:41:58Z</time></trkpt><trkpt lat="44.46315661740292" lon="9.332916997196213"><ele>871.0</ele><time>2026-04-19T10:41:59Z</time></trkpt><trkpt lat="44.46323496307595" lon="9.33278335317496"><ele>868.5</ele><time>2026-04-19T10:42:00Z</time></trkpt><trkpt lat="44.46336902071473" lon="9.332747797215557"><ele>866.0</ele><time>2026-04-19T10:42:01Z</time></trkpt><trkpt lat="44.46352481364305" lon="9.332713030282935"><ele>866.0</ele><time>2026-04-19T10:42:02Z</time></trkpt><trkpt lat="44.46365907812161" lon="9.332626980885145"><ele>866.0</ele><time>2026-04-19T10:42:03Z</time></trkpt><trkpt lat="44.46376492426536" lon="9.332526718794428"><ele>866.0</ele><time>2026-04-19T10:42:04Z</time></trkpt><trkpt lat="44.46387942717414" lon="9.3324755398737"><ele>866.0</ele><time>2026-04-19T10:42:05Z</time></trkpt><trkpt lat="44.463990951281524" lon="9.33247339935359"><ele>868.3333333333334</ele><time>2026-04-19T10:42:06Z</time></trkpt><trkpt lat="44.46417312239462" lon="9.332572638506267"><ele>870.6666666666667</ele><time>2026-04-19T10:42:07Z</time></trkpt><trkpt lat="44.46432136994082" lon="9.332609225540867"><ele>873.0</ele><time>2026-04-19T10:42:08Z</time></trkpt><trkpt lat="44.46445936831316" lon="9.332566785662571"><ele>873.0</ele><time>2026-04-19T10:42:09Z</time></trkpt><trkpt lat="44.464578806471756" lon="9.332478990004006"><ele>873.0</ele><time>2026-04-19T10:42:10Z</time></trkpt><trkpt lat="44.464688698655216" lon="9.332281065163281"><ele>873.0</ele><time>2026-04-19T10:42:11Z</time></trkpt><trkpt lat="44.4647661718541" lon="9.332104636197675"><ele>868.3333333333333</ele><time>2026-04-19T10:42:12Z</time></trkpt><trkpt lat="44.46489696637004" lon="9.332034676504616"><ele>863.6666666666666</ele><time>2026-04-19T10:42:13Z</time></trkpt><trkpt lat="44.465078310833384" lon="9.331971020422268"><ele>859.0</ele><time>2026-04-19T10:42:14Z</time></trkpt><trkpt lat="44.46525221311438" lon="9.331889435401195"><ele>859.0</ele><time>2026-04-19T10:42:15Z</time></trkpt><trkpt lat="44.465377355458216" lon="9.33177923489555"><ele>859.0</ele><time>2026-04-19T10:42:16Z</time></trkpt><trkpt lat="44.46548898364905" lon="9.331682289782592"><ele>859.0</ele><time>2026-04-19T10:42:17Z</time></trkpt><trkpt lat="44.46555817908444" lon="9.3315159994846"><ele>859.0</ele><time>2026-04-19T10:42:18Z</time></trkpt><trkpt lat="44.465560715051936" lon="9.33131147042353"><ele>858.5</ele><time>2026-04-19T10:42:19Z</time></trkpt><trkpt lat="44.465543187950445" lon="9.331124118073811"><ele>858.0</ele><time>2026-04-19T10:42:20Z</time></trkpt><trkpt lat="44.4656485929834" lon="9.331055574457505"><ele>857.5</ele><time>2026-04-19T10:42:21Z</time></trkpt><trkpt lat="44.46579421666789" lon="9.330976420095238"><ele>857.0</ele><time>2026-04-19T10:42:22Z</time></trkpt><trkpt lat="44.465940338902605" lon="9.330915628080914"><ele>857.0</ele><time>2026-04-19T10:42:23Z</time></trkpt><trkpt lat="44.46608149613855" lon="9.33087937981418"><ele>857.0</ele><time>2026-04-19T10:42:24Z</time></trkpt><trkpt lat="44.466214710189604" lon="9.330800020809704"><ele>857.0</ele><time>2026-04-19T10:42:25Z</time></trkpt><trkpt lat="44.466322122343996" lon="9.330674090799274"><ele>857.0</ele><time>2026-04-19T10:42:26Z</time></trkpt><trkpt lat="44.46637006739445" lon="9.330442954929625"><ele>855.3333333333334</ele><time>2026-04-19T10:42:27Z</time></trkpt><trkpt lat="44.46641008925945" lon="9.330219101586689"><ele>853.6666666666667</ele><time>2026-04-19T10:42:28Z</time></trkpt><trkpt lat="44.466484958622516" lon="9.330031572036924"><ele>852.0</ele><time>2026-04-19T10:42:29Z</time></trkpt><trkpt lat="44.466546360564905" lon="9.32984873028226"><ele>851.5</ele><time>2026-04-19T10:42:30Z</time></trkpt><trkpt lat="44.466565426938644" lon="9.329682803822124"><ele>851.0</ele><time>2026-04-19T10:42:31Z</time></trkpt><trkpt lat="44.46652822605061" lon="9.329512401067703"><ele>850.5</ele><time>2026-04-19T10:42:32Z</time></trkpt><trkpt lat="44.46640730980072" lon="9.329366582041876"><ele>850.0</ele><time>2026-04-19T10:42:33Z</time></trkpt><trkpt lat="44.46635695352143" lon="9.329181242321313"><ele>850.0</ele><time>2026-04-19T10:42:34Z</time></trkpt><trkpt lat="44.46638169791732" lon="9.329007758920591"><ele>850.0</ele><time>2026-04-19T10:42:35Z</time></trkpt><trkpt lat="44.4664821980177" lon="9.328870417183074"><ele>850.0</ele><time>2026-04-19T10:42:36Z</time></trkpt><trkpt lat="44.46656539915252" lon="9.328794971526282"><ele>850.0</ele><time>2026-04-19T10:42:37Z</time></trkpt><trkpt lat="44.46675396838568" lon="9.328758833932397"><ele>850.6666666666666</ele><time>2026-04-19T10:42:38Z</time></trkpt><trkpt lat="44.46692115306842" lon="9.328701494735808"><ele>851.3333333333333</ele><time>2026-04-19T10:42:39Z</time></trkpt><trkpt lat="44.46709836103913" lon="9.328635261841363"><ele>852.0</ele><time>2026-04-19T10:42:40Z</time></trkpt><trkpt lat="44.46724287734797" lon="9.328533888669316"><ele>852.0</ele><time>2026-04-19T10:42:41Z</time></trkpt><trkpt lat="44.46735729333349" lon="9.32839107849011"><ele>852.0</ele><time>2026-04-19T10:42:42Z</time></trkpt><trkpt lat="44.46741214343904" lon="9.328184318736728"><ele>852.0</ele><time>2026-04-19T10:42:43Z</time></trkpt><trkpt lat="44.467430238829614" lon="9.327974848620427"><ele>849.75</ele><time>2026-04-19T10:42:44Z</time></trkpt><trkpt lat="44.467409091747754" lon="9.32778085108569"><ele>847.5</ele><time>2026-04-19T10:42:45Z</time></trkpt><trkpt lat="44.467389898599734" lon="9.32761645009438"><ele>845.25</ele><time>2026-04-19T10:42:46Z</time></trkpt><trkpt lat="44.467427334271534" lon="9.327492524089656"><ele>843.0</ele><time>2026-04-19T10:42:47Z</time></trkpt><trkpt lat="44.46749994326497" lon="9.3273698333527"><ele>843.0</ele><time>2026-04-19T10:42:48Z</time></trkpt><trkpt lat="44.46763447736924" lon="9.327476722008305"><ele>843.0</ele><time>2026-04-19T10:42:49Z</time></trkpt><trkpt lat="44.467735969445236" lon="9.327579544010847"><ele>843.0</ele><time>2026-04-19T10:42:50Z</time></trkpt><trkpt lat="44.46789179783855" lon="9.327729101644769"><ele>842.6666666666667</ele><time>2026-04-19T10:42:51Z</time></trkpt><trkpt lat="44.46803128591573" lon="9.327897977703659"><ele>842.3333333333334</ele><time>2026-04-19T10:42:52Z</time></trkpt><trkpt lat="44.46817863109276" lon="9.327986724344902"><ele>842.0</ele><time>2026-04-19T10:42:53Z</time></trkpt><trkpt lat="44.46832776644824" lon="9.327983412351646"><ele>842.0</ele><time>2026-04-19T10:42:54Z</time></trkpt><trkpt lat="44.468476522440554" lon="9.327911292456813"><ele>842.0</ele><time>2026-04-19T10:42:55Z</time></trkpt><trkpt lat="44.468648240263704" lon="9.327848522649699"><ele>842.0</ele><time>2026-04-19T10:42:56Z</time></trkpt><trkpt lat="44.46881251583186" lon="9.327769824008493"><ele>842.6666666666667</ele><time>2026-04-19T10:42:57Z</time></trkpt><trkpt lat="44.46895162752296" lon="9.327639394423352"><ele>843.3333333333333</ele><time>2026-04-19T10:42:58Z</time></trkpt><trkpt lat="44.46905499614779" lon="9.327438427923372"><ele>844.0</ele><time>2026-04-19T10:42:59Z</time></trkpt><trkpt lat="44.46915479580465" lon="9.32722600080142"><ele>842.3333333333333</ele><time>2026-04-19T10:43:00Z</time></trkpt><trkpt lat="44.4692760220042" lon="9.327029506902386"><ele>840.6666666666667</ele><time>2026-04-19T10:43:01Z</time></trkpt><trkpt lat="44.46938599057738" lon="9.326849596832135"><ele>839.0</ele><time>2026-04-19T10:43:02Z</time></trkpt><trkpt lat="44.46949816957714" lon="9.326680588218291"><ele>839.0</ele><time>2026-04-19T10:43:03Z</time></trkpt><trkpt lat="44.46960584332248" lon="9.326514203784747"><ele>839.0</ele><time>2026-04-19T10:43:04Z</time></trkpt><trkpt lat="44.46974416557483" lon="9.326412274743575"><ele>839.0</ele><time>2026-04-19T10:43:05Z</time></trkpt><trkpt lat="44.469891523239504" lon="9.326356336102803"><ele>838.6666666666667</ele><time>2026-04-19T10:43:06Z</time></trkpt><trkpt lat="44.47004409810764" lon="9.326362940349107"><ele>838.3333333333333</ele><time>2026-04-19T10:43:07Z</time></trkpt><trkpt lat="44.470206084601436" lon="9.326414955467397"><ele>838.0</ele><time>2026-04-19T10:43:08Z</time></trkpt><trkpt lat="44.4703777304317" lon="9.326536053278602"><ele>841.0</ele><time>2026-04-19T10:43:09Z</time></trkpt><trkpt lat="44.470533935873846" lon="9.326626548592486"><ele>844.0</ele><time>2026-04-19T10:43:10Z</time></trkpt><trkpt lat="44.47069743496708" lon="9.326602078990952"><ele>847.0</ele><time>2026-04-19T10:43:11Z</time></trkpt><trkpt lat="44.470882487324346" lon="9.326493486050756"><ele>847.6666666666666</ele><time>2026-04-19T10:43:12Z</time></trkpt><trkpt lat="44.47103873326861" lon="9.326385743596626"><ele>848.3333333333333</ele><time>2026-04-19T10:43:13Z</time></trkpt><trkpt lat="44.471189420193255" lon="9.326274357927586"><ele>849.0</ele><time>2026-04-19T10:43:14Z</time></trkpt><trkpt lat="44.47129259352053" lon="9.326109324609037"><ele>849.0</ele><time>2026-04-19T10:43:15Z</time></trkpt><trkpt lat="44.471332264083884" lon="9.325843614744402"><ele>849.0</ele><time>2026-04-19T10:43:16Z</time></trkpt><trkpt lat="44.47135322047857" lon="9.325599806040275"><ele>849.0</ele><time>2026-04-19T10:43:17Z</time></trkpt><trkpt lat="44.47139405490953" lon="9.325377565592271"><ele>847.5</ele><time>2026-04-19T10:43:18Z</time></trkpt><trkpt lat="44.471440208163045" lon="9.325176758438253"><ele>846.0</ele><time>2026-04-19T10:43:19Z</time></trkpt><trkpt lat="44.47148936286393" lon="9.324980700192725"><ele>844.5</ele><time>2026-04-19T10:43:20Z</time></trkpt><trkpt lat="44.47151432974174" lon="9.324800662255873"><ele>843.0</ele><time>2026-04-19T10:43:21Z</time></trkpt><trkpt lat="44.471595210054794" lon="9.324650064051628"><ele>840.75</ele><time>2026-04-19T10:43:22Z</time></trkpt><trkpt lat="44.47170540629108" lon="9.324611898600399"><ele>838.5</ele><time>2026-04-19T10:43:23Z</time></trkpt><trkpt lat="44.47185144602687" lon="9.324607445198117"><ele>836.25</ele><time>2026-04-19T10:43:24Z</time></trkpt><trkpt lat="44.47201143853451" lon="9.324597342174394"><ele>834.0</ele><time>2026-04-19T10:43:25Z</time></trkpt><trkpt lat="44.472183965550485" lon="9.324597602107437"><ele>834.0</ele><time>2026-04-19T10:43:26Z</time></trkpt><trkpt lat="44.47233896121849" lon="9.324533653358118"><ele>834.0</ele><time>2026-04-19T10:43:27Z</time></trkpt><trkpt lat="44.47248261180768" lon="9.32444722509257"><ele>834.0</ele><time>2026-04-19T10:43:28Z</time></trkpt><trkpt lat="44.472645910781864" lon="9.324367434564024"><ele>834.0</ele><time>2026-04-19T10:43:29Z</time></trkpt><trkpt lat="44.472804163336384" lon="9.324294531837085"><ele>834.0</ele><time>2026-04-19T10:43:30Z</time></trkpt><trkpt lat="44.4729675008769" lon="9.324206181258495"><ele>834.0</ele><time>2026-04-19T10:43:31Z</time></trkpt><trkpt lat="44.473125882216195" lon="9.324126588235877"><ele>834.6666666666667</ele><time>2026-04-19T10:43:32Z</time></trkpt><trkpt lat="44.47328644716258" lon="9.324052820975176"><ele>835.3333333333334</ele><time>2026-04-19T10:43:32.999Z</time></trkpt><trkpt lat="44.47343455294372" lon="9.324005777403807"><ele>836.0</ele><time>2026-04-19T10:43:33.999Z</time></trkpt><trkpt lat="44.47360964122403" lon="9.324014554317317"><ele>835.0</ele><time>2026-04-19T10:43:34.999Z</time></trkpt><trkpt lat="44.473779117332015" lon="9.32409036865949"><ele>834.0</ele><time>2026-04-19T10:43:35.999Z</time></trkpt><trkpt lat="44.47394459862127" lon="9.324191183666365"><ele>833.0</ele><time>2026-04-19T10:43:36.999Z</time></trkpt><trkpt lat="44.47412605970648" lon="9.32430985903122"><ele>833.0</ele><time>2026-04-19T10:43:37.999Z</time></trkpt><trkpt lat="44.4743361616009" lon="9.324433755270595"><ele>833.0</ele><time>2026-04-19T10:43:38.999Z</time></trkpt><trkpt lat="44.47454337425902" lon="9.324577981812794"><ele>834.0</ele><time>2026-04-19T10:43:39.999Z</time></trkpt><trkpt lat="44.47474007046961" lon="9.324718346029076"><ele>835.0</ele><time>2026-04-19T10:43:40.999Z</time></trkpt><trkpt lat="44.47491803195607" lon="9.32483539560963"><ele>836.0</ele><time>2026-04-19T10:43:41.999Z</time></trkpt><trkpt lat="44.47509547021649" lon="9.324947110327146"><ele>836.0</ele><time>2026-04-19T10:43:42.999Z</time></trkpt><trkpt lat="44.47526853814842" lon="9.325002827805976"><ele>836.0</ele><time>2026-04-19T10:43:43.999Z</time></trkpt><trkpt lat="44.47544836674318" lon="9.324959122248188"><ele>836.0</ele><time>2026-04-19T10:43:44.999Z</time></trkpt><trkpt lat="44.4756267930859" lon="9.324824930197295"><ele>832.3333333333334</ele><time>2026-04-19T10:43:45.999Z</time></trkpt><trkpt lat="44.47579133322954" lon="9.324658919330071"><ele>828.6666666666667</ele><time>2026-04-19T10:43:46.999Z</time></trkpt><trkpt lat="44.47596834841352" lon="9.324497969789874"><ele>825.0</ele><time>2026-04-19T10:43:47.999Z</time></trkpt><trkpt lat="44.476139705161444" lon="9.324357337256414"><ele>827.0</ele><time>2026-04-19T10:43:48.999Z</time></trkpt><trkpt lat="44.47630234336029" lon="9.324291091087874"><ele>829.0</ele><time>2026-04-19T10:43:49.999Z</time></trkpt><trkpt lat="44.47644001519319" lon="9.324263594948848"><ele>831.0</ele><time>2026-04-19T10:43:50.999Z</time></trkpt><trkpt lat="44.47663280817443" lon="9.32429627065029"><ele>831.0</ele><time>2026-04-19T10:43:51.999Z</time></trkpt><trkpt lat="44.47682962519644" lon="9.324395920219745"><ele>831.0</ele><time>2026-04-19T10:43:52.999Z</time></trkpt><trkpt lat="44.47701303556844" lon="9.324492755189212"><ele>831.0</ele><time>2026-04-19T10:43:53.999Z</time></trkpt><trkpt lat="44.47722788997794" lon="9.324602646020553"><ele>829.6666666666667</ele><time>2026-04-19T10:43:54.999Z</time></trkpt><trkpt lat="44.47741973642837" lon="9.324722785749394"><ele>828.3333333333334</ele><time>2026-04-19T10:43:55.999Z</time></trkpt><trkpt lat="44.47756288514178" lon="9.3247793775873"><ele>827.0</ele><time>2026-04-19T10:43:56.999Z</time></trkpt><trkpt lat="44.47769145581549" lon="9.324846530017677"><ele>827.0000000000001</ele><time>2026-04-19T10:43:57.999Z</time></trkpt><trkpt lat="44.47778792276106" lon="9.32491700246584"><ele>827.0</ele><time>2026-04-19T10:43:58.999Z</time></trkpt><trkpt lat="44.47786114956388" lon="9.32495657224075"><ele>827.0</ele><time>2026-04-19T10:43:59.999Z</time></trkpt><trkpt lat="44.47793002555601" lon="9.32499858459289"><ele>827.0</ele><time>2026-04-19T10:44:00.999Z</time></trkpt><trkpt lat="44.47799231247972" lon="9.325042180085438"><ele>827.0000000000001</ele><time>2026-04-19T10:44:01.999Z</time></trkpt><trkpt lat="44.478060459804695" lon="9.32509325111607"><ele>827.0</ele><time>2026-04-19T10:44:02.999Z</time></trkpt><trkpt lat="44.478126899746876" lon="9.325186607290233"><ele>826.25</ele><time>2026-04-19T10:44:03.999Z</time></trkpt><trkpt lat="44.47819396234691" lon="9.325332968670734"><ele>825.5</ele><time>2026-04-19T10:44:04.999Z</time></trkpt><trkpt lat="44.478287722672455" lon="9.325530890313816"><ele>824.75</ele><time>2026-04-19T10:44:05.999Z</time></trkpt><trkpt lat="44.4783852266199" lon="9.325700505834655"><ele>824.0</ele><time>2026-04-19T10:44:06.999Z</time></trkpt><trkpt lat="44.478485645816285" lon="9.32587715066881"><ele>824.0</ele><time>2026-04-19T10:44:07.999Z</time></trkpt><trkpt lat="44.47860754182644" lon="9.326028885966556"><ele>824.0</ele><time>2026-04-19T10:44:08.999Z</time></trkpt><trkpt lat="44.478760793447904" lon="9.326108582683828"><ele>824.0</ele><time>2026-04-19T10:44:09.999Z</time></trkpt><trkpt lat="44.47893032817527" lon="9.326143428197279"><ele>823.3333333333334</ele><time>2026-04-19T10:44:10.999Z</time></trkpt><trkpt lat="44.47910369904554" lon="9.326185571585674"><ele>822.6666666666667</ele><time>2026-04-19T10:44:11.999Z</time></trkpt><trkpt lat="44.47927401507881" lon="9.326250577142368"><ele>822.0</ele><time>2026-04-19T10:44:12.999Z</time></trkpt><trkpt lat="44.47944693720194" lon="9.326314148341378"><ele>822.6666666666667</ele><time>2026-04-19T10:44:13.999Z</time></trkpt><trkpt lat="44.479626073394165" lon="9.326384750864785"><ele>823.3333333333334</ele><time>2026-04-19T10:44:14.999Z</time></trkpt><trkpt lat="44.47981039432209" lon="9.326457334452856"><ele>824.0</ele><time>2026-04-19T10:44:15.999Z</time></trkpt><trkpt lat="44.47999477560685" lon="9.326530012192737"><ele>824.0</ele><time>2026-04-19T10:44:16.999Z</time></trkpt><trkpt lat="44.48017500447243" lon="9.326628050403285"><ele>824.0</ele><time>2026-04-19T10:44:17.999Z</time></trkpt><trkpt lat="44.48033888169051" lon="9.326799120121382"><ele>824.0</ele><time>2026-04-19T10:44:18.999Z</time></trkpt><trkpt lat="44.480512757515605" lon="9.326953832432592"><ele>827.0</ele><time>2026-04-19T10:44:19.999Z</time></trkpt><trkpt lat="44.480675812132795" lon="9.327155178038797"><ele>830.0</ele><time>2026-04-19T10:44:20.999Z</time></trkpt><trkpt lat="44.48085382274745" lon="9.327371870960338"><ele>830.0</ele><time>2026-04-19T10:44:21.999Z</time></trkpt><trkpt lat="44.48103423799622" lon="9.327586792827523"><ele>830.0</ele><time>2026-04-19T10:44:22.999Z</time></trkpt><trkpt lat="44.481220520182305" lon="9.327806707351783"><ele>830.0</ele><time>2026-04-19T10:44:23.999Z</time></trkpt><trkpt lat="44.481410109132504" lon="9.32803612730492"><ele>830.0</ele><time>2026-04-19T10:44:24.999Z</time></trkpt><trkpt lat="44.481593089784994" lon="9.328247725373778"><ele>830.0</ele><time>2026-04-19T10:44:25.999Z</time></trkpt><trkpt lat="44.48180911925433" lon="9.328435295494536"><ele>830.0</ele><time>2026-04-19T10:44:26.999Z</time></trkpt><trkpt lat="44.48204072388774" lon="9.32860471386941"><ele>834.5</ele><time>2026-04-19T10:44:27.999Z</time></trkpt><trkpt lat="44.48228573238219" lon="9.328737670671279"><ele>839.0</ele><time>2026-04-19T10:44:28.999Z</time></trkpt><trkpt lat="44.48250489690249" lon="9.328885481468035"><ele>839.6666666666667</ele><time>2026-04-19T10:44:29.999Z</time></trkpt><trkpt lat="44.482717591836554" lon="9.329008165747572"><ele>840.3333333333333</ele><time>2026-04-19T10:44:30.999Z</time></trkpt><trkpt lat="44.48289962001437" lon="9.329179557368825"><ele>841.0</ele><time>2026-04-19T10:44:31.999Z</time></trkpt><trkpt lat="44.48307876309387" lon="9.3293911025945"><ele>841.0</ele><time>2026-04-19T10:44:32.999Z</time></trkpt><trkpt lat="44.48328147467326" lon="9.329636960867932"><ele>841.0</ele><time>2026-04-19T10:44:33.999Z</time></trkpt><trkpt lat="44.48350066114738" lon="9.329898947975028"><ele>841.5</ele><time>2026-04-19T10:44:34.999Z</time></trkpt><trkpt lat="44.48372922702965" lon="9.330171028636816"><ele>842.0</ele><time>2026-04-19T10:44:35.999Z</time></trkpt><trkpt lat="44.48394819727089" lon="9.33045092761394"><ele>837.5</ele><time>2026-04-19T10:44:36.999Z</time></trkpt><trkpt lat="44.48414053735179" lon="9.33066963052641"><ele>833.0</ele><time>2026-04-19T10:44:37.999Z</time></trkpt><trkpt lat="44.484324330099675" lon="9.330889274304903"><ele>833.0</ele><time>2026-04-19T10:44:38.999Z</time></trkpt><trkpt lat="44.48450119226877" lon="9.331106727154577"><ele>833.0</ele><time>2026-04-19T10:44:39.999Z</time></trkpt><trkpt lat="44.48468586447211" lon="9.331311649684636"><ele>835.0</ele><time>2026-04-19T10:44:40.999Z</time></trkpt><trkpt lat="44.484880458123484" lon="9.33152443578675"><ele>837.0</ele><time>2026-04-19T10:44:41.999Z</time></trkpt><trkpt lat="44.485034256345685" lon="9.331739319008046"><ele>837.0</ele><time>2026-04-19T10:44:42.999Z</time></trkpt><trkpt lat="44.48518442044465" lon="9.33194605467786"><ele>837.0</ele><time>2026-04-19T10:44:43.999Z</time></trkpt><trkpt lat="44.485331012323996" lon="9.332179435322878"><ele>837.0</ele><time>2026-04-19T10:44:44.999Z</time></trkpt><trkpt lat="44.48545906135284" lon="9.332407897803566"><ele>837.6666666666667</ele><time>2026-04-19T10:44:45.999Z</time></trkpt><trkpt lat="44.485573039994726" lon="9.332644181252682"><ele>838.3333333333334</ele><time>2026-04-19T10:44:46.999Z</time></trkpt><trkpt lat="44.48567628055797" lon="9.33289880988966"><ele>839.0</ele><time>2026-04-19T10:44:47.999Z</time></trkpt><trkpt lat="44.485781288984114" lon="9.333185906414052"><ele>835.3333333333334</ele><time>2026-04-19T10:44:48.999Z</time></trkpt><trkpt lat="44.48588138692709" lon="9.333453985889133"><ele>831.6666666666667</ele><time>2026-04-19T10:44:49.999Z</time></trkpt><trkpt lat="44.485963031762935" lon="9.333676238045935"><ele>828.0</ele><time>2026-04-19T10:44:50.999Z</time></trkpt><trkpt lat="44.486028105573915" lon="9.333851749863381"><ele>828.5</ele><time>2026-04-19T10:44:51.999Z</time></trkpt><trkpt lat="44.48609082001906" lon="9.334018037627652"><ele>829.0</ele><time>2026-04-19T10:44:52.999Z</time></trkpt><trkpt lat="44.48615742702298" lon="9.334147799574565"><ele>829.5</ele><time>2026-04-19T10:44:53.999Z</time></trkpt><trkpt lat="44.48620210319435" lon="9.334271793334896"><ele>830.0</ele><time>2026-04-19T10:44:54.999Z</time></trkpt><trkpt lat="44.48629806019495" lon="9.33441402221074"><ele>830.0</ele><time>2026-04-19T10:44:55.999Z</time></trkpt><trkpt lat="44.48644507383322" lon="9.334574982294932"><ele>830.0</ele><time>2026-04-19T10:44:56.999Z</time></trkpt><trkpt lat="44.48661917661466" lon="9.334746568776506"><ele>830.0</ele><time>2026-04-19T10:44:57.999Z</time></trkpt><trkpt lat="44.48676924014839" lon="9.334937790985796"><ele>827.5</ele><time>2026-04-19T10:44:58.999Z</time></trkpt><trkpt lat="44.486945601607445" lon="9.335154432149908"><ele>825.0</ele><time>2026-04-19T10:44:59.999Z</time></trkpt><trkpt lat="44.48714849542696" lon="9.335341927324702"><ele>825.0</ele><time>2026-04-19T10:45:00.999Z</time></trkpt><trkpt lat="44.48738572125083" lon="9.335500510294207"><ele>825.0</ele><time>2026-04-19T10:45:01.999Z</time></trkpt><trkpt lat="44.48763995451575" lon="9.335635583501029"><ele>825.0</ele><time>2026-04-19T10:45:02.999Z</time></trkpt><trkpt lat="44.487875831898805" lon="9.33579668913067"><ele>825.0</ele><time>2026-04-19T10:45:03.999Z</time></trkpt><trkpt lat="44.488091801624186" lon="9.335944251581829"><ele>833.5</ele><time>2026-04-19T10:45:04.999Z</time></trkpt><trkpt lat="44.48829487924814" lon="9.336093858616684"><ele>842.0</ele><time>2026-04-19T10:45:05.999Z</time></trkpt><trkpt lat="44.48849753435377" lon="9.336252843103406"><ele>834.0</ele><time>2026-04-19T10:45:06.999Z</time></trkpt><trkpt lat="44.48866908730526" lon="9.336500006654903"><ele>826.0</ele><time>2026-04-19T10:45:07.999Z</time></trkpt><trkpt lat="44.488848095794" lon="9.336745594585295"><ele>826.0</ele><time>2026-04-19T10:45:08.999Z</time></trkpt><trkpt lat="44.48900864149224" lon="9.337011207353132"><ele>826.0</ele><time>2026-04-19T10:45:09.999Z</time></trkpt><trkpt lat="44.489193182703225" lon="9.337238889386834"><ele>826.6666666666666</ele><time>2026-04-19T10:45:10.999Z</time></trkpt><trkpt lat="44.48935285230836" lon="9.337457177556843"><ele>827.3333333333333</ele><time>2026-04-19T10:45:11.999Z</time></trkpt><trkpt lat="44.48950096316486" lon="9.337664880087322"><ele>828.0</ele><time>2026-04-19T10:45:12.999Z</time></trkpt><trkpt lat="44.489643217159475" lon="9.337860873785717"><ele>825.6666666666667</ele><time>2026-04-19T10:45:13.999Z</time></trkpt><trkpt lat="44.489777504704136" lon="9.338053159248252"><ele>823.3333333333334</ele><time>2026-04-19T10:45:14.999Z</time></trkpt><trkpt lat="44.489900601684774" lon="9.338239511926096"><ele>821.0</ele><time>2026-04-19T10:45:15.999Z</time></trkpt><trkpt lat="44.490017003876915" lon="9.338431545574108"><ele>821.0</ele><time>2026-04-19T10:45:16.999Z</time></trkpt><trkpt lat="44.49013341569158" lon="9.338618069131853"><ele>821.0</ele><time>2026-04-19T10:45:17.999Z</time></trkpt><trkpt lat="44.49024342946646" lon="9.338797481004075"><ele>821.0</ele><time>2026-04-19T10:45:18.999Z</time></trkpt><trkpt lat="44.49035252761695" lon="9.338965908933524"><ele>820.3333333333334</ele><time>2026-04-19T10:45:19.999Z</time></trkpt><trkpt lat="44.49048446957148" lon="9.339102883116608"><ele>819.6666666666667</ele><time>2026-04-19T10:45:20.999Z</time></trkpt><trkpt lat="44.49063368196147" lon="9.339212155651628"><ele>819.0</ele><time>2026-04-19T10:45:21.999Z</time></trkpt><trkpt lat="44.49077053174714" lon="9.339293320886084"><ele>819.0</ele><time>2026-04-19T10:45:22.999Z</time></trkpt><trkpt lat="44.49091757406792" lon="9.339382408975213"><ele>819.0</ele><time>2026-04-19T10:45:23.999Z</time></trkpt><trkpt lat="44.49106737826363" lon="9.33946136874986"><ele>819.0</ele><time>2026-04-19T10:45:24.999Z</time></trkpt><trkpt lat="44.49121443082514" lon="9.339505583571842"><ele>819.5</ele><time>2026-04-19T10:45:25.999Z</time></trkpt><trkpt lat="44.49134809908182" lon="9.339521015313803"><ele>820.0</ele><time>2026-04-19T10:45:26.999Z</time></trkpt><trkpt lat="44.49147918094555" lon="9.339557442839194"><ele>820.5</ele><time>2026-04-19T10:45:27.999Z</time></trkpt><trkpt lat="44.491598361812336" lon="9.339632616045312"><ele>821.0</ele><time>2026-04-19T10:45:28.999Z</time></trkpt><trkpt lat="44.491701174722834" lon="9.339726639945592"><ele>820.0</ele><time>2026-04-19T10:45:29.999Z</time></trkpt><trkpt lat="44.491792216537206" lon="9.339829984729755"><ele>819.0</ele><time>2026-04-19T10:45:30.999Z</time></trkpt><trkpt lat="44.49187109138094" lon="9.339913213235116"><ele>818.0</ele><time>2026-04-19T10:45:31.999Z</time></trkpt><trkpt lat="44.49193679348584" lon="9.339979667159907"><ele>817.0</ele><time>2026-04-19T10:45:32.999Z</time></trkpt><trkpt lat="44.4920103136884" lon="9.34008178530763"><ele>816.0</ele><time>2026-04-19T10:45:34.999Z</time></trkpt><trkpt lat="44.49206612269624" lon="9.340151433069037"><ele>816.0</ele><time>2026-04-19T10:45:37.999Z</time></trkpt><trkpt lat="44.49213008968293" lon="9.340148120364747"><ele>816.0</ele><time>2026-04-19T10:46:03.999Z</time></trkpt><trkpt lat="44.49220084406043" lon="9.340197926558057"><ele>816.0</ele><time>2026-04-19T10:46:04.999Z</time></trkpt><trkpt lat="44.4922937428634" lon="9.34029198917644"><ele>816.0</ele><time>2026-04-19T10:46:05.999Z</time></trkpt><trkpt lat="44.49237946847702" lon="9.34043203977689"><ele>816.0</ele><time>2026-04-19T10:46:06.999Z</time></trkpt><trkpt lat="44.49247223008779" lon="9.340594834894643"><ele>816.0</ele><time>2026-04-19T10:46:07.999Z</time></trkpt><trkpt lat="44.49257412218224" lon="9.340782967186888"><ele>816.0</ele><time>2026-04-19T10:46:08.999Z</time></trkpt><trkpt lat="44.49266181353839" lon="9.340975095339443"><ele>816.0</ele><time>2026-04-19T10:46:09.999Z</time></trkpt><trkpt lat="44.49274363423106" lon="9.341141817199984"><ele>816.0</ele><time>2026-04-19T10:46:10.999Z</time></trkpt><trkpt lat="44.49283198892724" lon="9.341305921342562"><ele>816.0</ele><time>2026-04-19T10:46:11.999Z</time></trkpt><trkpt lat="44.49291226056443" lon="9.341479492643476"><ele>816.0</ele><time>2026-04-19T10:46:12.999Z</time></trkpt><trkpt lat="44.49297383485914" lon="9.341679362722907"><ele>816.3333333333333</ele><time>2026-04-19T10:46:13.999Z</time></trkpt><trkpt lat="44.49297108723258" lon="9.34192998730385"><ele>816.6666666666666</ele><time>2026-04-19T10:46:14.999Z</time></trkpt><trkpt lat="44.49301476242312" lon="9.34222217606662"><ele>817.0</ele><time>2026-04-19T10:46:15.999Z</time></trkpt><trkpt lat="44.493056537615985" lon="9.342526825562537"><ele>818.3333333333333</ele><time>2026-04-19T10:46:16.999Z</time></trkpt><trkpt lat="44.49309892739681" lon="9.342823991111933"><ele>819.6666666666667</ele><time>2026-04-19T10:46:17.999Z</time></trkpt><trkpt lat="44.49313202303927" lon="9.34310409163579"><ele>821.0</ele><time>2026-04-19T10:46:18.999Z</time></trkpt><trkpt lat="44.49316115596398" lon="9.343362518813445"><ele>822.0</ele><time>2026-04-19T10:46:19.999Z</time></trkpt><trkpt lat="44.49319376478892" lon="9.343593308132874"><ele>823.0</ele><time>2026-04-19T10:46:20.999Z</time></trkpt><trkpt lat="44.4932515355152" lon="9.343813615162905"><ele>824.0</ele><time>2026-04-19T10:46:21.999Z</time></trkpt><trkpt lat="44.493343832662674" lon="9.343996250674087"><ele>822.0</ele><time>2026-04-19T10:46:22.999Z</time></trkpt><trkpt lat="44.4934871208266" lon="9.34410897779026"><ele>820.0</ele><time>2026-04-19T10:46:23.999Z</time></trkpt><trkpt lat="44.49367404127173" lon="9.344231073360168"><ele>818.0</ele><time>2026-04-19T10:46:24.999Z</time></trkpt><trkpt lat="44.49385948182812" lon="9.344351899063508"><ele>817.6666666666667</ele><time>2026-04-19T10:46:25.999Z</time></trkpt><trkpt lat="44.49403177065173" lon="9.344478629179788"><ele>817.3333333333333</ele><time>2026-04-19T10:46:26.999Z</time></trkpt><trkpt lat="44.494207715445405" lon="9.344625054430836"><ele>817.0</ele><time>2026-04-19T10:46:27.999Z</time></trkpt><trkpt lat="44.4943217935359" lon="9.344740791149032"><ele>817.0</ele><time>2026-04-19T10:46:28.999Z</time></trkpt><trkpt lat="44.49444154613533" lon="9.344887274542366"><ele>817.0</ele><time>2026-04-19T10:46:29.999Z</time></trkpt><trkpt lat="44.49452876665612" lon="9.345085442241128"><ele>817.0</ele><time>2026-04-19T10:46:30.999Z</time></trkpt><trkpt lat="44.49462348896661" lon="9.345281422340584"><ele>818.3333333333333</ele><time>2026-04-19T10:46:31.999Z</time></trkpt><trkpt lat="44.49473853504806" lon="9.34539452524288"><ele>819.6666666666667</ele><time>2026-04-19T10:46:32.999Z</time></trkpt><trkpt lat="44.494842342654096" lon="9.345560072289686"><ele>821.0</ele><time>2026-04-19T10:46:33.999Z</time></trkpt><trkpt lat="44.49496104479113" lon="9.34575625114262"><ele>818.3333333333334</ele><time>2026-04-19T10:46:34.999Z</time></trkpt><trkpt lat="44.495056151903974" lon="9.34595704982411"><ele>815.6666666666667</ele><time>2026-04-19T10:46:35.999Z</time></trkpt><trkpt lat="44.49513775933151" lon="9.346195909727577"><ele>813.0</ele><time>2026-04-19T10:46:36.999Z</time></trkpt><trkpt lat="44.495200457123616" lon="9.34642313912421"><ele>813.0</ele><time>2026-04-19T10:46:37.999Z</time></trkpt><trkpt lat="44.49526318051146" lon="9.346613609724514"><ele>813.0</ele><time>2026-04-19T10:46:38.999Z</time></trkpt><trkpt lat="44.49529955641911" lon="9.34676362203924"><ele>813.0</ele><time>2026-04-19T10:46:39.999Z</time></trkpt><trkpt lat="44.4953288853011" lon="9.346863739646116"><ele>813.0</ele><time>2026-04-19T10:46:40.999Z</time></trkpt><trkpt lat="44.49546422285777" lon="9.346937710565582"><ele>812.75</ele><time>2026-04-19T10:46:42.999Z</time></trkpt><trkpt lat="44.495543479754836" lon="9.346970719357008"><ele>812.5</ele><time>2026-04-19T10:46:43.999Z</time></trkpt><trkpt lat="44.49569006437492" lon="9.346966969258448"><ele>812.25</ele><time>2026-04-19T10:46:44.999Z</time></trkpt><trkpt lat="44.495835315798" lon="9.346973975739168"><ele>812.0</ele><time>2026-04-19T10:46:45.999Z</time></trkpt><trkpt lat="44.49599781350086" lon="9.34700976564821"><ele>812.0</ele><time>2026-04-19T10:46:46.999Z</time></trkpt><trkpt lat="44.49614598539317" lon="9.347142418671611"><ele>812.0</ele><time>2026-04-19T10:46:47.999Z</time></trkpt><trkpt lat="44.49629067666068" lon="9.347316340090158"><ele>812.0</ele><time>2026-04-19T10:46:48.999Z</time></trkpt><trkpt lat="44.49640768493454" lon="9.347542479355232"><ele>811.3333333333334</ele><time>2026-04-19T10:46:49.999Z</time></trkpt><trkpt lat="44.49646844645093" lon="9.347776557104886"><ele>810.6666666666667</ele><time>2026-04-19T10:46:50.999Z</time></trkpt><trkpt lat="44.49650490319036" lon="9.348016178728654"><ele>810.0</ele><time>2026-04-19T10:46:51.999Z</time></trkpt><trkpt lat="44.4965681616487" lon="9.348333807261515"><ele>813.0</ele><time>2026-04-19T10:46:52.999Z</time></trkpt><trkpt lat="44.496615324840484" lon="9.348659428637271"><ele>816.0</ele><time>2026-04-19T10:46:53.999Z</time></trkpt><trkpt lat="44.496694591704696" lon="9.348996505044525"><ele>817.6666666666667</ele><time>2026-04-19T10:46:54.999Z</time></trkpt><trkpt lat="44.496768901849414" lon="9.349325458360358"><ele>819.3333333333334</ele><time>2026-04-19T10:46:55.999Z</time></trkpt><trkpt lat="44.49682467125305" lon="9.349582762240068"><ele>821.0</ele><time>2026-04-19T10:46:56.999Z</time></trkpt><trkpt lat="44.496879178271236" lon="9.349785916277641"><ele>821.5</ele><time>2026-04-19T10:46:57.999Z</time></trkpt><trkpt lat="44.496949078157144" lon="9.349948519303307"><ele>822.0</ele><time>2026-04-19T10:46:58.999Z</time></trkpt><trkpt lat="44.49704234750546" lon="9.350084561689712"><ele>822.5</ele><time>2026-04-19T10:46:59.999Z</time></trkpt><trkpt lat="44.49716957590374" lon="9.350177688764965"><ele>823.0</ele><time>2026-04-19T10:47:00.999Z</time></trkpt><trkpt lat="44.49732587486601" lon="9.350285063643074"><ele>823.3333333333333</ele><time>2026-04-19T10:47:01.999Z</time></trkpt><trkpt lat="44.49747994425007" lon="9.350437205161715"><ele>823.6666666666667</ele><time>2026-04-19T10:47:02.999Z</time></trkpt><trkpt lat="44.49764327986468" lon="9.350636426303385"><ele>824.0</ele><time>2026-04-19T10:47:03.999Z</time></trkpt><trkpt lat="44.49783328309542" lon="9.350844066558464"><ele>822.0</ele><time>2026-04-19T10:47:04.999Z</time></trkpt><trkpt lat="44.49800712465089" lon="9.35103216489874"><ele>820.0</ele><time>2026-04-19T10:47:05.999Z</time></trkpt><trkpt lat="44.49815719032483" lon="9.351210538491895"><ele>818.0</ele><time>2026-04-19T10:47:06.999Z</time></trkpt><trkpt lat="44.498256396695375" lon="9.351412550375588"><ele>818.0</ele><time>2026-04-19T10:47:07.999Z</time></trkpt><trkpt lat="44.49835720869671" lon="9.351570300212437"><ele>818.0</ele><time>2026-04-19T10:47:08.999Z</time></trkpt><trkpt lat="44.49845633577287" lon="9.351701225528277"><ele>818.0</ele><time>2026-04-19T10:47:09.999Z</time></trkpt><trkpt lat="44.49857645640999" lon="9.351753823317903"><ele>818.0</ele><time>2026-04-19T10:47:10.999Z</time></trkpt><trkpt lat="44.49871068374018" lon="9.351716195585235"><ele>816.3333333333334</ele><time>2026-04-19T10:47:11.999Z</time></trkpt><trkpt lat="44.498859207563484" lon="9.351606186370324"><ele>814.6666666666667</ele><time>2026-04-19T10:47:12.999Z</time></trkpt><trkpt lat="44.49902661532474" lon="9.351468848023048"><ele>813.0</ele><time>2026-04-19T10:47:13.999Z</time></trkpt><trkpt lat="44.49921358149169" lon="9.351325339281548"><ele>812.6666666666667</ele><time>2026-04-19T10:47:14.998Z</time></trkpt><trkpt lat="44.49939218760073" lon="9.351172779555961"><ele>812.3333333333334</ele><time>2026-04-19T10:47:15.999Z</time></trkpt><trkpt lat="44.49958874169447" lon="9.350987988309798"><ele>812.0</ele><time>2026-04-19T10:47:16.999Z</time></trkpt><trkpt lat="44.499798382050784" lon="9.350822160120359"><ele>812.0</ele><time>2026-04-19T10:47:17.999Z</time></trkpt><trkpt lat="44.500003184315304" lon="9.35070529272454"><ele>812.0</ele><time>2026-04-19T10:47:18.999Z</time></trkpt><trkpt lat="44.500176779740464" lon="9.350611734162555"><ele>812.0</ele><time>2026-04-19T10:47:19.999Z</time></trkpt><trkpt lat="44.500334748287614" lon="9.350586852220788"><ele>812.0</ele><time>2026-04-19T10:47:20.999Z</time></trkpt><trkpt lat="44.500505443636385" lon="9.35062045590874"><ele>812.0</ele><time>2026-04-19T10:47:21.999Z</time></trkpt><trkpt lat="44.500703442592524" lon="9.350626382970034"><ele>812.0</ele><time>2026-04-19T10:47:22.999Z</time></trkpt><trkpt lat="44.50086724725149" lon="9.350630640913858"><ele>812.0</ele><time>2026-04-19T10:47:23.999Z</time></trkpt><trkpt lat="44.50100092132665" lon="9.350657705020385"><ele>812.0</ele><time>2026-04-19T10:47:24.999Z</time></trkpt><trkpt lat="44.501085947115776" lon="9.350776588344463"><ele>812.0</ele><time>2026-04-19T10:47:25.999Z</time></trkpt><trkpt lat="44.50115221518766" lon="9.350934431714036"><ele>812.0</ele><time>2026-04-19T10:47:26.999Z</time></trkpt><trkpt lat="44.501221146230456" lon="9.351154597487788"><ele>812.3333333333334</ele><time>2026-04-19T10:47:27.999Z</time></trkpt><trkpt lat="44.50133605644217" lon="9.351374852280726"><ele>812.6666666666667</ele><time>2026-04-19T10:47:28.999Z</time></trkpt><trkpt lat="44.50146301158602" lon="9.35160346552714"><ele>813.0</ele><time>2026-04-19T10:47:29.999Z</time></trkpt><trkpt lat="44.501596335552506" lon="9.351784058682746"><ele>813.0</ele><time>2026-04-19T10:47:30.999Z</time></trkpt><trkpt lat="44.501696803491804" lon="9.351936189064931"><ele>813.0</ele><time>2026-04-19T10:47:31.999Z</time></trkpt><trkpt lat="44.501783244613875" lon="9.352074930102832"><ele>813.0</ele><time>2026-04-19T10:47:32.999Z</time></trkpt><trkpt lat="44.50186351151097" lon="9.352186520156048"><ele>813.0</ele><time>2026-04-19T10:47:33.999Z</time></trkpt><trkpt lat="44.50196156337851" lon="9.352284524496397"><ele>813.5</ele><time>2026-04-19T10:47:34.999Z</time></trkpt><trkpt lat="44.502080625860025" lon="9.352377048216589"><ele>814.0</ele><time>2026-04-19T10:47:35.999Z</time></trkpt><trkpt lat="44.50220443467352" lon="9.352443927541552"><ele>814.5</ele><time>2026-04-19T10:47:36.999Z</time></trkpt><trkpt lat="44.50232653842571" lon="9.352504542927605"><ele>815.0</ele><time>2026-04-19T10:47:37.999Z</time></trkpt><trkpt lat="44.50246548064664" lon="9.352563528464247"><ele>815.0</ele><time>2026-04-19T10:47:38.999Z</time></trkpt><trkpt lat="44.502609657263754" lon="9.352616323055681"><ele>815.0</ele><time>2026-04-19T10:47:39.999Z</time></trkpt><trkpt lat="44.502757150190504" lon="9.352674132239024"><ele>815.0</ele><time>2026-04-19T10:47:40.999Z</time></trkpt><trkpt lat="44.502897899197684" lon="9.352732813702373"><ele>815.0</ele><time>2026-04-19T10:47:41.999Z</time></trkpt><trkpt lat="44.50304487177144" lon="9.352796859078714"><ele>812.6666666666667</ele><time>2026-04-19T10:47:42.999Z</time></trkpt><trkpt lat="44.503194188909035" lon="9.352855745268908"><ele>810.3333333333333</ele><time>2026-04-19T10:47:43.999Z</time></trkpt><trkpt lat="44.5033317686355" lon="9.352911773101116"><ele>808.0</ele><time>2026-04-19T10:47:44.999Z</time></trkpt><trkpt lat="44.503479183324615" lon="9.352975091878479"><ele>808.0</ele><time>2026-04-19T10:47:45.999Z</time></trkpt><trkpt lat="44.50361795290389" lon="9.35303458419276"><ele>808.0</ele><time>2026-04-19T10:47:46.999Z</time></trkpt><trkpt lat="44.50375758587358" lon="9.353099852416404"><ele>808.0</ele><time>2026-04-19T10:47:47.999Z</time></trkpt><trkpt lat="44.50390044619673" lon="9.353167913265723"><ele>808.0</ele><time>2026-04-19T10:47:48.999Z</time></trkpt><trkpt lat="44.50403480680656" lon="9.353245043337619"><ele>808.5</ele><time>2026-04-19T10:47:49.999Z</time></trkpt><trkpt lat="44.504179740199156" lon="9.35331700572461"><ele>809.0</ele><time>2026-04-19T10:47:50.999Z</time></trkpt><trkpt lat="44.504318124783154" lon="9.353388794015562"><ele>809.5</ele><time>2026-04-19T10:47:51.999Z</time></trkpt><trkpt lat="44.504442288923265" lon="9.353453777066001"><ele>810.0</ele><time>2026-04-19T10:47:52.999Z</time></trkpt><trkpt lat="44.50454226952777" lon="9.353497409796987"><ele>810.0</ele><time>2026-04-19T10:47:53.999Z</time></trkpt><trkpt lat="44.50461451330394" lon="9.353519327076025"><ele>810.0</ele><time>2026-04-19T10:47:54.999Z</time></trkpt><trkpt lat="44.50466621226097" lon="9.35360848057832"><ele>810.0</ele><time>2026-04-19T10:47:56.999Z</time></trkpt><trkpt lat="44.50472376667048" lon="9.35365987141763"><ele>810.0</ele><time>2026-04-19T10:48:18.999Z</time></trkpt><trkpt lat="44.50478877590197" lon="9.35382292648929"><ele>810.0</ele><time>2026-04-19T10:48:19.999Z</time></trkpt><trkpt lat="44.50480080180512" lon="9.353663644879585"><ele>810.0</ele><time>2026-04-19T10:48:20.999Z</time></trkpt><trkpt lat="44.50487669355825" lon="9.353712517858089"><ele>810.0</ele><time>2026-04-19T10:48:21.999Z</time></trkpt><trkpt lat="44.50496440056182" lon="9.353791669091176"><ele>810.0</ele><time>2026-04-19T10:48:22.999Z</time></trkpt><trkpt lat="44.5050782621809" lon="9.353878230033404"><ele>810.0</ele><time>2026-04-19T10:48:23.999Z</time></trkpt><trkpt lat="44.50520961454408" lon="9.35395933981728"><ele>810.6666666666667</ele><time>2026-04-19T10:48:24.999Z</time></trkpt><trkpt lat="44.50536869657677" lon="9.354032190528386"><ele>811.3333333333334</ele><time>2026-04-19T10:48:25.999Z</time></trkpt><trkpt lat="44.5055440193425" lon="9.354059479986578"><ele>812.0</ele><time>2026-04-19T10:48:26.999Z</time></trkpt><trkpt lat="44.505713772774186" lon="9.354085000550983"><ele>812.0</ele><time>2026-04-19T10:48:27.999Z</time></trkpt><trkpt lat="44.50585173320591" lon="9.354190855144639"><ele>812.0</ele><time>2026-04-19T10:48:28.999Z</time></trkpt><trkpt lat="44.50595218571617" lon="9.354296944957744"><ele>812.0</ele><time>2026-04-19T10:48:29.999Z</time></trkpt><trkpt lat="44.505996018752995" lon="9.354482696767306"><ele>812.0</ele><time>2026-04-19T10:48:30.999Z</time></trkpt><trkpt lat="44.506068073326375" lon="9.354673745551624"><ele>812.6666666666667</ele><time>2026-04-19T10:48:31.999Z</time></trkpt><trkpt lat="44.50616243298332" lon="9.354867609272182"><ele>813.3333333333333</ele><time>2026-04-19T10:48:32.999Z</time></trkpt><trkpt lat="44.50629399162352" lon="9.355044713714836"><ele>814.0</ele><time>2026-04-19T10:48:33.999Z</time></trkpt><trkpt lat="44.50644633989046" lon="9.355170374485237"><ele>814.0</ele><time>2026-04-19T10:48:34.999Z</time></trkpt><trkpt lat="44.506596192578534" lon="9.355236100033832"><ele>814.0</ele><time>2026-04-19T10:48:35.999Z</time></trkpt><trkpt lat="44.506787204092745" lon="9.355250442770568"><ele>814.0</ele><time>2026-04-19T10:48:36.999Z</time></trkpt><trkpt lat="44.506995971572074" lon="9.355261414141866"><ele>813.3333333333333</ele><time>2026-04-19T10:48:37.999Z</time></trkpt><trkpt lat="44.50720821432646" lon="9.355250721843921"><ele>812.6666666666667</ele><time>2026-04-19T10:48:38.999Z</time></trkpt><trkpt lat="44.50741367892735" lon="9.355213515726932"><ele>812.0</ele><time>2026-04-19T10:48:39.999Z</time></trkpt><trkpt lat="44.50761479670433" lon="9.355119359631756"><ele>812.0</ele><time>2026-04-19T10:48:40.999Z</time></trkpt><trkpt lat="44.507827857780214" lon="9.354996273486773"><ele>812.0</ele><time>2026-04-19T10:48:41.999Z</time></trkpt><trkpt lat="44.50802556221563" lon="9.354844111710188"><ele>811.0</ele><time>2026-04-19T10:48:42.999Z</time></trkpt><trkpt lat="44.50819526454504" lon="9.35467517426609"><ele>810.0</ele><time>2026-04-19T10:48:43.999Z</time></trkpt><trkpt lat="44.50834732131172" lon="9.354496348194392"><ele>809.0</ele><time>2026-04-19T10:48:44.999Z</time></trkpt><trkpt lat="44.508494200239845" lon="9.354368498829709"><ele>809.0</ele><time>2026-04-19T10:48:45.999Z</time></trkpt><trkpt lat="44.508620238487154" lon="9.354267841321525"><ele>809.0</ele><time>2026-04-19T10:48:46.999Z</time></trkpt><trkpt lat="44.50875087003645" lon="9.3542222388917"><ele>809.0</ele><time>2026-04-19T10:48:47.999Z</time></trkpt><trkpt lat="44.50889528377641" lon="9.354246218445384"><ele>809.0</ele><time>2026-04-19T10:48:48.999Z</time></trkpt><trkpt lat="44.50906620419704" lon="9.354266942067618"><ele>807.6666666666667</ele><time>2026-04-19T10:48:49.999Z</time></trkpt><trkpt lat="44.50922971823449" lon="9.354312330249611"><ele>806.3333333333333</ele><time>2026-04-19T10:48:50.999Z</time></trkpt><trkpt lat="44.50940108397556" lon="9.354320916671531"><ele>805.0</ele><time>2026-04-19T10:48:51.999Z</time></trkpt><trkpt lat="44.50955145390662" lon="9.354332117034522"><ele>801.3333333333333</ele><time>2026-04-19T10:48:52.999Z</time></trkpt><trkpt lat="44.50971695074568" lon="9.354363543955483"><ele>797.6666666666667</ele><time>2026-04-19T10:48:53.999Z</time></trkpt><trkpt lat="44.50987295271888" lon="9.354421271934273"><ele>794.0</ele><time>2026-04-19T10:48:54.999Z</time></trkpt><trkpt lat="44.510022730231086" lon="9.354557966588006"><ele>796.75</ele><time>2026-04-19T10:48:55.999Z</time></trkpt><trkpt lat="44.510058878559356" lon="9.35478145987548"><ele>799.5</ele><time>2026-04-19T10:48:56.999Z</time></trkpt><trkpt lat="44.510095520538854" lon="9.354902419370903"><ele>802.25</ele><time>2026-04-19T10:48:57.999Z</time></trkpt><trkpt lat="44.510166703900396" lon="9.355148982426124"><ele>805.0</ele><time>2026-04-19T10:48:58.999Z</time></trkpt><trkpt lat="44.51023640071203" lon="9.355355969690006"><ele>805.0</ele><time>2026-04-19T10:48:59.999Z</time></trkpt><trkpt lat="44.51035576663323" lon="9.355508597351466"><ele>805.0</ele><time>2026-04-19T10:49:00.999Z</time></trkpt><trkpt lat="44.51048915973396" lon="9.35560467056633"><ele>805.0</ele><time>2026-04-19T10:49:01.999Z</time></trkpt><trkpt lat="44.5106909692802" lon="9.355641739289611"><ele>804.0</ele><time>2026-04-19T10:49:02.999Z</time></trkpt><trkpt lat="44.510910605349984" lon="9.35564246155566"><ele>803.0</ele><time>2026-04-19T10:49:03.999Z</time></trkpt><trkpt lat="44.51109627532622" lon="9.355693513341091"><ele>802.0</ele><time>2026-04-19T10:49:04.999Z</time></trkpt><trkpt lat="44.511247357773684" lon="9.3557364199625"><ele>792.6666666666666</ele><time>2026-04-19T10:49:05.999Z</time></trkpt><trkpt lat="44.5113645543596" lon="9.3558424474043"><ele>783.3333333333333</ele><time>2026-04-19T10:49:06.999Z</time></trkpt><trkpt lat="44.51146318653028" lon="9.356023181019498"><ele>774.0</ele><time>2026-04-19T10:49:07.999Z</time></trkpt><trkpt lat="44.511577491296684" lon="9.356226974645747"><ele>778.0</ele><time>2026-04-19T10:49:08.999Z</time></trkpt><trkpt lat="44.51170908223143" lon="9.356441230788812"><ele>782.0</ele><time>2026-04-19T10:49:09.999Z</time></trkpt><trkpt lat="44.511825266496935" lon="9.35663093406671"><ele>786.0</ele><time>2026-04-19T10:49:10.999Z</time></trkpt><trkpt lat="44.511919993657216" lon="9.356808871165867"><ele>786.0</ele><time>2026-04-19T10:49:11.999Z</time></trkpt><trkpt lat="44.51195305480916" lon="9.356979505504016"><ele>786.0</ele><time>2026-04-19T10:49:12.999Z</time></trkpt><trkpt lat="44.511969104605946" lon="9.357174866169016"><ele>786.0</ele><time>2026-04-19T10:49:13.999Z</time></trkpt><trkpt lat="44.5119522941485" lon="9.357400478808831"><ele>786.0</ele><time>2026-04-19T10:49:14.999Z</time></trkpt><trkpt lat="44.51193317435104" lon="9.357666443994312"><ele>786.0</ele><time>2026-04-19T10:49:15.999Z</time></trkpt><trkpt lat="44.51191029636736" lon="9.357952621948948"><ele>786.0</ele><time>2026-04-19T10:49:16.999Z</time></trkpt><trkpt lat="44.51187421290908" lon="9.358189177923714"><ele>786.0</ele><time>2026-04-19T10:49:17.999Z</time></trkpt><trkpt lat="44.51180098419162" lon="9.358416914763291"><ele>785.6666666666667</ele><time>2026-04-19T10:49:18.999Z</time></trkpt><trkpt lat="44.511721925534964" lon="9.358638225701222"><ele>785.3333333333334</ele><time>2026-04-19T10:49:19.999Z</time></trkpt><trkpt lat="44.51168269084774" lon="9.358865803892689"><ele>785.0</ele><time>2026-04-19T10:49:20.999Z</time></trkpt><trkpt lat="44.511698261650366" lon="9.359139400472715"><ele>781.3333333333334</ele><time>2026-04-19T10:49:21.999Z</time></trkpt><trkpt lat="44.51172602986112" lon="9.359375427609217"><ele>777.6666666666667</ele><time>2026-04-19T10:49:22.999Z</time></trkpt><trkpt lat="44.511661920056596" lon="9.359564113816969"><ele>774.0</ele><time>2026-04-19T10:49:23.999Z</time></trkpt><trkpt lat="44.51159385366246" lon="9.359776851901458"><ele>772.0</ele><time>2026-04-19T10:49:24.999Z</time></trkpt><trkpt lat="44.51150795705663" lon="9.35996028848675"><ele>770.0</ele><time>2026-04-19T10:49:26Z</time></trkpt><trkpt lat="44.5114519149135" lon="9.360142170331327"><ele>768.0</ele><time>2026-04-19T10:49:27Z</time></trkpt><trkpt lat="44.51140606220142" lon="9.360295647966824"><ele>766.0</ele><time>2026-04-19T10:49:28Z</time></trkpt><trkpt lat="44.51144665812663" lon="9.36047467136084"><ele>768.25</ele><time>2026-04-19T10:49:29Z</time></trkpt><trkpt lat="44.511564883975936" lon="9.360592707855323"><ele>770.5</ele><time>2026-04-19T10:49:30Z</time></trkpt><trkpt lat="44.51171213191903" lon="9.36063904489941"><ele>772.75</ele><time>2026-04-19T10:49:31Z</time></trkpt><trkpt lat="44.511857071050215" lon="9.360684196009943"><ele>775.0</ele><time>2026-04-19T10:49:32Z</time></trkpt><trkpt lat="44.511945181318346" lon="9.36082828345761"><ele>775.0</ele><time>2026-04-19T10:49:33Z</time></trkpt><trkpt lat="44.511958074234826" lon="9.360996495897988"><ele>775.0</ele><time>2026-04-19T10:49:34Z</time></trkpt><trkpt lat="44.51196064476334" lon="9.361217595200277"><ele>775.0</ele><time>2026-04-19T10:49:35Z</time></trkpt><trkpt lat="44.5119432615982" lon="9.36142815466659"><ele>775.0</ele><time>2026-04-19T10:49:36Z</time></trkpt><trkpt lat="44.51193016625747" lon="9.361618644012184"><ele>778.0</ele><time>2026-04-19T10:49:37Z</time></trkpt><trkpt lat="44.511954208075366" lon="9.361791709600764"><ele>781.0</ele><time>2026-04-19T10:49:38Z</time></trkpt><trkpt lat="44.51200457240668" lon="9.361946703087748"><ele>784.0</ele><time>2026-04-19T10:49:39Z</time></trkpt><trkpt lat="44.512056903324684" lon="9.362101145005141"><ele>787.0</ele><time>2026-04-19T10:49:40Z</time></trkpt><trkpt lat="44.51208444633167" lon="9.362258531050532"><ele>784.25</ele><time>2026-04-19T10:49:41Z</time></trkpt><trkpt lat="44.51206245078744" lon="9.362417322509073"><ele>781.5</ele><time>2026-04-19T10:49:42Z</time></trkpt><trkpt lat="44.51203271228137" lon="9.362595363366175"><ele>778.75</ele><time>2026-04-19T10:49:43Z</time></trkpt><trkpt lat="44.511970114600125" lon="9.36277753140932"><ele>776.0</ele><time>2026-04-19T10:49:44Z</time></trkpt><trkpt lat="44.5119269420181" lon="9.362950495494385"><ele>775.1999999999999</ele><time>2026-04-19T10:49:45Z</time></trkpt><trkpt lat="44.51188313962574" lon="9.363111995239013"><ele>774.4</ele><time>2026-04-19T10:49:46Z</time></trkpt><trkpt lat="44.511854372382025" lon="9.363264339606104"><ele>773.6</ele><time>2026-04-19T10:49:47Z</time></trkpt><trkpt lat="44.51185008185467" lon="9.363410407937561"><ele>772.8</ele><time>2026-04-19T10:49:48Z</time></trkpt><trkpt lat="44.51188642312313" lon="9.363551984073"><ele>772.0</ele><time>2026-04-19T10:49:49Z</time></trkpt><trkpt lat="44.51196817263582" lon="9.36367821913296"><ele>772.0</ele><time>2026-04-19T10:49:50Z</time></trkpt><trkpt lat="44.512065462930615" lon="9.36377017400425"><ele>772.0</ele><time>2026-04-19T10:49:51Z</time></trkpt><trkpt lat="44.5121480460938" lon="9.363900761326661"><ele>772.0</ele><time>2026-04-19T10:49:52Z</time></trkpt><trkpt lat="44.51216964135913" lon="9.364073678972089"><ele>772.0</ele><time>2026-04-19T10:49:53Z</time></trkpt><trkpt lat="44.51220341617887" lon="9.364306604007128"><ele>763.5</ele><time>2026-04-19T10:49:54Z</time></trkpt><trkpt lat="44.512211100076755" lon="9.364524027427807"><ele>755.0</ele><time>2026-04-19T10:49:55Z</time></trkpt><trkpt lat="44.512194967380665" lon="9.364734144724713"><ele>746.5</ele><time>2026-04-19T10:49:56Z</time></trkpt><trkpt lat="44.51217837397766" lon="9.364919621164436"><ele>738.0</ele><time>2026-04-19T10:49:57Z</time></trkpt><trkpt lat="44.51214354700064" lon="9.365092258117738"><ele>737.5</ele><time>2026-04-19T10:49:58Z</time></trkpt><trkpt lat="44.51214155379334" lon="9.365259337417198"><ele>737.0</ele><time>2026-04-19T10:49:59Z</time></trkpt><trkpt lat="44.5121924028556" lon="9.365427997886929"><ele>736.5</ele><time>2026-04-19T10:50:00Z</time></trkpt><trkpt lat="44.51227290653116" lon="9.365596283876826"><ele>736.0</ele><time>2026-04-19T10:50:01Z</time></trkpt><trkpt lat="44.512357352975336" lon="9.36577177196063"><ele>739.0</ele><time>2026-04-19T10:50:02Z</time></trkpt><trkpt lat="44.51245090881787" lon="9.365984443358062"><ele>742.0</ele><time>2026-04-19T10:50:03Z</time></trkpt><trkpt lat="44.51259110989547" lon="9.366200824084155"><ele>745.0</ele><time>2026-04-19T10:50:04Z</time></trkpt><trkpt lat="44.512737427286076" lon="9.366418950844421"><ele>740.0</ele><time>2026-04-19T10:50:05Z</time></trkpt><trkpt lat="44.512878299942315" lon="9.366646882321199"><ele>735.0</ele><time>2026-04-19T10:50:06Z</time></trkpt><trkpt lat="44.51298594144866" lon="9.366867228959773"><ele>730.0</ele><time>2026-04-19T10:50:07Z</time></trkpt><trkpt lat="44.51304291631383" lon="9.367068697226623"><ele>733.5</ele><time>2026-04-19T10:50:08Z</time></trkpt><trkpt lat="44.513127840378466" lon="9.367245623561633"><ele>737.0</ele><time>2026-04-19T10:50:09Z</time></trkpt><trkpt lat="44.51315681069923" lon="9.367420024350592"><ele>740.5</ele><time>2026-04-19T10:50:10Z</time></trkpt><trkpt lat="44.51322936205756" lon="9.367553874149017"><ele>744.0</ele><time>2026-04-19T10:50:11Z</time></trkpt><trkpt lat="44.5133733544545" lon="9.367657839022124"><ele>744.0</ele><time>2026-04-19T10:50:12Z</time></trkpt><trkpt lat="44.51354479322973" lon="9.367781001669272"><ele>744.0</ele><time>2026-04-19T10:50:13Z</time></trkpt><trkpt lat="44.51370927959814" lon="9.367944325325858"><ele>744.0</ele><time>2026-04-19T10:50:14Z</time></trkpt><trkpt lat="44.51385032774835" lon="9.368053228777702"><ele>742.6666666666666</ele><time>2026-04-19T10:50:15Z</time></trkpt><trkpt lat="44.514009223059155" lon="9.368194416402805"><ele>741.3333333333333</ele><time>2026-04-19T10:50:16Z</time></trkpt><trkpt lat="44.514191332372484" lon="9.368366423650516"><ele>740.0</ele><time>2026-04-19T10:50:17Z</time></trkpt><trkpt lat="44.51436872902924" lon="9.368514049718177"><ele>740.0</ele><time>2026-04-19T10:50:18Z</time></trkpt><trkpt lat="44.514508715985315" lon="9.368684182128987"><ele>740.0</ele><time>2026-04-19T10:50:19Z</time></trkpt><trkpt lat="44.514647157167076" lon="9.368822182436112"><ele>740.0</ele><time>2026-04-19T10:50:20Z</time></trkpt><trkpt lat="44.514779431868924" lon="9.36893723819396"><ele>737.6666666666666</ele><time>2026-04-19T10:50:21Z</time></trkpt><trkpt lat="44.51490050322092" lon="9.369106752345788"><ele>735.3333333333334</ele><time>2026-04-19T10:50:22Z</time></trkpt><trkpt lat="44.51501754805563" lon="9.369290080270279"><ele>733.0</ele><time>2026-04-19T10:50:23Z</time></trkpt><trkpt lat="44.515113338582324" lon="9.369478705287879"><ele>733.0</ele><time>2026-04-19T10:50:23.999Z</time></trkpt><trkpt lat="44.515208008757206" lon="9.36968242406427"><ele>733.0</ele><time>2026-04-19T10:50:24.999Z</time></trkpt><trkpt lat="44.51531052331068" lon="9.369891585511336"><ele>733.0</ele><time>2026-04-19T10:50:25.999Z</time></trkpt><trkpt lat="44.51542326507059" lon="9.37009946767255"><ele>732.3333333333334</ele><time>2026-04-19T10:50:26.999Z</time></trkpt><trkpt lat="44.515539076161176" lon="9.370325876755693"><ele>731.6666666666666</ele><time>2026-04-19T10:50:27.999Z</time></trkpt><trkpt lat="44.51565170713876" lon="9.370550573717043"><ele>731.0</ele><time>2026-04-19T10:50:28.999Z</time></trkpt><trkpt lat="44.515764757885336" lon="9.370765802606746"><ele>731.0</ele><time>2026-04-19T10:50:29.999Z</time></trkpt><trkpt lat="44.515868846322675" lon="9.370975524828573"><ele>731.0</ele><time>2026-04-19T10:50:30.999Z</time></trkpt><trkpt lat="44.51598475691411" lon="9.371193313999557"><ele>731.0</ele><time>2026-04-19T10:50:31.999Z</time></trkpt><trkpt lat="44.51610475446131" lon="9.371380473912257"><ele>727.6666666666666</ele><time>2026-04-19T10:50:32.999Z</time></trkpt><trkpt lat="44.51624383159829" lon="9.371559321018854"><ele>724.3333333333334</ele><time>2026-04-19T10:50:33.999Z</time></trkpt><trkpt lat="44.516390184149" lon="9.371694342457147"><ele>721.0</ele><time>2026-04-19T10:50:34.999Z</time></trkpt><trkpt lat="44.516549579990816" lon="9.371801787131607"><ele>721.0</ele><time>2026-04-19T10:50:35.999Z</time></trkpt><trkpt lat="44.51673931088078" lon="9.371854549461771"><ele>721.0</ele><time>2026-04-19T10:50:36.999Z</time></trkpt><trkpt lat="44.51694992894161" lon="9.37187715079246"><ele>721.0</ele><time>2026-04-19T10:50:37.999Z</time></trkpt><trkpt lat="44.51715145897014" lon="9.37190551216281"><ele>720.0</ele><time>2026-04-19T10:50:38.999Z</time></trkpt><trkpt lat="44.517339561311346" lon="9.3719391357247"><ele>719.0</ele><time>2026-04-19T10:50:39.999Z</time></trkpt><trkpt lat="44.517521862947596" lon="9.371976379690038"><ele>718.0</ele><time>2026-04-19T10:50:40.999Z</time></trkpt><trkpt lat="44.51770452692994" lon="9.372017237166805"><ele>718.0</ele><time>2026-04-19T10:50:41.999Z</time></trkpt><trkpt lat="44.517892522105704" lon="9.372054114649142"><ele>718.0</ele><time>2026-04-19T10:50:42.999Z</time></trkpt><trkpt lat="44.51806690119394" lon="9.37208611065802"><ele>718.0</ele><time>2026-04-19T10:50:43.999Z</time></trkpt><trkpt lat="44.518228673536115" lon="9.372120976618046"><ele>717.0</ele><time>2026-04-19T10:50:44.999Z</time></trkpt><trkpt lat="44.518387434837024" lon="9.37215212639003"><ele>716.0</ele><time>2026-04-19T10:50:45.999Z</time></trkpt><trkpt lat="44.5185420115233" lon="9.37217745220089"><ele>715.0</ele><time>2026-04-19T10:50:46.999Z</time></trkpt><trkpt lat="44.518684722645176" lon="9.372217787210747"><ele>722.0</ele><time>2026-04-19T10:50:47.999Z</time></trkpt><trkpt lat="44.51881996480447" lon="9.372317937714554"><ele>729.0</ele><time>2026-04-19T10:50:48.999Z</time></trkpt><trkpt lat="44.518934288509" lon="9.372465298710651"><ele>736.0</ele><time>2026-04-19T10:50:49.999Z</time></trkpt><trkpt lat="44.51903041760079" lon="9.372666947473395"><ele>736.0</ele><time>2026-04-19T10:50:50.999Z</time></trkpt><trkpt lat="44.51913076787311" lon="9.372889250103277"><ele>736.0</ele><time>2026-04-19T10:50:51.999Z</time></trkpt><trkpt lat="44.51922398651145" lon="9.373133688712915"><ele>736.0</ele><time>2026-04-19T10:50:52.999Z</time></trkpt><trkpt lat="44.51937226466412" lon="9.373325050351237"><ele>739.6666666666667</ele><time>2026-04-19T10:50:53.999Z</time></trkpt><trkpt lat="44.519550258290344" lon="9.373482982252865"><ele>743.3333333333334</ele><time>2026-04-19T10:50:54.999Z</time></trkpt><trkpt lat="44.5197417430989" lon="9.373627096611386"><ele>747.0</ele><time>2026-04-19T10:50:55.999Z</time></trkpt><trkpt lat="44.51991685904549" lon="9.373752214988908"><ele>739.0</ele><time>2026-04-19T10:50:56.999Z</time></trkpt><trkpt lat="44.52004595271007" lon="9.373922380086272"><ele>731.0</ele><time>2026-04-19T10:50:57.999Z</time></trkpt><trkpt lat="44.520178285595456" lon="9.374101620574658"><ele>723.0</ele><time>2026-04-19T10:50:58.999Z</time></trkpt><trkpt lat="44.52029558988034" lon="9.374279729554047"><ele>723.0</ele><time>2026-04-19T10:50:59.999Z</time></trkpt><trkpt lat="44.520381748631436" lon="9.37447778395424"><ele>723.0</ele><time>2026-04-19T10:51:00.999Z</time></trkpt><trkpt lat="44.52040458320867" lon="9.374695236893082"><ele>723.0</ele><time>2026-04-19T10:51:01.999Z</time></trkpt><trkpt lat="44.52040283607948" lon="9.374894940679228"><ele>720.75</ele><time>2026-04-19T10:51:02.999Z</time></trkpt><trkpt lat="44.520369024723614" lon="9.375089844292683"><ele>718.5</ele><time>2026-04-19T10:51:03.999Z</time></trkpt><trkpt lat="44.52028967795508" lon="9.375252475788592"><ele>716.25</ele><time>2026-04-19T10:51:04.999Z</time></trkpt><trkpt lat="44.52022665523681" lon="9.375412121984297"><ele>714.0</ele><time>2026-04-19T10:51:05.999Z</time></trkpt><trkpt lat="44.520178552323465" lon="9.375550424399645"><ele>713.25</ele><time>2026-04-19T10:51:06.999Z</time></trkpt><trkpt lat="44.52020306325719" lon="9.375737545023878"><ele>712.5</ele><time>2026-04-19T10:51:07.999Z</time></trkpt><trkpt lat="44.52028641239997" lon="9.375892514396348"><ele>711.75</ele><time>2026-04-19T10:51:08.999Z</time></trkpt><trkpt lat="44.520412794083605" lon="9.375978746271304"><ele>711.0</ele><time>2026-04-19T10:51:09.999Z</time></trkpt><trkpt lat="44.520553479616716" lon="9.37600489292356"><ele>714.75</ele><time>2026-04-19T10:51:10.999Z</time></trkpt><trkpt lat="44.52064050394115" lon="9.376013294135028"><ele>718.5</ele><time>2026-04-19T10:51:11.999Z</time></trkpt><trkpt lat="44.52074351529533" lon="9.376033743760338"><ele>722.25</ele><time>2026-04-19T10:51:13.999Z</time></trkpt><trkpt lat="44.52082994027852" lon="9.376075205798674"><ele>726.0</ele><time>2026-04-19T10:51:16.999Z</time></trkpt><trkpt lat="44.52105096697102" lon="9.376156911093544"><ele>726.0</ele><time>2026-04-19T10:53:38Z</time></trkpt><trkpt lat="44.52115290007312" lon="9.376194590415905"><ele>726.0</ele><time>2026-04-19T10:53:39Z</time></trkpt><trkpt lat="44.521265812182925" lon="9.376239024468598"><ele>726.0</ele><time>2026-04-19T10:53:40Z</time></trkpt><trkpt lat="44.52138572379575" lon="9.376273598712334"><ele>726.0</ele><time>2026-04-19T10:53:41Z</time></trkpt><trkpt lat="44.52151611715219" lon="9.376314578961107"><ele>728.0</ele><time>2026-04-19T10:53:42Z</time></trkpt><trkpt lat="44.521649274400126" lon="9.376352852740403"><ele>730.0</ele><time>2026-04-19T10:53:43Z</time></trkpt><trkpt lat="44.52178899277557" lon="9.376392361853444"><ele>732.0</ele><time>2026-04-19T10:53:44Z</time></trkpt><trkpt lat="44.52193588139794" lon="9.376425676943857"><ele>734.0</ele><time>2026-04-19T10:53:45Z</time></trkpt><trkpt lat="44.522089426571206" lon="9.376466474005527"><ele>727.6666666666666</ele><time>2026-04-19T10:53:46Z</time></trkpt><trkpt lat="44.52224409372844" lon="9.37650364291601"><ele>721.3333333333334</ele><time>2026-04-19T10:53:47Z</time></trkpt><trkpt lat="44.522403189352325" lon="9.376537856999125"><ele>715.0</ele><time>2026-04-19T10:53:48Z</time></trkpt><trkpt lat="44.522571350605205" lon="9.37657347448003"><ele>715.0</ele><time>2026-04-19T10:53:49Z</time></trkpt><trkpt lat="44.52273957936207" lon="9.376624519429948"><ele>715.0</ele><time>2026-04-19T10:53:50Z</time></trkpt><trkpt lat="44.52291195225197" lon="9.37667246427436"><ele>715.0</ele><time>2026-04-19T10:53:51Z</time></trkpt><trkpt lat="44.523060719358554" lon="9.376739836682285"><ele>718.0</ele><time>2026-04-19T10:53:52Z</time></trkpt><trkpt lat="44.52320999943711" lon="9.376820462930356"><ele>721.0</ele><time>2026-04-19T10:53:53Z</time></trkpt><trkpt lat="44.523350941046104" lon="9.376904168131237"><ele>724.0</ele><time>2026-04-19T10:53:54Z</time></trkpt><trkpt lat="44.523491954561194" lon="9.376992802406873"><ele>724.0</ele><time>2026-04-19T10:53:55Z</time></trkpt><trkpt lat="44.52362686507579" lon="9.377086244027707"><ele>724.0</ele><time>2026-04-19T10:53:56Z</time></trkpt><trkpt lat="44.52376220057225" lon="9.3771695382268"><ele>724.0</ele><time>2026-04-19T10:53:57Z</time></trkpt><trkpt lat="44.52389781514486" lon="9.377256223441094"><ele>724.0</ele><time>2026-04-19T10:53:58Z</time></trkpt><trkpt lat="44.5240312514024" lon="9.377346372537128"><ele>720.75</ele><time>2026-04-19T10:53:59Z</time></trkpt><trkpt lat="44.52415801533959" lon="9.37747179024396"><ele>717.5</ele><time>2026-04-19T10:54:00Z</time></trkpt><trkpt lat="44.52428159112153" lon="9.377609809985497"><ele>714.25</ele><time>2026-04-19T10:54:01Z</time></trkpt><trkpt lat="44.52437628289324" lon="9.377742499555708"><ele>711.0</ele><time>2026-04-19T10:54:02Z</time></trkpt><trkpt lat="44.524494236364845" lon="9.377854329128214"><ele>709.6666666666666</ele><time>2026-04-19T10:54:03Z</time></trkpt><trkpt lat="44.524605627543934" lon="9.377940107250062"><ele>708.3333333333333</ele><time>2026-04-19T10:54:04Z</time></trkpt><trkpt lat="44.524878641413736" lon="9.378066560742173"><ele>707.0</ele><time>2026-04-19T10:54:05Z</time></trkpt><trkpt lat="44.52501480215053" lon="9.378163645318415"><ele>707.0</ele><time>2026-04-19T10:54:06Z</time></trkpt><trkpt lat="44.52514961024004" lon="9.378257313480855"><ele>707.0</ele><time>2026-04-19T10:54:07Z</time></trkpt><trkpt lat="44.52528778782944" lon="9.37834184721897"><ele>707.0</ele><time>2026-04-19T10:54:08Z</time></trkpt><trkpt lat="44.525415059789204" lon="9.378436986238922"><ele>707.0</ele><time>2026-04-19T10:54:09Z</time></trkpt><trkpt lat="44.52551305606931" lon="9.37856156507339"><ele>706.25</ele><time>2026-04-19T10:54:10Z</time></trkpt><trkpt lat="44.52557676240809" lon="9.378684647411584"><ele>705.5</ele><time>2026-04-19T10:54:11Z</time></trkpt><trkpt lat="44.525581348419884" lon="9.378831751063132"><ele>704.75</ele><time>2026-04-19T10:54:12Z</time></trkpt><trkpt lat="44.525551565584955" lon="9.378993083620749"><ele>704.0</ele><time>2026-04-19T10:54:13Z</time></trkpt><trkpt lat="44.525491942807065" lon="9.379146083406525"><ele>704.0</ele><time>2026-04-19T10:54:14Z</time></trkpt><trkpt lat="44.52543193347158" lon="9.379337257051082"><ele>704.0</ele><time>2026-04-19T10:54:15Z</time></trkpt><trkpt lat="44.525363485302314" lon="9.379550592722817"><ele>704.0</ele><time>2026-04-19T10:54:16Z</time></trkpt><trkpt lat="44.5252901756886" lon="9.379752584929944"><ele>705.6666666666666</ele><time>2026-04-19T10:54:17Z</time></trkpt><trkpt lat="44.52520343511829" lon="9.3799507919165"><ele>707.3333333333334</ele><time>2026-04-19T10:54:18Z</time></trkpt><trkpt lat="44.52510724446881" lon="9.380114645910137"><ele>709.0</ele><time>2026-04-19T10:54:19Z</time></trkpt><trkpt lat="44.52499003929287" lon="9.38029578526439"><ele>709.0</ele><time>2026-04-19T10:54:20Z</time></trkpt><trkpt lat="44.524873435025285" lon="9.380473455115785"><ele>709.0</ele><time>2026-04-19T10:54:21Z</time></trkpt><trkpt lat="44.524757830413684" lon="9.380649601576557"><ele>709.0</ele><time>2026-04-19T10:54:22Z</time></trkpt><trkpt lat="44.524642992798995" lon="9.380837764036265"><ele>708.6666666666667</ele><time>2026-04-19T10:54:23Z</time></trkpt><trkpt lat="44.52452406145093" lon="9.381003602725844"><ele>708.3333333333334</ele><time>2026-04-19T10:54:24Z</time></trkpt><trkpt lat="44.524402416765454" lon="9.381176530251686"><ele>708.0</ele><time>2026-04-19T10:54:25Z</time></trkpt><trkpt lat="44.52428218439419" lon="9.38135242863009"><ele>705.0</ele><time>2026-04-19T10:54:26Z</time></trkpt><trkpt lat="44.52415685632177" lon="9.381534510362776"><ele>702.0</ele><time>2026-04-19T10:54:27Z</time></trkpt><trkpt lat="44.524033957739434" lon="9.381719369124287"><ele>699.0</ele><time>2026-04-19T10:54:28Z</time></trkpt><trkpt lat="44.523907846075296" lon="9.381910446484211"><ele>699.0</ele><time>2026-04-19T10:54:29Z</time></trkpt><trkpt lat="44.52378987298054" lon="9.382087856882572"><ele>699.0</ele><time>2026-04-19T10:54:30Z</time></trkpt><trkpt lat="44.523677792587364" lon="9.382255224152736"><ele>699.0</ele><time>2026-04-19T10:54:31Z</time></trkpt><trkpt lat="44.52357565543409" lon="9.382416554741015"><ele>700.5</ele><time>2026-04-19T10:54:32Z</time></trkpt><trkpt lat="44.52347181488309" lon="9.382569417061065"><ele>702.0</ele><time>2026-04-19T10:54:33Z</time></trkpt><trkpt lat="44.52337368498844" lon="9.382717675410186"><ele>703.5</ele><time>2026-04-19T10:54:34Z</time></trkpt><trkpt lat="44.5232968418481" lon="9.382829467691886"><ele>705.0</ele><time>2026-04-19T10:54:35Z</time></trkpt><trkpt lat="44.5232319731531" lon="9.382955463330509"><ele>705.75</ele><time>2026-04-19T10:54:36Z</time></trkpt><trkpt lat="44.52320403953786" lon="9.38310849759286"><ele>706.5</ele><time>2026-04-19T10:54:37Z</time></trkpt><trkpt lat="44.52322410695924" lon="9.383269027199445"><ele>707.25</ele><time>2026-04-19T10:54:38Z</time></trkpt><trkpt lat="44.52328220433042" lon="9.383406943266138"><ele>708.0</ele><time>2026-04-19T10:54:39Z</time></trkpt><trkpt lat="44.52335110874752" lon="9.38353340650233"><ele>708.0</ele><time>2026-04-19T10:54:40Z</time></trkpt><trkpt lat="44.52342358110694" lon="9.383670678365101"><ele>708.0</ele><time>2026-04-19T10:54:41Z</time></trkpt><trkpt lat="44.523497932283085" lon="9.383817532939522"><ele>708.0</ele><time>2026-04-19T10:54:42Z</time></trkpt><trkpt lat="44.523570914445195" lon="9.383968424230336"><ele>708.0</ele><time>2026-04-19T10:54:43Z</time></trkpt><trkpt lat="44.52365014250602" lon="9.384116246993354"><ele>705.5</ele><time>2026-04-19T10:54:44Z</time></trkpt><trkpt lat="44.52373820631927" lon="9.384256786531154"><ele>703.0</ele><time>2026-04-19T10:54:45Z</time></trkpt><trkpt lat="44.52383344768185" lon="9.384399175482686"><ele>700.5</ele><time>2026-04-19T10:54:46Z</time></trkpt><trkpt lat="44.52392275621285" lon="9.384547770246431"><ele>698.0</ele><time>2026-04-19T10:54:47Z</time></trkpt><trkpt lat="44.5240159545934" lon="9.384698199703823"><ele>706.0</ele><time>2026-04-19T10:54:48Z</time></trkpt><trkpt lat="44.52412314785183" lon="9.384834099486511"><ele>714.0</ele><time>2026-04-19T10:54:49Z</time></trkpt><trkpt lat="44.52425224937381" lon="9.384941498755571"><ele>722.0</ele><time>2026-04-19T10:54:50Z</time></trkpt><trkpt lat="44.52439867392932" lon="9.385026842313408"><ele>722.0</ele><time>2026-04-19T10:54:51Z</time></trkpt><trkpt lat="44.52454765709478" lon="9.38510599606675"><ele>722.0</ele><time>2026-04-19T10:54:52Z</time></trkpt><trkpt lat="44.524690611659146" lon="9.38517659024008"><ele>722.0</ele><time>2026-04-19T10:54:53Z</time></trkpt><trkpt lat="44.52481438795969" lon="9.385228010329058"><ele>722.0</ele><time>2026-04-19T10:54:54Z</time></trkpt><trkpt lat="44.524941794836884" lon="9.385252868535868"><ele>718.75</ele><time>2026-04-19T10:54:55Z</time></trkpt><trkpt lat="44.52507558176597" lon="9.385257836869874"><ele>715.5</ele><time>2026-04-19T10:54:56Z</time></trkpt><trkpt lat="44.525193086411385" lon="9.385248116842257"><ele>712.25</ele><time>2026-04-19T10:54:57Z</time></trkpt><trkpt lat="44.525288128562664" lon="9.385215645174629"><ele>709.0</ele><time>2026-04-19T10:54:58Z</time></trkpt><trkpt lat="44.52538223377152" lon="9.385163485157504"><ele>708.8333333333334</ele><time>2026-04-19T10:54:59Z</time></trkpt><trkpt lat="44.52547758294627" lon="9.38510551671799"><ele>708.6666666666667</ele><time>2026-04-19T10:55:00Z</time></trkpt><trkpt lat="44.525562821793734" lon="9.385069945584549"><ele>708.5</ele><time>2026-04-19T10:55:01Z</time></trkpt><trkpt lat="44.52564256885731" lon="9.385057498159295"><ele>708.3333333333334</ele><time>2026-04-19T10:55:02Z</time></trkpt><trkpt lat="44.525719747797694" lon="9.385056537930696"><ele>708.1666666666666</ele><time>2026-04-19T10:55:03Z</time></trkpt><trkpt lat="44.52578874956504" lon="9.38507414213923"><ele>708.0</ele><time>2026-04-19T10:55:04Z</time></trkpt><trkpt lat="44.52585625877706" lon="9.385115299564116"><ele>708.0</ele><time>2026-04-19T10:55:05Z</time></trkpt><trkpt lat="44.525921730546685" lon="9.385183564702471"><ele>708.0</ele><time>2026-04-19T10:55:06Z</time></trkpt><trkpt lat="44.52597438856746" lon="9.38527717040211"><ele>708.0</ele><time>2026-04-19T10:55:07Z</time></trkpt><trkpt lat="44.52600031775109" lon="9.385367473253435"><ele>708.0</ele><time>2026-04-19T10:55:08Z</time></trkpt><trkpt lat="44.52602773740884" lon="9.385456843536062"><ele>708.0</ele><time>2026-04-19T10:55:10Z</time></trkpt><trkpt lat="44.526268980100596" lon="9.384997276354678"><ele>708.0</ele><time>2026-04-19T10:58:01.026Z</time></trkpt><trkpt lat="44.52620629582876" lon="9.38518768936192"><ele>708.0</ele><time>2026-04-19T10:58:02.025Z</time></trkpt><trkpt lat="44.526164258807086" lon="9.385299619650256"><ele>708.0</ele><time>2026-04-19T10:58:03.025Z</time></trkpt><trkpt lat="44.52609785402277" lon="9.385546083793962"><ele>708.0</ele><time>2026-04-19T10:58:13.012Z</time></trkpt><trkpt lat="44.5261438206743" lon="9.385467129081343"><ele>708.0</ele><time>2026-04-19T10:58:22.015Z</time></trkpt><trkpt lat="44.52616452373508" lon="9.385355257089971"><ele>708.0</ele><time>2026-04-19T10:58:37Z</time></trkpt><trkpt lat="44.52620507045928" lon="9.38525892162505"><ele>708.0</ele><time>2026-04-19T10:58:43Z</time></trkpt><trkpt lat="44.52615624142787" lon="9.38541999872317"><ele>708.0</ele><time>2026-04-19T10:59:22Z</time></trkpt><trkpt lat="44.52610607496447" lon="9.385496898106435"><ele>708.0</ele><time>2026-04-19T11:00:40.001Z</time></trkpt></trkseg></trk></gpx>